<?xml version="1.0" encoding="UTF-8" standalone="no" ?>
<gpx xmlns="http://www.topografix.com/GPX/1/1" xmlns:xsi="http://www.w3.org/2001/XMLSchema-instance" xsi:schemaLocation="http://www.topografix.com/GPX/1/1 http://www.topografix.com/GPX/1/1/gpx.xsd" version="1.1" creator="VisuGPX - https://www.visugpx.com">
  <metadata>
    <name>Turquie: itinéraire prévisionnel</name>
  </metadata>
  <trk>
    <name><![CDATA[1_De Batoumi à Malatya]]></name>
    <extensions>
      <line xmlns="http://www.topografix.com/GPX/gpx_style/0/2">
        <color>0000FF</color>
        <width>4</width>
      </line>
    </extensions>
    <trkseg>
      <trkpt lat="41.64577" lon="41.6257">
        <ele>9.364217</ele>
        <time>2021-11-15T11:31:59.255Z</time>
      </trkpt>
      <trkpt lat="41.64568" lon="41.62576">
        <ele>9.364217</ele>
        <time>2021-11-15T11:32:01.399Z</time>
      </trkpt>
      <trkpt lat="41.64541" lon="41.62493">
        <ele>9.364217</ele>
        <time>2021-11-15T11:32:19.533Z</time>
      </trkpt>
      <trkpt lat="41.64525" lon="41.62441">
        <ele>9.147881</ele>
        <time>2021-11-15T11:32:30.749Z</time>
      </trkpt>
      <trkpt lat="41.64533" lon="41.62437">
        <ele>9.087156</ele>
        <time>2021-11-15T11:32:32.379Z</time>
      </trkpt>
      <trkpt lat="41.64579" lon="41.62409">
        <ele>8.716134</ele>
        <time>2021-11-15T11:32:42.814Z</time>
      </trkpt>
      <trkpt lat="41.64616" lon="41.62385">
        <ele>8.419514</ele>
        <time>2021-11-15T11:32:51.184Z</time>
      </trkpt>
      <trkpt lat="41.64622" lon="41.62381">
        <ele>8.36627</ele>
        <time>2021-11-15T11:32:52.682Z</time>
      </trkpt>
      <trkpt lat="41.64627" lon="41.62372">
        <ele>8.305824</ele>
        <time>2021-11-15T11:32:54.299Z</time>
      </trkpt>
      <trkpt lat="41.64633" lon="41.62363">
        <ele>8.241407</ele>
        <time>2021-11-15T11:32:56.038Z</time>
      </trkpt>
      <trkpt lat="41.64652" lon="41.62337">
        <ele>8.052947</ele>
        <time>2021-11-15T11:33:01.572Z</time>
      </trkpt>
      <trkpt lat="41.64664" lon="41.62331">
        <ele>8.083989</ele>
        <time>2021-11-15T11:33:04.101Z</time>
      </trkpt>
      <trkpt lat="41.64701" lon="41.62311">
        <ele>8.183986</ele>
        <time>2021-11-15T11:33:13.057Z</time>
      </trkpt>
      <trkpt lat="41.64725" lon="41.62298">
        <ele>8.249102</ele>
        <time>2021-11-15T11:33:19.335Z</time>
      </trkpt>
      <trkpt lat="41.64731" lon="41.62294">
        <ele>8.264552</ele>
        <time>2021-11-15T11:33:20.773Z</time>
      </trkpt>
      <trkpt lat="41.64734" lon="41.62302">
        <ele>8.28103</ele>
        <time>2021-11-15T11:33:22.359Z</time>
      </trkpt>
      <trkpt lat="41.64738" lon="41.62303">
        <ele>8.292076</ele>
        <time>2021-11-15T11:33:23.462Z</time>
      </trkpt>
      <trkpt lat="41.64742" lon="41.623">
        <ele>8.302451</ele>
        <time>2021-11-15T11:33:24.444Z</time>
      </trkpt>
      <trkpt lat="41.64754" lon="41.62289">
        <ele>8.340421</ele>
        <time>2021-11-15T11:33:28.095Z</time>
      </trkpt>
      <trkpt lat="41.64763" lon="41.62282">
        <ele>8.364799</ele>
        <time>2021-11-15T11:33:30.383Z</time>
      </trkpt>
      <trkpt lat="41.64786" lon="41.62264">
        <ele>8.432787</ele>
        <time>2021-11-15T11:33:37.145Z</time>
      </trkpt>
      <trkpt lat="41.64787" lon="41.62266">
        <ele>8.437303</ele>
        <time>2021-11-15T11:33:37.581Z</time>
      </trkpt>
      <trkpt lat="41.64792" lon="41.6226">
        <ele>8.454524</ele>
        <time>2021-11-15T11:33:42.357Z</time>
      </trkpt>
      <trkpt lat="41.64832" lon="41.62217">
        <ele>8.661841</ele>
        <time>2021-11-15T11:34:17.730Z</time>
      </trkpt>
      <trkpt lat="41.64847" lon="41.62198">
        <ele>8.767489</ele>
        <time>2021-11-15T11:34:32.610Z</time>
      </trkpt>
      <trkpt lat="41.64809" lon="41.62141">
        <ele>9.049381</ele>
        <time>2021-11-15T11:34:47.430Z</time>
      </trkpt>
      <trkpt lat="41.64741" lon="41.62039">
        <ele>9.105658</ele>
        <time>2021-11-15T11:35:13.236Z</time>
      </trkpt>
      <trkpt lat="41.64618" lon="41.61852">
        <ele>7.099634</ele>
        <time>2021-11-15T11:35:50.138Z</time>
      </trkpt>
      <trkpt lat="41.64595" lon="41.61818">
        <ele>6.426202</ele>
        <time>2021-11-15T11:35:56.295Z</time>
      </trkpt>
      <trkpt lat="41.64578" lon="41.61793">
        <ele>5.923335</ele>
        <time>2021-11-15T11:36:00.849Z</time>
      </trkpt>
      <trkpt lat="41.64547" lon="41.61756">
        <ele>5.108734</ele>
        <time>2021-11-15T11:36:08.279Z</time>
      </trkpt>
      <trkpt lat="41.64477" lon="41.61669">
        <ele>3.470246</ele>
        <time>2021-11-15T11:36:25.759Z</time>
      </trkpt>
      <trkpt lat="41.6437" lon="41.61538">
        <ele>1.25095</ele>
        <time>2021-11-15T11:36:54.440Z</time>
      </trkpt>
      <trkpt lat="41.64334" lon="41.61494">
        <ele>0.463481</ele>
        <time>2021-11-15T11:37:03.739Z</time>
      </trkpt>
      <trkpt lat="41.64222" lon="41.61357">
        <ele>-1.396428</ele>
        <time>2021-11-15T11:37:32.203Z</time>
      </trkpt>
      <trkpt lat="41.64179" lon="41.61303">
        <ele>-1.573159</ele>
        <time>2021-11-15T11:37:44.603Z</time>
      </trkpt>
      <trkpt lat="41.64171" lon="41.61292">
        <ele>-1.606293</ele>
        <time>2021-11-15T11:37:47.171Z</time>
      </trkpt>
      <trkpt lat="41.6408" lon="41.61182">
        <ele>-1.144629</ele>
        <time>2021-11-15T11:38:20.441Z</time>
      </trkpt>
      <trkpt lat="41.64068" lon="41.61167">
        <ele>-0.950631</ele>
        <time>2021-11-15T11:38:25.235Z</time>
      </trkpt>
      <trkpt lat="41.64054" lon="41.6115">
        <ele>-0.721025</ele>
        <time>2021-11-15T11:38:31.023Z</time>
      </trkpt>
      <trkpt lat="41.64045" lon="41.61138">
        <ele>-0.570301</ele>
        <time>2021-11-15T11:38:34.749Z</time>
      </trkpt>
      <trkpt lat="41.64004" lon="41.6109">
        <ele>0.07024</ele>
        <time>2021-11-15T11:38:50.563Z</time>
      </trkpt>
      <trkpt lat="41.63964" lon="41.61042">
        <ele>0.386914</ele>
        <time>2021-11-15T11:39:05.012Z</time>
      </trkpt>
      <trkpt lat="41.63882" lon="41.60947">
        <ele>0.592907</ele>
        <time>2021-11-15T11:39:29.617Z</time>
      </trkpt>
      <trkpt lat="41.6384" lon="41.609">
        <ele>0.71938</ele>
        <time>2021-11-15T11:39:42.120Z</time>
      </trkpt>
      <trkpt lat="41.63774" lon="41.60825">
        <ele>1.012144</ele>
        <time>2021-11-15T11:40:03.479Z</time>
      </trkpt>
      <trkpt lat="41.63697" lon="41.60735">
        <ele>1.359919</ele>
        <time>2021-11-15T11:40:28.848Z</time>
      </trkpt>
      <trkpt lat="41.63594" lon="41.60618">
        <ele>1.826432</ele>
        <time>2021-11-15T11:41:02.746Z</time>
      </trkpt>
      <trkpt lat="41.6356" lon="41.60578">
        <ele>1.904203</ele>
        <time>2021-11-15T11:41:12.719Z</time>
      </trkpt>
      <trkpt lat="41.63344" lon="41.60373">
        <ele>1.897117</ele>
        <time>2021-11-15T11:42:14.532Z</time>
      </trkpt>
      <trkpt lat="41.63342" lon="41.60366">
        <ele>1.893904</ele>
        <time>2021-11-15T11:42:15.665Z</time>
      </trkpt>
      <trkpt lat="41.6334" lon="41.6036">
        <ele>1.891334</ele>
        <time>2021-11-15T11:42:17.006Z</time>
      </trkpt>
      <trkpt lat="41.63235" lon="41.60258">
        <ele>1.923499</ele>
        <time>2021-11-15T11:42:46.070Z</time>
      </trkpt>
      <trkpt lat="41.63162" lon="41.60188">
        <ele>2.006967</ele>
        <time>2021-11-15T11:43:07.717Z</time>
      </trkpt>
      <trkpt lat="41.63089" lon="41.60119">
        <ele>2.562359</ele>
        <time>2021-11-15T11:43:29.905Z</time>
      </trkpt>
      <trkpt lat="41.62974" lon="41.60013">
        <ele>3.56236</ele>
        <time>2021-11-15T11:44:08.507Z</time>
      </trkpt>
      <trkpt lat="41.62829" lon="41.59865">
        <ele>4.300759</ele>
        <time>2021-11-15T11:44:53.621Z</time>
      </trkpt>
      <trkpt lat="41.62746" lon="41.59767">
        <ele>4.224492</ele>
        <time>2021-11-15T11:45:18.359Z</time>
      </trkpt>
      <trkpt lat="41.62743" lon="41.59764">
        <ele>4.221771</ele>
        <time>2021-11-15T11:45:19.131Z</time>
      </trkpt>
      <trkpt lat="41.62742" lon="41.59762">
        <ele>4.220411</ele>
        <time>2021-11-15T11:45:19.561Z</time>
      </trkpt>
      <trkpt lat="41.62693" lon="41.59706">
        <ele>4.129173</ele>
        <time>2021-11-15T11:45:33.878Z</time>
      </trkpt>
      <trkpt lat="41.6241" lon="41.59379">
        <ele>3.4902</ele>
        <time>2021-11-15T11:46:57.596Z</time>
      </trkpt>
      <trkpt lat="41.62404" lon="41.59372">
        <ele>3.488577</ele>
        <time>2021-11-15T11:46:59.630Z</time>
      </trkpt>
      <trkpt lat="41.6227" lon="41.59199">
        <ele>3.434045</ele>
        <time>2021-11-15T11:47:43.484Z</time>
      </trkpt>
      <trkpt lat="41.62185" lon="41.59085">
        <ele>3.372271</ele>
        <time>2021-11-15T11:48:10.941Z</time>
      </trkpt>
      <trkpt lat="41.61956" lon="41.58827">
        <ele>2.88308</ele>
        <time>2021-11-15T11:49:17.902Z</time>
      </trkpt>
      <trkpt lat="41.61898" lon="41.58765">
        <ele>2.82117</ele>
        <time>2021-11-15T11:49:35.105Z</time>
      </trkpt>
      <trkpt lat="41.61956" lon="41.58827">
        <ele>2.893078</ele>
        <time>2021-11-15T11:49:52.574Z</time>
      </trkpt>
      <trkpt lat="41.62185" lon="41.59085">
        <ele>3.351692</ele>
        <time>2021-11-15T11:51:04.083Z</time>
      </trkpt>
      <trkpt lat="41.6227" lon="41.59199">
        <ele>3.447195</ele>
        <time>2021-11-15T11:51:32.552Z</time>
      </trkpt>
      <trkpt lat="41.62404" lon="41.59372">
        <ele>3.464315</ele>
        <time>2021-11-15T11:52:15.190Z</time>
      </trkpt>
      <trkpt lat="41.6241" lon="41.59379">
        <ele>3.464001</ele>
        <time>2021-11-15T11:52:16.965Z</time>
      </trkpt>
      <trkpt lat="41.62693" lon="41.59706">
        <ele>4.123916</ele>
        <time>2021-11-15T11:53:46.273Z</time>
      </trkpt>
      <trkpt lat="41.62742" lon="41.59762">
        <ele>4.213485</ele>
        <time>2021-11-15T11:54:02.001Z</time>
      </trkpt>
      <trkpt lat="41.62743" lon="41.59764">
        <ele>4.216186</ele>
        <time>2021-11-15T11:54:02.475Z</time>
      </trkpt>
      <trkpt lat="41.62746" lon="41.59767">
        <ele>4.221589</ele>
        <time>2021-11-15T11:54:03.611Z</time>
      </trkpt>
      <trkpt lat="41.62829" lon="41.59865">
        <ele>4.372691</ele>
        <time>2021-11-15T11:54:29.983Z</time>
      </trkpt>
      <trkpt lat="41.62974" lon="41.60013">
        <ele>3.64522</ele>
        <time>2021-11-15T11:55:09.716Z</time>
      </trkpt>
      <trkpt lat="41.63089" lon="41.60119">
        <ele>2.611392</ele>
        <time>2021-11-15T11:55:37.709Z</time>
      </trkpt>
      <trkpt lat="41.63162" lon="41.60188">
        <ele>2.349692</ele>
        <time>2021-11-15T11:55:57.849Z</time>
      </trkpt>
      <trkpt lat="41.63235" lon="41.60258">
        <ele>2.372523</ele>
        <time>2021-11-15T11:56:18.775Z</time>
      </trkpt>
      <trkpt lat="41.63223" lon="41.60278">
        <ele>2.377387</ele>
        <time>2021-11-15T11:56:32.174Z</time>
      </trkpt>
      <trkpt lat="41.63218" lon="41.60286">
        <ele>2.379358</ele>
        <time>2021-11-15T11:56:37.627Z</time>
      </trkpt>
      <trkpt lat="41.63197" lon="41.6026">
        <ele>2.447258</ele>
        <time>2021-11-15T11:56:44.237Z</time>
      </trkpt>
      <trkpt lat="41.63196" lon="41.60256">
        <ele>2.459807</ele>
        <time>2021-11-15T11:56:45.187Z</time>
      </trkpt>
      <trkpt lat="41.63193" lon="41.60252">
        <ele>2.472265</ele>
        <time>2021-11-15T11:56:46.272Z</time>
      </trkpt>
      <trkpt lat="41.6319" lon="41.6025">
        <ele>2.485876</ele>
        <time>2021-11-15T11:56:47.089Z</time>
      </trkpt>
      <trkpt lat="41.63172" lon="41.60233">
        <ele>2.566366</ele>
        <time>2021-11-15T11:56:52.396Z</time>
      </trkpt>
      <trkpt lat="41.63061" lon="41.60137">
        <ele>3.07428</ele>
        <time>2021-11-15T11:57:22.944Z</time>
      </trkpt>
      <trkpt lat="41.63025" lon="41.60133">
        <ele>3.554319</ele>
        <time>2021-11-15T11:57:32.076Z</time>
      </trkpt>
      <trkpt lat="41.63004" lon="41.60146">
        <ele>3.857808</ele>
        <time>2021-11-15T11:57:38.212Z</time>
      </trkpt>
      <trkpt lat="41.62945" lon="41.60214">
        <ele>4.890552</ele>
        <time>2021-11-15T11:58:01.263Z</time>
      </trkpt>
      <trkpt lat="41.62941" lon="41.60213">
        <ele>4.944844</ele>
        <time>2021-11-15T11:58:02.543Z</time>
      </trkpt>
      <trkpt lat="41.62933" lon="41.60214">
        <ele>5.051894</ele>
        <time>2021-11-15T11:58:05.108Z</time>
      </trkpt>
      <trkpt lat="41.62929" lon="41.60216">
        <ele>5.106207</ele>
        <time>2021-11-15T11:58:06.334Z</time>
      </trkpt>
      <trkpt lat="41.62878" lon="41.60159">
        <ele>5.627976</ele>
        <time>2021-11-15T11:58:25.238Z</time>
      </trkpt>
      <trkpt lat="41.62821" lon="41.60094">
        <ele>5.996497</ele>
        <time>2021-11-15T11:58:43.028Z</time>
      </trkpt>
      <trkpt lat="41.62716" lon="41.59975">
        <ele>5.867366</ele>
        <time>2021-11-15T11:59:12.511Z</time>
      </trkpt>
      <trkpt lat="41.62679" lon="41.59932">
        <ele>5.590646</ele>
        <time>2021-11-15T11:59:21.632Z</time>
      </trkpt>
      <trkpt lat="41.62652" lon="41.59901">
        <ele>5.390024</ele>
        <time>2021-11-15T11:59:28.478Z</time>
      </trkpt>
      <trkpt lat="41.62303" lon="41.59494">
        <ele>4.607919</ele>
        <time>2021-11-15T12:01:08.943Z</time>
      </trkpt>
      <trkpt lat="41.62295" lon="41.59486">
        <ele>4.605658</ele>
        <time>2021-11-15T12:01:11.084Z</time>
      </trkpt>
      <trkpt lat="41.62295" lon="41.59481">
        <ele>4.604788</ele>
        <time>2021-11-15T12:01:11.912Z</time>
      </trkpt>
      <trkpt lat="41.62292" lon="41.59473">
        <ele>4.603071</ele>
        <time>2021-11-15T12:01:13.561Z</time>
      </trkpt>
      <trkpt lat="41.62289" lon="41.5947">
        <ele>4.602219</ele>
        <time>2021-11-15T12:01:14.394Z</time>
      </trkpt>
      <trkpt lat="41.62286" lon="41.59452">
        <ele>4.599031</ele>
        <time>2021-11-15T12:01:17.867Z</time>
      </trkpt>
      <trkpt lat="41.62262" lon="41.59307">
        <ele>4.467728</ele>
        <time>2021-11-15T12:01:42.665Z</time>
      </trkpt>
      <trkpt lat="41.62252" lon="41.5925">
        <ele>4.371209</ele>
        <time>2021-11-15T12:01:52.240Z</time>
      </trkpt>
      <trkpt lat="41.62227" lon="41.59174">
        <ele>4.234383</ele>
        <time>2021-11-15T12:02:05.247Z</time>
      </trkpt>
      <trkpt lat="41.62183" lon="41.59099">
        <ele>4.053753</ele>
        <time>2021-11-15T12:02:19.311Z</time>
      </trkpt>
      <trkpt lat="41.61964" lon="41.58873">
        <ele>3.806732</ele>
        <time>2021-11-15T12:03:19.856Z</time>
      </trkpt>
      <trkpt lat="41.61951" lon="41.58858">
        <ele>3.818717</ele>
        <time>2021-11-15T12:03:24.030Z</time>
      </trkpt>
      <trkpt lat="41.61946" lon="41.58851">
        <ele>3.823858</ele>
        <time>2021-11-15T12:03:25.862Z</time>
      </trkpt>
      <trkpt lat="41.61939" lon="41.58849">
        <ele>3.82858</ele>
        <time>2021-11-15T12:03:27.605Z</time>
      </trkpt>
      <trkpt lat="41.61932" lon="41.5885">
        <ele>3.864997</ele>
        <time>2021-11-15T12:03:29.249Z</time>
      </trkpt>
      <trkpt lat="41.61922" lon="41.58862">
        <ele>3.94771</ele>
        <time>2021-11-15T12:03:32.512Z</time>
      </trkpt>
      <trkpt lat="41.6192" lon="41.58871">
        <ele>3.990407</ele>
        <time>2021-11-15T12:03:34.261Z</time>
      </trkpt>
      <trkpt lat="41.61921" lon="41.58878">
        <ele>4.023992</ele>
        <time>2021-11-15T12:03:35.641Z</time>
      </trkpt>
      <trkpt lat="41.61904" lon="41.589">
        <ele>4.168974</ele>
        <time>2021-11-15T12:03:41.486Z</time>
      </trkpt>
      <trkpt lat="41.61881" lon="41.58936">
        <ele>4.384195</ele>
        <time>2021-11-15T12:03:50.324Z</time>
      </trkpt>
      <trkpt lat="41.61826" lon="41.5903">
        <ele>4.926867</ele>
        <time>2021-11-15T12:04:12.883Z</time>
      </trkpt>
      <trkpt lat="41.61812" lon="41.59054">
        <ele>5.032306</ele>
        <time>2021-11-15T12:04:18.580Z</time>
      </trkpt>
      <trkpt lat="41.61749" lon="41.59164">
        <ele>5.506976</ele>
        <time>2021-11-15T12:04:43.255Z</time>
      </trkpt>
      <trkpt lat="41.61626" lon="41.59377">
        <ele>6.029838</ele>
        <time>2021-11-15T12:05:30.588Z</time>
      </trkpt>
      <trkpt lat="41.61621" lon="41.59385">
        <ele>6.04503</ele>
        <time>2021-11-15T12:05:32.326Z</time>
      </trkpt>
      <trkpt lat="41.61607" lon="41.59408">
        <ele>6.086445</ele>
        <time>2021-11-15T12:05:37.287Z</time>
      </trkpt>
      <trkpt lat="41.61582" lon="41.59446">
        <ele>6.014102</ele>
        <time>2021-11-15T12:05:45.355Z</time>
      </trkpt>
      <trkpt lat="41.61579" lon="41.59451">
        <ele>6.005211</ele>
        <time>2021-11-15T12:05:46.123Z</time>
      </trkpt>
      <trkpt lat="41.61546" lon="41.59502">
        <ele>5.898651</ele>
        <time>2021-11-15T12:05:57.072Z</time>
      </trkpt>
      <trkpt lat="41.61512" lon="41.59555">
        <ele>5.790093</ele>
        <time>2021-11-15T12:06:08.121Z</time>
      </trkpt>
      <trkpt lat="41.61426" lon="41.59688">
        <ele>5.847068</ele>
        <time>2021-11-15T12:06:36.335Z</time>
      </trkpt>
      <trkpt lat="41.61402" lon="41.59719">
        <ele>5.893316</ele>
        <time>2021-11-15T12:06:44.309Z</time>
      </trkpt>
      <trkpt lat="41.61397" lon="41.59726">
        <ele>5.903427</ele>
        <time>2021-11-15T12:06:46.103Z</time>
      </trkpt>
      <trkpt lat="41.61364" lon="41.59771">
        <ele>5.971231</ele>
        <time>2021-11-15T12:06:57.604Z</time>
      </trkpt>
      <trkpt lat="41.61347" lon="41.59791">
        <ele>6.027165</ele>
        <time>2021-11-15T12:07:03.238Z</time>
      </trkpt>
      <trkpt lat="41.61281" lon="41.59878">
        <ele>6.254483</ele>
        <time>2021-11-15T12:07:25.811Z</time>
      </trkpt>
      <trkpt lat="41.61155" lon="41.6004">
        <ele>6.067896</ele>
        <time>2021-11-15T12:08:02.762Z</time>
      </trkpt>
      <trkpt lat="41.61126" lon="41.60088">
        <ele>5.928473</ele>
        <time>2021-11-15T12:08:12.433Z</time>
      </trkpt>
      <trkpt lat="41.61105" lon="41.60128">
        <ele>5.88237</ele>
        <time>2021-11-15T12:08:20.122Z</time>
      </trkpt>
      <trkpt lat="41.61088" lon="41.60172">
        <ele>5.917629</ele>
        <time>2021-11-15T12:08:28.102Z</time>
      </trkpt>
      <trkpt lat="41.61068" lon="41.60253">
        <ele>5.978428</ele>
        <time>2021-11-15T12:08:41.744Z</time>
      </trkpt>
      <trkpt lat="41.61057" lon="41.6036">
        <ele>6.172051</ele>
        <time>2021-11-15T12:09:01.724Z</time>
      </trkpt>
      <trkpt lat="41.61053" lon="41.60472">
        <ele>6.806205</ele>
        <time>2021-11-15T12:09:23.341Z</time>
      </trkpt>
      <trkpt lat="41.61056" lon="41.60552">
        <ele>7.259826</ele>
        <time>2021-11-15T12:09:38.606Z</time>
      </trkpt>
      <trkpt lat="41.61052" lon="41.60593">
        <ele>7.441437</ele>
        <time>2021-11-15T12:09:46.314Z</time>
      </trkpt>
      <trkpt lat="41.61044" lon="41.60631">
        <ele>7.532279</ele>
        <time>2021-11-15T12:09:53.770Z</time>
      </trkpt>
      <trkpt lat="41.6103" lon="41.60681">
        <ele>7.653547</ele>
        <time>2021-11-15T12:10:03.558Z</time>
      </trkpt>
      <trkpt lat="41.61" lon="41.60762">
        <ele>7.861145</ele>
        <time>2021-11-15T12:10:19.249Z</time>
      </trkpt>
      <trkpt lat="41.60989" lon="41.60792">
        <ele>7.937019</ele>
        <time>2021-11-15T12:10:24.530Z</time>
      </trkpt>
      <trkpt lat="41.60974" lon="41.60843">
        <ele>7.956326</ele>
        <time>2021-11-15T12:10:32.855Z</time>
      </trkpt>
      <trkpt lat="41.60945" lon="41.6101">
        <ele>7.964813</ele>
        <time>2021-11-15T12:11:01.001Z</time>
      </trkpt>
      <trkpt lat="41.60942" lon="41.61029">
        <ele>7.965758</ele>
        <time>2021-11-15T12:11:04.080Z</time>
      </trkpt>
      <trkpt lat="41.60937" lon="41.61061">
        <ele>8.239721</ele>
        <time>2021-11-15T12:11:10.108Z</time>
      </trkpt>
      <trkpt lat="41.6092" lon="41.61171">
        <ele>9.279394</ele>
        <time>2021-11-15T12:11:33.389Z</time>
      </trkpt>
      <trkpt lat="41.60916" lon="41.61193">
        <ele>9.483169</ele>
        <time>2021-11-15T12:11:38.394Z</time>
      </trkpt>
      <trkpt lat="41.60909" lon="41.61243">
        <ele>9.949014</ele>
        <time>2021-11-15T12:11:49.426Z</time>
      </trkpt>
      <trkpt lat="41.60905" lon="41.61263">
        <ele>10.142644</ele>
        <time>2021-11-15T12:11:54.100Z</time>
      </trkpt>
      <trkpt lat="41.60903" lon="41.61279">
        <ele>10.261031</ele>
        <time>2021-11-15T12:11:57.416Z</time>
      </trkpt>
      <trkpt lat="41.60901" lon="41.61289">
        <ele>10.33061</ele>
        <time>2021-11-15T12:11:59.355Z</time>
      </trkpt>
      <trkpt lat="41.609" lon="41.61298">
        <ele>10.394092</ele>
        <time>2021-11-15T12:12:01.538Z</time>
      </trkpt>
      <trkpt lat="41.60895" lon="41.61319">
        <ele>10.538482</ele>
        <time>2021-11-15T12:12:05.932Z</time>
      </trkpt>
      <trkpt lat="41.60893" lon="41.61332">
        <ele>10.628166</ele>
        <time>2021-11-15T12:12:08.456Z</time>
      </trkpt>
      <trkpt lat="41.6089" lon="41.61354">
        <ele>10.774839</ele>
        <time>2021-11-15T12:12:13.076Z</time>
      </trkpt>
      <trkpt lat="41.60888" lon="41.61356">
        <ele>10.797216</ele>
        <time>2021-11-15T12:12:13.748Z</time>
      </trkpt>
      <trkpt lat="41.60887" lon="41.61359">
        <ele>10.822134</ele>
        <time>2021-11-15T12:12:14.481Z</time>
      </trkpt>
      <trkpt lat="41.60886" lon="41.61363">
        <ele>10.846267</ele>
        <time>2021-11-15T12:12:15.219Z</time>
      </trkpt>
      <trkpt lat="41.60886" lon="41.61365">
        <ele>10.859739</ele>
        <time>2021-11-15T12:12:15.594Z</time>
      </trkpt>
      <trkpt lat="41.60867" lon="41.61376">
        <ele>11.053221</ele>
        <time>2021-11-15T12:12:21.285Z</time>
      </trkpt>
      <trkpt lat="41.6085" lon="41.61387">
        <ele>11.218568</ele>
        <time>2021-11-15T12:12:25.975Z</time>
      </trkpt>
      <trkpt lat="41.60845" lon="41.61389">
        <ele>11.26772</ele>
        <time>2021-11-15T12:12:27.267Z</time>
      </trkpt>
      <trkpt lat="41.60805" lon="41.61402">
        <ele>11.633853</ele>
        <time>2021-11-15T12:12:37.442Z</time>
      </trkpt>
      <trkpt lat="41.60749" lon="41.61415">
        <ele>11.771126</ele>
        <time>2021-11-15T12:12:50.313Z</time>
      </trkpt>
      <trkpt lat="41.60744" lon="41.61415">
        <ele>11.768172</ele>
        <time>2021-11-15T12:12:51.284Z</time>
      </trkpt>
      <trkpt lat="41.60734" lon="41.61415">
        <ele>11.762092</ele>
        <time>2021-11-15T12:12:53.496Z</time>
      </trkpt>
      <trkpt lat="41.60708" lon="41.61417">
        <ele>11.746916</ele>
        <time>2021-11-15T12:12:58.774Z</time>
      </trkpt>
      <trkpt lat="41.60675" lon="41.61419">
        <ele>11.727747</ele>
        <time>2021-11-15T12:13:05.799Z</time>
      </trkpt>
      <trkpt lat="41.60669" lon="41.61419">
        <ele>11.724272</ele>
        <time>2021-11-15T12:13:07.060Z</time>
      </trkpt>
      <trkpt lat="41.60607" lon="41.61421">
        <ele>11.694344</ele>
        <time>2021-11-15T12:13:20.745Z</time>
      </trkpt>
      <trkpt lat="41.60594" lon="41.61422">
        <ele>11.751787</ele>
        <time>2021-11-15T12:13:23.731Z</time>
      </trkpt>
      <trkpt lat="41.60579" lon="41.61422">
        <ele>11.814371</ele>
        <time>2021-11-15T12:13:27.186Z</time>
      </trkpt>
      <trkpt lat="41.60534" lon="41.61423">
        <ele>12.007233</ele>
        <time>2021-11-15T12:13:37.989Z</time>
      </trkpt>
      <trkpt lat="41.60486" lon="41.61421">
        <ele>12.214385</ele>
        <time>2021-11-15T12:13:50.074Z</time>
      </trkpt>
      <trkpt lat="41.60458" lon="41.614">
        <ele>12.350796</ele>
        <time>2021-11-15T12:13:57.749Z</time>
      </trkpt>
      <trkpt lat="41.60442" lon="41.61382">
        <ele>12.439529</ele>
        <time>2021-11-15T12:14:02.842Z</time>
      </trkpt>
      <trkpt lat="41.60429" lon="41.6137">
        <ele>12.490134</ele>
        <time>2021-11-15T12:14:06.773Z</time>
      </trkpt>
      <trkpt lat="41.604" lon="41.61357">
        <ele>12.566019</ele>
        <time>2021-11-15T12:14:13.856Z</time>
      </trkpt>
      <trkpt lat="41.60387" lon="41.61353">
        <ele>12.598582</ele>
        <time>2021-11-15T12:14:17.031Z</time>
      </trkpt>
      <trkpt lat="41.60375" lon="41.61352">
        <ele>12.627978</ele>
        <time>2021-11-15T12:14:19.867Z</time>
      </trkpt>
      <trkpt lat="41.60361" lon="41.61354">
        <ele>12.664206</ele>
        <time>2021-11-15T12:14:23.097Z</time>
      </trkpt>
      <trkpt lat="41.60346" lon="41.61357">
        <ele>12.701625</ele>
        <time>2021-11-15T12:14:26.750Z</time>
      </trkpt>
      <trkpt lat="41.60332" lon="41.61365">
        <ele>12.740421</ele>
        <time>2021-11-15T12:14:30.258Z</time>
      </trkpt>
      <trkpt lat="41.60301" lon="41.61396">
        <ele>12.836999</ele>
        <time>2021-11-15T12:14:39.243Z</time>
      </trkpt>
      <trkpt lat="41.60267" lon="41.6143">
        <ele>12.853623</ele>
        <time>2021-11-15T12:14:48.788Z</time>
      </trkpt>
      <trkpt lat="41.60256" lon="41.61441">
        <ele>12.786887</ele>
        <time>2021-11-15T12:14:52.133Z</time>
      </trkpt>
      <trkpt lat="41.60235" lon="41.61454">
        <ele>12.682878</ele>
        <time>2021-11-15T12:14:56.699Z</time>
      </trkpt>
      <trkpt lat="41.6019" lon="41.61467">
        <ele>12.468996</ele>
        <time>2021-11-15T12:15:06.060Z</time>
      </trkpt>
      <trkpt lat="41.60169" lon="41.6147">
        <ele>12.370329</ele>
        <time>2021-11-15T12:15:10.533Z</time>
      </trkpt>
      <trkpt lat="41.60127" lon="41.61464">
        <ele>12.177089</ele>
        <time>2021-11-15T12:15:18.969Z</time>
      </trkpt>
      <trkpt lat="41.60114" lon="41.61459">
        <ele>12.11544</ele>
        <time>2021-11-15T12:15:21.661Z</time>
      </trkpt>
      <trkpt lat="41.60106" lon="41.61453">
        <ele>12.062619</ele>
        <time>2021-11-15T12:15:23.601Z</time>
      </trkpt>
      <trkpt lat="41.60099" lon="41.61448">
        <ele>11.989655</ele>
        <time>2021-11-15T12:15:25.264Z</time>
      </trkpt>
      <trkpt lat="41.6009" lon="41.61437">
        <ele>11.886302</ele>
        <time>2021-11-15T12:15:27.423Z</time>
      </trkpt>
      <trkpt lat="41.60067" lon="41.61384">
        <ele>11.481966</ele>
        <time>2021-11-15T12:15:36.404Z</time>
      </trkpt>
      <trkpt lat="41.60037" lon="41.61265">
        <ele>10.640066</ele>
        <time>2021-11-15T12:15:54.660Z</time>
      </trkpt>
      <trkpt lat="41.60034" lon="41.61251">
        <ele>10.545795</ele>
        <time>2021-11-15T12:15:56.701Z</time>
      </trkpt>
      <trkpt lat="41.6001" lon="41.61091">
        <ele>9.607977</ele>
        <time>2021-11-15T12:16:20.834Z</time>
      </trkpt>
      <trkpt lat="41.59997" lon="41.60971">
        <ele>9.071578</ele>
        <time>2021-11-15T12:16:39.005Z</time>
      </trkpt>
      <trkpt lat="41.59996" lon="41.60964">
        <ele>9.062428</ele>
        <time>2021-11-15T12:16:40.106Z</time>
      </trkpt>
      <trkpt lat="41.59994" lon="41.60948">
        <ele>9.042546</ele>
        <time>2021-11-15T12:16:42.559Z</time>
      </trkpt>
      <trkpt lat="41.59974" lon="41.60774">
        <ele>8.821609</ele>
        <time>2021-11-15T12:17:11.328Z</time>
      </trkpt>
      <trkpt lat="41.59971" lon="41.60747">
        <ele>8.855362</ele>
        <time>2021-11-15T12:17:16.092Z</time>
      </trkpt>
      <trkpt lat="41.59966" lon="41.60703">
        <ele>8.951159</ele>
        <time>2021-11-15T12:17:24.199Z</time>
      </trkpt>
      <trkpt lat="41.59954" lon="41.60602">
        <ele>9.166767</ele>
        <time>2021-11-15T12:17:42.530Z</time>
      </trkpt>
      <trkpt lat="41.59927" lon="41.60374">
        <ele>9.241569</ele>
        <time>2021-11-15T12:18:22.323Z</time>
      </trkpt>
      <trkpt lat="41.59923" lon="41.6034">
        <ele>9.223671</ele>
        <time>2021-11-15T12:18:27.698Z</time>
      </trkpt>
      <trkpt lat="41.5991" lon="41.60232">
        <ele>8.874934</ele>
        <time>2021-11-15T12:18:44.030Z</time>
      </trkpt>
      <trkpt lat="41.59909" lon="41.60223">
        <ele>8.821831</ele>
        <time>2021-11-15T12:18:45.458Z</time>
      </trkpt>
      <trkpt lat="41.59902" lon="41.60162">
        <ele>8.493881</ele>
        <time>2021-11-15T12:18:54.487Z</time>
      </trkpt>
      <trkpt lat="41.59893" lon="41.6009">
        <ele>8.09958</ele>
        <time>2021-11-15T12:19:05.555Z</time>
      </trkpt>
      <trkpt lat="41.59878" lon="41.60019">
        <ele>7.876485</ele>
        <time>2021-11-15T12:19:16.367Z</time>
      </trkpt>
      <trkpt lat="41.59866" lon="41.59988">
        <ele>7.845892</ele>
        <time>2021-11-15T12:19:21.516Z</time>
      </trkpt>
      <trkpt lat="41.5986" lon="41.59971">
        <ele>7.828196</ele>
        <time>2021-11-15T12:19:24.571Z</time>
      </trkpt>
      <trkpt lat="41.59839" lon="41.59933">
        <ele>7.786746</ele>
        <time>2021-11-15T12:19:31.980Z</time>
      </trkpt>
      <trkpt lat="41.59818" lon="41.59906">
        <ele>7.751599</ele>
        <time>2021-11-15T12:19:38.655Z</time>
      </trkpt>
      <trkpt lat="41.59781" lon="41.59873">
        <ele>7.699204</ele>
        <time>2021-11-15T12:19:49.357Z</time>
      </trkpt>
      <trkpt lat="41.5973" lon="41.59845">
        <ele>8.111332</ele>
        <time>2021-11-15T12:20:03.459Z</time>
      </trkpt>
      <trkpt lat="41.59692" lon="41.5983">
        <ele>8.419141</ele>
        <time>2021-11-15T12:20:13.448Z</time>
      </trkpt>
      <trkpt lat="41.59584" lon="41.59797">
        <ele>9.222856</ele>
        <time>2021-11-15T12:20:42.081Z</time>
      </trkpt>
      <trkpt lat="41.59567" lon="41.59792">
        <ele>9.306485</ele>
        <time>2021-11-15T12:20:46.585Z</time>
      </trkpt>
      <trkpt lat="41.5947" lon="41.59765">
        <ele>9.787619</ele>
        <time>2021-11-15T12:21:10.876Z</time>
      </trkpt>
      <trkpt lat="41.5918" lon="41.59682">
        <ele>9.880023</ele>
        <time>2021-11-15T12:22:16.822Z</time>
      </trkpt>
      <trkpt lat="41.59053" lon="41.59646">
        <ele>9.497741</ele>
        <time>2021-11-15T12:22:43.729Z</time>
      </trkpt>
      <trkpt lat="41.58782" lon="41.59572">
        <ele>8.493519</ele>
        <time>2021-11-15T12:23:40.675Z</time>
      </trkpt>
      <trkpt lat="41.58705" lon="41.59547">
        <ele>8.509263</ele>
        <time>2021-11-15T12:23:58.984Z</time>
      </trkpt>
      <trkpt lat="41.58677" lon="41.59537">
        <ele>8.699934</ele>
        <time>2021-11-15T12:24:06.151Z</time>
      </trkpt>
      <trkpt lat="41.58625" lon="41.59505">
        <ele>9.079589</ele>
        <time>2021-11-15T12:24:20.377Z</time>
      </trkpt>
      <trkpt lat="41.58613" lon="41.59493">
        <ele>9.179036</ele>
        <time>2021-11-15T12:24:24.419Z</time>
      </trkpt>
      <trkpt lat="41.58602" lon="41.59481">
        <ele>9.274519</ele>
        <time>2021-11-15T12:24:28.071Z</time>
      </trkpt>
      <trkpt lat="41.58587" lon="41.59462">
        <ele>9.410049</ele>
        <time>2021-11-15T12:24:33.666Z</time>
      </trkpt>
      <trkpt lat="41.58575" lon="41.59444">
        <ele>9.530147</ele>
        <time>2021-11-15T12:24:38.432Z</time>
      </trkpt>
      <trkpt lat="41.58566" lon="41.5943">
        <ele>9.575421</ele>
        <time>2021-11-15T12:24:42.042Z</time>
      </trkpt>
      <trkpt lat="41.58559" lon="41.59414">
        <ele>9.610736</ele>
        <time>2021-11-15T12:24:45.503Z</time>
      </trkpt>
      <trkpt lat="41.58556" lon="41.59405">
        <ele>9.629974</ele>
        <time>2021-11-15T12:24:47.374Z</time>
      </trkpt>
      <trkpt lat="41.58553" lon="41.59394">
        <ele>9.651597</ele>
        <time>2021-11-15T12:24:49.520Z</time>
      </trkpt>
      <trkpt lat="41.5855" lon="41.59371">
        <ele>9.695959</ele>
        <time>2021-11-15T12:24:53.627Z</time>
      </trkpt>
      <trkpt lat="41.58549" lon="41.59358">
        <ele>9.720331</ele>
        <time>2021-11-15T12:24:55.870Z</time>
      </trkpt>
      <trkpt lat="41.58547" lon="41.59317">
        <ele>9.797428</ele>
        <time>2021-11-15T12:25:02.769Z</time>
      </trkpt>
      <trkpt lat="41.58549" lon="41.59253">
        <ele>9.917527</ele>
        <time>2021-11-15T12:25:12.763Z</time>
      </trkpt>
      <trkpt lat="41.58549" lon="41.59238">
        <ele>9.947316</ele>
        <time>2021-11-15T12:25:15.293Z</time>
      </trkpt>
      <trkpt lat="41.5855" lon="41.59211">
        <ele>9.998035</ele>
        <time>2021-11-15T12:25:19.720Z</time>
      </trkpt>
      <trkpt lat="41.58551" lon="41.5917">
        <ele>10.093893</ele>
        <time>2021-11-15T12:25:26.915Z</time>
      </trkpt>
      <trkpt lat="41.58552" lon="41.59109">
        <ele>10.241232</ele>
        <time>2021-11-15T12:25:38.370Z</time>
      </trkpt>
      <trkpt lat="41.58553" lon="41.59089">
        <ele>10.29123</ele>
        <time>2021-11-15T12:25:41.961Z</time>
      </trkpt>
      <trkpt lat="41.58553" lon="41.59059">
        <ele>10.362471</ele>
        <time>2021-11-15T12:25:47.060Z</time>
      </trkpt>
      <trkpt lat="41.58555" lon="41.58985">
        <ele>10.541713</ele>
        <time>2021-11-15T12:25:59.744Z</time>
      </trkpt>
      <trkpt lat="41.58556" lon="41.58967">
        <ele>10.586366</ele>
        <time>2021-11-15T12:26:03.152Z</time>
      </trkpt>
      <trkpt lat="41.58556" lon="41.58941">
        <ele>10.646366</ele>
        <time>2021-11-15T12:26:07.628Z</time>
      </trkpt>
      <trkpt lat="41.58557" lon="41.58913">
        <ele>10.714255</ele>
        <time>2021-11-15T12:26:12.706Z</time>
      </trkpt>
      <trkpt lat="41.5856" lon="41.58754">
        <ele>11.093449</ele>
        <time>2021-11-15T12:26:41.743Z</time>
      </trkpt>
      <trkpt lat="41.58546" lon="41.5868">
        <ele>11.067016</ele>
        <time>2021-11-15T12:26:53.525Z</time>
      </trkpt>
      <trkpt lat="41.58533" lon="41.58648">
        <ele>11.00306</ele>
        <time>2021-11-15T12:26:59.152Z</time>
      </trkpt>
      <trkpt lat="41.58495" lon="41.58571">
        <ele>10.836147</ele>
        <time>2021-11-15T12:27:14.021Z</time>
      </trkpt>
      <trkpt lat="41.58398" lon="41.58384">
        <ele>10.879739</ele>
        <time>2021-11-15T12:27:50.807Z</time>
      </trkpt>
      <trkpt lat="41.58315" lon="41.58223">
        <ele>11.346638</ele>
        <time>2021-11-15T12:28:27.631Z</time>
      </trkpt>
      <trkpt lat="41.58292" lon="41.5818">
        <ele>11.520678</ele>
        <time>2021-11-15T12:28:37.084Z</time>
      </trkpt>
      <trkpt lat="41.58285" lon="41.58166">
        <ele>11.575447</ele>
        <time>2021-11-15T12:28:40.513Z</time>
      </trkpt>
      <trkpt lat="41.58263" lon="41.58125">
        <ele>11.739055</ele>
        <time>2021-11-15T12:28:48.975Z</time>
      </trkpt>
      <trkpt lat="41.58239" lon="41.58078">
        <ele>11.248226</ele>
        <time>2021-11-15T12:28:58.038Z</time>
      </trkpt>
      <trkpt lat="41.5814" lon="41.57887">
        <ele>9.224784</ele>
        <time>2021-11-15T12:29:29.680Z</time>
      </trkpt>
      <trkpt lat="41.58122" lon="41.57852">
        <ele>8.839357</ele>
        <time>2021-11-15T12:29:35.425Z</time>
      </trkpt>
      <trkpt lat="41.5811" lon="41.57828">
        <ele>8.579401</ele>
        <time>2021-11-15T12:29:39.421Z</time>
      </trkpt>
      <trkpt lat="41.58103" lon="41.57814">
        <ele>8.428698</ele>
        <time>2021-11-15T12:29:41.677Z</time>
      </trkpt>
      <trkpt lat="41.581" lon="41.57808">
        <ele>8.358773</ele>
        <time>2021-11-15T12:29:42.698Z</time>
      </trkpt>
      <trkpt lat="41.5809" lon="41.57788">
        <ele>8.138148</ele>
        <time>2021-11-15T12:29:46.300Z</time>
      </trkpt>
      <trkpt lat="41.58084" lon="41.57776">
        <ele>8.006359</ele>
        <time>2021-11-15T12:29:48.312Z</time>
      </trkpt>
      <trkpt lat="41.58067" lon="41.57743">
        <ele>7.646638</ele>
        <time>2021-11-15T12:29:54.202Z</time>
      </trkpt>
      <trkpt lat="41.58062" lon="41.57733">
        <ele>7.533764</ele>
        <time>2021-11-15T12:29:56.030Z</time>
      </trkpt>
      <trkpt lat="41.58052" lon="41.57713">
        <ele>7.495528</ele>
        <time>2021-11-15T12:29:59.756Z</time>
      </trkpt>
      <trkpt lat="41.58019" lon="41.57648">
        <ele>7.533652</ele>
        <time>2021-11-15T12:30:12.052Z</time>
      </trkpt>
      <trkpt lat="41.57983" lon="41.57584">
        <ele>7.572551</ele>
        <time>2021-11-15T12:30:26.221Z</time>
      </trkpt>
      <trkpt lat="41.57944" lon="41.57537">
        <ele>7.643147</ele>
        <time>2021-11-15T12:30:38.867Z</time>
      </trkpt>
      <trkpt lat="41.57824" lon="41.57457">
        <ele>8.743776</ele>
        <time>2021-11-15T12:31:12.498Z</time>
      </trkpt>
      <trkpt lat="41.57786" lon="41.57434">
        <ele>9.100428</ele>
        <time>2021-11-15T12:31:23.488Z</time>
      </trkpt>
      <trkpt lat="41.57769" lon="41.57423">
        <ele>9.390676</ele>
        <time>2021-11-15T12:31:28.500Z</time>
      </trkpt>
      <trkpt lat="41.57745" lon="41.57407">
        <ele>9.82235</ele>
        <time>2021-11-15T12:31:36.338Z</time>
      </trkpt>
      <trkpt lat="41.57742" lon="41.57405">
        <ele>9.884838</ele>
        <time>2021-11-15T12:31:37.458Z</time>
      </trkpt>
      <trkpt lat="41.57661" lon="41.57351">
        <ele>11.325785</ele>
        <time>2021-11-15T12:32:05.361Z</time>
      </trkpt>
      <trkpt lat="41.57565" lon="41.57292">
        <ele>11.759292</ele>
        <time>2021-11-15T12:32:33.150Z</time>
      </trkpt>
      <trkpt lat="41.57549" lon="41.57283">
        <ele>11.70798</ele>
        <time>2021-11-15T12:32:36.737Z</time>
      </trkpt>
      <trkpt lat="41.57484" lon="41.5724">
        <ele>11.491785</ele>
        <time>2021-11-15T12:32:50.929Z</time>
      </trkpt>
      <trkpt lat="41.57467" lon="41.57233">
        <ele>11.437161</ele>
        <time>2021-11-15T12:32:54.246Z</time>
      </trkpt>
      <trkpt lat="41.57437" lon="41.57221">
        <ele>11.140474</ele>
        <time>2021-11-15T12:32:59.730Z</time>
      </trkpt>
      <trkpt lat="41.5742" lon="41.57216">
        <ele>10.948648</ele>
        <time>2021-11-15T12:33:02.744Z</time>
      </trkpt>
      <trkpt lat="41.57397" lon="41.57213">
        <ele>10.693082</ele>
        <time>2021-11-15T12:33:06.832Z</time>
      </trkpt>
      <trkpt lat="41.57337" lon="41.57207">
        <ele>10.033693</ele>
        <time>2021-11-15T12:33:18.115Z</time>
      </trkpt>
      <trkpt lat="41.57326" lon="41.57205">
        <ele>9.916074</ele>
        <time>2021-11-15T12:33:20.298Z</time>
      </trkpt>
      <trkpt lat="41.57284" lon="41.57201">
        <ele>9.456514</ele>
        <time>2021-11-15T12:33:28.998Z</time>
      </trkpt>
      <trkpt lat="41.57264" lon="41.57198">
        <ele>9.586708</ele>
        <time>2021-11-15T12:33:33.707Z</time>
      </trkpt>
      <trkpt lat="41.57235" lon="41.57195">
        <ele>9.779947</ele>
        <time>2021-11-15T12:33:40.853Z</time>
      </trkpt>
      <trkpt lat="41.57205" lon="41.57193">
        <ele>9.984833</ele>
        <time>2021-11-15T12:33:48.668Z</time>
      </trkpt>
      <trkpt lat="41.57173" lon="41.57191">
        <ele>10.195772</ele>
        <time>2021-11-15T12:33:56.947Z</time>
      </trkpt>
      <trkpt lat="41.57123" lon="41.57185">
        <ele>10.533545</ele>
        <time>2021-11-15T12:34:10.417Z</time>
      </trkpt>
      <trkpt lat="41.57119" lon="41.57184">
        <ele>10.563324</ele>
        <time>2021-11-15T12:34:11.531Z</time>
      </trkpt>
      <trkpt lat="41.57105" lon="41.57182">
        <ele>10.658741</ele>
        <time>2021-11-15T12:34:15.293Z</time>
      </trkpt>
      <trkpt lat="41.5708" lon="41.57179">
        <ele>10.65959</ele>
        <time>2021-11-15T12:34:21.571Z</time>
      </trkpt>
      <trkpt lat="41.5706" lon="41.57176">
        <ele>10.657937</ele>
        <time>2021-11-15T12:34:26.469Z</time>
      </trkpt>
      <trkpt lat="41.5701" lon="41.5717">
        <ele>10.653856</ele>
        <time>2021-11-15T12:34:37.642Z</time>
      </trkpt>
      <trkpt lat="41.57006" lon="41.5717">
        <ele>10.653488</ele>
        <time>2021-11-15T12:34:38.727Z</time>
      </trkpt>
      <trkpt lat="41.56996" lon="41.57168">
        <ele>10.652686</ele>
        <time>2021-11-15T12:34:40.717Z</time>
      </trkpt>
      <trkpt lat="41.56968" lon="41.57166">
        <ele>10.650418</ele>
        <time>2021-11-15T12:34:46.708Z</time>
      </trkpt>
      <trkpt lat="41.5696" lon="41.57165">
        <ele>10.649795</ele>
        <time>2021-11-15T12:34:48.178Z</time>
      </trkpt>
      <trkpt lat="41.56957" lon="41.57164">
        <ele>10.649476</ele>
        <time>2021-11-15T12:34:48.983Z</time>
      </trkpt>
      <trkpt lat="41.56927" lon="41.57161">
        <ele>10.647067</ele>
        <time>2021-11-15T12:34:54.986Z</time>
      </trkpt>
      <trkpt lat="41.56887" lon="41.57157">
        <ele>10.342072</ele>
        <time>2021-11-15T12:35:02.893Z</time>
      </trkpt>
      <trkpt lat="41.56861" lon="41.57152">
        <ele>10.135925</ele>
        <time>2021-11-15T12:35:08.090Z</time>
      </trkpt>
      <trkpt lat="41.56854" lon="41.57151">
        <ele>10.083129</ele>
        <time>2021-11-15T12:35:09.330Z</time>
      </trkpt>
      <trkpt lat="41.56841" lon="41.57147">
        <ele>9.970989</ele>
        <time>2021-11-15T12:35:12.057Z</time>
      </trkpt>
      <trkpt lat="41.56819" lon="41.57137">
        <ele>9.787258</ele>
        <time>2021-11-15T12:35:16.719Z</time>
      </trkpt>
      <trkpt lat="41.56795" lon="41.57126">
        <ele>9.587975</ele>
        <time>2021-11-15T12:35:21.952Z</time>
      </trkpt>
      <trkpt lat="41.56771" lon="41.57114">
        <ele>9.387492</ele>
        <time>2021-11-15T12:35:26.999Z</time>
      </trkpt>
      <trkpt lat="41.56765" lon="41.57111">
        <ele>9.338056</ele>
        <time>2021-11-15T12:35:28.272Z</time>
      </trkpt>
      <trkpt lat="41.56753" lon="41.57103">
        <ele>9.23025</ele>
        <time>2021-11-15T12:35:30.948Z</time>
      </trkpt>
      <trkpt lat="41.56742" lon="41.57095">
        <ele>9.095259</ele>
        <time>2021-11-15T12:35:33.272Z</time>
      </trkpt>
      <trkpt lat="41.56698" lon="41.57066">
        <ele>8.526268</ele>
        <time>2021-11-15T12:35:42.556Z</time>
      </trkpt>
      <trkpt lat="41.56692" lon="41.57062">
        <ele>8.446791</ele>
        <time>2021-11-15T12:35:43.816Z</time>
      </trkpt>
      <trkpt lat="41.56682" lon="41.57055">
        <ele>8.325909</ele>
        <time>2021-11-15T12:35:45.735Z</time>
      </trkpt>
      <trkpt lat="41.56667" lon="41.57047">
        <ele>8.132632</ele>
        <time>2021-11-15T12:35:48.885Z</time>
      </trkpt>
      <trkpt lat="41.56618" lon="41.56991">
        <ele>7.399543</ele>
        <time>2021-11-15T12:36:01.661Z</time>
      </trkpt>
      <trkpt lat="41.56582" lon="41.56979">
        <ele>6.985863</ele>
        <time>2021-11-15T12:36:09.353Z</time>
      </trkpt>
      <trkpt lat="41.56546" lon="41.56967">
        <ele>6.584749</ele>
        <time>2021-11-15T12:36:16.914Z</time>
      </trkpt>
      <trkpt lat="41.56523" lon="41.56953">
        <ele>6.31905</ele>
        <time>2021-11-15T12:36:21.512Z</time>
      </trkpt>
      <trkpt lat="41.56513" lon="41.56946">
        <ele>6.202188</ele>
        <time>2021-11-15T12:36:23.415Z</time>
      </trkpt>
      <trkpt lat="41.56486" lon="41.5693">
        <ele>5.883126</ele>
        <time>2021-11-15T12:36:28.959Z</time>
      </trkpt>
      <trkpt lat="41.56472" lon="41.56922">
        <ele>5.718118</ele>
        <time>2021-11-15T12:36:31.817Z</time>
      </trkpt>
      <trkpt lat="41.56423" lon="41.56897">
        <ele>5.208396</ele>
        <time>2021-11-15T12:36:42.237Z</time>
      </trkpt>
      <trkpt lat="41.56408" lon="41.5689">
        <ele>5.143868</ele>
        <time>2021-11-15T12:36:45.466Z</time>
      </trkpt>
      <trkpt lat="41.56375" lon="41.56873">
        <ele>5.00344</ele>
        <time>2021-11-15T12:36:52.930Z</time>
      </trkpt>
      <trkpt lat="41.56349" lon="41.5686">
        <ele>4.894306</ele>
        <time>2021-11-15T12:36:58.782Z</time>
      </trkpt>
      <trkpt lat="41.56319" lon="41.56846">
        <ele>4.77126</ele>
        <time>2021-11-15T12:37:05.313Z</time>
      </trkpt>
      <trkpt lat="41.56296" lon="41.56835">
        <ele>4.6735</ele>
        <time>2021-11-15T12:37:10.434Z</time>
      </trkpt>
      <trkpt lat="41.56281" lon="41.56827">
        <ele>4.609387</ele>
        <time>2021-11-15T12:37:13.797Z</time>
      </trkpt>
      <trkpt lat="41.56273" lon="41.56824">
        <ele>4.575739</ele>
        <time>2021-11-15T12:37:15.508Z</time>
      </trkpt>
      <trkpt lat="41.56244" lon="41.5681">
        <ele>4.542638</ele>
        <time>2021-11-15T12:37:22.108Z</time>
      </trkpt>
      <trkpt lat="41.56235" lon="41.56806">
        <ele>4.551496</ele>
        <time>2021-11-15T12:37:24.390Z</time>
      </trkpt>
      <trkpt lat="41.56194" lon="41.5679">
        <ele>4.58803</ele>
        <time>2021-11-15T12:37:34.053Z</time>
      </trkpt>
      <trkpt lat="41.56183" lon="41.56785">
        <ele>4.598508</ele>
        <time>2021-11-15T12:37:36.826Z</time>
      </trkpt>
      <trkpt lat="41.56168" lon="41.56779">
        <ele>4.611629</ele>
        <time>2021-11-15T12:37:40.304Z</time>
      </trkpt>
      <trkpt lat="41.56133" lon="41.56764">
        <ele>4.643214</ele>
        <time>2021-11-15T12:37:48.484Z</time>
      </trkpt>
      <trkpt lat="41.56127" lon="41.56761">
        <ele>4.64885</ele>
        <time>2021-11-15T12:37:49.854Z</time>
      </trkpt>
      <trkpt lat="41.55983" lon="41.56698">
        <ele>5.135124</ele>
        <time>2021-11-15T12:38:26.087Z</time>
      </trkpt>
      <trkpt lat="41.55949" lon="41.56682">
        <ele>5.279582</ele>
        <time>2021-11-15T12:38:34.918Z</time>
      </trkpt>
      <trkpt lat="41.55911" lon="41.56668">
        <ele>5.415722</ele>
        <time>2021-11-15T12:38:44.616Z</time>
      </trkpt>
      <trkpt lat="41.55894" lon="41.56661">
        <ele>5.439389</ele>
        <time>2021-11-15T12:38:48.797Z</time>
      </trkpt>
      <trkpt lat="41.55851" lon="41.56644">
        <ele>5.499794</ele>
        <time>2021-11-15T12:38:58.832Z</time>
      </trkpt>
      <trkpt lat="41.55813" lon="41.56628">
        <ele>5.553104</ele>
        <time>2021-11-15T12:39:07.745Z</time>
      </trkpt>
      <trkpt lat="41.55794" lon="41.56621">
        <ele>5.579952</ele>
        <time>2021-11-15T12:39:12.142Z</time>
      </trkpt>
      <trkpt lat="41.55747" lon="41.56603">
        <ele>5.645149</ele>
        <time>2021-11-15T12:39:22.255Z</time>
      </trkpt>
      <trkpt lat="41.55735" lon="41.56598">
        <ele>5.92884</ele>
        <time>2021-11-15T12:39:25.369Z</time>
      </trkpt>
      <trkpt lat="41.55731" lon="41.56597">
        <ele>6.018245</ele>
        <time>2021-11-15T12:39:26.293Z</time>
      </trkpt>
      <trkpt lat="41.55715" lon="41.5659">
        <ele>6.428981</ele>
        <time>2021-11-15T12:39:30.305Z</time>
      </trkpt>
      <trkpt lat="41.55699" lon="41.56583">
        <ele>6.824639</ele>
        <time>2021-11-15T12:39:34.602Z</time>
      </trkpt>
      <trkpt lat="41.55675" lon="41.56573">
        <ele>7.423151</ele>
        <time>2021-11-15T12:39:40.830Z</time>
      </trkpt>
      <trkpt lat="41.55654" lon="41.56564">
        <ele>7.92275</ele>
        <time>2021-11-15T12:39:46.276Z</time>
      </trkpt>
      <trkpt lat="41.5564" lon="41.56558">
        <ele>8.269761</ele>
        <time>2021-11-15T12:39:50.609Z</time>
      </trkpt>
      <trkpt lat="41.5561" lon="41.56544">
        <ele>9.01741</ele>
        <time>2021-11-15T12:40:01.023Z</time>
      </trkpt>
      <trkpt lat="41.55568" lon="41.56524">
        <ele>10.563973</ele>
        <time>2021-11-15T12:40:21.248Z</time>
      </trkpt>
      <trkpt lat="41.55516" lon="41.56503">
        <ele>14.924369</ele>
        <time>2021-11-15T12:40:50.317Z</time>
      </trkpt>
      <trkpt lat="41.55499" lon="41.56496">
        <ele>16.372228</ele>
        <time>2021-11-15T12:41:01.438Z</time>
      </trkpt>
      <trkpt lat="41.55486" lon="41.56491">
        <ele>17.417854</ele>
        <time>2021-11-15T12:41:08.590Z</time>
      </trkpt>
      <trkpt lat="41.55452" lon="41.56481">
        <ele>20.198955</ele>
        <time>2021-11-15T12:41:29.333Z</time>
      </trkpt>
      <trkpt lat="41.55422" lon="41.56475">
        <ele>22.683019</ele>
        <time>2021-11-15T12:41:48.117Z</time>
      </trkpt>
      <trkpt lat="41.55366" lon="41.5646">
        <ele>26.192236</ele>
        <time>2021-11-15T12:42:20.150Z</time>
      </trkpt>
      <trkpt lat="41.55252" lon="41.56436">
        <ele>32.240343</ele>
        <time>2021-11-15T12:43:09.492Z</time>
      </trkpt>
      <trkpt lat="41.55217" lon="41.56433">
        <ele>33.848371</ele>
        <time>2021-11-15T12:43:19.410Z</time>
      </trkpt>
      <trkpt lat="41.55146" lon="41.56431">
        <ele>35.575496</ele>
        <time>2021-11-15T12:43:37.992Z</time>
      </trkpt>
      <trkpt lat="41.54852" lon="41.56436">
        <ele>42.587068</ele>
        <time>2021-11-15T12:45:18.882Z</time>
      </trkpt>
      <trkpt lat="41.54808" lon="41.56436">
        <ele>41.820125</ele>
        <time>2021-11-15T12:45:28.275Z</time>
      </trkpt>
      <trkpt lat="41.5478" lon="41.56435">
        <ele>41.324357</ele>
        <time>2021-11-15T12:45:32.955Z</time>
      </trkpt>
      <trkpt lat="41.54734" lon="41.5643">
        <ele>40.504138</ele>
        <time>2021-11-15T12:45:40.946Z</time>
      </trkpt>
      <trkpt lat="41.54688" lon="41.56425">
        <ele>39.688793</ele>
        <time>2021-11-15T12:45:48.308Z</time>
      </trkpt>
      <trkpt lat="41.54668" lon="41.56423">
        <ele>39.406472</ele>
        <time>2021-11-15T12:45:51.386Z</time>
      </trkpt>
      <trkpt lat="41.54642" lon="41.5642">
        <ele>39.044477</ele>
        <time>2021-11-15T12:45:55.259Z</time>
      </trkpt>
      <trkpt lat="41.54635" lon="41.56419">
        <ele>38.953578</ele>
        <time>2021-11-15T12:45:56.226Z</time>
      </trkpt>
      <trkpt lat="41.54626" lon="41.56418">
        <ele>38.825396</ele>
        <time>2021-11-15T12:45:57.634Z</time>
      </trkpt>
      <trkpt lat="41.54598" lon="41.56413">
        <ele>38.43699</ele>
        <time>2021-11-15T12:46:01.837Z</time>
      </trkpt>
      <trkpt lat="41.54564" lon="41.56401">
        <ele>37.960274</ele>
        <time>2021-11-15T12:46:07.366Z</time>
      </trkpt>
      <trkpt lat="41.54537" lon="41.56379">
        <ele>37.521503</ele>
        <time>2021-11-15T12:46:15.322Z</time>
      </trkpt>
      <trkpt lat="41.54497" lon="41.56323">
        <ele>41.87315</ele>
        <time>2021-11-15T12:46:43.257Z</time>
      </trkpt>
      <trkpt lat="41.5448" lon="41.56292">
        <ele>45.992554</ele>
        <time>2021-11-15T12:47:01.408Z</time>
      </trkpt>
      <trkpt lat="41.54469" lon="41.56262">
        <ele>49.620244</ele>
        <time>2021-11-15T12:47:20.434Z</time>
      </trkpt>
      <trkpt lat="41.54461" lon="41.56237">
        <ele>52.595414</ele>
        <time>2021-11-15T12:47:37.511Z</time>
      </trkpt>
      <trkpt lat="41.54451" lon="41.56191">
        <ele>57.860609</ele>
        <time>2021-11-15T12:48:11.901Z</time>
      </trkpt>
      <trkpt lat="41.5442" lon="41.5605">
        <ele>77.316829</ele>
        <time>2021-11-15T12:50:17.167Z</time>
      </trkpt>
      <trkpt lat="41.54382" lon="41.55992">
        <ele>88.392175</ele>
        <time>2021-11-15T12:51:20.101Z</time>
      </trkpt>
      <trkpt lat="41.54331" lon="41.55937">
        <ele>98.229843</ele>
        <time>2021-11-15T12:52:16.800Z</time>
      </trkpt>
      <trkpt lat="41.54232" lon="41.55763">
        <ele>100.773932</ele>
        <time>2021-11-15T12:52:58.010Z</time>
      </trkpt>
      <trkpt lat="41.54142" lon="41.55591">
        <ele>81.718027</ele>
        <time>2021-11-15T12:53:18.394Z</time>
      </trkpt>
      <trkpt lat="41.54074" lon="41.55409">
        <ele>69.950731</ele>
        <time>2021-11-15T12:53:38.722Z</time>
      </trkpt>
      <trkpt lat="41.54061" lon="41.55383">
        <ele>68.315141</ele>
        <time>2021-11-15T12:53:43.253Z</time>
      </trkpt>
      <trkpt lat="41.54027" lon="41.55351">
        <ele>67.882663</ele>
        <time>2021-11-15T12:53:55.957Z</time>
      </trkpt>
      <trkpt lat="41.53769" lon="41.55229">
        <ele>97.107583</ele>
        <time>2021-11-15T12:57:22.606Z</time>
      </trkpt>
      <trkpt lat="41.53613" lon="41.55142">
        <ele>104.493611</ele>
        <time>2021-11-15T12:58:39.167Z</time>
      </trkpt>
      <trkpt lat="41.53547" lon="41.55098">
        <ele>104.496553</ele>
        <time>2021-11-15T12:58:50.285Z</time>
      </trkpt>
      <trkpt lat="41.53433" lon="41.54999">
        <ele>93.30472</ele>
        <time>2021-11-15T12:59:08.672Z</time>
      </trkpt>
      <trkpt lat="41.53401" lon="41.5498">
        <ele>90.213533</ele>
        <time>2021-11-15T12:59:13.447Z</time>
      </trkpt>
      <trkpt lat="41.53357" lon="41.54973">
        <ele>87.502478</ele>
        <time>2021-11-15T12:59:19.762Z</time>
      </trkpt>
      <trkpt lat="41.53286" lon="41.54985">
        <ele>84.623294</ele>
        <time>2021-11-15T12:59:30.831Z</time>
      </trkpt>
      <trkpt lat="41.5325" lon="41.54973">
        <ele>83.120314</ele>
        <time>2021-11-15T12:59:37.327Z</time>
      </trkpt>
      <trkpt lat="41.53159" lon="41.54926">
        <ele>78.843527</ele>
        <time>2021-11-15T12:59:54.871Z</time>
      </trkpt>
      <trkpt lat="41.53124" lon="41.54919">
        <ele>77.19702</ele>
        <time>2021-11-15T13:00:00.800Z</time>
      </trkpt>
      <trkpt lat="41.52806" lon="41.54892">
        <ele>56.065215</ele>
        <time>2021-11-15T13:00:46.275Z</time>
      </trkpt>
      <trkpt lat="41.52659" lon="41.54894">
        <ele>43.236257</ele>
        <time>2021-11-15T13:01:06.500Z</time>
      </trkpt>
      <trkpt lat="41.52554" lon="41.54898">
        <ele>33.010738</ele>
        <time>2021-11-15T13:01:20.892Z</time>
      </trkpt>
      <trkpt lat="41.52502" lon="41.54896">
        <ele>27.975417</ele>
        <time>2021-11-15T13:01:27.915Z</time>
      </trkpt>
      <trkpt lat="41.52406" lon="41.54883">
        <ele>20.81158</ele>
        <time>2021-11-15T13:01:41.198Z</time>
      </trkpt>
      <trkpt lat="41.52362" lon="41.54874">
        <ele>17.583612</ele>
        <time>2021-11-15T13:01:47.520Z</time>
      </trkpt>
      <trkpt lat="41.52212" lon="41.54846">
        <ele>11.934663</ele>
        <time>2021-11-15T13:02:11.564Z</time>
      </trkpt>
      <trkpt lat="41.52194" lon="41.54845">
        <ele>11.56953</ele>
        <time>2021-11-15T13:02:15.499Z</time>
      </trkpt>
      <trkpt lat="41.52184" lon="41.54843">
        <ele>11.364656</ele>
        <time>2021-11-15T13:02:17.823Z</time>
      </trkpt>
      <trkpt lat="41.52167" lon="41.54839">
        <ele>11.005557</ele>
        <time>2021-11-15T13:02:22.113Z</time>
      </trkpt>
      <trkpt lat="41.52152" lon="41.54835">
        <ele>10.686726</ele>
        <time>2021-11-15T13:02:25.669Z</time>
      </trkpt>
      <trkpt lat="41.52145" lon="41.54833">
        <ele>10.531965</ele>
        <time>2021-11-15T13:02:27.599Z</time>
      </trkpt>
      <trkpt lat="41.52132" lon="41.54829">
        <ele>10.412339</ele>
        <time>2021-11-15T13:02:30.964Z</time>
      </trkpt>
      <trkpt lat="41.52122" lon="41.54827">
        <ele>10.56133</ele>
        <time>2021-11-15T13:02:33.519Z</time>
      </trkpt>
      <trkpt lat="41.521" lon="41.54824">
        <ele>10.869467</ele>
        <time>2021-11-15T13:02:39.531Z</time>
      </trkpt>
      <trkpt lat="41.52085" lon="41.54822">
        <ele>11.070773</ele>
        <time>2021-11-15T13:02:43.073Z</time>
      </trkpt>
      <trkpt lat="41.52069" lon="41.5482">
        <ele>11.299409</ele>
        <time>2021-11-15T13:02:47.163Z</time>
      </trkpt>
      <trkpt lat="41.52053" lon="41.54808">
        <ele>11.557915</ele>
        <time>2021-11-15T13:02:52.098Z</time>
      </trkpt>
      <trkpt lat="41.52044" lon="41.548">
        <ele>11.707131</ele>
        <time>2021-11-15T13:02:54.740Z</time>
      </trkpt>
      <trkpt lat="41.52038" lon="41.54792">
        <ele>11.824883</ele>
        <time>2021-11-15T13:02:57.222Z</time>
      </trkpt>
      <trkpt lat="41.52021" lon="41.54777">
        <ele>12.103306</ele>
        <time>2021-11-15T13:03:02.762Z</time>
      </trkpt>
      <trkpt lat="41.51997" lon="41.54766">
        <ele>12.462969</ele>
        <time>2021-11-15T13:03:10.480Z</time>
      </trkpt>
      <trkpt lat="41.51957" lon="41.54748">
        <ele>13.447457</ele>
        <time>2021-11-15T13:03:23.773Z</time>
      </trkpt>
      <trkpt lat="41.51942" lon="41.54741">
        <ele>14.117493</ele>
        <time>2021-11-15T13:03:28.194Z</time>
      </trkpt>
      <trkpt lat="41.51772" lon="41.54671">
        <ele>22.481037</ele>
        <time>2021-11-15T13:04:41.530Z</time>
      </trkpt>
      <trkpt lat="41.51742" lon="41.54637">
        <ele>25.170846</ele>
        <time>2021-11-15T13:05:02.607Z</time>
      </trkpt>
      <trkpt lat="41.51738" lon="41.54627">
        <ele>25.763999</ele>
        <time>2021-11-15T13:05:08.833Z</time>
      </trkpt>
      <trkpt lat="41.51735" lon="41.54617">
        <ele>26.292538</ele>
        <time>2021-11-15T13:05:12.400Z</time>
      </trkpt>
      <trkpt lat="41.51734" lon="41.54602">
        <ele>27.059516</ele>
        <time>2021-11-15T13:05:17.165Z</time>
      </trkpt>
      <trkpt lat="41.51734" lon="41.54588">
        <ele>27.780853</ele>
        <time>2021-11-15T13:05:23.729Z</time>
      </trkpt>
      <trkpt lat="41.51728" lon="41.54555">
        <ele>29.532115</ele>
        <time>2021-11-15T13:05:36.626Z</time>
      </trkpt>
      <trkpt lat="41.51716" lon="41.54525">
        <ele>31.304073</ele>
        <time>2021-11-15T13:05:51.293Z</time>
      </trkpt>
      <trkpt lat="41.51691" lon="41.54498">
        <ele>33.132346</ele>
        <time>2021-11-15T13:06:08.354Z</time>
      </trkpt>
      <trkpt lat="41.51608" lon="41.54473">
        <ele>34.99332</ele>
        <time>2021-11-15T13:06:41.682Z</time>
      </trkpt>
      <trkpt lat="41.51501" lon="41.54422">
        <ele>36.315769</ele>
        <time>2021-11-15T13:07:03.649Z</time>
      </trkpt>
      <trkpt lat="41.51473" lon="41.54415">
        <ele>35.733001</ele>
        <time>2021-11-15T13:07:08.431Z</time>
      </trkpt>
      <trkpt lat="41.51433" lon="41.54405">
        <ele>34.899258</ele>
        <time>2021-11-15T13:07:15.438Z</time>
      </trkpt>
      <trkpt lat="41.51406" lon="41.54389">
        <ele>34.290106</ele>
        <time>2021-11-15T13:07:20.437Z</time>
      </trkpt>
      <trkpt lat="41.51373" lon="41.54356">
        <ele>33.454854</ele>
        <time>2021-11-15T13:07:27.336Z</time>
      </trkpt>
      <trkpt lat="41.51345" lon="41.54338">
        <ele>33.202547</ele>
        <time>2021-11-15T13:07:32.557Z</time>
      </trkpt>
      <trkpt lat="41.51329" lon="41.54332">
        <ele>33.217312</ele>
        <time>2021-11-15T13:07:35.873Z</time>
      </trkpt>
      <trkpt lat="41.51267" lon="41.54333">
        <ele>33.270966</ele>
        <time>2021-11-15T13:07:48.431Z</time>
      </trkpt>
      <trkpt lat="41.51252" lon="41.54332">
        <ele>33.284392</ele>
        <time>2021-11-15T13:07:51.855Z</time>
      </trkpt>
      <trkpt lat="41.51229" lon="41.54319">
        <ele>33.305904</ele>
        <time>2021-11-15T13:07:57.474Z</time>
      </trkpt>
      <trkpt lat="41.51178" lon="41.54282">
        <ele>34.073873</ele>
        <time>2021-11-15T13:08:15.367Z</time>
      </trkpt>
      <trkpt lat="41.51158" lon="41.54254">
        <ele>35.495455</ele>
        <time>2021-11-15T13:08:26.743Z</time>
      </trkpt>
      <trkpt lat="41.51134" lon="41.54199">
        <ele>37.827336</ele>
        <time>2021-11-15T13:08:45.936Z</time>
      </trkpt>
      <trkpt lat="41.51126" lon="41.54187">
        <ele>38.384904</ele>
        <time>2021-11-15T13:08:51.059Z</time>
      </trkpt>
      <trkpt lat="41.51124" lon="41.54173">
        <ele>38.921073</ele>
        <time>2021-11-15T13:08:56.346Z</time>
      </trkpt>
      <trkpt lat="41.51119" lon="41.54138">
        <ele>40.197933</ele>
        <time>2021-11-15T13:09:08.524Z</time>
      </trkpt>
      <trkpt lat="41.51117" lon="41.54101">
        <ele>41.538137</ele>
        <time>2021-11-15T13:09:22.018Z</time>
      </trkpt>
      <trkpt lat="41.51107" lon="41.54018">
        <ele>43.749835</ele>
        <time>2021-11-15T13:09:52.770Z</time>
      </trkpt>
      <trkpt lat="41.51092" lon="41.53976">
        <ele>44.848136</ele>
        <time>2021-11-15T13:10:08.611Z</time>
      </trkpt>
      <trkpt lat="41.51041" lon="41.53897">
        <ele>47.324902</ele>
        <time>2021-11-15T13:10:32.646Z</time>
      </trkpt>
      <trkpt lat="41.50967" lon="41.53808">
        <ele>44.347928</ele>
        <time>2021-11-15T13:10:48.800Z</time>
      </trkpt>
      <trkpt lat="41.5094" lon="41.53787">
        <ele>43.084389</ele>
        <time>2021-11-15T13:10:53.357Z</time>
      </trkpt>
      <trkpt lat="41.50851" lon="41.53732">
        <ele>39.666618</ele>
        <time>2021-11-15T13:11:07.776Z</time>
      </trkpt>
      <trkpt lat="41.50758" lon="41.53682">
        <ele>37.344692</ele>
        <time>2021-11-15T13:11:24.508Z</time>
      </trkpt>
      <trkpt lat="41.50683" lon="41.53598">
        <ele>37.251516</ele>
        <time>2021-11-15T13:11:52.096Z</time>
      </trkpt>
      <trkpt lat="41.50627" lon="41.53545">
        <ele>38.518273</ele>
        <time>2021-11-15T13:12:15.337Z</time>
      </trkpt>
      <trkpt lat="41.50556" lon="41.5351">
        <ele>39.640451</ele>
        <time>2021-11-15T13:12:37.533Z</time>
      </trkpt>
      <trkpt lat="41.50498" lon="41.53491">
        <ele>39.753453</ele>
        <time>2021-11-15T13:12:51.531Z</time>
      </trkpt>
      <trkpt lat="41.50404" lon="41.53451">
        <ele>39.937057</ele>
        <time>2021-11-15T13:13:10.626Z</time>
      </trkpt>
      <trkpt lat="41.50291" lon="41.53383">
        <ele>41.850615</ele>
        <time>2021-11-15T13:13:45.414Z</time>
      </trkpt>
      <trkpt lat="41.50262" lon="41.5337">
        <ele>42.33958</ele>
        <time>2021-11-15T13:13:55.235Z</time>
      </trkpt>
      <trkpt lat="41.50245" lon="41.53361">
        <ele>42.624391</ele>
        <time>2021-11-15T13:14:01.855Z</time>
      </trkpt>
      <trkpt lat="41.50229" lon="41.53348">
        <ele>42.823752</ele>
        <time>2021-11-15T13:14:07.986Z</time>
      </trkpt>
      <trkpt lat="41.5018" lon="41.53309">
        <ele>42.899007</ele>
        <time>2021-11-15T13:14:26.917Z</time>
      </trkpt>
      <trkpt lat="41.50084" lon="41.53248">
        <ele>43.039253</ele>
        <time>2021-11-15T13:14:51.101Z</time>
      </trkpt>
      <trkpt lat="41.49903" lon="41.53186">
        <ele>33.067133</ele>
        <time>2021-11-15T13:15:18.389Z</time>
      </trkpt>
      <trkpt lat="41.49839" lon="41.53182">
        <ele>30.438313</ele>
        <time>2021-11-15T13:15:27.617Z</time>
      </trkpt>
      <trkpt lat="41.49811" lon="41.53184">
        <ele>29.33058</ele>
        <time>2021-11-15T13:15:31.599Z</time>
      </trkpt>
      <trkpt lat="41.4978" lon="41.53185">
        <ele>28.045835</ele>
        <time>2021-11-15T13:15:36.525Z</time>
      </trkpt>
      <trkpt lat="41.49608" lon="41.53193">
        <ele>25.621457</ele>
        <time>2021-11-15T13:16:12.417Z</time>
      </trkpt>
      <trkpt lat="41.49523" lon="41.53182">
        <ele>25.1974</ele>
        <time>2021-11-15T13:16:35.596Z</time>
      </trkpt>
      <trkpt lat="41.49469" lon="41.53167">
        <ele>23.954968</ele>
        <time>2021-11-15T13:16:46.288Z</time>
      </trkpt>
      <trkpt lat="41.49448" lon="41.53162">
        <ele>23.479351</ele>
        <time>2021-11-15T13:16:49.889Z</time>
      </trkpt>
      <trkpt lat="41.49379" lon="41.53139">
        <ele>21.889428</ele>
        <time>2021-11-15T13:17:01.303Z</time>
      </trkpt>
      <trkpt lat="41.49324" lon="41.5312">
        <ele>19.698313</ele>
        <time>2021-11-15T13:17:09.830Z</time>
      </trkpt>
      <trkpt lat="41.49254" lon="41.53098">
        <ele>16.540986</ele>
        <time>2021-11-15T13:17:20.620Z</time>
      </trkpt>
      <trkpt lat="41.492" lon="41.53078">
        <ele>14.095184</ele>
        <time>2021-11-15T13:17:29.281Z</time>
      </trkpt>
      <trkpt lat="41.49198" lon="41.53077">
        <ele>13.976654</ele>
        <time>2021-11-15T13:17:29.730Z</time>
      </trkpt>
      <trkpt lat="41.4916" lon="41.53064">
        <ele>13.503531</ele>
        <time>2021-11-15T13:17:36.371Z</time>
      </trkpt>
      <trkpt lat="41.49047" lon="41.53026">
        <ele>12.847953</ele>
        <time>2021-11-15T13:18:00.966Z</time>
      </trkpt>
      <trkpt lat="41.49029" lon="41.5302">
        <ele>12.740533</ele>
        <time>2021-11-15T13:18:06.669Z</time>
      </trkpt>
      <trkpt lat="41.48979" lon="41.53004">
        <ele>13.017993</ele>
        <time>2021-11-15T13:18:20.983Z</time>
      </trkpt>
      <trkpt lat="41.48907" lon="41.52978">
        <ele>13.696159</ele>
        <time>2021-11-15T13:18:41.451Z</time>
      </trkpt>
      <trkpt lat="41.489" lon="41.52974">
        <ele>13.768061</ele>
        <time>2021-11-15T13:18:44.094Z</time>
      </trkpt>
      <trkpt lat="41.48895" lon="41.52972">
        <ele>13.815296</ele>
        <time>2021-11-15T13:18:45.278Z</time>
      </trkpt>
      <trkpt lat="41.48844" lon="41.52946">
        <ele>14.28724</ele>
        <time>2021-11-15T13:18:58.392Z</time>
      </trkpt>
      <trkpt lat="41.48791" lon="41.52908">
        <ele>13.520016</ele>
        <time>2021-11-15T13:19:10.844Z</time>
      </trkpt>
      <trkpt lat="41.48666" lon="41.52778">
        <ele>11.355467</ele>
        <time>2021-11-15T13:19:38.756Z</time>
      </trkpt>
      <trkpt lat="41.48503" lon="41.52592">
        <ele>8.930392</ele>
        <time>2021-11-15T13:20:17.919Z</time>
      </trkpt>
      <trkpt lat="41.48465" lon="41.52552">
        <ele>8.85283</ele>
        <time>2021-11-15T13:20:29.001Z</time>
      </trkpt>
      <trkpt lat="41.48416" lon="41.52499">
        <ele>9.088394</ele>
        <time>2021-11-15T13:20:44.475Z</time>
      </trkpt>
      <trkpt lat="41.48374" lon="41.52446">
        <ele>12.111567</ele>
        <time>2021-11-15T13:21:03.716Z</time>
      </trkpt>
      <trkpt lat="41.48301" lon="41.52375">
        <ele>16.859557</ele>
        <time>2021-11-15T13:21:45.035Z</time>
      </trkpt>
      <trkpt lat="41.48264" lon="41.52332">
        <ele>20.972202</ele>
        <time>2021-11-15T13:22:14.122Z</time>
      </trkpt>
      <trkpt lat="41.48245" lon="41.52307">
        <ele>24.051059</ele>
        <time>2021-11-15T13:22:31.690Z</time>
      </trkpt>
      <trkpt lat="41.48211" lon="41.5225">
        <ele>30.478652</ele>
        <time>2021-11-15T13:23:09.118Z</time>
      </trkpt>
      <trkpt lat="41.48197" lon="41.52216">
        <ele>33.949539</ele>
        <time>2021-11-15T13:23:31.779Z</time>
      </trkpt>
      <trkpt lat="41.48183" lon="41.5218">
        <ele>37.506876</ele>
        <time>2021-11-15T13:23:56.178Z</time>
      </trkpt>
      <trkpt lat="41.48156" lon="41.52081">
        <ele>46.866928</ele>
        <time>2021-11-15T13:24:55.700Z</time>
      </trkpt>
      <trkpt lat="41.48117" lon="41.51834">
        <ele>65.806294</ele>
        <time>2021-11-15T13:27:02.537Z</time>
      </trkpt>
      <trkpt lat="41.48105" lon="41.51793">
        <ele>68.054813</ele>
        <time>2021-11-15T13:27:20.067Z</time>
      </trkpt>
      <trkpt lat="41.48091" lon="41.51762">
        <ele>69.852873</ele>
        <time>2021-11-15T13:27:33.047Z</time>
      </trkpt>
      <trkpt lat="41.47979" lon="41.5159">
        <ele>70.991392</ele>
        <time>2021-11-15T13:28:12.602Z</time>
      </trkpt>
      <trkpt lat="41.47936" lon="41.51497">
        <ele>68.288576</ele>
        <time>2021-11-15T13:28:24.673Z</time>
      </trkpt>
      <trkpt lat="41.47892" lon="41.51419">
        <ele>63.155842</ele>
        <time>2021-11-15T13:28:35.031Z</time>
      </trkpt>
      <trkpt lat="41.47844" lon="41.51298">
        <ele>56.362043</ele>
        <time>2021-11-15T13:28:49.564Z</time>
      </trkpt>
      <trkpt lat="41.47828" lon="41.51244">
        <ele>54.113912</ele>
        <time>2021-11-15T13:28:55.995Z</time>
      </trkpt>
      <trkpt lat="41.47805" lon="41.51099">
        <ele>48.449431</ele>
        <time>2021-11-15T13:29:12.944Z</time>
      </trkpt>
      <trkpt lat="41.47799" lon="41.51072">
        <ele>48.096375</ele>
        <time>2021-11-15T13:29:16.311Z</time>
      </trkpt>
      <trkpt lat="41.47787" lon="41.51045">
        <ele>47.905241</ele>
        <time>2021-11-15T13:29:20.351Z</time>
      </trkpt>
      <trkpt lat="41.47711" lon="41.50936">
        <ele>47.007801</ele>
        <time>2021-11-15T13:29:43.645Z</time>
      </trkpt>
      <trkpt lat="41.47632" lon="41.50854">
        <ele>48.615058</ele>
        <time>2021-11-15T13:30:12.187Z</time>
      </trkpt>
      <trkpt lat="41.4755" lon="41.50707">
        <ele>52.695758</ele>
        <time>2021-11-15T13:31:00.726Z</time>
      </trkpt>
      <trkpt lat="41.47523" lon="41.50671">
        <ele>54.486976</ele>
        <time>2021-11-15T13:31:15.447Z</time>
      </trkpt>
      <trkpt lat="41.47416" lon="41.50566">
        <ele>60.739466</ele>
        <time>2021-11-15T13:32:12.795Z</time>
      </trkpt>
      <trkpt lat="41.47374" lon="41.50509">
        <ele>63.641737</ele>
        <time>2021-11-15T13:32:40.461Z</time>
      </trkpt>
      <trkpt lat="41.47238" lon="41.50369">
        <ele>67.938482</ele>
        <time>2021-11-15T13:33:47.914Z</time>
      </trkpt>
      <trkpt lat="41.47197" lon="41.50318">
        <ele>67.551685</ele>
        <time>2021-11-15T13:33:56.703Z</time>
      </trkpt>
      <trkpt lat="41.47144" lon="41.5027">
        <ele>66.727547</ele>
        <time>2021-11-15T13:34:06.617Z</time>
      </trkpt>
      <trkpt lat="41.47132" lon="41.50251">
        <ele>66.003507</ele>
        <time>2021-11-15T13:34:09.622Z</time>
      </trkpt>
      <trkpt lat="41.47121" lon="41.50226">
        <ele>65.15904</ele>
        <time>2021-11-15T13:34:12.828Z</time>
      </trkpt>
      <trkpt lat="41.47113" lon="41.50204">
        <ele>64.437659</ele>
        <time>2021-11-15T13:34:15.674Z</time>
      </trkpt>
      <trkpt lat="41.47095" lon="41.50145">
        <ele>62.625614</ele>
        <time>2021-11-15T13:34:22.858Z</time>
      </trkpt>
      <trkpt lat="41.47084" lon="41.5008">
        <ele>60.709147</ele>
        <time>2021-11-15T13:34:30.692Z</time>
      </trkpt>
      <trkpt lat="41.47082" lon="41.4986">
        <ele>58.913547</ele>
        <time>2021-11-15T13:35:05.497Z</time>
      </trkpt>
      <trkpt lat="41.47073" lon="41.49809">
        <ele>58.394104</ele>
        <time>2021-11-15T13:35:13.986Z</time>
      </trkpt>
      <trkpt lat="41.46995" lon="41.4962">
        <ele>54.855636</ele>
        <time>2021-11-15T13:35:41.498Z</time>
      </trkpt>
      <trkpt lat="41.46974" lon="41.49554">
        <ele>54.386286</ele>
        <time>2021-11-15T13:35:50.230Z</time>
      </trkpt>
      <trkpt lat="41.46966" lon="41.49501">
        <ele>54.084013</ele>
        <time>2021-11-15T13:35:57.182Z</time>
      </trkpt>
      <trkpt lat="41.46966" lon="41.49418">
        <ele>53.614954</ele>
        <time>2021-11-15T13:36:09.570Z</time>
      </trkpt>
      <trkpt lat="41.46988" lon="41.49278">
        <ele>57.196575</ele>
        <time>2021-11-15T13:36:48.858Z</time>
      </trkpt>
      <trkpt lat="41.46987" lon="41.49221">
        <ele>59.252403</ele>
        <time>2021-11-15T13:37:09.962Z</time>
      </trkpt>
      <trkpt lat="41.46974" lon="41.49165">
        <ele>61.336192</ele>
        <time>2021-11-15T13:37:31.047Z</time>
      </trkpt>
      <trkpt lat="41.46948" lon="41.49112">
        <ele>62.469501</ele>
        <time>2021-11-15T13:37:52.444Z</time>
      </trkpt>
      <trkpt lat="41.46921" lon="41.49072">
        <ele>63.003702</ele>
        <time>2021-11-15T13:38:08.976Z</time>
      </trkpt>
      <trkpt lat="41.46783" lon="41.489">
        <ele>61.350861</ele>
        <time>2021-11-15T13:38:43.379Z</time>
      </trkpt>
      <trkpt lat="41.46745" lon="41.48861">
        <ele>59.587593</ele>
        <time>2021-11-15T13:38:50.346Z</time>
      </trkpt>
      <trkpt lat="41.46615" lon="41.4877">
        <ele>54.425943</ele>
        <time>2021-11-15T13:39:12.558Z</time>
      </trkpt>
      <trkpt lat="41.46587" lon="41.48737">
        <ele>53.148175</ele>
        <time>2021-11-15T13:39:18.878Z</time>
      </trkpt>
      <trkpt lat="41.46508" lon="41.4863">
        <ele>51.981729</ele>
        <time>2021-11-15T13:39:41.207Z</time>
      </trkpt>
      <trkpt lat="41.46482" lon="41.48586">
        <ele>52.211258</ele>
        <time>2021-11-15T13:39:52.362Z</time>
      </trkpt>
      <trkpt lat="41.46362" lon="41.4835">
        <ele>54.942747</ele>
        <time>2021-11-15T13:40:54.274Z</time>
      </trkpt>
      <trkpt lat="41.46246" lon="41.48194">
        <ele>55.430748</ele>
        <time>2021-11-15T13:41:40.712Z</time>
      </trkpt>
      <trkpt lat="41.4618" lon="41.48116">
        <ele>52.773806</ele>
        <time>2021-11-15T13:41:55.226Z</time>
      </trkpt>
      <trkpt lat="41.46152" lon="41.48057">
        <ele>49.048831</ele>
        <time>2021-11-15T13:42:02.787Z</time>
      </trkpt>
      <trkpt lat="41.46136" lon="41.47959">
        <ele>43.728871</ele>
        <time>2021-11-15T13:42:13.124Z</time>
      </trkpt>
      <trkpt lat="41.46132" lon="41.47894">
        <ele>39.751776</ele>
        <time>2021-11-15T13:42:19.713Z</time>
      </trkpt>
      <trkpt lat="41.46142" lon="41.47675">
        <ele>26.182525</ele>
        <time>2021-11-15T13:42:42.525Z</time>
      </trkpt>
      <trkpt lat="41.46131" lon="41.47613">
        <ele>23.827758</ele>
        <time>2021-11-15T13:42:49.609Z</time>
      </trkpt>
      <trkpt lat="41.46124" lon="41.47591">
        <ele>22.917226</ele>
        <time>2021-11-15T13:42:52.394Z</time>
      </trkpt>
      <trkpt lat="41.4606" lon="41.47471">
        <ele>17.891006</ele>
        <time>2021-11-15T13:43:10.006Z</time>
      </trkpt>
      <trkpt lat="41.46015" lon="41.47416">
        <ele>16.52696</ele>
        <time>2021-11-15T13:43:20.542Z</time>
      </trkpt>
      <trkpt lat="41.45962" lon="41.47379">
        <ele>15.212205</ele>
        <time>2021-11-15T13:43:30.913Z</time>
      </trkpt>
      <trkpt lat="41.45852" lon="41.47339">
        <ele>14.560687</ele>
        <time>2021-11-15T13:43:51.671Z</time>
      </trkpt>
      <trkpt lat="41.45733" lon="41.4729">
        <ele>16.041266</ele>
        <time>2021-11-15T13:44:26.153Z</time>
      </trkpt>
      <trkpt lat="41.45728" lon="41.47289">
        <ele>16.394559</ele>
        <time>2021-11-15T13:44:28.127Z</time>
      </trkpt>
      <trkpt lat="41.45665" lon="41.47279">
        <ele>20.589846</ele>
        <time>2021-11-15T13:44:55.877Z</time>
      </trkpt>
      <trkpt lat="41.45538" lon="41.4726">
        <ele>29.116981</ele>
        <time>2021-11-15T13:46:09.656Z</time>
      </trkpt>
      <trkpt lat="41.45483" lon="41.47238">
        <ele>33.129374</ele>
        <time>2021-11-15T13:46:43.387Z</time>
      </trkpt>
      <trkpt lat="41.454" lon="41.47181">
        <ele>39.595011</ele>
        <time>2021-11-15T13:47:27.785Z</time>
      </trkpt>
      <trkpt lat="41.45301" lon="41.47092">
        <ele>40.528024</ele>
        <time>2021-11-15T13:47:59.489Z</time>
      </trkpt>
      <trkpt lat="41.45265" lon="41.47044">
        <ele>40.925028</ele>
        <time>2021-11-15T13:48:08.468Z</time>
      </trkpt>
      <trkpt lat="41.45228" lon="41.46981">
        <ele>41.085086</ele>
        <time>2021-11-15T13:48:19.452Z</time>
      </trkpt>
      <trkpt lat="41.45206" lon="41.46919">
        <ele>41.176923</ele>
        <time>2021-11-15T13:48:29.181Z</time>
      </trkpt>
      <trkpt lat="41.45079" lon="41.46465">
        <ele>47.952728</ele>
        <time>2021-11-15T13:50:21.848Z</time>
      </trkpt>
      <trkpt lat="41.45057" lon="41.46396">
        <ele>49.381938</ele>
        <time>2021-11-15T13:50:40.375Z</time>
      </trkpt>
      <trkpt lat="41.45026" lon="41.46342">
        <ele>51.862732</ele>
        <time>2021-11-15T13:50:58.768Z</time>
      </trkpt>
      <trkpt lat="41.44982" lon="41.46298">
        <ele>55.15005</ele>
        <time>2021-11-15T13:51:20.254Z</time>
      </trkpt>
      <trkpt lat="41.44878" lon="41.46214">
        <ele>63.623853</ele>
        <time>2021-11-15T13:52:25.812Z</time>
      </trkpt>
      <trkpt lat="41.44741" lon="41.46081">
        <ele>79.139055</ele>
        <time>2021-11-15T13:54:18.054Z</time>
      </trkpt>
      <trkpt lat="41.44645" lon="41.45997">
        <ele>83.091812</ele>
        <time>2021-11-15T13:55:09.704Z</time>
      </trkpt>
      <trkpt lat="41.44502" lon="41.4585">
        <ele>74.397886</ele>
        <time>2021-11-15T13:55:36.354Z</time>
      </trkpt>
      <trkpt lat="41.44448" lon="41.45809">
        <ele>68.600523</ele>
        <time>2021-11-15T13:55:44.452Z</time>
      </trkpt>
      <trkpt lat="41.44389" lon="41.45777">
        <ele>59.47277</ele>
        <time>2021-11-15T13:55:52.810Z</time>
      </trkpt>
      <trkpt lat="41.44201" lon="41.45699">
        <ele>34.027791</ele>
        <time>2021-11-15T13:56:18.387Z</time>
      </trkpt>
      <trkpt lat="41.44142" lon="41.45659">
        <ele>26.241863</ele>
        <time>2021-11-15T13:56:27.526Z</time>
      </trkpt>
      <trkpt lat="41.441" lon="41.4562">
        <ele>24.430972</ele>
        <time>2021-11-15T13:56:34.893Z</time>
      </trkpt>
      <trkpt lat="41.44068" lon="41.45591">
        <ele>24.327159</ele>
        <time>2021-11-15T13:56:41.210Z</time>
      </trkpt>
      <trkpt lat="41.43979" lon="41.45508">
        <ele>24.381731</ele>
        <time>2021-11-15T13:57:14.150Z</time>
      </trkpt>
      <trkpt lat="41.43884" lon="41.45412">
        <ele>36.679674</ele>
        <time>2021-11-15T13:58:29.580Z</time>
      </trkpt>
      <trkpt lat="41.43858" lon="41.45368">
        <ele>41.006879</ele>
        <time>2021-11-15T13:59:01.735Z</time>
      </trkpt>
      <trkpt lat="41.4383" lon="41.45306">
        <ele>47.007833</ele>
        <time>2021-11-15T13:59:44.530Z</time>
      </trkpt>
      <trkpt lat="41.438" lon="41.45258">
        <ele>52.381332</ele>
        <time>2021-11-15T14:00:20.776Z</time>
      </trkpt>
      <trkpt lat="41.43755" lon="41.45211">
        <ele>58.790558</ele>
        <time>2021-11-15T14:00:59.996Z</time>
      </trkpt>
      <trkpt lat="41.43686" lon="41.45161">
        <ele>64.237324</ele>
        <time>2021-11-15T14:01:41.192Z</time>
      </trkpt>
      <trkpt lat="41.43553" lon="41.45078">
        <ele>67.956355</ele>
        <time>2021-11-15T14:02:22.517Z</time>
      </trkpt>
      <trkpt lat="41.43443" lon="41.45022">
        <ele>65.66254</ele>
        <time>2021-11-15T14:02:42.227Z</time>
      </trkpt>
      <trkpt lat="41.43346" lon="41.44981">
        <ele>64.690946</ele>
        <time>2021-11-15T14:02:59.463Z</time>
      </trkpt>
      <trkpt lat="41.43283" lon="41.4494">
        <ele>64.806966</ele>
        <time>2021-11-15T14:03:12.900Z</time>
      </trkpt>
      <trkpt lat="41.43042" lon="41.4476">
        <ele>72.125037</ele>
        <time>2021-11-15T14:04:54.268Z</time>
      </trkpt>
      <trkpt lat="41.42929" lon="41.44653">
        <ele>75.64334</ele>
        <time>2021-11-15T14:05:43.770Z</time>
      </trkpt>
      <trkpt lat="41.4277" lon="41.44471">
        <ele>70.327624</ele>
        <time>2021-11-15T14:06:18.757Z</time>
      </trkpt>
      <trkpt lat="41.42657" lon="41.44354">
        <ele>62.652805</ele>
        <time>2021-11-15T14:06:39.731Z</time>
      </trkpt>
      <trkpt lat="41.42532" lon="41.44257">
        <ele>52.353212</ele>
        <time>2021-11-15T14:07:00.539Z</time>
      </trkpt>
      <trkpt lat="41.42185" lon="41.44033">
        <ele>19.698781</ele>
        <time>2021-11-15T14:07:53.918Z</time>
      </trkpt>
      <trkpt lat="41.42116" lon="41.43957">
        <ele>14.572104</ele>
        <time>2021-11-15T14:08:06.745Z</time>
      </trkpt>
      <trkpt lat="41.42033" lon="41.43844">
        <ele>9.178744</ele>
        <time>2021-11-15T14:08:25.473Z</time>
      </trkpt>
      <trkpt lat="41.41997" lon="41.43811">
        <ele>9.407237</ele>
        <time>2021-11-15T14:08:33.916Z</time>
      </trkpt>
      <trkpt lat="41.41923" lon="41.43778">
        <ele>9.817685</ele>
        <time>2021-11-15T14:08:53.994Z</time>
      </trkpt>
      <trkpt lat="41.41894" lon="41.43774">
        <ele>9.972904</ele>
        <time>2021-11-15T14:09:03.199Z</time>
      </trkpt>
      <trkpt lat="41.41783" lon="41.43781">
        <ele>12.59769</ele>
        <time>2021-11-15T14:09:41.860Z</time>
      </trkpt>
      <trkpt lat="41.4174" lon="41.43768">
        <ele>13.847321</ele>
        <time>2021-11-15T14:09:57.412Z</time>
      </trkpt>
      <trkpt lat="41.41524" lon="41.43625">
        <ele>19.436082</ele>
        <time>2021-11-15T14:11:14.078Z</time>
      </trkpt>
      <trkpt lat="41.4138" lon="41.43539">
        <ele>20.654128</ele>
        <time>2021-11-15T14:11:54.995Z</time>
      </trkpt>
      <trkpt lat="41.4073" lon="41.43085">
        <ele>10.068689</ele>
        <time>2021-11-15T14:14:08.931Z</time>
      </trkpt>
      <trkpt lat="41.40607" lon="41.42989">
        <ele>8.606095</ele>
        <time>2021-11-15T14:14:35.655Z</time>
      </trkpt>
      <trkpt lat="41.40558" lon="41.42939">
        <ele>9.086483</ele>
        <time>2021-11-15T14:14:48.178Z</time>
      </trkpt>
      <trkpt lat="41.40529" lon="41.429">
        <ele>10.225955</ele>
        <time>2021-11-15T14:15:00.629Z</time>
      </trkpt>
      <trkpt lat="41.40524" lon="41.42893">
        <ele>10.413382</ele>
        <time>2021-11-15T14:15:02.917Z</time>
      </trkpt>
      <trkpt lat="41.40517" lon="41.42885">
        <ele>10.668928</ele>
        <time>2021-11-15T14:15:06.393Z</time>
      </trkpt>
      <trkpt lat="41.4051" lon="41.42878">
        <ele>10.90406</ele>
        <time>2021-11-15T14:15:09.969Z</time>
      </trkpt>
      <trkpt lat="41.40506" lon="41.42873">
        <ele>11.061525</ele>
        <time>2021-11-15T14:15:12.229Z</time>
      </trkpt>
      <trkpt lat="41.40502" lon="41.42874">
        <ele>11.15747</ele>
        <time>2021-11-15T14:15:13.945Z</time>
      </trkpt>
      <trkpt lat="41.40492" lon="41.42885">
        <ele>11.504913</ele>
        <time>2021-11-15T14:15:19.370Z</time>
      </trkpt>
      <trkpt lat="41.4049" lon="41.42889">
        <ele>11.621645</ele>
        <time>2021-11-15T14:15:20.923Z</time>
      </trkpt>
      <trkpt lat="41.40484" lon="41.42897">
        <ele>11.83903</ele>
        <time>2021-11-15T14:15:24.003Z</time>
      </trkpt>
      <trkpt lat="41.4048" lon="41.42903">
        <ele>12.014865</ele>
        <time>2021-11-15T14:15:26.406Z</time>
      </trkpt>
      <trkpt lat="41.40477" lon="41.42906">
        <ele>12.11295</ele>
        <time>2021-11-15T14:15:28.012Z</time>
      </trkpt>
      <trkpt lat="41.4047" lon="41.42912">
        <ele>12.33474</ele>
        <time>2021-11-15T14:15:31.382Z</time>
      </trkpt>
      <trkpt lat="41.40467" lon="41.42915">
        <ele>12.440462</ele>
        <time>2021-11-15T14:15:33.074Z</time>
      </trkpt>
      <trkpt lat="41.40463" lon="41.42919">
        <ele>12.582563</ele>
        <time>2021-11-15T14:15:34.902Z</time>
      </trkpt>
      <trkpt lat="41.40459" lon="41.42925">
        <ele>12.753077</ele>
        <time>2021-11-15T14:15:37.192Z</time>
      </trkpt>
      <trkpt lat="41.40452" lon="41.4293">
        <ele>12.966313</ele>
        <time>2021-11-15T14:15:40.102Z</time>
      </trkpt>
      <trkpt lat="41.40408" lon="41.42959">
        <ele>14.259579</ele>
        <time>2021-11-15T14:15:59.183Z</time>
      </trkpt>
      <trkpt lat="41.40373" lon="41.42984">
        <ele>15.303496</ele>
        <time>2021-11-15T14:16:14.426Z</time>
      </trkpt>
      <trkpt lat="41.40344" lon="41.42949">
        <ele>16.327417</ele>
        <time>2021-11-15T14:16:29.123Z</time>
      </trkpt>
      <trkpt lat="41.40229" lon="41.42793">
        <ele>17.147225</ele>
        <time>2021-11-15T14:17:05.822Z</time>
      </trkpt>
      <trkpt lat="41.40199" lon="41.42749">
        <ele>16.825598</ele>
        <time>2021-11-15T14:17:13.473Z</time>
      </trkpt>
      <trkpt lat="41.40148" lon="41.42657">
        <ele>16.401222</ele>
        <time>2021-11-15T14:17:28.803Z</time>
      </trkpt>
      <trkpt lat="41.39936" lon="41.42478">
        <ele>17.291255</ele>
        <time>2021-11-15T14:18:28.304Z</time>
      </trkpt>
      <trkpt lat="41.39921" lon="41.42466">
        <ele>17.477734</ele>
        <time>2021-11-15T14:18:33.973Z</time>
      </trkpt>
      <trkpt lat="41.39897" lon="41.42441">
        <ele>17.806312</ele>
        <time>2021-11-15T14:18:44.309Z</time>
      </trkpt>
      <trkpt lat="41.3976" lon="41.42295">
        <ele>21.084536</ele>
        <time>2021-11-15T14:19:39.975Z</time>
      </trkpt>
      <trkpt lat="41.39596" lon="41.42152">
        <ele>20.419002</ele>
        <time>2021-11-15T14:20:18.998Z</time>
      </trkpt>
      <trkpt lat="41.39519" lon="41.42077">
        <ele>19.055694</ele>
        <time>2021-11-15T14:20:37.538Z</time>
      </trkpt>
      <trkpt lat="41.39509" lon="41.42061">
        <ele>18.827248</ele>
        <time>2021-11-15T14:20:40.272Z</time>
      </trkpt>
      <trkpt lat="41.39493" lon="41.42092">
        <ele>18.437156</ele>
        <time>2021-11-15T14:20:45.628Z</time>
      </trkpt>
      <trkpt lat="41.39408" lon="41.42042">
        <ele>16.30494</ele>
        <time>2021-11-15T14:21:02.350Z</time>
      </trkpt>
      <trkpt lat="41.39381" lon="41.42088">
        <ele>15.090136</ele>
        <time>2021-11-15T14:21:09.931Z</time>
      </trkpt>
      <trkpt lat="41.39366" lon="41.42108">
        <ele>14.465021</ele>
        <time>2021-11-15T14:21:13.611Z</time>
      </trkpt>
      <trkpt lat="41.39333" lon="41.42127">
        <ele>13.459261</ele>
        <time>2021-11-15T14:21:19.589Z</time>
      </trkpt>
      <trkpt lat="41.39291" lon="41.42137">
        <ele>12.488059</ele>
        <time>2021-11-15T14:21:26.997Z</time>
      </trkpt>
      <trkpt lat="41.39224" lon="41.42152">
        <ele>11.322883</ele>
        <time>2021-11-15T14:21:39.054Z</time>
      </trkpt>
      <trkpt lat="41.39182" lon="41.42247">
        <ele>9.905314</ele>
        <time>2021-11-15T14:21:55.190Z</time>
      </trkpt>
      <trkpt lat="41.39155" lon="41.42329">
        <ele>10.136163</ele>
        <time>2021-11-15T14:22:09.723Z</time>
      </trkpt>
      <trkpt lat="41.39144" lon="41.42379">
        <ele>10.377925</ele>
        <time>2021-11-15T14:22:19.432Z</time>
      </trkpt>
      <trkpt lat="41.39134" lon="41.42493">
        <ele>10.972837</ele>
        <time>2021-11-15T14:22:42.963Z</time>
      </trkpt>
      <trkpt lat="41.39123" lon="41.42551">
        <ele>11.784845</ele>
        <time>2021-11-15T14:22:55.574Z</time>
      </trkpt>
      <trkpt lat="41.39111" lon="41.42613">
        <ele>12.65266</ele>
        <time>2021-11-15T14:23:10.287Z</time>
      </trkpt>
      <trkpt lat="41.39098" lon="41.42745">
        <ele>14.389182</ele>
        <time>2021-11-15T14:23:40.220Z</time>
      </trkpt>
      <trkpt lat="41.3908" lon="41.42782">
        <ele>14.872106</ele>
        <time>2021-11-15T14:23:50.663Z</time>
      </trkpt>
      <trkpt lat="41.39076" lon="41.42815">
        <ele>15.227118</ele>
        <time>2021-11-15T14:23:57.566Z</time>
      </trkpt>
      <trkpt lat="41.39046" lon="41.42948">
        <ele>16.721135</ele>
        <time>2021-11-15T14:24:25.308Z</time>
      </trkpt>
      <trkpt lat="41.39029" lon="41.42982">
        <ele>17.31844</ele>
        <time>2021-11-15T14:24:33.400Z</time>
      </trkpt>
      <trkpt lat="41.38997" lon="41.43023">
        <ele>18.177375</ele>
        <time>2021-11-15T14:24:45.475Z</time>
      </trkpt>
      <trkpt lat="41.38972" lon="41.43086">
        <ele>19.229119</ele>
        <time>2021-11-15T14:25:01.536Z</time>
      </trkpt>
      <trkpt lat="41.38965" lon="41.43123">
        <ele>19.776706</ele>
        <time>2021-11-15T14:25:10.398Z</time>
      </trkpt>
      <trkpt lat="41.38959" lon="41.43192">
        <ele>21.072769</ele>
        <time>2021-11-15T14:25:29.916Z</time>
      </trkpt>
      <trkpt lat="41.3896" lon="41.4328">
        <ele>22.946168</ele>
        <time>2021-11-15T14:25:51.986Z</time>
      </trkpt>
      <trkpt lat="41.38984" lon="41.43325">
        <ele>24.13799</ele>
        <time>2021-11-15T14:26:08.192Z</time>
      </trkpt>
      <trkpt lat="41.38988" lon="41.43365">
        <ele>25.000184</ele>
        <time>2021-11-15T14:26:16.210Z</time>
      </trkpt>
      <trkpt lat="41.38984" lon="41.43371">
        <ele>25.159583</ele>
        <time>2021-11-15T14:26:19.809Z</time>
      </trkpt>
      <trkpt lat="41.38979" lon="41.43381">
        <ele>25.384118</ele>
        <time>2021-11-15T14:26:21.503Z</time>
      </trkpt>
      <trkpt lat="41.3896" lon="41.43395">
        <ele>25.612203</ele>
        <time>2021-11-15T14:26:27.400Z</time>
      </trkpt>
      <trkpt lat="41.38924" lon="41.43392">
        <ele>25.990794</ele>
        <time>2021-11-15T14:26:37.935Z</time>
      </trkpt>
      <trkpt lat="41.38912" lon="41.43397">
        <ele>26.12215</ele>
        <time>2021-11-15T14:26:42.079Z</time>
      </trkpt>
      <trkpt lat="41.38902" lon="41.43413">
        <ele>26.286324</ele>
        <time>2021-11-15T14:26:45.849Z</time>
      </trkpt>
      <trkpt lat="41.38884" lon="41.4351">
        <ele>27.075012</ele>
        <time>2021-11-15T14:27:04.886Z</time>
      </trkpt>
      <trkpt lat="41.38878" lon="41.43533">
        <ele>27.25036</ele>
        <time>2021-11-15T14:27:08.446Z</time>
      </trkpt>
      <trkpt lat="41.38871" lon="41.43561">
        <ele>27.237908</ele>
        <time>2021-11-15T14:27:13.220Z</time>
      </trkpt>
      <trkpt lat="41.38865" lon="41.4358">
        <ele>27.229241</ele>
        <time>2021-11-15T14:27:16.330Z</time>
      </trkpt>
      <trkpt lat="41.38845" lon="41.43598">
        <ele>27.215097</ele>
        <time>2021-11-15T14:27:21.784Z</time>
      </trkpt>
      <trkpt lat="41.38835" lon="41.43625">
        <ele>27.202399</ele>
        <time>2021-11-15T14:27:26.664Z</time>
      </trkpt>
      <trkpt lat="41.3882" lon="41.43718">
        <ele>27.161937</ele>
        <time>2021-11-15T14:27:42.494Z</time>
      </trkpt>
      <trkpt lat="41.38818" lon="41.43768">
        <ele>27.124036</ele>
        <time>2021-11-15T14:27:50.862Z</time>
      </trkpt>
      <trkpt lat="41.38807" lon="41.43804">
        <ele>27.074602</ele>
        <time>2021-11-15T14:27:57.092Z</time>
      </trkpt>
      <trkpt lat="41.38801" lon="41.43894">
        <ele>26.958902</ele>
        <time>2021-11-15T14:28:11.524Z</time>
      </trkpt>
      <trkpt lat="41.38804" lon="41.4395">
        <ele>26.888089</ele>
        <time>2021-11-15T14:28:20.500Z</time>
      </trkpt>
      <trkpt lat="41.38787" lon="41.44017">
        <ele>27.07087</ele>
        <time>2021-11-15T14:28:32.221Z</time>
      </trkpt>
      <trkpt lat="41.38787" lon="41.44046">
        <ele>27.248801</ele>
        <time>2021-11-15T14:28:37.159Z</time>
      </trkpt>
      <trkpt lat="41.38798" lon="41.44074">
        <ele>27.44607</ele>
        <time>2021-11-15T14:28:42.678Z</time>
      </trkpt>
      <trkpt lat="41.38803" lon="41.44102">
        <ele>27.621692</ele>
        <time>2021-11-15T14:28:47.650Z</time>
      </trkpt>
      <trkpt lat="41.3882" lon="41.44405">
        <ele>31.329628</ele>
        <time>2021-11-15T14:29:53.311Z</time>
      </trkpt>
      <trkpt lat="41.38827" lon="41.44431">
        <ele>31.768201</ele>
        <time>2021-11-15T14:30:00.403Z</time>
      </trkpt>
      <trkpt lat="41.38842" lon="41.44467">
        <ele>32.63174</ele>
        <time>2021-11-15T14:30:11.521Z</time>
      </trkpt>
      <trkpt lat="41.3885" lon="41.44486">
        <ele>33.21487</ele>
        <time>2021-11-15T14:30:17.823Z</time>
      </trkpt>
      <trkpt lat="41.38934" lon="41.44629">
        <ele>38.092416</ele>
        <time>2021-11-15T14:31:09.642Z</time>
      </trkpt>
      <trkpt lat="41.38957" lon="41.4472">
        <ele>39.676818</ele>
        <time>2021-11-15T14:31:33.835Z</time>
      </trkpt>
      <trkpt lat="41.38957" lon="41.44759">
        <ele>40.236271</ele>
        <time>2021-11-15T14:31:42.872Z</time>
      </trkpt>
      <trkpt lat="41.38933" lon="41.44833">
        <ele>41.382716</ele>
        <time>2021-11-15T14:31:59.776Z</time>
      </trkpt>
      <trkpt lat="41.389" lon="41.44863">
        <ele>42.004269</ele>
        <time>2021-11-15T14:32:09.830Z</time>
      </trkpt>
      <trkpt lat="41.38886" lon="41.44889">
        <ele>42.069181</ele>
        <time>2021-11-15T14:32:15.551Z</time>
      </trkpt>
      <trkpt lat="41.38871" lon="41.44944">
        <ele>42.183901</ele>
        <time>2021-11-15T14:32:25.269Z</time>
      </trkpt>
      <trkpt lat="41.38864" lon="41.45003">
        <ele>42.304281</ele>
        <time>2021-11-15T14:32:35.448Z</time>
      </trkpt>
      <trkpt lat="41.3887" lon="41.45013">
        <ele>42.329382</ele>
        <time>2021-11-15T14:32:37.738Z</time>
      </trkpt>
      <trkpt lat="41.3893" lon="41.44999">
        <ele>42.496112</ele>
        <time>2021-11-15T14:32:51.862Z</time>
      </trkpt>
      <trkpt lat="41.38964" lon="41.45005">
        <ele>42.598854</ele>
        <time>2021-11-15T14:32:59.589Z</time>
      </trkpt>
      <trkpt lat="41.38981" lon="41.45021">
        <ele>42.6613</ele>
        <time>2021-11-15T14:33:04.372Z</time>
      </trkpt>
      <trkpt lat="41.38985" lon="41.45037">
        <ele>42.699762</ele>
        <time>2021-11-15T14:33:07.252Z</time>
      </trkpt>
      <trkpt lat="41.38985" lon="41.45051">
        <ele>42.732465</ele>
        <time>2021-11-15T14:33:09.776Z</time>
      </trkpt>
      <trkpt lat="41.3898" lon="41.45074">
        <ele>42.785681</ele>
        <time>2021-11-15T14:33:14.116Z</time>
      </trkpt>
      <trkpt lat="41.38954" lon="41.45096">
        <ele>42.877687</ele>
        <time>2021-11-15T14:33:21.283Z</time>
      </trkpt>
      <trkpt lat="41.38919" lon="41.45121">
        <ele>42.999413</ele>
        <time>2021-11-15T14:33:30.959Z</time>
      </trkpt>
      <trkpt lat="41.38913" lon="41.45137">
        <ele>43.030094</ele>
        <time>2021-11-15T14:33:34.012Z</time>
      </trkpt>
      <trkpt lat="41.3891" lon="41.45161">
        <ele>43.072067</ele>
        <time>2021-11-15T14:33:38.532Z</time>
      </trkpt>
      <trkpt lat="41.38917" lon="41.45186">
        <ele>43.116667</ele>
        <time>2021-11-15T14:33:43.151Z</time>
      </trkpt>
      <trkpt lat="41.38915" lon="41.45205">
        <ele>43.150069</ele>
        <time>2021-11-15T14:33:46.705Z</time>
      </trkpt>
      <trkpt lat="41.38896" lon="41.45249">
        <ele>43.237416</ele>
        <time>2021-11-15T14:33:55.204Z</time>
      </trkpt>
      <trkpt lat="41.38891" lon="41.45275">
        <ele>43.282637</ele>
        <time>2021-11-15T14:33:59.682Z</time>
      </trkpt>
      <trkpt lat="41.38893" lon="41.45304">
        <ele>43.331915</ele>
        <time>2021-11-15T14:34:04.599Z</time>
      </trkpt>
      <trkpt lat="41.38913" lon="41.45382">
        <ele>43.500112</ele>
        <time>2021-11-15T14:34:18.926Z</time>
      </trkpt>
      <trkpt lat="41.38897" lon="41.4542">
        <ele>43.608154</ele>
        <time>2021-11-15T14:34:26.367Z</time>
      </trkpt>
      <trkpt lat="41.38896" lon="41.45467">
        <ele>43.724788</ele>
        <time>2021-11-15T14:34:34.561Z</time>
      </trkpt>
      <trkpt lat="41.38911" lon="41.45537">
        <ele>43.903614</ele>
        <time>2021-11-15T14:34:47.465Z</time>
      </trkpt>
      <trkpt lat="41.38911" lon="41.45553">
        <ele>43.94223</ele>
        <time>2021-11-15T14:34:50.301Z</time>
      </trkpt>
      <trkpt lat="41.38904" lon="41.45574">
        <ele>43.999202</ele>
        <time>2021-11-15T14:34:54.479Z</time>
      </trkpt>
      <trkpt lat="41.38911" lon="41.45605">
        <ele>44.281226</ele>
        <time>2021-11-15T14:35:00.463Z</time>
      </trkpt>
      <trkpt lat="41.3891" lon="41.45648">
        <ele>44.673069</ele>
        <time>2021-11-15T14:35:08.916Z</time>
      </trkpt>
      <trkpt lat="41.38915" lon="41.4568">
        <ele>44.958159</ele>
        <time>2021-11-15T14:35:15.197Z</time>
      </trkpt>
      <trkpt lat="41.38936" lon="41.45757">
        <ele>45.69652</ele>
        <time>2021-11-15T14:35:32.143Z</time>
      </trkpt>
      <trkpt lat="41.3896" lon="41.45791">
        <ele>46.11689</ele>
        <time>2021-11-15T14:35:42.316Z</time>
      </trkpt>
      <trkpt lat="41.38961" lon="41.45801">
        <ele>46.256205</ele>
        <time>2021-11-15T14:35:44.575Z</time>
      </trkpt>
      <trkpt lat="41.38942" lon="41.45838">
        <ele>46.99702</ele>
        <time>2021-11-15T14:35:54.622Z</time>
      </trkpt>
      <trkpt lat="41.38938" lon="41.45853">
        <ele>47.25716</ele>
        <time>2021-11-15T14:35:58.245Z</time>
      </trkpt>
      <trkpt lat="41.38943" lon="41.45872">
        <ele>47.597233</ele>
        <time>2021-11-15T14:36:03.001Z</time>
      </trkpt>
      <trkpt lat="41.38983" lon="41.45905">
        <ele>48.648881</ele>
        <time>2021-11-15T14:36:18.026Z</time>
      </trkpt>
      <trkpt lat="41.38985" lon="41.45916">
        <ele>48.830064</ele>
        <time>2021-11-15T14:36:20.634Z</time>
      </trkpt>
      <trkpt lat="41.3898" lon="41.4593">
        <ele>49.090493</ele>
        <time>2021-11-15T14:36:24.354Z</time>
      </trkpt>
      <trkpt lat="41.38968" lon="41.45938">
        <ele>49.385613</ele>
        <time>2021-11-15T14:36:28.613Z</time>
      </trkpt>
      <trkpt lat="41.38946" lon="41.45942">
        <ele>49.880256</ele>
        <time>2021-11-15T14:36:35.684Z</time>
      </trkpt>
      <trkpt lat="41.38937" lon="41.45955">
        <ele>50.173025</ele>
        <time>2021-11-15T14:36:39.928Z</time>
      </trkpt>
      <trkpt lat="41.3893" lon="41.45992">
        <ele>50.785504</ele>
        <time>2021-11-15T14:36:49.123Z</time>
      </trkpt>
      <trkpt lat="41.3892" lon="41.46009">
        <ele>51.137531</ele>
        <time>2021-11-15T14:36:54.456Z</time>
      </trkpt>
      <trkpt lat="41.38915" lon="41.46028">
        <ele>51.452588</ele>
        <time>2021-11-15T14:36:59.067Z</time>
      </trkpt>
      <trkpt lat="41.38926" lon="41.46055">
        <ele>51.944823</ele>
        <time>2021-11-15T14:37:06.438Z</time>
      </trkpt>
      <trkpt lat="41.38943" lon="41.46079">
        <ele>52.478569</ele>
        <time>2021-11-15T14:37:14.150Z</time>
      </trkpt>
      <trkpt lat="41.38974" lon="41.46104">
        <ele>53.25403</ele>
        <time>2021-11-15T14:37:25.361Z</time>
      </trkpt>
      <trkpt lat="41.38981" lon="41.46115">
        <ele>53.485513</ele>
        <time>2021-11-15T14:37:28.716Z</time>
      </trkpt>
      <trkpt lat="41.38988" lon="41.46197">
        <ele>54.242699</ele>
        <time>2021-11-15T14:37:46.315Z</time>
      </trkpt>
      <trkpt lat="41.38998" lon="41.46216">
        <ele>54.358175</ele>
        <time>2021-11-15T14:37:50.939Z</time>
      </trkpt>
      <trkpt lat="41.39009" lon="41.46225">
        <ele>54.442664</ele>
        <time>2021-11-15T14:37:54.179Z</time>
      </trkpt>
      <trkpt lat="41.39011" lon="41.46234">
        <ele>54.490406</ele>
        <time>2021-11-15T14:37:56.005Z</time>
      </trkpt>
      <trkpt lat="41.39004" lon="41.46271">
        <ele>54.675973</ele>
        <time>2021-11-15T14:38:02.823Z</time>
      </trkpt>
      <trkpt lat="41.39019" lon="41.46325">
        <ele>54.956121</ele>
        <time>2021-11-15T14:38:12.706Z</time>
      </trkpt>
      <trkpt lat="41.39032" lon="41.46353">
        <ele>55.115419</ele>
        <time>2021-11-15T14:38:18.126Z</time>
      </trkpt>
      <trkpt lat="41.39058" lon="41.46414">
        <ele>55.325569</ele>
        <time>2021-11-15T14:38:29.636Z</time>
      </trkpt>
      <trkpt lat="41.39085" lon="41.4646">
        <ele>55.477008</ele>
        <time>2021-11-15T14:38:39.358Z</time>
      </trkpt>
      <trkpt lat="41.39101" lon="41.46474">
        <ele>55.545137</ele>
        <time>2021-11-15T14:38:43.877Z</time>
      </trkpt>
      <trkpt lat="41.39124" lon="41.46556">
        <ele>55.773966</ele>
        <time>2021-11-15T14:38:59.830Z</time>
      </trkpt>
      <trkpt lat="41.39123" lon="41.46605">
        <ele>56.23018</ele>
        <time>2021-11-15T14:39:09.874Z</time>
      </trkpt>
      <trkpt lat="41.39128" lon="41.46637">
        <ele>56.575909</ele>
        <time>2021-11-15T14:39:16.885Z</time>
      </trkpt>
      <trkpt lat="41.39122" lon="41.46668">
        <ele>56.9258</ele>
        <time>2021-11-15T14:39:24.053Z</time>
      </trkpt>
      <trkpt lat="41.39122" lon="41.46699">
        <ele>57.256075</ele>
        <time>2021-11-15T14:39:30.818Z</time>
      </trkpt>
      <trkpt lat="41.39094" lon="41.46768">
        <ele>58.093095</ele>
        <time>2021-11-15T14:39:47.674Z</time>
      </trkpt>
      <trkpt lat="41.39088" lon="41.46868">
        <ele>59.6541</ele>
        <time>2021-11-15T14:40:08.064Z</time>
      </trkpt>
      <trkpt lat="41.39066" lon="41.46923">
        <ele>60.719208</ele>
        <time>2021-11-15T14:40:19.881Z</time>
      </trkpt>
      <trkpt lat="41.3906" lon="41.46949">
        <ele>61.175673</ele>
        <time>2021-11-15T14:40:25.195Z</time>
      </trkpt>
      <trkpt lat="41.39061" lon="41.46991">
        <ele>61.903783</ele>
        <time>2021-11-15T14:40:36.205Z</time>
      </trkpt>
      <trkpt lat="41.39065" lon="41.47086">
        <ele>65.602143</ele>
        <time>2021-11-15T14:41:07.636Z</time>
      </trkpt>
      <trkpt lat="41.39062" lon="41.4711">
        <ele>66.808822</ele>
        <time>2021-11-15T14:41:17.281Z</time>
      </trkpt>
      <trkpt lat="41.39049" lon="41.47106">
        <ele>67.751395</ele>
        <time>2021-11-15T14:41:22.747Z</time>
      </trkpt>
      <trkpt lat="41.39019" lon="41.47096">
        <ele>69.822305</ele>
        <time>2021-11-15T14:41:38.585Z</time>
      </trkpt>
      <trkpt lat="41.3901" lon="41.47094">
        <ele>70.411861</ele>
        <time>2021-11-15T14:41:42.801Z</time>
      </trkpt>
      <trkpt lat="41.39007" lon="41.47114">
        <ele>71.454817</ele>
        <time>2021-11-15T14:41:52.389Z</time>
      </trkpt>
      <trkpt lat="41.38983" lon="41.47233">
        <ele>77.728638</ele>
        <time>2021-11-15T14:42:42.034Z</time>
      </trkpt>
      <trkpt lat="41.38973" lon="41.47313">
        <ele>81.944176</ele>
        <time>2021-11-15T14:43:16.376Z</time>
      </trkpt>
      <trkpt lat="41.3899" lon="41.47456">
        <ele>88.750784</ele>
        <time>2021-11-15T14:44:02.302Z</time>
      </trkpt>
      <trkpt lat="41.38992" lon="41.47522">
        <ele>91.154977</ele>
        <time>2021-11-15T14:44:22.714Z</time>
      </trkpt>
      <trkpt lat="41.38974" lon="41.476">
        <ele>94.154389</ele>
        <time>2021-11-15T14:44:48.450Z</time>
      </trkpt>
      <trkpt lat="41.38945" lon="41.47692">
        <ele>97.421391</ele>
        <time>2021-11-15T14:45:20.540Z</time>
      </trkpt>
      <trkpt lat="41.38921" lon="41.4786">
        <ele>102.369549</ele>
        <time>2021-11-15T14:46:06.850Z</time>
      </trkpt>
      <trkpt lat="41.3892" lon="41.47886">
        <ele>103.022955</ele>
        <time>2021-11-15T14:46:13.880Z</time>
      </trkpt>
      <trkpt lat="41.38918" lon="41.47913">
        <ele>103.595229</ele>
        <time>2021-11-15T14:46:20.927Z</time>
      </trkpt>
      <trkpt lat="41.38921" lon="41.47953">
        <ele>104.422776</ele>
        <time>2021-11-15T14:46:31.517Z</time>
      </trkpt>
      <trkpt lat="41.38922" lon="41.47968">
        <ele>104.737289</ele>
        <time>2021-11-15T14:46:34.717Z</time>
      </trkpt>
      <trkpt lat="41.38922" lon="41.47972">
        <ele>104.818565</ele>
        <time>2021-11-15T14:46:35.855Z</time>
      </trkpt>
      <trkpt lat="41.38923" lon="41.47988">
        <ele>105.138256</ele>
        <time>2021-11-15T14:46:39.712Z</time>
      </trkpt>
      <trkpt lat="41.38923" lon="41.47992">
        <ele>105.223433</ele>
        <time>2021-11-15T14:46:41.189Z</time>
      </trkpt>
      <trkpt lat="41.38923" lon="41.48014">
        <ele>105.683674</ele>
        <time>2021-11-15T14:46:45.728Z</time>
      </trkpt>
      <trkpt lat="41.38921" lon="41.48052">
        <ele>106.47048</ele>
        <time>2021-11-15T14:46:54.803Z</time>
      </trkpt>
      <trkpt lat="41.38918" lon="41.48075">
        <ele>106.964666</ele>
        <time>2021-11-15T14:47:00.130Z</time>
      </trkpt>
      <trkpt lat="41.38852" lon="41.48496">
        <ele>117.711283</ele>
        <time>2021-11-15T14:48:50.098Z</time>
      </trkpt>
      <trkpt lat="41.38843" lon="41.48563">
        <ele>119.827307</ele>
        <time>2021-11-15T14:49:08.774Z</time>
      </trkpt>
      <trkpt lat="41.38834" lon="41.48609">
        <ele>123.889893</ele>
        <time>2021-11-15T14:49:23.532Z</time>
      </trkpt>
      <trkpt lat="41.38809" lon="41.48718">
        <ele>137.754383</ele>
        <time>2021-11-15T14:50:33.367Z</time>
      </trkpt>
      <trkpt lat="41.3879" lon="41.48774">
        <ele>145.321854</ele>
        <time>2021-11-15T14:51:26.084Z</time>
      </trkpt>
      <trkpt lat="41.38778" lon="41.4881">
        <ele>150.24763</ele>
        <time>2021-11-15T14:52:00.151Z</time>
      </trkpt>
      <trkpt lat="41.3874" lon="41.48892">
        <ele>163.297054</ele>
        <time>2021-11-15T14:53:21.353Z</time>
      </trkpt>
      <trkpt lat="41.38718" lon="41.4893">
        <ele>169.86327</ele>
        <time>2021-11-15T14:54:02.060Z</time>
      </trkpt>
      <trkpt lat="41.38614" lon="41.49125">
        <ele>189.273144</ele>
        <time>2021-11-15T14:56:03.123Z</time>
      </trkpt>
      <trkpt lat="41.38457" lon="41.49446">
        <ele>190.423097</ele>
        <time>2021-11-15T14:56:58.148Z</time>
      </trkpt>
      <trkpt lat="41.38389" lon="41.49666">
        <ele>189.64034</ele>
        <time>2021-11-15T14:57:32.186Z</time>
      </trkpt>
      <trkpt lat="41.38366" lon="41.49784">
        <ele>192.863788</ele>
        <time>2021-11-15T14:57:59.523Z</time>
      </trkpt>
      <trkpt lat="41.38349" lon="41.49907">
        <ele>198.159364</ele>
        <time>2021-11-15T14:58:59.568Z</time>
      </trkpt>
      <trkpt lat="41.38345" lon="41.49968">
        <ele>201.982474</ele>
        <time>2021-11-15T14:59:27.968Z</time>
      </trkpt>
      <trkpt lat="41.38344" lon="41.50008">
        <ele>204.47448</ele>
        <time>2021-11-15T14:59:45.057Z</time>
      </trkpt>
      <trkpt lat="41.38346" lon="41.50041">
        <ele>206.557364</ele>
        <time>2021-11-15T14:59:59.925Z</time>
      </trkpt>
      <trkpt lat="41.38347" lon="41.50087">
        <ele>209.442855</ele>
        <time>2021-11-15T15:00:18.466Z</time>
      </trkpt>
      <trkpt lat="41.38359" lon="41.50213">
        <ele>208.096293</ele>
        <time>2021-11-15T15:00:51.070Z</time>
      </trkpt>
      <trkpt lat="41.38382" lon="41.50349">
        <ele>205.570071</ele>
        <time>2021-11-15T15:01:06.518Z</time>
      </trkpt>
      <trkpt lat="41.38418" lon="41.50497">
        <ele>198.296969</ele>
        <time>2021-11-15T15:01:24.042Z</time>
      </trkpt>
      <trkpt lat="41.38428" lon="41.50547">
        <ele>195.886925</ele>
        <time>2021-11-15T15:01:29.866Z</time>
      </trkpt>
      <trkpt lat="41.38449" lon="41.50644">
        <ele>195.136899</ele>
        <time>2021-11-15T15:01:42.478Z</time>
      </trkpt>
      <trkpt lat="41.38459" lon="41.50696">
        <ele>194.944668</ele>
        <time>2021-11-15T15:01:50.819Z</time>
      </trkpt>
      <trkpt lat="41.38473" lon="41.5077">
        <ele>194.669581</ele>
        <time>2021-11-15T15:02:07.160Z</time>
      </trkpt>
      <trkpt lat="41.38518" lon="41.51095">
        <ele>203.9277</ele>
        <time>2021-11-15T15:03:45.169Z</time>
      </trkpt>
      <trkpt lat="41.38525" lon="41.51213">
        <ele>207.870783</ele>
        <time>2021-11-15T15:04:22.203Z</time>
      </trkpt>
      <trkpt lat="41.38527" lon="41.51336">
        <ele>212.115857</ele>
        <time>2021-11-15T15:05:00.923Z</time>
      </trkpt>
      <trkpt lat="41.38355" lon="41.56533">
        <ele>393.987386</ele>
        <time>2021-11-15T15:32:14.188Z</time>
      </trkpt>
      <trkpt lat="41.38395" lon="41.56797">
        <ele>400.889628</ele>
        <time>2021-11-15T15:33:31.413Z</time>
      </trkpt>
      <trkpt lat="41.38396" lon="41.56858">
        <ele>401.407481</ele>
        <time>2021-11-15T15:33:44.594Z</time>
      </trkpt>
      <trkpt lat="41.38392" lon="41.56894">
        <ele>401.714377</ele>
        <time>2021-11-15T15:33:52.211Z</time>
      </trkpt>
      <trkpt lat="41.38385" lon="41.56937">
        <ele>402.091377</ele>
        <time>2021-11-15T15:34:00.562Z</time>
      </trkpt>
      <trkpt lat="41.38376" lon="41.56977">
        <ele>402.45085</ele>
        <time>2021-11-15T15:34:07.560Z</time>
      </trkpt>
      <trkpt lat="41.3836" lon="41.57026">
        <ele>402.55415</ele>
        <time>2021-11-15T15:34:15.449Z</time>
      </trkpt>
      <trkpt lat="41.38331" lon="41.57117">
        <ele>402.22406</ele>
        <time>2021-11-15T15:34:29.142Z</time>
      </trkpt>
      <trkpt lat="41.38286" lon="41.57161">
        <ele>401.975045</ele>
        <time>2021-11-15T15:34:41.360Z</time>
      </trkpt>
      <trkpt lat="41.38256" lon="41.57191">
        <ele>401.667678</ele>
        <time>2021-11-15T15:34:50.169Z</time>
      </trkpt>
      <trkpt lat="41.38221" lon="41.5725">
        <ele>400.568061</ele>
        <time>2021-11-15T15:35:04.814Z</time>
      </trkpt>
      <trkpt lat="41.38209" lon="41.57285">
        <ele>400.010036</ele>
        <time>2021-11-15T15:35:11.387Z</time>
      </trkpt>
      <trkpt lat="41.38201" lon="41.57341">
        <ele>399.179272</ele>
        <time>2021-11-15T15:35:18.570Z</time>
      </trkpt>
      <trkpt lat="41.38205" lon="41.57391">
        <ele>398.439233</ele>
        <time>2021-11-15T15:35:24.224Z</time>
      </trkpt>
      <trkpt lat="41.38217" lon="41.57419">
        <ele>396.802468</ele>
        <time>2021-11-15T15:35:27.893Z</time>
      </trkpt>
      <trkpt lat="41.38232" lon="41.57456">
        <ele>394.345097</ele>
        <time>2021-11-15T15:35:32.327Z</time>
      </trkpt>
      <trkpt lat="41.38244" lon="41.57487">
        <ele>392.291595</ele>
        <time>2021-11-15T15:35:35.905Z</time>
      </trkpt>
      <trkpt lat="41.38258" lon="41.57536">
        <ele>389.223527</ele>
        <time>2021-11-15T15:35:41.383Z</time>
      </trkpt>
      <trkpt lat="41.3826" lon="41.57569">
        <ele>387.290276</ele>
        <time>2021-11-15T15:35:44.728Z</time>
      </trkpt>
      <trkpt lat="41.3825" lon="41.57607">
        <ele>384.904581</ele>
        <time>2021-11-15T15:35:48.946Z</time>
      </trkpt>
      <trkpt lat="41.38232" lon="41.57644">
        <ele>383.196023</ele>
        <time>2021-11-15T15:35:53.426Z</time>
      </trkpt>
      <trkpt lat="41.38124" lon="41.57783">
        <ele>376.716663</ele>
        <time>2021-11-15T15:36:17.493Z</time>
      </trkpt>
      <trkpt lat="41.3809" lon="41.57839">
        <ele>374.089562</ele>
        <time>2021-11-15T15:36:31.221Z</time>
      </trkpt>
      <trkpt lat="41.38063" lon="41.57913">
        <ele>371.092113</ele>
        <time>2021-11-15T15:36:41.048Z</time>
      </trkpt>
      <trkpt lat="41.38058" lon="41.57954">
        <ele>369.567606</ele>
        <time>2021-11-15T15:36:45.527Z</time>
      </trkpt>
      <trkpt lat="41.38059" lon="41.57987">
        <ele>368.350428</ele>
        <time>2021-11-15T15:36:48.951Z</time>
      </trkpt>
      <trkpt lat="41.38056" lon="41.58036">
        <ele>364.962941</ele>
        <time>2021-11-15T15:36:53.872Z</time>
      </trkpt>
      <trkpt lat="41.38054" lon="41.58102">
        <ele>359.108155</ele>
        <time>2021-11-15T15:37:00.561Z</time>
      </trkpt>
      <trkpt lat="41.38047" lon="41.58156">
        <ele>354.294007</ele>
        <time>2021-11-15T15:37:05.964Z</time>
      </trkpt>
      <trkpt lat="41.38041" lon="41.58205">
        <ele>349.923285</ele>
        <time>2021-11-15T15:37:10.801Z</time>
      </trkpt>
      <trkpt lat="41.38041" lon="41.5824">
        <ele>346.853039</ele>
        <time>2021-11-15T15:37:14.254Z</time>
      </trkpt>
      <trkpt lat="41.38049" lon="41.58291">
        <ele>344.290011</ele>
        <time>2021-11-15T15:37:19.570Z</time>
      </trkpt>
      <trkpt lat="41.38089" lon="41.58403">
        <ele>338.460964</ele>
        <time>2021-11-15T15:37:33.356Z</time>
      </trkpt>
      <trkpt lat="41.38102" lon="41.58464">
        <ele>335.456649</ele>
        <time>2021-11-15T15:37:41.444Z</time>
      </trkpt>
      <trkpt lat="41.38102" lon="41.58523">
        <ele>334.756595</ele>
        <time>2021-11-15T15:37:48.982Z</time>
      </trkpt>
      <trkpt lat="41.38068" lon="41.58714">
        <ele>332.647</ele>
        <time>2021-11-15T15:38:17.071Z</time>
      </trkpt>
      <trkpt lat="41.38067" lon="41.58777">
        <ele>331.762537</ele>
        <time>2021-11-15T15:38:28.812Z</time>
      </trkpt>
      <trkpt lat="41.3807" lon="41.58829">
        <ele>331.028365</ele>
        <time>2021-11-15T15:38:36.026Z</time>
      </trkpt>
      <trkpt lat="41.381" lon="41.58955">
        <ele>329.047886</ele>
        <time>2021-11-15T15:38:52.202Z</time>
      </trkpt>
      <trkpt lat="41.38124" lon="41.59005">
        <ele>327.852594</ele>
        <time>2021-11-15T15:38:59.277Z</time>
      </trkpt>
      <trkpt lat="41.38131" lon="41.5905">
        <ele>326.921743</ele>
        <time>2021-11-15T15:39:05.075Z</time>
      </trkpt>
      <trkpt lat="41.38137" lon="41.591">
        <ele>325.918532</ele>
        <time>2021-11-15T15:39:11.321Z</time>
      </trkpt>
      <trkpt lat="41.38125" lon="41.59146">
        <ele>324.94655</ele>
        <time>2021-11-15T15:39:17.411Z</time>
      </trkpt>
      <trkpt lat="41.38102" lon="41.59179">
        <ele>324.698011</ele>
        <time>2021-11-15T15:39:23.329Z</time>
      </trkpt>
      <trkpt lat="41.38023" lon="41.59264">
        <ele>324.879662</ele>
        <time>2021-11-15T15:39:52.441Z</time>
      </trkpt>
      <trkpt lat="41.38004" lon="41.593">
        <ele>324.939012</ele>
        <time>2021-11-15T15:40:01.328Z</time>
      </trkpt>
      <trkpt lat="41.37997" lon="41.59329">
        <ele>324.947028</ele>
        <time>2021-11-15T15:40:06.241Z</time>
      </trkpt>
      <trkpt lat="41.37997" lon="41.59357">
        <ele>323.943846</ele>
        <time>2021-11-15T15:40:10.395Z</time>
      </trkpt>
      <trkpt lat="41.38013" lon="41.59407">
        <ele>322.0145</ele>
        <time>2021-11-15T15:40:17.216Z</time>
      </trkpt>
      <trkpt lat="41.38029" lon="41.59429">
        <ele>320.890539</ele>
        <time>2021-11-15T15:40:20.878Z</time>
      </trkpt>
      <trkpt lat="41.38129" lon="41.59502">
        <ele>315.125839</ele>
        <time>2021-11-15T15:40:36.993Z</time>
      </trkpt>
      <trkpt lat="41.3814" lon="41.59517">
        <ele>314.023376</ele>
        <time>2021-11-15T15:40:39.271Z</time>
      </trkpt>
      <trkpt lat="41.38148" lon="41.59531">
        <ele>313.132865</ele>
        <time>2021-11-15T15:40:41.112Z</time>
      </trkpt>
      <trkpt lat="41.38149" lon="41.59566">
        <ele>311.345093</ele>
        <time>2021-11-15T15:40:44.802Z</time>
      </trkpt>
      <trkpt lat="41.38142" lon="41.59596">
        <ele>309.796136</ele>
        <time>2021-11-15T15:40:48.040Z</time>
      </trkpt>
      <trkpt lat="41.38126" lon="41.5963">
        <ele>307.752355</ele>
        <time>2021-11-15T15:40:52.388Z</time>
      </trkpt>
      <trkpt lat="41.38075" lon="41.59721">
        <ele>302.72304</ele>
        <time>2021-11-15T15:41:05.269Z</time>
      </trkpt>
      <trkpt lat="41.38067" lon="41.59751">
        <ele>301.639562</ele>
        <time>2021-11-15T15:41:08.916Z</time>
      </trkpt>
      <trkpt lat="41.38058" lon="41.59861">
        <ele>297.872199</ele>
        <time>2021-11-15T15:41:21.796Z</time>
      </trkpt>
      <trkpt lat="41.38046" lon="41.59911">
        <ele>296.073725</ele>
        <time>2021-11-15T15:41:27.927Z</time>
      </trkpt>
      <trkpt lat="41.38019" lon="41.59989">
        <ele>293.440576</ele>
        <time>2021-11-15T15:41:37.817Z</time>
      </trkpt>
      <trkpt lat="41.37995" lon="41.6004">
        <ele>291.570047</ele>
        <time>2021-11-15T15:41:44.771Z</time>
      </trkpt>
      <trkpt lat="41.37919" lon="41.60144">
        <ele>288.032249</ele>
        <time>2021-11-15T15:42:02.061Z</time>
      </trkpt>
      <trkpt lat="41.37894" lon="41.602">
        <ele>287.218733</ele>
        <time>2021-11-15T15:42:10.499Z</time>
      </trkpt>
      <trkpt lat="41.37885" lon="41.6024">
        <ele>286.694444</ele>
        <time>2021-11-15T15:42:16.170Z</time>
      </trkpt>
      <trkpt lat="41.37876" lon="41.60337">
        <ele>285.834587</ele>
        <time>2021-11-15T15:42:32.856Z</time>
      </trkpt>
      <trkpt lat="41.37884" lon="41.60414">
        <ele>286.519342</ele>
        <time>2021-11-15T15:42:47.956Z</time>
      </trkpt>
      <trkpt lat="41.37896" lon="41.60446">
        <ele>286.834179</ele>
        <time>2021-11-15T15:42:55.557Z</time>
      </trkpt>
      <trkpt lat="41.37908" lon="41.60479">
        <ele>287.164749</ele>
        <time>2021-11-15T15:43:03.757Z</time>
      </trkpt>
      <trkpt lat="41.37913" lon="41.60488">
        <ele>287.259612</ele>
        <time>2021-11-15T15:43:05.865Z</time>
      </trkpt>
      <trkpt lat="41.37957" lon="41.60559">
        <ele>287.829537</ele>
        <time>2021-11-15T15:43:25.557Z</time>
      </trkpt>
      <trkpt lat="41.37977" lon="41.60593">
        <ele>287.863787</ele>
        <time>2021-11-15T15:43:35.038Z</time>
      </trkpt>
      <trkpt lat="41.37987" lon="41.6063">
        <ele>287.895771</ele>
        <time>2021-11-15T15:43:43.646Z</time>
      </trkpt>
      <trkpt lat="41.37988" lon="41.60799">
        <ele>286.160057</ele>
        <time>2021-11-15T15:44:08.668Z</time>
      </trkpt>
      <trkpt lat="41.37992" lon="41.6084">
        <ele>284.329518</ele>
        <time>2021-11-15T15:44:13.376Z</time>
      </trkpt>
      <trkpt lat="41.37996" lon="41.60869">
        <ele>283.028203</ele>
        <time>2021-11-15T15:44:16.568Z</time>
      </trkpt>
      <trkpt lat="41.38018" lon="41.60925">
        <ele>280.285987</ele>
        <time>2021-11-15T15:44:23.249Z</time>
      </trkpt>
      <trkpt lat="41.38046" lon="41.60981">
        <ele>277.294654</ele>
        <time>2021-11-15T15:44:30.300Z</time>
      </trkpt>
      <trkpt lat="41.38069" lon="41.61024">
        <ele>274.338506</ele>
        <time>2021-11-15T15:44:35.832Z</time>
      </trkpt>
      <trkpt lat="41.38082" lon="41.61068">
        <ele>271.713074</ele>
        <time>2021-11-15T15:44:40.755Z</time>
      </trkpt>
      <trkpt lat="41.38086" lon="41.61093">
        <ele>270.335471</ele>
        <time>2021-11-15T15:44:43.345Z</time>
      </trkpt>
      <trkpt lat="41.38083" lon="41.61122">
        <ele>268.673159</ele>
        <time>2021-11-15T15:44:46.444Z</time>
      </trkpt>
      <trkpt lat="41.38036" lon="41.61277">
        <ele>260.918226</ele>
        <time>2021-11-15T15:45:05.223Z</time>
      </trkpt>
      <trkpt lat="41.38028" lon="41.61317">
        <ele>259.376405</ele>
        <time>2021-11-15T15:45:10.102Z</time>
      </trkpt>
      <trkpt lat="41.38027" lon="41.61354">
        <ele>257.992689</ele>
        <time>2021-11-15T15:45:14.431Z</time>
      </trkpt>
      <trkpt lat="41.38038" lon="41.61419">
        <ele>255.486879</ele>
        <time>2021-11-15T15:45:22.077Z</time>
      </trkpt>
      <trkpt lat="41.38103" lon="41.61594">
        <ele>245.535972</ele>
        <time>2021-11-15T15:45:43.209Z</time>
      </trkpt>
      <trkpt lat="41.38109" lon="41.61653">
        <ele>242.492011</ele>
        <time>2021-11-15T15:45:49.384Z</time>
      </trkpt>
      <trkpt lat="41.38103" lon="41.6168">
        <ele>240.973254</ele>
        <time>2021-11-15T15:45:52.411Z</time>
      </trkpt>
      <trkpt lat="41.38065" lon="41.61746">
        <ele>236.613055</ele>
        <time>2021-11-15T15:46:01.171Z</time>
      </trkpt>
      <trkpt lat="41.37983" lon="41.618">
        <ele>230.168294</ele>
        <time>2021-11-15T15:46:14.313Z</time>
      </trkpt>
      <trkpt lat="41.37943" lon="41.61849">
        <ele>227.585918</ele>
        <time>2021-11-15T15:46:22.364Z</time>
      </trkpt>
      <trkpt lat="41.3789" lon="41.61934">
        <ele>223.674866</ele>
        <time>2021-11-15T15:46:35.217Z</time>
      </trkpt>
      <trkpt lat="41.3787" lon="41.61951">
        <ele>222.550668</ele>
        <time>2021-11-15T15:46:39.033Z</time>
      </trkpt>
      <trkpt lat="41.37825" lon="41.61957">
        <ele>220.950167</ele>
        <time>2021-11-15T15:46:46.253Z</time>
      </trkpt>
      <trkpt lat="41.37742" lon="41.6195">
        <ele>218.683837</ele>
        <time>2021-11-15T15:46:59.964Z</time>
      </trkpt>
      <trkpt lat="41.37718" lon="41.61958">
        <ele>217.98132</ele>
        <time>2021-11-15T15:47:04.348Z</time>
      </trkpt>
      <trkpt lat="41.3769" lon="41.61984">
        <ele>217.058258</ele>
        <time>2021-11-15T15:47:10.298Z</time>
      </trkpt>
      <trkpt lat="41.37666" lon="41.62044">
        <ele>215.644414</ele>
        <time>2021-11-15T15:47:19.470Z</time>
      </trkpt>
      <trkpt lat="41.37621" lon="41.62234">
        <ele>211.659918</ele>
        <time>2021-11-15T15:47:43.892Z</time>
      </trkpt>
      <trkpt lat="41.376" lon="41.62284">
        <ele>211.159981</ele>
        <time>2021-11-15T15:47:51.099Z</time>
      </trkpt>
      <trkpt lat="41.37581" lon="41.62316">
        <ele>210.805674</ele>
        <time>2021-11-15T15:47:56.613Z</time>
      </trkpt>
      <trkpt lat="41.37575" lon="41.62323">
        <ele>210.720428</ele>
        <time>2021-11-15T15:47:57.790Z</time>
      </trkpt>
      <trkpt lat="41.37547" lon="41.62357">
        <ele>210.283625</ele>
        <time>2021-11-15T15:48:04.886Z</time>
      </trkpt>
      <trkpt lat="41.37449" lon="41.62433">
        <ele>211.721266</ele>
        <time>2021-11-15T15:48:36.656Z</time>
      </trkpt>
      <trkpt lat="41.37423" lon="41.62462">
        <ele>212.807272</ele>
        <time>2021-11-15T15:48:50.122Z</time>
      </trkpt>
      <trkpt lat="41.37406" lon="41.62491">
        <ele>213.700281</ele>
        <time>2021-11-15T15:49:01.733Z</time>
      </trkpt>
      <trkpt lat="41.37403" lon="41.62499">
        <ele>213.908316</ele>
        <time>2021-11-15T15:49:04.658Z</time>
      </trkpt>
      <trkpt lat="41.37394" lon="41.62525">
        <ele>214.616578</ele>
        <time>2021-11-15T15:49:13.392Z</time>
      </trkpt>
      <trkpt lat="41.3738" lon="41.62577">
        <ele>215.550538</ele>
        <time>2021-11-15T15:49:29.683Z</time>
      </trkpt>
      <trkpt lat="41.37374" lon="41.62622">
        <ele>215.612254</ele>
        <time>2021-11-15T15:49:41.634Z</time>
      </trkpt>
      <trkpt lat="41.37377" lon="41.62683">
        <ele>215.69431</ele>
        <time>2021-11-15T15:49:55.224Z</time>
      </trkpt>
      <trkpt lat="41.37396" lon="41.62753">
        <ele>215.79472</ele>
        <time>2021-11-15T15:50:06.152Z</time>
      </trkpt>
      <trkpt lat="41.3745" lon="41.62844">
        <ele>212.339207</ele>
        <time>2021-11-15T15:50:19.417Z</time>
      </trkpt>
      <trkpt lat="41.37464" lon="41.62877">
        <ele>210.5935</ele>
        <time>2021-11-15T15:50:23.490Z</time>
      </trkpt>
      <trkpt lat="41.37473" lon="41.62918">
        <ele>208.648702</ele>
        <time>2021-11-15T15:50:28.004Z</time>
      </trkpt>
      <trkpt lat="41.37466" lon="41.62972">
        <ele>206.158902</ele>
        <time>2021-11-15T15:50:33.784Z</time>
      </trkpt>
      <trkpt lat="41.37442" lon="41.63009">
        <ele>204.246619</ele>
        <time>2021-11-15T15:50:39.135Z</time>
      </trkpt>
      <trkpt lat="41.37399" lon="41.63042">
        <ele>202.358701</ele>
        <time>2021-11-15T15:50:46.369Z</time>
      </trkpt>
      <trkpt lat="41.37358" lon="41.63062">
        <ele>200.674888</ele>
        <time>2021-11-15T15:50:53.145Z</time>
      </trkpt>
      <trkpt lat="41.37258" lon="41.63094">
        <ele>197.930056</ele>
        <time>2021-11-15T15:51:12.108Z</time>
      </trkpt>
      <trkpt lat="41.37134" lon="41.63146">
        <ele>197.920827</ele>
        <time>2021-11-15T15:51:44.238Z</time>
      </trkpt>
      <trkpt lat="41.37077" lon="41.63188">
        <ele>196.960633</ele>
        <time>2021-11-15T15:51:58.555Z</time>
      </trkpt>
      <trkpt lat="41.37051" lon="41.63228">
        <ele>196.147332</ele>
        <time>2021-11-15T15:52:06.259Z</time>
      </trkpt>
      <trkpt lat="41.37045" lon="41.63252">
        <ele>195.747767</ele>
        <time>2021-11-15T15:52:09.710Z</time>
      </trkpt>
      <trkpt lat="41.37041" lon="41.63277">
        <ele>195.369258</ele>
        <time>2021-11-15T15:52:12.999Z</time>
      </trkpt>
      <trkpt lat="41.37051" lon="41.63397">
        <ele>192.419711</ele>
        <time>2021-11-15T15:52:26.943Z</time>
      </trkpt>
      <trkpt lat="41.37047" lon="41.63427">
        <ele>191.259582</ele>
        <time>2021-11-15T15:52:30.338Z</time>
      </trkpt>
      <trkpt lat="41.3704" lon="41.63467">
        <ele>189.684116</ele>
        <time>2021-11-15T15:52:34.944Z</time>
      </trkpt>
      <trkpt lat="41.37011" lon="41.6352">
        <ele>187.183579</ele>
        <time>2021-11-15T15:52:42.198Z</time>
      </trkpt>
      <trkpt lat="41.3698" lon="41.63546">
        <ele>185.330882</ele>
        <time>2021-11-15T15:52:47.661Z</time>
      </trkpt>
      <trkpt lat="41.36946" lon="41.63574">
        <ele>184.173523</ele>
        <time>2021-11-15T15:52:53.790Z</time>
      </trkpt>
      <trkpt lat="41.36926" lon="41.63599">
        <ele>183.462378</ele>
        <time>2021-11-15T15:52:58.179Z</time>
      </trkpt>
      <trkpt lat="41.36917" lon="41.6361">
        <ele>183.149154</ele>
        <time>2021-11-15T15:53:00.040Z</time>
      </trkpt>
      <trkpt lat="41.36869" lon="41.63672">
        <ele>181.434992</ele>
        <time>2021-11-15T15:53:11.594Z</time>
      </trkpt>
      <trkpt lat="41.36859" lon="41.63703">
        <ele>180.797037</ele>
        <time>2021-11-15T15:53:17.491Z</time>
      </trkpt>
      <trkpt lat="41.36857" lon="41.63727">
        <ele>180.467839</ele>
        <time>2021-11-15T15:53:21.343Z</time>
      </trkpt>
      <trkpt lat="41.36861" lon="41.63776">
        <ele>180.602166</ele>
        <time>2021-11-15T15:53:30.047Z</time>
      </trkpt>
      <trkpt lat="41.36913" lon="41.63971">
        <ele>180.835759</ele>
        <time>2021-11-15T15:54:08.693Z</time>
      </trkpt>
      <trkpt lat="41.36919" lon="41.64017">
        <ele>180.300247</ele>
        <time>2021-11-15T15:54:16.150Z</time>
      </trkpt>
      <trkpt lat="41.36914" lon="41.64068">
        <ele>179.719398</ele>
        <time>2021-11-15T15:54:23.633Z</time>
      </trkpt>
      <trkpt lat="41.36803" lon="41.6438">
        <ele>173.320836</ele>
        <time>2021-11-15T15:55:06.800Z</time>
      </trkpt>
      <trkpt lat="41.36784" lon="41.6447">
        <ele>171.177345</ele>
        <time>2021-11-15T15:55:17.989Z</time>
      </trkpt>
      <trkpt lat="41.36776" lon="41.64575">
        <ele>168.738269</ele>
        <time>2021-11-15T15:55:30.889Z</time>
      </trkpt>
      <trkpt lat="41.36776" lon="41.64625">
        <ele>167.572513</ele>
        <time>2021-11-15T15:55:37.187Z</time>
      </trkpt>
      <trkpt lat="41.36782" lon="41.64679">
        <ele>166.767832</ele>
        <time>2021-11-15T15:55:44.107Z</time>
      </trkpt>
      <trkpt lat="41.36834" lon="41.64812">
        <ele>164.629578</ele>
        <time>2021-11-15T15:56:04.014Z</time>
      </trkpt>
      <trkpt lat="41.36864" lon="41.64906">
        <ele>163.541262</ele>
        <time>2021-11-15T15:56:18.645Z</time>
      </trkpt>
      <trkpt lat="41.36866" lon="41.6494">
        <ele>163.247756</ele>
        <time>2021-11-15T15:56:23.666Z</time>
      </trkpt>
      <trkpt lat="41.36861" lon="41.64973">
        <ele>162.963871</ele>
        <time>2021-11-15T15:56:28.584Z</time>
      </trkpt>
      <trkpt lat="41.36851" lon="41.65">
        <ele>162.697946</ele>
        <time>2021-11-15T15:56:33.160Z</time>
      </trkpt>
      <trkpt lat="41.36836" lon="41.65025">
        <ele>162.436888</ele>
        <time>2021-11-15T15:56:37.523Z</time>
      </trkpt>
      <trkpt lat="41.36778" lon="41.65093">
        <ele>161.327436</ele>
        <time>2021-11-15T15:56:52.117Z</time>
      </trkpt>
      <trkpt lat="41.3677" lon="41.65112">
        <ele>161.051644</ele>
        <time>2021-11-15T15:56:55.225Z</time>
      </trkpt>
      <trkpt lat="41.36768" lon="41.65142">
        <ele>160.684173</ele>
        <time>2021-11-15T15:56:59.334Z</time>
      </trkpt>
      <trkpt lat="41.36779" lon="41.65167">
        <ele>160.318946</ele>
        <time>2021-11-15T15:57:03.371Z</time>
      </trkpt>
      <trkpt lat="41.36797" lon="41.65185">
        <ele>159.943395</ele>
        <time>2021-11-15T15:57:07.289Z</time>
      </trkpt>
      <trkpt lat="41.36916" lon="41.65214">
        <ele>158.227016</ele>
        <time>2021-11-15T15:57:28.199Z</time>
      </trkpt>
      <trkpt lat="41.3694" lon="41.65227">
        <ele>157.906402</ele>
        <time>2021-11-15T15:57:32.978Z</time>
      </trkpt>
      <trkpt lat="41.3696" lon="41.65247">
        <ele>157.600124</ele>
        <time>2021-11-15T15:57:37.795Z</time>
      </trkpt>
      <trkpt lat="41.36978" lon="41.65274">
        <ele>157.272646</ele>
        <time>2021-11-15T15:57:43.259Z</time>
      </trkpt>
      <trkpt lat="41.3704" lon="41.65419">
        <ele>157.667225</ele>
        <time>2021-11-15T15:58:11.881Z</time>
      </trkpt>
      <trkpt lat="41.37056" lon="41.6547">
        <ele>158.050725</ele>
        <time>2021-11-15T15:58:23.839Z</time>
      </trkpt>
      <trkpt lat="41.37057" lon="41.65496">
        <ele>158.225733</ele>
        <time>2021-11-15T15:58:29.382Z</time>
      </trkpt>
      <trkpt lat="41.37054" lon="41.65518">
        <ele>158.385757</ele>
        <time>2021-11-15T15:58:34.899Z</time>
      </trkpt>
      <trkpt lat="41.37045" lon="41.65538">
        <ele>158.514053</ele>
        <time>2021-11-15T15:58:39.846Z</time>
      </trkpt>
      <trkpt lat="41.3703" lon="41.65557">
        <ele>158.606983</ele>
        <time>2021-11-15T15:58:46.667Z</time>
      </trkpt>
      <trkpt lat="41.37008" lon="41.65571">
        <ele>158.709372</ele>
        <time>2021-11-15T15:58:53.353Z</time>
      </trkpt>
      <trkpt lat="41.36978" lon="41.65575">
        <ele>158.841471</ele>
        <time>2021-11-15T15:59:01.524Z</time>
      </trkpt>
      <trkpt lat="41.36903" lon="41.65537">
        <ele>159.187081</ele>
        <time>2021-11-15T15:59:18.575Z</time>
      </trkpt>
      <trkpt lat="41.36886" lon="41.65534">
        <ele>159.261736</ele>
        <time>2021-11-15T15:59:22.113Z</time>
      </trkpt>
      <trkpt lat="41.36873" lon="41.65535">
        <ele>158.841975</ele>
        <time>2021-11-15T15:59:24.626Z</time>
      </trkpt>
      <trkpt lat="41.36861" lon="41.65545">
        <ele>158.358463</ele>
        <time>2021-11-15T15:59:27.359Z</time>
      </trkpt>
      <trkpt lat="41.36853" lon="41.65561">
        <ele>157.828334</ele>
        <time>2021-11-15T15:59:30.163Z</time>
      </trkpt>
      <trkpt lat="41.36843" lon="41.65603">
        <ele>156.652103</ele>
        <time>2021-11-15T15:59:35.970Z</time>
      </trkpt>
      <trkpt lat="41.3683" lon="41.65724">
        <ele>153.406947</ele>
        <time>2021-11-15T15:59:49.929Z</time>
      </trkpt>
      <trkpt lat="41.36814" lon="41.6577">
        <ele>151.324622</ele>
        <time>2021-11-15T15:59:55.487Z</time>
      </trkpt>
      <trkpt lat="41.36796" lon="41.658">
        <ele>149.445848</ele>
        <time>2021-11-15T15:59:59.591Z</time>
      </trkpt>
      <trkpt lat="41.36746" lon="41.65853">
        <ele>145.215584</ele>
        <time>2021-11-15T16:00:08.819Z</time>
      </trkpt>
      <trkpt lat="41.36726" lon="41.65886">
        <ele>143.08555</ele>
        <time>2021-11-15T16:00:13.417Z</time>
      </trkpt>
      <trkpt lat="41.36715" lon="41.65915">
        <ele>141.494719</ele>
        <time>2021-11-15T16:00:16.835Z</time>
      </trkpt>
      <trkpt lat="41.36704" lon="41.66003">
        <ele>137.642824</ele>
        <time>2021-11-15T16:00:26.436Z</time>
      </trkpt>
      <trkpt lat="41.36696" lon="41.6603">
        <ele>136.444509</ele>
        <time>2021-11-15T16:00:29.570Z</time>
      </trkpt>
      <trkpt lat="41.36688" lon="41.66051">
        <ele>135.448482</ele>
        <time>2021-11-15T16:00:32.179Z</time>
      </trkpt>
      <trkpt lat="41.36642" lon="41.66123">
        <ele>131.470684</ele>
        <time>2021-11-15T16:00:43.002Z</time>
      </trkpt>
      <trkpt lat="41.36627" lon="41.66159">
        <ele>130.511633</ele>
        <time>2021-11-15T16:00:47.858Z</time>
      </trkpt>
      <trkpt lat="41.36623" lon="41.66188">
        <ele>130.091121</ele>
        <time>2021-11-15T16:00:51.489Z</time>
      </trkpt>
      <trkpt lat="41.36629" lon="41.66237">
        <ele>129.410543</ele>
        <time>2021-11-15T16:00:57.657Z</time>
      </trkpt>
      <trkpt lat="41.36656" lon="41.66386">
        <ele>127.621811</ele>
        <time>2021-11-15T16:01:20.642Z</time>
      </trkpt>
      <trkpt lat="41.36656" lon="41.66426">
        <ele>127.783403</ele>
        <time>2021-11-15T16:01:27.461Z</time>
      </trkpt>
      <trkpt lat="41.36647" lon="41.66456">
        <ele>127.915086</ele>
        <time>2021-11-15T16:01:33.324Z</time>
      </trkpt>
      <trkpt lat="41.36632" lon="41.66482">
        <ele>128.050239</ele>
        <time>2021-11-15T16:01:39.503Z</time>
      </trkpt>
      <trkpt lat="41.36606" lon="41.66506">
        <ele>128.219186</ele>
        <time>2021-11-15T16:01:47.314Z</time>
      </trkpt>
      <trkpt lat="41.36532" lon="41.66546">
        <ele>128.975077</ele>
        <time>2021-11-15T16:02:08.702Z</time>
      </trkpt>
      <trkpt lat="41.36433" lon="41.66579">
        <ele>130.811153</ele>
        <time>2021-11-15T16:02:39.060Z</time>
      </trkpt>
      <trkpt lat="41.36391" lon="41.66603">
        <ele>131.62535</ele>
        <time>2021-11-15T16:02:52.961Z</time>
      </trkpt>
      <trkpt lat="41.36361" lon="41.66637">
        <ele>132.044093</ele>
        <time>2021-11-15T16:03:05.693Z</time>
      </trkpt>
      <trkpt lat="41.36342" lon="41.66676">
        <ele>132.350356</ele>
        <time>2021-11-15T16:03:16.164Z</time>
      </trkpt>
      <trkpt lat="41.36338" lon="41.66708">
        <ele>132.560385</ele>
        <time>2021-11-15T16:03:22.841Z</time>
      </trkpt>
      <trkpt lat="41.36354" lon="41.66774">
        <ele>133.018531</ele>
        <time>2021-11-15T16:03:36.606Z</time>
      </trkpt>
      <trkpt lat="41.36379" lon="41.66805">
        <ele>133.318279</ele>
        <time>2021-11-15T16:03:43.563Z</time>
      </trkpt>
      <trkpt lat="41.36477" lon="41.66864">
        <ele>131.223994</ele>
        <time>2021-11-15T16:04:01.806Z</time>
      </trkpt>
      <trkpt lat="41.36495" lon="41.66887">
        <ele>130.722392</ele>
        <time>2021-11-15T16:04:06.006Z</time>
      </trkpt>
      <trkpt lat="41.3651" lon="41.6692">
        <ele>130.142685</ele>
        <time>2021-11-15T16:04:10.976Z</time>
      </trkpt>
      <trkpt lat="41.36524" lon="41.66977">
        <ele>129.491054</ele>
        <time>2021-11-15T16:04:18.904Z</time>
      </trkpt>
      <trkpt lat="41.36525" lon="41.67045">
        <ele>128.981716</ele>
        <time>2021-11-15T16:04:28.812Z</time>
      </trkpt>
      <trkpt lat="41.3655" lon="41.67271">
        <ele>125.482948</ele>
        <time>2021-11-15T16:05:03.718Z</time>
      </trkpt>
      <trkpt lat="41.36555" lon="41.67327">
        <ele>123.956555</ele>
        <time>2021-11-15T16:05:10.293Z</time>
      </trkpt>
      <trkpt lat="41.36551" lon="41.67371">
        <ele>122.72301</ele>
        <time>2021-11-15T16:05:15.253Z</time>
      </trkpt>
      <trkpt lat="41.36534" lon="41.67409">
        <ele>121.529057</ele>
        <time>2021-11-15T16:05:19.986Z</time>
      </trkpt>
      <trkpt lat="41.36508" lon="41.67449">
        <ele>119.499052</ele>
        <time>2021-11-15T16:05:25.770Z</time>
      </trkpt>
      <trkpt lat="41.36482" lon="41.67485">
        <ele>117.508118</ele>
        <time>2021-11-15T16:05:31.182Z</time>
      </trkpt>
      <trkpt lat="41.36466" lon="41.67502">
        <ele>116.449548</ele>
        <time>2021-11-15T16:05:34.034Z</time>
      </trkpt>
      <trkpt lat="41.36462" lon="41.67506">
        <ele>116.188193</ele>
        <time>2021-11-15T16:05:34.720Z</time>
      </trkpt>
      <trkpt lat="41.36453" lon="41.67513">
        <ele>115.622322</ele>
        <time>2021-11-15T16:05:36.307Z</time>
      </trkpt>
      <trkpt lat="41.36413" lon="41.67512">
        <ele>113.565175</ele>
        <time>2021-11-15T16:05:42.127Z</time>
      </trkpt>
      <trkpt lat="41.36238" lon="41.67446">
        <ele>110.826299</ele>
        <time>2021-11-15T16:06:17.258Z</time>
      </trkpt>
      <trkpt lat="41.36217" lon="41.67439">
        <ele>110.670679</ele>
        <time>2021-11-15T16:06:23.529Z</time>
      </trkpt>
      <trkpt lat="41.36207" lon="41.67435">
        <ele>110.656471</ele>
        <time>2021-11-15T16:06:25.994Z</time>
      </trkpt>
      <trkpt lat="41.36191" lon="41.67429">
        <ele>110.847144</ele>
        <time>2021-11-15T16:06:31.103Z</time>
      </trkpt>
      <trkpt lat="41.36162" lon="41.67427">
        <ele>111.187225</ele>
        <time>2021-11-15T16:06:39.407Z</time>
      </trkpt>
      <trkpt lat="41.36143" lon="41.67432">
        <ele>111.400188</ele>
        <time>2021-11-15T16:06:44.703Z</time>
      </trkpt>
      <trkpt lat="41.36096" lon="41.67466">
        <ele>112.019352</ele>
        <time>2021-11-15T16:07:00.265Z</time>
      </trkpt>
      <trkpt lat="41.35953" lon="41.67619">
        <ele>113.153903</ele>
        <time>2021-11-15T16:07:46.299Z</time>
      </trkpt>
      <trkpt lat="41.35926" lon="41.67638">
        <ele>113.269432</ele>
        <time>2021-11-15T16:07:52.894Z</time>
      </trkpt>
      <trkpt lat="41.35903" lon="41.67646">
        <ele>113.356332</ele>
        <time>2021-11-15T16:07:57.853Z</time>
      </trkpt>
      <trkpt lat="41.35892" lon="41.6765">
        <ele>113.234938</ele>
        <time>2021-11-15T16:08:00.406Z</time>
      </trkpt>
      <trkpt lat="41.35865" lon="41.67652">
        <ele>112.936984</ele>
        <time>2021-11-15T16:08:06.066Z</time>
      </trkpt>
      <trkpt lat="41.35769" lon="41.6763">
        <ele>111.856332</ele>
        <time>2021-11-15T16:08:23.692Z</time>
      </trkpt>
      <trkpt lat="41.35728" lon="41.67636">
        <ele>111.399596</ele>
        <time>2021-11-15T16:08:31.177Z</time>
      </trkpt>
      <trkpt lat="41.35704" lon="41.67643">
        <ele>111.562065</ele>
        <time>2021-11-15T16:08:35.727Z</time>
      </trkpt>
      <trkpt lat="41.35675" lon="41.67661">
        <ele>111.862127</ele>
        <time>2021-11-15T16:08:42.735Z</time>
      </trkpt>
      <trkpt lat="41.35632" lon="41.67683">
        <ele>112.292963</ele>
        <time>2021-11-15T16:08:55.628Z</time>
      </trkpt>
      <trkpt lat="41.35565" lon="41.67717">
        <ele>112.96902</ele>
        <time>2021-11-15T16:09:16.748Z</time>
      </trkpt>
      <trkpt lat="41.35541" lon="41.67726">
        <ele>113.258946</ele>
        <time>2021-11-15T16:09:24.187Z</time>
      </trkpt>
      <trkpt lat="41.3551" lon="41.6773">
        <ele>113.673624</ele>
        <time>2021-11-15T16:09:35.202Z</time>
      </trkpt>
      <trkpt lat="41.35486" lon="41.67726">
        <ele>113.985811</ele>
        <time>2021-11-15T16:09:43.084Z</time>
      </trkpt>
      <trkpt lat="41.35463" lon="41.67721">
        <ele>114.285131</ele>
        <time>2021-11-15T16:09:50.137Z</time>
      </trkpt>
      <trkpt lat="41.3538" lon="41.67674">
        <ele>115.238654</ele>
        <time>2021-11-15T16:10:13.998Z</time>
      </trkpt>
      <trkpt lat="41.35319" lon="41.67659">
        <ele>113.568529</ele>
        <time>2021-11-15T16:10:24.382Z</time>
      </trkpt>
      <trkpt lat="41.3529" lon="41.67663">
        <ele>112.804918</ele>
        <time>2021-11-15T16:10:28.903Z</time>
      </trkpt>
      <trkpt lat="41.35266" lon="41.67673">
        <ele>112.109377</ele>
        <time>2021-11-15T16:10:33.005Z</time>
      </trkpt>
      <trkpt lat="41.35244" lon="41.67695">
        <ele>111.389314</ele>
        <time>2021-11-15T16:10:37.246Z</time>
      </trkpt>
      <trkpt lat="41.35227" lon="41.67729">
        <ele>110.557008</ele>
        <time>2021-11-15T16:10:42.228Z</time>
      </trkpt>
      <trkpt lat="41.35207" lon="41.67825">
        <ele>109.929541</ele>
        <time>2021-11-15T16:10:54.606Z</time>
      </trkpt>
      <trkpt lat="41.35205" lon="41.67874">
        <ele>109.617729</ele>
        <time>2021-11-15T16:11:01.302Z</time>
      </trkpt>
      <trkpt lat="41.3522" lon="41.68039">
        <ele>112.154914</ele>
        <time>2021-11-15T16:11:38.028Z</time>
      </trkpt>
      <trkpt lat="41.35237" lon="41.68136">
        <ele>116.260729</ele>
        <time>2021-11-15T16:12:14.206Z</time>
      </trkpt>
      <trkpt lat="41.35252" lon="41.68226">
        <ele>120.658304</ele>
        <time>2021-11-15T16:12:52.606Z</time>
      </trkpt>
      <trkpt lat="41.35255" lon="41.68326">
        <ele>126.857591</ele>
        <time>2021-11-15T16:13:36.320Z</time>
      </trkpt>
      <trkpt lat="41.35261" lon="41.68342">
        <ele>128.002637</ele>
        <time>2021-11-15T16:13:44.598Z</time>
      </trkpt>
      <trkpt lat="41.3528" lon="41.68355">
        <ele>129.742654</ele>
        <time>2021-11-15T16:13:56.980Z</time>
      </trkpt>
      <trkpt lat="41.35308" lon="41.68348">
        <ele>132.133433</ele>
        <time>2021-11-15T16:14:12.875Z</time>
      </trkpt>
      <trkpt lat="41.35316" lon="41.68342">
        <ele>132.904699</ele>
        <time>2021-11-15T16:14:17.804Z</time>
      </trkpt>
      <trkpt lat="41.35327" lon="41.68314">
        <ele>134.653147</ele>
        <time>2021-11-15T16:14:29.564Z</time>
      </trkpt>
      <trkpt lat="41.35311" lon="41.68179">
        <ele>141.244799</ele>
        <time>2021-11-15T16:15:16.091Z</time>
      </trkpt>
      <trkpt lat="41.35313" lon="41.68133">
        <ele>143.448316</ele>
        <time>2021-11-15T16:15:32.745Z</time>
      </trkpt>
      <trkpt lat="41.35319" lon="41.68117">
        <ele>144.312431</ele>
        <time>2021-11-15T16:15:39.155Z</time>
      </trkpt>
      <trkpt lat="41.35341" lon="41.68092">
        <ele>146.209513</ele>
        <time>2021-11-15T16:15:53.544Z</time>
      </trkpt>
      <trkpt lat="41.35353" lon="41.68088">
        <ele>147.027999</ele>
        <time>2021-11-15T16:15:59.726Z</time>
      </trkpt>
      <trkpt lat="41.35376" lon="41.68092">
        <ele>148.544719</ele>
        <time>2021-11-15T16:16:11.168Z</time>
      </trkpt>
      <trkpt lat="41.35399" lon="41.68118">
        <ele>150.535958</ele>
        <time>2021-11-15T16:16:26.395Z</time>
      </trkpt>
      <trkpt lat="41.35407" lon="41.68161">
        <ele>152.732761</ele>
        <time>2021-11-15T16:16:43.217Z</time>
      </trkpt>
      <trkpt lat="41.3534" lon="41.68384">
        <ele>162.880364</ele>
        <time>2021-11-15T16:18:08.053Z</time>
      </trkpt>
      <trkpt lat="41.35276" lon="41.68554">
        <ele>169.65808</ele>
        <time>2021-11-15T16:18:57.765Z</time>
      </trkpt>
      <trkpt lat="41.35272" lon="41.68582">
        <ele>170.637338</ele>
        <time>2021-11-15T16:19:05.190Z</time>
      </trkpt>
      <trkpt lat="41.35282" lon="41.6868">
        <ele>173.964078</ele>
        <time>2021-11-15T16:19:34.883Z</time>
      </trkpt>
      <trkpt lat="41.35243" lon="41.68818">
        <ele>186.082376</ele>
        <time>2021-11-15T16:20:39.904Z</time>
      </trkpt>
      <trkpt lat="41.35213" lon="41.68863">
        <ele>191.278066</ele>
        <time>2021-11-15T16:21:15.610Z</time>
      </trkpt>
      <trkpt lat="41.3521" lon="41.68882">
        <ele>193.011232</ele>
        <time>2021-11-15T16:21:28.541Z</time>
      </trkpt>
      <trkpt lat="41.35212" lon="41.68923">
        <ele>197.089348</ele>
        <time>2021-11-15T16:21:55.868Z</time>
      </trkpt>
      <trkpt lat="41.35225" lon="41.68962">
        <ele>202.50125</ele>
        <time>2021-11-15T16:22:26.153Z</time>
      </trkpt>
      <trkpt lat="41.35228" lon="41.69011">
        <ele>208.611365</ele>
        <time>2021-11-15T16:23:01.127Z</time>
      </trkpt>
      <trkpt lat="41.35224" lon="41.69035">
        <ele>211.603687</ele>
        <time>2021-11-15T16:23:18.264Z</time>
      </trkpt>
      <trkpt lat="41.35215" lon="41.69048">
        <ele>213.85331</ele>
        <time>2021-11-15T16:23:30.554Z</time>
      </trkpt>
      <trkpt lat="41.35177" lon="41.69081">
        <ele>221.401479</ele>
        <time>2021-11-15T16:24:10.858Z</time>
      </trkpt>
      <trkpt lat="41.35158" lon="41.6915">
        <ele>228.371574</ele>
        <time>2021-11-15T16:24:56.397Z</time>
      </trkpt>
      <trkpt lat="41.3514" lon="41.69165">
        <ele>230.493972</ele>
        <time>2021-11-15T16:25:12.227Z</time>
      </trkpt>
      <trkpt lat="41.35072" lon="41.6914">
        <ele>237.63646</ele>
        <time>2021-11-15T16:25:55.797Z</time>
      </trkpt>
      <trkpt lat="41.35032" lon="41.69151">
        <ele>241.861831</ele>
        <time>2021-11-15T16:26:15.941Z</time>
      </trkpt>
      <trkpt lat="41.3501" lon="41.69183">
        <ele>244.213295</ele>
        <time>2021-11-15T16:26:30.269Z</time>
      </trkpt>
      <trkpt lat="41.34948" lon="41.69252">
        <ele>248.228338</ele>
        <time>2021-11-15T16:27:02.253Z</time>
      </trkpt>
      <trkpt lat="41.34926" lon="41.69286">
        <ele>249.919054</ele>
        <time>2021-11-15T16:27:16.002Z</time>
      </trkpt>
      <trkpt lat="41.3491" lon="41.69296">
        <ele>250.812863</ele>
        <time>2021-11-15T16:27:23.686Z</time>
      </trkpt>
      <trkpt lat="41.34883" lon="41.69297">
        <ele>252.147786</ele>
        <time>2021-11-15T16:27:34.540Z</time>
      </trkpt>
      <trkpt lat="41.34822" lon="41.69281">
        <ele>255.87386</ele>
        <time>2021-11-15T16:28:01.824Z</time>
      </trkpt>
      <trkpt lat="41.34794" lon="41.69284">
        <ele>257.58391</ele>
        <time>2021-11-15T16:28:15.754Z</time>
      </trkpt>
      <trkpt lat="41.34771" lon="41.6931">
        <ele>259.376755</ele>
        <time>2021-11-15T16:28:30.530Z</time>
      </trkpt>
      <trkpt lat="41.34723" lon="41.6934">
        <ele>262.555743</ele>
        <time>2021-11-15T16:28:55.792Z</time>
      </trkpt>
      <trkpt lat="41.34688" lon="41.69419">
        <ele>264.005894</ele>
        <time>2021-11-15T16:29:28.472Z</time>
      </trkpt>
      <trkpt lat="41.34652" lon="41.69443">
        <ele>264.590638</ele>
        <time>2021-11-15T16:29:43.815Z</time>
      </trkpt>
      <trkpt lat="41.34609" lon="41.69437">
        <ele>265.230709</ele>
        <time>2021-11-15T16:29:54.038Z</time>
      </trkpt>
      <trkpt lat="41.34583" lon="41.6941">
        <ele>265.713882</ele>
        <time>2021-11-15T16:29:59.326Z</time>
      </trkpt>
      <trkpt lat="41.34548" lon="41.69347">
        <ele>258.703153</ele>
        <time>2021-11-15T16:30:07.498Z</time>
      </trkpt>
      <trkpt lat="41.34527" lon="41.6933">
        <ele>255.506826</ele>
        <time>2021-11-15T16:30:10.770Z</time>
      </trkpt>
      <trkpt lat="41.34501" lon="41.69327">
        <ele>252.099398</ele>
        <time>2021-11-15T16:30:14.188Z</time>
      </trkpt>
      <trkpt lat="41.34458" lon="41.69354">
        <ele>245.925734</ele>
        <time>2021-11-15T16:30:20.306Z</time>
      </trkpt>
      <trkpt lat="41.3443" lon="41.69354">
        <ele>242.127217</ele>
        <time>2021-11-15T16:30:23.953Z</time>
      </trkpt>
      <trkpt lat="41.34335" lon="41.69326">
        <ele>225.376502</ele>
        <time>2021-11-15T16:30:36.258Z</time>
      </trkpt>
      <trkpt lat="41.34309" lon="41.6933">
        <ele>220.8711</ele>
        <time>2021-11-15T16:30:39.583Z</time>
      </trkpt>
      <trkpt lat="41.34284" lon="41.69359">
        <ele>215.179748</ele>
        <time>2021-11-15T16:30:43.832Z</time>
      </trkpt>
      <trkpt lat="41.34256" lon="41.69379">
        <ele>210.918318</ele>
        <time>2021-11-15T16:30:48.059Z</time>
      </trkpt>
      <trkpt lat="41.34247" lon="41.69402">
        <ele>210.108213</ele>
        <time>2021-11-15T16:30:50.703Z</time>
      </trkpt>
      <trkpt lat="41.34264" lon="41.69484">
        <ele>207.49925</ele>
        <time>2021-11-15T16:30:59.872Z</time>
      </trkpt>
      <trkpt lat="41.3426" lon="41.69517">
        <ele>206.476722</ele>
        <time>2021-11-15T16:31:04.052Z</time>
      </trkpt>
      <trkpt lat="41.34251" lon="41.69541">
        <ele>205.662243</ele>
        <time>2021-11-15T16:31:07.862Z</time>
      </trkpt>
      <trkpt lat="41.34219" lon="41.69565">
        <ele>204.141226</ele>
        <time>2021-11-15T16:31:19.279Z</time>
      </trkpt>
      <trkpt lat="41.3421" lon="41.69583">
        <ele>205.3518</ele>
        <time>2021-11-15T16:31:26.160Z</time>
      </trkpt>
      <trkpt lat="41.34203" lon="41.69697">
        <ele>215.401946</ele>
        <time>2021-11-15T16:32:21.147Z</time>
      </trkpt>
      <trkpt lat="41.3424" lon="41.69819">
        <ele>226.210046</ele>
        <time>2021-11-15T16:33:50.231Z</time>
      </trkpt>
      <trkpt lat="41.34247" lon="41.69858">
        <ele>228.426744</ele>
        <time>2021-11-15T16:34:11.716Z</time>
      </trkpt>
      <trkpt lat="41.34245" lon="41.69895">
        <ele>230.421356</ele>
        <time>2021-11-15T16:34:31.495Z</time>
      </trkpt>
      <trkpt lat="41.3423" lon="41.69924">
        <ele>232.439266</ele>
        <time>2021-11-15T16:34:47.458Z</time>
      </trkpt>
      <trkpt lat="41.34205" lon="41.6993">
        <ele>234.276678</ele>
        <time>2021-11-15T16:34:55.325Z</time>
      </trkpt>
      <trkpt lat="41.34118" lon="41.69921">
        <ele>236.296168</ele>
        <time>2021-11-15T16:35:18.689Z</time>
      </trkpt>
      <trkpt lat="41.34099" lon="41.69931">
        <ele>235.103566</ele>
        <time>2021-11-15T16:35:21.555Z</time>
      </trkpt>
      <trkpt lat="41.34078" lon="41.69953">
        <ele>233.591736</ele>
        <time>2021-11-15T16:35:25.139Z</time>
      </trkpt>
      <trkpt lat="41.34038" lon="41.70039">
        <ele>229.267236</ele>
        <time>2021-11-15T16:35:35.714Z</time>
      </trkpt>
      <trkpt lat="41.34023" lon="41.70062">
        <ele>227.976824</ele>
        <time>2021-11-15T16:35:39.053Z</time>
      </trkpt>
      <trkpt lat="41.3395" lon="41.70125">
        <ele>226.812465</ele>
        <time>2021-11-15T16:35:52.902Z</time>
      </trkpt>
      <trkpt lat="41.33938" lon="41.70148">
        <ele>226.536166</ele>
        <time>2021-11-15T16:35:57.235Z</time>
      </trkpt>
      <trkpt lat="41.33935" lon="41.7017">
        <ele>226.312316</ele>
        <time>2021-11-15T16:36:01.341Z</time>
      </trkpt>
      <trkpt lat="41.33936" lon="41.70221">
        <ele>225.80223</ele>
        <time>2021-11-15T16:36:13.485Z</time>
      </trkpt>
      <trkpt lat="41.33933" lon="41.70245">
        <ele>225.619889</ele>
        <time>2021-11-15T16:36:19.922Z</time>
      </trkpt>
      <trkpt lat="41.33916" lon="41.7027">
        <ele>226.409654</ele>
        <time>2021-11-15T16:36:28.921Z</time>
      </trkpt>
      <trkpt lat="41.33902" lon="41.70281">
        <ele>226.915062</ele>
        <time>2021-11-15T16:36:34.732Z</time>
      </trkpt>
      <trkpt lat="41.33781" lon="41.70335">
        <ele>230.849959</ele>
        <time>2021-11-15T16:37:19.013Z</time>
      </trkpt>
      <trkpt lat="41.33752" lon="41.70356">
        <ele>231.807121</ele>
        <time>2021-11-15T16:37:30.854Z</time>
      </trkpt>
      <trkpt lat="41.33727" lon="41.70384">
        <ele>232.734169</ele>
        <time>2021-11-15T16:37:42.671Z</time>
      </trkpt>
      <trkpt lat="41.33707" lon="41.70452">
        <ele>234.272247</ele>
        <time>2021-11-15T16:38:01.639Z</time>
      </trkpt>
      <trkpt lat="41.33697" lon="41.70467">
        <ele>234.694959</ele>
        <time>2021-11-15T16:38:06.686Z</time>
      </trkpt>
      <trkpt lat="41.33683" lon="41.70479">
        <ele>235.177149</ele>
        <time>2021-11-15T16:38:12.044Z</time>
      </trkpt>
      <trkpt lat="41.3366" lon="41.70486">
        <ele>235.834194</ele>
        <time>2021-11-15T16:38:19.241Z</time>
      </trkpt>
      <trkpt lat="41.3362" lon="41.70482">
        <ele>236.869114</ele>
        <time>2021-11-15T16:38:30.884Z</time>
      </trkpt>
      <trkpt lat="41.33574" lon="41.70506">
        <ele>238.094116</ele>
        <time>2021-11-15T16:38:45.683Z</time>
      </trkpt>
      <trkpt lat="41.33497" lon="41.70625">
        <ele>240.821913</ele>
        <time>2021-11-15T16:39:26.103Z</time>
      </trkpt>
      <trkpt lat="41.33476" lon="41.7064">
        <ele>241.123126</ele>
        <time>2021-11-15T16:39:33.636Z</time>
      </trkpt>
      <trkpt lat="41.3345" lon="41.70644">
        <ele>241.468285</ele>
        <time>2021-11-15T16:39:41.569Z</time>
      </trkpt>
      <trkpt lat="41.33405" lon="41.70623">
        <ele>242.067152</ele>
        <time>2021-11-15T16:39:54.380Z</time>
      </trkpt>
      <trkpt lat="41.33381" lon="41.70637">
        <ele>242.403334</ele>
        <time>2021-11-15T16:40:01.287Z</time>
      </trkpt>
      <trkpt lat="41.3336" lon="41.70639">
        <ele>242.669297</ele>
        <time>2021-11-15T16:40:06.346Z</time>
      </trkpt>
      <trkpt lat="41.3329" lon="41.7066">
        <ele>240.776054</ele>
        <time>2021-11-15T16:40:21.878Z</time>
      </trkpt>
      <trkpt lat="41.33228" lon="41.70667">
        <ele>238.211177</ele>
        <time>2021-11-15T16:40:31.835Z</time>
      </trkpt>
      <trkpt lat="41.33199" lon="41.7068">
        <ele>236.95507</ele>
        <time>2021-11-15T16:40:36.149Z</time>
      </trkpt>
      <trkpt lat="41.33157" lon="41.70724">
        <ele>233.650262</ele>
        <time>2021-11-15T16:40:43.718Z</time>
      </trkpt>
      <trkpt lat="41.33125" lon="41.70759">
        <ele>229.61209</ele>
        <time>2021-11-15T16:40:49.400Z</time>
      </trkpt>
      <trkpt lat="41.33099" lon="41.70783">
        <ele>226.557931</ele>
        <time>2021-11-15T16:40:53.598Z</time>
      </trkpt>
      <trkpt lat="41.33067" lon="41.70812">
        <ele>222.733127</ele>
        <time>2021-11-15T16:40:58.904Z</time>
      </trkpt>
      <trkpt lat="41.33046" lon="41.70847">
        <ele>219.478679</ele>
        <time>2021-11-15T16:41:03.374Z</time>
      </trkpt>
      <trkpt lat="41.3302" lon="41.70931">
        <ele>214.58554</ele>
        <time>2021-11-15T16:41:12.572Z</time>
      </trkpt>
      <trkpt lat="41.33015" lon="41.70973">
        <ele>212.574017</ele>
        <time>2021-11-15T16:41:17.098Z</time>
      </trkpt>
      <trkpt lat="41.33014" lon="41.71162">
        <ele>206.576369</ele>
        <time>2021-11-15T16:41:39.704Z</time>
      </trkpt>
      <trkpt lat="41.33006" lon="41.71254">
        <ele>206.722819</ele>
        <time>2021-11-15T16:41:55.756Z</time>
      </trkpt>
      <trkpt lat="41.33008" lon="41.71311">
        <ele>206.812902</ele>
        <time>2021-11-15T16:42:08.844Z</time>
      </trkpt>
      <trkpt lat="41.33015" lon="41.71355">
        <ele>207.352457</ele>
        <time>2021-11-15T16:42:21.306Z</time>
      </trkpt>
      <trkpt lat="41.33043" lon="41.71454">
        <ele>210.537926</ele>
        <time>2021-11-15T16:42:53.509Z</time>
      </trkpt>
      <trkpt lat="41.33045" lon="41.71476">
        <ele>211.212849</ele>
        <time>2021-11-15T16:43:00.237Z</time>
      </trkpt>
      <trkpt lat="41.33039" lon="41.7151">
        <ele>212.269452</ele>
        <time>2021-11-15T16:43:10.244Z</time>
      </trkpt>
      <trkpt lat="41.33019" lon="41.71573">
        <ele>214.354323</ele>
        <time>2021-11-15T16:43:29.738Z</time>
      </trkpt>
      <trkpt lat="41.32992" lon="41.71626">
        <ele>216.552033</ele>
        <time>2021-11-15T16:43:47.862Z</time>
      </trkpt>
      <trkpt lat="41.32952" lon="41.71685">
        <ele>219.338653</ele>
        <time>2021-11-15T16:44:11.352Z</time>
      </trkpt>
      <trkpt lat="41.32895" lon="41.71797">
        <ele>225.032818</ele>
        <time>2021-11-15T16:44:55.239Z</time>
      </trkpt>
      <trkpt lat="41.32886" lon="41.71836">
        <ele>227.308072</ele>
        <time>2021-11-15T16:45:10.702Z</time>
      </trkpt>
      <trkpt lat="41.32884" lon="41.7187">
        <ele>229.228656</ele>
        <time>2021-11-15T16:45:24.616Z</time>
      </trkpt>
      <trkpt lat="41.32898" lon="41.71939">
        <ele>233.253306</ele>
        <time>2021-11-15T16:45:55.133Z</time>
      </trkpt>
      <trkpt lat="41.32898" lon="41.71963">
        <ele>234.597916</ele>
        <time>2021-11-15T16:46:05.543Z</time>
      </trkpt>
      <trkpt lat="41.3289" lon="41.71989">
        <ele>236.171651</ele>
        <time>2021-11-15T16:46:17.728Z</time>
      </trkpt>
      <trkpt lat="41.32878" lon="41.7201">
        <ele>237.501292</ele>
        <time>2021-11-15T16:46:28.728Z</time>
      </trkpt>
      <trkpt lat="41.3286" lon="41.72024">
        <ele>238.952449</ele>
        <time>2021-11-15T16:46:40.484Z</time>
      </trkpt>
      <trkpt lat="41.32783" lon="41.72049">
        <ele>244.451857</ele>
        <time>2021-11-15T16:47:21.014Z</time>
      </trkpt>
      <trkpt lat="41.32692" lon="41.72106">
        <ele>248.528051</ele>
        <time>2021-11-15T16:48:05.295Z</time>
      </trkpt>
      <trkpt lat="41.32616" lon="41.72209">
        <ele>249.110602</ele>
        <time>2021-11-15T16:48:37.307Z</time>
      </trkpt>
      <trkpt lat="41.32562" lon="41.72265">
        <ele>243.984599</ele>
        <time>2021-11-15T16:48:46.838Z</time>
      </trkpt>
      <trkpt lat="41.32465" lon="41.72338">
        <ele>229.979152</ele>
        <time>2021-11-15T16:49:02.060Z</time>
      </trkpt>
      <trkpt lat="41.32434" lon="41.72352">
        <ele>225.874347</ele>
        <time>2021-11-15T16:49:06.306Z</time>
      </trkpt>
      <trkpt lat="41.32402" lon="41.72403">
        <ele>220.242016</ele>
        <time>2021-11-15T16:49:12.666Z</time>
      </trkpt>
      <trkpt lat="41.32382" lon="41.72448">
        <ele>215.770665</ele>
        <time>2021-11-15T16:49:17.821Z</time>
      </trkpt>
      <trkpt lat="41.32369" lon="41.72503">
        <ele>210.911979</ele>
        <time>2021-11-15T16:49:23.682Z</time>
      </trkpt>
      <trkpt lat="41.32375" lon="41.72602">
        <ele>207.583354</ele>
        <time>2021-11-15T16:49:36.459Z</time>
      </trkpt>
      <trkpt lat="41.32367" lon="41.72785">
        <ele>212.84579</ele>
        <time>2021-11-15T16:50:34.969Z</time>
      </trkpt>
      <trkpt lat="41.32369" lon="41.72807">
        <ele>213.804962</ele>
        <time>2021-11-15T16:50:45.860Z</time>
      </trkpt>
      <trkpt lat="41.32395" lon="41.729">
        <ele>219.450279</ele>
        <time>2021-11-15T16:51:33.385Z</time>
      </trkpt>
      <trkpt lat="41.32392" lon="41.72952">
        <ele>222.369713</ele>
        <time>2021-11-15T16:51:54.642Z</time>
      </trkpt>
      <trkpt lat="41.3238" lon="41.7298">
        <ele>224.264939</ele>
        <time>2021-11-15T16:52:07.113Z</time>
      </trkpt>
      <trkpt lat="41.32365" lon="41.72991">
        <ele>225.500211</ele>
        <time>2021-11-15T16:52:14.337Z</time>
      </trkpt>
      <trkpt lat="41.32346" lon="41.72993">
        <ele>226.84761</ele>
        <time>2021-11-15T16:52:22.501Z</time>
      </trkpt>
      <trkpt lat="41.32313" lon="41.73017">
        <ele>227.954651</ele>
        <time>2021-11-15T16:52:36.797Z</time>
      </trkpt>
      <trkpt lat="41.32243" lon="41.73102">
        <ele>230.718899</ele>
        <time>2021-11-15T16:53:02.138Z</time>
      </trkpt>
      <trkpt lat="41.32152" lon="41.73243">
        <ele>239.822732</ele>
        <time>2021-11-15T16:53:55.236Z</time>
      </trkpt>
      <trkpt lat="41.32131" lon="41.73282">
        <ele>242.767907</ele>
        <time>2021-11-15T16:54:18.968Z</time>
      </trkpt>
      <trkpt lat="41.32119" lon="41.73365">
        <ele>248.480817</ele>
        <time>2021-11-15T16:55:09.118Z</time>
      </trkpt>
      <trkpt lat="41.32104" lon="41.73415">
        <ele>253.208048</ele>
        <time>2021-11-15T16:55:42.787Z</time>
      </trkpt>
      <trkpt lat="41.32059" lon="41.73486">
        <ele>261.478679</ele>
        <time>2021-11-15T16:56:39.292Z</time>
      </trkpt>
      <trkpt lat="41.32036" lon="41.73495">
        <ele>264.282953</ele>
        <time>2021-11-15T16:56:54.752Z</time>
      </trkpt>
      <trkpt lat="41.32014" lon="41.73484">
        <ele>267.088691</ele>
        <time>2021-11-15T16:57:07.599Z</time>
      </trkpt>
      <trkpt lat="41.31962" lon="41.73396">
        <ele>267.664811</ele>
        <time>2021-11-15T16:57:33.892Z</time>
      </trkpt>
      <trkpt lat="41.31941" lon="41.73392">
        <ele>267.567707</ele>
        <time>2021-11-15T16:57:37.636Z</time>
      </trkpt>
      <trkpt lat="41.31906" lon="41.73407">
        <ele>267.402039</ele>
        <time>2021-11-15T16:57:43.405Z</time>
      </trkpt>
      <trkpt lat="41.31852" lon="41.73372">
        <ele>267.508287</ele>
        <time>2021-11-15T16:57:52.359Z</time>
      </trkpt>
      <trkpt lat="41.31826" lon="41.73363">
        <ele>268.082094</ele>
        <time>2021-11-15T16:57:56.820Z</time>
      </trkpt>
      <trkpt lat="41.31817" lon="41.73365">
        <ele>268.270019</ele>
        <time>2021-11-15T16:57:58.306Z</time>
      </trkpt>
      <trkpt lat="41.31801" lon="41.73384">
        <ele>268.732917</ele>
        <time>2021-11-15T16:58:02.421Z</time>
      </trkpt>
      <trkpt lat="41.31776" lon="41.73446">
        <ele>269.846576</ele>
        <time>2021-11-15T16:58:18.735Z</time>
      </trkpt>
      <trkpt lat="41.31764" lon="41.73465">
        <ele>270.244992</ele>
        <time>2021-11-15T16:58:27.009Z</time>
      </trkpt>
      <trkpt lat="41.31663" lon="41.73549">
        <ele>279.234225</ele>
        <time>2021-11-15T16:59:41.182Z</time>
      </trkpt>
      <trkpt lat="41.31647" lon="41.7357">
        <ele>281.543203</ele>
        <time>2021-11-15T16:59:57.963Z</time>
      </trkpt>
      <trkpt lat="41.31626" lon="41.73587">
        <ele>283.936611</ele>
        <time>2021-11-15T17:00:15.985Z</time>
      </trkpt>
      <trkpt lat="41.31592" lon="41.73598">
        <ele>287.419448</ele>
        <time>2021-11-15T17:00:39.517Z</time>
      </trkpt>
      <trkpt lat="41.31568" lon="41.73597">
        <ele>289.071722</ele>
        <time>2021-11-15T17:00:53.622Z</time>
      </trkpt>
      <trkpt lat="41.31484" lon="41.73553">
        <ele>290.578176</ele>
        <time>2021-11-15T17:01:29.580Z</time>
      </trkpt>
      <trkpt lat="41.31428" lon="41.73508">
        <ele>291.68116</ele>
        <time>2021-11-15T17:01:41.267Z</time>
      </trkpt>
      <trkpt lat="41.31345" lon="41.73463">
        <ele>286.604975</ele>
        <time>2021-11-15T17:01:54.200Z</time>
      </trkpt>
      <trkpt lat="41.31284" lon="41.73421">
        <ele>281.750392</ele>
        <time>2021-11-15T17:02:03.564Z</time>
      </trkpt>
      <trkpt lat="41.31225" lon="41.73373">
        <ele>277.551466</ele>
        <time>2021-11-15T17:02:13.510Z</time>
      </trkpt>
      <trkpt lat="41.31203" lon="41.73346">
        <ele>276.144051</ele>
        <time>2021-11-15T17:02:17.992Z</time>
      </trkpt>
      <trkpt lat="41.31197" lon="41.73338">
        <ele>275.739065</ele>
        <time>2021-11-15T17:02:19.190Z</time>
      </trkpt>
      <trkpt lat="41.31188" lon="41.73327">
        <ele>275.13434</ele>
        <time>2021-11-15T17:02:21.224Z</time>
      </trkpt>
      <trkpt lat="41.31158" lon="41.73307">
        <ele>273.522299</ele>
        <time>2021-11-15T17:02:26.539Z</time>
      </trkpt>
      <trkpt lat="41.31126" lon="41.73298">
        <ele>271.963652</ele>
        <time>2021-11-15T17:02:31.744Z</time>
      </trkpt>
      <trkpt lat="41.31104" lon="41.73299">
        <ele>270.889235</ele>
        <time>2021-11-15T17:02:35.499Z</time>
      </trkpt>
      <trkpt lat="41.31027" lon="41.73322">
        <ele>266.802218</ele>
        <time>2021-11-15T17:02:48.048Z</time>
      </trkpt>
      <trkpt lat="41.30959" lon="41.73335">
        <ele>263.25247</ele>
        <time>2021-11-15T17:02:58.136Z</time>
      </trkpt>
      <trkpt lat="41.30915" lon="41.73323">
        <ele>261.055904</ele>
        <time>2021-11-15T17:03:04.589Z</time>
      </trkpt>
      <trkpt lat="41.30864" lon="41.73289">
        <ele>260.213124</ele>
        <time>2021-11-15T17:03:12.683Z</time>
      </trkpt>
      <trkpt lat="41.3083" lon="41.73286">
        <ele>259.704293</ele>
        <time>2021-11-15T17:03:18.141Z</time>
      </trkpt>
      <trkpt lat="41.30795" lon="41.73306">
        <ele>259.12519</ele>
        <time>2021-11-15T17:03:25.990Z</time>
      </trkpt>
      <trkpt lat="41.30769" lon="41.73349">
        <ele>258.512457</ele>
        <time>2021-11-15T17:03:40.268Z</time>
      </trkpt>
      <trkpt lat="41.30684" lon="41.73603">
        <ele>272.207934</ele>
        <time>2021-11-15T17:05:42.027Z</time>
      </trkpt>
      <trkpt lat="41.30625" lon="41.73694">
        <ele>271.978196</ele>
        <time>2021-11-15T17:06:07.193Z</time>
      </trkpt>
      <trkpt lat="41.30541" lon="41.73825">
        <ele>267.263455</ele>
        <time>2021-11-15T17:06:26.641Z</time>
      </trkpt>
      <trkpt lat="41.30437" lon="41.73925">
        <ele>258.100977</ele>
        <time>2021-11-15T17:06:45.742Z</time>
      </trkpt>
      <trkpt lat="41.30302" lon="41.7403">
        <ele>246.222859</ele>
        <time>2021-11-15T17:07:08.099Z</time>
      </trkpt>
      <trkpt lat="41.30216" lon="41.74088">
        <ele>237.098816</ele>
        <time>2021-11-15T17:07:21.194Z</time>
      </trkpt>
      <trkpt lat="41.30136" lon="41.74109">
        <ele>229.13135</ele>
        <time>2021-11-15T17:07:32.159Z</time>
      </trkpt>
      <trkpt lat="41.30108" lon="41.74122">
        <ele>226.852558</ele>
        <time>2021-11-15T17:07:36.215Z</time>
      </trkpt>
      <trkpt lat="41.30082" lon="41.74149">
        <ele>224.898209</ele>
        <time>2021-11-15T17:07:40.753Z</time>
      </trkpt>
      <trkpt lat="41.30072" lon="41.74169">
        <ele>223.815834</ele>
        <time>2021-11-15T17:07:43.305Z</time>
      </trkpt>
      <trkpt lat="41.30036" lon="41.74268">
        <ele>218.889858</ele>
        <time>2021-11-15T17:07:55.623Z</time>
      </trkpt>
      <trkpt lat="41.30033" lon="41.74322">
        <ele>217.46106</ele>
        <time>2021-11-15T17:08:02.755Z</time>
      </trkpt>
      <trkpt lat="41.30042" lon="41.74396">
        <ele>219.012936</ele>
        <time>2021-11-15T17:08:17.259Z</time>
      </trkpt>
      <trkpt lat="41.30037" lon="41.74439">
        <ele>219.904356</ele>
        <time>2021-11-15T17:08:28.345Z</time>
      </trkpt>
      <trkpt lat="41.30009" lon="41.74488">
        <ele>221.195247</ele>
        <time>2021-11-15T17:08:47.500Z</time>
      </trkpt>
      <trkpt lat="41.29956" lon="41.74555">
        <ele>225.112064</ele>
        <time>2021-11-15T17:09:22.541Z</time>
      </trkpt>
      <trkpt lat="41.29945" lon="41.74593">
        <ele>227.424269</ele>
        <time>2021-11-15T17:09:38.980Z</time>
      </trkpt>
      <trkpt lat="41.29952" lon="41.74641">
        <ele>230.216631</ele>
        <time>2021-11-15T17:10:00.268Z</time>
      </trkpt>
      <trkpt lat="41.29984" lon="41.74737">
        <ele>236.004668</ele>
        <time>2021-11-15T17:10:43.603Z</time>
      </trkpt>
      <trkpt lat="41.29982" lon="41.74779">
        <ele>237.519993</ele>
        <time>2021-11-15T17:10:59.869Z</time>
      </trkpt>
      <trkpt lat="41.29964" lon="41.74814">
        <ele>239.064917</ele>
        <time>2021-11-15T17:11:15.355Z</time>
      </trkpt>
      <trkpt lat="41.29844" lon="41.74952">
        <ele>245.38023</ele>
        <time>2021-11-15T17:12:11.043Z</time>
      </trkpt>
      <trkpt lat="41.29813" lon="41.75005">
        <ele>246.479143</ele>
        <time>2021-11-15T17:12:24.449Z</time>
      </trkpt>
      <trkpt lat="41.29683" lon="41.75302">
        <ele>252.414499</ele>
        <time>2021-11-15T17:13:43.830Z</time>
      </trkpt>
      <trkpt lat="41.29666" lon="41.75331">
        <ele>253.790522</ele>
        <time>2021-11-15T17:13:53.883Z</time>
      </trkpt>
      <trkpt lat="41.2963" lon="41.75366">
        <ele>256.159208</ele>
        <time>2021-11-15T17:14:11.258Z</time>
      </trkpt>
      <trkpt lat="41.29545" lon="41.75408">
        <ele>260.916809</ele>
        <time>2021-11-15T17:14:51.519Z</time>
      </trkpt>
      <trkpt lat="41.29515" lon="41.75437">
        <ele>263.462808</ele>
        <time>2021-11-15T17:15:10.940Z</time>
      </trkpt>
      <trkpt lat="41.29475" lon="41.75495">
        <ele>268.811893</ele>
        <time>2021-11-15T17:15:46.575Z</time>
      </trkpt>
      <trkpt lat="41.29457" lon="41.75535">
        <ele>271.963248</ele>
        <time>2021-11-15T17:16:08.571Z</time>
      </trkpt>
      <trkpt lat="41.2943" lon="41.75573">
        <ele>275.529638</ele>
        <time>2021-11-15T17:16:33.786Z</time>
      </trkpt>
      <trkpt lat="41.29414" lon="41.75589">
        <ele>277.320634</ele>
        <time>2021-11-15T17:16:46.125Z</time>
      </trkpt>
      <trkpt lat="41.29374" lon="41.75611">
        <ele>279.057815</ele>
        <time>2021-11-15T17:17:10.729Z</time>
      </trkpt>
      <trkpt lat="41.29298" lon="41.75616">
        <ele>281.037934</ele>
        <time>2021-11-15T17:17:43.806Z</time>
      </trkpt>
      <trkpt lat="41.29261" lon="41.75608">
        <ele>282.02317</ele>
        <time>2021-11-15T17:17:52.485Z</time>
      </trkpt>
      <trkpt lat="41.29237" lon="41.75592">
        <ele>282.741207</ele>
        <time>2021-11-15T17:17:56.859Z</time>
      </trkpt>
      <trkpt lat="41.29199" lon="41.7555">
        <ele>277.447365</ele>
        <time>2021-11-15T17:18:03.712Z</time>
      </trkpt>
      <trkpt lat="41.29162" lon="41.75531">
        <ele>272.388049</ele>
        <time>2021-11-15T17:18:09.077Z</time>
      </trkpt>
      <trkpt lat="41.29073" lon="41.75505">
        <ele>261.068239</ele>
        <time>2021-11-15T17:18:20.742Z</time>
      </trkpt>
      <trkpt lat="41.29" lon="41.75516">
        <ele>255.21674</ele>
        <time>2021-11-15T17:18:30.248Z</time>
      </trkpt>
      <trkpt lat="41.28967" lon="41.75507">
        <ele>252.605561</ele>
        <time>2021-11-15T17:18:34.895Z</time>
      </trkpt>
      <trkpt lat="41.28944" lon="41.75513">
        <ele>250.820151</ele>
        <time>2021-11-15T17:18:38.280Z</time>
      </trkpt>
      <trkpt lat="41.28919" lon="41.75541">
        <ele>248.380066</ele>
        <time>2021-11-15T17:18:43.516Z</time>
      </trkpt>
      <trkpt lat="41.28904" lon="41.75573">
        <ele>247.380735</ele>
        <time>2021-11-15T17:18:50.554Z</time>
      </trkpt>
      <trkpt lat="41.28866" lon="41.75767">
        <ele>263.493691</ele>
        <time>2021-11-15T17:20:43.489Z</time>
      </trkpt>
      <trkpt lat="41.28852" lon="41.75803">
        <ele>266.189992</ele>
        <time>2021-11-15T17:21:06.835Z</time>
      </trkpt>
      <trkpt lat="41.28831" lon="41.75829">
        <ele>267.320241</ele>
        <time>2021-11-15T17:21:25.816Z</time>
      </trkpt>
      <trkpt lat="41.28812" lon="41.75842">
        <ele>268.155569</ele>
        <time>2021-11-15T17:21:41.439Z</time>
      </trkpt>
      <trkpt lat="41.28621" lon="41.75938">
        <ele>270.773606</ele>
        <time>2021-11-15T17:22:25.556Z</time>
      </trkpt>
      <trkpt lat="41.28603" lon="41.75945">
        <ele>270.28888</ele>
        <time>2021-11-15T17:22:28.438Z</time>
      </trkpt>
      <trkpt lat="41.28566" lon="41.75963">
        <ele>269.287763</ele>
        <time>2021-11-15T17:22:34.245Z</time>
      </trkpt>
      <trkpt lat="41.28526" lon="41.75965">
        <ele>268.259783</ele>
        <time>2021-11-15T17:22:40.440Z</time>
      </trkpt>
      <trkpt lat="41.28496" lon="41.75962">
        <ele>267.458751</ele>
        <time>2021-11-15T17:22:45.427Z</time>
      </trkpt>
      <trkpt lat="41.28395" lon="41.75923">
        <ele>264.659395</ele>
        <time>2021-11-15T17:23:03.161Z</time>
      </trkpt>
      <trkpt lat="41.28329" lon="41.75922">
        <ele>263.61022</ele>
        <time>2021-11-15T17:23:14.334Z</time>
      </trkpt>
      <trkpt lat="41.28246" lon="41.75937">
        <ele>264.107846</ele>
        <time>2021-11-15T17:23:33.869Z</time>
      </trkpt>
      <trkpt lat="41.28196" lon="41.75961">
        <ele>264.421067</ele>
        <time>2021-11-15T17:23:50.927Z</time>
      </trkpt>
      <trkpt lat="41.28169" lon="41.75984">
        <ele>264.539629</ele>
        <time>2021-11-15T17:24:00.670Z</time>
      </trkpt>
      <trkpt lat="41.28101" lon="41.76033">
        <ele>264.502293</ele>
        <time>2021-11-15T17:24:24.471Z</time>
      </trkpt>
      <trkpt lat="41.27978" lon="41.76104">
        <ele>258.630335</ele>
        <time>2021-11-15T17:24:50.278Z</time>
      </trkpt>
      <trkpt lat="41.27951" lon="41.76124">
        <ele>254.454407</ele>
        <time>2021-11-15T17:24:54.434Z</time>
      </trkpt>
      <trkpt lat="41.27599" lon="41.76197">
        <ele>198.264647</ele>
        <time>2021-11-15T17:25:41.777Z</time>
      </trkpt>
      <trkpt lat="41.27579" lon="41.76197">
        <ele>196.63297</ele>
        <time>2021-11-15T17:25:44.544Z</time>
      </trkpt>
      <trkpt lat="41.2749" lon="41.76206">
        <ele>189.524089</ele>
        <time>2021-11-15T17:26:01.663Z</time>
      </trkpt>
      <trkpt lat="41.27398" lon="41.76233">
        <ele>200.044975</ele>
        <time>2021-11-15T17:27:02.822Z</time>
      </trkpt>
      <trkpt lat="41.27338" lon="41.76264">
        <ele>207.323065</ele>
        <time>2021-11-15T17:27:58.802Z</time>
      </trkpt>
      <trkpt lat="41.27243" lon="41.76323">
        <ele>217.718213</ele>
        <time>2021-11-15T17:29:19.153Z</time>
      </trkpt>
      <trkpt lat="41.27229" lon="41.76327">
        <ele>219.049447</ele>
        <time>2021-11-15T17:29:29.321Z</time>
      </trkpt>
      <trkpt lat="41.27221" lon="41.76335">
        <ele>219.983256</ele>
        <time>2021-11-15T17:29:33.553Z</time>
      </trkpt>
      <trkpt lat="41.27203" lon="41.76346">
        <ele>221.85465</ele>
        <time>2021-11-15T17:29:45.559Z</time>
      </trkpt>
      <trkpt lat="41.27192" lon="41.76359">
        <ele>223.197191</ele>
        <time>2021-11-15T17:29:51.532Z</time>
      </trkpt>
      <trkpt lat="41.27175" lon="41.76382">
        <ele>225.496801</ele>
        <time>2021-11-15T17:30:03.319Z</time>
      </trkpt>
      <trkpt lat="41.27154" lon="41.76443">
        <ele>225.9804</ele>
        <time>2021-11-15T17:30:18.921Z</time>
      </trkpt>
      <trkpt lat="41.27081" lon="41.76736">
        <ele>217.690315</ele>
        <time>2021-11-15T17:30:54.752Z</time>
      </trkpt>
      <trkpt lat="41.27025" lon="41.76854">
        <ele>211.913041</ele>
        <time>2021-11-15T17:31:09.908Z</time>
      </trkpt>
      <trkpt lat="41.26996" lon="41.76892">
        <ele>209.554686</ele>
        <time>2021-11-15T17:31:15.899Z</time>
      </trkpt>
      <trkpt lat="41.26976" lon="41.76915">
        <ele>208.029058</ele>
        <time>2021-11-15T17:31:19.686Z</time>
      </trkpt>
      <trkpt lat="41.26915" lon="41.76993">
        <ele>203.105128</ele>
        <time>2021-11-15T17:31:32.204Z</time>
      </trkpt>
      <trkpt lat="41.26903" lon="41.77">
        <ele>202.322711</ele>
        <time>2021-11-15T17:31:34.167Z</time>
      </trkpt>
      <trkpt lat="41.26866" lon="41.77006">
        <ele>201.786631</ele>
        <time>2021-11-15T17:31:39.636Z</time>
      </trkpt>
      <trkpt lat="41.26803" lon="41.76986">
        <ele>200.906858</ele>
        <time>2021-11-15T17:31:51.005Z</time>
      </trkpt>
      <trkpt lat="41.26778" lon="41.76985">
        <ele>200.575899</ele>
        <time>2021-11-15T17:31:56.244Z</time>
      </trkpt>
      <trkpt lat="41.26661" lon="41.77042">
        <ele>202.765704</ele>
        <time>2021-11-15T17:32:35.176Z</time>
      </trkpt>
      <trkpt lat="41.2639" lon="41.77098">
        <ele>216.063324</ele>
        <time>2021-11-15T17:34:36.124Z</time>
      </trkpt>
      <trkpt lat="41.26337" lon="41.77132">
        <ele>218.185999</ele>
        <time>2021-11-15T17:35:01.256Z</time>
      </trkpt>
      <trkpt lat="41.26217" lon="41.77232">
        <ele>222.120329</ele>
        <time>2021-11-15T17:35:48.221Z</time>
      </trkpt>
      <trkpt lat="41.26155" lon="41.77276">
        <ele>220.285583</ele>
        <time>2021-11-15T17:36:01.804Z</time>
      </trkpt>
      <trkpt lat="41.25986" lon="41.77371">
        <ele>214.811503</ele>
        <time>2021-11-15T17:36:29.838Z</time>
      </trkpt>
      <trkpt lat="41.25922" lon="41.77396">
        <ele>212.498039</ele>
        <time>2021-11-15T17:36:40.131Z</time>
      </trkpt>
      <trkpt lat="41.25879" lon="41.77386">
        <ele>211.545249</ele>
        <time>2021-11-15T17:36:47.456Z</time>
      </trkpt>
      <trkpt lat="41.25689" lon="41.77268">
        <ele>218.194989</ele>
        <time>2021-11-15T17:38:01.206Z</time>
      </trkpt>
      <trkpt lat="41.25659" lon="41.77237">
        <ele>220.631574</ele>
        <time>2021-11-15T17:38:22.151Z</time>
      </trkpt>
      <trkpt lat="41.25625" lon="41.77153">
        <ele>225.23073</ele>
        <time>2021-11-15T17:39:00.769Z</time>
      </trkpt>
      <trkpt lat="41.25611" lon="41.77128">
        <ele>226.767606</ele>
        <time>2021-11-15T17:39:13.338Z</time>
      </trkpt>
      <trkpt lat="41.25575" lon="41.77105">
        <ele>228.065228</ele>
        <time>2021-11-15T17:39:32.536Z</time>
      </trkpt>
      <trkpt lat="41.25538" lon="41.77111">
        <ele>229.06446</ele>
        <time>2021-11-15T17:39:47.656Z</time>
      </trkpt>
      <trkpt lat="41.25481" lon="41.77174">
        <ele>231.015179</ele>
        <time>2021-11-15T17:40:06.822Z</time>
      </trkpt>
      <trkpt lat="41.25455" lon="41.77187">
        <ele>231.771828</ele>
        <time>2021-11-15T17:40:12.426Z</time>
      </trkpt>
      <trkpt lat="41.25334" lon="41.77198">
        <ele>233.320816</ele>
        <time>2021-11-15T17:40:39.148Z</time>
      </trkpt>
      <trkpt lat="41.25192" lon="41.77185">
        <ele>237.457678</ele>
        <time>2021-11-15T17:41:29.259Z</time>
      </trkpt>
      <trkpt lat="41.25153" lon="41.772">
        <ele>239.245511</ele>
        <time>2021-11-15T17:41:47.527Z</time>
      </trkpt>
      <trkpt lat="41.25101" lon="41.77244">
        <ele>241.950043</ele>
        <time>2021-11-15T17:42:14.180Z</time>
      </trkpt>
      <trkpt lat="41.25081" lon="41.77254">
        <ele>242.699467</ele>
        <time>2021-11-15T17:42:23.329Z</time>
      </trkpt>
      <trkpt lat="41.2505" lon="41.7725">
        <ele>243.764021</ele>
        <time>2021-11-15T17:42:36.394Z</time>
      </trkpt>
      <trkpt lat="41.24994" lon="41.77222">
        <ele>245.817302</ele>
        <time>2021-11-15T17:42:59.817Z</time>
      </trkpt>
      <trkpt lat="41.24972" lon="41.77224">
        <ele>246.573249</ele>
        <time>2021-11-15T17:43:07.257Z</time>
      </trkpt>
      <trkpt lat="41.24953" lon="41.77236">
        <ele>247.284859</ele>
        <time>2021-11-15T17:43:13.820Z</time>
      </trkpt>
      <trkpt lat="41.24936" lon="41.77267">
        <ele>248.129047</ele>
        <time>2021-11-15T17:43:22.100Z</time>
      </trkpt>
      <trkpt lat="41.24929" lon="41.77313">
        <ele>247.189083</ele>
        <time>2021-11-15T17:43:30.329Z</time>
      </trkpt>
      <trkpt lat="41.24932" lon="41.77395">
        <ele>245.537451</ele>
        <time>2021-11-15T17:43:41.510Z</time>
      </trkpt>
      <trkpt lat="41.24929" lon="41.77438">
        <ele>244.689012</ele>
        <time>2021-11-15T17:43:46.584Z</time>
      </trkpt>
      <trkpt lat="41.24913" lon="41.77486">
        <ele>243.624956</ele>
        <time>2021-11-15T17:43:52.544Z</time>
      </trkpt>
      <trkpt lat="41.24899" lon="41.77513">
        <ele>241.953681</ele>
        <time>2021-11-15T17:43:56.105Z</time>
      </trkpt>
      <trkpt lat="41.24864" lon="41.77555">
        <ele>237.795998</ele>
        <time>2021-11-15T17:44:02.701Z</time>
      </trkpt>
      <trkpt lat="41.24754" lon="41.77627">
        <ele>226.95628</ele>
        <time>2021-11-15T17:44:19.417Z</time>
      </trkpt>
      <trkpt lat="41.24648" lon="41.77671">
        <ele>217.015188</ele>
        <time>2021-11-15T17:44:34.431Z</time>
      </trkpt>
      <trkpt lat="41.24574" lon="41.77687">
        <ele>211.14439</ele>
        <time>2021-11-15T17:44:44.909Z</time>
      </trkpt>
      <trkpt lat="41.24445" lon="41.77691">
        <ele>208.555175</ele>
        <time>2021-11-15T17:45:06.357Z</time>
      </trkpt>
      <trkpt lat="41.24414" lon="41.77685">
        <ele>207.936034</ele>
        <time>2021-11-15T17:45:16.322Z</time>
      </trkpt>
      <trkpt lat="41.24364" lon="41.77661">
        <ele>210.645719</ele>
        <time>2021-11-15T17:45:38.319Z</time>
      </trkpt>
      <trkpt lat="41.24332" lon="41.77656">
        <ele>212.606939</ele>
        <time>2021-11-15T17:45:53.490Z</time>
      </trkpt>
      <trkpt lat="41.24167" lon="41.77664">
        <ele>220.968753</ele>
        <time>2021-11-15T17:47:21.760Z</time>
      </trkpt>
      <trkpt lat="41.24141" lon="41.77675">
        <ele>221.856871</ele>
        <time>2021-11-15T17:47:31.614Z</time>
      </trkpt>
      <trkpt lat="41.24128" lon="41.77686">
        <ele>222.36041</ele>
        <time>2021-11-15T17:47:39.205Z</time>
      </trkpt>
      <trkpt lat="41.24117" lon="41.77702">
        <ele>222.881684</ele>
        <time>2021-11-15T17:47:42.514Z</time>
      </trkpt>
      <trkpt lat="41.24094" lon="41.77751">
        <ele>224.300172</ele>
        <time>2021-11-15T17:47:54.125Z</time>
      </trkpt>
      <trkpt lat="41.24029" lon="41.77939">
        <ele>217.802652</ele>
        <time>2021-11-15T17:48:17.889Z</time>
      </trkpt>
      <trkpt lat="41.24007" lon="41.77985">
        <ele>215.669546</ele>
        <time>2021-11-15T17:48:23.774Z</time>
      </trkpt>
      <trkpt lat="41.23908" lon="41.78149">
        <ele>203.38993</ele>
        <time>2021-11-15T17:48:45.841Z</time>
      </trkpt>
      <trkpt lat="41.23874" lon="41.78184">
        <ele>200.748908</ele>
        <time>2021-11-15T17:48:51.865Z</time>
      </trkpt>
      <trkpt lat="41.23843" lon="41.78192">
        <ele>199.171409</ele>
        <time>2021-11-15T17:48:56.449Z</time>
      </trkpt>
      <trkpt lat="41.23822" lon="41.78187">
        <ele>198.076125</ele>
        <time>2021-11-15T17:48:59.663Z</time>
      </trkpt>
      <trkpt lat="41.23568" lon="41.78031">
        <ele>189.391906</ele>
        <time>2021-11-15T17:49:44.858Z</time>
      </trkpt>
      <trkpt lat="41.23542" lon="41.78025">
        <ele>191.976335</ele>
        <time>2021-11-15T17:49:56.774Z</time>
      </trkpt>
      <trkpt lat="41.23525" lon="41.78026">
        <ele>194.037358</ele>
        <time>2021-11-15T17:50:03.542Z</time>
      </trkpt>
      <trkpt lat="41.23509" lon="41.78035">
        <ele>196.04542</ele>
        <time>2021-11-15T17:50:14.088Z</time>
      </trkpt>
      <trkpt lat="41.23498" lon="41.78042">
        <ele>197.444088</ele>
        <time>2021-11-15T17:50:18.533Z</time>
      </trkpt>
      <trkpt lat="41.23372" lon="41.7819">
        <ele>220.505214</ele>
        <time>2021-11-15T17:52:51.014Z</time>
      </trkpt>
      <trkpt lat="41.23264" lon="41.78336">
        <ele>242.4087</ele>
        <time>2021-11-15T17:55:22.474Z</time>
      </trkpt>
      <trkpt lat="41.23258" lon="41.78346">
        <ele>242.513597</ele>
        <time>2021-11-15T17:55:28.830Z</time>
      </trkpt>
      <trkpt lat="41.23246" lon="41.78362">
        <ele>242.707957</ele>
        <time>2021-11-15T17:55:36.584Z</time>
      </trkpt>
      <trkpt lat="41.23228" lon="41.78379">
        <ele>242.954843</ele>
        <time>2021-11-15T17:55:44.521Z</time>
      </trkpt>
      <trkpt lat="41.23194" lon="41.78385">
        <ele>243.350756</ele>
        <time>2021-11-15T17:55:51.037Z</time>
      </trkpt>
      <trkpt lat="41.23173" lon="41.78376">
        <ele>243.602634</ele>
        <time>2021-11-15T17:55:54.197Z</time>
      </trkpt>
      <trkpt lat="41.23099" lon="41.78302">
        <ele>238.624943</ele>
        <time>2021-11-15T17:56:06.373Z</time>
      </trkpt>
      <trkpt lat="41.23075" lon="41.78301">
        <ele>235.924544</ele>
        <time>2021-11-15T17:56:09.521Z</time>
      </trkpt>
      <trkpt lat="41.23065" lon="41.78307">
        <ele>234.711862</ele>
        <time>2021-11-15T17:56:10.977Z</time>
      </trkpt>
      <trkpt lat="41.23045" lon="41.78324">
        <ele>232.114535</ele>
        <time>2021-11-15T17:56:14.053Z</time>
      </trkpt>
      <trkpt lat="41.22981" lon="41.78449">
        <ele>224.13686</ele>
        <time>2021-11-15T17:56:30.030Z</time>
      </trkpt>
      <trkpt lat="41.22923" lon="41.7861">
        <ele>223.419383</ele>
        <time>2021-11-15T17:57:12.211Z</time>
      </trkpt>
      <trkpt lat="41.22889" lon="41.78655">
        <ele>223.416764</ele>
        <time>2021-11-15T17:57:27.151Z</time>
      </trkpt>
      <trkpt lat="41.22796" lon="41.78727">
        <ele>223.44501</ele>
        <time>2021-11-15T17:57:52.532Z</time>
      </trkpt>
      <trkpt lat="41.22688" lon="41.788">
        <ele>223.54478</ele>
        <time>2021-11-15T17:58:12.151Z</time>
      </trkpt>
      <trkpt lat="41.22315" lon="41.79066">
        <ele>237.275338</ele>
        <time>2021-11-15T18:00:42.028Z</time>
      </trkpt>
      <trkpt lat="41.22118" lon="41.79297">
        <ele>262.667134</ele>
        <time>2021-11-15T18:03:43.572Z</time>
      </trkpt>
      <trkpt lat="41.22083" lon="41.79331">
        <ele>265.81423</ele>
        <time>2021-11-15T18:04:08.362Z</time>
      </trkpt>
      <trkpt lat="41.22033" lon="41.79352">
        <ele>269.639704</ele>
        <time>2021-11-15T18:04:33.215Z</time>
      </trkpt>
      <trkpt lat="41.21798" lon="41.79348">
        <ele>270.497053</ele>
        <time>2021-11-15T18:05:18.813Z</time>
      </trkpt>
      <trkpt lat="41.21691" lon="41.79384">
        <ele>270.603953</ele>
        <time>2021-11-15T18:05:39.046Z</time>
      </trkpt>
      <trkpt lat="41.21585" lon="41.79428">
        <ele>272.521327</ele>
        <time>2021-11-15T18:06:22.589Z</time>
      </trkpt>
      <trkpt lat="41.21536" lon="41.79465">
        <ele>273.982234</ele>
        <time>2021-11-15T18:06:45.505Z</time>
      </trkpt>
      <trkpt lat="41.21462" lon="41.79514">
        <ele>273.339068</ele>
        <time>2021-11-15T18:07:05.438Z</time>
      </trkpt>
      <trkpt lat="41.21338" lon="41.79586">
        <ele>265.214704</ele>
        <time>2021-11-15T18:07:25.739Z</time>
      </trkpt>
      <trkpt lat="41.21287" lon="41.79621">
        <ele>260.640655</ele>
        <time>2021-11-15T18:07:33.303Z</time>
      </trkpt>
      <trkpt lat="41.21207" lon="41.79673">
        <ele>253.022272</ele>
        <time>2021-11-15T18:07:45.459Z</time>
      </trkpt>
      <trkpt lat="41.21028" lon="41.79887">
        <ele>241.25272</ele>
        <time>2021-11-15T18:08:23.067Z</time>
      </trkpt>
      <trkpt lat="41.20962" lon="41.79951">
        <ele>239.49465</ele>
        <time>2021-11-15T18:08:36.856Z</time>
      </trkpt>
      <trkpt lat="41.209" lon="41.80021">
        <ele>237.763767</ele>
        <time>2021-11-15T18:08:51.667Z</time>
      </trkpt>
      <trkpt lat="41.20794" lon="41.80172">
        <ele>237.779135</ele>
        <time>2021-11-15T18:09:26.491Z</time>
      </trkpt>
      <trkpt lat="41.20752" lon="41.80234">
        <ele>237.831466</ele>
        <time>2021-11-15T18:09:43.038Z</time>
      </trkpt>
      <trkpt lat="41.20703" lon="41.80295">
        <ele>237.911506</ele>
        <time>2021-11-15T18:10:00.116Z</time>
      </trkpt>
      <trkpt lat="41.20508" lon="41.80462">
        <ele>237.485965</ele>
        <time>2021-11-15T18:10:45.991Z</time>
      </trkpt>
      <trkpt lat="41.20497" lon="41.80489">
        <ele>237.407</ele>
        <time>2021-11-15T18:10:49.950Z</time>
      </trkpt>
      <trkpt lat="41.20439" lon="41.8073">
        <ele>244.840131</ele>
        <time>2021-11-15T18:12:04.204Z</time>
      </trkpt>
      <trkpt lat="41.20386" lon="41.80855">
        <ele>250.163301</ele>
        <time>2021-11-15T18:13:10.931Z</time>
      </trkpt>
      <trkpt lat="41.19912" lon="41.81754">
        <ele>246.011594</ele>
        <time>2021-11-15T18:15:52.708Z</time>
      </trkpt>
      <trkpt lat="41.19859" lon="41.81853">
        <ele>249.326883</ele>
        <time>2021-11-15T18:16:22.926Z</time>
      </trkpt>
      <trkpt lat="41.19835" lon="41.81908">
        <ele>251.521707</ele>
        <time>2021-11-15T18:16:48.610Z</time>
      </trkpt>
      <trkpt lat="41.19797" lon="41.81946">
        <ele>259.172314</ele>
        <time>2021-11-15T18:17:20.378Z</time>
      </trkpt>
      <trkpt lat="41.19653" lon="41.82038">
        <ele>282.465725</ele>
        <time>2021-11-15T18:20:02.604Z</time>
      </trkpt>
      <trkpt lat="41.19607" lon="41.82111">
        <ele>287.759419</ele>
        <time>2021-11-15T18:21:02.999Z</time>
      </trkpt>
      <trkpt lat="41.19027" lon="41.82808">
        <ele>254.518835</ele>
        <time>2021-11-15T18:23:05.185Z</time>
      </trkpt>
      <trkpt lat="41.19006" lon="41.82836">
        <ele>252.211823</ele>
        <time>2021-11-15T18:23:09.488Z</time>
      </trkpt>
      <trkpt lat="41.18888" lon="41.8302">
        <ele>235.657916</ele>
        <time>2021-11-15T18:23:35.433Z</time>
      </trkpt>
      <trkpt lat="41.18875" lon="41.83042">
        <ele>234.10774</ele>
        <time>2021-11-15T18:23:38.224Z</time>
      </trkpt>
      <trkpt lat="41.18857" lon="41.83079">
        <ele>231.644672</ele>
        <time>2021-11-15T18:23:42.780Z</time>
      </trkpt>
      <trkpt lat="41.18817" lon="41.83179">
        <ele>225.377529</ele>
        <time>2021-11-15T18:23:54.886Z</time>
      </trkpt>
      <trkpt lat="41.18802" lon="41.83223">
        <ele>223.617566</ele>
        <time>2021-11-15T18:24:00.547Z</time>
      </trkpt>
      <trkpt lat="41.18745" lon="41.83416">
        <ele>223.557206</ele>
        <time>2021-11-15T18:24:38.925Z</time>
      </trkpt>
      <trkpt lat="41.18725" lon="41.83469">
        <ele>224.147421</ele>
        <time>2021-11-15T18:24:54.273Z</time>
      </trkpt>
      <trkpt lat="41.18699" lon="41.8351">
        <ele>224.857625</ele>
        <time>2021-11-15T18:25:07.786Z</time>
      </trkpt>
      <trkpt lat="41.18673" lon="41.8353">
        <ele>225.380682</ele>
        <time>2021-11-15T18:25:17.380Z</time>
      </trkpt>
      <trkpt lat="41.18585" lon="41.83569">
        <ele>226.365222</ele>
        <time>2021-11-15T18:25:42.850Z</time>
      </trkpt>
      <trkpt lat="41.18534" lon="41.83604">
        <ele>225.129905</ele>
        <time>2021-11-15T18:25:54.463Z</time>
      </trkpt>
      <trkpt lat="41.18483" lon="41.83621">
        <ele>224.004687</ele>
        <time>2021-11-15T18:26:03.341Z</time>
      </trkpt>
      <trkpt lat="41.18426" lon="41.83633">
        <ele>222.612525</ele>
        <time>2021-11-15T18:26:12.276Z</time>
      </trkpt>
      <trkpt lat="41.18367" lon="41.83612">
        <ele>219.257078</ele>
        <time>2021-11-15T18:26:21.183Z</time>
      </trkpt>
      <trkpt lat="41.18256" lon="41.83613">
        <ele>213.087297</ele>
        <time>2021-11-15T18:26:37.369Z</time>
      </trkpt>
      <trkpt lat="41.18214" lon="41.83631">
        <ele>211.611368</ele>
        <time>2021-11-15T18:26:44.223Z</time>
      </trkpt>
      <trkpt lat="41.18191" lon="41.83649">
        <ele>210.7849</ele>
        <time>2021-11-15T18:26:48.412Z</time>
      </trkpt>
      <trkpt lat="41.18172" lon="41.83675">
        <ele>209.924141</ele>
        <time>2021-11-15T18:26:52.961Z</time>
      </trkpt>
      <trkpt lat="41.18146" lon="41.83698">
        <ele>208.96057</ele>
        <time>2021-11-15T18:26:58.227Z</time>
      </trkpt>
      <trkpt lat="41.18083" lon="41.83729">
        <ele>207.012337</ele>
        <time>2021-11-15T18:27:10.289Z</time>
      </trkpt>
      <trkpt lat="41.18025" lon="41.83808">
        <ele>205.367716</ele>
        <time>2021-11-15T18:27:26.197Z</time>
      </trkpt>
      <trkpt lat="41.18001" lon="41.83831">
        <ele>204.800741</ele>
        <time>2021-11-15T18:27:31.446Z</time>
      </trkpt>
      <trkpt lat="41.17971" lon="41.83845">
        <ele>204.165241</ele>
        <time>2021-11-15T18:27:37.045Z</time>
      </trkpt>
      <trkpt lat="41.17823" lon="41.83878">
        <ele>199.26893</ele>
        <time>2021-11-15T18:28:00.700Z</time>
      </trkpt>
      <trkpt lat="41.178" lon="41.83894">
        <ele>198.353405</ele>
        <time>2021-11-15T18:28:04.852Z</time>
      </trkpt>
      <trkpt lat="41.17777" lon="41.83924">
        <ele>197.334565</ele>
        <time>2021-11-15T18:28:10.056Z</time>
      </trkpt>
      <trkpt lat="41.17767" lon="41.83955">
        <ele>196.923269</ele>
        <time>2021-11-15T18:28:14.198Z</time>
      </trkpt>
      <trkpt lat="41.17758" lon="41.83995">
        <ele>196.401293</ele>
        <time>2021-11-15T18:28:19.556Z</time>
      </trkpt>
      <trkpt lat="41.17747" lon="41.84089">
        <ele>195.211399</ele>
        <time>2021-11-15T18:28:32.463Z</time>
      </trkpt>
      <trkpt lat="41.17754" lon="41.84119">
        <ele>194.820162</ele>
        <time>2021-11-15T18:28:37.197Z</time>
      </trkpt>
      <trkpt lat="41.17817" lon="41.84261">
        <ele>194.927291</ele>
        <time>2021-11-15T18:29:07.595Z</time>
      </trkpt>
      <trkpt lat="41.1784" lon="41.84358">
        <ele>195.276119</ele>
        <time>2021-11-15T18:29:26.683Z</time>
      </trkpt>
      <trkpt lat="41.17855" lon="41.84394">
        <ele>195.278277</ele>
        <time>2021-11-15T18:29:34.482Z</time>
      </trkpt>
      <trkpt lat="41.1787" lon="41.84428">
        <ele>195.274213</ele>
        <time>2021-11-15T18:29:40.953Z</time>
      </trkpt>
      <trkpt lat="41.17902" lon="41.84471">
        <ele>195.267969</ele>
        <time>2021-11-15T18:29:50.761Z</time>
      </trkpt>
      <trkpt lat="41.17911" lon="41.84479">
        <ele>195.266623</ele>
        <time>2021-11-15T18:29:52.502Z</time>
      </trkpt>
      <trkpt lat="41.17913" lon="41.84485">
        <ele>195.265945</ele>
        <time>2021-11-15T18:29:53.639Z</time>
      </trkpt>
      <trkpt lat="41.17916" lon="41.84489">
        <ele>195.26535</ele>
        <time>2021-11-15T18:29:54.784Z</time>
      </trkpt>
      <trkpt lat="41.17933" lon="41.84515">
        <ele>195.261758</ele>
        <time>2021-11-15T18:30:00.252Z</time>
      </trkpt>
      <trkpt lat="41.17944" lon="41.84529">
        <ele>195.259718</ele>
        <time>2021-11-15T18:30:04.012Z</time>
      </trkpt>
      <trkpt lat="41.17949" lon="41.84535">
        <ele>195.258804</ele>
        <time>2021-11-15T18:30:05.659Z</time>
      </trkpt>
      <trkpt lat="41.17955" lon="41.84543">
        <ele>195.263029</ele>
        <time>2021-11-15T18:30:07.290Z</time>
      </trkpt>
      <trkpt lat="41.17961" lon="41.84551">
        <ele>195.308761</ele>
        <time>2021-11-15T18:30:08.834Z</time>
      </trkpt>
      <trkpt lat="41.17979" lon="41.8457">
        <ele>195.434443</ele>
        <time>2021-11-15T18:30:14.681Z</time>
      </trkpt>
      <trkpt lat="41.17985" lon="41.84573">
        <ele>195.467552</ele>
        <time>2021-11-15T18:30:15.725Z</time>
      </trkpt>
      <trkpt lat="41.17999" lon="41.84586">
        <ele>195.560322</ele>
        <time>2021-11-15T18:30:19.989Z</time>
      </trkpt>
      <trkpt lat="41.18075" lon="41.84634">
        <ele>196.007769</ele>
        <time>2021-11-15T18:30:40.284Z</time>
      </trkpt>
      <trkpt lat="41.18118" lon="41.84676">
        <ele>196.509895</ele>
        <time>2021-11-15T18:30:54.383Z</time>
      </trkpt>
      <trkpt lat="41.18136" lon="41.84703">
        <ele>197.061591</ele>
        <time>2021-11-15T18:31:02.555Z</time>
      </trkpt>
      <trkpt lat="41.18162" lon="41.84779">
        <ele>198.362148</ele>
        <time>2021-11-15T18:31:21.865Z</time>
      </trkpt>
      <trkpt lat="41.18179" lon="41.84864">
        <ele>199.713854</ele>
        <time>2021-11-15T18:31:42.535Z</time>
      </trkpt>
      <trkpt lat="41.18191" lon="41.84894">
        <ele>200.336583</ele>
        <time>2021-11-15T18:31:50.758Z</time>
      </trkpt>
      <trkpt lat="41.18214" lon="41.84982">
        <ele>202.232159</ele>
        <time>2021-11-15T18:32:14.874Z</time>
      </trkpt>
      <trkpt lat="41.18216" lon="41.85066">
        <ele>203.928069</ele>
        <time>2021-11-15T18:32:37.256Z</time>
      </trkpt>
      <trkpt lat="41.18214" lon="41.85115">
        <ele>204.786878</ele>
        <time>2021-11-15T18:32:48.678Z</time>
      </trkpt>
      <trkpt lat="41.18207" lon="41.85146">
        <ele>204.898795</ele>
        <time>2021-11-15T18:32:55.414Z</time>
      </trkpt>
      <trkpt lat="41.18189" lon="41.85196">
        <ele>205.094327</ele>
        <time>2021-11-15T18:33:06.662Z</time>
      </trkpt>
      <trkpt lat="41.18162" lon="41.85253">
        <ele>205.330959</ele>
        <time>2021-11-15T18:33:18.673Z</time>
      </trkpt>
      <trkpt lat="41.18107" lon="41.85356">
        <ele>206.251286</ele>
        <time>2021-11-15T18:33:37.179Z</time>
      </trkpt>
      <trkpt lat="41.18088" lon="41.85525">
        <ele>208.482544</ele>
        <time>2021-11-15T18:34:08.252Z</time>
      </trkpt>
      <trkpt lat="41.1807" lon="41.85557">
        <ele>210.497428</ele>
        <time>2021-11-15T18:34:26.726Z</time>
      </trkpt>
      <trkpt lat="41.18042" lon="41.8556">
        <ele>213.577317</ele>
        <time>2021-11-15T18:34:43.660Z</time>
      </trkpt>
      <trkpt lat="41.17995" lon="41.85556">
        <ele>218.648375</ele>
        <time>2021-11-15T18:35:16.316Z</time>
      </trkpt>
      <trkpt lat="41.17957" lon="41.85553">
        <ele>222.663957</ele>
        <time>2021-11-15T18:35:43.085Z</time>
      </trkpt>
      <trkpt lat="41.17927" lon="41.85554">
        <ele>225.960965</ele>
        <time>2021-11-15T18:36:06.483Z</time>
      </trkpt>
      <trkpt lat="41.1792" lon="41.85523">
        <ele>228.549528</ele>
        <time>2021-11-15T18:36:24.012Z</time>
      </trkpt>
      <trkpt lat="41.17945" lon="41.85384">
        <ele>239.426604</ele>
        <time>2021-11-15T18:37:41.711Z</time>
      </trkpt>
      <trkpt lat="41.17997" lon="41.85188">
        <ele>251.172237</ele>
        <time>2021-11-15T18:38:55.548Z</time>
      </trkpt>
      <trkpt lat="41.18022" lon="41.85111">
        <ele>254.631787</ele>
        <time>2021-11-15T18:39:23.227Z</time>
      </trkpt>
      <trkpt lat="41.18034" lon="41.85043">
        <ele>256.513772</ele>
        <time>2021-11-15T18:39:44.929Z</time>
      </trkpt>
      <trkpt lat="41.18011" lon="41.84882">
        <ele>258.334038</ele>
        <time>2021-11-15T18:40:18.679Z</time>
      </trkpt>
      <trkpt lat="41.17972" lon="41.84825">
        <ele>259.964748</ele>
        <time>2021-11-15T18:40:29.350Z</time>
      </trkpt>
      <trkpt lat="41.17913" lon="41.8479">
        <ele>262.8812</ele>
        <time>2021-11-15T18:40:42.687Z</time>
      </trkpt>
      <trkpt lat="41.17787" lon="41.84748">
        <ele>274.774388</ele>
        <time>2021-11-15T18:41:57.387Z</time>
      </trkpt>
      <trkpt lat="41.17754" lon="41.84745">
        <ele>281.152232</ele>
        <time>2021-11-15T18:42:30.550Z</time>
      </trkpt>
      <trkpt lat="41.17721" lon="41.84777">
        <ele>289.123416</ele>
        <time>2021-11-15T18:43:17.125Z</time>
      </trkpt>
      <trkpt lat="41.17697" lon="41.84838">
        <ele>299.179994</ele>
        <time>2021-11-15T18:44:16.019Z</time>
      </trkpt>
      <trkpt lat="41.17691" lon="41.84876">
        <ele>304.635391</ele>
        <time>2021-11-15T18:44:49.914Z</time>
      </trkpt>
      <trkpt lat="41.17694" lon="41.84914">
        <ele>309.662106</ele>
        <time>2021-11-15T18:45:22.749Z</time>
      </trkpt>
      <trkpt lat="41.17705" lon="41.84938">
        <ele>313.383656</ele>
        <time>2021-11-15T18:45:46.669Z</time>
      </trkpt>
      <trkpt lat="41.17725" lon="41.84959">
        <ele>317.773692</ele>
        <time>2021-11-15T18:46:12.724Z</time>
      </trkpt>
      <trkpt lat="41.1779" lon="41.84993">
        <ele>329.969983</ele>
        <time>2021-11-15T18:47:09.670Z</time>
      </trkpt>
      <trkpt lat="41.17895" lon="41.85001">
        <ele>338.475573</ele>
        <time>2021-11-15T18:47:58.449Z</time>
      </trkpt>
      <trkpt lat="41.17916" lon="41.85016">
        <ele>339.939593</ele>
        <time>2021-11-15T18:48:06.935Z</time>
      </trkpt>
      <trkpt lat="41.17932" lon="41.85038">
        <ele>341.31772</ele>
        <time>2021-11-15T18:48:15.327Z</time>
      </trkpt>
      <trkpt lat="41.17937" lon="41.85076">
        <ele>343.108787</ele>
        <time>2021-11-15T18:48:26.274Z</time>
      </trkpt>
      <trkpt lat="41.17909" lon="41.85152">
        <ele>348.635993</ele>
        <time>2021-11-15T18:48:56.062Z</time>
      </trkpt>
      <trkpt lat="41.17818" lon="41.85344">
        <ele>366.15012</ele>
        <time>2021-11-15T18:50:52.645Z</time>
      </trkpt>
      <trkpt lat="41.17791" lon="41.85469">
        <ele>377.656445</ele>
        <time>2021-11-15T18:52:04.127Z</time>
      </trkpt>
      <trkpt lat="41.1778" lon="41.85602">
        <ele>387.983396</ele>
        <time>2021-11-15T18:53:09.769Z</time>
      </trkpt>
      <trkpt lat="41.17819" lon="41.85731">
        <ele>397.491073</ele>
        <time>2021-11-15T18:54:09.261Z</time>
      </trkpt>
      <trkpt lat="41.17818" lon="41.85769">
        <ele>399.537349</ele>
        <time>2021-11-15T18:54:24.544Z</time>
      </trkpt>
      <trkpt lat="41.17806" lon="41.85848">
        <ele>401.299669</ele>
        <time>2021-11-15T18:54:53.728Z</time>
      </trkpt>
      <trkpt lat="41.17809" lon="41.85866">
        <ele>401.685154</ele>
        <time>2021-11-15T18:54:58.697Z</time>
      </trkpt>
      <trkpt lat="41.17831" lon="41.85912">
        <ele>402.883922</ele>
        <time>2021-11-15T18:55:11.640Z</time>
      </trkpt>
      <trkpt lat="41.17841" lon="41.85984">
        <ele>404.468375</ele>
        <time>2021-11-15T18:55:22.779Z</time>
      </trkpt>
      <trkpt lat="41.17843" lon="41.86007">
        <ele>403.399767</ele>
        <time>2021-11-15T18:55:25.684Z</time>
      </trkpt>
      <trkpt lat="41.1782" lon="41.861">
        <ele>398.844668</ele>
        <time>2021-11-15T18:55:36.852Z</time>
      </trkpt>
      <trkpt lat="41.17821" lon="41.86119">
        <ele>397.974247</ele>
        <time>2021-11-15T18:55:38.840Z</time>
      </trkpt>
      <trkpt lat="41.17858" lon="41.86227">
        <ele>392.874001</ele>
        <time>2021-11-15T18:55:51.041Z</time>
      </trkpt>
      <trkpt lat="41.1787" lon="41.86294">
        <ele>391.097186</ele>
        <time>2021-11-15T18:55:58.494Z</time>
      </trkpt>
      <trkpt lat="41.17873" lon="41.86345">
        <ele>389.780122</ele>
        <time>2021-11-15T18:56:04.512Z</time>
      </trkpt>
      <trkpt lat="41.17865" lon="41.86366">
        <ele>389.179969</ele>
        <time>2021-11-15T18:56:07.539Z</time>
      </trkpt>
      <trkpt lat="41.17848" lon="41.86386">
        <ele>388.422667</ele>
        <time>2021-11-15T18:56:11.795Z</time>
      </trkpt>
      <trkpt lat="41.1783" lon="41.86394">
        <ele>387.772987</ele>
        <time>2021-11-15T18:56:16.395Z</time>
      </trkpt>
      <trkpt lat="41.17794" lon="41.86384">
        <ele>388.621865</ele>
        <time>2021-11-15T18:56:28.369Z</time>
      </trkpt>
      <trkpt lat="41.17726" lon="41.86334">
        <ele>393.756124</ele>
        <time>2021-11-15T18:57:06.162Z</time>
      </trkpt>
      <trkpt lat="41.17668" lon="41.86326">
        <ele>397.550201</ele>
        <time>2021-11-15T18:57:40.153Z</time>
      </trkpt>
      <trkpt lat="41.17616" lon="41.86327">
        <ele>401.047425</ele>
        <time>2021-11-15T18:58:10.886Z</time>
      </trkpt>
      <trkpt lat="41.17555" lon="41.86316">
        <ele>405.085874</ele>
        <time>2021-11-15T18:58:43.523Z</time>
      </trkpt>
      <trkpt lat="41.1748" lon="41.863">
        <ele>410.153613</ele>
        <time>2021-11-15T18:59:18.720Z</time>
      </trkpt>
      <trkpt lat="41.1703" lon="41.86277">
        <ele>423.196288</ele>
        <time>2021-11-15T19:01:51.783Z</time>
      </trkpt>
      <trkpt lat="41.16784" lon="41.86379">
        <ele>429.329154</ele>
        <time>2021-11-15T19:03:14.655Z</time>
      </trkpt>
      <trkpt lat="41.16677" lon="41.86648">
        <ele>436.39535</ele>
        <time>2021-11-15T19:04:32.322Z</time>
      </trkpt>
      <trkpt lat="41.16592" lon="41.8681">
        <ele>444.772573</ele>
        <time>2021-11-15T19:05:40.662Z</time>
      </trkpt>
      <trkpt lat="41.1656" lon="41.86894">
        <ele>448.527792</ele>
        <time>2021-11-15T19:06:24.183Z</time>
      </trkpt>
      <trkpt lat="41.16517" lon="41.86958">
        <ele>451.924649</ele>
        <time>2021-11-15T19:06:53.007Z</time>
      </trkpt>
      <trkpt lat="41.16478" lon="41.87025">
        <ele>454.6234</ele>
        <time>2021-11-15T19:07:11.321Z</time>
      </trkpt>
      <trkpt lat="41.1643" lon="41.87107">
        <ele>454.587649</ele>
        <time>2021-11-15T19:07:27.961Z</time>
      </trkpt>
      <trkpt lat="41.16398" lon="41.87162">
        <ele>454.564019</ele>
        <time>2021-11-15T19:07:37.831Z</time>
      </trkpt>
      <trkpt lat="41.16367" lon="41.87209">
        <ele>455.162576</ele>
        <time>2021-11-15T19:07:45.839Z</time>
      </trkpt>
      <trkpt lat="41.16304" lon="41.87352">
        <ele>462.367988</ele>
        <time>2021-11-15T19:08:37.623Z</time>
      </trkpt>
      <trkpt lat="41.16301" lon="41.87426">
        <ele>466.946877</ele>
        <time>2021-11-15T19:09:15.877Z</time>
      </trkpt>
      <trkpt lat="41.16322" lon="41.87467">
        <ele>473.566584</ele>
        <time>2021-11-15T19:09:43.503Z</time>
      </trkpt>
      <trkpt lat="41.16334" lon="41.87509">
        <ele>479.574852</ele>
        <time>2021-11-15T19:10:09.797Z</time>
      </trkpt>
      <trkpt lat="41.16336" lon="41.87605">
        <ele>492.43271</ele>
        <time>2021-11-15T19:11:29.674Z</time>
      </trkpt>
      <trkpt lat="41.16326" lon="41.87703">
        <ele>504.555966</ele>
        <time>2021-11-15T19:12:54.387Z</time>
      </trkpt>
      <trkpt lat="41.16306" lon="41.87807">
        <ele>517.138366</ele>
        <time>2021-11-15T19:14:12.123Z</time>
      </trkpt>
      <trkpt lat="41.16268" lon="41.8802">
        <ele>523.619354</ele>
        <time>2021-11-15T19:15:16.640Z</time>
      </trkpt>
      <trkpt lat="41.16189" lon="41.88347">
        <ele>502.579076</ele>
        <time>2021-11-15T19:15:53.126Z</time>
      </trkpt>
      <trkpt lat="41.16169" lon="41.88454">
        <ele>493.904263</ele>
        <time>2021-11-15T19:16:04.939Z</time>
      </trkpt>
      <trkpt lat="41.1614" lon="41.88548">
        <ele>485.984125</ele>
        <time>2021-11-15T19:16:15.741Z</time>
      </trkpt>
      <trkpt lat="41.16041" lon="41.8873">
        <ele>468.721862</ele>
        <time>2021-11-15T19:16:39.788Z</time>
      </trkpt>
      <trkpt lat="41.15868" lon="41.89016">
        <ele>440.890541</ele>
        <time>2021-11-15T19:17:18.749Z</time>
      </trkpt>
      <trkpt lat="41.15845" lon="41.89058">
        <ele>437.426238</ele>
        <time>2021-11-15T19:17:24.110Z</time>
      </trkpt>
      <trkpt lat="41.1582" lon="41.89086">
        <ele>434.514917</ele>
        <time>2021-11-15T19:17:28.657Z</time>
      </trkpt>
      <trkpt lat="41.15073" lon="41.89237">
        <ele>405.245131</ele>
        <time>2021-11-15T19:19:34.209Z</time>
      </trkpt>
      <trkpt lat="41.15004" lon="41.89212">
        <ele>406.488986</ele>
        <time>2021-11-15T19:19:53.198Z</time>
      </trkpt>
      <trkpt lat="41.14908" lon="41.89179">
        <ele>408.230266</ele>
        <time>2021-11-15T19:20:28.971Z</time>
      </trkpt>
      <trkpt lat="41.14701" lon="41.89098">
        <ele>415.947168</ele>
        <time>2021-11-15T19:21:57.802Z</time>
      </trkpt>
      <trkpt lat="41.14596" lon="41.89047">
        <ele>416.342053</ele>
        <time>2021-11-15T19:22:31.576Z</time>
      </trkpt>
      <trkpt lat="41.14536" lon="41.89066">
        <ele>413.911858</ele>
        <time>2021-11-15T19:22:40.747Z</time>
      </trkpt>
      <trkpt lat="41.1437" lon="41.89085">
        <ele>399.583381</ele>
        <time>2021-11-15T19:23:04.187Z</time>
      </trkpt>
      <trkpt lat="41.14315" lon="41.89073">
        <ele>398.318527</ele>
        <time>2021-11-15T19:23:11.933Z</time>
      </trkpt>
      <trkpt lat="41.1428" lon="41.89063">
        <ele>397.503738</ele>
        <time>2021-11-15T19:23:17.639Z</time>
      </trkpt>
      <trkpt lat="41.1422" lon="41.88962">
        <ele>398.354792</ele>
        <time>2021-11-15T19:23:55.891Z</time>
      </trkpt>
      <trkpt lat="41.14177" lon="41.88941">
        <ele>403.493787</ele>
        <time>2021-11-15T19:24:25.640Z</time>
      </trkpt>
      <trkpt lat="41.14146" lon="41.88941">
        <ele>406.83178</ele>
        <time>2021-11-15T19:24:46.125Z</time>
      </trkpt>
      <trkpt lat="41.14048" lon="41.88989">
        <ele>419.681502</ele>
        <time>2021-11-15T19:26:08.281Z</time>
      </trkpt>
      <trkpt lat="41.13983" lon="41.89004">
        <ele>430.19993</ele>
        <time>2021-11-15T19:27:04.985Z</time>
      </trkpt>
      <trkpt lat="41.13956" lon="41.89004">
        <ele>434.476764</ele>
        <time>2021-11-15T19:27:29.252Z</time>
      </trkpt>
      <trkpt lat="41.13842" lon="41.89017">
        <ele>453.267998</ele>
        <time>2021-11-15T19:29:13.058Z</time>
      </trkpt>
      <trkpt lat="41.13636" lon="41.89002">
        <ele>483.01398</ele>
        <time>2021-11-15T19:32:22.578Z</time>
      </trkpt>
      <trkpt lat="41.13449" lon="41.88974">
        <ele>483.347714</ele>
        <time>2021-11-15T19:33:42.589Z</time>
      </trkpt>
      <trkpt lat="41.1327" lon="41.88947">
        <ele>447.903241</ele>
        <time>2021-11-15T19:34:06.568Z</time>
      </trkpt>
      <trkpt lat="41.13187" lon="41.88935">
        <ele>424.319841</ele>
        <time>2021-11-15T19:34:17.775Z</time>
      </trkpt>
      <trkpt lat="41.13116" lon="41.8892">
        <ele>411.247986</ele>
        <time>2021-11-15T19:34:26.782Z</time>
      </trkpt>
      <trkpt lat="41.13082" lon="41.88908">
        <ele>405.235248</ele>
        <time>2021-11-15T19:34:31.333Z</time>
      </trkpt>
      <trkpt lat="41.13043" lon="41.88895">
        <ele>398.510012</ele>
        <time>2021-11-15T19:34:36.566Z</time>
      </trkpt>
      <trkpt lat="41.13022" lon="41.88875">
        <ele>394.090336</ele>
        <time>2021-11-15T19:34:40.195Z</time>
      </trkpt>
      <trkpt lat="41.13007" lon="41.8872">
        <ele>388.29815</ele>
        <time>2021-11-15T19:34:58.414Z</time>
      </trkpt>
      <trkpt lat="41.12981" lon="41.88677">
        <ele>387.054066</ele>
        <time>2021-11-15T19:35:06.410Z</time>
      </trkpt>
      <trkpt lat="41.12943" lon="41.88626">
        <ele>386.144739</ele>
        <time>2021-11-15T19:35:19.470Z</time>
      </trkpt>
      <trkpt lat="41.12941" lon="41.88612">
        <ele>386.287892</ele>
        <time>2021-11-15T19:35:21.391Z</time>
      </trkpt>
      <trkpt lat="41.12928" lon="41.8854">
        <ele>386.975109</ele>
        <time>2021-11-15T19:35:37.733Z</time>
      </trkpt>
      <trkpt lat="41.12924" lon="41.88385">
        <ele>388.34874</ele>
        <time>2021-11-15T19:36:11.533Z</time>
      </trkpt>
      <trkpt lat="41.12931" lon="41.88217">
        <ele>389.403643</ele>
        <time>2021-11-15T19:36:45.825Z</time>
      </trkpt>
      <trkpt lat="41.12917" lon="41.88168">
        <ele>389.60933</ele>
        <time>2021-11-15T19:36:54.021Z</time>
      </trkpt>
      <trkpt lat="41.12878" lon="41.88071">
        <ele>388.896242</ele>
        <time>2021-11-15T19:37:09.827Z</time>
      </trkpt>
      <trkpt lat="41.12843" lon="41.88019">
        <ele>388.442778</ele>
        <time>2021-11-15T19:37:19.379Z</time>
      </trkpt>
      <trkpt lat="41.12748" lon="41.87933">
        <ele>389.676031</ele>
        <time>2021-11-15T19:37:43.785Z</time>
      </trkpt>
      <trkpt lat="41.12726" lon="41.87891">
        <ele>390.44207</ele>
        <time>2021-11-15T19:37:55.552Z</time>
      </trkpt>
      <trkpt lat="41.12713" lon="41.87826">
        <ele>391.458897</ele>
        <time>2021-11-15T19:38:14.842Z</time>
      </trkpt>
      <trkpt lat="41.12712" lon="41.87772">
        <ele>393.224871</ele>
        <time>2021-11-15T19:38:32.809Z</time>
      </trkpt>
      <trkpt lat="41.1273" lon="41.87729">
        <ele>395.25283</ele>
        <time>2021-11-15T19:38:50.750Z</time>
      </trkpt>
      <trkpt lat="41.12788" lon="41.87641">
        <ele>400.037221</ele>
        <time>2021-11-15T19:39:32.359Z</time>
      </trkpt>
      <trkpt lat="41.12793" lon="41.87593">
        <ele>401.608345</ele>
        <time>2021-11-15T19:39:47.483Z</time>
      </trkpt>
      <trkpt lat="41.12778" lon="41.87557">
        <ele>401.858259</ele>
        <time>2021-11-15T19:39:58.521Z</time>
      </trkpt>
      <trkpt lat="41.12757" lon="41.87533">
        <ele>402.084119</ele>
        <time>2021-11-15T19:40:07.056Z</time>
      </trkpt>
      <trkpt lat="41.12679" lon="41.87497">
        <ele>402.746259</ele>
        <time>2021-11-15T19:40:24.818Z</time>
      </trkpt>
      <trkpt lat="41.12564" lon="41.87454">
        <ele>401.259323</ele>
        <time>2021-11-15T19:40:45.057Z</time>
      </trkpt>
      <trkpt lat="41.12512" lon="41.87428">
        <ele>400.19641</ele>
        <time>2021-11-15T19:40:54.794Z</time>
      </trkpt>
      <trkpt lat="41.12491" lon="41.87404">
        <ele>399.662334</ele>
        <time>2021-11-15T19:40:59.954Z</time>
      </trkpt>
      <trkpt lat="41.12484" lon="41.87383">
        <ele>399.543993</ele>
        <time>2021-11-15T19:41:03.262Z</time>
      </trkpt>
      <trkpt lat="41.1248" lon="41.87337">
        <ele>399.535972</ele>
        <time>2021-11-15T19:41:10.540Z</time>
      </trkpt>
      <trkpt lat="41.12494" lon="41.86952">
        <ele>400.30927</ele>
        <time>2021-11-15T19:42:19.324Z</time>
      </trkpt>
      <trkpt lat="41.12478" lon="41.86864">
        <ele>402.260496</ele>
        <time>2021-11-15T19:42:35.984Z</time>
      </trkpt>
      <trkpt lat="41.1244" lon="41.86767">
        <ele>405.629811</ele>
        <time>2021-11-15T19:43:05.891Z</time>
      </trkpt>
      <trkpt lat="41.1244" lon="41.86728">
        <ele>406.836857</ele>
        <time>2021-11-15T19:43:19.315Z</time>
      </trkpt>
      <trkpt lat="41.12449" lon="41.86689">
        <ele>408.515424</ele>
        <time>2021-11-15T19:43:35.740Z</time>
      </trkpt>
      <trkpt lat="41.12574" lon="41.86561">
        <ele>423.655523</ele>
        <time>2021-11-15T19:45:18.294Z</time>
      </trkpt>
      <trkpt lat="41.12606" lon="41.86519">
        <ele>426.558925</ele>
        <time>2021-11-15T19:45:44.532Z</time>
      </trkpt>
      <trkpt lat="41.12615" lon="41.8647">
        <ele>428.373532</ele>
        <time>2021-11-15T19:46:02.983Z</time>
      </trkpt>
      <trkpt lat="41.1261" lon="41.86433">
        <ele>429.748807</ele>
        <time>2021-11-15T19:46:15.270Z</time>
      </trkpt>
      <trkpt lat="41.12596" lon="41.86384">
        <ele>431.639576</ele>
        <time>2021-11-15T19:46:29.764Z</time>
      </trkpt>
      <trkpt lat="41.12568" lon="41.86352">
        <ele>433.422402</ele>
        <time>2021-11-15T19:46:40.933Z</time>
      </trkpt>
      <trkpt lat="41.12138" lon="41.86038">
        <ele>428.116733</ele>
        <time>2021-11-15T19:48:19.548Z</time>
      </trkpt>
      <trkpt lat="41.12076" lon="41.86001">
        <ele>426.846587</ele>
        <time>2021-11-15T19:48:30.104Z</time>
      </trkpt>
      <trkpt lat="41.12048" lon="41.85971">
        <ele>426.388229</ele>
        <time>2021-11-15T19:48:35.855Z</time>
      </trkpt>
      <trkpt lat="41.11994" lon="41.8587">
        <ele>425.20598</ele>
        <time>2021-11-15T19:48:51.776Z</time>
      </trkpt>
      <trkpt lat="41.11899" lon="41.85669">
        <ele>430.362429</ele>
        <time>2021-11-15T19:49:57.692Z</time>
      </trkpt>
      <trkpt lat="41.11892" lon="41.85632">
        <ele>431.500371</ele>
        <time>2021-11-15T19:50:11.134Z</time>
      </trkpt>
      <trkpt lat="41.11898" lon="41.85517">
        <ele>434.89173</ele>
        <time>2021-11-15T19:50:50.881Z</time>
      </trkpt>
      <trkpt lat="41.11893" lon="41.85483">
        <ele>435.896108</ele>
        <time>2021-11-15T19:51:01.387Z</time>
      </trkpt>
      <trkpt lat="41.11872" lon="41.85457">
        <ele>437.011745</ele>
        <time>2021-11-15T19:51:12.459Z</time>
      </trkpt>
      <trkpt lat="41.11841" lon="41.85449">
        <ele>438.222549</ele>
        <time>2021-11-15T19:51:23.155Z</time>
      </trkpt>
      <trkpt lat="41.1182" lon="41.85453">
        <ele>438.756901</ele>
        <time>2021-11-15T19:51:29.527Z</time>
      </trkpt>
      <trkpt lat="41.11722" lon="41.85515">
        <ele>435.080616</ele>
        <time>2021-11-15T19:51:48.677Z</time>
      </trkpt>
      <trkpt lat="41.11623" lon="41.85532">
        <ele>430.320603</ele>
        <time>2021-11-15T19:52:02.896Z</time>
      </trkpt>
      <trkpt lat="41.11538" lon="41.85531">
        <ele>423.707456</ele>
        <time>2021-11-15T19:52:14.559Z</time>
      </trkpt>
      <trkpt lat="41.11509" lon="41.8552">
        <ele>421.395418</ele>
        <time>2021-11-15T19:52:18.849Z</time>
      </trkpt>
      <trkpt lat="41.11479" lon="41.8549">
        <ele>418.817411</ele>
        <time>2021-11-15T19:52:24.259Z</time>
      </trkpt>
      <trkpt lat="41.11471" lon="41.85477">
        <ele>418.593955</ele>
        <time>2021-11-15T19:52:25.957Z</time>
      </trkpt>
      <trkpt lat="41.1143" lon="41.85414">
        <ele>417.461485</ele>
        <time>2021-11-15T19:52:36.473Z</time>
      </trkpt>
      <trkpt lat="41.1139" lon="41.85322">
        <ele>416.036098</ele>
        <time>2021-11-15T19:52:52.081Z</time>
      </trkpt>
      <trkpt lat="41.11363" lon="41.85167">
        <ele>418.101844</ele>
        <time>2021-11-15T19:53:35.365Z</time>
      </trkpt>
      <trkpt lat="41.11287" lon="41.85025">
        <ele>420.099645</ele>
        <time>2021-11-15T19:54:14.532Z</time>
      </trkpt>
      <trkpt lat="41.11224" lon="41.84849">
        <ele>420.132887</ele>
        <time>2021-11-15T19:54:44.801Z</time>
      </trkpt>
      <trkpt lat="41.11166" lon="41.84722">
        <ele>419.034185</ele>
        <time>2021-11-15T19:55:05.027Z</time>
      </trkpt>
      <trkpt lat="41.1114" lon="41.84631">
        <ele>419.279715</ele>
        <time>2021-11-15T19:55:20.290Z</time>
      </trkpt>
      <trkpt lat="41.11135" lon="41.84551">
        <ele>421.101483</ele>
        <time>2021-11-15T19:55:36.818Z</time>
      </trkpt>
      <trkpt lat="41.11041" lon="41.84293">
        <ele>432.560541</ele>
        <time>2021-11-15T19:57:10.517Z</time>
      </trkpt>
      <trkpt lat="41.1098" lon="41.84159">
        <ele>440.911618</ele>
        <time>2021-11-15T19:58:27.767Z</time>
      </trkpt>
      <trkpt lat="41.10968" lon="41.83852">
        <ele>447.492963</ele>
        <time>2021-11-15T20:00:10.254Z</time>
      </trkpt>
      <trkpt lat="41.10966" lon="41.83802">
        <ele>446.817095</ele>
        <time>2021-11-15T20:00:15.387Z</time>
      </trkpt>
      <trkpt lat="41.1096" lon="41.83767">
        <ele>446.342303</ele>
        <time>2021-11-15T20:00:18.908Z</time>
      </trkpt>
      <trkpt lat="41.10948" lon="41.83729">
        <ele>442.814408</ele>
        <time>2021-11-15T20:00:22.969Z</time>
      </trkpt>
      <trkpt lat="41.10938" lon="41.83707">
        <ele>440.347149</ele>
        <time>2021-11-15T20:00:25.450Z</time>
      </trkpt>
      <trkpt lat="41.10839" lon="41.83627">
        <ele>425.50339</ele>
        <time>2021-11-15T20:00:40.450Z</time>
      </trkpt>
      <trkpt lat="41.10795" lon="41.83598">
        <ele>422.699096</ele>
        <time>2021-11-15T20:00:47.886Z</time>
      </trkpt>
      <trkpt lat="41.1077" lon="41.8356">
        <ele>422.076578</ele>
        <time>2021-11-15T20:00:54.854Z</time>
      </trkpt>
      <trkpt lat="41.10766" lon="41.83537">
        <ele>421.779679</ele>
        <time>2021-11-15T20:00:58.352Z</time>
      </trkpt>
      <trkpt lat="41.10813" lon="41.83156">
        <ele>423.402683</ele>
        <time>2021-11-15T20:02:18.155Z</time>
      </trkpt>
      <trkpt lat="41.10835" lon="41.83021">
        <ele>426.118836</ele>
        <time>2021-11-15T20:02:56.457Z</time>
      </trkpt>
      <trkpt lat="41.10836" lon="41.82983">
        <ele>426.875367</ele>
        <time>2021-11-15T20:03:06.261Z</time>
      </trkpt>
      <trkpt lat="41.10829" lon="41.82906">
        <ele>427.117615</ele>
        <time>2021-11-15T20:03:23.541Z</time>
      </trkpt>
      <trkpt lat="41.10813" lon="41.82791">
        <ele>425.634946</ele>
        <time>2021-11-15T20:03:40.567Z</time>
      </trkpt>
      <trkpt lat="41.10798" lon="41.82748">
        <ele>425.032321</ele>
        <time>2021-11-15T20:03:46.159Z</time>
      </trkpt>
      <trkpt lat="41.1075" lon="41.82707">
        <ele>423.091022</ele>
        <time>2021-11-15T20:03:54.595Z</time>
      </trkpt>
      <trkpt lat="41.10715" lon="41.82662">
        <ele>420.702973</ele>
        <time>2021-11-15T20:04:01.816Z</time>
      </trkpt>
      <trkpt lat="41.10705" lon="41.82639">
        <ele>419.687986</ele>
        <time>2021-11-15T20:04:04.887Z</time>
      </trkpt>
      <trkpt lat="41.10703" lon="41.82566">
        <ele>416.983386</ele>
        <time>2021-11-15T20:04:13.230Z</time>
      </trkpt>
      <trkpt lat="41.10694" lon="41.82534">
        <ele>415.712939</ele>
        <time>2021-11-15T20:04:17.253Z</time>
      </trkpt>
      <trkpt lat="41.10564" lon="41.82411">
        <ele>410.098107</ele>
        <time>2021-11-15T20:04:42.551Z</time>
      </trkpt>
      <trkpt lat="41.10498" lon="41.82338">
        <ele>408.072222</ele>
        <time>2021-11-15T20:04:57.293Z</time>
      </trkpt>
      <trkpt lat="41.10393" lon="41.82199">
        <ele>406.613035</ele>
        <time>2021-11-15T20:05:24.233Z</time>
      </trkpt>
      <trkpt lat="41.10376" lon="41.82161">
        <ele>407.382024</ele>
        <time>2021-11-15T20:05:30.293Z</time>
      </trkpt>
      <trkpt lat="41.10364" lon="41.82121">
        <ele>408.149333</ele>
        <time>2021-11-15T20:05:38.870Z</time>
      </trkpt>
      <trkpt lat="41.10361" lon="41.82102">
        <ele>408.475496</ele>
        <time>2021-11-15T20:05:44.764Z</time>
      </trkpt>
      <trkpt lat="41.10357" lon="41.82006">
        <ele>410.583081</ele>
        <time>2021-11-15T20:06:19.360Z</time>
      </trkpt>
      <trkpt lat="41.10348" lon="41.81949">
        <ele>413.957108</ele>
        <time>2021-11-15T20:06:40.750Z</time>
      </trkpt>
      <trkpt lat="41.10345" lon="41.81923">
        <ele>415.498887</ele>
        <time>2021-11-15T20:06:52.578Z</time>
      </trkpt>
      <trkpt lat="41.10342" lon="41.81889">
        <ele>417.435501</ele>
        <time>2021-11-15T20:07:06.073Z</time>
      </trkpt>
      <trkpt lat="41.10335" lon="41.81767">
        <ele>424.363613</ele>
        <time>2021-11-15T20:07:58.799Z</time>
      </trkpt>
      <trkpt lat="41.1031" lon="41.81662">
        <ele>429.01881</ele>
        <time>2021-11-15T20:08:42.701Z</time>
      </trkpt>
      <trkpt lat="41.10227" lon="41.81513">
        <ele>435.016355</ele>
        <time>2021-11-15T20:09:33.954Z</time>
      </trkpt>
      <trkpt lat="41.10138" lon="41.81442">
        <ele>437.161714</ele>
        <time>2021-11-15T20:10:11.094Z</time>
      </trkpt>
      <trkpt lat="41.09965" lon="41.81333">
        <ele>432.242132</ele>
        <time>2021-11-15T20:10:44.846Z</time>
      </trkpt>
      <trkpt lat="41.09906" lon="41.81302">
        <ele>428.322777</ele>
        <time>2021-11-15T20:10:53.693Z</time>
      </trkpt>
      <trkpt lat="41.09809" lon="41.81219">
        <ele>420.45082</ele>
        <time>2021-11-15T20:11:09.697Z</time>
      </trkpt>
      <trkpt lat="41.09763" lon="41.81173">
        <ele>421.351584</ele>
        <time>2021-11-15T20:11:19.712Z</time>
      </trkpt>
      <trkpt lat="41.0974" lon="41.81167">
        <ele>422.339719</ele>
        <time>2021-11-15T20:11:27.111Z</time>
      </trkpt>
      <trkpt lat="41.0971" lon="41.81169">
        <ele>423.546284</ele>
        <time>2021-11-15T20:11:38.134Z</time>
      </trkpt>
      <trkpt lat="41.09623" lon="41.81203">
        <ele>428.155863</ele>
        <time>2021-11-15T20:12:28.234Z</time>
      </trkpt>
      <trkpt lat="41.09592" lon="41.81204">
        <ele>432.47812</ele>
        <time>2021-11-15T20:12:52.220Z</time>
      </trkpt>
      <trkpt lat="41.09571" lon="41.81213">
        <ele>435.634304</ele>
        <time>2021-11-15T20:13:11.904Z</time>
      </trkpt>
      <trkpt lat="41.0949" lon="41.81271">
        <ele>448.596358</ele>
        <time>2021-11-15T20:14:34.808Z</time>
      </trkpt>
      <trkpt lat="41.09426" lon="41.81341">
        <ele>450.970213</ele>
        <time>2021-11-15T20:15:36.137Z</time>
      </trkpt>
      <trkpt lat="41.08869" lon="41.81662">
        <ele>433.542734</ele>
        <time>2021-11-15T20:17:14.956Z</time>
      </trkpt>
      <trkpt lat="41.08825" lon="41.81666">
        <ele>431.220195</ele>
        <time>2021-11-15T20:17:21.321Z</time>
      </trkpt>
      <trkpt lat="41.08733" lon="41.81644">
        <ele>425.127201</ele>
        <time>2021-11-15T20:17:34.699Z</time>
      </trkpt>
      <trkpt lat="41.08704" lon="41.81629">
        <ele>423.059496</ele>
        <time>2021-11-15T20:17:39.102Z</time>
      </trkpt>
      <trkpt lat="41.08606" lon="41.81495">
        <ele>413.27381</ele>
        <time>2021-11-15T20:18:00.717Z</time>
      </trkpt>
      <trkpt lat="41.0855" lon="41.81389">
        <ele>406.32464</ele>
        <time>2021-11-15T20:18:15.091Z</time>
      </trkpt>
      <trkpt lat="41.08522" lon="41.81287">
        <ele>400.644695</ele>
        <time>2021-11-15T20:18:26.614Z</time>
      </trkpt>
      <trkpt lat="41.085" lon="41.81206">
        <ele>396.163504</ele>
        <time>2021-11-15T20:18:35.936Z</time>
      </trkpt>
      <trkpt lat="41.08487" lon="41.8116">
        <ele>393.603911</ele>
        <time>2021-11-15T20:18:41.341Z</time>
      </trkpt>
      <trkpt lat="41.08428" lon="41.81007">
        <ele>387.681826</ele>
        <time>2021-11-15T20:19:01.036Z</time>
      </trkpt>
      <trkpt lat="41.08402" lon="41.80926">
        <ele>385.176113</ele>
        <time>2021-11-15T20:19:11.657Z</time>
      </trkpt>
      <trkpt lat="41.0837" lon="41.80848">
        <ele>384.852542</ele>
        <time>2021-11-15T20:19:22.547Z</time>
      </trkpt>
      <trkpt lat="41.08323" lon="41.80781">
        <ele>384.516905</ele>
        <time>2021-11-15T20:19:39.339Z</time>
      </trkpt>
      <trkpt lat="41.0829" lon="41.80748">
        <ele>384.75353</ele>
        <time>2021-11-15T20:19:53.662Z</time>
      </trkpt>
      <trkpt lat="41.08243" lon="41.80718">
        <ele>386.859944</ele>
        <time>2021-11-15T20:20:13.992Z</time>
      </trkpt>
      <trkpt lat="41.08188" lon="41.80698">
        <ele>389.197076</ele>
        <time>2021-11-15T20:20:37.488Z</time>
      </trkpt>
      <trkpt lat="41.08162" lon="41.80689">
        <ele>390.29594</ele>
        <time>2021-11-15T20:20:49.837Z</time>
      </trkpt>
      <trkpt lat="41.07982" lon="41.80547">
        <ele>397.317957</ele>
        <time>2021-11-15T20:22:07.382Z</time>
      </trkpt>
      <trkpt lat="41.07884" lon="41.80506">
        <ele>398.742461</ele>
        <time>2021-11-15T20:22:35.372Z</time>
      </trkpt>
      <trkpt lat="41.07673" lon="41.80366">
        <ele>401.304339</ele>
        <time>2021-11-15T20:23:39.428Z</time>
      </trkpt>
      <trkpt lat="41.07542" lon="41.80294">
        <ele>402.490575</ele>
        <time>2021-11-15T20:24:17.854Z</time>
      </trkpt>
      <trkpt lat="41.06955" lon="41.79991">
        <ele>404.617814</ele>
        <time>2021-11-15T20:26:55.890Z</time>
      </trkpt>
      <trkpt lat="41.06878" lon="41.79942">
        <ele>402.558633</ele>
        <time>2021-11-15T20:27:09.772Z</time>
      </trkpt>
      <trkpt lat="41.06811" lon="41.79915">
        <ele>400.921717</ele>
        <time>2021-11-15T20:27:20.863Z</time>
      </trkpt>
      <trkpt lat="41.06696" lon="41.79885">
        <ele>401.205865</ele>
        <time>2021-11-15T20:27:42.739Z</time>
      </trkpt>
      <trkpt lat="41.06539" lon="41.79828">
        <ele>405.998045</ele>
        <time>2021-11-15T20:28:45.263Z</time>
      </trkpt>
      <trkpt lat="41.06343" lon="41.79812">
        <ele>413.573746</ele>
        <time>2021-11-15T20:30:11.696Z</time>
      </trkpt>
      <trkpt lat="41.06297" lon="41.79821">
        <ele>415.164211</ele>
        <time>2021-11-15T20:30:24.001Z</time>
      </trkpt>
      <trkpt lat="41.0618" lon="41.79862">
        <ele>414.71736</ele>
        <time>2021-11-15T20:30:45.513Z</time>
      </trkpt>
      <trkpt lat="41.06146" lon="41.79868">
        <ele>414.419477</ele>
        <time>2021-11-15T20:30:50.920Z</time>
      </trkpt>
      <trkpt lat="41.05964" lon="41.7983">
        <ele>420.229504</ele>
        <time>2021-11-15T20:31:45.121Z</time>
      </trkpt>
      <trkpt lat="41.05928" lon="41.79805">
        <ele>422.560089</ele>
        <time>2021-11-15T20:32:12.268Z</time>
      </trkpt>
      <trkpt lat="41.05878" lon="41.79779">
        <ele>430.360495</ele>
        <time>2021-11-15T20:32:56.275Z</time>
      </trkpt>
      <trkpt lat="41.0556" lon="41.79819">
        <ele>472.123958</ele>
        <time>2021-11-15T20:37:32.928Z</time>
      </trkpt>
      <trkpt lat="41.05531" lon="41.79836">
        <ele>469.938851</ele>
        <time>2021-11-15T20:37:38.090Z</time>
      </trkpt>
      <trkpt lat="41.05496" lon="41.79855">
        <ele>467.242315</ele>
        <time>2021-11-15T20:37:43.562Z</time>
      </trkpt>
      <trkpt lat="41.05337" lon="41.79954">
        <ele>449.563227</ele>
        <time>2021-11-15T20:38:07.231Z</time>
      </trkpt>
      <trkpt lat="41.05311" lon="41.79962">
        <ele>445.993329</ele>
        <time>2021-11-15T20:38:10.698Z</time>
      </trkpt>
      <trkpt lat="41.05287" lon="41.79962">
        <ele>442.791017</ele>
        <time>2021-11-15T20:38:13.841Z</time>
      </trkpt>
      <trkpt lat="41.05063" lon="41.7991">
        <ele>423.187874</ele>
        <time>2021-11-15T20:38:47.172Z</time>
      </trkpt>
      <trkpt lat="41.04908" lon="41.79886">
        <ele>421.837133</ele>
        <time>2021-11-15T20:39:21.191Z</time>
      </trkpt>
      <trkpt lat="41.04841" lon="41.79903">
        <ele>422.256128</ele>
        <time>2021-11-15T20:39:44.384Z</time>
      </trkpt>
      <trkpt lat="41.04565" lon="41.79927">
        <ele>423.538482</ele>
        <time>2021-11-15T20:40:58.776Z</time>
      </trkpt>
      <trkpt lat="41.04491" lon="41.79941">
        <ele>420.882125</ele>
        <time>2021-11-15T20:41:10.800Z</time>
      </trkpt>
      <trkpt lat="41.04388" lon="41.79959">
        <ele>413.991174</ele>
        <time>2021-11-15T20:41:25.764Z</time>
      </trkpt>
      <trkpt lat="41.04379" lon="41.79962">
        <ele>413.374334</ele>
        <time>2021-11-15T20:41:27.092Z</time>
      </trkpt>
      <trkpt lat="41.04357" lon="41.79972">
        <ele>411.866138</ele>
        <time>2021-11-15T20:41:30.196Z</time>
      </trkpt>
      <trkpt lat="41.0433" lon="41.79992">
        <ele>409.105921</ele>
        <time>2021-11-15T20:41:34.413Z</time>
      </trkpt>
      <trkpt lat="41.04299" lon="41.80001">
        <ele>406.120806</ele>
        <time>2021-11-15T20:41:38.644Z</time>
      </trkpt>
      <trkpt lat="41.04196" lon="41.80011">
        <ele>396.526464</ele>
        <time>2021-11-15T20:41:52.389Z</time>
      </trkpt>
      <trkpt lat="41.04128" lon="41.80013">
        <ele>397.087898</ele>
        <time>2021-11-15T20:42:03.516Z</time>
      </trkpt>
      <trkpt lat="41.04057" lon="41.80073">
        <ele>401.093459</ele>
        <time>2021-11-15T20:42:37.507Z</time>
      </trkpt>
      <trkpt lat="41.03938" lon="41.80155">
        <ele>415.812039</ele>
        <time>2021-11-15T20:44:31.619Z</time>
      </trkpt>
      <trkpt lat="41.03878" lon="41.8019">
        <ele>425.24289</ele>
        <time>2021-11-15T20:45:26.829Z</time>
      </trkpt>
      <trkpt lat="41.03846" lon="41.80212">
        <ele>429.744527</ele>
        <time>2021-11-15T20:45:53.013Z</time>
      </trkpt>
      <trkpt lat="41.03825" lon="41.80217">
        <ele>431.211881</ele>
        <time>2021-11-15T20:46:07.265Z</time>
      </trkpt>
      <trkpt lat="41.03763" lon="41.80179">
        <ele>436.033998</ele>
        <time>2021-11-15T20:46:44.259Z</time>
      </trkpt>
      <trkpt lat="41.03736" lon="41.80173">
        <ele>437.991736</ele>
        <time>2021-11-15T20:46:55.869Z</time>
      </trkpt>
      <trkpt lat="41.03678" lon="41.80177">
        <ele>441.931592</ele>
        <time>2021-11-15T20:47:15.189Z</time>
      </trkpt>
      <trkpt lat="41.03505" lon="41.80211">
        <ele>448.159063</ele>
        <time>2021-11-15T20:48:16.204Z</time>
      </trkpt>
      <trkpt lat="41.03443" lon="41.80223">
        <ele>452.593613</ele>
        <time>2021-11-15T20:48:45.232Z</time>
      </trkpt>
      <trkpt lat="41.03431" lon="41.80225">
        <ele>453.48225</ele>
        <time>2021-11-15T20:48:53.642Z</time>
      </trkpt>
      <trkpt lat="41.03388" lon="41.8022">
        <ele>456.59137</ele>
        <time>2021-11-15T20:49:17.201Z</time>
      </trkpt>
      <trkpt lat="41.03304" lon="41.8017">
        <ele>462.831416</ele>
        <time>2021-11-15T20:50:08.024Z</time>
      </trkpt>
      <trkpt lat="41.03258" lon="41.80162">
        <ele>465.567729</ele>
        <time>2021-11-15T20:50:30.049Z</time>
      </trkpt>
      <trkpt lat="41.03174" lon="41.80172">
        <ele>470.662808</ele>
        <time>2021-11-15T20:51:06.757Z</time>
      </trkpt>
      <trkpt lat="41.03061" lon="41.80122">
        <ele>476.162451</ele>
        <time>2021-11-15T20:51:54.065Z</time>
      </trkpt>
      <trkpt lat="41.03009" lon="41.80118">
        <ele>478.44201</ele>
        <time>2021-11-15T20:52:14.894Z</time>
      </trkpt>
      <trkpt lat="41.02969" lon="41.80098">
        <ele>480.238431</ele>
        <time>2021-11-15T20:52:31.502Z</time>
      </trkpt>
      <trkpt lat="41.02901" lon="41.80028">
        <ele>483.626727</ele>
        <time>2021-11-15T20:53:03.283Z</time>
      </trkpt>
      <trkpt lat="41.02795" lon="41.79867">
        <ele>491.025227</ele>
        <time>2021-11-15T20:54:05.565Z</time>
      </trkpt>
      <trkpt lat="41.02776" lon="41.798">
        <ele>493.831679</ele>
        <time>2021-11-15T20:54:29.092Z</time>
      </trkpt>
      <trkpt lat="41.02761" lon="41.7972">
        <ele>497.020272</ele>
        <time>2021-11-15T20:55:00.168Z</time>
      </trkpt>
      <trkpt lat="41.02732" lon="41.79666">
        <ele>499.490028</ele>
        <time>2021-11-15T20:55:25.512Z</time>
      </trkpt>
      <trkpt lat="41.02692" lon="41.79617">
        <ele>502.187755</ele>
        <time>2021-11-15T20:55:50.862Z</time>
      </trkpt>
      <trkpt lat="41.02661" lon="41.79579">
        <ele>504.236569</ele>
        <time>2021-11-15T20:56:08.226Z</time>
      </trkpt>
      <trkpt lat="41.02408" lon="41.79236">
        <ele>500.366373</ele>
        <time>2021-11-15T20:57:18.869Z</time>
      </trkpt>
      <trkpt lat="41.02372" lon="41.79207">
        <ele>498.645004</ele>
        <time>2021-11-15T20:57:25.272Z</time>
      </trkpt>
      <trkpt lat="41.02333" lon="41.79179">
        <ele>496.441776</ele>
        <time>2021-11-15T20:57:32.083Z</time>
      </trkpt>
      <trkpt lat="41.02287" lon="41.79156">
        <ele>494.010656</ele>
        <time>2021-11-15T20:57:39.653Z</time>
      </trkpt>
      <trkpt lat="41.02219" lon="41.79122">
        <ele>489.106419</ele>
        <time>2021-11-15T20:57:51.070Z</time>
      </trkpt>
      <trkpt lat="41.02173" lon="41.79085">
        <ele>481.986586</ele>
        <time>2021-11-15T20:57:58.681Z</time>
      </trkpt>
      <trkpt lat="41.02125" lon="41.79011">
        <ele>472.258376</ele>
        <time>2021-11-15T20:58:08.711Z</time>
      </trkpt>
      <trkpt lat="41.02099" lon="41.78965">
        <ele>466.061957</ele>
        <time>2021-11-15T20:58:14.301Z</time>
      </trkpt>
      <trkpt lat="41.02046" lon="41.78878">
        <ele>450.191246</ele>
        <time>2021-11-15T20:58:24.954Z</time>
      </trkpt>
      <trkpt lat="41.01966" lon="41.78747">
        <ele>429.828306</ele>
        <time>2021-11-15T20:58:41.271Z</time>
      </trkpt>
      <trkpt lat="41.01927" lon="41.78689">
        <ele>424.316539</ele>
        <time>2021-11-15T20:58:49.076Z</time>
      </trkpt>
      <trkpt lat="41.01873" lon="41.78616">
        <ele>417.083001</ele>
        <time>2021-11-15T20:58:59.693Z</time>
      </trkpt>
      <trkpt lat="41.01776" lon="41.78581">
        <ele>430.730027</ele>
        <time>2021-11-15T20:59:58.294Z</time>
      </trkpt>
      <trkpt lat="41.01757" lon="41.78565">
        <ele>434.046622</ele>
        <time>2021-11-15T21:00:19.534Z</time>
      </trkpt>
      <trkpt lat="41.01728" lon="41.78561">
        <ele>438.441758</ele>
        <time>2021-11-15T21:00:53.202Z</time>
      </trkpt>
      <trkpt lat="41.01673" lon="41.78559">
        <ele>449.106355</ele>
        <time>2021-11-15T21:01:55.926Z</time>
      </trkpt>
      <trkpt lat="41.01629" lon="41.78565">
        <ele>460.762421</ele>
        <time>2021-11-15T21:02:46.516Z</time>
      </trkpt>
      <trkpt lat="41.01598" lon="41.78561">
        <ele>469.033032</ele>
        <time>2021-11-15T21:03:22.653Z</time>
      </trkpt>
      <trkpt lat="41.01576" lon="41.78555">
        <ele>475.10125</ele>
        <time>2021-11-15T21:03:49.304Z</time>
      </trkpt>
      <trkpt lat="41.01491" lon="41.78436">
        <ele>495.85557</ele>
        <time>2021-11-15T21:05:54.884Z</time>
      </trkpt>
      <trkpt lat="41.01464" lon="41.78414">
        <ele>498.227423</ele>
        <time>2021-11-15T21:06:07.905Z</time>
      </trkpt>
      <trkpt lat="41.01402" lon="41.7838">
        <ele>503.366804</ele>
        <time>2021-11-15T21:06:25.914Z</time>
      </trkpt>
      <trkpt lat="41.01255" lon="41.78269">
        <ele>496.214911</ele>
        <time>2021-11-15T21:06:51.344Z</time>
      </trkpt>
      <trkpt lat="41.01204" lon="41.78218">
        <ele>491.9924</ele>
        <time>2021-11-15T21:07:00.031Z</time>
      </trkpt>
      <trkpt lat="41.01189" lon="41.78122">
        <ele>486.415338</ele>
        <time>2021-11-15T21:07:10.201Z</time>
      </trkpt>
      <trkpt lat="41.01196" lon="41.78091">
        <ele>484.578566</ele>
        <time>2021-11-15T21:07:13.616Z</time>
      </trkpt>
      <trkpt lat="41.0122" lon="41.78039">
        <ele>481.117453</ele>
        <time>2021-11-15T21:07:20.250Z</time>
      </trkpt>
      <trkpt lat="41.01231" lon="41.77993">
        <ele>481.96427</ele>
        <time>2021-11-15T21:07:26.387Z</time>
      </trkpt>
      <trkpt lat="41.01231" lon="41.77967">
        <ele>482.414168</ele>
        <time>2021-11-15T21:07:30.782Z</time>
      </trkpt>
      <trkpt lat="41.0123" lon="41.7794">
        <ele>482.885474</ele>
        <time>2021-11-15T21:07:36.006Z</time>
      </trkpt>
      <trkpt lat="41.01203" lon="41.77874">
        <ele>484.177802</ele>
        <time>2021-11-15T21:07:57.921Z</time>
      </trkpt>
      <trkpt lat="41.01117" lon="41.77825">
        <ele>489.166962</ele>
        <time>2021-11-15T21:08:47.066Z</time>
      </trkpt>
      <trkpt lat="41.01061" lon="41.77819">
        <ele>493.871694</ele>
        <time>2021-11-15T21:09:21.123Z</time>
      </trkpt>
      <trkpt lat="41.00947" lon="41.77822">
        <ele>501.384357</ele>
        <time>2021-11-15T21:10:27.244Z</time>
      </trkpt>
      <trkpt lat="41.00849" lon="41.77801">
        <ele>504.045142</ele>
        <time>2021-11-15T21:11:04.177Z</time>
      </trkpt>
      <trkpt lat="41.00812" lon="41.77774">
        <ele>505.170032</ele>
        <time>2021-11-15T21:11:11.874Z</time>
      </trkpt>
      <trkpt lat="41.00734" lon="41.77693">
        <ele>491.921558</ele>
        <time>2021-11-15T21:11:25.788Z</time>
      </trkpt>
      <trkpt lat="41.0066" lon="41.77561">
        <ele>471.155191</ele>
        <time>2021-11-15T21:11:41.420Z</time>
      </trkpt>
      <trkpt lat="41.00634" lon="41.77485">
        <ele>456.602436</ele>
        <time>2021-11-15T21:11:49.412Z</time>
      </trkpt>
      <trkpt lat="41.00631" lon="41.77461">
        <ele>452.463519</ele>
        <time>2021-11-15T21:11:51.692Z</time>
      </trkpt>
      <trkpt lat="41.00607" lon="41.77327">
        <ele>433.908146</ele>
        <time>2021-11-15T21:12:04.872Z</time>
      </trkpt>
      <trkpt lat="41.00577" lon="41.7721">
        <ele>423.303932</ele>
        <time>2021-11-15T21:12:17.546Z</time>
      </trkpt>
      <trkpt lat="41.00557" lon="41.77158">
        <ele>418.656708</ele>
        <time>2021-11-15T21:12:25.300Z</time>
      </trkpt>
      <trkpt lat="41.00524" lon="41.77102">
        <ele>417.017563</ele>
        <time>2021-11-15T21:12:35.651Z</time>
      </trkpt>
      <trkpt lat="41.00513" lon="41.77083">
        <ele>416.447748</ele>
        <time>2021-11-15T21:12:39.623Z</time>
      </trkpt>
      <trkpt lat="41.00504" lon="41.77065">
        <ele>415.947394</ele>
        <time>2021-11-15T21:12:43.707Z</time>
      </trkpt>
      <trkpt lat="41.00419" lon="41.76906">
        <ele>408.341554</ele>
        <time>2021-11-15T21:13:07.272Z</time>
      </trkpt>
      <trkpt lat="41.00379" lon="41.76832">
        <ele>402.611508</ele>
        <time>2021-11-15T21:13:16.480Z</time>
      </trkpt>
      <trkpt lat="41.00359" lon="41.76796">
        <ele>399.854566</ele>
        <time>2021-11-15T21:13:20.997Z</time>
      </trkpt>
      <trkpt lat="41.00326" lon="41.76752">
        <ele>397.808031</ele>
        <time>2021-11-15T21:13:27.595Z</time>
      </trkpt>
      <trkpt lat="41.00297" lon="41.76679">
        <ele>396.575922</ele>
        <time>2021-11-15T21:13:37.126Z</time>
      </trkpt>
      <trkpt lat="41.00287" lon="41.76637">
        <ele>395.915414</ele>
        <time>2021-11-15T21:13:47.100Z</time>
      </trkpt>
      <trkpt lat="41.00289" lon="41.7657">
        <ele>394.908404</ele>
        <time>2021-11-15T21:14:05.003Z</time>
      </trkpt>
      <trkpt lat="41.00267" lon="41.76507">
        <ele>395.115729</ele>
        <time>2021-11-15T21:14:22.229Z</time>
      </trkpt>
      <trkpt lat="41.00234" lon="41.76445">
        <ele>395.473469</ele>
        <time>2021-11-15T21:14:38.732Z</time>
      </trkpt>
      <trkpt lat="41.00191" lon="41.76394">
        <ele>395.835788</ele>
        <time>2021-11-15T21:14:49.600Z</time>
      </trkpt>
      <trkpt lat="41.00105" lon="41.76251">
        <ele>395.325328</ele>
        <time>2021-11-15T21:15:13.744Z</time>
      </trkpt>
      <trkpt lat="41.00075" lon="41.76209">
        <ele>395.104691</ele>
        <time>2021-11-15T21:15:24.604Z</time>
      </trkpt>
      <trkpt lat="41.00032" lon="41.76187">
        <ele>396.861095</ele>
        <time>2021-11-15T21:15:40.716Z</time>
      </trkpt>
      <trkpt lat="40.99969" lon="41.7616">
        <ele>400.823553</ele>
        <time>2021-11-15T21:16:10.023Z</time>
      </trkpt>
      <trkpt lat="40.99845" lon="41.76163">
        <ele>409.091039</ele>
        <time>2021-11-15T21:17:20.528Z</time>
      </trkpt>
      <trkpt lat="40.99787" lon="41.76182">
        <ele>413.880339</ele>
        <time>2021-11-15T21:17:55.676Z</time>
      </trkpt>
      <trkpt lat="40.99716" lon="41.76241">
        <ele>420.264579</ele>
        <time>2021-11-15T21:18:47.277Z</time>
      </trkpt>
      <trkpt lat="40.99674" lon="41.76417">
        <ele>420.5115</ele>
        <time>2021-11-15T21:19:22.939Z</time>
      </trkpt>
      <trkpt lat="40.99652" lon="41.76542">
        <ele>417.839529</ele>
        <time>2021-11-15T21:19:36.947Z</time>
      </trkpt>
      <trkpt lat="40.99641" lon="41.76563">
        <ele>416.97062</ele>
        <time>2021-11-15T21:19:40.418Z</time>
      </trkpt>
      <trkpt lat="40.99629" lon="41.76576">
        <ele>416.289279</ele>
        <time>2021-11-15T21:19:42.432Z</time>
      </trkpt>
      <trkpt lat="40.9959" lon="41.76579">
        <ele>414.534846</ele>
        <time>2021-11-15T21:19:48.115Z</time>
      </trkpt>
      <trkpt lat="40.99551" lon="41.76593">
        <ele>412.722063</ele>
        <time>2021-11-15T21:19:54.642Z</time>
      </trkpt>
      <trkpt lat="40.99419" lon="41.76671">
        <ele>413.334471</ele>
        <time>2021-11-15T21:20:40.013Z</time>
      </trkpt>
      <trkpt lat="40.99398" lon="41.76678">
        <ele>413.46638</ele>
        <time>2021-11-15T21:20:45.159Z</time>
      </trkpt>
      <trkpt lat="40.99375" lon="41.76676">
        <ele>413.378876</ele>
        <time>2021-11-15T21:20:50.115Z</time>
      </trkpt>
      <trkpt lat="40.99364" lon="41.76676">
        <ele>412.951486</ele>
        <time>2021-11-15T21:20:51.935Z</time>
      </trkpt>
      <trkpt lat="40.99327" lon="41.76651">
        <ele>411.365661</ele>
        <time>2021-11-15T21:20:58.715Z</time>
      </trkpt>
      <trkpt lat="40.99271" lon="41.76556">
        <ele>407.830825</ele>
        <time>2021-11-15T21:21:12.109Z</time>
      </trkpt>
      <trkpt lat="40.99151" lon="41.76403">
        <ele>403.960601</ele>
        <time>2021-11-15T21:21:38.757Z</time>
      </trkpt>
      <trkpt lat="40.99123" lon="41.76351">
        <ele>403.174421</ele>
        <time>2021-11-15T21:21:53.198Z</time>
      </trkpt>
      <trkpt lat="40.98977" lon="41.76129">
        <ele>409.795814</ele>
        <time>2021-11-15T21:23:15.558Z</time>
      </trkpt>
      <trkpt lat="40.98873" lon="41.75995">
        <ele>413.649983</ele>
        <time>2021-11-15T21:24:03.018Z</time>
      </trkpt>
      <trkpt lat="40.98798" lon="41.75959">
        <ele>415.434143</ele>
        <time>2021-11-15T21:24:28.756Z</time>
      </trkpt>
      <trkpt lat="40.98509" lon="41.75874">
        <ele>421.544205</ele>
        <time>2021-11-15T21:26:03.163Z</time>
      </trkpt>
      <trkpt lat="40.98024" lon="41.7579">
        <ele>426.024665</ele>
        <time>2021-11-15T21:28:18.941Z</time>
      </trkpt>
      <trkpt lat="40.97995" lon="41.75799">
        <ele>425.9719</ele>
        <time>2021-11-15T21:28:23.583Z</time>
      </trkpt>
      <trkpt lat="40.97956" lon="41.75806">
        <ele>425.342339</ele>
        <time>2021-11-15T21:28:29.858Z</time>
      </trkpt>
      <trkpt lat="40.97851" lon="41.75794">
        <ele>423.618847</ele>
        <time>2021-11-15T21:28:47.433Z</time>
      </trkpt>
      <trkpt lat="40.97761" lon="41.75793">
        <ele>425.256209</ele>
        <time>2021-11-15T21:29:15.124Z</time>
      </trkpt>
      <trkpt lat="40.97663" lon="41.75761">
        <ele>428.781551</ele>
        <time>2021-11-15T21:29:59.026Z</time>
      </trkpt>
      <trkpt lat="40.96853" lon="41.75536">
        <ele>444.653694</ele>
        <time>2021-11-15T21:34:48.770Z</time>
      </trkpt>
      <trkpt lat="40.96804" lon="41.75533">
        <ele>441.250505</ele>
        <time>2021-11-15T21:34:54.988Z</time>
      </trkpt>
      <trkpt lat="40.96716" lon="41.75564">
        <ele>432.736956</ele>
        <time>2021-11-15T21:35:06.679Z</time>
      </trkpt>
      <trkpt lat="40.96625" lon="41.75605">
        <ele>422.055265</ele>
        <time>2021-11-15T21:35:19.301Z</time>
      </trkpt>
      <trkpt lat="40.96425" lon="41.75694">
        <ele>419.549912</ele>
        <time>2021-11-15T21:36:17.498Z</time>
      </trkpt>
      <trkpt lat="40.96409" lon="41.757">
        <ele>419.54601</ele>
        <time>2021-11-15T21:36:23.724Z</time>
      </trkpt>
      <trkpt lat="40.96328" lon="41.75731">
        <ele>419.442048</ele>
        <time>2021-11-15T21:36:46.143Z</time>
      </trkpt>
      <trkpt lat="40.96269" lon="41.75756">
        <ele>419.366949</ele>
        <time>2021-11-15T21:36:57.847Z</time>
      </trkpt>
      <trkpt lat="40.96236" lon="41.75759">
        <ele>418.93904</ele>
        <time>2021-11-15T21:37:03.304Z</time>
      </trkpt>
      <trkpt lat="40.95819" lon="41.75674">
        <ele>408.271031</ele>
        <time>2021-11-15T21:38:12.960Z</time>
      </trkpt>
      <trkpt lat="40.95771" lon="41.75655">
        <ele>407.823863</ele>
        <time>2021-11-15T21:38:22.525Z</time>
      </trkpt>
      <trkpt lat="40.9576" lon="41.75651">
        <ele>407.726588</ele>
        <time>2021-11-15T21:38:26.280Z</time>
      </trkpt>
      <trkpt lat="40.95665" lon="41.75598">
        <ele>408.322951</ele>
        <time>2021-11-15T21:38:57.272Z</time>
      </trkpt>
      <trkpt lat="40.95623" lon="41.75592">
        <ele>409.005186</ele>
        <time>2021-11-15T21:39:11.690Z</time>
      </trkpt>
      <trkpt lat="40.95611" lon="41.75596">
        <ele>409.205228</ele>
        <time>2021-11-15T21:39:16.811Z</time>
      </trkpt>
      <trkpt lat="40.95585" lon="41.75607">
        <ele>409.645492</ele>
        <time>2021-11-15T21:39:24.649Z</time>
      </trkpt>
      <trkpt lat="40.95457" lon="41.75679">
        <ele>410.169484</ele>
        <time>2021-11-15T21:39:52.765Z</time>
      </trkpt>
      <trkpt lat="40.95421" lon="41.75719">
        <ele>410.134609</ele>
        <time>2021-11-15T21:40:01.738Z</time>
      </trkpt>
      <trkpt lat="40.95409" lon="41.75752">
        <ele>410.114566</ele>
        <time>2021-11-15T21:40:06.954Z</time>
      </trkpt>
      <trkpt lat="40.9539" lon="41.75923">
        <ele>416.895366</ele>
        <time>2021-11-15T21:40:55.093Z</time>
      </trkpt>
      <trkpt lat="40.95384" lon="41.76064">
        <ele>424.682106</ele>
        <time>2021-11-15T21:42:04.799Z</time>
      </trkpt>
      <trkpt lat="40.95382" lon="41.7609">
        <ele>426.488183</ele>
        <time>2021-11-15T21:42:18.182Z</time>
      </trkpt>
      <trkpt lat="40.95378" lon="41.76118">
        <ele>428.407739</ele>
        <time>2021-11-15T21:42:31.852Z</time>
      </trkpt>
      <trkpt lat="40.95362" lon="41.76152">
        <ele>431.208772</ele>
        <time>2021-11-15T21:42:51.073Z</time>
      </trkpt>
      <trkpt lat="40.95199" lon="41.76219">
        <ele>440.361101</ele>
        <time>2021-11-15T21:44:13.131Z</time>
      </trkpt>
      <trkpt lat="40.95157" lon="41.76214">
        <ele>441.880964</ele>
        <time>2021-11-15T21:44:21.859Z</time>
      </trkpt>
      <trkpt lat="40.95081" lon="41.76162">
        <ele>441.460623</ele>
        <time>2021-11-15T21:44:36.329Z</time>
      </trkpt>
      <trkpt lat="40.95041" lon="41.76157">
        <ele>440.723548</ele>
        <time>2021-11-15T21:44:42.573Z</time>
      </trkpt>
      <trkpt lat="40.94997" lon="41.76163">
        <ele>439.909363</ele>
        <time>2021-11-15T21:44:49.681Z</time>
      </trkpt>
      <trkpt lat="40.94902" lon="41.76227">
        <ele>443.592479</ele>
        <time>2021-11-15T21:45:20.063Z</time>
      </trkpt>
      <trkpt lat="40.94813" lon="41.76308">
        <ele>449.701281</ele>
        <time>2021-11-15T21:46:23.254Z</time>
      </trkpt>
      <trkpt lat="40.94796" lon="41.76316">
        <ele>450.620521</ele>
        <time>2021-11-15T21:46:37.586Z</time>
      </trkpt>
      <trkpt lat="40.94784" lon="41.76322">
        <ele>451.237781</ele>
        <time>2021-11-15T21:46:43.150Z</time>
      </trkpt>
      <trkpt lat="40.94659" lon="41.76364">
        <ele>457.643021</ele>
        <time>2021-11-15T21:47:48.385Z</time>
      </trkpt>
      <trkpt lat="40.94523" lon="41.76456">
        <ele>446.379632</ele>
        <time>2021-11-15T21:48:09.785Z</time>
      </trkpt>
      <trkpt lat="40.94476" lon="41.76471">
        <ele>441.900311</ele>
        <time>2021-11-15T21:48:16.108Z</time>
      </trkpt>
      <trkpt lat="40.94457" lon="41.76471">
        <ele>439.671059</ele>
        <time>2021-11-15T21:48:18.522Z</time>
      </trkpt>
      <trkpt lat="40.94422" lon="41.7647">
        <ele>435.427213</ele>
        <time>2021-11-15T21:48:23.069Z</time>
      </trkpt>
      <trkpt lat="40.94354" lon="41.76437">
        <ele>426.768167</ele>
        <time>2021-11-15T21:48:32.368Z</time>
      </trkpt>
      <trkpt lat="40.94249" lon="41.76383">
        <ele>427.399537</ele>
        <time>2021-11-15T21:48:50.771Z</time>
      </trkpt>
      <trkpt lat="40.94154" lon="41.76353">
        <ele>437.201691</ele>
        <time>2021-11-15T21:50:12.345Z</time>
      </trkpt>
      <trkpt lat="40.94136" lon="41.76348">
        <ele>439.057728</ele>
        <time>2021-11-15T21:50:32.914Z</time>
      </trkpt>
      <trkpt lat="40.94071" lon="41.7634">
        <ele>457.398678</ele>
        <time>2021-11-15T21:51:49.069Z</time>
      </trkpt>
      <trkpt lat="40.94054" lon="41.76337">
        <ele>461.960284</ele>
        <time>2021-11-15T21:52:08.024Z</time>
      </trkpt>
      <trkpt lat="40.94029" lon="41.76334">
        <ele>468.954086</ele>
        <time>2021-11-15T21:52:37.308Z</time>
      </trkpt>
      <trkpt lat="40.93999" lon="41.76343">
        <ele>477.676279</ele>
        <time>2021-11-15T21:53:13.607Z</time>
      </trkpt>
      <trkpt lat="40.93938" lon="41.7638">
        <ele>489.744244</ele>
        <time>2021-11-15T21:54:30.142Z</time>
      </trkpt>
      <trkpt lat="40.93915" lon="41.76385">
        <ele>490.247781</ele>
        <time>2021-11-15T21:54:54.894Z</time>
      </trkpt>
      <trkpt lat="40.93896" lon="41.76385">
        <ele>490.638863</ele>
        <time>2021-11-15T21:55:15.847Z</time>
      </trkpt>
      <trkpt lat="40.92703" lon="41.76024">
        <ele>511.015258</ele>
        <time>2021-11-15T22:00:26.303Z</time>
      </trkpt>
      <trkpt lat="40.92671" lon="41.76015">
        <ele>509.438668</ele>
        <time>2021-11-15T22:00:31.381Z</time>
      </trkpt>
      <trkpt lat="40.92626" lon="41.75993">
        <ele>507.068704</ele>
        <time>2021-11-15T22:00:39.126Z</time>
      </trkpt>
      <trkpt lat="40.92604" lon="41.75983">
        <ele>505.926693</ele>
        <time>2021-11-15T22:00:42.425Z</time>
      </trkpt>
      <trkpt lat="40.92576" lon="41.7596">
        <ele>504.342024</ele>
        <time>2021-11-15T22:00:47.102Z</time>
      </trkpt>
      <trkpt lat="40.92555" lon="41.75932">
        <ele>502.32244</ele>
        <time>2021-11-15T22:00:51.252Z</time>
      </trkpt>
      <trkpt lat="40.92524" lon="41.75861">
        <ele>497.427587</ele>
        <time>2021-11-15T22:00:59.698Z</time>
      </trkpt>
      <trkpt lat="40.92493" lon="41.75818">
        <ele>493.901015</ele>
        <time>2021-11-15T22:01:05.744Z</time>
      </trkpt>
      <trkpt lat="40.92472" lon="41.75798">
        <ele>491.842651</ele>
        <time>2021-11-15T22:01:09.491Z</time>
      </trkpt>
      <trkpt lat="40.92441" lon="41.7578">
        <ele>489.640349</ele>
        <time>2021-11-15T22:01:14.604Z</time>
      </trkpt>
      <trkpt lat="40.92374" lon="41.75749">
        <ele>489.146721</ele>
        <time>2021-11-15T22:01:27.828Z</time>
      </trkpt>
      <trkpt lat="40.92278" lon="41.75685">
        <ele>488.474319</ele>
        <time>2021-11-15T22:01:54.270Z</time>
      </trkpt>
      <trkpt lat="40.92239" lon="41.75655">
        <ele>488.807087</ele>
        <time>2021-11-15T22:02:10.137Z</time>
      </trkpt>
      <trkpt lat="40.9217" lon="41.75529">
        <ele>489.679594</ele>
        <time>2021-11-15T22:02:42.066Z</time>
      </trkpt>
      <trkpt lat="40.92111" lon="41.75501">
        <ele>488.70195</ele>
        <time>2021-11-15T22:02:52.247Z</time>
      </trkpt>
      <trkpt lat="40.92087" lon="41.75472">
        <ele>488.000376</ele>
        <time>2021-11-15T22:02:57.661Z</time>
      </trkpt>
      <trkpt lat="40.92033" lon="41.75355">
        <ele>485.814205</ele>
        <time>2021-11-15T22:03:15.884Z</time>
      </trkpt>
      <trkpt lat="40.92022" lon="41.75288">
        <ele>485.033392</ele>
        <time>2021-11-15T22:03:24.896Z</time>
      </trkpt>
      <trkpt lat="40.91999" lon="41.75243">
        <ele>484.423521</ele>
        <time>2021-11-15T22:03:31.984Z</time>
      </trkpt>
      <trkpt lat="40.91931" lon="41.75168">
        <ele>483.396156</ele>
        <time>2021-11-15T22:03:47.877Z</time>
      </trkpt>
      <trkpt lat="40.91815" lon="41.74988">
        <ele>487.767534</ele>
        <time>2021-11-15T22:04:45.195Z</time>
      </trkpt>
      <trkpt lat="40.91801" lon="41.74947">
        <ele>489.228921</ele>
        <time>2021-11-15T22:05:02.693Z</time>
      </trkpt>
      <trkpt lat="40.918" lon="41.74917">
        <ele>490.195642</ele>
        <time>2021-11-15T22:05:14.332Z</time>
      </trkpt>
      <trkpt lat="40.91802" lon="41.74877">
        <ele>491.467939</ele>
        <time>2021-11-15T22:05:31.591Z</time>
      </trkpt>
      <trkpt lat="40.91393" lon="41.73941">
        <ele>509.793933</ele>
        <time>2021-11-15T22:09:47.235Z</time>
      </trkpt>
      <trkpt lat="40.91356" lon="41.73888">
        <ele>511.219726</ele>
        <time>2021-11-15T22:10:00.277Z</time>
      </trkpt>
      <trkpt lat="40.91328" lon="41.73854">
        <ele>512.190479</ele>
        <time>2021-11-15T22:10:10.866Z</time>
      </trkpt>
      <trkpt lat="40.91282" lon="41.73825">
        <ele>513.497538</ele>
        <time>2021-11-15T22:10:27.480Z</time>
      </trkpt>
      <trkpt lat="40.91256" lon="41.73802">
        <ele>514.519313</ele>
        <time>2021-11-15T22:10:39.712Z</time>
      </trkpt>
      <trkpt lat="40.91239" lon="41.73793">
        <ele>515.496313</ele>
        <time>2021-11-15T22:10:50.103Z</time>
      </trkpt>
      <trkpt lat="40.91206" lon="41.7377">
        <ele>517.583089</ele>
        <time>2021-11-15T22:11:10.939Z</time>
      </trkpt>
      <trkpt lat="40.91123" lon="41.73744">
        <ele>522.335373</ele>
        <time>2021-11-15T22:11:54.897Z</time>
      </trkpt>
      <trkpt lat="40.91093" lon="41.73726">
        <ele>524.096821</ele>
        <time>2021-11-15T22:12:11.375Z</time>
      </trkpt>
      <trkpt lat="40.90431" lon="41.73419">
        <ele>499.000563</ele>
        <time>2021-11-15T22:14:07.318Z</time>
      </trkpt>
      <trkpt lat="40.90304" lon="41.73356">
        <ele>493.511779</ele>
        <time>2021-11-15T22:14:27.949Z</time>
      </trkpt>
      <trkpt lat="40.90263" lon="41.73334">
        <ele>491.731053</ele>
        <time>2021-11-15T22:14:35.131Z</time>
      </trkpt>
      <trkpt lat="40.90109" lon="41.73265">
        <ele>487.509628</ele>
        <time>2021-11-15T22:15:03.532Z</time>
      </trkpt>
      <trkpt lat="40.90071" lon="41.73252">
        <ele>486.575838</ele>
        <time>2021-11-15T22:15:09.838Z</time>
      </trkpt>
      <trkpt lat="40.90005" lon="41.7324">
        <ele>485.062129</ele>
        <time>2021-11-15T22:15:20.939Z</time>
      </trkpt>
      <trkpt lat="40.8996" lon="41.73222">
        <ele>484.009103</ele>
        <time>2021-11-15T22:15:28.768Z</time>
      </trkpt>
      <trkpt lat="40.89935" lon="41.73205">
        <ele>483.38494</ele>
        <time>2021-11-15T22:15:33.478Z</time>
      </trkpt>
      <trkpt lat="40.89817" lon="41.73055">
        <ele>485.719705</ele>
        <time>2021-11-15T22:16:07.124Z</time>
      </trkpt>
      <trkpt lat="40.89727" lon="41.7295">
        <ele>493.221569</ele>
        <time>2021-11-15T22:17:18.866Z</time>
      </trkpt>
      <trkpt lat="40.89704" lon="41.72925">
        <ele>495.904807</ele>
        <time>2021-11-15T22:17:38.614Z</time>
      </trkpt>
      <trkpt lat="40.89686" lon="41.729">
        <ele>498.20733</ele>
        <time>2021-11-15T22:17:54.748Z</time>
      </trkpt>
      <trkpt lat="40.89658" lon="41.72866">
        <ele>501.672305</ele>
        <time>2021-11-15T22:18:20.210Z</time>
      </trkpt>
      <trkpt lat="40.89651" lon="41.72856">
        <ele>502.566959</ele>
        <time>2021-11-15T22:18:30.874Z</time>
      </trkpt>
      <trkpt lat="40.88928" lon="41.72171">
        <ele>522.843083</ele>
        <time>2021-11-15T22:23:01.216Z</time>
      </trkpt>
      <trkpt lat="40.88834" lon="41.72109">
        <ele>532.241267</ele>
        <time>2021-11-15T22:23:54.903Z</time>
      </trkpt>
      <trkpt lat="40.88793" lon="41.72054">
        <ele>538.159439</ele>
        <time>2021-11-15T22:24:41.470Z</time>
      </trkpt>
      <trkpt lat="40.88753" lon="41.71992">
        <ele>543.013231</ele>
        <time>2021-11-15T22:25:28.950Z</time>
      </trkpt>
      <trkpt lat="40.88747" lon="41.71986">
        <ele>543.447276</ele>
        <time>2021-11-15T22:25:35.418Z</time>
      </trkpt>
      <trkpt lat="40.88737" lon="41.71974">
        <ele>544.156913</ele>
        <time>2021-11-15T22:25:45.809Z</time>
      </trkpt>
      <trkpt lat="40.88729" lon="41.71965">
        <ele>544.72738</ele>
        <time>2021-11-15T22:25:53.862Z</time>
      </trkpt>
      <trkpt lat="40.8821" lon="41.7148">
        <ele>578.010217</ele>
        <time>2021-11-15T22:30:12.856Z</time>
      </trkpt>
      <trkpt lat="40.88187" lon="41.71431">
        <ele>579.680315</ele>
        <time>2021-11-15T22:30:31.317Z</time>
      </trkpt>
      <trkpt lat="40.88109" lon="41.71255">
        <ele>584.510552</ele>
        <time>2021-11-15T22:31:28.414Z</time>
      </trkpt>
      <trkpt lat="40.8757" lon="41.70729">
        <ele>581.851876</ele>
        <time>2021-11-15T22:33:51.035Z</time>
      </trkpt>
      <trkpt lat="40.86724" lon="41.70184">
        <ele>578.068447</ele>
        <time>2021-11-15T22:37:14.893Z</time>
      </trkpt>
      <trkpt lat="40.86655" lon="41.70113">
        <ele>577.905542</ele>
        <time>2021-11-15T22:37:36.684Z</time>
      </trkpt>
      <trkpt lat="40.86562" lon="41.7003">
        <ele>577.588926</ele>
        <time>2021-11-15T22:38:00.223Z</time>
      </trkpt>
      <trkpt lat="40.8652" lon="41.69999">
        <ele>576.543515</ele>
        <time>2021-11-15T22:38:09.017Z</time>
      </trkpt>
      <trkpt lat="40.86479" lon="41.69982">
        <ele>575.623316</ele>
        <time>2021-11-15T22:38:16.358Z</time>
      </trkpt>
      <trkpt lat="40.86435" lon="41.69978">
        <ele>574.676267</ele>
        <time>2021-11-15T22:38:23.611Z</time>
      </trkpt>
      <trkpt lat="40.86258" lon="41.7002">
        <ele>569.793051</ele>
        <time>2021-11-15T22:38:53.702Z</time>
      </trkpt>
      <trkpt lat="40.86176" lon="41.70034">
        <ele>566.538888</ele>
        <time>2021-11-15T22:39:07.527Z</time>
      </trkpt>
      <trkpt lat="40.86078" lon="41.70028">
        <ele>561.699591</ele>
        <time>2021-11-15T22:39:22.058Z</time>
      </trkpt>
      <trkpt lat="40.8587" lon="41.70025">
        <ele>551.980902</ele>
        <time>2021-11-15T22:39:54.248Z</time>
      </trkpt>
      <trkpt lat="40.85776" lon="41.70022">
        <ele>553.603465</ele>
        <time>2021-11-15T22:40:20.792Z</time>
      </trkpt>
      <trkpt lat="40.85728" lon="41.70024">
        <ele>554.781009</ele>
        <time>2021-11-15T22:40:39.476Z</time>
      </trkpt>
      <trkpt lat="40.856" lon="41.70002">
        <ele>560.000464</ele>
        <time>2021-11-15T22:41:33.876Z</time>
      </trkpt>
      <trkpt lat="40.85543" lon="41.69973">
        <ele>563.062489</ele>
        <time>2021-11-15T22:42:00.672Z</time>
      </trkpt>
      <trkpt lat="40.85495" lon="41.69941">
        <ele>565.358693</ele>
        <time>2021-11-15T22:42:22.762Z</time>
      </trkpt>
      <trkpt lat="40.85469" lon="41.69931">
        <ele>566.059314</ele>
        <time>2021-11-15T22:42:33.606Z</time>
      </trkpt>
      <trkpt lat="40.85437" lon="41.6993">
        <ele>566.866684</ele>
        <time>2021-11-15T22:42:46.364Z</time>
      </trkpt>
      <trkpt lat="40.85404" lon="41.69928">
        <ele>567.72159</ele>
        <time>2021-11-15T22:42:58.537Z</time>
      </trkpt>
      <trkpt lat="40.85237" lon="41.69856">
        <ele>568.521531</ele>
        <time>2021-11-15T22:43:39.929Z</time>
      </trkpt>
      <trkpt lat="40.8509" lon="41.69744">
        <ele>565.366161</ele>
        <time>2021-11-15T22:44:10.197Z</time>
      </trkpt>
      <trkpt lat="40.85046" lon="41.69699">
        <ele>563.964075</ele>
        <time>2021-11-15T22:44:19.911Z</time>
      </trkpt>
      <trkpt lat="40.85012" lon="41.69642">
        <ele>562.663023</ele>
        <time>2021-11-15T22:44:29.571Z</time>
      </trkpt>
      <trkpt lat="40.84851" lon="41.69241">
        <ele>557.03377</ele>
        <time>2021-11-15T22:45:33.018Z</time>
      </trkpt>
      <trkpt lat="40.84837" lon="41.69207">
        <ele>558.180673</ele>
        <time>2021-11-15T22:45:41.971Z</time>
      </trkpt>
      <trkpt lat="40.84803" lon="41.69123">
        <ele>561.112108</ele>
        <time>2021-11-15T22:46:09.338Z</time>
      </trkpt>
      <trkpt lat="40.84357" lon="41.68256">
        <ele>613.104372</ele>
        <time>2021-11-15T22:52:56.356Z</time>
      </trkpt>
      <trkpt lat="40.84333" lon="41.68197">
        <ele>612.318487</ele>
        <time>2021-11-15T22:53:11.358Z</time>
      </trkpt>
      <trkpt lat="40.84101" lon="41.67822">
        <ele>600.842833</ele>
        <time>2021-11-15T22:54:11.159Z</time>
      </trkpt>
      <trkpt lat="40.84071" lon="41.67792">
        <ele>599.683623</ele>
        <time>2021-11-15T22:54:17.119Z</time>
      </trkpt>
      <trkpt lat="40.84005" lon="41.67757">
        <ele>597.521474</ele>
        <time>2021-11-15T22:54:29.189Z</time>
      </trkpt>
      <trkpt lat="40.83933" lon="41.67733">
        <ele>596.534858</ele>
        <time>2021-11-15T22:54:44.295Z</time>
      </trkpt>
      <trkpt lat="40.83875" lon="41.6772">
        <ele>595.914679</ele>
        <time>2021-11-15T22:55:01.174Z</time>
      </trkpt>
      <trkpt lat="40.83763" lon="41.6771">
        <ele>592.49007</ele>
        <time>2021-11-15T22:55:19.472Z</time>
      </trkpt>
      <trkpt lat="40.8373" lon="41.67706">
        <ele>590.870512</ele>
        <time>2021-11-15T22:55:24.076Z</time>
      </trkpt>
      <trkpt lat="40.83712" lon="41.67694">
        <ele>589.853364</ele>
        <time>2021-11-15T22:55:26.861Z</time>
      </trkpt>
      <trkpt lat="40.8368" lon="41.6766">
        <ele>587.810538</ele>
        <time>2021-11-15T22:55:32.501Z</time>
      </trkpt>
      <trkpt lat="40.83583" lon="41.67577">
        <ele>589.133271</ele>
        <time>2021-11-15T22:55:54.969Z</time>
      </trkpt>
      <trkpt lat="40.8353" lon="41.67532">
        <ele>591.207591</ele>
        <time>2021-11-15T22:56:22.847Z</time>
      </trkpt>
      <trkpt lat="40.83501" lon="41.67513">
        <ele>592.337552</ele>
        <time>2021-11-15T22:56:43.131Z</time>
      </trkpt>
      <trkpt lat="40.83421" lon="41.67426">
        <ele>601.912313</ele>
        <time>2021-11-15T22:57:58.416Z</time>
      </trkpt>
      <trkpt lat="40.83394" lon="41.674">
        <ele>604.995874</ele>
        <time>2021-11-15T22:58:22.063Z</time>
      </trkpt>
      <trkpt lat="40.83307" lon="41.67342">
        <ele>610.362528</ele>
        <time>2021-11-15T22:58:56.500Z</time>
      </trkpt>
      <trkpt lat="40.83092" lon="41.67266">
        <ele>615.745914</ele>
        <time>2021-11-15T23:00:07.078Z</time>
      </trkpt>
      <trkpt lat="40.80876" lon="41.66625">
        <ele>657.012783</ele>
        <time>2021-11-15T23:11:37.391Z</time>
      </trkpt>
      <trkpt lat="40.80813" lon="41.6662">
        <ele>658.02962</ele>
        <time>2021-11-15T23:11:56.178Z</time>
      </trkpt>
      <trkpt lat="40.80751" lon="41.6663">
        <ele>659.018113</ele>
        <time>2021-11-15T23:12:14.201Z</time>
      </trkpt>
      <trkpt lat="40.80688" lon="41.66683">
        <ele>660.294112</ele>
        <time>2021-11-15T23:12:36.148Z</time>
      </trkpt>
      <trkpt lat="40.80645" lon="41.6674">
        <ele>661.359334</ele>
        <time>2021-11-15T23:12:54.106Z</time>
      </trkpt>
      <trkpt lat="40.7853" lon="41.69998">
        <ele>725.638744</ele>
        <time>2021-11-15T23:29:43.878Z</time>
      </trkpt>
      <trkpt lat="40.7787" lon="41.71919">
        <ele>766.063416</ele>
        <time>2021-11-15T23:38:37.167Z</time>
      </trkpt>
      <trkpt lat="40.77831" lon="41.72017">
        <ele>768.043656</ele>
        <time>2021-11-15T23:39:04.089Z</time>
      </trkpt>
      <trkpt lat="40.77802" lon="41.72071">
        <ele>768.769425</ele>
        <time>2021-11-15T23:39:20.166Z</time>
      </trkpt>
      <trkpt lat="40.77768" lon="41.72107">
        <ele>769.396581</ele>
        <time>2021-11-15T23:39:33.956Z</time>
      </trkpt>
      <trkpt lat="40.77721" lon="41.72128">
        <ele>770.113687</ele>
        <time>2021-11-15T23:39:51.518Z</time>
      </trkpt>
      <trkpt lat="40.77669" lon="41.72122">
        <ele>768.791136</ele>
        <time>2021-11-15T23:40:02.661Z</time>
      </trkpt>
      <trkpt lat="40.77627" lon="41.72113">
        <ele>765.02008</ele>
        <time>2021-11-15T23:40:09.583Z</time>
      </trkpt>
      <trkpt lat="40.77597" lon="41.72092">
        <ele>761.910391</ele>
        <time>2021-11-15T23:40:14.552Z</time>
      </trkpt>
      <trkpt lat="40.77587" lon="41.72086">
        <ele>760.947734</ele>
        <time>2021-11-15T23:40:16.088Z</time>
      </trkpt>
      <trkpt lat="40.77289" lon="41.71893">
        <ele>714.419665</ele>
        <time>2021-11-15T23:40:58.891Z</time>
      </trkpt>
      <trkpt lat="40.77196" lon="41.71782">
        <ele>700.726958</ele>
        <time>2021-11-15T23:41:15.874Z</time>
      </trkpt>
      <trkpt lat="40.77118" lon="41.7164">
        <ele>695.149657</ele>
        <time>2021-11-15T23:41:35.867Z</time>
      </trkpt>
      <trkpt lat="40.77022" lon="41.71397">
        <ele>707.420792</ele>
        <time>2021-11-15T23:42:59.529Z</time>
      </trkpt>
      <trkpt lat="40.76959" lon="41.71184">
        <ele>750.42067</ele>
        <time>2021-11-15T23:46:18.859Z</time>
      </trkpt>
      <trkpt lat="40.76947" lon="41.71158">
        <ele>753.468172</ele>
        <time>2021-11-15T23:46:45.586Z</time>
      </trkpt>
      <trkpt lat="40.76845" lon="41.70745">
        <ele>785.556207</ele>
        <time>2021-11-15T23:49:50.536Z</time>
      </trkpt>
      <trkpt lat="40.76699" lon="41.70098">
        <ele>790.818624</ele>
        <time>2021-11-15T23:52:02.411Z</time>
      </trkpt>
      <trkpt lat="40.76647" lon="41.69942">
        <ele>791.664241</ele>
        <time>2021-11-15T23:52:35.590Z</time>
      </trkpt>
      <trkpt lat="40.76603" lon="41.69849">
        <ele>792.208323</ele>
        <time>2021-11-15T23:52:56.911Z</time>
      </trkpt>
      <trkpt lat="40.76546" lon="41.69752">
        <ele>792.886905</ele>
        <time>2021-11-15T23:53:20.710Z</time>
      </trkpt>
      <trkpt lat="40.76382" lon="41.69565">
        <ele>793.896463</ele>
        <time>2021-11-15T23:54:18.560Z</time>
      </trkpt>
      <trkpt lat="40.76352" lon="41.69526">
        <ele>794.007404</ele>
        <time>2021-11-15T23:54:28.307Z</time>
      </trkpt>
      <trkpt lat="40.74904" lon="41.68011">
        <ele>753.549072</ele>
        <time>2021-11-16T00:00:02.811Z</time>
      </trkpt>
      <trkpt lat="40.74738" lon="41.67978">
        <ele>751.545724</ele>
        <time>2021-11-16T00:00:35.123Z</time>
      </trkpt>
      <trkpt lat="40.72393" lon="41.67236">
        <ele>734.24683</ele>
        <time>2021-11-16T00:09:05.394Z</time>
      </trkpt>
      <trkpt lat="40.72213" lon="41.67195">
        <ele>728.567712</ele>
        <time>2021-11-16T00:09:31.893Z</time>
      </trkpt>
      <trkpt lat="40.72193" lon="41.67183">
        <ele>727.901697</ele>
        <time>2021-11-16T00:09:35.737Z</time>
      </trkpt>
      <trkpt lat="40.72055" lon="41.67156">
        <ele>729.948174</ele>
        <time>2021-11-16T00:10:18.197Z</time>
      </trkpt>
      <trkpt lat="40.72041" lon="41.67153">
        <ele>730.586376</ele>
        <time>2021-11-16T00:10:24.809Z</time>
      </trkpt>
      <trkpt lat="40.71963" lon="41.67138">
        <ele>734.26508</ele>
        <time>2021-11-16T00:11:04.652Z</time>
      </trkpt>
      <trkpt lat="40.71891" lon="41.67139">
        <ele>738.413758</ele>
        <time>2021-11-16T00:11:41.505Z</time>
      </trkpt>
      <trkpt lat="40.71859" lon="41.67148">
        <ele>740.362637</ele>
        <time>2021-11-16T00:11:57.921Z</time>
      </trkpt>
      <trkpt lat="40.71827" lon="41.67163">
        <ele>742.35097</ele>
        <time>2021-11-16T00:12:13.306Z</time>
      </trkpt>
      <trkpt lat="40.71793" lon="41.67188">
        <ele>744.636114</ele>
        <time>2021-11-16T00:12:29.309Z</time>
      </trkpt>
      <trkpt lat="40.71769" lon="41.6723">
        <ele>745.238219</ele>
        <time>2021-11-16T00:12:43.255Z</time>
      </trkpt>
      <trkpt lat="40.71746" lon="41.67287">
        <ele>745.481619</ele>
        <time>2021-11-16T00:12:56.550Z</time>
      </trkpt>
      <trkpt lat="40.71727" lon="41.67362">
        <ele>745.782637</ele>
        <time>2021-11-16T00:13:08.355Z</time>
      </trkpt>
      <trkpt lat="40.71704" lon="41.67534">
        <ele>744.946899</ele>
        <time>2021-11-16T00:13:31.942Z</time>
      </trkpt>
      <trkpt lat="40.71692" lon="41.67561">
        <ele>744.689988</ele>
        <time>2021-11-16T00:13:36.563Z</time>
      </trkpt>
      <trkpt lat="40.71627" lon="41.67642">
        <ele>743.634783</ele>
        <time>2021-11-16T00:13:55.753Z</time>
      </trkpt>
      <trkpt lat="40.71602" lon="41.67684">
        <ele>743.085802</ele>
        <time>2021-11-16T00:14:04.229Z</time>
      </trkpt>
      <trkpt lat="40.71566" lon="41.67768">
        <ele>742.107126</ele>
        <time>2021-11-16T00:14:18.302Z</time>
      </trkpt>
      <trkpt lat="40.71526" lon="41.68011">
        <ele>736.983814</ele>
        <time>2021-11-16T00:14:48.920Z</time>
      </trkpt>
      <trkpt lat="40.7151" lon="41.68046">
        <ele>736.039913</ele>
        <time>2021-11-16T00:14:53.846Z</time>
      </trkpt>
      <trkpt lat="40.71408" lon="41.68072">
        <ele>734.722119</ele>
        <time>2021-11-16T00:15:11.816Z</time>
      </trkpt>
      <trkpt lat="40.71358" lon="41.68056">
        <ele>734.056796</ele>
        <time>2021-11-16T00:15:22.823Z</time>
      </trkpt>
      <trkpt lat="40.71302" lon="41.68054">
        <ele>734.317045</ele>
        <time>2021-11-16T00:15:37.134Z</time>
      </trkpt>
      <trkpt lat="40.71262" lon="41.68024">
        <ele>735.114438</ele>
        <time>2021-11-16T00:15:50.543Z</time>
      </trkpt>
      <trkpt lat="40.71224" lon="41.67933">
        <ele>736.483212</ele>
        <time>2021-11-16T00:16:15.282Z</time>
      </trkpt>
      <trkpt lat="40.71185" lon="41.67874">
        <ele>737.548564</ele>
        <time>2021-11-16T00:16:33.872Z</time>
      </trkpt>
      <trkpt lat="40.7114" lon="41.67853">
        <ele>738.425669</ele>
        <time>2021-11-16T00:16:48.592Z</time>
      </trkpt>
      <trkpt lat="40.7067" lon="41.67722">
        <ele>746.649461</ele>
        <time>2021-11-16T00:19:08.338Z</time>
      </trkpt>
      <trkpt lat="40.7036" lon="41.676">
        <ele>749.480301</ele>
        <time>2021-11-16T00:20:28.409Z</time>
      </trkpt>
      <trkpt lat="40.70186" lon="41.67592">
        <ele>753.732127</ele>
        <time>2021-11-16T00:21:23.940Z</time>
      </trkpt>
      <trkpt lat="40.70095" lon="41.67631">
        <ele>757.539599</ele>
        <time>2021-11-16T00:22:01.387Z</time>
      </trkpt>
      <trkpt lat="40.69894" lon="41.67814">
        <ele>767.484028</ele>
        <time>2021-11-16T00:23:40.502Z</time>
      </trkpt>
      <trkpt lat="40.6977" lon="41.67862">
        <ele>769.943807</ele>
        <time>2021-11-16T00:24:19.670Z</time>
      </trkpt>
      <trkpt lat="40.69685" lon="41.67844">
        <ele>770.876225</ele>
        <time>2021-11-16T00:24:39.041Z</time>
      </trkpt>
      <trkpt lat="40.69471" lon="41.67744">
        <ele>769.386041</ele>
        <time>2021-11-16T00:25:23.779Z</time>
      </trkpt>
      <trkpt lat="40.69379" lon="41.67726">
        <ele>768.826259</ele>
        <time>2021-11-16T00:25:42.246Z</time>
      </trkpt>
      <trkpt lat="40.69201" lon="41.67777">
        <ele>769.227708</ele>
        <time>2021-11-16T00:26:23.186Z</time>
      </trkpt>
      <trkpt lat="40.69106" lon="41.67785">
        <ele>770.88106</ele>
        <time>2021-11-16T00:26:50.854Z</time>
      </trkpt>
      <trkpt lat="40.69025" lon="41.67781">
        <ele>772.987249</ele>
        <time>2021-11-16T00:27:18.037Z</time>
      </trkpt>
      <trkpt lat="40.68972" lon="41.67741">
        <ele>774.806312</ele>
        <time>2021-11-16T00:27:40.241Z</time>
      </trkpt>
      <trkpt lat="40.68916" lon="41.67672">
        <ele>777.665309</ele>
        <time>2021-11-16T00:28:08.865Z</time>
      </trkpt>
      <trkpt lat="40.68782" lon="41.67429">
        <ele>786.065192</ele>
        <time>2021-11-16T00:29:34.516Z</time>
      </trkpt>
      <trkpt lat="40.68663" lon="41.67245">
        <ele>792.030122</ele>
        <time>2021-11-16T00:30:38.425Z</time>
      </trkpt>
      <trkpt lat="40.68584" lon="41.67167">
        <ele>795.565265</ele>
        <time>2021-11-16T00:31:11.908Z</time>
      </trkpt>
      <trkpt lat="40.68515" lon="41.67134">
        <ele>798.376328</ele>
        <time>2021-11-16T00:31:39.223Z</time>
      </trkpt>
      <trkpt lat="40.68328" lon="41.67063">
        <ele>807.911089</ele>
        <time>2021-11-16T00:33:03.258Z</time>
      </trkpt>
      <trkpt lat="40.68083" lon="41.66916">
        <ele>822.2887</ele>
        <time>2021-11-16T00:34:59.225Z</time>
      </trkpt>
      <trkpt lat="40.67853" lon="41.66653">
        <ele>841.053897</ele>
        <time>2021-11-16T00:37:21.786Z</time>
      </trkpt>
      <trkpt lat="40.67693" lon="41.6652">
        <ele>856.311137</ele>
        <time>2021-11-16T00:39:03.235Z</time>
      </trkpt>
      <trkpt lat="40.67589" lon="41.66463">
        <ele>868.653775</ele>
        <time>2021-11-16T00:40:15.517Z</time>
      </trkpt>
      <trkpt lat="40.67547" lon="41.66427">
        <ele>874.119396</ele>
        <time>2021-11-16T00:40:51.980Z</time>
      </trkpt>
      <trkpt lat="40.67525" lon="41.66379">
        <ele>880.57505</ele>
        <time>2021-11-16T00:41:26.352Z</time>
      </trkpt>
      <trkpt lat="40.6748" lon="41.66327">
        <ele>889.455485</ele>
        <time>2021-11-16T00:42:18.649Z</time>
      </trkpt>
      <trkpt lat="40.6743" lon="41.66301">
        <ele>897.553218</ele>
        <time>2021-11-16T00:43:05.330Z</time>
      </trkpt>
      <trkpt lat="40.67338" lon="41.66282">
        <ele>908.597705</ele>
        <time>2021-11-16T00:44:18.116Z</time>
      </trkpt>
      <trkpt lat="40.67241" lon="41.66262">
        <ele>919.272954</ele>
        <time>2021-11-16T00:45:19.165Z</time>
      </trkpt>
      <trkpt lat="40.66907" lon="41.66048">
        <ele>939.695748</ele>
        <time>2021-11-16T00:47:54.615Z</time>
      </trkpt>
      <trkpt lat="40.66844" lon="41.66023">
        <ele>945.394945</ele>
        <time>2021-11-16T00:48:29.777Z</time>
      </trkpt>
      <trkpt lat="40.66783" lon="41.6598">
        <ele>951.375822</ele>
        <time>2021-11-16T00:49:10.519Z</time>
      </trkpt>
      <trkpt lat="40.66736" lon="41.65965">
        <ele>955.68881</ele>
        <time>2021-11-16T00:49:41.557Z</time>
      </trkpt>
      <trkpt lat="40.66705" lon="41.65971">
        <ele>959.156917</ele>
        <time>2021-11-16T00:50:01.612Z</time>
      </trkpt>
      <trkpt lat="40.66667" lon="41.65988">
        <ele>963.572251</ele>
        <time>2021-11-16T00:50:27.543Z</time>
      </trkpt>
      <trkpt lat="40.66579" lon="41.66046">
        <ele>974.559829</ele>
        <time>2021-11-16T00:51:34.367Z</time>
      </trkpt>
      <trkpt lat="40.66526" lon="41.66056">
        <ele>981.111395</ele>
        <time>2021-11-16T00:52:12.404Z</time>
      </trkpt>
      <trkpt lat="40.6642" lon="41.66042">
        <ele>994.404521</ele>
        <time>2021-11-16T00:53:31.137Z</time>
      </trkpt>
      <trkpt lat="40.66376" lon="41.66062">
        <ele>999.622596</ele>
        <time>2021-11-16T00:54:04.875Z</time>
      </trkpt>
      <trkpt lat="40.66346" lon="41.66122">
        <ele>1004.992089</ele>
        <time>2021-11-16T00:54:42.921Z</time>
      </trkpt>
      <trkpt lat="40.66337" lon="41.66202">
        <ele>1010.994594</ele>
        <time>2021-11-16T00:55:20.220Z</time>
      </trkpt>
      <trkpt lat="40.66332" lon="41.66294">
        <ele>1016.234096</ele>
        <time>2021-11-16T00:55:55.401Z</time>
      </trkpt>
      <trkpt lat="40.66328" lon="41.66349">
        <ele>1017.683441</ele>
        <time>2021-11-16T00:56:12.466Z</time>
      </trkpt>
      <trkpt lat="40.66301" lon="41.6643">
        <ele>1020.034309</ele>
        <time>2021-11-16T00:56:35.279Z</time>
      </trkpt>
      <trkpt lat="40.66253" lon="41.66494">
        <ele>1021.448852</ele>
        <time>2021-11-16T00:56:52.777Z</time>
      </trkpt>
      <trkpt lat="40.66227" lon="41.66507">
        <ele>1021.299656</ele>
        <time>2021-11-16T00:56:58.859Z</time>
      </trkpt>
      <trkpt lat="40.66153" lon="41.66509">
        <ele>1020.898625</ele>
        <time>2021-11-16T00:57:13.531Z</time>
      </trkpt>
      <trkpt lat="40.66117" lon="41.66495">
        <ele>1020.696363</ele>
        <time>2021-11-16T00:57:20.461Z</time>
      </trkpt>
      <trkpt lat="40.66006" lon="41.66396">
        <ele>1018.979681</ele>
        <time>2021-11-16T00:57:44.950Z</time>
      </trkpt>
      <trkpt lat="40.65968" lon="41.66377">
        <ele>1018.413741</ele>
        <time>2021-11-16T00:57:52.517Z</time>
      </trkpt>
      <trkpt lat="40.6587" lon="41.66359">
        <ele>1017.959481</ele>
        <time>2021-11-16T00:58:11.373Z</time>
      </trkpt>
      <trkpt lat="40.65781" lon="41.6633">
        <ele>1017.784647</ele>
        <time>2021-11-16T00:58:32.282Z</time>
      </trkpt>
      <trkpt lat="40.65718" lon="41.66306">
        <ele>1018.584703</ele>
        <time>2021-11-16T00:58:50.420Z</time>
      </trkpt>
      <trkpt lat="40.65683" lon="41.66267">
        <ele>1019.286468</ele>
        <time>2021-11-16T00:59:03.612Z</time>
      </trkpt>
      <trkpt lat="40.65658" lon="41.66224">
        <ele>1019.915543</ele>
        <time>2021-11-16T00:59:15.756Z</time>
      </trkpt>
      <trkpt lat="40.65654" lon="41.66207">
        <ele>1020.128705</ele>
        <time>2021-11-16T00:59:20.089Z</time>
      </trkpt>
      <trkpt lat="40.65652" lon="41.6615">
        <ele>1020.643165</ele>
        <time>2021-11-16T00:59:32.996Z</time>
      </trkpt>
      <trkpt lat="40.6566" lon="41.66104">
        <ele>1020.905274</ele>
        <time>2021-11-16T00:59:43.997Z</time>
      </trkpt>
      <trkpt lat="40.65677" lon="41.66057">
        <ele>1021.193916</ele>
        <time>2021-11-16T00:59:55.058Z</time>
      </trkpt>
      <trkpt lat="40.65824" lon="41.6575">
        <ele>1020.631925</ele>
        <time>2021-11-16T01:00:52.288Z</time>
      </trkpt>
      <trkpt lat="40.65818" lon="41.65685">
        <ele>1019.829543</ele>
        <time>2021-11-16T01:01:01.067Z</time>
      </trkpt>
      <trkpt lat="40.65745" lon="41.65519">
        <ele>1017.818982</ele>
        <time>2021-11-16T01:01:26.771Z</time>
      </trkpt>
      <trkpt lat="40.65714" lon="41.65398">
        <ele>1017.674021</ele>
        <time>2021-11-16T01:01:46.391Z</time>
      </trkpt>
      <trkpt lat="40.65711" lon="41.65298">
        <ele>1017.999797</ele>
        <time>2021-11-16T01:02:07.164Z</time>
      </trkpt>
      <trkpt lat="40.6573" lon="41.65233">
        <ele>1019.211035</ele>
        <time>2021-11-16T01:02:24.107Z</time>
      </trkpt>
      <trkpt lat="40.65836" lon="41.65061">
        <ele>1022.331279</ele>
        <time>2021-11-16T01:03:19.044Z</time>
      </trkpt>
      <trkpt lat="40.65849" lon="41.65014">
        <ele>1022.72375</ele>
        <time>2021-11-16T01:03:29.390Z</time>
      </trkpt>
      <trkpt lat="40.65842" lon="41.64971">
        <ele>1023.071596</ele>
        <time>2021-11-16T01:03:37.769Z</time>
      </trkpt>
      <trkpt lat="40.65664" lon="41.64773">
        <ele>1022.361087</ele>
        <time>2021-11-16T01:04:24.096Z</time>
      </trkpt>
      <trkpt lat="40.65539" lon="41.64665">
        <ele>1021.534402</ele>
        <time>2021-11-16T01:04:54.975Z</time>
      </trkpt>
      <trkpt lat="40.655" lon="41.64642">
        <ele>1021.182959</ele>
        <time>2021-11-16T01:05:03.767Z</time>
      </trkpt>
      <trkpt lat="40.65435" lon="41.64619">
        <ele>1020.307247</ele>
        <time>2021-11-16T01:05:16.766Z</time>
      </trkpt>
      <trkpt lat="40.65387" lon="41.64567">
        <ele>1019.498519</ele>
        <time>2021-11-16T01:05:28.013Z</time>
      </trkpt>
      <trkpt lat="40.65354" lon="41.64508">
        <ele>1018.869018</ele>
        <time>2021-11-16T01:05:37.876Z</time>
      </trkpt>
      <trkpt lat="40.65338" lon="41.64412">
        <ele>1018.229951</ele>
        <time>2021-11-16T01:05:51.532Z</time>
      </trkpt>
      <trkpt lat="40.65314" lon="41.64317">
        <ele>1017.572102</ele>
        <time>2021-11-16T01:06:07.109Z</time>
      </trkpt>
      <trkpt lat="40.653" lon="41.64201">
        <ele>1018.960181</ele>
        <time>2021-11-16T01:06:30.893Z</time>
      </trkpt>
      <trkpt lat="40.65309" lon="41.64094">
        <ele>1020.430605</ele>
        <time>2021-11-16T01:06:57.328Z</time>
      </trkpt>
      <trkpt lat="40.65343" lon="41.63969">
        <ele>1022.493665</ele>
        <time>2021-11-16T01:07:31.478Z</time>
      </trkpt>
      <trkpt lat="40.65378" lon="41.6379">
        <ele>1024.640269</ele>
        <time>2021-11-16T01:08:11.218Z</time>
      </trkpt>
      <trkpt lat="40.65381" lon="41.63747">
        <ele>1024.728624</ele>
        <time>2021-11-16T01:08:18.762Z</time>
      </trkpt>
      <trkpt lat="40.65351" lon="41.63612">
        <ele>1025.001156</ele>
        <time>2021-11-16T01:08:41.611Z</time>
      </trkpt>
      <trkpt lat="40.65327" lon="41.63572">
        <ele>1024.874682</ele>
        <time>2021-11-16T01:08:49.385Z</time>
      </trkpt>
      <trkpt lat="40.653" lon="41.63548">
        <ele>1024.768063</ele>
        <time>2021-11-16T01:08:56.136Z</time>
      </trkpt>
      <trkpt lat="40.6526" lon="41.63537">
        <ele>1024.634286</ele>
        <time>2021-11-16T01:09:04.739Z</time>
      </trkpt>
      <trkpt lat="40.65202" lon="41.63539">
        <ele>1024.444332</ele>
        <time>2021-11-16T01:09:17.258Z</time>
      </trkpt>
      <trkpt lat="40.65147" lon="41.63553">
        <ele>1024.19714</ele>
        <time>2021-11-16T01:09:29.558Z</time>
      </trkpt>
      <trkpt lat="40.65092" lon="41.63566">
        <ele>1023.943208</ele>
        <time>2021-11-16T01:09:41.321Z</time>
      </trkpt>
      <trkpt lat="40.65061" lon="41.63562">
        <ele>1023.80133</ele>
        <time>2021-11-16T01:09:47.723Z</time>
      </trkpt>
      <trkpt lat="40.65038" lon="41.6355">
        <ele>1023.688658</ele>
        <time>2021-11-16T01:09:52.700Z</time>
      </trkpt>
      <trkpt lat="40.64955" lon="41.6349">
        <ele>1022.763311</ele>
        <time>2021-11-16T01:10:10.730Z</time>
      </trkpt>
      <trkpt lat="40.6493" lon="41.63484">
        <ele>1022.482157</ele>
        <time>2021-11-16T01:10:15.485Z</time>
      </trkpt>
      <trkpt lat="40.64848" lon="41.63481">
        <ele>1021.628027</ele>
        <time>2021-11-16T01:10:30.793Z</time>
      </trkpt>
      <trkpt lat="40.64812" lon="41.63461">
        <ele>1021.793877</ele>
        <time>2021-11-16T01:10:38.581Z</time>
      </trkpt>
      <trkpt lat="40.64769" lon="41.63424">
        <ele>1022.011879</ele>
        <time>2021-11-16T01:10:49.959Z</time>
      </trkpt>
      <trkpt lat="40.6473" lon="41.63368">
        <ele>1022.256718</ele>
        <time>2021-11-16T01:11:04.869Z</time>
      </trkpt>
      <trkpt lat="40.64644" lon="41.63319">
        <ele>1023.419244</ele>
        <time>2021-11-16T01:11:33.337Z</time>
      </trkpt>
      <trkpt lat="40.64547" lon="41.63272">
        <ele>1025.062995</ele>
        <time>2021-11-16T01:12:04.237Z</time>
      </trkpt>
      <trkpt lat="40.64208" lon="41.63106">
        <ele>1025.239132</ele>
        <time>2021-11-16T01:13:23.633Z</time>
      </trkpt>
      <trkpt lat="40.64174" lon="41.631">
        <ele>1025.140908</ele>
        <time>2021-11-16T01:13:30.924Z</time>
      </trkpt>
      <trkpt lat="40.64089" lon="41.63101">
        <ele>1024.845351</ele>
        <time>2021-11-16T01:13:48.799Z</time>
      </trkpt>
      <trkpt lat="40.64002" lon="41.63088">
        <ele>1024.619416</ele>
        <time>2021-11-16T01:14:06.526Z</time>
      </trkpt>
      <trkpt lat="40.63867" lon="41.63056">
        <ele>1024.747274</ele>
        <time>2021-11-16T01:14:38.057Z</time>
      </trkpt>
      <trkpt lat="40.63754" lon="41.63016">
        <ele>1025.152798</ele>
        <time>2021-11-16T01:15:06.344Z</time>
      </trkpt>
      <trkpt lat="40.63653" lon="41.63003">
        <ele>1025.533839</ele>
        <time>2021-11-16T01:15:30.988Z</time>
      </trkpt>
      <trkpt lat="40.63562" lon="41.63006">
        <ele>1025.643163</ele>
        <time>2021-11-16T01:15:50.369Z</time>
      </trkpt>
      <trkpt lat="40.6347" lon="41.63024">
        <ele>1025.808998</ele>
        <time>2021-11-16T01:16:11.812Z</time>
      </trkpt>
      <trkpt lat="40.63402" lon="41.63055">
        <ele>1026.112973</ele>
        <time>2021-11-16T01:16:30.005Z</time>
      </trkpt>
      <trkpt lat="40.63239" lon="41.63168">
        <ele>1025.915718</ele>
        <time>2021-11-16T01:17:13.217Z</time>
      </trkpt>
      <trkpt lat="40.63158" lon="41.63217">
        <ele>1025.33318</ele>
        <time>2021-11-16T01:17:29.597Z</time>
      </trkpt>
      <trkpt lat="40.63108" lon="41.63232">
        <ele>1024.482027</ele>
        <time>2021-11-16T01:17:38.530Z</time>
      </trkpt>
      <trkpt lat="40.63082" lon="41.63228">
        <ele>1024.047539</ele>
        <time>2021-11-16T01:17:43.012Z</time>
      </trkpt>
      <trkpt lat="40.63061" lon="41.63218">
        <ele>1023.676911</ele>
        <time>2021-11-16T01:17:46.897Z</time>
      </trkpt>
      <trkpt lat="40.63016" lon="41.63169">
        <ele>1022.707948</ele>
        <time>2021-11-16T01:17:57.562Z</time>
      </trkpt>
      <trkpt lat="40.62975" lon="41.6315">
        <ele>1022.386716</ele>
        <time>2021-11-16T01:18:06.010Z</time>
      </trkpt>
      <trkpt lat="40.62879" lon="41.63154">
        <ele>1022.317705</ele>
        <time>2021-11-16T01:18:26.913Z</time>
      </trkpt>
      <trkpt lat="40.62847" lon="41.63149">
        <ele>1022.294552</ele>
        <time>2021-11-16T01:18:34.863Z</time>
      </trkpt>
      <trkpt lat="40.62795" lon="41.63122">
        <ele>1022.388967</ele>
        <time>2021-11-16T01:18:49.130Z</time>
      </trkpt>
      <trkpt lat="40.62731" lon="41.63101">
        <ele>1022.642462</ele>
        <time>2021-11-16T01:19:05.809Z</time>
      </trkpt>
      <trkpt lat="40.62471" lon="41.63086">
        <ele>1022.701388</ele>
        <time>2021-11-16T01:20:03.441Z</time>
      </trkpt>
      <trkpt lat="40.62368" lon="41.63068">
        <ele>1022.156834</ele>
        <time>2021-11-16T01:20:23.690Z</time>
      </trkpt>
      <trkpt lat="40.62251" lon="41.62997">
        <ele>1021.882611</ele>
        <time>2021-11-16T01:20:50.560Z</time>
      </trkpt>
      <trkpt lat="40.62169" lon="41.62966">
        <ele>1022.156963</ele>
        <time>2021-11-16T01:21:11.004Z</time>
      </trkpt>
      <trkpt lat="40.62053" lon="41.62939">
        <ele>1023.246709</ele>
        <time>2021-11-16T01:21:41.678Z</time>
      </trkpt>
      <trkpt lat="40.61984" lon="41.62909">
        <ele>1024.197146</ele>
        <time>2021-11-16T01:22:01.507Z</time>
      </trkpt>
      <trkpt lat="40.61902" lon="41.6281">
        <ele>1026.044177</ele>
        <time>2021-11-16T01:22:34.967Z</time>
      </trkpt>
      <trkpt lat="40.61862" lon="41.62782">
        <ele>1026.870123</ele>
        <time>2021-11-16T01:22:48.973Z</time>
      </trkpt>
      <trkpt lat="40.61832" lon="41.62776">
        <ele>1027.423424</ele>
        <time>2021-11-16T01:22:58.307Z</time>
      </trkpt>
      <trkpt lat="40.61798" lon="41.62781">
        <ele>1027.936115</ele>
        <time>2021-11-16T01:23:08.408Z</time>
      </trkpt>
      <trkpt lat="40.617" lon="41.62812">
        <ele>1027.930083</ele>
        <time>2021-11-16T01:23:33.695Z</time>
      </trkpt>
      <trkpt lat="40.61659" lon="41.62819">
        <ele>1027.927609</ele>
        <time>2021-11-16T01:23:41.743Z</time>
      </trkpt>
      <trkpt lat="40.61628" lon="41.62816">
        <ele>1027.925749</ele>
        <time>2021-11-16T01:23:47.414Z</time>
      </trkpt>
      <trkpt lat="40.61583" lon="41.62795">
        <ele>1026.472615</ele>
        <time>2021-11-16T01:23:55.744Z</time>
      </trkpt>
      <trkpt lat="40.61548" lon="41.62792">
        <ele>1025.391963</ele>
        <time>2021-11-16T01:24:01.645Z</time>
      </trkpt>
      <trkpt lat="40.61517" lon="41.628">
        <ele>1024.41868</ele>
        <time>2021-11-16T01:24:06.738Z</time>
      </trkpt>
      <trkpt lat="40.61415" lon="41.62862">
        <ele>1020.581659</ele>
        <time>2021-11-16T01:24:24.271Z</time>
      </trkpt>
      <trkpt lat="40.61394" lon="41.62866">
        <ele>1019.755613</ele>
        <time>2021-11-16T01:24:27.551Z</time>
      </trkpt>
      <trkpt lat="40.61379" lon="41.6286">
        <ele>1019.145327</ele>
        <time>2021-11-16T01:24:30.015Z</time>
      </trkpt>
      <trkpt lat="40.6135" lon="41.62766">
        <ele>1016.146705</ele>
        <time>2021-11-16T01:24:42.203Z</time>
      </trkpt>
      <trkpt lat="40.61328" lon="41.6275">
        <ele>1015.25126</ele>
        <time>2021-11-16T01:24:46.196Z</time>
      </trkpt>
      <trkpt lat="40.61308" lon="41.6275">
        <ele>1014.775097</ele>
        <time>2021-11-16T01:24:49.381Z</time>
      </trkpt>
      <trkpt lat="40.61282" lon="41.62765">
        <ele>1014.099322</ele>
        <time>2021-11-16T01:24:53.982Z</time>
      </trkpt>
      <trkpt lat="40.61253" lon="41.62766">
        <ele>1013.408649</ele>
        <time>2021-11-16T01:24:58.832Z</time>
      </trkpt>
      <trkpt lat="40.61184" lon="41.62724">
        <ele>1011.598984</ele>
        <time>2021-11-16T01:25:12.284Z</time>
      </trkpt>
      <trkpt lat="40.61162" lon="41.62687">
        <ele>1011.062143</ele>
        <time>2021-11-16T01:25:19.069Z</time>
      </trkpt>
      <trkpt lat="40.61144" lon="41.62671">
        <ele>1011.006938</ele>
        <time>2021-11-16T01:25:23.316Z</time>
      </trkpt>
      <trkpt lat="40.61125" lon="41.62672">
        <ele>1010.958596</ele>
        <time>2021-11-16T01:25:27.052Z</time>
      </trkpt>
      <trkpt lat="40.61108" lon="41.62684">
        <ele>1010.909562</ele>
        <time>2021-11-16T01:25:30.917Z</time>
      </trkpt>
      <trkpt lat="40.61057" lon="41.62755">
        <ele>1010.720915</ele>
        <time>2021-11-16T01:25:46.528Z</time>
      </trkpt>
      <trkpt lat="40.61043" lon="41.62761">
        <ele>1010.683486</ele>
        <time>2021-11-16T01:25:49.903Z</time>
      </trkpt>
      <trkpt lat="40.61032" lon="41.62755">
        <ele>1010.653218</ele>
        <time>2021-11-16T01:25:52.678Z</time>
      </trkpt>
      <trkpt lat="40.61022" lon="41.6274">
        <ele>1011.075728</ele>
        <time>2021-11-16T01:25:56.326Z</time>
      </trkpt>
      <trkpt lat="40.60978" lon="41.62618">
        <ele>1015.17671</ele>
        <time>2021-11-16T01:26:30.986Z</time>
      </trkpt>
      <trkpt lat="40.60953" lon="41.62589">
        <ele>1016.509022</ele>
        <time>2021-11-16T01:26:46.659Z</time>
      </trkpt>
      <trkpt lat="40.60944" lon="41.62569">
        <ele>1017.214943</ele>
        <time>2021-11-16T01:26:55.563Z</time>
      </trkpt>
      <trkpt lat="40.60943" lon="41.62547">
        <ele>1017.922364</ele>
        <time>2021-11-16T01:27:04.006Z</time>
      </trkpt>
      <trkpt lat="40.60934" lon="41.62531">
        <ele>1019.006605</ele>
        <time>2021-11-16T01:27:11.780Z</time>
      </trkpt>
      <trkpt lat="40.60883" lon="41.62497">
        <ele>1023.106144</ele>
        <time>2021-11-16T01:27:43.240Z</time>
      </trkpt>
      <trkpt lat="40.60829" lon="41.62494">
        <ele>1026.982501</ele>
        <time>2021-11-16T01:28:13.764Z</time>
      </trkpt>
      <trkpt lat="40.60805" lon="41.6248">
        <ele>1028.865034</ele>
        <time>2021-11-16T01:28:27.697Z</time>
      </trkpt>
      <trkpt lat="40.60794" lon="41.62455">
        <ele>1030.438354</ele>
        <time>2021-11-16T01:28:38.812Z</time>
      </trkpt>
      <trkpt lat="40.60787" lon="41.62404">
        <ele>1030.077051</ele>
        <time>2021-11-16T01:28:54.595Z</time>
      </trkpt>
      <trkpt lat="40.6078" lon="41.62389">
        <ele>1029.826841</ele>
        <time>2021-11-16T01:28:58.177Z</time>
      </trkpt>
      <trkpt lat="40.60766" lon="41.62379">
        <ele>1029.528734</ele>
        <time>2021-11-16T01:29:01.749Z</time>
      </trkpt>
      <trkpt lat="40.60728" lon="41.62378">
        <ele>1028.817296</ele>
        <time>2021-11-16T01:29:07.951Z</time>
      </trkpt>
      <trkpt lat="40.60705" lon="41.6237">
        <ele>1028.372017</ele>
        <time>2021-11-16T01:29:11.522Z</time>
      </trkpt>
      <trkpt lat="40.60667" lon="41.62344">
        <ele>1027.570482</ele>
        <time>2021-11-16T01:29:17.838Z</time>
      </trkpt>
      <trkpt lat="40.60649" lon="41.6234">
        <ele>1026.929799</ele>
        <time>2021-11-16T01:29:20.440Z</time>
      </trkpt>
      <trkpt lat="40.60594" lon="41.62364">
        <ele>1023.534682</ele>
        <time>2021-11-16T01:29:28.559Z</time>
      </trkpt>
      <trkpt lat="40.60569" lon="41.62364">
        <ele>1022.069745</ele>
        <time>2021-11-16T01:29:32.058Z</time>
      </trkpt>
      <trkpt lat="40.60525" lon="41.62349">
        <ele>1019.406497</ele>
        <time>2021-11-16T01:29:38.569Z</time>
      </trkpt>
      <trkpt lat="40.60445" lon="41.62299">
        <ele>1018.848287</ele>
        <time>2021-11-16T01:29:53.229Z</time>
      </trkpt>
      <trkpt lat="40.60353" lon="41.62211">
        <ele>1023.998002</ele>
        <time>2021-11-16T01:30:43.426Z</time>
      </trkpt>
      <trkpt lat="40.60273" lon="41.62106">
        <ele>1039.237697</ele>
        <time>2021-11-16T01:32:09.740Z</time>
      </trkpt>
      <trkpt lat="40.60232" lon="41.62019">
        <ele>1051.375613</ele>
        <time>2021-11-16T01:33:24.391Z</time>
      </trkpt>
      <trkpt lat="40.60215" lon="41.61942">
        <ele>1059.625572</ele>
        <time>2021-11-16T01:34:28.953Z</time>
      </trkpt>
      <trkpt lat="40.60196" lon="41.619">
        <ele>1064.490874</ele>
        <time>2021-11-16T01:35:00.894Z</time>
      </trkpt>
      <trkpt lat="40.60196" lon="41.61873">
        <ele>1067.177787</ele>
        <time>2021-11-16T01:35:16.312Z</time>
      </trkpt>
      <trkpt lat="40.60207" lon="41.61847">
        <ele>1070.13977</ele>
        <time>2021-11-16T01:35:30.123Z</time>
      </trkpt>
      <trkpt lat="40.6021" lon="41.61817">
        <ele>1073.151006</ele>
        <time>2021-11-16T01:35:46.230Z</time>
      </trkpt>
      <trkpt lat="40.60187" lon="41.61768">
        <ele>1075.845717</ele>
        <time>2021-11-16T01:36:03.734Z</time>
      </trkpt>
      <trkpt lat="40.60162" lon="41.6169">
        <ele>1072.90149</ele>
        <time>2021-11-16T01:36:18.950Z</time>
      </trkpt>
      <trkpt lat="40.60143" lon="41.61674">
        <ele>1071.868589</ele>
        <time>2021-11-16T01:36:22.173Z</time>
      </trkpt>
      <trkpt lat="40.60088" lon="41.61651">
        <ele>1069.225573</ele>
        <time>2021-11-16T01:36:29.906Z</time>
      </trkpt>
      <trkpt lat="40.60066" lon="41.61632">
        <ele>1067.48382</ele>
        <time>2021-11-16T01:36:33.370Z</time>
      </trkpt>
      <trkpt lat="40.60049" lon="41.61578">
        <ele>1062.531169</ele>
        <time>2021-11-16T01:36:39.242Z</time>
      </trkpt>
      <trkpt lat="40.6005" lon="41.61507">
        <ele>1056.514879</ele>
        <time>2021-11-16T01:36:46.452Z</time>
      </trkpt>
      <trkpt lat="40.60044" lon="41.61499">
        <ele>1055.56219</ele>
        <time>2021-11-16T01:36:47.587Z</time>
      </trkpt>
      <trkpt lat="40.60032" lon="41.61504">
        <ele>1054.157773</ele>
        <time>2021-11-16T01:36:49.271Z</time>
      </trkpt>
      <trkpt lat="40.6002" lon="41.61529">
        <ele>1051.65196</ele>
        <time>2021-11-16T01:36:52.306Z</time>
      </trkpt>
      <trkpt lat="40.60018" lon="41.61544">
        <ele>1050.361679</ele>
        <time>2021-11-16T01:36:53.868Z</time>
      </trkpt>
      <trkpt lat="40.60025" lon="41.61644">
        <ele>1044.593347</ele>
        <time>2021-11-16T01:37:04.367Z</time>
      </trkpt>
      <trkpt lat="40.60018" lon="41.61661">
        <ele>1043.648634</ele>
        <time>2021-11-16T01:37:06.480Z</time>
      </trkpt>
      <trkpt lat="40.60007" lon="41.61664">
        <ele>1042.925897</ele>
        <time>2021-11-16T01:37:08.076Z</time>
      </trkpt>
      <trkpt lat="40.59999" lon="41.61654">
        <ele>1042.216279</ele>
        <time>2021-11-16T01:37:09.685Z</time>
      </trkpt>
      <trkpt lat="40.59994" lon="41.61596">
        <ele>1039.364756</ele>
        <time>2021-11-16T01:37:16.467Z</time>
      </trkpt>
      <trkpt lat="40.5998" lon="41.61547">
        <ele>1036.807222</ele>
        <time>2021-11-16T01:37:22.770Z</time>
      </trkpt>
      <trkpt lat="40.59989" lon="41.61487">
        <ele>1035.363366</ele>
        <time>2021-11-16T01:37:30.173Z</time>
      </trkpt>
      <trkpt lat="40.59984" lon="41.6146">
        <ele>1034.720423</ele>
        <time>2021-11-16T01:37:33.515Z</time>
      </trkpt>
      <trkpt lat="40.59969" lon="41.61434">
        <ele>1033.964985</ele>
        <time>2021-11-16T01:37:37.652Z</time>
      </trkpt>
      <trkpt lat="40.59941" lon="41.61408">
        <ele>1032.921121</ele>
        <time>2021-11-16T01:37:43.382Z</time>
      </trkpt>
      <trkpt lat="40.5989" lon="41.61392">
        <ele>1031.323707</ele>
        <time>2021-11-16T01:37:52.217Z</time>
      </trkpt>
      <trkpt lat="40.59874" lon="41.61377">
        <ele>1030.886769</ele>
        <time>2021-11-16T01:37:55.688Z</time>
      </trkpt>
      <trkpt lat="40.59867" lon="41.6136">
        <ele>1030.571537</ele>
        <time>2021-11-16T01:37:58.149Z</time>
      </trkpt>
      <trkpt lat="40.5988" lon="41.61288">
        <ele>1029.365184</ele>
        <time>2021-11-16T01:38:07.971Z</time>
      </trkpt>
      <trkpt lat="40.59876" lon="41.61254">
        <ele>1028.804358</ele>
        <time>2021-11-16T01:38:12.417Z</time>
      </trkpt>
      <trkpt lat="40.59855" lon="41.61212">
        <ele>1027.984634</ele>
        <time>2021-11-16T01:38:19.083Z</time>
      </trkpt>
      <trkpt lat="40.59827" lon="41.6118">
        <ele>1027.238516</ele>
        <time>2021-11-16T01:38:25.719Z</time>
      </trkpt>
      <trkpt lat="40.59802" lon="41.61164">
        <ele>1026.775667</ele>
        <time>2021-11-16T01:38:30.826Z</time>
      </trkpt>
      <trkpt lat="40.59773" lon="41.61156">
        <ele>1026.282281</ele>
        <time>2021-11-16T01:38:36.261Z</time>
      </trkpt>
      <trkpt lat="40.59723" lon="41.61154">
        <ele>1025.449301</ele>
        <time>2021-11-16T01:38:45.314Z</time>
      </trkpt>
      <trkpt lat="40.59637" lon="41.6113">
        <ele>1023.968041</ele>
        <time>2021-11-16T01:39:01.163Z</time>
      </trkpt>
      <trkpt lat="40.59601" lon="41.61128">
        <ele>1023.343765</ele>
        <time>2021-11-16T01:39:07.588Z</time>
      </trkpt>
      <trkpt lat="40.59567" lon="41.61133">
        <ele>1022.751035</ele>
        <time>2021-11-16T01:39:13.698Z</time>
      </trkpt>
      <trkpt lat="40.59471" lon="41.61163">
        <ele>1021.124499</ele>
        <time>2021-11-16T01:39:31.444Z</time>
      </trkpt>
      <trkpt lat="40.59434" lon="41.61163">
        <ele>1020.689761</ele>
        <time>2021-11-16T01:39:38.224Z</time>
      </trkpt>
      <trkpt lat="40.59094" lon="41.61066">
        <ele>1017.479832</ele>
        <time>2021-11-16T01:40:45.623Z</time>
      </trkpt>
      <trkpt lat="40.59002" lon="41.61035">
        <ele>1017.34166</ele>
        <time>2021-11-16T01:41:06.445Z</time>
      </trkpt>
      <trkpt lat="40.58842" lon="41.60967">
        <ele>1017.998772</ele>
        <time>2021-11-16T01:41:47.571Z</time>
      </trkpt>
      <trkpt lat="40.58744" lon="41.60917">
        <ele>1018.633041</ele>
        <time>2021-11-16T01:42:13.922Z</time>
      </trkpt>
      <trkpt lat="40.5864" lon="41.60852">
        <ele>1019.351153</ele>
        <time>2021-11-16T01:42:42.299Z</time>
      </trkpt>
      <trkpt lat="40.58068" lon="41.60441">
        <ele>1022.402855</ele>
        <time>2021-11-16T01:45:19.416Z</time>
      </trkpt>
      <trkpt lat="40.57879" lon="41.60309">
        <ele>1023.47839</ele>
        <time>2021-11-16T01:46:10.852Z</time>
      </trkpt>
      <trkpt lat="40.57428" lon="41.59995">
        <ele>1026.799676</ele>
        <time>2021-11-16T01:48:18.037Z</time>
      </trkpt>
      <trkpt lat="40.56937" lon="41.59652">
        <ele>1030.578462</ele>
        <time>2021-11-16T01:50:36.427Z</time>
      </trkpt>
      <trkpt lat="40.56432" lon="41.59228">
        <ele>1035.549887</ele>
        <time>2021-11-16T01:53:09.909Z</time>
      </trkpt>
      <trkpt lat="40.56348" lon="41.59174">
        <ele>1036.207408</ele>
        <time>2021-11-16T01:53:33.213Z</time>
      </trkpt>
      <trkpt lat="40.56305" lon="41.5916">
        <ele>1036.516727</ele>
        <time>2021-11-16T01:53:44.240Z</time>
      </trkpt>
      <trkpt lat="40.56241" lon="41.5915">
        <ele>1036.981098</ele>
        <time>2021-11-16T01:54:00.422Z</time>
      </trkpt>
      <trkpt lat="40.56218" lon="41.59149">
        <ele>1037.156514</ele>
        <time>2021-11-16T01:54:06.122Z</time>
      </trkpt>
      <trkpt lat="40.56067" lon="41.5914">
        <ele>1038.358298</ele>
        <time>2021-11-16T01:54:44.633Z</time>
      </trkpt>
      <trkpt lat="40.5598" lon="41.59108">
        <ele>1039.245887</ele>
        <time>2021-11-16T01:55:08.256Z</time>
      </trkpt>
      <trkpt lat="40.55918" lon="41.59066">
        <ele>1039.931029</ele>
        <time>2021-11-16T01:55:26.410Z</time>
      </trkpt>
      <trkpt lat="40.55863" lon="41.59004">
        <ele>1040.829353</ele>
        <time>2021-11-16T01:55:45.587Z</time>
      </trkpt>
      <trkpt lat="40.55815" lon="41.58912">
        <ele>1041.904389</ele>
        <time>2021-11-16T01:56:08.849Z</time>
      </trkpt>
      <trkpt lat="40.55776" lon="41.58803">
        <ele>1043.282611</ele>
        <time>2021-11-16T01:56:34.915Z</time>
      </trkpt>
      <trkpt lat="40.55706" lon="41.58489">
        <ele>1047.504898</ele>
        <time>2021-11-16T01:57:46.989Z</time>
      </trkpt>
      <trkpt lat="40.55663" lon="41.58372">
        <ele>1049.431849</ele>
        <time>2021-11-16T01:58:16.672Z</time>
      </trkpt>
      <trkpt lat="40.55617" lon="41.58283">
        <ele>1051.175239</ele>
        <time>2021-11-16T01:58:42.267Z</time>
      </trkpt>
      <trkpt lat="40.55436" lon="41.5809">
        <ele>1055.610065</ele>
        <time>2021-11-16T01:59:53.989Z</time>
      </trkpt>
      <trkpt lat="40.55342" lon="41.57953">
        <ele>1055.746991</ele>
        <time>2021-11-16T02:00:25.659Z</time>
      </trkpt>
      <trkpt lat="40.55284" lon="41.57874">
        <ele>1055.376308</ele>
        <time>2021-11-16T02:00:41.689Z</time>
      </trkpt>
      <trkpt lat="40.55259" lon="41.57848">
        <ele>1055.114685</ele>
        <time>2021-11-16T02:00:47.684Z</time>
      </trkpt>
      <trkpt lat="40.55239" lon="41.57832">
        <ele>1054.919424</ele>
        <time>2021-11-16T02:00:52.120Z</time>
      </trkpt>
      <trkpt lat="40.5508" lon="41.57767">
        <ele>1054.282575</ele>
        <time>2021-11-16T02:01:25.933Z</time>
      </trkpt>
      <trkpt lat="40.55029" lon="41.57734">
        <ele>1054.276088</ele>
        <time>2021-11-16T02:01:39.650Z</time>
      </trkpt>
      <trkpt lat="40.54984" lon="41.5769">
        <ele>1054.442946</ele>
        <time>2021-11-16T02:01:53.707Z</time>
      </trkpt>
      <trkpt lat="40.54855" lon="41.5745">
        <ele>1055.997751</ele>
        <time>2021-11-16T02:02:50.306Z</time>
      </trkpt>
      <trkpt lat="40.54832" lon="41.57398">
        <ele>1056.279004</ele>
        <time>2021-11-16T02:03:01.279Z</time>
      </trkpt>
      <trkpt lat="40.54809" lon="41.57349">
        <ele>1056.548272</ele>
        <time>2021-11-16T02:03:11.831Z</time>
      </trkpt>
      <trkpt lat="40.54767" lon="41.57208">
        <ele>1057.544849</ele>
        <time>2021-11-16T02:03:40.355Z</time>
      </trkpt>
      <trkpt lat="40.54661" lon="41.56772">
        <ele>1061.175936</ele>
        <time>2021-11-16T02:05:14.782Z</time>
      </trkpt>
      <trkpt lat="40.54628" lon="41.5666">
        <ele>1061.906846</ele>
        <time>2021-11-16T02:05:37.074Z</time>
      </trkpt>
      <trkpt lat="40.54605" lon="41.5661">
        <ele>1062.012014</ele>
        <time>2021-11-16T02:05:47.370Z</time>
      </trkpt>
      <trkpt lat="40.54571" lon="41.56554">
        <ele>1062.060774</ele>
        <time>2021-11-16T02:05:59.539Z</time>
      </trkpt>
      <trkpt lat="40.54388" lon="41.56386">
        <ele>1062.455139</ele>
        <time>2021-11-16T02:06:49.404Z</time>
      </trkpt>
      <trkpt lat="40.54319" lon="41.56315">
        <ele>1062.959521</ele>
        <time>2021-11-16T02:07:11.178Z</time>
      </trkpt>
      <trkpt lat="40.54288" lon="41.56271">
        <ele>1063.397418</ele>
        <time>2021-11-16T02:07:23.033Z</time>
      </trkpt>
      <trkpt lat="40.54229" lon="41.56136">
        <ele>1064.573654</ele>
        <time>2021-11-16T02:07:54.911Z</time>
      </trkpt>
      <trkpt lat="40.54214" lon="41.56054">
        <ele>1065.287003</ele>
        <time>2021-11-16T02:08:11.955Z</time>
      </trkpt>
      <trkpt lat="40.5421" lon="41.5598">
        <ele>1065.920116</ele>
        <time>2021-11-16T02:08:26.963Z</time>
      </trkpt>
      <trkpt lat="40.54211" lon="41.55763">
        <ele>1067.827564</ele>
        <time>2021-11-16T02:09:11.000Z</time>
      </trkpt>
      <trkpt lat="40.54205" lon="41.55656">
        <ele>1068.787725</ele>
        <time>2021-11-16T02:09:33.193Z</time>
      </trkpt>
      <trkpt lat="40.54181" lon="41.5555">
        <ele>1069.785317</ele>
        <time>2021-11-16T02:09:56.145Z</time>
      </trkpt>
      <trkpt lat="40.54147" lon="41.55452">
        <ele>1070.688976</ele>
        <time>2021-11-16T02:10:18.242Z</time>
      </trkpt>
      <trkpt lat="40.54126" lon="41.55402">
        <ele>1071.054349</ele>
        <time>2021-11-16T02:10:29.654Z</time>
      </trkpt>
      <trkpt lat="40.54112" lon="41.55372">
        <ele>1071.274586</ele>
        <time>2021-11-16T02:10:36.567Z</time>
      </trkpt>
      <trkpt lat="40.54039" lon="41.55224">
        <ele>1072.337668</ele>
        <time>2021-11-16T02:11:09.623Z</time>
      </trkpt>
      <trkpt lat="40.54009" lon="41.55179">
        <ele>1072.657593</ele>
        <time>2021-11-16T02:11:20.775Z</time>
      </trkpt>
      <trkpt lat="40.53963" lon="41.55108">
        <ele>1073.157837</ele>
        <time>2021-11-16T02:11:38.520Z</time>
      </trkpt>
      <trkpt lat="40.53913" lon="41.55029">
        <ele>1074.096795</ele>
        <time>2021-11-16T02:11:59.405Z</time>
      </trkpt>
      <trkpt lat="40.5387" lon="41.54963">
        <ele>1075.005341</ele>
        <time>2021-11-16T02:12:17.778Z</time>
      </trkpt>
      <trkpt lat="40.53857" lon="41.54943">
        <ele>1075.282007</ele>
        <time>2021-11-16T02:12:23.717Z</time>
      </trkpt>
      <trkpt lat="40.53826" lon="41.54905">
        <ele>1075.877788</ele>
        <time>2021-11-16T02:12:35.882Z</time>
      </trkpt>
      <trkpt lat="40.5378" lon="41.5486">
        <ele>1076.826004</ele>
        <time>2021-11-16T02:12:52.249Z</time>
      </trkpt>
      <trkpt lat="40.53614" lon="41.54724">
        <ele>1080.120945</ele>
        <time>2021-11-16T02:13:49.046Z</time>
      </trkpt>
      <trkpt lat="40.53561" lon="41.54683">
        <ele>1081.166664</ele>
        <time>2021-11-16T02:14:06.612Z</time>
      </trkpt>
      <trkpt lat="40.53511" lon="41.54638">
        <ele>1082.266263</ele>
        <time>2021-11-16T02:14:24.181Z</time>
      </trkpt>
      <trkpt lat="40.53456" lon="41.54574">
        <ele>1083.766898</ele>
        <time>2021-11-16T02:14:46.430Z</time>
      </trkpt>
      <trkpt lat="40.5341" lon="41.545">
        <ele>1085.240459</ele>
        <time>2021-11-16T02:15:08.404Z</time>
      </trkpt>
      <trkpt lat="40.53364" lon="41.5444">
        <ele>1086.866905</ele>
        <time>2021-11-16T02:15:29.204Z</time>
      </trkpt>
      <trkpt lat="40.53325" lon="41.54407">
        <ele>1088.104798</ele>
        <time>2021-11-16T02:15:44.987Z</time>
      </trkpt>
      <trkpt lat="40.53273" lon="41.54371">
        <ele>1089.668905</ele>
        <time>2021-11-16T02:16:04.982Z</time>
      </trkpt>
      <trkpt lat="40.53226" lon="41.54347">
        <ele>1090.707496</ele>
        <time>2021-11-16T02:16:21.520Z</time>
      </trkpt>
      <trkpt lat="40.53194" lon="41.54335">
        <ele>1091.243308</ele>
        <time>2021-11-16T02:16:31.895Z</time>
      </trkpt>
      <trkpt lat="40.53143" lon="41.54305">
        <ele>1092.142998</ele>
        <time>2021-11-16T02:16:48.195Z</time>
      </trkpt>
      <trkpt lat="40.53091" lon="41.54265">
        <ele>1093.110807</ele>
        <time>2021-11-16T02:17:03.837Z</time>
      </trkpt>
      <trkpt lat="40.53046" lon="41.54221">
        <ele>1093.040718</ele>
        <time>2021-11-16T02:17:16.252Z</time>
      </trkpt>
      <trkpt lat="40.52996" lon="41.54163">
        <ele>1092.902993</ele>
        <time>2021-11-16T02:17:30.048Z</time>
      </trkpt>
      <trkpt lat="40.52947" lon="41.54096">
        <ele>1092.813948</ele>
        <time>2021-11-16T02:17:44.517Z</time>
      </trkpt>
      <trkpt lat="40.5289" lon="41.54001">
        <ele>1093.088694</ele>
        <time>2021-11-16T02:18:04.876Z</time>
      </trkpt>
      <trkpt lat="40.52854" lon="41.53898">
        <ele>1093.440341</ele>
        <time>2021-11-16T02:18:26.621Z</time>
      </trkpt>
      <trkpt lat="40.52836" lon="41.53841">
        <ele>1094.062273</ele>
        <time>2021-11-16T02:18:39.242Z</time>
      </trkpt>
      <trkpt lat="40.52788" lon="41.53671">
        <ele>1095.925772</ele>
        <time>2021-11-16T02:19:18.116Z</time>
      </trkpt>
      <trkpt lat="40.52762" lon="41.53577">
        <ele>1097.179127</ele>
        <time>2021-11-16T02:19:39.830Z</time>
      </trkpt>
      <trkpt lat="40.52736" lon="41.53512">
        <ele>1098.102014</ele>
        <time>2021-11-16T02:19:56.163Z</time>
      </trkpt>
      <trkpt lat="40.52701" lon="41.53457">
        <ele>1098.981845</ele>
        <time>2021-11-16T02:20:12.089Z</time>
      </trkpt>
      <trkpt lat="40.52649" lon="41.53409">
        <ele>1099.98464</ele>
        <time>2021-11-16T02:20:30.528Z</time>
      </trkpt>
      <trkpt lat="40.52551" lon="41.53349">
        <ele>1101.664855</ele>
        <time>2021-11-16T02:21:00.931Z</time>
      </trkpt>
      <trkpt lat="40.52515" lon="41.53342">
        <ele>1102.184138</ele>
        <time>2021-11-16T02:21:11.090Z</time>
      </trkpt>
      <trkpt lat="40.52484" lon="41.53346">
        <ele>1102.611167</ele>
        <time>2021-11-16T02:21:19.359Z</time>
      </trkpt>
      <trkpt lat="40.52161" lon="41.53458">
        <ele>1108.461194</ele>
        <time>2021-11-16T02:22:52.398Z</time>
      </trkpt>
      <trkpt lat="40.52133" lon="41.53461">
        <ele>1109.437852</ele>
        <time>2021-11-16T02:23:02.296Z</time>
      </trkpt>
      <trkpt lat="40.52086" lon="41.53447">
        <ele>1111.105289</ele>
        <time>2021-11-16T02:23:20.561Z</time>
      </trkpt>
      <trkpt lat="40.52057" lon="41.53419">
        <ele>1112.3561</ele>
        <time>2021-11-16T02:23:35.740Z</time>
      </trkpt>
      <trkpt lat="40.52002" lon="41.53316">
        <ele>1116.954894</ele>
        <time>2021-11-16T02:24:19.593Z</time>
      </trkpt>
      <trkpt lat="40.51962" lon="41.53258">
        <ele>1119.965679</ele>
        <time>2021-11-16T02:24:44.514Z</time>
      </trkpt>
      <trkpt lat="40.51925" lon="41.5323">
        <ele>1121.988131</ele>
        <time>2021-11-16T02:25:01.808Z</time>
      </trkpt>
      <trkpt lat="40.51835" lon="41.53192">
        <ele>1123.968429</ele>
        <time>2021-11-16T02:25:36.434Z</time>
      </trkpt>
      <trkpt lat="40.51794" lon="41.53165">
        <ele>1124.916088</ele>
        <time>2021-11-16T02:25:48.646Z</time>
      </trkpt>
      <trkpt lat="40.5174" lon="41.53094">
        <ele>1125.01263</ele>
        <time>2021-11-16T02:26:03.193Z</time>
      </trkpt>
      <trkpt lat="40.51694" lon="41.5302">
        <ele>1123.870261</ele>
        <time>2021-11-16T02:26:17.329Z</time>
      </trkpt>
      <trkpt lat="40.51671" lon="41.52981">
        <ele>1123.295182</ele>
        <time>2021-11-16T02:26:24.110Z</time>
      </trkpt>
      <trkpt lat="40.51633" lon="41.52874">
        <ele>1121.417412</ele>
        <time>2021-11-16T02:26:38.471Z</time>
      </trkpt>
      <trkpt lat="40.51594" lon="41.52823">
        <ele>1120.159638</ele>
        <time>2021-11-16T02:26:47.497Z</time>
      </trkpt>
      <trkpt lat="40.51539" lon="41.52786">
        <ele>1118.708353</ele>
        <time>2021-11-16T02:26:58.927Z</time>
      </trkpt>
      <trkpt lat="40.51345" lon="41.5273">
        <ele>1118.642121</ele>
        <time>2021-11-16T02:27:43.094Z</time>
      </trkpt>
      <trkpt lat="40.51323" lon="41.52717">
        <ele>1118.87316</ele>
        <time>2021-11-16T02:27:49.525Z</time>
      </trkpt>
      <trkpt lat="40.51277" lon="41.52667">
        <ele>1119.448364</ele>
        <time>2021-11-16T02:28:05.412Z</time>
      </trkpt>
      <trkpt lat="40.51258" lon="41.52641">
        <ele>1119.708914</ele>
        <time>2021-11-16T02:28:12.557Z</time>
      </trkpt>
      <trkpt lat="40.51233" lon="41.52585">
        <ele>1120.184296</ele>
        <time>2021-11-16T02:28:25.539Z</time>
      </trkpt>
      <trkpt lat="40.51155" lon="41.52366">
        <ele>1124.834989</ele>
        <time>2021-11-16T02:29:19.107Z</time>
      </trkpt>
      <trkpt lat="40.5114" lon="41.5234">
        <ele>1127.796728</ele>
        <time>2021-11-16T02:29:29.772Z</time>
      </trkpt>
      <trkpt lat="40.51095" lon="41.52282">
        <ele>1135.39025</ele>
        <time>2021-11-16T02:30:13.467Z</time>
      </trkpt>
      <trkpt lat="40.51066" lon="41.52253">
        <ele>1139.722821</ele>
        <time>2021-11-16T02:30:42.719Z</time>
      </trkpt>
      <trkpt lat="40.51056" lon="41.52245">
        <ele>1141.077391</ele>
        <time>2021-11-16T02:30:52.128Z</time>
      </trkpt>
      <trkpt lat="40.51015" lon="41.52212">
        <ele>1146.99799</ele>
        <time>2021-11-16T02:31:35.345Z</time>
      </trkpt>
      <trkpt lat="40.50985" lon="41.52197">
        <ele>1151.372903</ele>
        <time>2021-11-16T02:32:05.318Z</time>
      </trkpt>
      <trkpt lat="40.50866" lon="41.52131">
        <ele>1169.290726</ele>
        <time>2021-11-16T02:33:54.849Z</time>
      </trkpt>
      <trkpt lat="40.50785" lon="41.52106">
        <ele>1170.680207</ele>
        <time>2021-11-16T02:34:23.542Z</time>
      </trkpt>
      <trkpt lat="40.50749" lon="41.52082">
        <ele>1170.468441</ele>
        <time>2021-11-16T02:34:30.339Z</time>
      </trkpt>
      <trkpt lat="40.50672" lon="41.52049">
        <ele>1169.454353</ele>
        <time>2021-11-16T02:34:42.309Z</time>
      </trkpt>
      <trkpt lat="40.50634" lon="41.52022">
        <ele>1167.027618</ele>
        <time>2021-11-16T02:34:48.430Z</time>
      </trkpt>
      <trkpt lat="40.50398" lon="41.52094">
        <ele>1155.524353</ele>
        <time>2021-11-16T02:35:24.853Z</time>
      </trkpt>
      <trkpt lat="40.50342" lon="41.52099">
        <ele>1153.389328</ele>
        <time>2021-11-16T02:35:34.825Z</time>
      </trkpt>
      <trkpt lat="40.50312" lon="41.5209">
        <ele>1153.172611</ele>
        <time>2021-11-16T02:35:40.625Z</time>
      </trkpt>
      <trkpt lat="40.50276" lon="41.5207">
        <ele>1153.219418</ele>
        <time>2021-11-16T02:35:48.870Z</time>
      </trkpt>
      <trkpt lat="40.50203" lon="41.52005">
        <ele>1153.324823</ele>
        <time>2021-11-16T02:36:10.808Z</time>
      </trkpt>
      <trkpt lat="40.5017" lon="41.51948">
        <ele>1153.721318</ele>
        <time>2021-11-16T02:36:25.138Z</time>
      </trkpt>
      <trkpt lat="40.5014" lon="41.51847">
        <ele>1154.881346</ele>
        <time>2021-11-16T02:36:46.988Z</time>
      </trkpt>
      <trkpt lat="40.50104" lon="41.51667">
        <ele>1158.032341</ele>
        <time>2021-11-16T02:37:29.413Z</time>
      </trkpt>
      <trkpt lat="40.50087" lon="41.51619">
        <ele>1159.267367</ele>
        <time>2021-11-16T02:37:43.730Z</time>
      </trkpt>
      <trkpt lat="40.50068" lon="41.51598">
        <ele>1160.028652</ele>
        <time>2021-11-16T02:37:53.083Z</time>
      </trkpt>
      <trkpt lat="40.50038" lon="41.5159">
        <ele>1160.967581</ele>
        <time>2021-11-16T02:38:05.200Z</time>
      </trkpt>
      <trkpt lat="40.50001" lon="41.516">
        <ele>1162.125845</ele>
        <time>2021-11-16T02:38:20.331Z</time>
      </trkpt>
      <trkpt lat="40.4989" lon="41.51657">
        <ele>1165.779077</ele>
        <time>2021-11-16T02:39:04.385Z</time>
      </trkpt>
      <trkpt lat="40.49855" lon="41.51659">
        <ele>1166.853106</ele>
        <time>2021-11-16T02:39:14.472Z</time>
      </trkpt>
      <trkpt lat="40.49818" lon="41.5164">
        <ele>1166.489907</ele>
        <time>2021-11-16T02:39:23.740Z</time>
      </trkpt>
      <trkpt lat="40.49787" lon="41.51607">
        <ele>1166.031477</ele>
        <time>2021-11-16T02:39:31.378Z</time>
      </trkpt>
      <trkpt lat="40.49743" lon="41.51533">
        <ele>1165.210425</ele>
        <time>2021-11-16T02:39:43.703Z</time>
      </trkpt>
      <trkpt lat="40.49712" lon="41.51502">
        <ele>1164.817162</ele>
        <time>2021-11-16T02:39:50.354Z</time>
      </trkpt>
      <trkpt lat="40.49659" lon="41.51485">
        <ele>1164.565491</ele>
        <time>2021-11-16T02:39:59.845Z</time>
      </trkpt>
      <trkpt lat="40.49466" lon="41.51494">
        <ele>1165.884938</ele>
        <time>2021-11-16T02:40:46.738Z</time>
      </trkpt>
      <trkpt lat="40.49446" lon="41.51502">
        <ele>1166.398791</ele>
        <time>2021-11-16T02:40:54.050Z</time>
      </trkpt>
      <trkpt lat="40.49366" lon="41.51556">
        <ele>1168.767758</ele>
        <time>2021-11-16T02:41:27.859Z</time>
      </trkpt>
      <trkpt lat="40.49341" lon="41.51566">
        <ele>1170.031673</ele>
        <time>2021-11-16T02:41:38.665Z</time>
      </trkpt>
      <trkpt lat="40.493" lon="41.51564">
        <ele>1172.003467</ele>
        <time>2021-11-16T02:41:55.974Z</time>
      </trkpt>
      <trkpt lat="40.49245" lon="41.51537">
        <ele>1174.781141</ele>
        <time>2021-11-16T02:42:20.962Z</time>
      </trkpt>
      <trkpt lat="40.49213" lon="41.5151">
        <ele>1176.619679</ele>
        <time>2021-11-16T02:42:37.298Z</time>
      </trkpt>
      <trkpt lat="40.4919" lon="41.51472">
        <ele>1178.007405</ele>
        <time>2021-11-16T02:42:52.386Z</time>
      </trkpt>
      <trkpt lat="40.49156" lon="41.5138">
        <ele>1180.66337</ele>
        <time>2021-11-16T02:43:22.673Z</time>
      </trkpt>
      <trkpt lat="40.49145" lon="41.51365">
        <ele>1181.197658</ele>
        <time>2021-11-16T02:43:28.336Z</time>
      </trkpt>
      <trkpt lat="40.4911" lon="41.51333">
        <ele>1182.661071</ele>
        <time>2021-11-16T02:43:41.421Z</time>
      </trkpt>
      <trkpt lat="40.49067" lon="41.51303">
        <ele>1183.290245</ele>
        <time>2021-11-16T02:43:54.837Z</time>
      </trkpt>
      <trkpt lat="40.49063" lon="41.51301">
        <ele>1183.300503</ele>
        <time>2021-11-16T02:43:57.167Z</time>
      </trkpt>
      <trkpt lat="40.49034" lon="41.5128">
        <ele>1183.399213</ele>
        <time>2021-11-16T02:44:04.949Z</time>
      </trkpt>
      <trkpt lat="40.49008" lon="41.51262">
        <ele>1183.482152</ele>
        <time>2021-11-16T02:44:10.976Z</time>
      </trkpt>
      <trkpt lat="40.48991" lon="41.51242">
        <ele>1183.55005</ele>
        <time>2021-11-16T02:44:16.629Z</time>
      </trkpt>
      <trkpt lat="40.48914" lon="41.51109">
        <ele>1183.8292</ele>
        <time>2021-11-16T02:44:41.420Z</time>
      </trkpt>
      <trkpt lat="40.4885" lon="41.51048">
        <ele>1183.954558</ele>
        <time>2021-11-16T02:44:58.896Z</time>
      </trkpt>
      <trkpt lat="40.48727" lon="41.50898">
        <ele>1187.732862</ele>
        <time>2021-11-16T02:45:51.291Z</time>
      </trkpt>
      <trkpt lat="40.48698" lon="41.50854">
        <ele>1188.958539</ele>
        <time>2021-11-16T02:46:09.794Z</time>
      </trkpt>
      <trkpt lat="40.48633" lon="41.50709">
        <ele>1192.886561</ele>
        <time>2021-11-16T02:46:58.955Z</time>
      </trkpt>
      <trkpt lat="40.4861" lon="41.50676">
        <ele>1193.941695</ele>
        <time>2021-11-16T02:47:10.082Z</time>
      </trkpt>
      <trkpt lat="40.48469" lon="41.5053">
        <ele>1193.391576</ele>
        <time>2021-11-16T02:47:46.846Z</time>
      </trkpt>
      <trkpt lat="40.48314" lon="41.5042">
        <ele>1188.32502</ele>
        <time>2021-11-16T02:48:16.111Z</time>
      </trkpt>
      <trkpt lat="40.48223" lon="41.50343">
        <ele>1184.386679</ele>
        <time>2021-11-16T02:48:32.274Z</time>
      </trkpt>
      <trkpt lat="40.48201" lon="41.50335">
        <ele>1183.520709</ele>
        <time>2021-11-16T02:48:35.898Z</time>
      </trkpt>
      <trkpt lat="40.48174" lon="41.50336">
        <ele>1182.482709</ele>
        <time>2021-11-16T02:48:40.274Z</time>
      </trkpt>
      <trkpt lat="40.48155" lon="41.50343">
        <ele>1181.740047</ele>
        <time>2021-11-16T02:48:43.198Z</time>
      </trkpt>
      <trkpt lat="40.48139" lon="41.50351">
        <ele>1181.109107</ele>
        <time>2021-11-16T02:48:46.268Z</time>
      </trkpt>
      <trkpt lat="40.4796" lon="41.50485">
        <ele>1182.03576</ele>
        <time>2021-11-16T02:49:32.088Z</time>
      </trkpt>
      <trkpt lat="40.4792" lon="41.50508">
        <ele>1184.563277</ele>
        <time>2021-11-16T02:49:50.303Z</time>
      </trkpt>
      <trkpt lat="40.47882" lon="41.50525">
        <ele>1186.864399</ele>
        <time>2021-11-16T02:50:09.016Z</time>
      </trkpt>
      <trkpt lat="40.47847" lon="41.50534">
        <ele>1188.960397</ele>
        <time>2021-11-16T02:50:27.960Z</time>
      </trkpt>
      <trkpt lat="40.47775" lon="41.50533">
        <ele>1193.792229</ele>
        <time>2021-11-16T02:51:10.249Z</time>
      </trkpt>
      <trkpt lat="40.47713" lon="41.50515">
        <ele>1198.766944</ele>
        <time>2021-11-16T02:51:48.183Z</time>
      </trkpt>
      <trkpt lat="40.4766" lon="41.50485">
        <ele>1203.281205</ele>
        <time>2021-11-16T02:52:21.028Z</time>
      </trkpt>
      <trkpt lat="40.47567" lon="41.5039">
        <ele>1205.104623</ele>
        <time>2021-11-16T02:53:04.615Z</time>
      </trkpt>
      <trkpt lat="40.47543" lon="41.50354">
        <ele>1204.971729</ele>
        <time>2021-11-16T02:53:10.806Z</time>
      </trkpt>
      <trkpt lat="40.4751" lon="41.50321">
        <ele>1204.819421</ele>
        <time>2021-11-16T02:53:17.003Z</time>
      </trkpt>
      <trkpt lat="40.47449" lon="41.50271">
        <ele>1199.474135</ele>
        <time>2021-11-16T02:53:27.125Z</time>
      </trkpt>
      <trkpt lat="40.47365" lon="41.50213">
        <ele>1191.163242</ele>
        <time>2021-11-16T02:53:40.006Z</time>
      </trkpt>
      <trkpt lat="40.47279" lon="41.50176">
        <ele>1185.094429</ele>
        <time>2021-11-16T02:53:52.513Z</time>
      </trkpt>
      <trkpt lat="40.47192" lon="41.50154">
        <ele>1179.735632</ele>
        <time>2021-11-16T02:54:05.921Z</time>
      </trkpt>
      <trkpt lat="40.47125" lon="41.50147">
        <ele>1177.977608</ele>
        <time>2021-11-16T02:54:17.252Z</time>
      </trkpt>
      <trkpt lat="40.47047" lon="41.50151">
        <ele>1177.449102</ele>
        <time>2021-11-16T02:54:33.069Z</time>
      </trkpt>
      <trkpt lat="40.46972" lon="41.50167">
        <ele>1177.454368</ele>
        <time>2021-11-16T02:54:52.719Z</time>
      </trkpt>
      <trkpt lat="40.46889" lon="41.50197">
        <ele>1179.606301</ele>
        <time>2021-11-16T02:55:18.816Z</time>
      </trkpt>
      <trkpt lat="40.46376" lon="41.50432">
        <ele>1200.037462</ele>
        <time>2021-11-16T02:58:39.135Z</time>
      </trkpt>
      <trkpt lat="40.46291" lon="41.50483">
        <ele>1205.481981</ele>
        <time>2021-11-16T02:59:23.149Z</time>
      </trkpt>
      <trkpt lat="40.4614" lon="41.50604">
        <ele>1221.723515</ele>
        <time>2021-11-16T03:01:12.884Z</time>
      </trkpt>
      <trkpt lat="40.46065" lon="41.50639">
        <ele>1228.329053</ele>
        <time>2021-11-16T03:02:03.292Z</time>
      </trkpt>
      <trkpt lat="40.46012" lon="41.50658">
        <ele>1232.922147</ele>
        <time>2021-11-16T03:02:33.046Z</time>
      </trkpt>
      <trkpt lat="40.45992" lon="41.50659">
        <ele>1234.600915</ele>
        <time>2021-11-16T03:02:42.351Z</time>
      </trkpt>
      <trkpt lat="40.45963" lon="41.50646">
        <ele>1235.305581</ele>
        <time>2021-11-16T03:02:54.786Z</time>
      </trkpt>
      <trkpt lat="40.4591" lon="41.50587">
        <ele>1235.267085</ele>
        <time>2021-11-16T03:03:16.048Z</time>
      </trkpt>
      <trkpt lat="40.45693" lon="41.50252">
        <ele>1227.536255</ele>
        <time>2021-11-16T03:04:09.058Z</time>
      </trkpt>
      <trkpt lat="40.45671" lon="41.50235">
        <ele>1227.221761</ele>
        <time>2021-11-16T03:04:13.628Z</time>
      </trkpt>
      <trkpt lat="40.4564" lon="41.50233">
        <ele>1226.830154</ele>
        <time>2021-11-16T03:04:19.917Z</time>
      </trkpt>
      <trkpt lat="40.4561" lon="41.50247">
        <ele>1226.417184</ele>
        <time>2021-11-16T03:04:27.688Z</time>
      </trkpt>
      <trkpt lat="40.45598" lon="41.50254">
        <ele>1226.262097</ele>
        <time>2021-11-16T03:04:31.038Z</time>
      </trkpt>
      <trkpt lat="40.45565" lon="41.50277">
        <ele>1226.908338</ele>
        <time>2021-11-16T03:04:42.257Z</time>
      </trkpt>
      <trkpt lat="40.45532" lon="41.50292">
        <ele>1228.048526</ele>
        <time>2021-11-16T03:04:54.115Z</time>
      </trkpt>
      <trkpt lat="40.45454" lon="41.50312">
        <ele>1230.572129</ele>
        <time>2021-11-16T03:05:23.672Z</time>
      </trkpt>
      <trkpt lat="40.45403" lon="41.50309">
        <ele>1232.237769</ele>
        <time>2021-11-16T03:05:44.827Z</time>
      </trkpt>
      <trkpt lat="40.45318" lon="41.50279">
        <ele>1235.26172</ele>
        <time>2021-11-16T03:06:14.274Z</time>
      </trkpt>
      <trkpt lat="40.45264" lon="41.50253">
        <ele>1237.206239</ele>
        <time>2021-11-16T03:06:33.567Z</time>
      </trkpt>
      <trkpt lat="40.4524" lon="41.5025">
        <ele>1238.046071</ele>
        <time>2021-11-16T03:06:42.125Z</time>
      </trkpt>
      <trkpt lat="40.45204" lon="41.50265">
        <ele>1240.493011</ele>
        <time>2021-11-16T03:06:56.804Z</time>
      </trkpt>
      <trkpt lat="40.45072" lon="41.50366">
        <ele>1250.34532</ele>
        <time>2021-11-16T03:08:15.190Z</time>
      </trkpt>
      <trkpt lat="40.45033" lon="41.50384">
        <ele>1253.069867</ele>
        <time>2021-11-16T03:08:39.332Z</time>
      </trkpt>
      <trkpt lat="40.44986" lon="41.50391">
        <ele>1256.150793</ele>
        <time>2021-11-16T03:09:04.618Z</time>
      </trkpt>
      <trkpt lat="40.4495" lon="41.5039">
        <ele>1258.446832</ele>
        <time>2021-11-16T03:09:21.518Z</time>
      </trkpt>
      <trkpt lat="40.4492" lon="41.50381">
        <ele>1260.475237</ele>
        <time>2021-11-16T03:09:34.898Z</time>
      </trkpt>
      <trkpt lat="40.44878" lon="41.50352">
        <ele>1261.827494</ele>
        <time>2021-11-16T03:09:51.907Z</time>
      </trkpt>
      <trkpt lat="40.44817" lon="41.50289">
        <ele>1262.92378</ele>
        <time>2021-11-16T03:10:11.100Z</time>
      </trkpt>
      <trkpt lat="40.44799" lon="41.50282">
        <ele>1263.184591</ele>
        <time>2021-11-16T03:10:14.906Z</time>
      </trkpt>
      <trkpt lat="40.44768" lon="41.50287">
        <ele>1263.629186</ele>
        <time>2021-11-16T03:10:21.853Z</time>
      </trkpt>
      <trkpt lat="40.44706" lon="41.50335">
        <ele>1265.789636</ele>
        <time>2021-11-16T03:10:40.736Z</time>
      </trkpt>
      <trkpt lat="40.44657" lon="41.50356">
        <ele>1267.610129</ele>
        <time>2021-11-16T03:10:57.928Z</time>
      </trkpt>
      <trkpt lat="40.44552" lon="41.50359">
        <ele>1272.592574</ele>
        <time>2021-11-16T03:11:45.390Z</time>
      </trkpt>
      <trkpt lat="40.44485" lon="41.50354">
        <ele>1277.900474</ele>
        <time>2021-11-16T03:12:23.495Z</time>
      </trkpt>
      <trkpt lat="40.44425" lon="41.50341">
        <ele>1282.704433</ele>
        <time>2021-11-16T03:12:58.465Z</time>
      </trkpt>
      <trkpt lat="40.4435" lon="41.50314">
        <ele>1287.994681</ele>
        <time>2021-11-16T03:13:41.148Z</time>
      </trkpt>
      <trkpt lat="40.44272" lon="41.5027">
        <ele>1293.414896</ele>
        <time>2021-11-16T03:14:22.740Z</time>
      </trkpt>
      <trkpt lat="40.44183" lon="41.50201">
        <ele>1296.442759</ele>
        <time>2021-11-16T03:15:00.548Z</time>
      </trkpt>
      <trkpt lat="40.44095" lon="41.50117">
        <ele>1297.36456</ele>
        <time>2021-11-16T03:15:23.907Z</time>
      </trkpt>
      <trkpt lat="40.44047" lon="41.50032">
        <ele>1294.253976</ele>
        <time>2021-11-16T03:15:36.848Z</time>
      </trkpt>
      <trkpt lat="40.43948" lon="41.49821">
        <ele>1285.592166</ele>
        <time>2021-11-16T03:16:04.936Z</time>
      </trkpt>
      <trkpt lat="40.43893" lon="41.49736">
        <ele>1281.358072</ele>
        <time>2021-11-16T03:16:17.733Z</time>
      </trkpt>
      <trkpt lat="40.43853" lon="41.49695">
        <ele>1279.983654</ele>
        <time>2021-11-16T03:16:25.799Z</time>
      </trkpt>
      <trkpt lat="40.43803" lon="41.49668">
        <ele>1278.909993</ele>
        <time>2021-11-16T03:16:34.972Z</time>
      </trkpt>
      <trkpt lat="40.43759" lon="41.4966">
        <ele>1278.027773</ele>
        <time>2021-11-16T03:16:43.086Z</time>
      </trkpt>
      <trkpt lat="40.43622" lon="41.49663">
        <ele>1277.458726</ele>
        <time>2021-11-16T03:17:15.476Z</time>
      </trkpt>
      <trkpt lat="40.43572" lon="41.49651">
        <ele>1277.611314</ele>
        <time>2021-11-16T03:17:28.258Z</time>
      </trkpt>
      <trkpt lat="40.43522" lon="41.49621">
        <ele>1277.491043</ele>
        <time>2021-11-16T03:17:40.847Z</time>
      </trkpt>
      <trkpt lat="40.43475" lon="41.49572">
        <ele>1276.818236</ele>
        <time>2021-11-16T03:17:53.199Z</time>
      </trkpt>
      <trkpt lat="40.43419" lon="41.49458">
        <ele>1275.735405</ele>
        <time>2021-11-16T03:18:11.370Z</time>
      </trkpt>
      <trkpt lat="40.43393" lon="41.49435">
        <ele>1276.061988</ele>
        <time>2021-11-16T03:18:16.786Z</time>
      </trkpt>
      <trkpt lat="40.43368" lon="41.49437">
        <ele>1276.322949</ele>
        <time>2021-11-16T03:18:21.481Z</time>
      </trkpt>
      <trkpt lat="40.43282" lon="41.49476">
        <ele>1277.270875</ele>
        <time>2021-11-16T03:18:49.405Z</time>
      </trkpt>
      <trkpt lat="40.43243" lon="41.49481">
        <ele>1277.913539</ele>
        <time>2021-11-16T03:19:03.069Z</time>
      </trkpt>
      <trkpt lat="40.43221" lon="41.4948">
        <ele>1278.636684</ele>
        <time>2021-11-16T03:19:09.932Z</time>
      </trkpt>
      <trkpt lat="40.43209" lon="41.4948">
        <ele>1279.051855</ele>
        <time>2021-11-16T03:19:15.909Z</time>
      </trkpt>
      <trkpt lat="40.4313" lon="41.4945">
        <ele>1281.804349</ele>
        <time>2021-11-16T03:19:48.205Z</time>
      </trkpt>
      <trkpt lat="40.43033" lon="41.49368">
        <ele>1283.507609</ele>
        <time>2021-11-16T03:20:24.759Z</time>
      </trkpt>
      <trkpt lat="40.42962" lon="41.49268">
        <ele>1283.36311</ele>
        <time>2021-11-16T03:20:43.627Z</time>
      </trkpt>
      <trkpt lat="40.42892" lon="41.4921">
        <ele>1283.410441</ele>
        <time>2021-11-16T03:20:58.833Z</time>
      </trkpt>
      <trkpt lat="40.4284" lon="41.49186">
        <ele>1283.463729</ele>
        <time>2021-11-16T03:21:10.696Z</time>
      </trkpt>
      <trkpt lat="40.42642" lon="41.49129">
        <ele>1286.392065</ele>
        <time>2021-11-16T03:22:14.140Z</time>
      </trkpt>
      <trkpt lat="40.42512" lon="41.49059">
        <ele>1287.400977</ele>
        <time>2021-11-16T03:22:52.572Z</time>
      </trkpt>
      <trkpt lat="40.42432" lon="41.48997">
        <ele>1287.146979</ele>
        <time>2021-11-16T03:23:10.773Z</time>
      </trkpt>
      <trkpt lat="40.42337" lon="41.48899">
        <ele>1284.285653</ele>
        <time>2021-11-16T03:23:31.216Z</time>
      </trkpt>
      <trkpt lat="40.42206" lon="41.48816">
        <ele>1279.671746</ele>
        <time>2021-11-16T03:23:54.844Z</time>
      </trkpt>
      <trkpt lat="40.42165" lon="41.48803">
        <ele>1278.206801</ele>
        <time>2021-11-16T03:24:01.511Z</time>
      </trkpt>
      <trkpt lat="40.42024" lon="41.48783">
        <ele>1274.113082</ele>
        <time>2021-11-16T03:24:23.946Z</time>
      </trkpt>
      <trkpt lat="40.41991" lon="41.48782">
        <ele>1273.186903</ele>
        <time>2021-11-16T03:24:29.480Z</time>
      </trkpt>
      <trkpt lat="40.41966" lon="41.48789">
        <ele>1272.503749</ele>
        <time>2021-11-16T03:24:33.820Z</time>
      </trkpt>
      <trkpt lat="40.41864" lon="41.48856">
        <ele>1275.258655</ele>
        <time>2021-11-16T03:25:03.692Z</time>
      </trkpt>
      <trkpt lat="40.4184" lon="41.48882">
        <ele>1276.179623</ele>
        <time>2021-11-16T03:25:16.205Z</time>
      </trkpt>
      <trkpt lat="40.41762" lon="41.48988">
        <ele>1282.765646</ele>
        <time>2021-11-16T03:26:14.098Z</time>
      </trkpt>
      <trkpt lat="40.41713" lon="41.49023">
        <ele>1287.191412</ele>
        <time>2021-11-16T03:26:47.672Z</time>
      </trkpt>
      <trkpt lat="40.41667" lon="41.49036">
        <ele>1290.882923</ele>
        <time>2021-11-16T03:27:14.073Z</time>
      </trkpt>
      <trkpt lat="40.41628" lon="41.4903">
        <ele>1292.435123</ele>
        <time>2021-11-16T03:27:33.827Z</time>
      </trkpt>
      <trkpt lat="40.41595" lon="41.49005">
        <ele>1293.4887</ele>
        <time>2021-11-16T03:27:50.746Z</time>
      </trkpt>
      <trkpt lat="40.41549" lon="41.4891">
        <ele>1295.836068</ele>
        <time>2021-11-16T03:28:15.629Z</time>
      </trkpt>
      <trkpt lat="40.41523" lon="41.4887">
        <ele>1296.117007</ele>
        <time>2021-11-16T03:28:22.727Z</time>
      </trkpt>
      <trkpt lat="40.41451" lon="41.48824">
        <ele>1293.24891</ele>
        <time>2021-11-16T03:28:35.431Z</time>
      </trkpt>
      <trkpt lat="40.41419" lon="41.4881">
        <ele>1292.049994</ele>
        <time>2021-11-16T03:28:40.573Z</time>
      </trkpt>
      <trkpt lat="40.41386" lon="41.48805">
        <ele>1290.875533</ele>
        <time>2021-11-16T03:28:45.571Z</time>
      </trkpt>
      <trkpt lat="40.41329" lon="41.48813">
        <ele>1289.78112</ele>
        <time>2021-11-16T03:28:54.362Z</time>
      </trkpt>
      <trkpt lat="40.41224" lon="41.48917">
        <ele>1288.350321</ele>
        <time>2021-11-16T03:29:20.765Z</time>
      </trkpt>
      <trkpt lat="40.41174" lon="41.48943">
        <ele>1289.383574</ele>
        <time>2021-11-16T03:29:38.698Z</time>
      </trkpt>
      <trkpt lat="40.41095" lon="41.48954">
        <ele>1291.524647</ele>
        <time>2021-11-16T03:30:06.457Z</time>
      </trkpt>
      <trkpt lat="40.41038" lon="41.48949">
        <ele>1293.07516</ele>
        <time>2021-11-16T03:30:26.339Z</time>
      </trkpt>
      <trkpt lat="40.41012" lon="41.4895">
        <ele>1293.901588</ele>
        <time>2021-11-16T03:30:35.364Z</time>
      </trkpt>
      <trkpt lat="40.40975" lon="41.48954">
        <ele>1295.086986</ele>
        <time>2021-11-16T03:30:47.805Z</time>
      </trkpt>
      <trkpt lat="40.40879" lon="41.48966">
        <ele>1298.152608</ele>
        <time>2021-11-16T03:31:20.623Z</time>
      </trkpt>
      <trkpt lat="40.40859" lon="41.48975">
        <ele>1298.856189</ele>
        <time>2021-11-16T03:31:28.360Z</time>
      </trkpt>
      <trkpt lat="40.40799" lon="41.49019">
        <ele>1302.09223</ele>
        <time>2021-11-16T03:31:55.629Z</time>
      </trkpt>
      <trkpt lat="40.40757" lon="41.49031">
        <ele>1304.120632</ele>
        <time>2021-11-16T03:32:15.546Z</time>
      </trkpt>
      <trkpt lat="40.40582" lon="41.49047">
        <ele>1309.843563</ele>
        <time>2021-11-16T03:33:27.891Z</time>
      </trkpt>
      <trkpt lat="40.4051" lon="41.49031">
        <ele>1311.496722</ele>
        <time>2021-11-16T03:33:43.461Z</time>
      </trkpt>
      <trkpt lat="40.40432" lon="41.49004">
        <ele>1308.61777</ele>
        <time>2021-11-16T03:33:56.381Z</time>
      </trkpt>
      <trkpt lat="40.40403" lon="41.49006">
        <ele>1307.601084</ele>
        <time>2021-11-16T03:34:00.628Z</time>
      </trkpt>
      <trkpt lat="40.40376" lon="41.49018">
        <ele>1306.571404</ele>
        <time>2021-11-16T03:34:04.994Z</time>
      </trkpt>
      <trkpt lat="40.40284" lon="41.49096">
        <ele>1305.237926</ele>
        <time>2021-11-16T03:34:22.826Z</time>
      </trkpt>
      <trkpt lat="40.40234" lon="41.49149">
        <ele>1305.335096</ele>
        <time>2021-11-16T03:34:38.569Z</time>
      </trkpt>
      <trkpt lat="40.40216" lon="41.49189">
        <ele>1305.388693</ele>
        <time>2021-11-16T03:34:50.560Z</time>
      </trkpt>
      <trkpt lat="40.402" lon="41.49271">
        <ele>1308.471027</ele>
        <time>2021-11-16T03:35:18.444Z</time>
      </trkpt>
      <trkpt lat="40.40183" lon="41.49322">
        <ele>1310.941367</ele>
        <time>2021-11-16T03:35:39.667Z</time>
      </trkpt>
      <trkpt lat="40.40144" lon="41.49375">
        <ele>1314.233491</ele>
        <time>2021-11-16T03:36:07.955Z</time>
      </trkpt>
      <trkpt lat="40.401" lon="41.49418">
        <ele>1316.699684</ele>
        <time>2021-11-16T03:36:32.954Z</time>
      </trkpt>
      <trkpt lat="40.40082" lon="41.4943">
        <ele>1317.341329</ele>
        <time>2021-11-16T03:36:41.704Z</time>
      </trkpt>
      <trkpt lat="40.40049" lon="41.49442">
        <ele>1318.411761</ele>
        <time>2021-11-16T03:36:54.851Z</time>
      </trkpt>
      <trkpt lat="40.39939" lon="41.49434">
        <ele>1321.673886</ele>
        <time>2021-11-16T03:37:27.053Z</time>
      </trkpt>
      <trkpt lat="40.39904" lon="41.49438">
        <ele>1322.12131</ele>
        <time>2021-11-16T03:37:34.792Z</time>
      </trkpt>
      <trkpt lat="40.3983" lon="41.49467">
        <ele>1323.110006</ele>
        <time>2021-11-16T03:37:52.970Z</time>
      </trkpt>
      <trkpt lat="40.39807" lon="41.49486">
        <ele>1323.454895</ele>
        <time>2021-11-16T03:38:00.588Z</time>
      </trkpt>
      <trkpt lat="40.3979" lon="41.49502">
        <ele>1323.726933</ele>
        <time>2021-11-16T03:38:05.723Z</time>
      </trkpt>
      <trkpt lat="40.39787" lon="41.49505">
        <ele>1323.774588</ele>
        <time>2021-11-16T03:38:07.650Z</time>
      </trkpt>
      <trkpt lat="40.39657" lon="41.49666">
        <ele>1330.881896</ele>
        <time>2021-11-16T03:39:16.985Z</time>
      </trkpt>
      <trkpt lat="40.39623" lon="41.49693">
        <ele>1332.773958</ele>
        <time>2021-11-16T03:39:35.036Z</time>
      </trkpt>
      <trkpt lat="40.39521" lon="41.49766">
        <ele>1338.45998</ele>
        <time>2021-11-16T03:40:25.197Z</time>
      </trkpt>
      <trkpt lat="40.39477" lon="41.49783">
        <ele>1340.3261</ele>
        <time>2021-11-16T03:40:43.437Z</time>
      </trkpt>
      <trkpt lat="40.39427" lon="41.49794">
        <ele>1341.550999</ele>
        <time>2021-11-16T03:41:01.943Z</time>
      </trkpt>
      <trkpt lat="40.39295" lon="41.49793">
        <ele>1344.468235</ele>
        <time>2021-11-16T03:41:39.791Z</time>
      </trkpt>
      <trkpt lat="40.39256" lon="41.49799">
        <ele>1344.846773</ele>
        <time>2021-11-16T03:41:48.795Z</time>
      </trkpt>
      <trkpt lat="40.39173" lon="41.49826">
        <ele>1345.669226</ele>
        <time>2021-11-16T03:42:08.687Z</time>
      </trkpt>
      <trkpt lat="40.39135" lon="41.49832">
        <ele>1346.085303</ele>
        <time>2021-11-16T03:42:17.942Z</time>
      </trkpt>
      <trkpt lat="40.38932" lon="41.49832">
        <ele>1354.538074</ele>
        <time>2021-11-16T03:43:34.722Z</time>
      </trkpt>
      <trkpt lat="40.38861" lon="41.49822">
        <ele>1359.758319</ele>
        <time>2021-11-16T03:44:14.856Z</time>
      </trkpt>
      <trkpt lat="40.38837" lon="41.49813">
        <ele>1361.616473</ele>
        <time>2021-11-16T03:44:29.973Z</time>
      </trkpt>
      <trkpt lat="40.38782" lon="41.49779">
        <ele>1365.929481</ele>
        <time>2021-11-16T03:45:04.734Z</time>
      </trkpt>
      <trkpt lat="40.38697" lon="41.49702">
        <ele>1367.688877</ele>
        <time>2021-11-16T03:45:48.969Z</time>
      </trkpt>
      <trkpt lat="40.38603" lon="41.4956">
        <ele>1363.796649</ele>
        <time>2021-11-16T03:46:11.217Z</time>
      </trkpt>
      <trkpt lat="40.38553" lon="41.49475">
        <ele>1357.809826</ele>
        <time>2021-11-16T03:46:22.305Z</time>
      </trkpt>
      <trkpt lat="40.38532" lon="41.49452">
        <ele>1355.778937</ele>
        <time>2021-11-16T03:46:26.091Z</time>
      </trkpt>
      <trkpt lat="40.38515" lon="41.49446">
        <ele>1354.683281</ele>
        <time>2021-11-16T03:46:28.488Z</time>
      </trkpt>
      <trkpt lat="40.38488" lon="41.4945">
        <ele>1353.011033</ele>
        <time>2021-11-16T03:46:32.233Z</time>
      </trkpt>
      <trkpt lat="40.3847" lon="41.49461">
        <ele>1351.788948</ele>
        <time>2021-11-16T03:46:34.987Z</time>
      </trkpt>
      <trkpt lat="40.38437" lon="41.49503">
        <ele>1348.950126</ele>
        <time>2021-11-16T03:46:41.527Z</time>
      </trkpt>
      <trkpt lat="40.38393" lon="41.49698">
        <ele>1345.564057</ele>
        <time>2021-11-16T03:47:07.340Z</time>
      </trkpt>
      <trkpt lat="40.38381" lon="41.49733">
        <ele>1345.901995</ele>
        <time>2021-11-16T03:47:15.713Z</time>
      </trkpt>
      <trkpt lat="40.38378" lon="41.49742">
        <ele>1345.995377</ele>
        <time>2021-11-16T03:47:18.265Z</time>
      </trkpt>
      <trkpt lat="40.38363" lon="41.49782">
        <ele>1346.392393</ele>
        <time>2021-11-16T03:47:31.669Z</time>
      </trkpt>
      <trkpt lat="40.38342" lon="41.49817">
        <ele>1347.287383</ele>
        <time>2021-11-16T03:47:48.517Z</time>
      </trkpt>
      <trkpt lat="40.38321" lon="41.49843">
        <ele>1349.392826</ele>
        <time>2021-11-16T03:48:04.115Z</time>
      </trkpt>
      <trkpt lat="40.38285" lon="41.49884">
        <ele>1352.89888</ele>
        <time>2021-11-16T03:48:30.575Z</time>
      </trkpt>
      <trkpt lat="40.38259" lon="41.49905">
        <ele>1355.085266</ele>
        <time>2021-11-16T03:48:46.153Z</time>
      </trkpt>
      <trkpt lat="40.38245" lon="41.49915">
        <ele>1356.273017</ele>
        <time>2021-11-16T03:48:55.576Z</time>
      </trkpt>
      <trkpt lat="40.38218" lon="41.49932">
        <ele>1358.424477</ele>
        <time>2021-11-16T03:49:11.176Z</time>
      </trkpt>
      <trkpt lat="40.38177" lon="41.49945">
        <ele>1360.405134</ele>
        <time>2021-11-16T03:49:32.717Z</time>
      </trkpt>
      <trkpt lat="40.38145" lon="41.49945">
        <ele>1361.275977</ele>
        <time>2021-11-16T03:49:46.456Z</time>
      </trkpt>
      <trkpt lat="40.38102" lon="41.4993">
        <ele>1362.487688</ele>
        <time>2021-11-16T03:50:00.901Z</time>
      </trkpt>
      <trkpt lat="40.38072" lon="41.4993">
        <ele>1363.293072</ele>
        <time>2021-11-16T03:50:08.161Z</time>
      </trkpt>
      <trkpt lat="40.38016" lon="41.49948">
        <ele>1364.795539</ele>
        <time>2021-11-16T03:50:19.663Z</time>
      </trkpt>
      <trkpt lat="40.37987" lon="41.49959">
        <ele>1365.384683</ele>
        <time>2021-11-16T03:50:26.375Z</time>
      </trkpt>
      <trkpt lat="40.37913" lon="41.49988">
        <ele>1366.888234</ele>
        <time>2021-11-16T03:50:48.302Z</time>
      </trkpt>
      <trkpt lat="40.37869" lon="41.50022">
        <ele>1367.867795</ele>
        <time>2021-11-16T03:51:05.727Z</time>
      </trkpt>
      <trkpt lat="40.37773" lon="41.50154">
        <ele>1372.744449</ele>
        <time>2021-11-16T03:52:03.348Z</time>
      </trkpt>
      <trkpt lat="40.37745" lon="41.50167">
        <ele>1373.836964</ele>
        <time>2021-11-16T03:52:13.896Z</time>
      </trkpt>
      <trkpt lat="40.37716" lon="41.50167">
        <ele>1374.718416</ele>
        <time>2021-11-16T03:52:23.199Z</time>
      </trkpt>
      <trkpt lat="40.37624" lon="41.50113">
        <ele>1374.274882</ele>
        <time>2021-11-16T03:52:45.498Z</time>
      </trkpt>
      <trkpt lat="40.37485" lon="41.50061">
        <ele>1372.826127</ele>
        <time>2021-11-16T03:53:10.927Z</time>
      </trkpt>
      <trkpt lat="40.37397" lon="41.50039">
        <ele>1371.403823</ele>
        <time>2021-11-16T03:53:26.995Z</time>
      </trkpt>
      <trkpt lat="40.37309" lon="41.50053">
        <ele>1371.081349</ele>
        <time>2021-11-16T03:53:45.307Z</time>
      </trkpt>
      <trkpt lat="40.37246" lon="41.50085">
        <ele>1371.080891</ele>
        <time>2021-11-16T03:54:00.940Z</time>
      </trkpt>
      <trkpt lat="40.37156" lon="41.5014">
        <ele>1371.964672</ele>
        <time>2021-11-16T03:54:25.639Z</time>
      </trkpt>
      <trkpt lat="40.37061" lon="41.50209">
        <ele>1373.728235</ele>
        <time>2021-11-16T03:54:57.377Z</time>
      </trkpt>
      <trkpt lat="40.3698" lon="41.50276">
        <ele>1376.906196</ele>
        <time>2021-11-16T03:55:30.332Z</time>
      </trkpt>
      <trkpt lat="40.36957" lon="41.50305">
        <ele>1378.092109</ele>
        <time>2021-11-16T03:55:42.594Z</time>
      </trkpt>
      <trkpt lat="40.36923" lon="41.50415">
        <ele>1381.531101</ele>
        <time>2021-11-16T03:56:18.991Z</time>
      </trkpt>
      <trkpt lat="40.36892" lon="41.50479">
        <ele>1384.01933</ele>
        <time>2021-11-16T03:56:42.748Z</time>
      </trkpt>
      <trkpt lat="40.36871" lon="41.50505">
        <ele>1385.248403</ele>
        <time>2021-11-16T03:56:54.260Z</time>
      </trkpt>
      <trkpt lat="40.36832" lon="41.50534">
        <ele>1387.152805</ele>
        <time>2021-11-16T03:57:11.531Z</time>
      </trkpt>
      <trkpt lat="40.36778" lon="41.50551">
        <ele>1389.387989</ele>
        <time>2021-11-16T03:57:31.840Z</time>
      </trkpt>
      <trkpt lat="40.36626" lon="41.50571">
        <ele>1395.258122</ele>
        <time>2021-11-16T03:58:28.125Z</time>
      </trkpt>
      <trkpt lat="40.36604" lon="41.50583">
        <ele>1396.482447</ele>
        <time>2021-11-16T03:58:38.063Z</time>
      </trkpt>
      <trkpt lat="40.36588" lon="41.50608">
        <ele>1397.760827</ele>
        <time>2021-11-16T03:58:48.681Z</time>
      </trkpt>
      <trkpt lat="40.36581" lon="41.50637">
        <ele>1398.951393</ele>
        <time>2021-11-16T03:58:58.638Z</time>
      </trkpt>
      <trkpt lat="40.36575" lon="41.50751">
        <ele>1403.397425</ele>
        <time>2021-11-16T03:59:37.141Z</time>
      </trkpt>
      <trkpt lat="40.36558" lon="41.5079">
        <ele>1404.981147</ele>
        <time>2021-11-16T03:59:52.387Z</time>
      </trkpt>
      <trkpt lat="40.36535" lon="41.50812">
        <ele>1406.108816</ele>
        <time>2021-11-16T04:00:04.863Z</time>
      </trkpt>
      <trkpt lat="40.36513" lon="41.50822">
        <ele>1407.026843</ele>
        <time>2021-11-16T04:00:14.904Z</time>
      </trkpt>
      <trkpt lat="40.36367" lon="41.50811">
        <ele>1412.073093</ele>
        <time>2021-11-16T04:01:06.299Z</time>
      </trkpt>
      <trkpt lat="40.36138" lon="41.5081">
        <ele>1416.409884</ele>
        <time>2021-11-16T04:02:10.116Z</time>
      </trkpt>
      <trkpt lat="40.36102" lon="41.50815">
        <ele>1417.138509</ele>
        <time>2021-11-16T04:02:21.012Z</time>
      </trkpt>
      <trkpt lat="40.3607" lon="41.50835">
        <ele>1417.853049</ele>
        <time>2021-11-16T04:02:32.349Z</time>
      </trkpt>
      <trkpt lat="40.36039" lon="41.50868">
        <ele>1418.779369</ele>
        <time>2021-11-16T04:02:45.509Z</time>
      </trkpt>
      <trkpt lat="40.3602" lon="41.50913">
        <ele>1419.970088</ele>
        <time>2021-11-16T04:02:59.415Z</time>
      </trkpt>
      <trkpt lat="40.36002" lon="41.50994">
        <ele>1421.919751</ele>
        <time>2021-11-16T04:03:22.389Z</time>
      </trkpt>
      <trkpt lat="40.35985" lon="41.51032">
        <ele>1422.943351</ele>
        <time>2021-11-16T04:03:33.938Z</time>
      </trkpt>
      <trkpt lat="40.35957" lon="41.51074">
        <ele>1424.104572</ele>
        <time>2021-11-16T04:03:48.215Z</time>
      </trkpt>
      <trkpt lat="40.35911" lon="41.51107">
        <ele>1425.20058</ele>
        <time>2021-11-16T04:04:05.199Z</time>
      </trkpt>
      <trkpt lat="40.35823" lon="41.51114">
        <ele>1427.04012</ele>
        <time>2021-11-16T04:04:29.627Z</time>
      </trkpt>
      <trkpt lat="40.35763" lon="41.51126">
        <ele>1428.825381</ele>
        <time>2021-11-16T04:04:48.587Z</time>
      </trkpt>
      <trkpt lat="40.35715" lon="41.51148">
        <ele>1430.671412</ele>
        <time>2021-11-16T04:05:06.323Z</time>
      </trkpt>
      <trkpt lat="40.35686" lon="41.51168">
        <ele>1431.862465</ele>
        <time>2021-11-16T04:05:19.732Z</time>
      </trkpt>
      <trkpt lat="40.35649" lon="41.51183">
        <ele>1433.24991</ele>
        <time>2021-11-16T04:05:34.592Z</time>
      </trkpt>
      <trkpt lat="40.35632" lon="41.5119">
        <ele>1433.88531</ele>
        <time>2021-11-16T04:05:43.907Z</time>
      </trkpt>
      <trkpt lat="40.3559" lon="41.51191">
        <ele>1435.267395</ele>
        <time>2021-11-16T04:05:59.674Z</time>
      </trkpt>
      <trkpt lat="40.35552" lon="41.51184">
        <ele>1436.473538</ele>
        <time>2021-11-16T04:06:13.986Z</time>
      </trkpt>
      <trkpt lat="40.35514" lon="41.5115">
        <ele>1437.941803</ele>
        <time>2021-11-16T04:06:29.802Z</time>
      </trkpt>
      <trkpt lat="40.35455" lon="41.51082">
        <ele>1440.355205</ele>
        <time>2021-11-16T04:06:54.332Z</time>
      </trkpt>
      <trkpt lat="40.35422" lon="41.51054">
        <ele>1441.440815</ele>
        <time>2021-11-16T04:07:04.639Z</time>
      </trkpt>
      <trkpt lat="40.35378" lon="41.51049">
        <ele>1442.681004</ele>
        <time>2021-11-16T04:07:17.272Z</time>
      </trkpt>
      <trkpt lat="40.35195" lon="41.51069">
        <ele>1449.47187</ele>
        <time>2021-11-16T04:08:29.757Z</time>
      </trkpt>
      <trkpt lat="40.35106" lon="41.51056">
        <ele>1452.865279</ele>
        <time>2021-11-16T04:09:07.653Z</time>
      </trkpt>
      <trkpt lat="40.35036" lon="41.51031">
        <ele>1453.882937</ele>
        <time>2021-11-16T04:09:30.163Z</time>
      </trkpt>
      <trkpt lat="40.34923" lon="41.50932">
        <ele>1455.339582</ele>
        <time>2021-11-16T04:09:58.719Z</time>
      </trkpt>
      <trkpt lat="40.34853" lon="41.50884">
        <ele>1455.662715</ele>
        <time>2021-11-16T04:10:14.415Z</time>
      </trkpt>
      <trkpt lat="40.34815" lon="41.50872">
        <ele>1455.823488</ele>
        <time>2021-11-16T04:10:24.659Z</time>
      </trkpt>
      <trkpt lat="40.34604" lon="41.50843">
        <ele>1462.91881</ele>
        <time>2021-11-16T04:11:44.106Z</time>
      </trkpt>
      <trkpt lat="40.34493" lon="41.50812">
        <ele>1467.091925</ele>
        <time>2021-11-16T04:12:27.675Z</time>
      </trkpt>
      <trkpt lat="40.34456" lon="41.50796">
        <ele>1468.549114</ele>
        <time>2021-11-16T04:12:41.906Z</time>
      </trkpt>
      <trkpt lat="40.34296" lon="41.50688">
        <ele>1472.89509</ele>
        <time>2021-11-16T04:13:39.505Z</time>
      </trkpt>
      <trkpt lat="40.34163" lon="41.50616">
        <ele>1474.074765</ele>
        <time>2021-11-16T04:14:17.275Z</time>
      </trkpt>
      <trkpt lat="40.34069" lon="41.50578">
        <ele>1473.84456</ele>
        <time>2021-11-16T04:14:37.790Z</time>
      </trkpt>
      <trkpt lat="40.33995" lon="41.50559">
        <ele>1473.022502</ele>
        <time>2021-11-16T04:14:51.943Z</time>
      </trkpt>
      <trkpt lat="40.3377" lon="41.50522">
        <ele>1470.155024</ele>
        <time>2021-11-16T04:15:33.168Z</time>
      </trkpt>
      <trkpt lat="40.33731" lon="41.50525">
        <ele>1470.436918</ele>
        <time>2021-11-16T04:15:41.690Z</time>
      </trkpt>
      <trkpt lat="40.33663" lon="41.50554">
        <ele>1471.22919</ele>
        <time>2021-11-16T04:15:59.858Z</time>
      </trkpt>
      <trkpt lat="40.33441" lon="41.50732">
        <ele>1476.357919</ele>
        <time>2021-11-16T04:17:22.954Z</time>
      </trkpt>
      <trkpt lat="40.3308" lon="41.51074">
        <ele>1483.179775</ele>
        <time>2021-11-16T04:19:28.540Z</time>
      </trkpt>
      <trkpt lat="40.32981" lon="41.51189">
        <ele>1485.457721</ele>
        <time>2021-11-16T04:20:05.311Z</time>
      </trkpt>
      <trkpt lat="40.32678" lon="41.51617">
        <ele>1495.368749</ele>
        <time>2021-11-16T04:22:27.610Z</time>
      </trkpt>
      <trkpt lat="40.32573" lon="41.5171">
        <ele>1497.308134</ele>
        <time>2021-11-16T04:23:02.637Z</time>
      </trkpt>
      <trkpt lat="40.32464" lon="41.518">
        <ele>1498.798437</ele>
        <time>2021-11-16T04:23:35.755Z</time>
      </trkpt>
      <trkpt lat="40.32339" lon="41.51946">
        <ele>1500.886593</ele>
        <time>2021-11-16T04:24:21.046Z</time>
      </trkpt>
      <trkpt lat="40.32215" lon="41.52089">
        <ele>1503.895108</ele>
        <time>2021-11-16T04:25:10.284Z</time>
      </trkpt>
      <trkpt lat="40.32185" lon="41.52123">
        <ele>1504.762273</ele>
        <time>2021-11-16T04:25:22.443Z</time>
      </trkpt>
      <trkpt lat="40.3215" lon="41.52162">
        <ele>1505.791534</ele>
        <time>2021-11-16T04:25:36.813Z</time>
      </trkpt>
      <trkpt lat="40.32127" lon="41.52184">
        <ele>1506.447072</ele>
        <time>2021-11-16T04:25:45.989Z</time>
      </trkpt>
      <trkpt lat="40.32112" lon="41.52198">
        <ele>1506.860005</ele>
        <time>2021-11-16T04:25:52.011Z</time>
      </trkpt>
      <trkpt lat="40.32069" lon="41.52225">
        <ele>1507.931126</ele>
        <time>2021-11-16T04:26:07.083Z</time>
      </trkpt>
      <trkpt lat="40.32019" lon="41.52242">
        <ele>1508.901034</ele>
        <time>2021-11-16T04:26:22.886Z</time>
      </trkpt>
      <trkpt lat="40.31682" lon="41.52344">
        <ele>1515.428357</ele>
        <time>2021-11-16T04:28:03.864Z</time>
      </trkpt>
      <trkpt lat="40.31643" lon="41.52364">
        <ele>1516.490634</ele>
        <time>2021-11-16T04:28:16.896Z</time>
      </trkpt>
      <trkpt lat="40.3159" lon="41.52406">
        <ele>1518.07135</ele>
        <time>2021-11-16T04:28:37.075Z</time>
      </trkpt>
      <trkpt lat="40.31553" lon="41.5244">
        <ele>1519.305058</ele>
        <time>2021-11-16T04:28:52.838Z</time>
      </trkpt>
      <trkpt lat="40.31499" lon="41.52489">
        <ele>1522.264675</ele>
        <time>2021-11-16T04:29:17.855Z</time>
      </trkpt>
      <trkpt lat="40.31462" lon="41.52515">
        <ele>1524.147866</ele>
        <time>2021-11-16T04:29:35.647Z</time>
      </trkpt>
      <trkpt lat="40.3139" lon="41.52531">
        <ele>1527.431757</ele>
        <time>2021-11-16T04:30:06.929Z</time>
      </trkpt>
      <trkpt lat="40.31337" lon="41.52535">
        <ele>1529.823457</ele>
        <time>2021-11-16T04:30:29.502Z</time>
      </trkpt>
      <trkpt lat="40.31249" lon="41.52535">
        <ele>1533.796172</ele>
        <time>2021-11-16T04:31:05.004Z</time>
      </trkpt>
      <trkpt lat="40.31174" lon="41.52539">
        <ele>1536.549684</ele>
        <time>2021-11-16T04:31:32.941Z</time>
      </trkpt>
      <trkpt lat="40.31076" lon="41.52547">
        <ele>1539.460426</ele>
        <time>2021-11-16T04:32:05.321Z</time>
      </trkpt>
      <trkpt lat="40.31026" lon="41.52559">
        <ele>1540.927948</ele>
        <time>2021-11-16T04:32:22.158Z</time>
      </trkpt>
      <trkpt lat="40.30906" lon="41.5262">
        <ele>1544.073456</ele>
        <time>2021-11-16T04:33:03.524Z</time>
      </trkpt>
      <trkpt lat="40.30803" lon="41.527">
        <ele>1546.938944</ele>
        <time>2021-11-16T04:33:40.733Z</time>
      </trkpt>
      <trkpt lat="40.30777" lon="41.52734">
        <ele>1547.822353</ele>
        <time>2021-11-16T04:33:52.335Z</time>
      </trkpt>
      <trkpt lat="40.30759" lon="41.52776">
        <ele>1548.701715</ele>
        <time>2021-11-16T04:34:04.088Z</time>
      </trkpt>
      <trkpt lat="40.30725" lon="41.52892">
        <ele>1551.249848</ele>
        <time>2021-11-16T04:34:35.386Z</time>
      </trkpt>
      <trkpt lat="40.30708" lon="41.52929">
        <ele>1552.174046</ele>
        <time>2021-11-16T04:34:46.581Z</time>
      </trkpt>
      <trkpt lat="40.30675" lon="41.52977">
        <ele>1553.574205</ele>
        <time>2021-11-16T04:35:03.766Z</time>
      </trkpt>
      <trkpt lat="40.30503" lon="41.53154">
        <ele>1559.094345</ele>
        <time>2021-11-16T04:36:15.405Z</time>
      </trkpt>
      <trkpt lat="40.30397" lon="41.53253">
        <ele>1561.077343</ele>
        <time>2021-11-16T04:36:51.772Z</time>
      </trkpt>
      <trkpt lat="40.30364" lon="41.53304">
        <ele>1561.851578</ele>
        <time>2021-11-16T04:37:05.237Z</time>
      </trkpt>
      <trkpt lat="40.30322" lon="41.53415">
        <ele>1563.229723</ele>
        <time>2021-11-16T04:37:30.671Z</time>
      </trkpt>
      <trkpt lat="40.30182" lon="41.53757">
        <ele>1568.957455</ele>
        <time>2021-11-16T04:38:59.052Z</time>
      </trkpt>
      <trkpt lat="40.30177" lon="41.53769">
        <ele>1569.224987</ele>
        <time>2021-11-16T04:39:02.632Z</time>
      </trkpt>
      <trkpt lat="40.30045" lon="41.54111">
        <ele>1577.838798</ele>
        <time>2021-11-16T04:40:42.949Z</time>
      </trkpt>
      <trkpt lat="40.29951" lon="41.54355">
        <ele>1585.134729</ele>
        <time>2021-11-16T04:41:58.831Z</time>
      </trkpt>
      <trkpt lat="40.29945" lon="41.54372">
        <ele>1585.678259</ele>
        <time>2021-11-16T04:42:04.882Z</time>
      </trkpt>
      <trkpt lat="40.29905" lon="41.54435">
        <ele>1587.970222</ele>
        <time>2021-11-16T04:42:28.165Z</time>
      </trkpt>
      <trkpt lat="40.29882" lon="41.54457">
        <ele>1589.023432</ele>
        <time>2021-11-16T04:42:38.825Z</time>
      </trkpt>
      <trkpt lat="40.29871" lon="41.54467">
        <ele>1589.524238</ele>
        <time>2021-11-16T04:42:43.933Z</time>
      </trkpt>
      <trkpt lat="40.29861" lon="41.54476">
        <ele>1589.966475</ele>
        <time>2021-11-16T04:42:48.476Z</time>
      </trkpt>
      <trkpt lat="40.29846" lon="41.5449">
        <ele>1590.635186</ele>
        <time>2021-11-16T04:42:54.805Z</time>
      </trkpt>
      <trkpt lat="40.29829" lon="41.54505">
        <ele>1591.369244</ele>
        <time>2021-11-16T04:43:02.504Z</time>
      </trkpt>
      <trkpt lat="40.29787" lon="41.5453">
        <ele>1592.603977</ele>
        <time>2021-11-16T04:43:18.297Z</time>
      </trkpt>
      <trkpt lat="40.29755" lon="41.54542">
        <ele>1593.494027</ele>
        <time>2021-11-16T04:43:29.987Z</time>
      </trkpt>
      <trkpt lat="40.296" lon="41.54578">
        <ele>1597.475463</ele>
        <time>2021-11-16T04:44:18.844Z</time>
      </trkpt>
      <trkpt lat="40.29552" lon="41.546">
        <ele>1598.641443</ele>
        <time>2021-11-16T04:44:34.355Z</time>
      </trkpt>
      <trkpt lat="40.29519" lon="41.54626">
        <ele>1599.520551</ele>
        <time>2021-11-16T04:44:46.598Z</time>
      </trkpt>
      <trkpt lat="40.2947" lon="41.54666">
        <ele>1600.906747</ele>
        <time>2021-11-16T04:45:05.212Z</time>
      </trkpt>
      <trkpt lat="40.29371" lon="41.54742">
        <ele>1603.84745</ele>
        <time>2021-11-16T04:45:42.463Z</time>
      </trkpt>
      <trkpt lat="40.29084" lon="41.54964">
        <ele>1613.225785</ele>
        <time>2021-11-16T04:47:32.426Z</time>
      </trkpt>
      <trkpt lat="40.29061" lon="41.54984">
        <ele>1614.081036</ele>
        <time>2021-11-16T04:47:42.640Z</time>
      </trkpt>
      <trkpt lat="40.28972" lon="41.5506">
        <ele>1618.057107</ele>
        <time>2021-11-16T04:48:22.892Z</time>
      </trkpt>
      <trkpt lat="40.28963" lon="41.55068">
        <ele>1618.48778</ele>
        <time>2021-11-16T04:48:27.075Z</time>
      </trkpt>
      <trkpt lat="40.289" lon="41.55138">
        <ele>1621.811762</ele>
        <time>2021-11-16T04:48:59.050Z</time>
      </trkpt>
      <trkpt lat="40.28666" lon="41.55501">
        <ele>1637.341256</ele>
        <time>2021-11-16T04:51:20.848Z</time>
      </trkpt>
      <trkpt lat="40.2856" lon="41.55615">
        <ele>1643.807349</ele>
        <time>2021-11-16T04:52:20.733Z</time>
      </trkpt>
      <trkpt lat="40.28525" lon="41.55638">
        <ele>1645.676601</ele>
        <time>2021-11-16T04:52:36.847Z</time>
      </trkpt>
      <trkpt lat="40.28427" lon="41.55672">
        <ele>1648.57852</ele>
        <time>2021-11-16T04:53:12.224Z</time>
      </trkpt>
      <trkpt lat="40.28297" lon="41.55707">
        <ele>1651.625256</ele>
        <time>2021-11-16T04:53:50.111Z</time>
      </trkpt>
      <trkpt lat="40.28125" lon="41.55762">
        <ele>1655.324671</ele>
        <time>2021-11-16T04:54:42.776Z</time>
      </trkpt>
      <trkpt lat="40.27987" lon="41.55798">
        <ele>1659.64919</ele>
        <time>2021-11-16T04:55:32.405Z</time>
      </trkpt>
      <trkpt lat="40.27861" lon="41.55816">
        <ele>1665.081872</ele>
        <time>2021-11-16T04:56:21.582Z</time>
      </trkpt>
      <trkpt lat="40.27772" lon="41.55815">
        <ele>1669.092573</ele>
        <time>2021-11-16T04:56:58.981Z</time>
      </trkpt>
      <trkpt lat="40.27658" lon="41.558">
        <ele>1674.60581</ele>
        <time>2021-11-16T04:57:47.769Z</time>
      </trkpt>
      <trkpt lat="40.27543" lon="41.55776">
        <ele>1679.009904</ele>
        <time>2021-11-16T04:58:33.187Z</time>
      </trkpt>
      <trkpt lat="40.27345" lon="41.55719">
        <ele>1685.045289</ele>
        <time>2021-11-16T04:59:38.905Z</time>
      </trkpt>
      <trkpt lat="40.27319" lon="41.55706">
        <ele>1685.792231</ele>
        <time>2021-11-16T04:59:47.938Z</time>
      </trkpt>
      <trkpt lat="40.27251" lon="41.55644">
        <ele>1688.248276</ele>
        <time>2021-11-16T05:00:15.778Z</time>
      </trkpt>
      <trkpt lat="40.27088" lon="41.55538">
        <ele>1694.433313</ele>
        <time>2021-11-16T05:01:22.349Z</time>
      </trkpt>
      <trkpt lat="40.27034" lon="41.5549">
        <ele>1696.642847</ele>
        <time>2021-11-16T05:01:46.157Z</time>
      </trkpt>
      <trkpt lat="40.26838" lon="41.55249">
        <ele>1705.546188</ele>
        <time>2021-11-16T05:03:20.225Z</time>
      </trkpt>
      <trkpt lat="40.26457" lon="41.54873">
        <ele>1724.107905</ele>
        <time>2021-11-16T05:06:17.754Z</time>
      </trkpt>
      <trkpt lat="40.26277" lon="41.54673">
        <ele>1737.550938</ele>
        <time>2021-11-16T05:08:06.798Z</time>
      </trkpt>
      <trkpt lat="40.262" lon="41.5458">
        <ele>1744.108011</ele>
        <time>2021-11-16T05:08:58.211Z</time>
      </trkpt>
      <trkpt lat="40.26176" lon="41.54531">
        <ele>1746.896294</ele>
        <time>2021-11-16T05:09:19.714Z</time>
      </trkpt>
      <trkpt lat="40.26092" lon="41.54228">
        <ele>1759.759619</ele>
        <time>2021-11-16T05:11:06.351Z</time>
      </trkpt>
      <trkpt lat="40.2604" lon="41.54116">
        <ele>1763.927299</ele>
        <time>2021-11-16T05:11:44.320Z</time>
      </trkpt>
      <trkpt lat="40.25996" lon="41.54061">
        <ele>1766.394994</ele>
        <time>2021-11-16T05:12:06.422Z</time>
      </trkpt>
      <trkpt lat="40.25856" lon="41.5395">
        <ele>1772.745605</ele>
        <time>2021-11-16T05:13:07.660Z</time>
      </trkpt>
      <trkpt lat="40.25831" lon="41.53914">
        <ele>1774.600256</ele>
        <time>2021-11-16T05:13:22.540Z</time>
      </trkpt>
      <trkpt lat="40.25772" lon="41.53763">
        <ele>1781.054111</ele>
        <time>2021-11-16T05:14:17.702Z</time>
      </trkpt>
      <trkpt lat="40.25683" lon="41.53591">
        <ele>1790.534199</ele>
        <time>2021-11-16T05:15:30.997Z</time>
      </trkpt>
      <trkpt lat="40.25631" lon="41.53516">
        <ele>1795.686317</ele>
        <time>2021-11-16T05:16:08.878Z</time>
      </trkpt>
      <trkpt lat="40.25561" lon="41.53433">
        <ele>1802.256881</ele>
        <time>2021-11-16T05:16:56.222Z</time>
      </trkpt>
      <trkpt lat="40.25482" lon="41.53314">
        <ele>1811.422001</ele>
        <time>2021-11-16T05:17:59.465Z</time>
      </trkpt>
      <trkpt lat="40.25429" lon="41.53209">
        <ele>1819.034358</ele>
        <time>2021-11-16T05:18:52.265Z</time>
      </trkpt>
      <trkpt lat="40.25358" lon="41.52905">
        <ele>1840.251292</ele>
        <time>2021-11-16T05:21:10.122Z</time>
      </trkpt>
      <trkpt lat="40.25306" lon="41.52781">
        <ele>1850.203743</ele>
        <time>2021-11-16T05:22:14.306Z</time>
      </trkpt>
      <trkpt lat="40.25197" lon="41.52619">
        <ele>1867.254156</ele>
        <time>2021-11-16T05:23:58.874Z</time>
      </trkpt>
      <trkpt lat="40.25181" lon="41.52574">
        <ele>1871.266689</ele>
        <time>2021-11-16T05:24:24.641Z</time>
      </trkpt>
      <trkpt lat="40.25174" lon="41.52525">
        <ele>1875.386387</ele>
        <time>2021-11-16T05:24:50.724Z</time>
      </trkpt>
      <trkpt lat="40.25155" lon="41.52449">
        <ele>1881.943229</ele>
        <time>2021-11-16T05:25:31.937Z</time>
      </trkpt>
      <trkpt lat="40.25118" lon="41.52366">
        <ele>1889.635668</ele>
        <time>2021-11-16T05:26:19.572Z</time>
      </trkpt>
      <trkpt lat="40.25049" lon="41.52266">
        <ele>1896.79905</ele>
        <time>2021-11-16T05:27:17.454Z</time>
      </trkpt>
      <trkpt lat="40.25006" lon="41.52175">
        <ele>1901.792504</ele>
        <time>2021-11-16T05:27:50.767Z</time>
      </trkpt>
      <trkpt lat="40.24964" lon="41.52108">
        <ele>1901.784424</ele>
        <time>2021-11-16T05:28:10.493Z</time>
      </trkpt>
      <trkpt lat="40.24733" lon="41.51694">
        <ele>1901.647261</ele>
        <time>2021-11-16T05:29:27.785Z</time>
      </trkpt>
      <trkpt lat="40.24714" lon="41.51669">
        <ele>1901.621507</ele>
        <time>2021-11-16T05:29:34.307Z</time>
      </trkpt>
      <trkpt lat="40.24579" lon="41.51492">
        <ele>1903.232706</ele>
        <time>2021-11-16T05:30:25.495Z</time>
      </trkpt>
      <trkpt lat="40.24396" lon="41.5123">
        <ele>1906.908668</ele>
        <time>2021-11-16T05:31:38.926Z</time>
      </trkpt>
      <trkpt lat="40.24316" lon="41.51159">
        <ele>1908.742709</ele>
        <time>2021-11-16T05:32:08.104Z</time>
      </trkpt>
      <trkpt lat="40.24256" lon="41.51126">
        <ele>1910.474772</ele>
        <time>2021-11-16T05:32:29.554Z</time>
      </trkpt>
      <trkpt lat="40.2419" lon="41.51103">
        <ele>1912.652821</ele>
        <time>2021-11-16T05:32:53.449Z</time>
      </trkpt>
      <trkpt lat="40.24005" lon="41.51085">
        <ele>1918.934613</ele>
        <time>2021-11-16T05:34:01.693Z</time>
      </trkpt>
      <trkpt lat="40.23931" lon="41.51066">
        <ele>1921.560145</ele>
        <time>2021-11-16T05:34:28.631Z</time>
      </trkpt>
      <trkpt lat="40.23867" lon="41.51032">
        <ele>1923.776428</ele>
        <time>2021-11-16T05:34:52.739Z</time>
      </trkpt>
      <trkpt lat="40.23854" lon="41.51025">
        <ele>1924.226178</ele>
        <time>2021-11-16T05:34:57.583Z</time>
      </trkpt>
      <trkpt lat="40.23814" lon="41.50993">
        <ele>1925.735573</ele>
        <time>2021-11-16T05:35:13.726Z</time>
      </trkpt>
      <trkpt lat="40.23781" lon="41.50954">
        <ele>1927.181164</ele>
        <time>2021-11-16T05:35:29.164Z</time>
      </trkpt>
      <trkpt lat="40.23682" lon="41.50832">
        <ele>1932.971822</ele>
        <time>2021-11-16T05:36:20.213Z</time>
      </trkpt>
      <trkpt lat="40.23346" lon="41.50298">
        <ele>1962.673775</ele>
        <time>2021-11-16T05:40:20.601Z</time>
      </trkpt>
      <trkpt lat="40.23243" lon="41.50097">
        <ele>1972.625581</ele>
        <time>2021-11-16T05:41:40.363Z</time>
      </trkpt>
      <trkpt lat="40.23002" lon="41.49541">
        <ele>1999.75085</ele>
        <time>2021-11-16T05:45:13.067Z</time>
      </trkpt>
      <trkpt lat="40.22847" lon="41.49199">
        <ele>2022.467366</ele>
        <time>2021-11-16T05:47:56.888Z</time>
      </trkpt>
      <trkpt lat="40.22781" lon="41.49037">
        <ele>2033.067013</ele>
        <time>2021-11-16T05:49:10.319Z</time>
      </trkpt>
      <trkpt lat="40.22638" lon="41.48632">
        <ele>2056.620118</ele>
        <time>2021-11-16T05:52:03.177Z</time>
      </trkpt>
      <trkpt lat="40.22442" lon="41.47925">
        <ele>2085.575466</ele>
        <time>2021-11-16T05:56:02.453Z</time>
      </trkpt>
      <trkpt lat="40.2241" lon="41.47832">
        <ele>2090.569855</ele>
        <time>2021-11-16T05:56:38.897Z</time>
      </trkpt>
      <trkpt lat="40.22382" lon="41.47771">
        <ele>2094.074462</ele>
        <time>2021-11-16T05:57:05.793Z</time>
      </trkpt>
      <trkpt lat="40.22326" lon="41.47669">
        <ele>2100.504244</ele>
        <time>2021-11-16T05:57:54.747Z</time>
      </trkpt>
      <trkpt lat="40.22248" lon="41.47574">
        <ele>2107.927431</ele>
        <time>2021-11-16T05:58:48.457Z</time>
      </trkpt>
      <trkpt lat="40.22174" lon="41.47511">
        <ele>2113.104236</ele>
        <time>2021-11-16T05:59:31.161Z</time>
      </trkpt>
      <trkpt lat="40.22098" lon="41.47463">
        <ele>2117.694457</ele>
        <time>2021-11-16T06:00:08.827Z</time>
      </trkpt>
      <trkpt lat="40.22031" lon="41.47442">
        <ele>2119.576906</ele>
        <time>2021-11-16T06:00:34.323Z</time>
      </trkpt>
      <trkpt lat="40.21962" lon="41.47431">
        <ele>2119.865379</ele>
        <time>2021-11-16T06:00:54.417Z</time>
      </trkpt>
      <trkpt lat="40.20472" lon="41.47317">
        <ele>2080.06165</ele>
        <time>2021-11-16T06:05:02.244Z</time>
      </trkpt>
      <trkpt lat="40.20297" lon="41.47298">
        <ele>2077.547245</ele>
        <time>2021-11-16T06:05:35.148Z</time>
      </trkpt>
      <trkpt lat="40.20117" lon="41.47257">
        <ele>2075.834414</ele>
        <time>2021-11-16T06:06:12.014Z</time>
      </trkpt>
      <trkpt lat="40.19953" lon="41.47212">
        <ele>2072.602858</ele>
        <time>2021-11-16T06:06:41.995Z</time>
      </trkpt>
      <trkpt lat="40.19762" lon="41.47122">
        <ele>2066.563991</ele>
        <time>2021-11-16T06:07:14.957Z</time>
      </trkpt>
      <trkpt lat="40.1967" lon="41.47063">
        <ele>2063.397075</ele>
        <time>2021-11-16T06:07:31.535Z</time>
      </trkpt>
      <trkpt lat="40.19546" lon="41.46962">
        <ele>2059.21802</ele>
        <time>2021-11-16T06:07:55.759Z</time>
      </trkpt>
      <trkpt lat="40.19305" lon="41.46752">
        <ele>2052.23678</ele>
        <time>2021-11-16T06:08:45.449Z</time>
      </trkpt>
      <trkpt lat="40.19068" lon="41.46545">
        <ele>2046.152068</ele>
        <time>2021-11-16T06:09:34.786Z</time>
      </trkpt>
      <trkpt lat="40.18913" lon="41.46406">
        <ele>2042.670342</ele>
        <time>2021-11-16T06:10:08.775Z</time>
      </trkpt>
      <trkpt lat="40.18603" lon="41.46104">
        <ele>2035.098417</ele>
        <time>2021-11-16T06:11:17.109Z</time>
      </trkpt>
      <trkpt lat="40.18523" lon="41.45996">
        <ele>2032.344655</ele>
        <time>2021-11-16T06:11:36.726Z</time>
      </trkpt>
      <trkpt lat="40.18317" lon="41.45668">
        <ele>2023.483573</ele>
        <time>2021-11-16T06:12:30.850Z</time>
      </trkpt>
      <trkpt lat="40.18219" lon="41.45493">
        <ele>2018.840678</ele>
        <time>2021-11-16T06:12:58.430Z</time>
      </trkpt>
      <trkpt lat="40.18082" lon="41.45186">
        <ele>2011.696847</ele>
        <time>2021-11-16T06:13:44.040Z</time>
      </trkpt>
      <trkpt lat="40.17768" lon="41.44452">
        <ele>1997.274686</ele>
        <time>2021-11-16T06:15:35.032Z</time>
      </trkpt>
      <trkpt lat="40.17655" lon="41.44202">
        <ele>1993.641313</ele>
        <time>2021-11-16T06:16:14.956Z</time>
      </trkpt>
      <trkpt lat="40.17569" lon="41.44051">
        <ele>1992.099201</ele>
        <time>2021-11-16T06:16:42.959Z</time>
      </trkpt>
      <trkpt lat="40.17473" lon="41.43938">
        <ele>1991.399626</ele>
        <time>2021-11-16T06:17:09.775Z</time>
      </trkpt>
      <trkpt lat="40.174" lon="41.43873">
        <ele>1990.758483</ele>
        <time>2021-11-16T06:17:27.945Z</time>
      </trkpt>
      <trkpt lat="40.17247" lon="41.4377">
        <ele>1989.208727</ele>
        <time>2021-11-16T06:18:01.346Z</time>
      </trkpt>
      <trkpt lat="40.17136" lon="41.43721">
        <ele>1987.890205</ele>
        <time>2021-11-16T06:18:23.414Z</time>
      </trkpt>
      <trkpt lat="40.16235" lon="41.43422">
        <ele>1976.025967</ele>
        <time>2021-11-16T06:21:18.304Z</time>
      </trkpt>
      <trkpt lat="40.1617" lon="41.434">
        <ele>1974.550866</ele>
        <time>2021-11-16T06:21:30.144Z</time>
      </trkpt>
      <trkpt lat="40.15844" lon="41.43289">
        <ele>1964.75481</ele>
        <time>2021-11-16T06:22:26.093Z</time>
      </trkpt>
      <trkpt lat="40.1575" lon="41.43263">
        <ele>1961.196493</ele>
        <time>2021-11-16T06:22:40.864Z</time>
      </trkpt>
      <trkpt lat="40.15658" lon="41.43255">
        <ele>1958.134126</ele>
        <time>2021-11-16T06:22:55.290Z</time>
      </trkpt>
      <trkpt lat="40.15572" lon="41.43262">
        <ele>1955.327181</ele>
        <time>2021-11-16T06:23:09.642Z</time>
      </trkpt>
      <trkpt lat="40.15504" lon="41.43281">
        <ele>1954.349329</ele>
        <time>2021-11-16T06:23:22.470Z</time>
      </trkpt>
      <trkpt lat="40.15414" lon="41.43318">
        <ele>1953.27554</ele>
        <time>2021-11-16T06:23:41.601Z</time>
      </trkpt>
      <trkpt lat="40.15261" lon="41.43422">
        <ele>1951.729316</ele>
        <time>2021-11-16T06:24:14.546Z</time>
      </trkpt>
      <trkpt lat="40.1522" lon="41.43442">
        <ele>1951.438133</ele>
        <time>2021-11-16T06:24:23.379Z</time>
      </trkpt>
      <trkpt lat="40.1521" lon="41.43447">
        <ele>1951.427074</ele>
        <time>2021-11-16T06:24:25.889Z</time>
      </trkpt>
      <trkpt lat="40.15143" lon="41.43464">
        <ele>1951.357111</ele>
        <time>2021-11-16T06:24:41.698Z</time>
      </trkpt>
      <trkpt lat="40.15077" lon="41.43464">
        <ele>1951.289125</ele>
        <time>2021-11-16T06:24:56.420Z</time>
      </trkpt>
      <trkpt lat="40.15013" lon="41.43455">
        <ele>1950.010697</ele>
        <time>2021-11-16T06:25:11.556Z</time>
      </trkpt>
      <trkpt lat="40.14425" lon="41.43281">
        <ele>1931.419469</ele>
        <time>2021-11-16T06:26:48.961Z</time>
      </trkpt>
      <trkpt lat="40.14335" lon="41.43243">
        <ele>1928.614465</ele>
        <time>2021-11-16T06:27:04.401Z</time>
      </trkpt>
      <trkpt lat="40.14162" lon="41.43134">
        <ele>1924.526837</ele>
        <time>2021-11-16T06:27:38.078Z</time>
      </trkpt>
      <trkpt lat="40.13919" lon="41.42991">
        <ele>1919.907446</ele>
        <time>2021-11-16T06:28:26.266Z</time>
      </trkpt>
      <trkpt lat="40.13741" lon="41.42863">
        <ele>1916.17361</ele>
        <time>2021-11-16T06:29:02.359Z</time>
      </trkpt>
      <trkpt lat="40.1363" lon="41.42764">
        <ele>1913.669272</ele>
        <time>2021-11-16T06:29:26.108Z</time>
      </trkpt>
      <trkpt lat="40.13377" lon="41.4256">
        <ele>1908.354262</ele>
        <time>2021-11-16T06:30:19.288Z</time>
      </trkpt>
      <trkpt lat="40.13224" lon="41.4245">
        <ele>1905.377522</ele>
        <time>2021-11-16T06:30:51.015Z</time>
      </trkpt>
      <trkpt lat="40.13093" lon="41.42363">
        <ele>1902.583994</ele>
        <time>2021-11-16T06:31:16.996Z</time>
      </trkpt>
      <trkpt lat="40.12948" lon="41.4228">
        <ele>1899.451122</ele>
        <time>2021-11-16T06:31:44.834Z</time>
      </trkpt>
      <trkpt lat="40.1285" lon="41.42241">
        <ele>1897.484435</ele>
        <time>2021-11-16T06:32:02.973Z</time>
      </trkpt>
      <trkpt lat="40.12652" lon="41.42178">
        <ele>1893.665759</ele>
        <time>2021-11-16T06:32:39.011Z</time>
      </trkpt>
      <trkpt lat="40.12351" lon="41.42076">
        <ele>1888.000543</ele>
        <time>2021-11-16T06:33:34.747Z</time>
      </trkpt>
      <trkpt lat="40.12277" lon="41.42023">
        <ele>1886.359793</ele>
        <time>2021-11-16T06:33:49.612Z</time>
      </trkpt>
      <trkpt lat="40.1222" lon="41.41972">
        <ele>1884.998655</ele>
        <time>2021-11-16T06:34:01.689Z</time>
      </trkpt>
      <trkpt lat="40.12153" lon="41.41888">
        <ele>1883.123927</ele>
        <time>2021-11-16T06:34:17.902Z</time>
      </trkpt>
      <trkpt lat="40.11926" lon="41.41561">
        <ele>1876.447262</ele>
        <time>2021-11-16T06:35:17.401Z</time>
      </trkpt>
      <trkpt lat="40.1163" lon="41.41151">
        <ele>1868.50674</ele>
        <time>2021-11-16T06:36:34.034Z</time>
      </trkpt>
      <trkpt lat="40.11577" lon="41.41044">
        <ele>1867.386687</ele>
        <time>2021-11-16T06:36:52.492Z</time>
      </trkpt>
      <trkpt lat="40.1155" lon="41.40968">
        <ele>1866.713147</ele>
        <time>2021-11-16T06:37:04.955Z</time>
      </trkpt>
      <trkpt lat="40.11489" lon="41.40756">
        <ele>1865.523189</ele>
        <time>2021-11-16T06:37:39.466Z</time>
      </trkpt>
      <trkpt lat="40.10805" lon="41.38328">
        <ele>1862.636385</ele>
        <time>2021-11-16T06:44:49.029Z</time>
      </trkpt>
      <trkpt lat="40.10741" lon="41.38125">
        <ele>1862.497933</ele>
        <time>2021-11-16T06:45:27.958Z</time>
      </trkpt>
      <trkpt lat="40.10663" lon="41.3794">
        <ele>1861.453952</ele>
        <time>2021-11-16T06:45:59.888Z</time>
      </trkpt>
      <trkpt lat="40.10574" lon="41.37791">
        <ele>1860.301264</ele>
        <time>2021-11-16T06:46:27.348Z</time>
      </trkpt>
      <trkpt lat="40.10509" lon="41.37704">
        <ele>1859.640622</ele>
        <time>2021-11-16T06:46:46.262Z</time>
      </trkpt>
      <trkpt lat="40.10433" lon="41.37623">
        <ele>1859.46968</ele>
        <time>2021-11-16T06:47:08.008Z</time>
      </trkpt>
      <trkpt lat="40.10304" lon="41.37516">
        <ele>1858.731702</ele>
        <time>2021-11-16T06:47:41.826Z</time>
      </trkpt>
      <trkpt lat="40.10185" lon="41.37444">
        <ele>1857.075152</ele>
        <time>2021-11-16T06:48:06.343Z</time>
      </trkpt>
      <trkpt lat="40.09521" lon="41.37117">
        <ele>1832.6952</ele>
        <time>2021-11-16T06:50:00.142Z</time>
      </trkpt>
      <trkpt lat="40.09446" lon="41.37079">
        <ele>1830.419152</ele>
        <time>2021-11-16T06:50:12.947Z</time>
      </trkpt>
      <trkpt lat="40.09116" lon="41.36912">
        <ele>1822.452717</ele>
        <time>2021-11-16T06:51:14.303Z</time>
      </trkpt>
      <trkpt lat="40.07283" lon="41.35987">
        <ele>1791.058301</ele>
        <time>2021-11-16T06:57:11.810Z</time>
      </trkpt>
      <trkpt lat="40.0667" lon="41.35668">
        <ele>1783.461718</ele>
        <time>2021-11-16T06:59:17.337Z</time>
      </trkpt>
      <trkpt lat="40.06588" lon="41.35617">
        <ele>1782.885449</ele>
        <time>2021-11-16T06:59:36.091Z</time>
      </trkpt>
      <trkpt lat="40.06512" lon="41.35569">
        <ele>1782.351308</ele>
        <time>2021-11-16T06:59:53.148Z</time>
      </trkpt>
      <trkpt lat="40.06481" lon="41.35549">
        <ele>1782.08097</ele>
        <time>2021-11-16T07:00:00.022Z</time>
      </trkpt>
      <trkpt lat="40.06416" lon="41.35508">
        <ele>1781.505989</ele>
        <time>2021-11-16T07:00:14.383Z</time>
      </trkpt>
      <trkpt lat="40.06135" lon="41.35292">
        <ele>1778.740395</ele>
        <time>2021-11-16T07:01:17.857Z</time>
      </trkpt>
      <trkpt lat="40.05839" lon="41.35007">
        <ele>1775.974332</ele>
        <time>2021-11-16T07:02:32.350Z</time>
      </trkpt>
      <trkpt lat="40.05494" lon="41.34675">
        <ele>1771.225124</ele>
        <time>2021-11-16T07:03:52.648Z</time>
      </trkpt>
      <trkpt lat="40.03118" lon="41.32429">
        <ele>1761.3954</ele>
        <time>2021-11-16T07:14:10.991Z</time>
      </trkpt>
      <trkpt lat="40.0309" lon="41.32045">
        <ele>1760.44341</ele>
        <time>2021-11-16T07:15:12.979Z</time>
      </trkpt>
      <trkpt lat="40.03091" lon="41.32009">
        <ele>1760.359511</ele>
        <time>2021-11-16T07:15:18.781Z</time>
      </trkpt>
      <trkpt lat="40.03109" lon="41.3194">
        <ele>1760.329739</ele>
        <time>2021-11-16T07:15:30.865Z</time>
      </trkpt>
      <trkpt lat="40.0311" lon="41.31903">
        <ele>1760.338948</ele>
        <time>2021-11-16T07:15:37.106Z</time>
      </trkpt>
      <trkpt lat="40.03055" lon="41.31499">
        <ele>1760.630679</ele>
        <time>2021-11-16T07:16:48.766Z</time>
      </trkpt>
      <trkpt lat="40.03045" lon="41.31437">
        <ele>1760.608628</ele>
        <time>2021-11-16T07:16:59.552Z</time>
      </trkpt>
      <trkpt lat="40.03016" lon="41.31445">
        <ele>1760.594992</ele>
        <time>2021-11-16T07:17:06.422Z</time>
      </trkpt>
      <trkpt lat="40.0295" lon="41.31445">
        <ele>1760.5651</ele>
        <time>2021-11-16T07:17:21.283Z</time>
      </trkpt>
      <trkpt lat="40.0256" lon="41.31404">
        <ele>1759.72834</ele>
        <time>2021-11-16T07:18:48.563Z</time>
      </trkpt>
      <trkpt lat="40.0248" lon="41.31384">
        <ele>1759.597486</ele>
        <time>2021-11-16T07:19:06.989Z</time>
      </trkpt>
      <trkpt lat="40.02464" lon="41.31375">
        <ele>1759.568846</ele>
        <time>2021-11-16T07:19:11.032Z</time>
      </trkpt>
      <trkpt lat="40.02338" lon="41.31256">
        <ele>1759.395479</ele>
        <time>2021-11-16T07:19:46.545Z</time>
      </trkpt>
      <trkpt lat="40.02141" lon="41.31093">
        <ele>1759.145359</ele>
        <time>2021-11-16T07:20:39.740Z</time>
      </trkpt>
      <trkpt lat="40.02098" lon="41.31066">
        <ele>1759.059148</ele>
        <time>2021-11-16T07:20:50.492Z</time>
      </trkpt>
      <trkpt lat="40.01782" lon="41.3101">
        <ele>1758.186288</ele>
        <time>2021-11-16T07:22:00.660Z</time>
      </trkpt>
      <trkpt lat="40.01543" lon="41.31011">
        <ele>1758.008981</ele>
        <time>2021-11-16T07:22:55.422Z</time>
      </trkpt>
      <trkpt lat="40.01023" lon="41.30834">
        <ele>1757.878959</ele>
        <time>2021-11-16T07:24:59.612Z</time>
      </trkpt>
      <trkpt lat="40.00988" lon="41.3083">
        <ele>1757.848704</ele>
        <time>2021-11-16T07:25:07.852Z</time>
      </trkpt>
      <trkpt lat="40.00686" lon="41.30904">
        <ele>1757.496959</ele>
        <time>2021-11-16T07:26:17.709Z</time>
      </trkpt>
      <trkpt lat="40.00478" lon="41.30871">
        <ele>1757.272834</ele>
        <time>2021-11-16T07:27:04.928Z</time>
      </trkpt>
      <trkpt lat="40.00433" lon="41.30857">
        <ele>1757.273799</ele>
        <time>2021-11-16T07:27:15.735Z</time>
      </trkpt>
      <trkpt lat="40.00235" lon="41.30692">
        <ele>1757.284611</ele>
        <time>2021-11-16T07:28:10.776Z</time>
      </trkpt>
      <trkpt lat="40.0004" lon="41.30627">
        <ele>1756.921765</ele>
        <time>2021-11-16T07:28:55.620Z</time>
      </trkpt>
      <trkpt lat="40" lon="41.3062">
        <ele>1756.870472</ele>
        <time>2021-11-16T07:29:04.552Z</time>
      </trkpt>
      <trkpt lat="39.99968" lon="41.30624">
        <ele>1756.84298</ele>
        <time>2021-11-16T07:29:11.721Z</time>
      </trkpt>
      <trkpt lat="39.99786" lon="41.30703">
        <ele>1756.803927</ele>
        <time>2021-11-16T07:29:56.158Z</time>
      </trkpt>
      <trkpt lat="39.99463" lon="41.3069">
        <ele>1757.219998</ele>
        <time>2021-11-16T07:31:13.266Z</time>
      </trkpt>
      <trkpt lat="39.9943" lon="41.30694">
        <ele>1757.220925</ele>
        <time>2021-11-16T07:31:21.066Z</time>
      </trkpt>
      <trkpt lat="39.9903" lon="41.30571">
        <ele>1757.268439</ele>
        <time>2021-11-16T07:32:51.897Z</time>
      </trkpt>
      <trkpt lat="39.97713" lon="41.30136">
        <ele>1759.109714</ele>
        <time>2021-11-16T07:38:01.492Z</time>
      </trkpt>
      <trkpt lat="39.96392" lon="41.29711">
        <ele>1761.453876</ele>
        <time>2021-11-16T07:43:12.925Z</time>
      </trkpt>
      <trkpt lat="39.96226" lon="41.29657">
        <ele>1762.483508</ele>
        <time>2021-11-16T07:43:55.192Z</time>
      </trkpt>
      <trkpt lat="39.96048" lon="41.29599">
        <ele>1764.228119</ele>
        <time>2021-11-16T07:44:43.279Z</time>
      </trkpt>
      <trkpt lat="39.95953" lon="41.29566">
        <ele>1765.19364</ele>
        <time>2021-11-16T07:45:09.733Z</time>
      </trkpt>
      <trkpt lat="39.95873" lon="41.2954">
        <ele>1765.959052</ele>
        <time>2021-11-16T07:45:31.012Z</time>
      </trkpt>
      <trkpt lat="39.95805" lon="41.29519">
        <ele>1766.588498</ele>
        <time>2021-11-16T07:45:48.841Z</time>
      </trkpt>
      <trkpt lat="39.95728" lon="41.29496">
        <ele>1767.265594</ele>
        <time>2021-11-16T07:46:08.866Z</time>
      </trkpt>
      <trkpt lat="39.95672" lon="41.29476">
        <ele>1767.765906</ele>
        <time>2021-11-16T07:46:23.510Z</time>
      </trkpt>
      <trkpt lat="39.95269" lon="41.29348">
        <ele>1773.122643</ele>
        <time>2021-11-16T07:48:17.123Z</time>
      </trkpt>
      <trkpt lat="39.95169" lon="41.29308">
        <ele>1774.744762</ele>
        <time>2021-11-16T07:48:47.723Z</time>
      </trkpt>
      <trkpt lat="39.95072" lon="41.29254">
        <ele>1776.330179</ele>
        <time>2021-11-16T07:49:17.265Z</time>
      </trkpt>
      <trkpt lat="39.95071" lon="41.29253">
        <ele>1776.346556</ele>
        <time>2021-11-16T07:49:17.864Z</time>
      </trkpt>
      <trkpt lat="39.95066" lon="41.2925">
        <ele>1776.437981</ele>
        <time>2021-11-16T07:49:19.498Z</time>
      </trkpt>
      <trkpt lat="39.95052" lon="41.29242">
        <ele>1776.658123</ele>
        <time>2021-11-16T07:49:23.711Z</time>
      </trkpt>
      <trkpt lat="39.95049" lon="41.29247">
        <ele>1776.730704</ele>
        <time>2021-11-16T07:49:24.974Z</time>
      </trkpt>
      <trkpt lat="39.95047" lon="41.29251">
        <ele>1776.788303</ele>
        <time>2021-11-16T07:49:26.007Z</time>
      </trkpt>
      <trkpt lat="39.95044" lon="41.2926">
        <ele>1776.895289</ele>
        <time>2021-11-16T07:49:28.181Z</time>
      </trkpt>
      <trkpt lat="39.95043" lon="41.29264">
        <ele>1776.945895</ele>
        <time>2021-11-16T07:49:29.069Z</time>
      </trkpt>
      <trkpt lat="39.95043" lon="41.2927">
        <ele>1777.013451</ele>
        <time>2021-11-16T07:49:30.321Z</time>
      </trkpt>
      <trkpt lat="39.95037" lon="41.29282">
        <ele>1777.177376</ele>
        <time>2021-11-16T07:49:33.552Z</time>
      </trkpt>
      <trkpt lat="39.95024" lon="41.29306">
        <ele>1777.506063</ele>
        <time>2021-11-16T07:49:39.865Z</time>
      </trkpt>
      <trkpt lat="39.95009" lon="41.29297">
        <ele>1777.760756</ele>
        <time>2021-11-16T07:49:44.689Z</time>
      </trkpt>
      <trkpt lat="39.94964" lon="41.29282">
        <ele>1778.438602</ele>
        <time>2021-11-16T07:49:57.267Z</time>
      </trkpt>
      <trkpt lat="39.94815" lon="41.29224">
        <ele>1780.753186</ele>
        <time>2021-11-16T07:50:41.104Z</time>
      </trkpt>
      <trkpt lat="39.94777" lon="41.29211">
        <ele>1781.395441</ele>
        <time>2021-11-16T07:50:52.417Z</time>
      </trkpt>
      <trkpt lat="39.94774" lon="41.2921">
        <ele>1781.45618</ele>
        <time>2021-11-16T07:50:53.785Z</time>
      </trkpt>
      <trkpt lat="39.94676" lon="41.29174">
        <ele>1783.104973</ele>
        <time>2021-11-16T07:51:22.791Z</time>
      </trkpt>
      <trkpt lat="39.9461" lon="41.29154">
        <ele>1784.199211</ele>
        <time>2021-11-16T07:51:42.333Z</time>
      </trkpt>
      <trkpt lat="39.94495" lon="41.29118">
        <ele>1786.123832</ele>
        <time>2021-11-16T07:52:16.149Z</time>
      </trkpt>
      <trkpt lat="39.94414" lon="41.29091">
        <ele>1787.622426</ele>
        <time>2021-11-16T07:52:40.540Z</time>
      </trkpt>
      <trkpt lat="39.94333" lon="41.29063">
        <ele>1789.17295</ele>
        <time>2021-11-16T07:53:05.135Z</time>
      </trkpt>
      <trkpt lat="39.94262" lon="41.29038">
        <ele>1790.777012</ele>
        <time>2021-11-16T07:53:27.575Z</time>
      </trkpt>
      <trkpt lat="39.94251" lon="41.29035">
        <ele>1791.069525</ele>
        <time>2021-11-16T07:53:31.509Z</time>
      </trkpt>
      <trkpt lat="39.94192" lon="41.29017">
        <ele>1792.575176</ele>
        <time>2021-11-16T07:53:51.164Z</time>
      </trkpt>
      <trkpt lat="39.9419" lon="41.29016">
        <ele>1792.626896</ele>
        <time>2021-11-16T07:53:52.079Z</time>
      </trkpt>
      <trkpt lat="39.94151" lon="41.29004">
        <ele>1793.63744</ele>
        <time>2021-11-16T07:54:05.580Z</time>
      </trkpt>
      <trkpt lat="39.94125" lon="41.28995">
        <ele>1794.307389</ele>
        <time>2021-11-16T07:54:14.197Z</time>
      </trkpt>
      <trkpt lat="39.94119" lon="41.28993">
        <ele>1794.457658</ele>
        <time>2021-11-16T07:54:16.431Z</time>
      </trkpt>
      <trkpt lat="39.94077" lon="41.28978">
        <ele>1795.456998</ele>
        <time>2021-11-16T07:54:30.134Z</time>
      </trkpt>
      <trkpt lat="39.94072" lon="41.28976">
        <ele>1795.581449</ele>
        <time>2021-11-16T07:54:31.802Z</time>
      </trkpt>
      <trkpt lat="39.94048" lon="41.28967">
        <ele>1796.162121</ele>
        <time>2021-11-16T07:54:39.977Z</time>
      </trkpt>
      <trkpt lat="39.94037" lon="41.28963">
        <ele>1796.419439</ele>
        <time>2021-11-16T07:54:43.358Z</time>
      </trkpt>
      <trkpt lat="39.94035" lon="41.28962">
        <ele>1796.472774</ele>
        <time>2021-11-16T07:54:44.371Z</time>
      </trkpt>
      <trkpt lat="39.94002" lon="41.28948">
        <ele>1797.261772</ele>
        <time>2021-11-16T07:54:54.820Z</time>
      </trkpt>
      <trkpt lat="39.93974" lon="41.28936">
        <ele>1797.957835</ele>
        <time>2021-11-16T07:55:04.152Z</time>
      </trkpt>
      <trkpt lat="39.93882" lon="41.28902">
        <ele>1800.085503</ele>
        <time>2021-11-16T07:55:32.933Z</time>
      </trkpt>
      <trkpt lat="39.93783" lon="41.28857">
        <ele>1802.382902</ele>
        <time>2021-11-16T07:56:05.452Z</time>
      </trkpt>
      <trkpt lat="39.93765" lon="41.2885">
        <ele>1802.941657</ele>
        <time>2021-11-16T07:56:11.652Z</time>
      </trkpt>
      <trkpt lat="39.93755" lon="41.28846">
        <ele>1803.251951</ele>
        <time>2021-11-16T07:56:14.896Z</time>
      </trkpt>
      <trkpt lat="39.93715" lon="41.2883">
        <ele>1804.585147</ele>
        <time>2021-11-16T07:56:29.389Z</time>
      </trkpt>
      <trkpt lat="39.93693" lon="41.28821">
        <ele>1805.300738</ele>
        <time>2021-11-16T07:56:37.742Z</time>
      </trkpt>
      <trkpt lat="39.93596" lon="41.28783">
        <ele>1808.442054</ele>
        <time>2021-11-16T07:57:13.789Z</time>
      </trkpt>
      <trkpt lat="39.93574" lon="41.28773">
        <ele>1809.1835</ele>
        <time>2021-11-16T07:57:22.226Z</time>
      </trkpt>
      <trkpt lat="39.93549" lon="41.28764">
        <ele>1809.977407</ele>
        <time>2021-11-16T07:57:31.213Z</time>
      </trkpt>
      <trkpt lat="39.93505" lon="41.28746">
        <ele>1811.41769</ele>
        <time>2021-11-16T07:57:47.296Z</time>
      </trkpt>
      <trkpt lat="39.93495" lon="41.28743">
        <ele>1811.730652</ele>
        <time>2021-11-16T07:57:50.720Z</time>
      </trkpt>
      <trkpt lat="39.93411" lon="41.28706">
        <ele>1814.435414</ele>
        <time>2021-11-16T07:58:20.995Z</time>
      </trkpt>
      <trkpt lat="39.93328" lon="41.2867">
        <ele>1817.011115</ele>
        <time>2021-11-16T07:58:50.334Z</time>
      </trkpt>
      <trkpt lat="39.93272" lon="41.28645">
        <ele>1818.757131</ele>
        <time>2021-11-16T07:59:10.790Z</time>
      </trkpt>
      <trkpt lat="39.93262" lon="41.28641">
        <ele>1819.055136</ele>
        <time>2021-11-16T07:59:14.369Z</time>
      </trkpt>
      <trkpt lat="39.93246" lon="41.28634">
        <ele>1819.544985</ele>
        <time>2021-11-16T07:59:20.145Z</time>
      </trkpt>
      <trkpt lat="39.93222" lon="41.28624">
        <ele>1820.264911</ele>
        <time>2021-11-16T07:59:28.726Z</time>
      </trkpt>
      <trkpt lat="39.93199" lon="41.28614">
        <ele>1820.985544</ele>
        <time>2021-11-16T07:59:37.084Z</time>
      </trkpt>
      <trkpt lat="39.93186" lon="41.28608">
        <ele>1821.389027</ele>
        <time>2021-11-16T07:59:42.038Z</time>
      </trkpt>
      <trkpt lat="39.93106" lon="41.28573">
        <ele>1823.841893</ele>
        <time>2021-11-16T08:00:10.445Z</time>
      </trkpt>
      <trkpt lat="39.93037" lon="41.28547">
        <ele>1826.009495</ele>
        <time>2021-11-16T08:00:34.081Z</time>
      </trkpt>
      <trkpt lat="39.92964" lon="41.28517">
        <ele>1828.311699</ele>
        <time>2021-11-16T08:01:00.316Z</time>
      </trkpt>
      <trkpt lat="39.92948" lon="41.2851">
        <ele>1828.81794</ele>
        <time>2021-11-16T08:01:06.671Z</time>
      </trkpt>
      <trkpt lat="39.92906" lon="41.28491">
        <ele>1830.331331</ele>
        <time>2021-11-16T08:01:23.881Z</time>
      </trkpt>
      <trkpt lat="39.92849" lon="41.28466">
        <ele>1832.623251</ele>
        <time>2021-11-16T08:01:46.366Z</time>
      </trkpt>
      <trkpt lat="39.92822" lon="41.28455">
        <ele>1833.674728</ele>
        <time>2021-11-16T08:01:56.893Z</time>
      </trkpt>
      <trkpt lat="39.92789" lon="41.28442">
        <ele>1834.992383</ele>
        <time>2021-11-16T08:02:10.240Z</time>
      </trkpt>
      <trkpt lat="39.9275" lon="41.28426">
        <ele>1836.578781</ele>
        <time>2021-11-16T08:02:26.539Z</time>
      </trkpt>
      <trkpt lat="39.92736" lon="41.28421">
        <ele>1837.168491</ele>
        <time>2021-11-16T08:02:32.447Z</time>
      </trkpt>
      <trkpt lat="39.92731" lon="41.28419">
        <ele>1837.357522</ele>
        <time>2021-11-16T08:02:34.341Z</time>
      </trkpt>
      <trkpt lat="39.92682" lon="41.284">
        <ele>1839.461791</ele>
        <time>2021-11-16T08:02:55.375Z</time>
      </trkpt>
      <trkpt lat="39.92669" lon="41.28395">
        <ele>1840.043642</ele>
        <time>2021-11-16T08:03:00.973Z</time>
      </trkpt>
      <trkpt lat="39.92645" lon="41.28386">
        <ele>1841.035841</ele>
        <time>2021-11-16T08:03:10.248Z</time>
      </trkpt>
      <trkpt lat="39.92632" lon="41.28381">
        <ele>1841.600183</ele>
        <time>2021-11-16T08:03:15.385Z</time>
      </trkpt>
      <trkpt lat="39.92609" lon="41.2837">
        <ele>1842.607676</ele>
        <time>2021-11-16T08:03:24.707Z</time>
      </trkpt>
      <trkpt lat="39.92601" lon="41.28367">
        <ele>1842.948693</ele>
        <time>2021-11-16T08:03:28.062Z</time>
      </trkpt>
      <trkpt lat="39.92542" lon="41.28341">
        <ele>1845.307486</ele>
        <time>2021-11-16T08:03:53.109Z</time>
      </trkpt>
      <trkpt lat="39.92533" lon="41.28337">
        <ele>1845.667572</ele>
        <time>2021-11-16T08:03:57.278Z</time>
      </trkpt>
      <trkpt lat="39.92527" lon="41.28335">
        <ele>1845.867965</ele>
        <time>2021-11-16T08:03:59.593Z</time>
      </trkpt>
      <trkpt lat="39.92486" lon="41.28315">
        <ele>1847.479818</ele>
        <time>2021-11-16T08:04:17.171Z</time>
      </trkpt>
      <trkpt lat="39.92457" lon="41.28302">
        <ele>1848.586333</ele>
        <time>2021-11-16T08:04:28.511Z</time>
      </trkpt>
      <trkpt lat="39.92363" lon="41.2829">
        <ele>1851.486626</ele>
        <time>2021-11-16T08:05:00.275Z</time>
      </trkpt>
      <trkpt lat="39.9235" lon="41.28203">
        <ele>1853.167024</ele>
        <time>2021-11-16T08:05:23.376Z</time>
      </trkpt>
      <trkpt lat="39.9233" lon="41.28123">
        <ele>1854.770969</ele>
        <time>2021-11-16T08:05:43.877Z</time>
      </trkpt>
      <trkpt lat="39.92296" lon="41.28037">
        <ele>1856.856067</ele>
        <time>2021-11-16T08:06:07.077Z</time>
      </trkpt>
      <trkpt lat="39.92241" lon="41.27904">
        <ele>1860.20463</ele>
        <time>2021-11-16T08:06:49.106Z</time>
      </trkpt>
      <trkpt lat="39.92234" lon="41.27908">
        <ele>1860.473136</ele>
        <time>2021-11-16T08:06:51.735Z</time>
      </trkpt>
      <trkpt lat="39.92228" lon="41.27911">
        <ele>1860.68563</ele>
        <time>2021-11-16T08:06:54.428Z</time>
      </trkpt>
      <trkpt lat="39.92225" lon="41.27911">
        <ele>1860.808118</ele>
        <time>2021-11-16T08:06:55.566Z</time>
      </trkpt>
      <trkpt lat="39.92129" lon="41.27921">
        <ele>1864.269661</ele>
        <time>2021-11-16T08:07:30.352Z</time>
      </trkpt>
      <trkpt lat="39.92121" lon="41.27911">
        <ele>1864.644766</ele>
        <time>2021-11-16T08:07:34.746Z</time>
      </trkpt>
      <trkpt lat="39.92065" lon="41.27963">
        <ele>1866.965088</ele>
        <time>2021-11-16T08:08:00.827Z</time>
      </trkpt>
      <trkpt lat="39.92042" lon="41.27936">
        <ele>1867.853724</ele>
        <time>2021-11-16T08:08:12.016Z</time>
      </trkpt>
      <trkpt lat="39.92002" lon="41.2788">
        <ele>1869.516773</ele>
        <time>2021-11-16T08:08:32.048Z</time>
      </trkpt>
      <trkpt lat="39.91943" lon="41.27886">
        <ele>1871.205417</ele>
        <time>2021-11-16T08:08:51.310Z</time>
      </trkpt>
      <trkpt lat="39.91915" lon="41.27854">
        <ele>1872.035818</ele>
        <time>2021-11-16T08:09:02.668Z</time>
      </trkpt>
      <trkpt lat="39.91902" lon="41.27839">
        <ele>1872.392936</ele>
        <time>2021-11-16T08:09:08.151Z</time>
      </trkpt>
      <trkpt lat="39.9185" lon="41.27781">
        <ele>1873.757989</ele>
        <time>2021-11-16T08:09:29.424Z</time>
      </trkpt>
      <trkpt lat="39.91795" lon="41.27835">
        <ele>1875.109001</ele>
        <time>2021-11-16T08:09:51.153Z</time>
      </trkpt>
      <trkpt lat="39.91778" lon="41.27809">
        <ele>1875.305311</ele>
        <time>2021-11-16T08:09:58.999Z</time>
      </trkpt>
      <trkpt lat="39.91754" lon="41.27769">
        <ele>1875.597333</ele>
        <time>2021-11-16T08:10:10.078Z</time>
      </trkpt>
      <trkpt lat="39.91728" lon="41.27718">
        <ele>1875.95093</ele>
        <time>2021-11-16T08:10:22.977Z</time>
      </trkpt>
      <trkpt lat="39.91644" lon="41.27549">
        <ele>1875.08638</ele>
        <time>2021-11-16T08:10:53.793Z</time>
      </trkpt>
      <trkpt lat="39.9163" lon="41.2752">
        <ele>1874.688808</ele>
        <time>2021-11-16T08:10:58.206Z</time>
      </trkpt>
      <trkpt lat="39.91626" lon="41.27512">
        <ele>1874.569847</ele>
        <time>2021-11-16T08:10:59.572Z</time>
      </trkpt>
      <trkpt lat="39.91626" lon="41.27512">
        <ele>1874.569847</ele>
        <time>2021-11-16T08:10:59.575Z</time>
      </trkpt>
      <trkpt lat="39.91607" lon="41.27476">
        <ele>1874.053414</ele>
        <time>2021-11-16T08:11:05.346Z</time>
      </trkpt>
      <trkpt lat="39.91572" lon="41.27409">
        <ele>1872.99643</ele>
        <time>2021-11-16T08:11:16.013Z</time>
      </trkpt>
      <trkpt lat="39.91559" lon="41.27387">
        <ele>1872.610358</ele>
        <time>2021-11-16T08:11:19.731Z</time>
      </trkpt>
      <trkpt lat="39.91499" lon="41.2729">
        <ele>1870.890824</ele>
        <time>2021-11-16T08:11:36.746Z</time>
      </trkpt>
      <trkpt lat="39.91456" lon="41.27219">
        <ele>1870.174653</ele>
        <time>2021-11-16T08:11:50.195Z</time>
      </trkpt>
      <trkpt lat="39.9145" lon="41.2721">
        <ele>1870.122772</ele>
        <time>2021-11-16T08:11:51.788Z</time>
      </trkpt>
      <trkpt lat="39.91449" lon="41.27204">
        <ele>1870.094065</ele>
        <time>2021-11-16T08:11:52.635Z</time>
      </trkpt>
      <trkpt lat="39.91388" lon="41.27102">
        <ele>1869.507944</ele>
        <time>2021-11-16T08:12:12.807Z</time>
      </trkpt>
      <trkpt lat="39.9137" lon="41.27072">
        <ele>1869.450683</ele>
        <time>2021-11-16T08:12:20.030Z</time>
      </trkpt>
      <trkpt lat="39.91405" lon="41.27035">
        <ele>1869.930925</ele>
        <time>2021-11-16T08:12:31.126Z</time>
      </trkpt>
      <trkpt lat="39.91394" lon="41.27019">
        <ele>1870.102605</ele>
        <time>2021-11-16T08:12:35.622Z</time>
      </trkpt>
      <trkpt lat="39.9136" lon="41.26968">
        <ele>1870.645727</ele>
        <time>2021-11-16T08:12:49.820Z</time>
      </trkpt>
      <trkpt lat="39.91263" lon="41.26825">
        <ele>1871.930881</ele>
        <time>2021-11-16T08:13:33.970Z</time>
      </trkpt>
      <trkpt lat="39.91245" lon="41.26785">
        <ele>1872.197328</ele>
        <time>2021-11-16T08:13:42.714Z</time>
      </trkpt>
      <trkpt lat="39.91232" lon="41.26766">
        <ele>1872.343988</ele>
        <time>2021-11-16T08:13:47.375Z</time>
      </trkpt>
      <trkpt lat="39.91211" lon="41.2675">
        <ele>1872.528165</ele>
        <time>2021-11-16T08:13:52.945Z</time>
      </trkpt>
      <trkpt lat="39.91206" lon="41.26693">
        <ele>1872.029705</ele>
        <time>2021-11-16T08:14:01.773Z</time>
      </trkpt>
      <trkpt lat="39.91201" lon="41.26642">
        <ele>1871.278723</ele>
        <time>2021-11-16T08:14:09.149Z</time>
      </trkpt>
      <trkpt lat="39.91197" lon="41.2661">
        <ele>1870.797531</ele>
        <time>2021-11-16T08:14:13.655Z</time>
      </trkpt>
      <trkpt lat="39.91194" lon="41.26571">
        <ele>1870.221537</ele>
        <time>2021-11-16T08:14:18.880Z</time>
      </trkpt>
      <trkpt lat="39.91193" lon="41.26548">
        <ele>1869.888601</ele>
        <time>2021-11-16T08:14:21.747Z</time>
      </trkpt>
      <trkpt lat="39.91193" lon="41.26521">
        <ele>1869.494095</ele>
        <time>2021-11-16T08:14:25.163Z</time>
      </trkpt>
      <trkpt lat="39.91196" lon="41.26518">
        <ele>1869.417136</ele>
        <time>2021-11-16T08:14:25.819Z</time>
      </trkpt>
      <trkpt lat="39.91198" lon="41.26513">
        <ele>1869.340341</ele>
        <time>2021-11-16T08:14:26.474Z</time>
      </trkpt>
      <trkpt lat="39.912" lon="41.26508">
        <ele>1869.257457</ele>
        <time>2021-11-16T08:14:27.177Z</time>
      </trkpt>
      <trkpt lat="39.91199" lon="41.26492">
        <ele>1868.914475</ele>
        <time>2021-11-16T08:14:29.263Z</time>
      </trkpt>
      <trkpt lat="39.91194" lon="41.26482">
        <ele>1868.6557</ele>
        <time>2021-11-16T08:14:30.635Z</time>
      </trkpt>
      <trkpt lat="39.91193" lon="41.26482">
        <ele>1868.620579</ele>
        <time>2021-11-16T08:14:30.805Z</time>
      </trkpt>
      <trkpt lat="39.91191" lon="41.26479">
        <ele>1868.526523</ele>
        <time>2021-11-16T08:14:31.314Z</time>
      </trkpt>
      <trkpt lat="39.91185" lon="41.26431">
        <ele>1867.401735</ele>
        <time>2021-11-16T08:14:37.339Z</time>
      </trkpt>
      <trkpt lat="39.91174" lon="41.26317">
        <ele>1864.774573</ele>
        <time>2021-11-16T08:14:51.687Z</time>
      </trkpt>
      <trkpt lat="39.91171" lon="41.26292">
        <ele>1864.182755</ele>
        <time>2021-11-16T08:14:54.972Z</time>
      </trkpt>
      <trkpt lat="39.91169" lon="41.26246">
        <ele>1863.601648</ele>
        <time>2021-11-16T08:15:00.955Z</time>
      </trkpt>
      <trkpt lat="39.91159" lon="41.26205">
        <ele>1863.300781</ele>
        <time>2021-11-16T08:15:06.998Z</time>
      </trkpt>
      <trkpt lat="39.91154" lon="41.26187">
        <ele>1863.170498</ele>
        <time>2021-11-16T08:15:09.696Z</time>
      </trkpt>
      <trkpt lat="39.91116" lon="41.261">
        <ele>1862.475847</ele>
        <time>2021-11-16T08:15:25.191Z</time>
      </trkpt>
      <trkpt lat="39.91086" lon="41.26049">
        <ele>1862.377754</ele>
        <time>2021-11-16T08:15:37.382Z</time>
      </trkpt>
      <trkpt lat="39.91055" lon="41.26014">
        <ele>1862.853148</ele>
        <time>2021-11-16T08:15:48.041Z</time>
      </trkpt>
      <trkpt lat="39.91009" lon="41.25974">
        <ele>1863.4926</ele>
        <time>2021-11-16T08:16:03.306Z</time>
      </trkpt>
      <trkpt lat="39.90943" lon="41.25932">
        <ele>1864.370539</ele>
        <time>2021-11-16T08:16:23.796Z</time>
      </trkpt>
      <trkpt lat="39.90886" lon="41.25913">
        <ele>1865.260146</ele>
        <time>2021-11-16T08:16:41.014Z</time>
      </trkpt>
      <trkpt lat="39.90858" lon="41.25911">
        <ele>1865.694879</ele>
        <time>2021-11-16T08:16:48.822Z</time>
      </trkpt>
      <trkpt lat="39.90856" lon="41.25875">
        <ele>1866.109168</ele>
        <time>2021-11-16T08:16:56.566Z</time>
      </trkpt>
      <trkpt lat="39.90836" lon="41.25876">
        <ele>1866.406857</ele>
        <time>2021-11-16T08:17:02.755Z</time>
      </trkpt>
      <trkpt lat="39.90787" lon="41.25882">
        <ele>1867.155357</ele>
        <time>2021-11-16T08:17:16.586Z</time>
      </trkpt>
      <trkpt lat="39.9078" lon="41.2587">
        <ele>1867.337094</ele>
        <time>2021-11-16T08:17:20.029Z</time>
      </trkpt>
      <trkpt lat="39.90777" lon="41.25861">
        <ele>1867.454933</ele>
        <time>2021-11-16T08:17:22.815Z</time>
      </trkpt>
      <trkpt lat="39.90773" lon="41.25847">
        <ele>1867.637798</ele>
        <time>2021-11-16T08:17:25.867Z</time>
      </trkpt>
      <trkpt lat="39.90759" lon="41.25825">
        <ele>1867.962882</ele>
        <time>2021-11-16T08:17:32.053Z</time>
      </trkpt>
      <trkpt lat="39.90745" lon="41.25789">
        <ele>1868.452317</ele>
        <time>2021-11-16T08:17:40.999Z</time>
      </trkpt>
      <trkpt lat="39.90744" lon="41.25762">
        <ele>1868.772239</ele>
        <time>2021-11-16T08:17:47.672Z</time>
      </trkpt>
      <trkpt lat="39.90751" lon="41.25749">
        <ele>1868.959474</ele>
        <time>2021-11-16T08:17:51.058Z</time>
      </trkpt>
      <trkpt lat="39.90752" lon="41.25735">
        <ele>1869.127026</ele>
        <time>2021-11-16T08:17:54.828Z</time>
      </trkpt>
      <trkpt lat="39.90741" lon="41.25677">
        <ele>1869.826299</ele>
        <time>2021-11-16T08:18:07.986Z</time>
      </trkpt>
      <trkpt lat="39.90706" lon="41.25679">
        <ele>1870.299424</ele>
        <time>2021-11-16T08:18:17.436Z</time>
      </trkpt>
      <trkpt lat="39.90701" lon="41.25651">
        <ele>1870.588006</ele>
        <time>2021-11-16T08:18:23.511Z</time>
      </trkpt>
      <trkpt lat="39.90645" lon="41.25665">
        <ele>1871.356167</ele>
        <time>2021-11-16T08:18:39.726Z</time>
      </trkpt>
      <trkpt lat="39.90633" lon="41.25666">
        <ele>1871.508469</ele>
        <time>2021-11-16T08:18:43.093Z</time>
      </trkpt>
      <trkpt lat="39.90633" lon="41.25608">
        <ele>1872.107774</ele>
        <time>2021-11-16T08:18:56.080Z</time>
      </trkpt>
      <trkpt lat="39.90629" lon="41.25591">
        <ele>1872.28413</ele>
        <time>2021-11-16T08:18:59.622Z</time>
      </trkpt>
      <trkpt lat="39.90583" lon="41.25615">
        <ele>1872.956709</ele>
        <time>2021-11-16T08:19:13.775Z</time>
      </trkpt>
      <trkpt lat="39.90569" lon="41.25618">
        <ele>1873.157739</ele>
        <time>2021-11-16T08:19:17.979Z</time>
      </trkpt>
      <trkpt lat="39.90556" lon="41.25621">
        <ele>1873.332612</ele>
        <time>2021-11-16T08:19:21.499Z</time>
      </trkpt>
      <trkpt lat="39.90531" lon="41.25613">
        <ele>1873.679811</ele>
        <time>2021-11-16T08:19:28.740Z</time>
      </trkpt>
      <trkpt lat="39.90522" lon="41.25599">
        <ele>1873.87648</ele>
        <time>2021-11-16T08:19:32.647Z</time>
      </trkpt>
      <trkpt lat="39.9051" lon="41.2559">
        <ele>1874.060948</ele>
        <time>2021-11-16T08:19:36.538Z</time>
      </trkpt>
      <trkpt lat="39.90497" lon="41.25584">
        <ele>1874.243152</ele>
        <time>2021-11-16T08:19:40.062Z</time>
      </trkpt>
      <trkpt lat="39.90484" lon="41.25584">
        <ele>1874.426807</ele>
        <time>2021-11-16T08:19:43.802Z</time>
      </trkpt>
      <trkpt lat="39.90471" lon="41.25564">
        <ele>1874.664084</ele>
        <time>2021-11-16T08:19:49.420Z</time>
      </trkpt>
      <trkpt lat="39.90469" lon="41.25556">
        <ele>1874.694649</ele>
        <time>2021-11-16T08:19:51.276Z</time>
      </trkpt>
      <trkpt lat="39.90444" lon="41.25478">
        <ele>1874.987246</ele>
        <time>2021-11-16T08:20:08.363Z</time>
      </trkpt>
      <trkpt lat="39.90412" lon="41.25374">
        <ele>1875.376728</ele>
        <time>2021-11-16T08:20:29.055Z</time>
      </trkpt>
      <trkpt lat="39.90364" lon="41.25221">
        <ele>1875.275432</ele>
        <time>2021-11-16T08:20:57.011Z</time>
      </trkpt>
      <trkpt lat="39.90321" lon="41.25072">
        <ele>1875.389088</ele>
        <time>2021-11-16T08:21:24.752Z</time>
      </trkpt>
      <trkpt lat="39.90313" lon="41.25034">
        <ele>1875.537666</ele>
        <time>2021-11-16T08:21:32.114Z</time>
      </trkpt>
      <trkpt lat="39.90299" lon="41.25001">
        <ele>1875.677842</ele>
        <time>2021-11-16T08:21:39.336Z</time>
      </trkpt>
      <trkpt lat="39.90289" lon="41.24987">
        <ele>1875.747559</ele>
        <time>2021-11-16T08:21:43.058Z</time>
      </trkpt>
      <trkpt lat="39.90265" lon="41.24971">
        <ele>1875.880048</ele>
        <time>2021-11-16T08:21:50.203Z</time>
      </trkpt>
      <trkpt lat="39.90244" lon="41.24967">
        <ele>1875.984315</ele>
        <time>2021-11-16T08:21:55.974Z</time>
      </trkpt>
      <trkpt lat="39.9017" lon="41.24947">
        <ele>1877.451489</ele>
        <time>2021-11-16T08:22:17.436Z</time>
      </trkpt>
      <trkpt lat="39.90001" lon="41.24876">
        <ele>1881.986241</ele>
        <time>2021-11-16T08:23:17.759Z</time>
      </trkpt>
      <trkpt lat="39.89991" lon="41.24872">
        <ele>1882.31463</ele>
        <time>2021-11-16T08:23:21.806Z</time>
      </trkpt>
      <trkpt lat="39.89887" lon="41.24827">
        <ele>1885.909628</ele>
        <time>2021-11-16T08:24:02.807Z</time>
      </trkpt>
      <trkpt lat="39.89787" lon="41.24778">
        <ele>1889.941646</ele>
        <time>2021-11-16T08:24:42.760Z</time>
      </trkpt>
      <trkpt lat="39.89585" lon="41.24687">
        <ele>1898.867467</ele>
        <time>2021-11-16T08:26:07.717Z</time>
      </trkpt>
      <trkpt lat="39.8957" lon="41.2468">
        <ele>1899.565559</ele>
        <time>2021-11-16T08:26:14.533Z</time>
      </trkpt>
      <trkpt lat="39.89563" lon="41.24678">
        <ele>1899.883269</ele>
        <time>2021-11-16T08:26:17.642Z</time>
      </trkpt>
      <trkpt lat="39.89555" lon="41.24678">
        <ele>1900.236995</ele>
        <time>2021-11-16T08:26:21.205Z</time>
      </trkpt>
      <trkpt lat="39.89544" lon="41.24683">
        <ele>1900.822477</ele>
        <time>2021-11-16T08:26:25.972Z</time>
      </trkpt>
      <trkpt lat="39.89538" lon="41.24688">
        <ele>1901.178414</ele>
        <time>2021-11-16T08:26:29.057Z</time>
      </trkpt>
      <trkpt lat="39.89523" lon="41.24708">
        <ele>1902.273527</ele>
        <time>2021-11-16T08:26:38.331Z</time>
      </trkpt>
      <trkpt lat="39.89422" lon="41.24769">
        <ele>1908.045352</ele>
        <time>2021-11-16T08:27:29.687Z</time>
      </trkpt>
      <trkpt lat="39.89294" lon="41.24816">
        <ele>1913.035266</ele>
        <time>2021-11-16T08:28:23.225Z</time>
      </trkpt>
      <trkpt lat="39.89287" lon="41.24819">
        <ele>1913.283924</ele>
        <time>2021-11-16T08:28:26.975Z</time>
      </trkpt>
      <trkpt lat="39.89275" lon="41.2476">
        <ele>1914.820987</ele>
        <time>2021-11-16T08:28:41.320Z</time>
      </trkpt>
      <trkpt lat="39.89253" lon="41.24651">
        <ele>1915.381433</ele>
        <time>2021-11-16T08:29:03.658Z</time>
      </trkpt>
      <trkpt lat="39.89243" lon="41.246">
        <ele>1915.231863</ele>
        <time>2021-11-16T08:29:12.331Z</time>
      </trkpt>
      <trkpt lat="39.89177" lon="41.24378">
        <ele>1913.158128</ele>
        <time>2021-11-16T08:29:45.112Z</time>
      </trkpt>
      <trkpt lat="39.89149" lon="41.24316">
        <ele>1912.235739</ele>
        <time>2021-11-16T08:29:54.875Z</time>
      </trkpt>
      <trkpt lat="39.89123" lon="41.2427">
        <ele>1911.838355</ele>
        <time>2021-11-16T08:30:02.887Z</time>
      </trkpt>
      <trkpt lat="39.8912" lon="41.24263">
        <ele>1911.821563</ele>
        <time>2021-11-16T08:30:03.968Z</time>
      </trkpt>
      <trkpt lat="39.89082" lon="41.24214">
        <ele>1911.670685</ele>
        <time>2021-11-16T08:30:14.692Z</time>
      </trkpt>
      <trkpt lat="39.89038" lon="41.24168">
        <ele>1911.511755</ele>
        <time>2021-11-16T08:30:26.757Z</time>
      </trkpt>
      <trkpt lat="39.89021" lon="41.24154">
        <ele>1911.455724</ele>
        <time>2021-11-16T08:30:31.684Z</time>
      </trkpt>
      <trkpt lat="39.89013" lon="41.24148">
        <ele>1911.430457</ele>
        <time>2021-11-16T08:30:33.888Z</time>
      </trkpt>
      <trkpt lat="39.88995" lon="41.24126">
        <ele>1911.706573</ele>
        <time>2021-11-16T08:30:40.762Z</time>
      </trkpt>
      <trkpt lat="39.88808" lon="41.24006">
        <ele>1916.01927</ele>
        <time>2021-11-16T08:31:46.151Z</time>
      </trkpt>
      <trkpt lat="39.88789" lon="41.23991">
        <ele>1916.528649</ele>
        <time>2021-11-16T08:31:53.463Z</time>
      </trkpt>
      <trkpt lat="39.88768" lon="41.23975">
        <ele>1917.076739</ele>
        <time>2021-11-16T08:32:01.199Z</time>
      </trkpt>
      <trkpt lat="39.88718" lon="41.23927">
        <ele>1918.460332</ele>
        <time>2021-11-16T08:32:20.420Z</time>
      </trkpt>
      <trkpt lat="39.887" lon="41.23906">
        <ele>1919.009436</ele>
        <time>2021-11-16T08:32:28.043Z</time>
      </trkpt>
      <trkpt lat="39.88692" lon="41.23896">
        <ele>1919.202084</ele>
        <time>2021-11-16T08:32:31.079Z</time>
      </trkpt>
      <trkpt lat="39.8868" lon="41.2388">
        <ele>1919.505683</ele>
        <time>2021-11-16T08:32:36.616Z</time>
      </trkpt>
      <trkpt lat="39.88678" lon="41.23874">
        <ele>1919.582478</ele>
        <time>2021-11-16T08:32:37.985Z</time>
      </trkpt>
      <trkpt lat="39.88673" lon="41.23867">
        <ele>1919.703923</ele>
        <time>2021-11-16T08:32:40.120Z</time>
      </trkpt>
      <trkpt lat="39.88667" lon="41.2386">
        <ele>1919.8492</ele>
        <time>2021-11-16T08:32:42.607Z</time>
      </trkpt>
      <trkpt lat="39.88654" lon="41.23844">
        <ele>1920.139208</ele>
        <time>2021-11-16T08:32:47.794Z</time>
      </trkpt>
      <trkpt lat="39.88648" lon="41.23835">
        <ele>1920.296493</ele>
        <time>2021-11-16T08:32:50.530Z</time>
      </trkpt>
      <trkpt lat="39.88573" lon="41.23722">
        <ele>1922.208062</ele>
        <time>2021-11-16T08:33:23.132Z</time>
      </trkpt>
      <trkpt lat="39.88442" lon="41.23539">
        <ele>1924.596607</ele>
        <time>2021-11-16T08:34:15.088Z</time>
      </trkpt>
      <trkpt lat="39.88429" lon="41.23527">
        <ele>1924.785069</ele>
        <time>2021-11-16T08:34:19.510Z</time>
      </trkpt>
      <trkpt lat="39.88219" lon="41.23218">
        <ele>1928.492392</ele>
        <time>2021-11-16T08:35:44.671Z</time>
      </trkpt>
      <trkpt lat="39.88168" lon="41.23141">
        <ele>1929.346963</ele>
        <time>2021-11-16T08:36:05.567Z</time>
      </trkpt>
      <trkpt lat="39.88146" lon="41.23105">
        <ele>1929.728778</ele>
        <time>2021-11-16T08:36:14.810Z</time>
      </trkpt>
      <trkpt lat="39.88138" lon="41.23094">
        <ele>1929.856</ele>
        <time>2021-11-16T08:36:17.865Z</time>
      </trkpt>
      <trkpt lat="39.88121" lon="41.23071">
        <ele>1930.120022</ele>
        <time>2021-11-16T08:36:24.223Z</time>
      </trkpt>
      <trkpt lat="39.88054" lon="41.22981">
        <ele>1931.012571</ele>
        <time>2021-11-16T08:36:49.885Z</time>
      </trkpt>
      <trkpt lat="39.88019" lon="41.22929">
        <ele>1931.453858</ele>
        <time>2021-11-16T08:37:03.879Z</time>
      </trkpt>
      <trkpt lat="39.87993" lon="41.2289">
        <ele>1931.783149</ele>
        <time>2021-11-16T08:37:13.567Z</time>
      </trkpt>
      <trkpt lat="39.87967" lon="41.22853">
        <ele>1932.047331</ele>
        <time>2021-11-16T08:37:22.942Z</time>
      </trkpt>
      <trkpt lat="39.87942" lon="41.22819">
        <ele>1932.120477</ele>
        <time>2021-11-16T08:37:31.459Z</time>
      </trkpt>
      <trkpt lat="39.87847" lon="41.22678">
        <ele>1932.403241</ele>
        <time>2021-11-16T08:38:04.258Z</time>
      </trkpt>
      <trkpt lat="39.87765" lon="41.22557">
        <ele>1932.501676</ele>
        <time>2021-11-16T08:38:32.007Z</time>
      </trkpt>
      <trkpt lat="39.87762" lon="41.22552">
        <ele>1932.505721</ele>
        <time>2021-11-16T08:38:33.137Z</time>
      </trkpt>
      <trkpt lat="39.87747" lon="41.22529">
        <ele>1932.524523</ele>
        <time>2021-11-16T08:38:38.570Z</time>
      </trkpt>
      <trkpt lat="39.87642" lon="41.22389">
        <ele>1932.538054</ele>
        <time>2021-11-16T08:39:12.457Z</time>
      </trkpt>
      <trkpt lat="39.87518" lon="41.22238">
        <ele>1932.22545</ele>
        <time>2021-11-16T08:39:48.458Z</time>
      </trkpt>
      <trkpt lat="39.87506" lon="41.22225">
        <ele>1932.183473</ele>
        <time>2021-11-16T08:39:51.826Z</time>
      </trkpt>
      <trkpt lat="39.87366" lon="41.22072">
        <ele>1931.750538</ele>
        <time>2021-11-16T08:40:30.906Z</time>
      </trkpt>
      <trkpt lat="39.87301" lon="41.22">
        <ele>1931.511554</ele>
        <time>2021-11-16T08:40:49.452Z</time>
      </trkpt>
      <trkpt lat="39.87267" lon="41.21963">
        <ele>1931.367462</ele>
        <time>2021-11-16T08:40:59.072Z</time>
      </trkpt>
      <trkpt lat="39.8705" lon="41.21738">
        <ele>1930.068333</ele>
        <time>2021-11-16T08:41:55.932Z</time>
      </trkpt>
      <trkpt lat="39.86981" lon="41.21677">
        <ele>1929.235558</ele>
        <time>2021-11-16T08:42:12.085Z</time>
      </trkpt>
      <trkpt lat="39.86874" lon="41.21598">
        <ele>1928.044495</ele>
        <time>2021-11-16T08:42:35.219Z</time>
      </trkpt>
      <trkpt lat="39.86803" lon="41.21544">
        <ele>1927.313438</ele>
        <time>2021-11-16T08:42:51.466Z</time>
      </trkpt>
      <trkpt lat="39.86781" lon="41.21525">
        <ele>1927.078345</ele>
        <time>2021-11-16T08:42:56.905Z</time>
      </trkpt>
      <trkpt lat="39.86698" lon="41.21441">
        <ele>1925.766</ele>
        <time>2021-11-16T08:43:17.677Z</time>
      </trkpt>
      <trkpt lat="39.86652" lon="41.21383">
        <ele>1924.846941</ele>
        <time>2021-11-16T08:43:29.562Z</time>
      </trkpt>
      <trkpt lat="39.86632" lon="41.21355">
        <ele>1924.421704</ele>
        <time>2021-11-16T08:43:34.797Z</time>
      </trkpt>
      <trkpt lat="39.86606" lon="41.21311">
        <ele>1923.394836</ele>
        <time>2021-11-16T08:43:42.074Z</time>
      </trkpt>
      <trkpt lat="39.86551" lon="41.21217">
        <ele>1920.545143</ele>
        <time>2021-11-16T08:43:56.814Z</time>
      </trkpt>
      <trkpt lat="39.86491" lon="41.21095">
        <ele>1916.714072</ele>
        <time>2021-11-16T08:44:14.604Z</time>
      </trkpt>
      <trkpt lat="39.86422" lon="41.20955">
        <ele>1911.823462</ele>
        <time>2021-11-16T08:44:34.815Z</time>
      </trkpt>
      <trkpt lat="39.8638" lon="41.20874">
        <ele>1908.775013</ele>
        <time>2021-11-16T08:44:46.552Z</time>
      </trkpt>
      <trkpt lat="39.86134" lon="41.20387">
        <ele>1891.118763</ele>
        <time>2021-11-16T08:45:56.417Z</time>
      </trkpt>
      <trkpt lat="39.86079" lon="41.20221">
        <ele>1888.562795</ele>
        <time>2021-11-16T08:46:20.648Z</time>
      </trkpt>
      <trkpt lat="39.85991" lon="41.19788">
        <ele>1887.448186</ele>
        <time>2021-11-16T08:47:36.600Z</time>
      </trkpt>
      <trkpt lat="39.85952" lon="41.1965">
        <ele>1887.159409</ele>
        <time>2021-11-16T08:48:01.616Z</time>
      </trkpt>
      <trkpt lat="39.85897" lon="41.19512">
        <ele>1886.335899</ele>
        <time>2021-11-16T08:48:25.729Z</time>
      </trkpt>
      <trkpt lat="39.8568" lon="41.19067">
        <ele>1879.888037</ele>
        <time>2021-11-16T08:49:39.379Z</time>
      </trkpt>
      <trkpt lat="39.85617" lon="41.1895">
        <ele>1877.041269</ele>
        <time>2021-11-16T08:49:57.991Z</time>
      </trkpt>
      <trkpt lat="39.85557" lon="41.18852">
        <ele>1874.28242</ele>
        <time>2021-11-16T08:50:13.608Z</time>
      </trkpt>
      <trkpt lat="39.85381" lon="41.18606">
        <ele>1867.324307</ele>
        <time>2021-11-16T08:50:55.538Z</time>
      </trkpt>
      <trkpt lat="39.84947" lon="41.18019">
        <ele>1866.147707</ele>
        <time>2021-11-16T08:53:14.325Z</time>
      </trkpt>
      <trkpt lat="39.84519" lon="41.17432">
        <ele>1870.401782</ele>
        <time>2021-11-16T08:55:49.159Z</time>
      </trkpt>
      <trkpt lat="39.84232" lon="41.17006">
        <ele>1876.703204</ele>
        <time>2021-11-16T08:57:53.480Z</time>
      </trkpt>
      <trkpt lat="39.84099" lon="41.16842">
        <ele>1878.542595</ele>
        <time>2021-11-16T08:58:39.692Z</time>
      </trkpt>
      <trkpt lat="39.83946" lon="41.16695">
        <ele>1882.32514</ele>
        <time>2021-11-16T08:59:34.269Z</time>
      </trkpt>
      <trkpt lat="39.83272" lon="41.16222">
        <ele>1915.961929</ele>
        <time>2021-11-16T09:04:44.541Z</time>
      </trkpt>
      <trkpt lat="39.83188" lon="41.16175">
        <ele>1919.652864</ele>
        <time>2021-11-16T09:05:18.972Z</time>
      </trkpt>
      <trkpt lat="39.82881" lon="41.16068">
        <ele>1930.841078</ele>
        <time>2021-11-16T09:07:12.223Z</time>
      </trkpt>
      <trkpt lat="39.8267" lon="41.15964">
        <ele>1939.625448</ele>
        <time>2021-11-16T09:08:39.691Z</time>
      </trkpt>
      <trkpt lat="39.82585" lon="41.15898">
        <ele>1942.553836</ele>
        <time>2021-11-16T09:09:15.699Z</time>
      </trkpt>
      <trkpt lat="39.82527" lon="41.15843">
        <ele>1944.511987</ele>
        <time>2021-11-16T09:09:39.294Z</time>
      </trkpt>
      <trkpt lat="39.82416" lon="41.15707">
        <ele>1945.544558</ele>
        <time>2021-11-16T09:10:18.759Z</time>
      </trkpt>
      <trkpt lat="39.82347" lon="41.15592">
        <ele>1943.901703</ele>
        <time>2021-11-16T09:10:39.485Z</time>
      </trkpt>
      <trkpt lat="39.82056" lon="41.15083">
        <ele>1928.494368</ele>
        <time>2021-11-16T09:11:57.791Z</time>
      </trkpt>
      <trkpt lat="39.82042" lon="41.15056">
        <ele>1928.175132</ele>
        <time>2021-11-16T09:12:02.211Z</time>
      </trkpt>
      <trkpt lat="39.81976" lon="41.14934">
        <ele>1926.702072</ele>
        <time>2021-11-16T09:12:24.069Z</time>
      </trkpt>
      <trkpt lat="39.81918" lon="41.14797">
        <ele>1925.816663</ele>
        <time>2021-11-16T09:12:49.413Z</time>
      </trkpt>
      <trkpt lat="39.81878" lon="41.14629">
        <ele>1925.025722</ele>
        <time>2021-11-16T09:13:17.070Z</time>
      </trkpt>
      <trkpt lat="39.81873" lon="41.14606">
        <ele>1924.881506</ele>
        <time>2021-11-16T09:13:20.768Z</time>
      </trkpt>
      <trkpt lat="39.81871" lon="41.14598">
        <ele>1924.832007</ele>
        <time>2021-11-16T09:13:21.995Z</time>
      </trkpt>
      <trkpt lat="39.81846" lon="41.14484">
        <ele>1924.119905</ele>
        <time>2021-11-16T09:13:39.883Z</time>
      </trkpt>
      <trkpt lat="39.81837" lon="41.14391">
        <ele>1923.309727</ele>
        <time>2021-11-16T09:13:53.636Z</time>
      </trkpt>
      <trkpt lat="39.81836" lon="41.14297">
        <ele>1922.357575</ele>
        <time>2021-11-16T09:14:07.175Z</time>
      </trkpt>
      <trkpt lat="39.81852" lon="41.14121">
        <ele>1920.434763</ele>
        <time>2021-11-16T09:14:32.044Z</time>
      </trkpt>
      <trkpt lat="39.81879" lon="41.1391">
        <ele>1917.895218</ele>
        <time>2021-11-16T09:15:02.299Z</time>
      </trkpt>
      <trkpt lat="39.81879" lon="41.13767">
        <ele>1916.118112</ele>
        <time>2021-11-16T09:15:22.183Z</time>
      </trkpt>
      <trkpt lat="39.81872" lon="41.13671">
        <ele>1914.515291</ele>
        <time>2021-11-16T09:15:35.342Z</time>
      </trkpt>
      <trkpt lat="39.81836" lon="41.1348">
        <ele>1910.855589</ele>
        <time>2021-11-16T09:16:01.037Z</time>
      </trkpt>
      <trkpt lat="39.81805" lon="41.13364">
        <ele>1908.002944</ele>
        <time>2021-11-16T09:16:16.590Z</time>
      </trkpt>
      <trkpt lat="39.81689" lon="41.13073">
        <ele>1900.105599</ele>
        <time>2021-11-16T09:16:57.265Z</time>
      </trkpt>
      <trkpt lat="39.81212" lon="41.12023">
        <ele>1880.398243</ele>
        <time>2021-11-16T09:19:39.903Z</time>
      </trkpt>
      <trkpt lat="39.81162" lon="41.11932">
        <ele>1879.906053</ele>
        <time>2021-11-16T09:19:58.962Z</time>
      </trkpt>
      <trkpt lat="39.81103" lon="41.11859">
        <ele>1880.359619</ele>
        <time>2021-11-16T09:20:19.756Z</time>
      </trkpt>
      <trkpt lat="39.81049" lon="41.11804">
        <ele>1881.335897</ele>
        <time>2021-11-16T09:20:39.159Z</time>
      </trkpt>
      <trkpt lat="39.80995" lon="41.11777">
        <ele>1882.14485</ele>
        <time>2021-11-16T09:20:55.705Z</time>
      </trkpt>
      <trkpt lat="39.80883" lon="41.11747">
        <ele>1885.415793</ele>
        <time>2021-11-16T09:21:32.099Z</time>
      </trkpt>
      <trkpt lat="39.80849" lon="41.11738">
        <ele>1886.460963</ele>
        <time>2021-11-16T09:21:44.920Z</time>
      </trkpt>
      <trkpt lat="39.80811" lon="41.11738">
        <ele>1887.593214</ele>
        <time>2021-11-16T09:21:59.218Z</time>
      </trkpt>
      <trkpt lat="39.80734" lon="41.11744">
        <ele>1891.306808</ele>
        <time>2021-11-16T09:22:30.336Z</time>
      </trkpt>
      <trkpt lat="39.80675" lon="41.11757">
        <ele>1894.240255</ele>
        <time>2021-11-16T09:22:56.560Z</time>
      </trkpt>
      <trkpt lat="39.80457" lon="41.11843">
        <ele>1905.942211</ele>
        <time>2021-11-16T09:24:34.266Z</time>
      </trkpt>
      <trkpt lat="39.80371" lon="41.11868">
        <ele>1910.856063</ele>
        <time>2021-11-16T09:25:12.635Z</time>
      </trkpt>
      <trkpt lat="39.80265" lon="41.11878">
        <ele>1916.940801</ele>
        <time>2021-11-16T09:26:00.885Z</time>
      </trkpt>
      <trkpt lat="39.80212" lon="41.11875">
        <ele>1920.399788</ele>
        <time>2021-11-16T09:26:26.324Z</time>
      </trkpt>
      <trkpt lat="39.80167" lon="41.11859">
        <ele>1923.432316</ele>
        <time>2021-11-16T09:26:49.082Z</time>
      </trkpt>
      <trkpt lat="39.80021" lon="41.11734">
        <ele>1935.220529</ele>
        <time>2021-11-16T09:28:15.953Z</time>
      </trkpt>
      <trkpt lat="39.79905" lon="41.11653">
        <ele>1944.271745</ele>
        <time>2021-11-16T09:29:21.736Z</time>
      </trkpt>
      <trkpt lat="39.79878" lon="41.11626">
        <ele>1946.623796</ele>
        <time>2021-11-16T09:29:38.839Z</time>
      </trkpt>
      <trkpt lat="39.79857" lon="41.11596">
        <ele>1948.750129</ele>
        <time>2021-11-16T09:29:54.296Z</time>
      </trkpt>
      <trkpt lat="39.79778" lon="41.11438">
        <ele>1958.060763</ele>
        <time>2021-11-16T09:31:05.569Z</time>
      </trkpt>
      <trkpt lat="39.79736" lon="41.11372">
        <ele>1962.205565</ele>
        <time>2021-11-16T09:31:36.187Z</time>
      </trkpt>
      <trkpt lat="39.79707" lon="41.11316">
        <ele>1964.720937</ele>
        <time>2021-11-16T09:31:58.512Z</time>
      </trkpt>
      <trkpt lat="39.79649" lon="41.11158">
        <ele>1970.461619</ele>
        <time>2021-11-16T09:32:50.902Z</time>
      </trkpt>
      <trkpt lat="39.79637" lon="41.11094">
        <ele>1971.761581</ele>
        <time>2021-11-16T09:33:08.615Z</time>
      </trkpt>
      <trkpt lat="39.79556" lon="41.10357">
        <ele>1982.558323</ele>
        <time>2021-11-16T09:35:57.852Z</time>
      </trkpt>
      <trkpt lat="39.79538" lon="41.10258">
        <ele>1983.539077</ele>
        <time>2021-11-16T09:36:18.346Z</time>
      </trkpt>
      <trkpt lat="39.7951" lon="41.10146">
        <ele>1984.29696</ele>
        <time>2021-11-16T09:36:40.894Z</time>
      </trkpt>
      <trkpt lat="39.79476" lon="41.10036">
        <ele>1984.879979</ele>
        <time>2021-11-16T09:37:03.028Z</time>
      </trkpt>
      <trkpt lat="39.79384" lon="41.0984">
        <ele>1986.569621</ele>
        <time>2021-11-16T09:37:47.979Z</time>
      </trkpt>
      <trkpt lat="39.79352" lon="41.09752">
        <ele>1987.907511</ele>
        <time>2021-11-16T09:38:09.460Z</time>
      </trkpt>
      <trkpt lat="39.7927" lon="41.09455">
        <ele>1993.903564</ele>
        <time>2021-11-16T09:39:29.243Z</time>
      </trkpt>
      <trkpt lat="39.79232" lon="41.09334">
        <ele>1996.487424</ele>
        <time>2021-11-16T09:40:02.508Z</time>
      </trkpt>
      <trkpt lat="39.79197" lon="41.09244">
        <ele>1998.296206</ele>
        <time>2021-11-16T09:40:27.010Z</time>
      </trkpt>
      <trkpt lat="39.7915" lon="41.09157">
        <ele>2000.172291</ele>
        <time>2021-11-16T09:40:52.335Z</time>
      </trkpt>
      <trkpt lat="39.79031" lon="41.08982">
        <ele>2003.080361</ele>
        <time>2021-11-16T09:41:44.626Z</time>
      </trkpt>
      <trkpt lat="39.79002" lon="41.08925">
        <ele>2003.121785</ele>
        <time>2021-11-16T09:41:58.116Z</time>
      </trkpt>
      <trkpt lat="39.78865" lon="41.0856">
        <ele>2002.431165</ele>
        <time>2021-11-16T09:43:02.207Z</time>
      </trkpt>
      <trkpt lat="39.78817" lon="41.08475">
        <ele>2002.731635</ele>
        <time>2021-11-16T09:43:19.793Z</time>
      </trkpt>
      <trkpt lat="39.78755" lon="41.08398">
        <ele>2003.045589</ele>
        <time>2021-11-16T09:43:41.187Z</time>
      </trkpt>
      <trkpt lat="39.78696" lon="41.08352">
        <ele>2005.198992</ele>
        <time>2021-11-16T09:44:01.877Z</time>
      </trkpt>
      <trkpt lat="39.78634" lon="41.08312">
        <ele>2007.453158</ele>
        <time>2021-11-16T09:44:26.999Z</time>
      </trkpt>
      <trkpt lat="39.78553" lon="41.08284">
        <ele>2011.297483</ele>
        <time>2021-11-16T09:45:02.258Z</time>
      </trkpt>
      <trkpt lat="39.78355" lon="41.08242">
        <ele>2023.874319</ele>
        <time>2021-11-16T09:46:40.601Z</time>
      </trkpt>
      <trkpt lat="39.78026" lon="41.08141">
        <ele>2045.275719</ele>
        <time>2021-11-16T09:49:21.837Z</time>
      </trkpt>
      <trkpt lat="39.7797" lon="41.08117">
        <ele>2048.719289</ele>
        <time>2021-11-16T09:49:49.650Z</time>
      </trkpt>
      <trkpt lat="39.7787" lon="41.08041">
        <ele>2054.606989</ele>
        <time>2021-11-16T09:50:40.592Z</time>
      </trkpt>
      <trkpt lat="39.77766" lon="41.07901">
        <ele>2059.54812</ele>
        <time>2021-11-16T09:51:33.465Z</time>
      </trkpt>
      <trkpt lat="39.77099" lon="41.06763">
        <ele>2058.582424</ele>
        <time>2021-11-16T09:55:28.738Z</time>
      </trkpt>
      <trkpt lat="39.77065" lon="41.06699">
        <ele>2059.633345</ele>
        <time>2021-11-16T09:55:45.979Z</time>
      </trkpt>
      <trkpt lat="39.77041" lon="41.06637">
        <ele>2060.555646</ele>
        <time>2021-11-16T09:56:02.542Z</time>
      </trkpt>
      <trkpt lat="39.77023" lon="41.06564">
        <ele>2061.782547</ele>
        <time>2021-11-16T09:56:22.445Z</time>
      </trkpt>
      <trkpt lat="39.77012" lon="41.06495">
        <ele>2063.382374</ele>
        <time>2021-11-16T09:56:41.496Z</time>
      </trkpt>
      <trkpt lat="39.77004" lon="41.05701">
        <ele>2080.73008</ele>
        <time>2021-11-16T10:00:08.729Z</time>
      </trkpt>
      <trkpt lat="39.76995" lon="41.05606">
        <ele>2081.880463</ele>
        <time>2021-11-16T10:00:29.729Z</time>
      </trkpt>
      <trkpt lat="39.76946" lon="41.05303">
        <ele>2082.009808</ele>
        <time>2021-11-16T10:01:23.589Z</time>
      </trkpt>
      <trkpt lat="39.76932" lon="41.05183">
        <ele>2081.342444</ele>
        <time>2021-11-16T10:01:40.967Z</time>
      </trkpt>
      <trkpt lat="39.76916" lon="41.05006">
        <ele>2079.458174</ele>
        <time>2021-11-16T10:02:05.478Z</time>
      </trkpt>
      <trkpt lat="39.76907" lon="41.04759">
        <ele>2078.445846</ele>
        <time>2021-11-16T10:02:44.105Z</time>
      </trkpt>
      <trkpt lat="39.76889" lon="41.04672">
        <ele>2079.231831</ele>
        <time>2021-11-16T10:03:01.788Z</time>
      </trkpt>
      <trkpt lat="39.76836" lon="41.04566">
        <ele>2081.178596</ele>
        <time>2021-11-16T10:03:31.149Z</time>
      </trkpt>
      <trkpt lat="39.76813" lon="41.04502">
        <ele>2082.738848</ele>
        <time>2021-11-16T10:03:50.402Z</time>
      </trkpt>
      <trkpt lat="39.76801" lon="41.04438">
        <ele>2085.34267</ele>
        <time>2021-11-16T10:04:10.315Z</time>
      </trkpt>
      <trkpt lat="39.76802" lon="41.04366">
        <ele>2088.181401</ele>
        <time>2021-11-16T10:04:34.038Z</time>
      </trkpt>
      <trkpt lat="39.76854" lon="41.04006">
        <ele>2105.728118</ele>
        <time>2021-11-16T10:06:52.025Z</time>
      </trkpt>
      <trkpt lat="39.76855" lon="41.03935">
        <ele>2108.996216</ele>
        <time>2021-11-16T10:07:17.829Z</time>
      </trkpt>
      <trkpt lat="39.76847" lon="41.03854">
        <ele>2112.717171</ele>
        <time>2021-11-16T10:07:45.936Z</time>
      </trkpt>
      <trkpt lat="39.7682" lon="41.03749">
        <ele>2117.104003</ele>
        <time>2021-11-16T10:08:22.223Z</time>
      </trkpt>
      <trkpt lat="39.76717" lon="41.03468">
        <ele>2128.8874</ele>
        <time>2021-11-16T10:10:00.514Z</time>
      </trkpt>
      <trkpt lat="39.76329" lon="41.02539">
        <ele>2174.25844</ele>
        <time>2021-11-16T10:15:58.213Z</time>
      </trkpt>
      <trkpt lat="39.76304" lon="41.02498">
        <ele>2177.748384</ele>
        <time>2021-11-16T10:16:20.533Z</time>
      </trkpt>
      <trkpt lat="39.76264" lon="41.02451">
        <ele>2182.428443</ele>
        <time>2021-11-16T10:16:52.990Z</time>
      </trkpt>
      <trkpt lat="39.7624" lon="41.02429">
        <ele>2185.025707</ele>
        <time>2021-11-16T10:17:12.257Z</time>
      </trkpt>
      <trkpt lat="39.76167" lon="41.0238">
        <ele>2193.485239</ele>
        <time>2021-11-16T10:18:07.866Z</time>
      </trkpt>
      <trkpt lat="39.76087" lon="41.02353">
        <ele>2202.30304</ele>
        <time>2021-11-16T10:19:03.882Z</time>
      </trkpt>
      <trkpt lat="39.75928" lon="41.02343">
        <ele>2216.396934</ele>
        <time>2021-11-16T10:20:36.893Z</time>
      </trkpt>
      <trkpt lat="39.7584" lon="41.02322">
        <ele>2223.306741</ele>
        <time>2021-11-16T10:21:20.034Z</time>
      </trkpt>
      <trkpt lat="39.75795" lon="41.02305">
        <ele>2226.524766</ele>
        <time>2021-11-16T10:21:42.519Z</time>
      </trkpt>
      <trkpt lat="39.75745" lon="41.02275">
        <ele>2230.289696</ele>
        <time>2021-11-16T10:22:08.938Z</time>
      </trkpt>
      <trkpt lat="39.75701" lon="41.02239">
        <ele>2234.014175</ele>
        <time>2021-11-16T10:22:35.594Z</time>
      </trkpt>
      <trkpt lat="39.75633" lon="41.02154">
        <ele>2242.176589</ele>
        <time>2021-11-16T10:23:28.604Z</time>
      </trkpt>
      <trkpt lat="39.75495" lon="41.0195">
        <ele>2260.729272</ele>
        <time>2021-11-16T10:25:34.094Z</time>
      </trkpt>
      <trkpt lat="39.75422" lon="41.01833">
        <ele>2269.539888</ele>
        <time>2021-11-16T10:26:36.983Z</time>
      </trkpt>
      <trkpt lat="39.75385" lon="41.01754">
        <ele>2274.231043</ele>
        <time>2021-11-16T10:27:10.644Z</time>
      </trkpt>
      <trkpt lat="39.75315" lon="41.01565">
        <ele>2282.705972</ele>
        <time>2021-11-16T10:28:18.249Z</time>
      </trkpt>
      <trkpt lat="39.75284" lon="41.0151">
        <ele>2285.245236</ele>
        <time>2021-11-16T10:28:39.230Z</time>
      </trkpt>
      <trkpt lat="39.75228" lon="41.01443">
        <ele>2288.999529</ele>
        <time>2021-11-16T10:29:09.720Z</time>
      </trkpt>
      <trkpt lat="39.7509" lon="41.0133">
        <ele>2297.691921</ele>
        <time>2021-11-16T10:30:20.474Z</time>
      </trkpt>
      <trkpt lat="39.74923" lon="41.01205">
        <ele>2309.373464</ele>
        <time>2021-11-16T10:31:51.388Z</time>
      </trkpt>
      <trkpt lat="39.74875" lon="41.01175">
        <ele>2312.761721</ele>
        <time>2021-11-16T10:32:17.220Z</time>
      </trkpt>
      <trkpt lat="39.7482" lon="41.01154">
        <ele>2316.397237</ele>
        <time>2021-11-16T10:32:44.761Z</time>
      </trkpt>
      <trkpt lat="39.74729" lon="41.01133">
        <ele>2321.674661</ele>
        <time>2021-11-16T10:33:28.233Z</time>
      </trkpt>
      <trkpt lat="39.74642" lon="41.0113">
        <ele>2326.66047</ele>
        <time>2021-11-16T10:34:06.600Z</time>
      </trkpt>
      <trkpt lat="39.7456" lon="41.0111">
        <ele>2329.901793</ele>
        <time>2021-11-16T10:34:39.947Z</time>
      </trkpt>
      <trkpt lat="39.74531" lon="41.01097">
        <ele>2331.06624</ele>
        <time>2021-11-16T10:34:51.370Z</time>
      </trkpt>
      <trkpt lat="39.74367" lon="41.0098">
        <ele>2336.913029</ele>
        <time>2021-11-16T10:35:54.013Z</time>
      </trkpt>
      <trkpt lat="39.74329" lon="41.00962">
        <ele>2338.016414</ele>
        <time>2021-11-16T10:36:07.257Z</time>
      </trkpt>
      <trkpt lat="39.74274" lon="41.00945">
        <ele>2339.498152</ele>
        <time>2021-11-16T10:36:25.472Z</time>
      </trkpt>
      <trkpt lat="39.74266" lon="41.00943">
        <ele>2339.696785</ele>
        <time>2021-11-16T10:36:28.135Z</time>
      </trkpt>
      <trkpt lat="39.74263" lon="41.00942">
        <ele>2339.782909</ele>
        <time>2021-11-16T10:36:29.267Z</time>
      </trkpt>
      <trkpt lat="39.7425" lon="41.00939">
        <ele>2340.11946</ele>
        <time>2021-11-16T10:36:33.070Z</time>
      </trkpt>
      <trkpt lat="39.74242" lon="41.00938">
        <ele>2340.333037</ele>
        <time>2021-11-16T10:36:36.013Z</time>
      </trkpt>
      <trkpt lat="39.74042" lon="41.00929">
        <ele>2345.68735</ele>
        <time>2021-11-16T10:37:40.973Z</time>
      </trkpt>
      <trkpt lat="39.74005" lon="41.00924">
        <ele>2346.743655</ele>
        <time>2021-11-16T10:37:53.595Z</time>
      </trkpt>
      <trkpt lat="39.73966" lon="41.00908">
        <ele>2347.902402</ele>
        <time>2021-11-16T10:38:07.846Z</time>
      </trkpt>
      <trkpt lat="39.73922" lon="41.00881">
        <ele>2349.093257</ele>
        <time>2021-11-16T10:38:25.113Z</time>
      </trkpt>
      <trkpt lat="39.73878" lon="41.00838">
        <ele>2350.348308</ele>
        <time>2021-11-16T10:38:44.502Z</time>
      </trkpt>
      <trkpt lat="39.7383" lon="41.00765">
        <ele>2352.047283</ele>
        <time>2021-11-16T10:39:07.304Z</time>
      </trkpt>
      <trkpt lat="39.73807" lon="41.00706">
        <ele>2350.987871</ele>
        <time>2021-11-16T10:39:19.249Z</time>
      </trkpt>
      <trkpt lat="39.73794" lon="41.00658">
        <ele>2349.339151</ele>
        <time>2021-11-16T10:39:26.723Z</time>
      </trkpt>
      <trkpt lat="39.73681" lon="41.00109">
        <ele>2328.940069</ele>
        <time>2021-11-16T10:40:32.119Z</time>
      </trkpt>
      <trkpt lat="39.73658" lon="40.99966">
        <ele>2322.300378</ele>
        <time>2021-11-16T10:40:48.464Z</time>
      </trkpt>
      <trkpt lat="39.73646" lon="40.99805">
        <ele>2315.174978</ele>
        <time>2021-11-16T10:41:06.675Z</time>
      </trkpt>
      <trkpt lat="39.73613" lon="40.99031">
        <ele>2287.791613</ele>
        <time>2021-11-16T10:42:37.920Z</time>
      </trkpt>
      <trkpt lat="39.73603" lon="40.9891">
        <ele>2284.239405</ele>
        <time>2021-11-16T10:42:53.031Z</time>
      </trkpt>
      <trkpt lat="39.73582" lon="40.98748">
        <ele>2280.672356</ele>
        <time>2021-11-16T10:43:14.285Z</time>
      </trkpt>
      <trkpt lat="39.73511" lon="40.98347">
        <ele>2271.233314</ele>
        <time>2021-11-16T10:44:07.014Z</time>
      </trkpt>
      <trkpt lat="39.73465" lon="40.98185">
        <ele>2266.428858</ele>
        <time>2021-11-16T10:44:27.882Z</time>
      </trkpt>
      <trkpt lat="39.73427" lon="40.98096">
        <ele>2263.079269</ele>
        <time>2021-11-16T10:44:40.042Z</time>
      </trkpt>
      <trkpt lat="39.73331" lon="40.97914">
        <ele>2255.255497</ele>
        <time>2021-11-16T10:45:06.121Z</time>
      </trkpt>
      <trkpt lat="39.73122" lon="40.97659">
        <ele>2241.304199</ele>
        <time>2021-11-16T10:45:49.210Z</time>
      </trkpt>
      <trkpt lat="39.73033" lon="40.97578">
        <ele>2237.069004</ele>
        <time>2021-11-16T10:46:06.511Z</time>
      </trkpt>
      <trkpt lat="39.73007" lon="40.97562">
        <ele>2235.976678</ele>
        <time>2021-11-16T10:46:11.070Z</time>
      </trkpt>
      <trkpt lat="39.72988" lon="40.9755">
        <ele>2235.207684</ele>
        <time>2021-11-16T10:46:14.633Z</time>
      </trkpt>
      <trkpt lat="39.72929" lon="40.97523">
        <ele>2233.291998</ele>
        <time>2021-11-16T10:46:24.879Z</time>
      </trkpt>
      <trkpt lat="39.72891" lon="40.97523">
        <ele>2232.139865</ele>
        <time>2021-11-16T10:46:31.009Z</time>
      </trkpt>
      <trkpt lat="39.72831" lon="40.97534">
        <ele>2230.290311</ele>
        <time>2021-11-16T10:46:40.916Z</time>
      </trkpt>
      <trkpt lat="39.72766" lon="40.97554">
        <ele>2228.945066</ele>
        <time>2021-11-16T10:46:52.047Z</time>
      </trkpt>
      <trkpt lat="39.72722" lon="40.97581">
        <ele>2228.073264</ele>
        <time>2021-11-16T10:47:00.368Z</time>
      </trkpt>
      <trkpt lat="39.72541" lon="40.97773">
        <ele>2226.579376</ele>
        <time>2021-11-16T10:47:48.277Z</time>
      </trkpt>
      <trkpt lat="39.72509" lon="40.97802">
        <ele>2226.952096</ele>
        <time>2021-11-16T10:47:59.328Z</time>
      </trkpt>
      <trkpt lat="39.72446" lon="40.97834">
        <ele>2228.477801</ele>
        <time>2021-11-16T10:48:19.764Z</time>
      </trkpt>
      <trkpt lat="39.72405" lon="40.97847">
        <ele>2229.453691</ele>
        <time>2021-11-16T10:48:33.884Z</time>
      </trkpt>
      <trkpt lat="39.72362" lon="40.9785">
        <ele>2230.422912</ele>
        <time>2021-11-16T10:48:48.596Z</time>
      </trkpt>
      <trkpt lat="39.72262" lon="40.97846">
        <ele>2233.560125</ele>
        <time>2021-11-16T10:49:23.876Z</time>
      </trkpt>
      <trkpt lat="39.71867" lon="40.97794">
        <ele>2246.704295</ele>
        <time>2021-11-16T10:51:44.003Z</time>
      </trkpt>
      <trkpt lat="39.71783" lon="40.97756">
        <ele>2250.007874</ele>
        <time>2021-11-16T10:52:17.207Z</time>
      </trkpt>
      <trkpt lat="39.71568" lon="40.9757">
        <ele>2261.334068</ele>
        <time>2021-11-16T10:53:58.613Z</time>
      </trkpt>
      <trkpt lat="39.71533" lon="40.97545">
        <ele>2263.185278</ele>
        <time>2021-11-16T10:54:15.426Z</time>
      </trkpt>
      <trkpt lat="39.71474" lon="40.97517">
        <ele>2266.723442</ele>
        <time>2021-11-16T10:54:43.781Z</time>
      </trkpt>
      <trkpt lat="39.71384" lon="40.97491">
        <ele>2272.489909</ele>
        <time>2021-11-16T10:55:28.226Z</time>
      </trkpt>
      <trkpt lat="39.71326" lon="40.97492">
        <ele>2276.024069</ele>
        <time>2021-11-16T10:55:56.454Z</time>
      </trkpt>
      <trkpt lat="39.7125" lon="40.97507">
        <ele>2280.283659</ele>
        <time>2021-11-16T10:56:32.833Z</time>
      </trkpt>
      <trkpt lat="39.71215" lon="40.97521">
        <ele>2282.314325</ele>
        <time>2021-11-16T10:56:49.329Z</time>
      </trkpt>
      <trkpt lat="39.71154" lon="40.9755">
        <ele>2285.684434</ele>
        <time>2021-11-16T10:57:15.746Z</time>
      </trkpt>
      <trkpt lat="39.71083" lon="40.97602">
        <ele>2287.730565</ele>
        <time>2021-11-16T10:57:45.112Z</time>
      </trkpt>
      <trkpt lat="39.70957" lon="40.97672">
        <ele>2289.77522</ele>
        <time>2021-11-16T10:58:22.689Z</time>
      </trkpt>
      <trkpt lat="39.70326" lon="40.98071">
        <ele>2285.366148</ele>
        <time>2021-11-16T11:00:43.658Z</time>
      </trkpt>
      <trkpt lat="39.70207" lon="40.98151">
        <ele>2282.394102</ele>
        <time>2021-11-16T11:01:06.253Z</time>
      </trkpt>
      <trkpt lat="39.69841" lon="40.98373">
        <ele>2271.676752</ele>
        <time>2021-11-16T11:02:12.900Z</time>
      </trkpt>
      <trkpt lat="39.69529" lon="40.9857">
        <ele>2272.748752</ele>
        <time>2021-11-16T11:03:39.423Z</time>
      </trkpt>
      <trkpt lat="39.69493" lon="40.98597">
        <ele>2272.818877</ele>
        <time>2021-11-16T11:03:49.154Z</time>
      </trkpt>
      <trkpt lat="39.69464" lon="40.98634">
        <ele>2272.887189</ele>
        <time>2021-11-16T11:03:58.339Z</time>
      </trkpt>
      <trkpt lat="39.69434" lon="40.9869">
        <ele>2272.975899</ele>
        <time>2021-11-16T11:04:09.966Z</time>
      </trkpt>
      <trkpt lat="39.69409" lon="40.98769">
        <ele>2273.088731</ele>
        <time>2021-11-16T11:04:24.350Z</time>
      </trkpt>
      <trkpt lat="39.6939" lon="40.98883">
        <ele>2273.248258</ele>
        <time>2021-11-16T11:04:45.587Z</time>
      </trkpt>
      <trkpt lat="39.69391" lon="40.99008">
        <ele>2272.67469</ele>
        <time>2021-11-16T11:05:08.162Z</time>
      </trkpt>
      <trkpt lat="39.69389" lon="40.99137">
        <ele>2270.982743</ele>
        <time>2021-11-16T11:05:26.470Z</time>
      </trkpt>
      <trkpt lat="39.69389" lon="40.99278">
        <ele>2266.715433</ele>
        <time>2021-11-16T11:05:43.485Z</time>
      </trkpt>
      <trkpt lat="39.69364" lon="40.99406">
        <ele>2261.355036</ele>
        <time>2021-11-16T11:05:58.330Z</time>
      </trkpt>
      <trkpt lat="39.69331" lon="40.99471">
        <ele>2257.593179</ele>
        <time>2021-11-16T11:06:07.005Z</time>
      </trkpt>
      <trkpt lat="39.6929" lon="40.99533">
        <ele>2253.50549</ele>
        <time>2021-11-16T11:06:16.120Z</time>
      </trkpt>
      <trkpt lat="39.69251" lon="40.99574">
        <ele>2250.227376</ele>
        <time>2021-11-16T11:06:23.428Z</time>
      </trkpt>
      <trkpt lat="39.69203" lon="40.99609">
        <ele>2246.423809</ele>
        <time>2021-11-16T11:06:31.339Z</time>
      </trkpt>
      <trkpt lat="39.69153" lon="40.99632">
        <ele>2242.622237</ele>
        <time>2021-11-16T11:06:39.006Z</time>
      </trkpt>
      <trkpt lat="39.69021" lon="40.99668">
        <ele>2232.604091</ele>
        <time>2021-11-16T11:06:58.041Z</time>
      </trkpt>
      <trkpt lat="39.68935" lon="40.99713">
        <ele>2225.124426</ele>
        <time>2021-11-16T11:07:10.981Z</time>
      </trkpt>
      <trkpt lat="39.68879" lon="40.99762">
        <ele>2219.586039</ele>
        <time>2021-11-16T11:07:20.384Z</time>
      </trkpt>
      <trkpt lat="39.68692" lon="40.99976">
        <ele>2198.419635</ele>
        <time>2021-11-16T11:07:55.084Z</time>
      </trkpt>
      <trkpt lat="39.68665" lon="41.0002">
        <ele>2194.709914</ele>
        <time>2021-11-16T11:08:01.076Z</time>
      </trkpt>
      <trkpt lat="39.6858" lon="41.00261">
        <ele>2178.649113</ele>
        <time>2021-11-16T11:08:29.574Z</time>
      </trkpt>
      <trkpt lat="39.68555" lon="41.00314">
        <ele>2176.042351</ele>
        <time>2021-11-16T11:08:36.703Z</time>
      </trkpt>
      <trkpt lat="39.68521" lon="41.00357">
        <ele>2174.059909</ele>
        <time>2021-11-16T11:08:43.960Z</time>
      </trkpt>
      <trkpt lat="39.68489" lon="41.00374">
        <ele>2172.623468</ele>
        <time>2021-11-16T11:08:49.397Z</time>
      </trkpt>
      <trkpt lat="39.68275" lon="41.00429">
        <ele>2165.09629</ele>
        <time>2021-11-16T11:09:25.667Z</time>
      </trkpt>
      <trkpt lat="39.68071" lon="41.0052">
        <ele>2156.923799</ele>
        <time>2021-11-16T11:09:59.488Z</time>
      </trkpt>
      <trkpt lat="39.67936" lon="41.00638">
        <ele>2151.798075</ele>
        <time>2021-11-16T11:10:25.859Z</time>
      </trkpt>
      <trkpt lat="39.67876" lon="41.00699">
        <ele>2150.775388</ele>
        <time>2021-11-16T11:10:39.431Z</time>
      </trkpt>
      <trkpt lat="39.67807" lon="41.00752">
        <ele>2149.915363</ele>
        <time>2021-11-16T11:10:55.307Z</time>
      </trkpt>
      <trkpt lat="39.67742" lon="41.00791">
        <ele>2149.673128</ele>
        <time>2021-11-16T11:11:11.897Z</time>
      </trkpt>
      <trkpt lat="39.6759" lon="41.00856">
        <ele>2150.078063</ele>
        <time>2021-11-16T11:11:50.604Z</time>
      </trkpt>
      <trkpt lat="39.67515" lon="41.00877">
        <ele>2149.905304</ele>
        <time>2021-11-16T11:12:07.287Z</time>
      </trkpt>
      <trkpt lat="39.67441" lon="41.00883">
        <ele>2149.738989</ele>
        <time>2021-11-16T11:12:22.101Z</time>
      </trkpt>
      <trkpt lat="39.67275" lon="41.00878">
        <ele>2149.650683</ele>
        <time>2021-11-16T11:12:56.786Z</time>
      </trkpt>
      <trkpt lat="39.67158" lon="41.00883">
        <ele>2151.250885</ele>
        <time>2021-11-16T11:13:29.483Z</time>
      </trkpt>
      <trkpt lat="39.67023" lon="41.0093">
        <ele>2153.923754</ele>
        <time>2021-11-16T11:14:13.781Z</time>
      </trkpt>
      <trkpt lat="39.66955" lon="41.00978">
        <ele>2155.649604</ele>
        <time>2021-11-16T11:14:37.983Z</time>
      </trkpt>
      <trkpt lat="39.66852" lon="41.01076">
        <ele>2158.302994</ele>
        <time>2021-11-16T11:15:16.465Z</time>
      </trkpt>
      <trkpt lat="39.66579" lon="41.013">
        <ele>2164.353948</ele>
        <time>2021-11-16T11:16:53.742Z</time>
      </trkpt>
      <trkpt lat="39.66335" lon="41.01522">
        <ele>2167.18113</ele>
        <time>2021-11-16T11:18:12.375Z</time>
      </trkpt>
      <trkpt lat="39.66074" lon="41.01783">
        <ele>2163.280335</ele>
        <time>2021-11-16T11:19:16.025Z</time>
      </trkpt>
      <trkpt lat="39.65942" lon="41.01949">
        <ele>2156.450788</ele>
        <time>2021-11-16T11:19:44.855Z</time>
      </trkpt>
      <trkpt lat="39.65908" lon="41.01963">
        <ele>2154.918385</ele>
        <time>2021-11-16T11:19:50.066Z</time>
      </trkpt>
      <trkpt lat="39.65888" lon="41.01958">
        <ele>2153.87408</ele>
        <time>2021-11-16T11:19:53.102Z</time>
      </trkpt>
      <trkpt lat="39.65873" lon="41.01946">
        <ele>2152.722312</ele>
        <time>2021-11-16T11:19:55.815Z</time>
      </trkpt>
      <trkpt lat="39.65853" lon="41.01903">
        <ele>2150.302542</ele>
        <time>2021-11-16T11:20:01.507Z</time>
      </trkpt>
      <trkpt lat="39.65788" lon="41.01546">
        <ele>2130.875193</ele>
        <time>2021-11-16T11:20:42.013Z</time>
      </trkpt>
      <trkpt lat="39.65772" lon="41.0149">
        <ele>2126.513541</ele>
        <time>2021-11-16T11:20:48.326Z</time>
      </trkpt>
      <trkpt lat="39.65756" lon="41.01468">
        <ele>2124.039585</ele>
        <time>2021-11-16T11:20:51.569Z</time>
      </trkpt>
      <trkpt lat="39.65729" lon="41.01449">
        <ele>2120.888523</ele>
        <time>2021-11-16T11:20:55.686Z</time>
      </trkpt>
      <trkpt lat="39.65706" lon="41.01447">
        <ele>2118.550955</ele>
        <time>2021-11-16T11:20:58.717Z</time>
      </trkpt>
      <trkpt lat="39.65677" lon="41.01464">
        <ele>2115.227276</ele>
        <time>2021-11-16T11:21:03.036Z</time>
      </trkpt>
      <trkpt lat="39.65632" lon="41.01529">
        <ele>2108.769006</ele>
        <time>2021-11-16T11:21:11.984Z</time>
      </trkpt>
      <trkpt lat="39.65535" lon="41.01681">
        <ele>2095.541246</ele>
        <time>2021-11-16T11:21:32.994Z</time>
      </trkpt>
      <trkpt lat="39.655" lon="41.01797">
        <ele>2093.640821</ele>
        <time>2021-11-16T11:21:48.437Z</time>
      </trkpt>
      <trkpt lat="39.65486" lon="41.01819">
        <ele>2093.216325</ele>
        <time>2021-11-16T11:21:52.666Z</time>
      </trkpt>
      <trkpt lat="39.65456" lon="41.01847">
        <ele>2092.47126</ele>
        <time>2021-11-16T11:22:02.130Z</time>
      </trkpt>
      <trkpt lat="39.65433" lon="41.01852">
        <ele>2092.020273</ele>
        <time>2021-11-16T11:22:09.240Z</time>
      </trkpt>
      <trkpt lat="39.6541" lon="41.01851">
        <ele>2092.887556</ele>
        <time>2021-11-16T11:22:16.980Z</time>
      </trkpt>
      <trkpt lat="39.65386" lon="41.01829">
        <ele>2094.024478</ele>
        <time>2021-11-16T11:22:27.649Z</time>
      </trkpt>
      <trkpt lat="39.65376" lon="41.01785">
        <ele>2095.391133</ele>
        <time>2021-11-16T11:22:41.521Z</time>
      </trkpt>
      <trkpt lat="39.65366" lon="41.01668">
        <ele>2098.885433</ele>
        <time>2021-11-16T11:23:18.786Z</time>
      </trkpt>
      <trkpt lat="39.6537" lon="41.01559">
        <ele>2101.940429</ele>
        <time>2021-11-16T11:23:51.514Z</time>
      </trkpt>
      <trkpt lat="39.65399" lon="41.01446">
        <ele>2105.328619</ele>
        <time>2021-11-16T11:24:23.454Z</time>
      </trkpt>
      <trkpt lat="39.65398" lon="41.01412">
        <ele>2106.384837</ele>
        <time>2021-11-16T11:24:32.457Z</time>
      </trkpt>
      <trkpt lat="39.65384" lon="41.01366">
        <ele>2108.002613</ele>
        <time>2021-11-16T11:24:44.976Z</time>
      </trkpt>
      <trkpt lat="39.65334" lon="41.01285">
        <ele>2111.39318</ele>
        <time>2021-11-16T11:25:15.067Z</time>
      </trkpt>
      <trkpt lat="39.65324" lon="41.01261">
        <ele>2112.270658</ele>
        <time>2021-11-16T11:25:24.127Z</time>
      </trkpt>
      <trkpt lat="39.65322" lon="41.01255">
        <ele>2112.472619</ele>
        <time>2021-11-16T11:25:26.815Z</time>
      </trkpt>
      <trkpt lat="39.65311" lon="41.01206">
        <ele>2114.671269</ele>
        <time>2021-11-16T11:25:46.270Z</time>
      </trkpt>
      <trkpt lat="39.65308" lon="41.01165">
        <ele>2116.708988</ele>
        <time>2021-11-16T11:26:02.588Z</time>
      </trkpt>
      <trkpt lat="39.65307" lon="41.01156">
        <ele>2117.15206</ele>
        <time>2021-11-16T11:26:06.260Z</time>
      </trkpt>
      <trkpt lat="39.65306" lon="41.01093">
        <ele>2120.253058</ele>
        <time>2021-11-16T11:26:31.309Z</time>
      </trkpt>
      <trkpt lat="39.65301" lon="41.0104">
        <ele>2122.912853</ele>
        <time>2021-11-16T11:26:52.284Z</time>
      </trkpt>
      <trkpt lat="39.65282" lon="41.00982">
        <ele>2124.822011</ele>
        <time>2021-11-16T11:27:15.944Z</time>
      </trkpt>
      <trkpt lat="39.65183" lon="41.00797">
        <ele>2124.680894</ele>
        <time>2021-11-16T11:27:55.528Z</time>
      </trkpt>
      <trkpt lat="39.65077" lon="41.00638">
        <ele>2112.504913</ele>
        <time>2021-11-16T11:28:17.898Z</time>
      </trkpt>
      <trkpt lat="39.6494" lon="41.00483">
        <ele>2094.732182</ele>
        <time>2021-11-16T11:28:42.600Z</time>
      </trkpt>
      <trkpt lat="39.6487" lon="41.00421">
        <ele>2088.902779</ele>
        <time>2021-11-16T11:28:54.449Z</time>
      </trkpt>
      <trkpt lat="39.64779" lon="41.00372">
        <ele>2082.182506</ele>
        <time>2021-11-16T11:29:08.959Z</time>
      </trkpt>
      <trkpt lat="39.64672" lon="41.00327">
        <ele>2078.141461</ele>
        <time>2021-11-16T11:29:26.733Z</time>
      </trkpt>
      <trkpt lat="39.64526" lon="41.00299">
        <ele>2073.628592</ele>
        <time>2021-11-16T11:29:51.761Z</time>
      </trkpt>
      <trkpt lat="39.64278" lon="41.00316">
        <ele>2067.512846</ele>
        <time>2021-11-16T11:30:33.450Z</time>
      </trkpt>
      <trkpt lat="39.64178" lon="41.0031">
        <ele>2066.817488</ele>
        <time>2021-11-16T11:30:52.302Z</time>
      </trkpt>
      <trkpt lat="39.63966" lon="41.00258">
        <ele>2067.160926</ele>
        <time>2021-11-16T11:31:48.167Z</time>
      </trkpt>
      <trkpt lat="39.63903" lon="41.00251">
        <ele>2067.364492</ele>
        <time>2021-11-16T11:32:02.481Z</time>
      </trkpt>
      <trkpt lat="39.63723" lon="41.00259">
        <ele>2064.626238</ele>
        <time>2021-11-16T11:32:35.099Z</time>
      </trkpt>
      <trkpt lat="39.63671" lon="41.00246">
        <ele>2063.368724</ele>
        <time>2021-11-16T11:32:44.065Z</time>
      </trkpt>
      <trkpt lat="39.63601" lon="41.00209">
        <ele>2061.443267</ele>
        <time>2021-11-16T11:32:56.840Z</time>
      </trkpt>
      <trkpt lat="39.6347" lon="41.0009">
        <ele>2057.625148</ele>
        <time>2021-11-16T11:33:23.672Z</time>
      </trkpt>
      <trkpt lat="39.63407" lon="41.00024">
        <ele>2055.759882</ele>
        <time>2021-11-16T11:33:37.739Z</time>
      </trkpt>
      <trkpt lat="39.63373" lon="40.99963">
        <ele>2055.294242</ele>
        <time>2021-11-16T11:33:48.420Z</time>
      </trkpt>
      <trkpt lat="39.63317" lon="40.99822">
        <ele>2054.32703</ele>
        <time>2021-11-16T11:34:13.852Z</time>
      </trkpt>
      <trkpt lat="39.63292" lon="40.9977">
        <ele>2054.063086</ele>
        <time>2021-11-16T11:34:24.734Z</time>
      </trkpt>
      <trkpt lat="39.63262" lon="40.99731">
        <ele>2053.823073</ele>
        <time>2021-11-16T11:34:34.307Z</time>
      </trkpt>
      <trkpt lat="39.63214" lon="40.99706">
        <ele>2053.530945</ele>
        <time>2021-11-16T11:34:44.956Z</time>
      </trkpt>
      <trkpt lat="39.63164" lon="40.99697">
        <ele>2052.815228</ele>
        <time>2021-11-16T11:34:54.586Z</time>
      </trkpt>
      <trkpt lat="39.6312" lon="40.99706">
        <ele>2050.998677</ele>
        <time>2021-11-16T11:35:02.232Z</time>
      </trkpt>
      <trkpt lat="39.63033" lon="40.99744">
        <ele>2047.279768</ele>
        <time>2021-11-16T11:35:16.376Z</time>
      </trkpt>
      <trkpt lat="39.62997" lon="40.99745">
        <ele>2045.582045</ele>
        <time>2021-11-16T11:35:21.713Z</time>
      </trkpt>
      <trkpt lat="39.62956" lon="40.99731">
        <ele>2042.190337</ele>
        <time>2021-11-16T11:35:27.735Z</time>
      </trkpt>
      <trkpt lat="39.62915" lon="40.997">
        <ele>2038.438659</ele>
        <time>2021-11-16T11:35:34.294Z</time>
      </trkpt>
      <trkpt lat="39.62887" lon="40.9966">
        <ele>2035.067653</ele>
        <time>2021-11-16T11:35:40.134Z</time>
      </trkpt>
      <trkpt lat="39.6287" lon="40.99622">
        <ele>2032.396962</ele>
        <time>2021-11-16T11:35:44.738Z</time>
      </trkpt>
      <trkpt lat="39.62854" lon="40.99561">
        <ele>2028.105784</ele>
        <time>2021-11-16T11:35:51.598Z</time>
      </trkpt>
      <trkpt lat="39.62812" lon="40.99328">
        <ele>2011.794744</ele>
        <time>2021-11-16T11:36:17.079Z</time>
      </trkpt>
      <trkpt lat="39.62796" lon="40.99286">
        <ele>2008.432536</ele>
        <time>2021-11-16T11:36:22.138Z</time>
      </trkpt>
      <trkpt lat="39.62763" lon="40.99243">
        <ele>2004.15249</ele>
        <time>2021-11-16T11:36:28.556Z</time>
      </trkpt>
      <trkpt lat="39.62724" lon="40.99211">
        <ele>1999.96178</ele>
        <time>2021-11-16T11:36:34.803Z</time>
      </trkpt>
      <trkpt lat="39.62677" lon="40.99197">
        <ele>1995.482573</ele>
        <time>2021-11-16T11:36:41.443Z</time>
      </trkpt>
      <trkpt lat="39.62632" lon="40.99195">
        <ele>1991.318477</ele>
        <time>2021-11-16T11:36:47.632Z</time>
      </trkpt>
      <trkpt lat="39.62584" lon="40.9922">
        <ele>1986.617246</ele>
        <time>2021-11-16T11:36:54.636Z</time>
      </trkpt>
      <trkpt lat="39.62553" lon="40.99251">
        <ele>1982.981796</ele>
        <time>2021-11-16T11:37:00.095Z</time>
      </trkpt>
      <trkpt lat="39.62411" lon="40.99417">
        <ele>1968.187408</ele>
        <time>2021-11-16T11:37:26.957Z</time>
      </trkpt>
      <trkpt lat="39.62356" lon="40.99461">
        <ele>1964.671475</ele>
        <time>2021-11-16T11:37:36.291Z</time>
      </trkpt>
      <trkpt lat="39.62299" lon="40.99483">
        <ele>1961.371038</ele>
        <time>2021-11-16T11:37:45.317Z</time>
      </trkpt>
      <trkpt lat="39.62252" lon="40.99494">
        <ele>1958.809989</ele>
        <time>2021-11-16T11:37:52.691Z</time>
      </trkpt>
      <trkpt lat="39.62188" lon="40.99489">
        <ele>1957.503744</ele>
        <time>2021-11-16T11:38:03.408Z</time>
      </trkpt>
      <trkpt lat="39.62134" lon="40.99474">
        <ele>1956.38392</ele>
        <time>2021-11-16T11:38:13.506Z</time>
      </trkpt>
      <trkpt lat="39.62094" lon="40.99452">
        <ele>1955.517236</ele>
        <time>2021-11-16T11:38:21.957Z</time>
      </trkpt>
      <trkpt lat="39.62052" lon="40.99419">
        <ele>1954.52248</ele>
        <time>2021-11-16T11:38:31.516Z</time>
      </trkpt>
      <trkpt lat="39.61989" lon="40.99349">
        <ele>1952.835136</ele>
        <time>2021-11-16T11:38:46.915Z</time>
      </trkpt>
      <trkpt lat="39.61978" lon="40.99336">
        <ele>1952.524824</ele>
        <time>2021-11-16T11:38:49.577Z</time>
      </trkpt>
      <trkpt lat="39.61881" lon="40.99216">
        <ele>1947.581115</ele>
        <time>2021-11-16T11:39:10.883Z</time>
      </trkpt>
      <trkpt lat="39.61813" lon="40.99129">
        <ele>1943.125765</ele>
        <time>2021-11-16T11:39:25.071Z</time>
      </trkpt>
      <trkpt lat="39.61681" lon="40.98915">
        <ele>1931.047685</ele>
        <time>2021-11-16T11:39:56.084Z</time>
      </trkpt>
      <trkpt lat="39.61487" lon="40.98443">
        <ele>1910.567828</ele>
        <time>2021-11-16T11:40:58.010Z</time>
      </trkpt>
      <trkpt lat="39.61479" lon="40.98428">
        <ele>1910.006771</ele>
        <time>2021-11-16T11:41:00.226Z</time>
      </trkpt>
      <trkpt lat="39.61457" lon="40.98388">
        <ele>1908.509098</ele>
        <time>2021-11-16T11:41:06.262Z</time>
      </trkpt>
      <trkpt lat="39.61416" lon="40.9833">
        <ele>1906.496326</ele>
        <time>2021-11-16T11:41:16.512Z</time>
      </trkpt>
      <trkpt lat="39.61311" lon="40.98219">
        <ele>1904.595912</ele>
        <time>2021-11-16T11:41:41.756Z</time>
      </trkpt>
      <trkpt lat="39.61244" lon="40.98184">
        <ele>1903.791272</ele>
        <time>2021-11-16T11:41:56.692Z</time>
      </trkpt>
      <trkpt lat="39.61153" lon="40.98155">
        <ele>1902.932491</ele>
        <time>2021-11-16T11:42:14.910Z</time>
      </trkpt>
      <trkpt lat="39.61137" lon="40.9815">
        <ele>1902.774227</ele>
        <time>2021-11-16T11:42:18.231Z</time>
      </trkpt>
      <trkpt lat="39.61104" lon="40.9814">
        <ele>1902.396132</ele>
        <time>2021-11-16T11:42:24.653Z</time>
      </trkpt>
      <trkpt lat="39.61052" lon="40.98128">
        <ele>1901.535704</ele>
        <time>2021-11-16T11:42:34.325Z</time>
      </trkpt>
      <trkpt lat="39.60928" lon="40.98064">
        <ele>1899.284083</ele>
        <time>2021-11-16T11:42:58.087Z</time>
      </trkpt>
      <trkpt lat="39.60854" lon="40.98005">
        <ele>1897.525241</ele>
        <time>2021-11-16T11:43:13.686Z</time>
      </trkpt>
      <trkpt lat="39.60811" lon="40.97965">
        <ele>1896.455296</ele>
        <time>2021-11-16T11:43:23.075Z</time>
      </trkpt>
      <trkpt lat="39.60719" lon="40.97863">
        <ele>1893.357349</ele>
        <time>2021-11-16T11:43:43.442Z</time>
      </trkpt>
      <trkpt lat="39.60707" lon="40.9785">
        <ele>1892.938163</ele>
        <time>2021-11-16T11:43:45.990Z</time>
      </trkpt>
      <trkpt lat="39.60659" lon="40.97799">
        <ele>1891.271066</ele>
        <time>2021-11-16T11:43:56.097Z</time>
      </trkpt>
      <trkpt lat="39.6053" lon="40.97662">
        <ele>1887.807656</ele>
        <time>2021-11-16T11:44:24.498Z</time>
      </trkpt>
      <trkpt lat="39.60481" lon="40.97612">
        <ele>1887.673399</ele>
        <time>2021-11-16T11:44:37.773Z</time>
      </trkpt>
      <trkpt lat="39.60405" lon="40.97532">
        <ele>1888.300734</ele>
        <time>2021-11-16T11:45:02.912Z</time>
      </trkpt>
      <trkpt lat="39.59829" lon="40.96952">
        <ele>1901.31225</ele>
        <time>2021-11-16T11:48:36.572Z</time>
      </trkpt>
      <trkpt lat="39.59438" lon="40.96547">
        <ele>1918.699026</ele>
        <time>2021-11-16T11:51:40.228Z</time>
      </trkpt>
      <trkpt lat="39.59295" lon="40.96393">
        <ele>1924.973596</ele>
        <time>2021-11-16T11:52:47.169Z</time>
      </trkpt>
      <trkpt lat="39.59225" lon="40.96304">
        <ele>1927.935251</ele>
        <time>2021-11-16T11:53:21.292Z</time>
      </trkpt>
      <trkpt lat="39.59157" lon="40.96189">
        <ele>1930.777962</ele>
        <time>2021-11-16T11:53:57.651Z</time>
      </trkpt>
      <trkpt lat="39.59085" lon="40.96043">
        <ele>1933.249673</ele>
        <time>2021-11-16T11:54:36.964Z</time>
      </trkpt>
      <trkpt lat="39.59026" lon="40.95881">
        <ele>1935.431085</ele>
        <time>2021-11-16T11:55:14.968Z</time>
      </trkpt>
      <trkpt lat="39.58965" lon="40.95628">
        <ele>1939.047186</ele>
        <time>2021-11-16T11:56:13.623Z</time>
      </trkpt>
      <trkpt lat="39.58951" lon="40.95532">
        <ele>1940.675505</ele>
        <time>2021-11-16T11:56:37.879Z</time>
      </trkpt>
      <trkpt lat="39.58944" lon="40.95412">
        <ele>1942.744065</ele>
        <time>2021-11-16T11:57:08.538Z</time>
      </trkpt>
      <trkpt lat="39.58941" lon="40.95234">
        <ele>1945.413171</ele>
        <time>2021-11-16T11:57:50.936Z</time>
      </trkpt>
      <trkpt lat="39.58958" lon="40.95035">
        <ele>1946.378429</ele>
        <time>2021-11-16T11:58:28.038Z</time>
      </trkpt>
      <trkpt lat="39.58982" lon="40.94899">
        <ele>1945.133056</ele>
        <time>2021-11-16T11:58:49.210Z</time>
      </trkpt>
      <trkpt lat="39.59018" lon="40.94753">
        <ele>1942.828067</ele>
        <time>2021-11-16T11:59:10.085Z</time>
      </trkpt>
      <trkpt lat="39.59051" lon="40.94598">
        <ele>1939.076366</ele>
        <time>2021-11-16T11:59:30.113Z</time>
      </trkpt>
      <trkpt lat="39.59334" lon="40.9348">
        <ele>1900.011976</ele>
        <time>2021-11-16T12:01:50.007Z</time>
      </trkpt>
      <trkpt lat="39.59453" lon="40.93037">
        <ele>1894.449122</ele>
        <time>2021-11-16T12:02:57.828Z</time>
      </trkpt>
      <trkpt lat="39.59491" lon="40.92875">
        <ele>1891.101796</ele>
        <time>2021-11-16T12:03:20.260Z</time>
      </trkpt>
      <trkpt lat="39.5963" lon="40.92341">
        <ele>1875.179519</ele>
        <time>2021-11-16T12:04:29.309Z</time>
      </trkpt>
      <trkpt lat="39.59661" lon="40.92188">
        <ele>1869.164326</ele>
        <time>2021-11-16T12:04:47.507Z</time>
      </trkpt>
      <trkpt lat="39.59677" lon="40.92051">
        <ele>1864.565671</ele>
        <time>2021-11-16T12:05:03.569Z</time>
      </trkpt>
      <trkpt lat="39.59672" lon="40.91864">
        <ele>1859.49256</ele>
        <time>2021-11-16T12:05:26.956Z</time>
      </trkpt>
      <trkpt lat="39.59657" lon="40.91741">
        <ele>1857.412091</ele>
        <time>2021-11-16T12:05:44.449Z</time>
      </trkpt>
      <trkpt lat="39.5963" lon="40.916">
        <ele>1854.796672</ele>
        <time>2021-11-16T12:06:04.090Z</time>
      </trkpt>
      <trkpt lat="39.59618" lon="40.91563">
        <ele>1854.048511</ele>
        <time>2021-11-16T12:06:09.323Z</time>
      </trkpt>
      <trkpt lat="39.5959" lon="40.91471">
        <ele>1852.179362</ele>
        <time>2021-11-16T12:06:22.119Z</time>
      </trkpt>
      <trkpt lat="39.59547" lon="40.91358">
        <ele>1849.317611</ele>
        <time>2021-11-16T12:06:37.940Z</time>
      </trkpt>
      <trkpt lat="39.59471" lon="40.91214">
        <ele>1845.441434</ele>
        <time>2021-11-16T12:07:00.250Z</time>
      </trkpt>
      <trkpt lat="39.59309" lon="40.90994">
        <ele>1839.081769</ele>
        <time>2021-11-16T12:07:39.555Z</time>
      </trkpt>
      <trkpt lat="39.59268" lon="40.90955">
        <ele>1837.74861</ele>
        <time>2021-11-16T12:07:48.145Z</time>
      </trkpt>
      <trkpt lat="39.59126" lon="40.90865">
        <ele>1833.166158</ele>
        <time>2021-11-16T12:08:14.741Z</time>
      </trkpt>
      <trkpt lat="39.58979" lon="40.90763">
        <ele>1827.43582</ele>
        <time>2021-11-16T12:08:41.425Z</time>
      </trkpt>
      <trkpt lat="39.58817" lon="40.90663">
        <ele>1820.354658</ele>
        <time>2021-11-16T12:09:09.680Z</time>
      </trkpt>
      <trkpt lat="39.58432" lon="40.90446">
        <ele>1801.600687</ele>
        <time>2021-11-16T12:10:14.288Z</time>
      </trkpt>
      <trkpt lat="39.58237" lon="40.90345">
        <ele>1791.005029</ele>
        <time>2021-11-16T12:10:45.686Z</time>
      </trkpt>
      <trkpt lat="39.58139" lon="40.90301">
        <ele>1786.560596</ele>
        <time>2021-11-16T12:11:01.826Z</time>
      </trkpt>
      <trkpt lat="39.58079" lon="40.90273">
        <ele>1784.006133</ele>
        <time>2021-11-16T12:11:11.886Z</time>
      </trkpt>
      <trkpt lat="39.57999" lon="40.90254">
        <ele>1781.219446</ele>
        <time>2021-11-16T12:11:25.280Z</time>
      </trkpt>
      <trkpt lat="39.57899" lon="40.9025">
        <ele>1777.724255</ele>
        <time>2021-11-16T12:11:41.375Z</time>
      </trkpt>
      <trkpt lat="39.57818" lon="40.90256">
        <ele>1774.390871</ele>
        <time>2021-11-16T12:11:54.059Z</time>
      </trkpt>
      <trkpt lat="39.57745" lon="40.90279">
        <ele>1771.296232</ele>
        <time>2021-11-16T12:12:05.706Z</time>
      </trkpt>
      <trkpt lat="39.57641" lon="40.90325">
        <ele>1767.631217</ele>
        <time>2021-11-16T12:12:22.971Z</time>
      </trkpt>
      <trkpt lat="39.57544" lon="40.90399">
        <ele>1764.617327</ele>
        <time>2021-11-16T12:12:42.143Z</time>
      </trkpt>
      <trkpt lat="39.57471" lon="40.90483">
        <ele>1763.29976</ele>
        <time>2021-11-16T12:13:00.456Z</time>
      </trkpt>
      <trkpt lat="39.5742" lon="40.9055">
        <ele>1762.65284</ele>
        <time>2021-11-16T12:13:14.829Z</time>
      </trkpt>
      <trkpt lat="39.57326" lon="40.90698">
        <ele>1762.546498</ele>
        <time>2021-11-16T12:13:47.043Z</time>
      </trkpt>
      <trkpt lat="39.57134" lon="40.91033">
        <ele>1766.263257</ele>
        <time>2021-11-16T12:15:14.454Z</time>
      </trkpt>
      <trkpt lat="39.57081" lon="40.91143">
        <ele>1767.755189</ele>
        <time>2021-11-16T12:15:42.561Z</time>
      </trkpt>
      <trkpt lat="39.57043" lon="40.91249">
        <ele>1769.240914</ele>
        <time>2021-11-16T12:16:08.538Z</time>
      </trkpt>
      <trkpt lat="39.57012" lon="40.91408">
        <ele>1771.585471</ele>
        <time>2021-11-16T12:16:46.680Z</time>
      </trkpt>
      <trkpt lat="39.5699" lon="40.91558">
        <ele>1773.742077</ele>
        <time>2021-11-16T12:17:22.220Z</time>
      </trkpt>
      <trkpt lat="39.56928" lon="40.91732">
        <ele>1776.08203</ele>
        <time>2021-11-16T12:18:04.090Z</time>
      </trkpt>
      <trkpt lat="39.56696" lon="40.92206">
        <ele>1781.067077</ele>
        <time>2021-11-16T12:19:58.538Z</time>
      </trkpt>
      <trkpt lat="39.5657" lon="40.92438">
        <ele>1784.696876</ele>
        <time>2021-11-16T12:21:03.206Z</time>
      </trkpt>
      <trkpt lat="39.56454" lon="40.92577">
        <ele>1787.264502</ele>
        <time>2021-11-16T12:21:49.081Z</time>
      </trkpt>
      <trkpt lat="39.56333" lon="40.92689">
        <ele>1789.373778</ele>
        <time>2021-11-16T12:22:30.047Z</time>
      </trkpt>
      <trkpt lat="39.56143" lon="40.92849">
        <ele>1792.372939</ele>
        <time>2021-11-16T12:23:32.181Z</time>
      </trkpt>
      <trkpt lat="39.55764" lon="40.93194">
        <ele>1798.74951</ele>
        <time>2021-11-16T12:25:41.705Z</time>
      </trkpt>
      <trkpt lat="39.55598" lon="40.93352">
        <ele>1800.335824</ele>
        <time>2021-11-16T12:26:33.114Z</time>
      </trkpt>
      <trkpt lat="39.55492" lon="40.93472">
        <ele>1801.166393</ele>
        <time>2021-11-16T12:27:07.279Z</time>
      </trkpt>
      <trkpt lat="39.55379" lon="40.93677">
        <ele>1802.600383</ele>
        <time>2021-11-16T12:27:55.865Z</time>
      </trkpt>
      <trkpt lat="39.55284" lon="40.93827">
        <ele>1804.063018</ele>
        <time>2021-11-16T12:28:35.388Z</time>
      </trkpt>
      <trkpt lat="39.55132" lon="40.9399">
        <ele>1806.472542</ele>
        <time>2021-11-16T12:29:29.138Z</time>
      </trkpt>
      <trkpt lat="39.5502" lon="40.94082">
        <ele>1808.031235</ele>
        <time>2021-11-16T12:30:05.027Z</time>
      </trkpt>
      <trkpt lat="39.54887" lon="40.94196">
        <ele>1809.816374</ele>
        <time>2021-11-16T12:30:46.940Z</time>
      </trkpt>
      <trkpt lat="39.54802" lon="40.9428">
        <ele>1811.199547</ele>
        <time>2021-11-16T12:31:16.218Z</time>
      </trkpt>
      <trkpt lat="39.54459" lon="40.94675">
        <ele>1817.753692</ele>
        <time>2021-11-16T12:33:25.792Z</time>
      </trkpt>
      <trkpt lat="39.54362" lon="40.94762">
        <ele>1819.255073</ele>
        <time>2021-11-16T12:33:56.481Z</time>
      </trkpt>
      <trkpt lat="39.53589" lon="40.95299">
        <ele>1832.261141</ele>
        <time>2021-11-16T12:38:01.590Z</time>
      </trkpt>
      <trkpt lat="39.53165" lon="40.95646">
        <ele>1845.338816</ele>
        <time>2021-11-16T12:40:44.847Z</time>
      </trkpt>
      <trkpt lat="39.53156" lon="40.95663">
        <ele>1846.006384</ele>
        <time>2021-11-16T12:40:53.054Z</time>
      </trkpt>
      <trkpt lat="39.53052" lon="40.95746">
        <ele>1851.074254</ele>
        <time>2021-11-16T12:41:44.603Z</time>
      </trkpt>
      <trkpt lat="39.52879" lon="40.95892">
        <ele>1855.783713</ele>
        <time>2021-11-16T12:42:47.864Z</time>
      </trkpt>
      <trkpt lat="39.52782" lon="40.95988">
        <ele>1857.290819</ele>
        <time>2021-11-16T12:43:19.392Z</time>
      </trkpt>
      <trkpt lat="39.52693" lon="40.9607">
        <ele>1859.073358</ele>
        <time>2021-11-16T12:43:49.722Z</time>
      </trkpt>
      <trkpt lat="39.52662" lon="40.96112">
        <ele>1859.906794</ele>
        <time>2021-11-16T12:44:02.727Z</time>
      </trkpt>
      <trkpt lat="39.52613" lon="40.96195">
        <ele>1861.65451</ele>
        <time>2021-11-16T12:44:28.034Z</time>
      </trkpt>
      <trkpt lat="39.52584" lon="40.9626">
        <ele>1863.834994</ele>
        <time>2021-11-16T12:44:47.940Z</time>
      </trkpt>
      <trkpt lat="39.52562" lon="40.96332">
        <ele>1866.047743</ele>
        <time>2021-11-16T12:45:11.579Z</time>
      </trkpt>
      <trkpt lat="39.52558" lon="40.96389">
        <ele>1867.693121</ele>
        <time>2021-11-16T12:45:29.327Z</time>
      </trkpt>
      <trkpt lat="39.52569" lon="40.96438">
        <ele>1869.016011</ele>
        <time>2021-11-16T12:45:45.119Z</time>
      </trkpt>
      <trkpt lat="39.52583" lon="40.96485">
        <ele>1870.306338</ele>
        <time>2021-11-16T12:46:00.519Z</time>
      </trkpt>
      <trkpt lat="39.52587" lon="40.96498">
        <ele>1870.647591</ele>
        <time>2021-11-16T12:46:05.100Z</time>
      </trkpt>
      <trkpt lat="39.52595" lon="40.96542">
        <ele>1871.793221</ele>
        <time>2021-11-16T12:46:18.053Z</time>
      </trkpt>
      <trkpt lat="39.52589" lon="40.96589">
        <ele>1873.009631</ele>
        <time>2021-11-16T12:46:31.310Z</time>
      </trkpt>
      <trkpt lat="39.52569" lon="40.96651">
        <ele>1873.202457</ele>
        <time>2021-11-16T12:46:43.979Z</time>
      </trkpt>
      <trkpt lat="39.52551" lon="40.96682">
        <ele>1872.55572</ele>
        <time>2021-11-16T12:46:50.041Z</time>
      </trkpt>
      <trkpt lat="39.5251" lon="40.96731">
        <ele>1871.362564</ele>
        <time>2021-11-16T12:46:59.273Z</time>
      </trkpt>
      <trkpt lat="39.52502" lon="40.9674">
        <ele>1871.144511</ele>
        <time>2021-11-16T12:47:00.840Z</time>
      </trkpt>
      <trkpt lat="39.52473" lon="40.96735">
        <ele>1870.521391</ele>
        <time>2021-11-16T12:47:05.569Z</time>
      </trkpt>
      <trkpt lat="39.52448" lon="40.9676">
        <ele>1869.845351</ele>
        <time>2021-11-16T12:47:10.873Z</time>
      </trkpt>
      <trkpt lat="39.52432" lon="40.96768">
        <ele>1869.480088</ele>
        <time>2021-11-16T12:47:13.653Z</time>
      </trkpt>
      <trkpt lat="39.52401" lon="40.96777">
        <ele>1868.807425</ele>
        <time>2021-11-16T12:47:19.083Z</time>
      </trkpt>
      <trkpt lat="39.52379" lon="40.96771">
        <ele>1868.349824</ele>
        <time>2021-11-16T12:47:22.839Z</time>
      </trkpt>
      <trkpt lat="39.52369" lon="40.96749">
        <ele>1867.94143</ele>
        <time>2021-11-16T12:47:26.003Z</time>
      </trkpt>
      <trkpt lat="39.52357" lon="40.96826">
        <ele>1866.669962</ele>
        <time>2021-11-16T12:47:37.829Z</time>
      </trkpt>
      <trkpt lat="39.52332" lon="40.96924">
        <ele>1867.502207</ele>
        <time>2021-11-16T12:47:58.696Z</time>
      </trkpt>
      <trkpt lat="39.52324" lon="40.96984">
        <ele>1868.607492</ele>
        <time>2021-11-16T12:48:15.987Z</time>
      </trkpt>
      <trkpt lat="39.52314" lon="40.97026">
        <ele>1869.424043</ele>
        <time>2021-11-16T12:48:28.893Z</time>
      </trkpt>
      <trkpt lat="39.52257" lon="40.97134">
        <ele>1872.230969</ele>
        <time>2021-11-16T12:49:05.158Z</time>
      </trkpt>
      <trkpt lat="39.52253" lon="40.97158">
        <ele>1872.808219</ele>
        <time>2021-11-16T12:49:12.144Z</time>
      </trkpt>
      <trkpt lat="39.52166" lon="40.97263">
        <ele>1876.451018</ele>
        <time>2021-11-16T12:49:52.235Z</time>
      </trkpt>
      <trkpt lat="39.52085" lon="40.97369">
        <ele>1880.022488</ele>
        <time>2021-11-16T12:50:31.660Z</time>
      </trkpt>
      <trkpt lat="39.51972" lon="40.97501">
        <ele>1885.350211</ele>
        <time>2021-11-16T12:51:26.428Z</time>
      </trkpt>
      <trkpt lat="39.51889" lon="40.97583">
        <ele>1889.351568</ele>
        <time>2021-11-16T12:52:06.494Z</time>
      </trkpt>
      <trkpt lat="39.51763" lon="40.97668">
        <ele>1895.152808</ele>
        <time>2021-11-16T12:53:02.263Z</time>
      </trkpt>
      <trkpt lat="39.51718" lon="40.97737">
        <ele>1897.275015</ele>
        <time>2021-11-16T12:53:28.236Z</time>
      </trkpt>
      <trkpt lat="39.51665" lon="40.97778">
        <ele>1899.035339</ele>
        <time>2021-11-16T12:53:48.808Z</time>
      </trkpt>
      <trkpt lat="39.51608" lon="40.97809">
        <ele>1900.765308</ele>
        <time>2021-11-16T12:54:07.530Z</time>
      </trkpt>
      <trkpt lat="39.51505" lon="40.97852">
        <ele>1902.52241</ele>
        <time>2021-11-16T12:54:37.826Z</time>
      </trkpt>
      <trkpt lat="39.51319" lon="40.97945">
        <ele>1905.812676</ele>
        <time>2021-11-16T12:55:35.578Z</time>
      </trkpt>
      <trkpt lat="39.51266" lon="40.97984">
        <ele>1906.808887</ele>
        <time>2021-11-16T12:55:53.336Z</time>
      </trkpt>
      <trkpt lat="39.51236" lon="40.98024">
        <ele>1907.461</ele>
        <time>2021-11-16T12:56:05.444Z</time>
      </trkpt>
      <trkpt lat="39.51107" lon="40.98235">
        <ele>1911.038264</ele>
        <time>2021-11-16T12:57:04.120Z</time>
      </trkpt>
      <trkpt lat="39.51066" lon="40.98287">
        <ele>1912.215729</ele>
        <time>2021-11-16T12:57:22.265Z</time>
      </trkpt>
      <trkpt lat="39.50915" lon="40.98438">
        <ele>1917.124481</ele>
        <time>2021-11-16T12:58:25.382Z</time>
      </trkpt>
      <trkpt lat="39.50862" lon="40.98513">
        <ele>1919.275466</ele>
        <time>2021-11-16T12:58:51.303Z</time>
      </trkpt>
      <trkpt lat="39.50757" lon="40.98701">
        <ele>1924.196352</ele>
        <time>2021-11-16T12:59:50.960Z</time>
      </trkpt>
      <trkpt lat="39.50676" lon="40.98804">
        <ele>1927.248835</ele>
        <time>2021-11-16T13:00:28.837Z</time>
      </trkpt>
      <trkpt lat="39.50597" lon="40.98893">
        <ele>1929.567313</ele>
        <time>2021-11-16T13:01:01.935Z</time>
      </trkpt>
      <trkpt lat="39.50559" lon="40.98954">
        <ele>1930.848998</ele>
        <time>2021-11-16T13:01:19.954Z</time>
      </trkpt>
      <trkpt lat="39.50516" lon="40.99037">
        <ele>1932.427208</ele>
        <time>2021-11-16T13:01:42.397Z</time>
      </trkpt>
      <trkpt lat="39.50413" lon="40.99389">
        <ele>1938.732887</ele>
        <time>2021-11-16T13:03:11.066Z</time>
      </trkpt>
      <trkpt lat="39.50379" lon="40.99466">
        <ele>1941.09625</ele>
        <time>2021-11-16T13:03:35.363Z</time>
      </trkpt>
      <trkpt lat="39.50344" lon="40.9952">
        <ele>1943.32561</ele>
        <time>2021-11-16T13:03:56.212Z</time>
      </trkpt>
      <trkpt lat="39.50293" lon="40.99584">
        <ele>1946.220206</ele>
        <time>2021-11-16T13:04:25.197Z</time>
      </trkpt>
      <trkpt lat="39.50249" lon="40.99626">
        <ele>1949.055093</ele>
        <time>2021-11-16T13:04:48.533Z</time>
      </trkpt>
      <trkpt lat="39.50193" lon="40.99667">
        <ele>1952.592877</ele>
        <time>2021-11-16T13:05:17.278Z</time>
      </trkpt>
      <trkpt lat="39.49959" lon="40.99786">
        <ele>1966.382116</ele>
        <time>2021-11-16T13:07:10.842Z</time>
      </trkpt>
      <trkpt lat="39.49883" lon="40.99841">
        <ele>1969.409246</ele>
        <time>2021-11-16T13:07:43.625Z</time>
      </trkpt>
      <trkpt lat="39.49822" lon="40.99904">
        <ele>1972.125477</ele>
        <time>2021-11-16T13:08:09.541Z</time>
      </trkpt>
      <trkpt lat="39.49768" lon="40.99976">
        <ele>1974.653802</ele>
        <time>2021-11-16T13:08:34.426Z</time>
      </trkpt>
      <trkpt lat="39.49719" lon="41.00067">
        <ele>1977.378375</ele>
        <time>2021-11-16T13:09:03.816Z</time>
      </trkpt>
      <trkpt lat="39.49636" lon="41.00194">
        <ele>1983.272247</ele>
        <time>2021-11-16T13:09:55.687Z</time>
      </trkpt>
      <trkpt lat="39.49597" lon="41.00229">
        <ele>1985.695059</ele>
        <time>2021-11-16T13:10:17.114Z</time>
      </trkpt>
      <trkpt lat="39.49444" lon="41.00327">
        <ele>1995.579909</ele>
        <time>2021-11-16T13:11:35.428Z</time>
      </trkpt>
      <trkpt lat="39.49387" lon="41.00372">
        <ele>1999.754078</ele>
        <time>2021-11-16T13:12:07.126Z</time>
      </trkpt>
      <trkpt lat="39.49311" lon="41.00493">
        <ele>2007.706051</ele>
        <time>2021-11-16T13:13:04.392Z</time>
      </trkpt>
      <trkpt lat="39.49267" lon="41.00602">
        <ele>2015.214773</ele>
        <time>2021-11-16T13:13:53.427Z</time>
      </trkpt>
      <trkpt lat="39.4926" lon="41.00665">
        <ele>2019.609486</ele>
        <time>2021-11-16T13:14:21.587Z</time>
      </trkpt>
      <trkpt lat="39.49254" lon="41.00825">
        <ele>2031.237707</ele>
        <time>2021-11-16T13:15:39.719Z</time>
      </trkpt>
      <trkpt lat="39.49245" lon="41.00862">
        <ele>2034.297927</ele>
        <time>2021-11-16T13:15:59.383Z</time>
      </trkpt>
      <trkpt lat="39.49231" lon="41.00893">
        <ele>2037.191772</ele>
        <time>2021-11-16T13:16:17.990Z</time>
      </trkpt>
      <trkpt lat="39.49209" lon="41.00924">
        <ele>2040.473458</ele>
        <time>2021-11-16T13:16:38.638Z</time>
      </trkpt>
      <trkpt lat="39.49179" lon="41.00935">
        <ele>2043.739087</ele>
        <time>2021-11-16T13:16:58.924Z</time>
      </trkpt>
      <trkpt lat="39.49066" lon="41.00908">
        <ele>2052.94543</ele>
        <time>2021-11-16T13:18:04.547Z</time>
      </trkpt>
      <trkpt lat="39.49035" lon="41.00921">
        <ele>2055.504268</ele>
        <time>2021-11-16T13:18:20.627Z</time>
      </trkpt>
      <trkpt lat="39.49002" lon="41.00947">
        <ele>2058.570674</ele>
        <time>2021-11-16T13:18:38.798Z</time>
      </trkpt>
      <trkpt lat="39.48925" lon="41.01117">
        <ele>2067.735699</ele>
        <time>2021-11-16T13:19:46.124Z</time>
      </trkpt>
      <trkpt lat="39.48841" lon="41.01218">
        <ele>2077.3208</ele>
        <time>2021-11-16T13:20:45.173Z</time>
      </trkpt>
      <trkpt lat="39.48822" lon="41.01253">
        <ele>2080.326976</ele>
        <time>2021-11-16T13:21:05.159Z</time>
      </trkpt>
      <trkpt lat="39.48813" lon="41.01302">
        <ele>2083.898615</ele>
        <time>2021-11-16T13:21:30.712Z</time>
      </trkpt>
      <trkpt lat="39.48819" lon="41.01392">
        <ele>2091.478643</ele>
        <time>2021-11-16T13:22:20.641Z</time>
      </trkpt>
      <trkpt lat="39.48814" lon="41.01423">
        <ele>2094.399796</ele>
        <time>2021-11-16T13:22:39.468Z</time>
      </trkpt>
      <trkpt lat="39.4878" lon="41.01469">
        <ele>2100.12138</ele>
        <time>2021-11-16T13:23:15.018Z</time>
      </trkpt>
      <trkpt lat="39.48756" lon="41.01493">
        <ele>2103.712303</ele>
        <time>2021-11-16T13:23:36.578Z</time>
      </trkpt>
      <trkpt lat="39.48704" lon="41.01525">
        <ele>2108.965396</ele>
        <time>2021-11-16T13:24:13.046Z</time>
      </trkpt>
      <trkpt lat="39.48629" lon="41.01548">
        <ele>2113.887528</ele>
        <time>2021-11-16T13:24:52.416Z</time>
      </trkpt>
      <trkpt lat="39.48605" lon="41.01565">
        <ele>2115.584541</ele>
        <time>2021-11-16T13:25:03.381Z</time>
      </trkpt>
      <trkpt lat="39.48493" lon="41.01695">
        <ele>2121.981981</ele>
        <time>2021-11-16T13:25:54.123Z</time>
      </trkpt>
      <trkpt lat="39.48482" lon="41.01712">
        <ele>2122.558161</ele>
        <time>2021-11-16T13:25:59.911Z</time>
      </trkpt>
      <trkpt lat="39.48448" lon="41.01766">
        <ele>2124.322966</ele>
        <time>2021-11-16T13:26:18.690Z</time>
      </trkpt>
      <trkpt lat="39.48176" lon="41.02152">
        <ele>2144.5102</ele>
        <time>2021-11-16T13:29:08.004Z</time>
      </trkpt>
      <trkpt lat="39.48152" lon="41.02205">
        <ele>2147.712752</ele>
        <time>2021-11-16T13:29:29.976Z</time>
      </trkpt>
      <trkpt lat="39.48137" lon="41.02275">
        <ele>2151.524787</ele>
        <time>2021-11-16T13:29:58.427Z</time>
      </trkpt>
      <trkpt lat="39.48129" lon="41.02348">
        <ele>2156.017543</ele>
        <time>2021-11-16T13:30:29.677Z</time>
      </trkpt>
      <trkpt lat="39.48057" lon="41.02583">
        <ele>2176.530497</ele>
        <time>2021-11-16T13:32:36.026Z</time>
      </trkpt>
      <trkpt lat="39.48025" lon="41.02766">
        <ele>2193.926021</ele>
        <time>2021-11-16T13:34:20.547Z</time>
      </trkpt>
      <trkpt lat="39.48005" lon="41.02821">
        <ele>2199.295023</ele>
        <time>2021-11-16T13:34:54.942Z</time>
      </trkpt>
      <trkpt lat="39.47979" lon="41.02873">
        <ele>2204.66868</ele>
        <time>2021-11-16T13:35:28.007Z</time>
      </trkpt>
      <trkpt lat="39.47907" lon="41.02955">
        <ele>2215.360522</ele>
        <time>2021-11-16T13:36:31.152Z</time>
      </trkpt>
      <trkpt lat="39.47761" lon="41.03086">
        <ele>2231.292933</ele>
        <time>2021-11-16T13:38:13.157Z</time>
      </trkpt>
      <trkpt lat="39.47653" lon="41.03267">
        <ele>2245.42744</ele>
        <time>2021-11-16T13:39:49.042Z</time>
      </trkpt>
      <trkpt lat="39.4762" lon="41.03313">
        <ele>2248.733208</ele>
        <time>2021-11-16T13:40:14.283Z</time>
      </trkpt>
      <trkpt lat="39.47574" lon="41.03342">
        <ele>2252.229478</ele>
        <time>2021-11-16T13:40:40.040Z</time>
      </trkpt>
      <trkpt lat="39.47461" lon="41.03366">
        <ele>2259.715929</ele>
        <time>2021-11-16T13:41:33.446Z</time>
      </trkpt>
      <trkpt lat="39.47417" lon="41.03393">
        <ele>2262.686189</ele>
        <time>2021-11-16T13:41:55.365Z</time>
      </trkpt>
      <trkpt lat="39.47381" lon="41.03453">
        <ele>2266.187617</ele>
        <time>2021-11-16T13:42:21.299Z</time>
      </trkpt>
      <trkpt lat="39.47367" lon="41.03498">
        <ele>2268.49655</ele>
        <time>2021-11-16T13:42:38.420Z</time>
      </trkpt>
      <trkpt lat="39.47372" lon="41.03662">
        <ele>2278.453045</ele>
        <time>2021-11-16T13:43:46.145Z</time>
      </trkpt>
      <trkpt lat="39.47359" lon="41.03717">
        <ele>2281.983671</ele>
        <time>2021-11-16T13:44:12.221Z</time>
      </trkpt>
      <trkpt lat="39.47345" lon="41.03752">
        <ele>2284.448492</ele>
        <time>2021-11-16T13:44:30.728Z</time>
      </trkpt>
      <trkpt lat="39.47228" lon="41.04044">
        <ele>2300.931152</ele>
        <time>2021-11-16T13:46:47.955Z</time>
      </trkpt>
      <trkpt lat="39.47202" lon="41.0409">
        <ele>2302.625654</ele>
        <time>2021-11-16T13:47:00.257Z</time>
      </trkpt>
      <trkpt lat="39.47162" lon="41.04129">
        <ele>2303.161385</ele>
        <time>2021-11-16T13:47:09.265Z</time>
      </trkpt>
      <trkpt lat="39.47092" lon="41.0417">
        <ele>2297.678549</ele>
        <time>2021-11-16T13:47:20.571Z</time>
      </trkpt>
      <trkpt lat="39.4705" lon="41.04219">
        <ele>2293.632971</ele>
        <time>2021-11-16T13:47:28.356Z</time>
      </trkpt>
      <trkpt lat="39.47021" lon="41.04277">
        <ele>2289.241781</ele>
        <time>2021-11-16T13:47:35.539Z</time>
      </trkpt>
      <trkpt lat="39.47011" lon="41.04355">
        <ele>2283.044563</ele>
        <time>2021-11-16T13:47:43.706Z</time>
      </trkpt>
      <trkpt lat="39.46994" lon="41.04734">
        <ele>2254.418816</ele>
        <time>2021-11-16T13:48:23.755Z</time>
      </trkpt>
      <trkpt lat="39.46995" lon="41.04818">
        <ele>2249.171706</ele>
        <time>2021-11-16T13:48:32.703Z</time>
      </trkpt>
      <trkpt lat="39.47007" lon="41.04889">
        <ele>2244.572724</ele>
        <time>2021-11-16T13:48:40.601Z</time>
      </trkpt>
      <trkpt lat="39.47159" lon="41.05262">
        <ele>2223.251315</ele>
        <time>2021-11-16T13:49:27.406Z</time>
      </trkpt>
      <trkpt lat="39.47172" lon="41.05313">
        <ele>2221.059148</ele>
        <time>2021-11-16T13:49:34.087Z</time>
      </trkpt>
      <trkpt lat="39.47164" lon="41.05374">
        <ele>2218.519542</ele>
        <time>2021-11-16T13:49:41.855Z</time>
      </trkpt>
      <trkpt lat="39.47138" lon="41.05422">
        <ele>2216.101281</ele>
        <time>2021-11-16T13:49:49.315Z</time>
      </trkpt>
      <trkpt lat="39.47099" lon="41.05437">
        <ele>2213.903062</ele>
        <time>2021-11-16T13:49:55.791Z</time>
      </trkpt>
      <trkpt lat="39.47061" lon="41.05432">
        <ele>2211.856049</ele>
        <time>2021-11-16T13:50:01.495Z</time>
      </trkpt>
      <trkpt lat="39.47025" lon="41.05417">
        <ele>2209.855277</ele>
        <time>2021-11-16T13:50:06.876Z</time>
      </trkpt>
      <trkpt lat="39.46976" lon="41.05359">
        <ele>2202.031609</ele>
        <time>2021-11-16T13:50:15.804Z</time>
      </trkpt>
      <trkpt lat="39.46944" lon="41.05351">
        <ele>2197.80206</ele>
        <time>2021-11-16T13:50:20.197Z</time>
      </trkpt>
      <trkpt lat="39.46908" lon="41.05362">
        <ele>2193.165433</ele>
        <time>2021-11-16T13:50:24.968Z</time>
      </trkpt>
      <trkpt lat="39.46842" lon="41.054">
        <ele>2184.233444</ele>
        <time>2021-11-16T13:50:34.287Z</time>
      </trkpt>
      <trkpt lat="39.46812" lon="41.05396">
        <ele>2180.607243</ele>
        <time>2021-11-16T13:50:38.241Z</time>
      </trkpt>
      <trkpt lat="39.46779" lon="41.05385">
        <ele>2176.521137</ele>
        <time>2021-11-16T13:50:42.721Z</time>
      </trkpt>
      <trkpt lat="39.46749" lon="41.05352">
        <ele>2171.83041</ele>
        <time>2021-11-16T13:50:47.929Z</time>
      </trkpt>
      <trkpt lat="39.46581" lon="41.05058">
        <ele>2146.121622</ele>
        <time>2021-11-16T13:51:27.341Z</time>
      </trkpt>
      <trkpt lat="39.46522" lon="41.04991">
        <ele>2139.624103</ele>
        <time>2021-11-16T13:51:38.285Z</time>
      </trkpt>
      <trkpt lat="39.46469" lon="41.04964">
        <ele>2134.93696</ele>
        <time>2021-11-16T13:51:46.180Z</time>
      </trkpt>
      <trkpt lat="39.46417" lon="41.04954">
        <ele>2130.875694</ele>
        <time>2021-11-16T13:51:53.601Z</time>
      </trkpt>
      <trkpt lat="39.46359" lon="41.04961">
        <ele>2126.428078</ele>
        <time>2021-11-16T13:52:01.763Z</time>
      </trkpt>
      <trkpt lat="39.46297" lon="41.04981">
        <ele>2121.556577</ele>
        <time>2021-11-16T13:52:10.841Z</time>
      </trkpt>
      <trkpt lat="39.46251" lon="41.05022">
        <ele>2118.119103</ele>
        <time>2021-11-16T13:52:18.909Z</time>
      </trkpt>
      <trkpt lat="39.46135" lon="41.05201">
        <ele>2107.413464</ele>
        <time>2021-11-16T13:52:45.499Z</time>
      </trkpt>
      <trkpt lat="39.45802" lon="41.05597">
        <ele>2082.709014</ele>
        <time>2021-11-16T13:53:52.790Z</time>
      </trkpt>
      <trkpt lat="39.45739" lon="41.05638">
        <ele>2079.673363</ele>
        <time>2021-11-16T13:54:03.738Z</time>
      </trkpt>
      <trkpt lat="39.45422" lon="41.05871">
        <ele>2067.004857</ele>
        <time>2021-11-16T13:55:03.149Z</time>
      </trkpt>
      <trkpt lat="39.45363" lon="41.05889">
        <ele>2064.34599</ele>
        <time>2021-11-16T13:55:12.419Z</time>
      </trkpt>
      <trkpt lat="39.45232" lon="41.0589">
        <ele>2058.532393</ele>
        <time>2021-11-16T13:55:32.101Z</time>
      </trkpt>
      <trkpt lat="39.45185" lon="41.05876">
        <ele>2056.362306</ele>
        <time>2021-11-16T13:55:39.407Z</time>
      </trkpt>
      <trkpt lat="39.45165" lon="41.05859">
        <ele>2055.273251</ele>
        <time>2021-11-16T13:55:43.123Z</time>
      </trkpt>
      <trkpt lat="39.45126" lon="41.05795">
        <ele>2052.54456</ele>
        <time>2021-11-16T13:55:53.126Z</time>
      </trkpt>
      <trkpt lat="39.45104" lon="41.05771">
        <ele>2051.619431</ele>
        <time>2021-11-16T13:55:57.785Z</time>
      </trkpt>
      <trkpt lat="39.45081" lon="41.05755">
        <ele>2050.752386</ele>
        <time>2021-11-16T13:56:02.215Z</time>
      </trkpt>
      <trkpt lat="39.44982" lon="41.05734">
        <ele>2047.506351</ele>
        <time>2021-11-16T13:56:18.680Z</time>
      </trkpt>
      <trkpt lat="39.44955" lon="41.05733">
        <ele>2046.402711</ele>
        <time>2021-11-16T13:56:23.135Z</time>
      </trkpt>
      <trkpt lat="39.44899" lon="41.0574">
        <ele>2043.613272</ele>
        <time>2021-11-16T13:56:31.903Z</time>
      </trkpt>
      <trkpt lat="39.44867" lon="41.05738">
        <ele>2042.000977</ele>
        <time>2021-11-16T13:56:36.824Z</time>
      </trkpt>
      <trkpt lat="39.44773" lon="41.05714">
        <ele>2036.690919</ele>
        <time>2021-11-16T13:56:50.836Z</time>
      </trkpt>
      <trkpt lat="39.44704" lon="41.0571">
        <ele>2030.859389</ele>
        <time>2021-11-16T13:57:00.633Z</time>
      </trkpt>
      <trkpt lat="39.44519" lon="41.05619">
        <ele>2012.089539</ele>
        <time>2021-11-16T13:57:27.611Z</time>
      </trkpt>
      <trkpt lat="39.44401" lon="41.05577">
        <ele>1999.770355</ele>
        <time>2021-11-16T13:57:43.998Z</time>
      </trkpt>
      <trkpt lat="39.44294" lon="41.05526">
        <ele>1989.047185</ele>
        <time>2021-11-16T13:57:59.564Z</time>
      </trkpt>
      <trkpt lat="39.44088" lon="41.05497">
        <ele>1975.27457</ele>
        <time>2021-11-16T13:58:29.945Z</time>
      </trkpt>
      <trkpt lat="39.4406" lon="41.05501">
        <ele>1973.625892</ele>
        <time>2021-11-16T13:58:34.112Z</time>
      </trkpt>
      <trkpt lat="39.43943" lon="41.05552">
        <ele>1966.402523</ele>
        <time>2021-11-16T13:58:52.165Z</time>
      </trkpt>
      <trkpt lat="39.43875" lon="41.056">
        <ele>1962.524694</ele>
        <time>2021-11-16T13:59:03.603Z</time>
      </trkpt>
      <trkpt lat="39.43843" lon="41.05634">
        <ele>1960.560024</ele>
        <time>2021-11-16T13:59:09.969Z</time>
      </trkpt>
      <trkpt lat="39.43779" lon="41.05735">
        <ele>1955.985559</ele>
        <time>2021-11-16T13:59:25.860Z</time>
      </trkpt>
      <trkpt lat="39.43712" lon="41.05811">
        <ele>1952.544526</ele>
        <time>2021-11-16T13:59:40.141Z</time>
      </trkpt>
      <trkpt lat="39.43669" lon="41.05846">
        <ele>1950.577614</ele>
        <time>2021-11-16T13:59:48.154Z</time>
      </trkpt>
      <trkpt lat="39.43614" lon="41.05919">
        <ele>1946.954683</ele>
        <time>2021-11-16T14:00:00.228Z</time>
      </trkpt>
      <trkpt lat="39.43576" lon="41.05951">
        <ele>1944.723873</ele>
        <time>2021-11-16T14:00:07.065Z</time>
      </trkpt>
      <trkpt lat="39.43537" lon="41.05973">
        <ele>1942.680707</ele>
        <time>2021-11-16T14:00:13.275Z</time>
      </trkpt>
      <trkpt lat="39.43248" lon="41.05997">
        <ele>1930.248461</ele>
        <time>2021-11-16T14:00:57.424Z</time>
      </trkpt>
      <trkpt lat="39.432" lon="41.05997">
        <ele>1928.97989</ele>
        <time>2021-11-16T14:01:05.505Z</time>
      </trkpt>
      <trkpt lat="39.42974" lon="41.05977">
        <ele>1928.204929</ele>
        <time>2021-11-16T14:01:55.981Z</time>
      </trkpt>
      <trkpt lat="39.42934" lon="41.05971">
        <ele>1929.317699</ele>
        <time>2021-11-16T14:02:09.228Z</time>
      </trkpt>
      <trkpt lat="39.42892" lon="41.05957">
        <ele>1930.867634</ele>
        <time>2021-11-16T14:02:24.783Z</time>
      </trkpt>
      <trkpt lat="39.42784" lon="41.05894">
        <ele>1935.184002</ele>
        <time>2021-11-16T14:03:12.208Z</time>
      </trkpt>
      <trkpt lat="39.42754" lon="41.05866">
        <ele>1936.656638</ele>
        <time>2021-11-16T14:03:27.163Z</time>
      </trkpt>
      <trkpt lat="39.42714" lon="41.05821">
        <ele>1938.830196</ele>
        <time>2021-11-16T14:03:48.278Z</time>
      </trkpt>
      <trkpt lat="39.4259" lon="41.05655">
        <ele>1944.905876</ele>
        <time>2021-11-16T14:04:52.826Z</time>
      </trkpt>
      <trkpt lat="39.42544" lon="41.05611">
        <ele>1946.616406</ele>
        <time>2021-11-16T14:05:12.105Z</time>
      </trkpt>
      <trkpt lat="39.42449" lon="41.05552">
        <ele>1947.225257</ele>
        <time>2021-11-16T14:05:41.955Z</time>
      </trkpt>
      <trkpt lat="39.424" lon="41.05533">
        <ele>1947.193242</ele>
        <time>2021-11-16T14:05:52.405Z</time>
      </trkpt>
      <trkpt lat="39.42347" lon="41.05525">
        <ele>1946.846988</ele>
        <time>2021-11-16T14:06:01.936Z</time>
      </trkpt>
      <trkpt lat="39.42307" lon="41.0552">
        <ele>1945.145176</ele>
        <time>2021-11-16T14:06:08.591Z</time>
      </trkpt>
      <trkpt lat="39.42049" lon="41.05487">
        <ele>1933.031897</ele>
        <time>2021-11-16T14:06:47.734Z</time>
      </trkpt>
      <trkpt lat="39.41711" lon="41.05448">
        <ele>1915.004288</ele>
        <time>2021-11-16T14:07:38.212Z</time>
      </trkpt>
      <trkpt lat="39.41482" lon="41.05435">
        <ele>1903.670107</ele>
        <time>2021-11-16T14:08:12.919Z</time>
      </trkpt>
      <trkpt lat="39.41124" lon="41.05433">
        <ele>1888.86801</ele>
        <time>2021-11-16T14:09:08.834Z</time>
      </trkpt>
      <trkpt lat="39.4103" lon="41.05426">
        <ele>1885.437927</ele>
        <time>2021-11-16T14:09:23.962Z</time>
      </trkpt>
      <trkpt lat="39.40931" lon="41.05402">
        <ele>1881.94752</ele>
        <time>2021-11-16T14:09:40.267Z</time>
      </trkpt>
      <trkpt lat="39.40858" lon="41.05372">
        <ele>1878.972703</ele>
        <time>2021-11-16T14:09:52.510Z</time>
      </trkpt>
      <trkpt lat="39.40799" lon="41.05336">
        <ele>1876.391434</ele>
        <time>2021-11-16T14:10:02.832Z</time>
      </trkpt>
      <trkpt lat="39.40758" lon="41.05312">
        <ele>1874.612178</ele>
        <time>2021-11-16T14:10:09.807Z</time>
      </trkpt>
      <trkpt lat="39.40704" lon="41.05259">
        <ele>1871.486654</ele>
        <time>2021-11-16T14:10:20.069Z</time>
      </trkpt>
      <trkpt lat="39.40649" lon="41.05182">
        <ele>1867.709138</ele>
        <time>2021-11-16T14:10:32.231Z</time>
      </trkpt>
      <trkpt lat="39.40561" lon="41.05031">
        <ele>1862.524543</ele>
        <time>2021-11-16T14:10:55.161Z</time>
      </trkpt>
      <trkpt lat="39.40409" lon="41.04733">
        <ele>1856.961074</ele>
        <time>2021-11-16T14:11:44.697Z</time>
      </trkpt>
      <trkpt lat="39.4011" lon="41.04023">
        <ele>1850.458178</ele>
        <time>2021-11-16T14:13:45.115Z</time>
      </trkpt>
      <trkpt lat="39.40064" lon="41.03924">
        <ele>1849.738553</ele>
        <time>2021-11-16T14:14:02.757Z</time>
      </trkpt>
      <trkpt lat="39.39935" lon="41.03706">
        <ele>1848.459478</ele>
        <time>2021-11-16T14:14:46.000Z</time>
      </trkpt>
      <trkpt lat="39.39783" lon="41.03464">
        <ele>1846.736908</ele>
        <time>2021-11-16T14:15:34.563Z</time>
      </trkpt>
      <trkpt lat="39.39736" lon="41.03381">
        <ele>1846.044551</ele>
        <time>2021-11-16T14:15:49.869Z</time>
      </trkpt>
      <trkpt lat="39.39656" lon="41.03153">
        <ele>1843.856779</ele>
        <time>2021-11-16T14:16:26.538Z</time>
      </trkpt>
      <trkpt lat="39.39581" lon="41.02988">
        <ele>1842.304121</ele>
        <time>2021-11-16T14:16:54.991Z</time>
      </trkpt>
      <trkpt lat="39.39543" lon="41.02884">
        <ele>1841.494798</ele>
        <time>2021-11-16T14:17:12.269Z</time>
      </trkpt>
      <trkpt lat="39.39519" lon="41.02756">
        <ele>1840.613721</ele>
        <time>2021-11-16T14:17:32.072Z</time>
      </trkpt>
      <trkpt lat="39.39474" lon="41.02348">
        <ele>1839.212449</ele>
        <time>2021-11-16T14:18:37.961Z</time>
      </trkpt>
      <trkpt lat="39.39451" lon="41.02258">
        <ele>1839.080726</ele>
        <time>2021-11-16T14:18:53.868Z</time>
      </trkpt>
      <trkpt lat="39.39417" lon="41.0215">
        <ele>1839.058036</ele>
        <time>2021-11-16T14:19:13.801Z</time>
      </trkpt>
      <trkpt lat="39.39395" lon="41.02104">
        <ele>1839.047365</ele>
        <time>2021-11-16T14:19:23.308Z</time>
      </trkpt>
      <trkpt lat="39.39323" lon="41.01985">
        <ele>1839.318779</ele>
        <time>2021-11-16T14:19:49.856Z</time>
      </trkpt>
      <trkpt lat="39.39253" lon="41.01884">
        <ele>1839.714838</ele>
        <time>2021-11-16T14:20:14.935Z</time>
      </trkpt>
      <trkpt lat="39.39208" lon="41.01806">
        <ele>1840.196031</ele>
        <time>2021-11-16T14:20:33.543Z</time>
      </trkpt>
      <trkpt lat="39.39166" lon="41.01709">
        <ele>1840.798839</ele>
        <time>2021-11-16T14:20:55.332Z</time>
      </trkpt>
      <trkpt lat="39.39" lon="41.01197">
        <ele>1845.368867</ele>
        <time>2021-11-16T14:22:48.802Z</time>
      </trkpt>
      <trkpt lat="39.389" lon="41.00978">
        <ele>1847.675184</ele>
        <time>2021-11-16T14:23:43.638Z</time>
      </trkpt>
      <trkpt lat="39.38807" lon="41.00813">
        <ele>1848.08185</ele>
        <time>2021-11-16T14:24:23.147Z</time>
      </trkpt>
      <trkpt lat="39.38794" lon="41.00786">
        <ele>1847.93763</ele>
        <time>2021-11-16T14:24:28.309Z</time>
      </trkpt>
      <trkpt lat="39.38752" lon="41.00697">
        <ele>1847.34396</ele>
        <time>2021-11-16T14:24:43.027Z</time>
      </trkpt>
      <trkpt lat="39.38725" lon="41.00633">
        <ele>1845.374139</ele>
        <time>2021-11-16T14:24:52.301Z</time>
      </trkpt>
      <trkpt lat="39.38714" lon="41.00571">
        <ele>1843.660263</ele>
        <time>2021-11-16T14:24:59.985Z</time>
      </trkpt>
      <trkpt lat="39.3871" lon="41.00497">
        <ele>1841.670356</ele>
        <time>2021-11-16T14:25:08.946Z</time>
      </trkpt>
      <trkpt lat="39.38714" lon="41.00427">
        <ele>1839.781631</ele>
        <time>2021-11-16T14:25:17.455Z</time>
      </trkpt>
      <trkpt lat="39.38713" lon="41.00342">
        <ele>1837.490033</ele>
        <time>2021-11-16T14:25:27.846Z</time>
      </trkpt>
      <trkpt lat="39.38702" lon="41.00275">
        <ele>1835.652656</ele>
        <time>2021-11-16T14:25:36.412Z</time>
      </trkpt>
      <trkpt lat="39.38681" lon="41.00212">
        <ele>1834.288936</ele>
        <time>2021-11-16T14:25:45.450Z</time>
      </trkpt>
      <trkpt lat="39.38639" lon="41.00128">
        <ele>1832.720485</ele>
        <time>2021-11-16T14:25:58.987Z</time>
      </trkpt>
      <trkpt lat="39.38526" lon="40.99971">
        <ele>1830.23282</ele>
        <time>2021-11-16T14:26:29.291Z</time>
      </trkpt>
      <trkpt lat="39.38491" lon="40.99909">
        <ele>1829.566567</ele>
        <time>2021-11-16T14:26:40.929Z</time>
      </trkpt>
      <trkpt lat="39.38453" lon="40.99733">
        <ele>1829.099036</ele>
        <time>2021-11-16T14:27:10.814Z</time>
      </trkpt>
      <trkpt lat="39.3844" lon="40.99627">
        <ele>1829.041224</ele>
        <time>2021-11-16T14:27:29.934Z</time>
      </trkpt>
      <trkpt lat="39.38441" lon="40.99551">
        <ele>1829.183015</ele>
        <time>2021-11-16T14:27:43.394Z</time>
      </trkpt>
      <trkpt lat="39.38449" lon="40.99461">
        <ele>1829.351377</ele>
        <time>2021-11-16T14:27:59.612Z</time>
      </trkpt>
      <trkpt lat="39.38464" lon="40.9936">
        <ele>1829.62398</ele>
        <time>2021-11-16T14:28:18.533Z</time>
      </trkpt>
      <trkpt lat="39.38531" lon="40.99064">
        <ele>1830.257218</ele>
        <time>2021-11-16T14:29:15.457Z</time>
      </trkpt>
      <trkpt lat="39.38539" lon="40.9901">
        <ele>1830.300863</ele>
        <time>2021-11-16T14:29:24.729Z</time>
      </trkpt>
      <trkpt lat="39.38535" lon="40.98948">
        <ele>1830.188279</ele>
        <time>2021-11-16T14:29:34.862Z</time>
      </trkpt>
      <trkpt lat="39.38517" lon="40.98862">
        <ele>1829.673743</ele>
        <time>2021-11-16T14:29:48.657Z</time>
      </trkpt>
      <trkpt lat="39.38471" lon="40.98787">
        <ele>1829.120689</ele>
        <time>2021-11-16T14:30:02.984Z</time>
      </trkpt>
      <trkpt lat="39.38427" lon="40.98743">
        <ele>1828.590862</ele>
        <time>2021-11-16T14:30:13.567Z</time>
      </trkpt>
      <trkpt lat="39.37988" lon="40.9861">
        <ele>1823.862338</ele>
        <time>2021-11-16T14:31:40.123Z</time>
      </trkpt>
      <trkpt lat="39.37895" lon="40.98569">
        <ele>1822.866535</ele>
        <time>2021-11-16T14:31:59.286Z</time>
      </trkpt>
      <trkpt lat="39.37809" lon="40.98516">
        <ele>1821.912226</ele>
        <time>2021-11-16T14:32:17.828Z</time>
      </trkpt>
      <trkpt lat="39.37709" lon="40.98383">
        <ele>1820.131968</ele>
        <time>2021-11-16T14:32:44.594Z</time>
      </trkpt>
      <trkpt lat="39.37676" lon="40.98367">
        <ele>1819.667301</ele>
        <time>2021-11-16T14:32:51.081Z</time>
      </trkpt>
      <trkpt lat="39.37662" lon="40.98361">
        <ele>1819.470521</ele>
        <time>2021-11-16T14:32:53.708Z</time>
      </trkpt>
      <trkpt lat="39.37614" lon="40.98368">
        <ele>1819.253371</ele>
        <time>2021-11-16T14:33:02.802Z</time>
      </trkpt>
      <trkpt lat="39.3757" lon="40.98395">
        <ele>1819.456292</ele>
        <time>2021-11-16T14:33:12.280Z</time>
      </trkpt>
      <trkpt lat="39.37522" lon="40.98448">
        <ele>1819.717554</ele>
        <time>2021-11-16T14:33:26.365Z</time>
      </trkpt>
      <trkpt lat="39.37463" lon="40.98538">
        <ele>1822.163869</ele>
        <time>2021-11-16T14:33:57.617Z</time>
      </trkpt>
      <trkpt lat="39.37441" lon="40.98575">
        <ele>1823.866465</ele>
        <time>2021-11-16T14:34:12.167Z</time>
      </trkpt>
      <trkpt lat="39.37422" lon="40.98607">
        <ele>1825.370128</ele>
        <time>2021-11-16T14:34:25.820Z</time>
      </trkpt>
      <trkpt lat="39.37409" lon="40.98629">
        <ele>1826.391099</ele>
        <time>2021-11-16T14:34:36.046Z</time>
      </trkpt>
      <trkpt lat="39.37357" lon="40.98671">
        <ele>1829.327103</ele>
        <time>2021-11-16T14:35:05.110Z</time>
      </trkpt>
      <trkpt lat="39.37282" lon="40.98735">
        <ele>1833.647267</ele>
        <time>2021-11-16T14:35:46.803Z</time>
      </trkpt>
      <trkpt lat="39.37257" lon="40.98759">
        <ele>1835.163306</ele>
        <time>2021-11-16T14:35:59.112Z</time>
      </trkpt>
      <trkpt lat="39.37204" lon="40.98798">
        <ele>1837.315931</ele>
        <time>2021-11-16T14:36:20.020Z</time>
      </trkpt>
      <trkpt lat="39.36891" lon="40.989">
        <ele>1838.850295</ele>
        <time>2021-11-16T14:37:36.910Z</time>
      </trkpt>
      <trkpt lat="39.36734" lon="40.99025">
        <ele>1836.2691</ele>
        <time>2021-11-16T14:38:09.913Z</time>
      </trkpt>
      <trkpt lat="39.36605" lon="40.99197">
        <ele>1834.520313</ele>
        <time>2021-11-16T14:38:45.147Z</time>
      </trkpt>
      <trkpt lat="39.3622" lon="40.99834">
        <ele>1840.617681</ele>
        <time>2021-11-16T14:41:26.948Z</time>
      </trkpt>
      <trkpt lat="39.36161" lon="40.99948">
        <ele>1842.859128</ele>
        <time>2021-11-16T14:42:02.386Z</time>
      </trkpt>
      <trkpt lat="39.36112" lon="41.00086">
        <ele>1846.428496</ele>
        <time>2021-11-16T14:42:45.400Z</time>
      </trkpt>
      <trkpt lat="39.3609" lon="41.00238">
        <ele>1848.9776</ele>
        <time>2021-11-16T14:43:23.159Z</time>
      </trkpt>
      <trkpt lat="39.36051" lon="41.00481">
        <ele>1850.960384</ele>
        <time>2021-11-16T14:44:11.213Z</time>
      </trkpt>
      <trkpt lat="39.36026" lon="41.00572">
        <ele>1851.424652</ele>
        <time>2021-11-16T14:44:29.424Z</time>
      </trkpt>
      <trkpt lat="39.35999" lon="41.0065">
        <ele>1851.815127</ele>
        <time>2021-11-16T14:44:45.486Z</time>
      </trkpt>
      <trkpt lat="39.35965" lon="41.00729">
        <ele>1852.211542</ele>
        <time>2021-11-16T14:45:02.199Z</time>
      </trkpt>
      <trkpt lat="39.35928" lon="41.00788">
        <ele>1852.547532</ele>
        <time>2021-11-16T14:45:16.046Z</time>
      </trkpt>
      <trkpt lat="39.35867" lon="41.00867">
        <ele>1854.471818</ele>
        <time>2021-11-16T14:45:39.548Z</time>
      </trkpt>
      <trkpt lat="39.35733" lon="41.01023">
        <ele>1859.924781</ele>
        <time>2021-11-16T14:46:45.744Z</time>
      </trkpt>
      <trkpt lat="39.35694" lon="41.01085">
        <ele>1862.221134</ele>
        <time>2021-11-16T14:47:10.207Z</time>
      </trkpt>
      <trkpt lat="39.35654" lon="41.01169">
        <ele>1864.516077</ele>
        <time>2021-11-16T14:47:37.535Z</time>
      </trkpt>
      <trkpt lat="39.35603" lon="41.01347">
        <ele>1867.217335</ele>
        <time>2021-11-16T14:48:19.450Z</time>
      </trkpt>
      <trkpt lat="39.35592" lon="41.01413">
        <ele>1867.919949</ele>
        <time>2021-11-16T14:48:32.116Z</time>
      </trkpt>
      <trkpt lat="39.35585" lon="41.01534">
        <ele>1869.13553</ele>
        <time>2021-11-16T14:48:56.583Z</time>
      </trkpt>
      <trkpt lat="39.35584" lon="41.01793">
        <ele>1873.83987</ele>
        <time>2021-11-16T14:50:00.053Z</time>
      </trkpt>
      <trkpt lat="39.35566" lon="41.01992">
        <ele>1879.540667</ele>
        <time>2021-11-16T14:50:58.728Z</time>
      </trkpt>
      <trkpt lat="39.35549" lon="41.02075">
        <ele>1881.993302</ele>
        <time>2021-11-16T14:51:24.820Z</time>
      </trkpt>
      <trkpt lat="39.35512" lon="41.02204">
        <ele>1885.672575</ele>
        <time>2021-11-16T14:52:04.426Z</time>
      </trkpt>
      <trkpt lat="39.35455" lon="41.02328">
        <ele>1888.331373</ele>
        <time>2021-11-16T14:52:40.504Z</time>
      </trkpt>
      <trkpt lat="39.3538" lon="41.02474">
        <ele>1890.121955</ele>
        <time>2021-11-16T14:53:15.929Z</time>
      </trkpt>
      <trkpt lat="39.3504" lon="41.03088">
        <ele>1891.383403</ele>
        <time>2021-11-16T14:55:26.590Z</time>
      </trkpt>
      <trkpt lat="39.34991" lon="41.03194">
        <ele>1892.587113</ele>
        <time>2021-11-16T14:55:54.414Z</time>
      </trkpt>
      <trkpt lat="39.34926" lon="41.03306">
        <ele>1895.102567</ele>
        <time>2021-11-16T14:56:29.350Z</time>
      </trkpt>
      <trkpt lat="39.34711" lon="41.03712">
        <ele>1905.156081</ele>
        <time>2021-11-16T14:58:34.522Z</time>
      </trkpt>
      <trkpt lat="39.34652" lon="41.03797">
        <ele>1907.547763</ele>
        <time>2021-11-16T14:59:04.059Z</time>
      </trkpt>
      <trkpt lat="39.34597" lon="41.03861">
        <ele>1909.510687</ele>
        <time>2021-11-16T14:59:28.877Z</time>
      </trkpt>
      <trkpt lat="39.34534" lon="41.03924">
        <ele>1911.612785</ele>
        <time>2021-11-16T14:59:55.014Z</time>
      </trkpt>
      <trkpt lat="39.34383" lon="41.04029">
        <ele>1915.669491</ele>
        <time>2021-11-16T15:00:49.057Z</time>
      </trkpt>
      <trkpt lat="39.34272" lon="41.04087">
        <ele>1918.528208</ele>
        <time>2021-11-16T15:01:26.588Z</time>
      </trkpt>
      <trkpt lat="39.34211" lon="41.04131">
        <ele>1920.201975</ele>
        <time>2021-11-16T15:01:49.017Z</time>
      </trkpt>
      <trkpt lat="39.3416" lon="41.04185">
        <ele>1922.03727</ele>
        <time>2021-11-16T15:02:10.511Z</time>
      </trkpt>
      <trkpt lat="39.34084" lon="41.04297">
        <ele>1925.370856</ele>
        <time>2021-11-16T15:02:49.883Z</time>
      </trkpt>
      <trkpt lat="39.3405" lon="41.0437">
        <ele>1927.399274</ele>
        <time>2021-11-16T15:03:12.842Z</time>
      </trkpt>
      <trkpt lat="39.34015" lon="41.0447">
        <ele>1930.018686</ele>
        <time>2021-11-16T15:03:42.415Z</time>
      </trkpt>
      <trkpt lat="39.33875" lon="41.04941">
        <ele>1941.135527</ele>
        <time>2021-11-16T15:05:55.331Z</time>
      </trkpt>
      <trkpt lat="39.33842" lon="41.05033">
        <ele>1941.70569</ele>
        <time>2021-11-16T15:06:16.500Z</time>
      </trkpt>
      <trkpt lat="39.3383" lon="41.05065">
        <ele>1941.846003</ele>
        <time>2021-11-16T15:06:23.128Z</time>
      </trkpt>
      <trkpt lat="39.338" lon="41.05124">
        <ele>1942.121067</ele>
        <time>2021-11-16T15:06:35.385Z</time>
      </trkpt>
      <trkpt lat="39.33737" lon="41.05196">
        <ele>1940.773403</ele>
        <time>2021-11-16T15:06:51.767Z</time>
      </trkpt>
      <trkpt lat="39.33667" lon="41.05254">
        <ele>1938.591716</ele>
        <time>2021-11-16T15:07:05.823Z</time>
      </trkpt>
      <trkpt lat="39.33611" lon="41.05284">
        <ele>1936.145835</ele>
        <time>2021-11-16T15:07:15.183Z</time>
      </trkpt>
      <trkpt lat="39.33507" lon="41.05298">
        <ele>1928.972451</ele>
        <time>2021-11-16T15:07:30.247Z</time>
      </trkpt>
      <trkpt lat="39.33459" lon="41.0529">
        <ele>1925.652128</ele>
        <time>2021-11-16T15:07:36.950Z</time>
      </trkpt>
      <trkpt lat="39.33314" lon="41.05229">
        <ele>1913.254005</ele>
        <time>2021-11-16T15:07:58.090Z</time>
      </trkpt>
      <trkpt lat="39.33237" lon="41.05215">
        <ele>1908.035287</ele>
        <time>2021-11-16T15:08:09.280Z</time>
      </trkpt>
      <trkpt lat="39.33096" lon="41.05216">
        <ele>1900.359998</ele>
        <time>2021-11-16T15:08:30.546Z</time>
      </trkpt>
      <trkpt lat="39.32979" lon="41.05256">
        <ele>1895.318402</ele>
        <time>2021-11-16T15:08:49.604Z</time>
      </trkpt>
      <trkpt lat="39.32753" lon="41.05405">
        <ele>1884.188659</ele>
        <time>2021-11-16T15:09:28.987Z</time>
      </trkpt>
      <trkpt lat="39.32679" lon="41.05443">
        <ele>1880.042274</ele>
        <time>2021-11-16T15:09:40.953Z</time>
      </trkpt>
      <trkpt lat="39.32574" lon="41.05486">
        <ele>1874.362377</ele>
        <time>2021-11-16T15:09:57.308Z</time>
      </trkpt>
      <trkpt lat="39.32496" lon="41.05506">
        <ele>1870.346117</ele>
        <time>2021-11-16T15:10:09.160Z</time>
      </trkpt>
      <trkpt lat="39.32383" lon="41.05525">
        <ele>1864.953697</ele>
        <time>2021-11-16T15:10:26.584Z</time>
      </trkpt>
      <trkpt lat="39.32176" lon="41.05538">
        <ele>1856.568173</ele>
        <time>2021-11-16T15:10:59.208Z</time>
      </trkpt>
      <trkpt lat="39.32094" lon="41.05562">
        <ele>1853.423904</ele>
        <time>2021-11-16T15:11:12.491Z</time>
      </trkpt>
      <trkpt lat="39.3195" lon="41.0559">
        <ele>1848.075927</ele>
        <time>2021-11-16T15:11:35.708Z</time>
      </trkpt>
      <trkpt lat="39.31869" lon="41.05596">
        <ele>1845.122742</ele>
        <time>2021-11-16T15:11:48.613Z</time>
      </trkpt>
      <trkpt lat="39.31787" lon="41.05592">
        <ele>1842.141974</ele>
        <time>2021-11-16T15:12:01.665Z</time>
      </trkpt>
      <trkpt lat="39.31642" lon="41.05555">
        <ele>1837.195238</ele>
        <time>2021-11-16T15:12:25.330Z</time>
      </trkpt>
      <trkpt lat="39.31571" lon="41.05519">
        <ele>1834.862472</ele>
        <time>2021-11-16T15:12:37.987Z</time>
      </trkpt>
      <trkpt lat="39.31494" lon="41.05471">
        <ele>1833.127266</ele>
        <time>2021-11-16T15:12:52.730Z</time>
      </trkpt>
      <trkpt lat="39.31397" lon="41.0538">
        <ele>1831.378557</ele>
        <time>2021-11-16T15:13:15.296Z</time>
      </trkpt>
      <trkpt lat="39.31187" lon="41.0515">
        <ele>1828.907112</ele>
        <time>2021-11-16T15:14:11.603Z</time>
      </trkpt>
      <trkpt lat="39.31059" lon="41.04998">
        <ele>1824.882833</ele>
        <time>2021-11-16T15:14:41.520Z</time>
      </trkpt>
      <trkpt lat="39.31043" lon="41.04979">
        <ele>1824.146768</ele>
        <time>2021-11-16T15:14:45.081Z</time>
      </trkpt>
      <trkpt lat="39.30941" lon="41.04838">
        <ele>1818.446163</ele>
        <time>2021-11-16T15:15:08.197Z</time>
      </trkpt>
      <trkpt lat="39.30856" lon="41.04691">
        <ele>1812.418393</ele>
        <time>2021-11-16T15:15:30.027Z</time>
      </trkpt>
      <trkpt lat="39.30803" lon="41.04584">
        <ele>1808.551425</ele>
        <time>2021-11-16T15:15:45.448Z</time>
      </trkpt>
      <trkpt lat="39.30763" lon="41.04473">
        <ele>1805.125591</ele>
        <time>2021-11-16T15:16:00.717Z</time>
      </trkpt>
      <trkpt lat="39.30729" lon="41.04375">
        <ele>1802.368554</ele>
        <time>2021-11-16T15:16:14.267Z</time>
      </trkpt>
      <trkpt lat="39.30669" lon="41.04173">
        <ele>1797.21608</ele>
        <time>2021-11-16T15:16:41.646Z</time>
      </trkpt>
      <trkpt lat="39.30618" lon="41.03994">
        <ele>1793.544373</ele>
        <time>2021-11-16T15:17:06.454Z</time>
      </trkpt>
      <trkpt lat="39.30533" lon="41.03696">
        <ele>1789.625289</ele>
        <time>2021-11-16T15:17:50.755Z</time>
      </trkpt>
      <trkpt lat="39.30084" lon="41.02132">
        <ele>1793.14465</ele>
        <time>2021-11-16T15:22:52.749Z</time>
      </trkpt>
      <trkpt lat="39.30054" lon="41.02027">
        <ele>1795.133726</ele>
        <time>2021-11-16T15:23:18.791Z</time>
      </trkpt>
      <trkpt lat="39.30016" lon="41.01893">
        <ele>1797.892923</ele>
        <time>2021-11-16T15:23:56.869Z</time>
      </trkpt>
      <trkpt lat="39.2997" lon="41.01729">
        <ele>1802.349382</ele>
        <time>2021-11-16T15:24:45.173Z</time>
      </trkpt>
      <trkpt lat="39.29956" lon="41.01666">
        <ele>1803.974766</ele>
        <time>2021-11-16T15:25:03.268Z</time>
      </trkpt>
      <trkpt lat="39.29935" lon="41.0162">
        <ele>1805.231793</ele>
        <time>2021-11-16T15:25:17.671Z</time>
      </trkpt>
      <trkpt lat="39.29892" lon="41.01561">
        <ele>1807.171309</ele>
        <time>2021-11-16T15:25:39.689Z</time>
      </trkpt>
      <trkpt lat="39.29814" lon="41.0146">
        <ele>1810.025115</ele>
        <time>2021-11-16T15:26:15.939Z</time>
      </trkpt>
      <trkpt lat="39.29803" lon="41.01445">
        <ele>1810.400921</ele>
        <time>2021-11-16T15:26:21.329Z</time>
      </trkpt>
      <trkpt lat="39.2977" lon="41.01404">
        <ele>1811.434197</ele>
        <time>2021-11-16T15:26:35.703Z</time>
      </trkpt>
      <trkpt lat="39.29691" lon="41.01305">
        <ele>1813.791142</ele>
        <time>2021-11-16T15:27:07.512Z</time>
      </trkpt>
      <trkpt lat="39.2965" lon="41.01255">
        <ele>1814.939371</ele>
        <time>2021-11-16T15:27:23.604Z</time>
      </trkpt>
      <trkpt lat="39.29606" lon="41.01199">
        <ele>1816.201877</ele>
        <time>2021-11-16T15:27:43.011Z</time>
      </trkpt>
      <trkpt lat="39.29583" lon="41.01171">
        <ele>1817.263496</ele>
        <time>2021-11-16T15:27:53.621Z</time>
      </trkpt>
      <trkpt lat="39.29575" lon="41.01161">
        <ele>1817.666243</ele>
        <time>2021-11-16T15:27:57.399Z</time>
      </trkpt>
      <trkpt lat="39.29499" lon="41.01071">
        <ele>1821.520203</ele>
        <time>2021-11-16T15:28:37.255Z</time>
      </trkpt>
      <trkpt lat="39.29476" lon="41.01032">
        <ele>1822.926809</ele>
        <time>2021-11-16T15:28:52.011Z</time>
      </trkpt>
      <trkpt lat="39.29457" lon="41.01009">
        <ele>1823.750405</ele>
        <time>2021-11-16T15:29:01.938Z</time>
      </trkpt>
      <trkpt lat="39.29453" lon="41.01004">
        <ele>1823.927383</ele>
        <time>2021-11-16T15:29:04.452Z</time>
      </trkpt>
      <trkpt lat="39.29389" lon="41.00971">
        <ele>1826.075517</ele>
        <time>2021-11-16T15:29:29.547Z</time>
      </trkpt>
      <trkpt lat="39.2936" lon="41.00951">
        <ele>1827.112503</ele>
        <time>2021-11-16T15:29:40.824Z</time>
      </trkpt>
      <trkpt lat="39.29314" lon="41.00908">
        <ele>1828.742384</ele>
        <time>2021-11-16T15:29:58.989Z</time>
      </trkpt>
      <trkpt lat="39.29139" lon="41.00696">
        <ele>1831.920755</ele>
        <time>2021-11-16T15:31:03.175Z</time>
      </trkpt>
      <trkpt lat="39.29001" lon="41.00534">
        <ele>1834.512406</ele>
        <time>2021-11-16T15:31:54.934Z</time>
      </trkpt>
      <trkpt lat="39.28959" lon="41.00485">
        <ele>1835.391133</ele>
        <time>2021-11-16T15:32:11.892Z</time>
      </trkpt>
      <trkpt lat="39.28934" lon="41.00458">
        <ele>1835.894123</ele>
        <time>2021-11-16T15:32:21.527Z</time>
      </trkpt>
      <trkpt lat="39.28761" lon="41.00263">
        <ele>1838.036177</ele>
        <time>2021-11-16T15:33:22.376Z</time>
      </trkpt>
      <trkpt lat="39.28632" lon="41.00125">
        <ele>1837.811641</ele>
        <time>2021-11-16T15:33:57.974Z</time>
      </trkpt>
      <trkpt lat="39.28555" lon="41.00039">
        <ele>1836.685801</ele>
        <time>2021-11-16T15:34:17.638Z</time>
      </trkpt>
      <trkpt lat="39.28489" lon="40.99981">
        <ele>1835.419338</ele>
        <time>2021-11-16T15:34:32.115Z</time>
      </trkpt>
      <trkpt lat="39.28418" lon="40.99929">
        <ele>1833.193737</ele>
        <time>2021-11-16T15:34:45.964Z</time>
      </trkpt>
      <trkpt lat="39.28017" lon="40.99711">
        <ele>1818.650103</ele>
        <time>2021-11-16T15:35:55.796Z</time>
      </trkpt>
      <trkpt lat="39.2708" lon="40.99212">
        <ele>1794.000366</ele>
        <time>2021-11-16T15:38:48.394Z</time>
      </trkpt>
      <trkpt lat="39.26739" lon="40.99031">
        <ele>1787.797493</ele>
        <time>2021-11-16T15:39:54.768Z</time>
      </trkpt>
      <trkpt lat="39.26685" lon="40.99003">
        <ele>1787.044363</ele>
        <time>2021-11-16T15:40:06.375Z</time>
      </trkpt>
      <trkpt lat="39.266" lon="40.9897">
        <ele>1787.053626</ele>
        <time>2021-11-16T15:40:25.254Z</time>
      </trkpt>
      <trkpt lat="39.26263" lon="40.98875">
        <ele>1788.033452</ele>
        <time>2021-11-16T15:41:47.659Z</time>
      </trkpt>
      <trkpt lat="39.26115" lon="40.98834">
        <ele>1788.42048</ele>
        <time>2021-11-16T15:42:22.909Z</time>
      </trkpt>
      <trkpt lat="39.25962" lon="40.98787">
        <ele>1788.57952</ele>
        <time>2021-11-16T15:42:58.212Z</time>
      </trkpt>
      <trkpt lat="39.25919" lon="40.98771">
        <ele>1788.584527</ele>
        <time>2021-11-16T15:43:08.125Z</time>
      </trkpt>
      <trkpt lat="39.25848" lon="40.98731">
        <ele>1788.593277</ele>
        <time>2021-11-16T15:43:25.597Z</time>
      </trkpt>
      <trkpt lat="39.25792" lon="40.98694">
        <ele>1788.492926</ele>
        <time>2021-11-16T15:43:39.741Z</time>
      </trkpt>
      <trkpt lat="39.25754" lon="40.98668">
        <ele>1788.345614</ele>
        <time>2021-11-16T15:43:49.187Z</time>
      </trkpt>
      <trkpt lat="39.24991" lon="40.98083">
        <ele>1784.60235</ele>
        <time>2021-11-16T15:46:54.381Z</time>
      </trkpt>
      <trkpt lat="39.249" lon="40.98013">
        <ele>1783.204812</ele>
        <time>2021-11-16T15:47:13.505Z</time>
      </trkpt>
      <trkpt lat="39.24858" lon="40.97989">
        <ele>1782.387444</ele>
        <time>2021-11-16T15:47:21.590Z</time>
      </trkpt>
      <trkpt lat="39.24815" lon="40.97975">
        <ele>1781.536832</ele>
        <time>2021-11-16T15:47:29.192Z</time>
      </trkpt>
      <trkpt lat="39.24784" lon="40.97972">
        <ele>1780.937429</ele>
        <time>2021-11-16T15:47:34.574Z</time>
      </trkpt>
      <trkpt lat="39.24344" lon="40.97988">
        <ele>1773.676521</ele>
        <time>2021-11-16T15:48:54.456Z</time>
      </trkpt>
      <trkpt lat="39.2382" lon="40.9808">
        <ele>1766.632967</ele>
        <time>2021-11-16T15:50:33.005Z</time>
      </trkpt>
      <trkpt lat="39.23771" lon="40.98073">
        <ele>1766.098252</ele>
        <time>2021-11-16T15:50:42.418Z</time>
      </trkpt>
      <trkpt lat="39.23372" lon="40.9795">
        <ele>1761.451455</ele>
        <time>2021-11-16T15:52:01.242Z</time>
      </trkpt>
      <trkpt lat="39.23299" lon="40.9792">
        <ele>1760.458843</ele>
        <time>2021-11-16T15:52:15.214Z</time>
      </trkpt>
      <trkpt lat="39.23107" lon="40.97835">
        <ele>1756.816425</ele>
        <time>2021-11-16T15:52:51.756Z</time>
      </trkpt>
      <trkpt lat="39.23074" lon="40.97831">
        <ele>1755.921545</ele>
        <time>2021-11-16T15:52:57.541Z</time>
      </trkpt>
      <trkpt lat="39.23056" lon="40.97835">
        <ele>1755.423185</ele>
        <time>2021-11-16T15:53:00.703Z</time>
      </trkpt>
      <trkpt lat="39.23013" lon="40.97863">
        <ele>1754.1372</ele>
        <time>2021-11-16T15:53:08.660Z</time>
      </trkpt>
      <trkpt lat="39.22975" lon="40.97878">
        <ele>1753.077941</ele>
        <time>2021-11-16T15:53:15.001Z</time>
      </trkpt>
      <trkpt lat="39.22926" lon="40.97871">
        <ele>1752.221732</ele>
        <time>2021-11-16T15:53:22.878Z</time>
      </trkpt>
      <trkpt lat="39.22828" lon="40.97836">
        <ele>1751.255535</ele>
        <time>2021-11-16T15:53:40.725Z</time>
      </trkpt>
      <trkpt lat="39.22795" lon="40.97825">
        <ele>1750.936686</ele>
        <time>2021-11-16T15:53:49.852Z</time>
      </trkpt>
      <trkpt lat="39.22724" lon="40.97799">
        <ele>1754.213533</ele>
        <time>2021-11-16T15:54:15.989Z</time>
      </trkpt>
      <trkpt lat="39.22699" lon="40.97787">
        <ele>1755.847225</ele>
        <time>2021-11-16T15:54:28.139Z</time>
      </trkpt>
      <trkpt lat="39.22667" lon="40.97763">
        <ele>1758.052879</ele>
        <time>2021-11-16T15:54:46.519Z</time>
      </trkpt>
      <trkpt lat="39.22618" lon="40.97708">
        <ele>1762.189913</ele>
        <time>2021-11-16T15:55:24.057Z</time>
      </trkpt>
      <trkpt lat="39.22528" lon="40.97579">
        <ele>1774.746862</ele>
        <time>2021-11-16T15:56:46.587Z</time>
      </trkpt>
      <trkpt lat="39.22422" lon="40.97442">
        <ele>1786.793627</ele>
        <time>2021-11-16T15:58:11.971Z</time>
      </trkpt>
      <trkpt lat="39.22379" lon="40.97413">
        <ele>1790.443123</ele>
        <time>2021-11-16T15:58:35.970Z</time>
      </trkpt>
      <trkpt lat="39.22301" lon="40.97396">
        <ele>1793.275382</ele>
        <time>2021-11-16T15:59:09.025Z</time>
      </trkpt>
      <trkpt lat="39.22242" lon="40.97371">
        <ele>1794.574733</ele>
        <time>2021-11-16T15:59:28.180Z</time>
      </trkpt>
      <trkpt lat="39.22189" lon="40.97315">
        <ele>1795.610129</ele>
        <time>2021-11-16T15:59:42.702Z</time>
      </trkpt>
      <trkpt lat="39.22041" lon="40.97126">
        <ele>1790.274173</ele>
        <time>2021-11-16T16:00:17.053Z</time>
      </trkpt>
      <trkpt lat="39.22016" lon="40.97089">
        <ele>1789.274323</ele>
        <time>2021-11-16T16:00:23.366Z</time>
      </trkpt>
      <trkpt lat="39.21987" lon="40.97028">
        <ele>1787.814816</ele>
        <time>2021-11-16T16:00:32.850Z</time>
      </trkpt>
      <trkpt lat="39.21934" lon="40.96825">
        <ele>1782.203171</ele>
        <time>2021-11-16T16:01:00.940Z</time>
      </trkpt>
      <trkpt lat="39.21907" lon="40.96761">
        <ele>1780.137712</ele>
        <time>2021-11-16T16:01:09.560Z</time>
      </trkpt>
      <trkpt lat="39.21763" lon="40.96597">
        <ele>1766.70389</ele>
        <time>2021-11-16T16:01:36.857Z</time>
      </trkpt>
      <trkpt lat="39.21705" lon="40.96542">
        <ele>1762.214579</ele>
        <time>2021-11-16T16:01:46.910Z</time>
      </trkpt>
      <trkpt lat="39.21619" lon="40.96473">
        <ele>1755.914063</ele>
        <time>2021-11-16T16:02:01.645Z</time>
      </trkpt>
      <trkpt lat="39.21184" lon="40.96127">
        <ele>1750.53174</ele>
        <time>2021-11-16T16:03:40.687Z</time>
      </trkpt>
      <trkpt lat="39.21071" lon="40.96039">
        <ele>1752.25233</ele>
        <time>2021-11-16T16:04:17.961Z</time>
      </trkpt>
      <trkpt lat="39.20969" lon="40.95959">
        <ele>1754.29963</ele>
        <time>2021-11-16T16:04:56.425Z</time>
      </trkpt>
      <trkpt lat="39.20934" lon="40.95924">
        <ele>1754.990731</ele>
        <time>2021-11-16T16:05:10.685Z</time>
      </trkpt>
      <trkpt lat="39.20914" lon="40.95885">
        <ele>1755.543897</ele>
        <time>2021-11-16T16:05:21.193Z</time>
      </trkpt>
      <trkpt lat="39.20907" lon="40.95836">
        <ele>1756.147697</ele>
        <time>2021-11-16T16:05:31.159Z</time>
      </trkpt>
      <trkpt lat="39.20907" lon="40.95764">
        <ele>1756.081249</ele>
        <time>2021-11-16T16:05:42.883Z</time>
      </trkpt>
      <trkpt lat="39.20903" lon="40.95738">
        <ele>1755.875754</ele>
        <time>2021-11-16T16:05:46.791Z</time>
      </trkpt>
      <trkpt lat="39.20892" lon="40.95713">
        <ele>1755.652701</ele>
        <time>2021-11-16T16:05:50.960Z</time>
      </trkpt>
      <trkpt lat="39.20878" lon="40.95688">
        <ele>1755.408633</ele>
        <time>2021-11-16T16:05:55.392Z</time>
      </trkpt>
      <trkpt lat="39.20811" lon="40.95602">
        <ele>1754.617525</ele>
        <time>2021-11-16T16:06:12.785Z</time>
      </trkpt>
      <trkpt lat="39.20793" lon="40.9557">
        <ele>1754.581904</ele>
        <time>2021-11-16T16:06:18.605Z</time>
      </trkpt>
      <trkpt lat="39.20786" lon="40.9555">
        <ele>1754.561941</ele>
        <time>2021-11-16T16:06:21.949Z</time>
      </trkpt>
      <trkpt lat="39.20782" lon="40.95528">
        <ele>1754.541844</ele>
        <time>2021-11-16T16:06:25.487Z</time>
      </trkpt>
      <trkpt lat="39.20788" lon="40.95473">
        <ele>1754.491844</ele>
        <time>2021-11-16T16:06:35.130Z</time>
      </trkpt>
      <trkpt lat="39.208" lon="40.95362">
        <ele>1755.056767</ele>
        <time>2021-11-16T16:06:57.951Z</time>
      </trkpt>
      <trkpt lat="39.20798" lon="40.9534">
        <ele>1755.390202</ele>
        <time>2021-11-16T16:07:02.928Z</time>
      </trkpt>
      <trkpt lat="39.20794" lon="40.9532">
        <ele>1755.695418</ele>
        <time>2021-11-16T16:07:07.495Z</time>
      </trkpt>
      <trkpt lat="39.20784" lon="40.95299">
        <ele>1756.07339</ele>
        <time>2021-11-16T16:07:13.267Z</time>
      </trkpt>
      <trkpt lat="39.20765" lon="40.95274">
        <ele>1756.593872</ele>
        <time>2021-11-16T16:07:21.021Z</time>
      </trkpt>
      <trkpt lat="39.20617" lon="40.9512">
        <ele>1762.129449</ele>
        <time>2021-11-16T16:08:24.465Z</time>
      </trkpt>
      <trkpt lat="39.20612" lon="40.95115">
        <ele>1762.353094</ele>
        <time>2021-11-16T16:08:27.269Z</time>
      </trkpt>
      <trkpt lat="39.20541" lon="40.95042">
        <ele>1766.294271</ele>
        <time>2021-11-16T16:09:04.058Z</time>
      </trkpt>
      <trkpt lat="39.20266" lon="40.94813">
        <ele>1785.051738</ele>
        <time>2021-11-16T16:11:34.091Z</time>
      </trkpt>
      <trkpt lat="39.20239" lon="40.94757">
        <ele>1787.672458</ele>
        <time>2021-11-16T16:11:58.063Z</time>
      </trkpt>
      <trkpt lat="39.20217" lon="40.94663">
        <ele>1791.524873</ele>
        <time>2021-11-16T16:12:30.961Z</time>
      </trkpt>
      <trkpt lat="39.20196" lon="40.94607">
        <ele>1793.940874</ele>
        <time>2021-11-16T16:12:50.536Z</time>
      </trkpt>
      <trkpt lat="39.20179" lon="40.94582">
        <ele>1794.527629</ele>
        <time>2021-11-16T16:13:00.185Z</time>
      </trkpt>
      <trkpt lat="39.19959" lon="40.94386">
        <ele>1799.620089</ele>
        <time>2021-11-16T16:14:18.189Z</time>
      </trkpt>
      <trkpt lat="39.19923" lon="40.94346">
        <ele>1800.276857</ele>
        <time>2021-11-16T16:14:30.102Z</time>
      </trkpt>
      <trkpt lat="39.19911" lon="40.94326">
        <ele>1800.549767</ele>
        <time>2021-11-16T16:14:35.175Z</time>
      </trkpt>
      <trkpt lat="39.19879" lon="40.9424">
        <ele>1801.434742</ele>
        <time>2021-11-16T16:14:54.004Z</time>
      </trkpt>
      <trkpt lat="39.19843" lon="40.94178">
        <ele>1802.16601</ele>
        <time>2021-11-16T16:15:09.957Z</time>
      </trkpt>
      <trkpt lat="39.19455" lon="40.93656">
        <ele>1812.707851</ele>
        <time>2021-11-16T16:17:57.751Z</time>
      </trkpt>
      <trkpt lat="39.19413" lon="40.93618">
        <ele>1813.777488</ele>
        <time>2021-11-16T16:18:13.913Z</time>
      </trkpt>
      <trkpt lat="39.19275" lon="40.93562">
        <ele>1816.893976</ele>
        <time>2021-11-16T16:18:58.616Z</time>
      </trkpt>
      <trkpt lat="39.19239" lon="40.93541">
        <ele>1817.831518</ele>
        <time>2021-11-16T16:19:10.644Z</time>
      </trkpt>
      <trkpt lat="39.19221" lon="40.93522">
        <ele>1818.402992</ele>
        <time>2021-11-16T16:19:17.990Z</time>
      </trkpt>
      <trkpt lat="39.1921" lon="40.93496">
        <ele>1818.96434</ele>
        <time>2021-11-16T16:19:25.343Z</time>
      </trkpt>
      <trkpt lat="39.19195" lon="40.93421">
        <ele>1820.402339</ele>
        <time>2021-11-16T16:19:44.793Z</time>
      </trkpt>
      <trkpt lat="39.19166" lon="40.93354">
        <ele>1821.760663</ele>
        <time>2021-11-16T16:20:04.373Z</time>
      </trkpt>
      <trkpt lat="39.19101" lon="40.93278">
        <ele>1823.482995</ele>
        <time>2021-11-16T16:20:32.967Z</time>
      </trkpt>
      <trkpt lat="39.18749" lon="40.92901">
        <ele>1827.459205</ele>
        <time>2021-11-16T16:22:32.817Z</time>
      </trkpt>
      <trkpt lat="39.1872" lon="40.92863">
        <ele>1826.394723</ele>
        <time>2021-11-16T16:22:40.214Z</time>
      </trkpt>
      <trkpt lat="39.18702" lon="40.92827">
        <ele>1825.537754</ele>
        <time>2021-11-16T16:22:45.892Z</time>
      </trkpt>
      <trkpt lat="39.18692" lon="40.928">
        <ele>1824.953146</ele>
        <time>2021-11-16T16:22:49.725Z</time>
      </trkpt>
      <trkpt lat="39.18691" lon="40.92795">
        <ele>1824.843725</ele>
        <time>2021-11-16T16:22:50.339Z</time>
      </trkpt>
      <trkpt lat="39.18637" lon="40.92591">
        <ele>1817.18184</ele>
        <time>2021-11-16T16:23:15.525Z</time>
      </trkpt>
      <trkpt lat="39.18611" lon="40.92528">
        <ele>1814.127374</ele>
        <time>2021-11-16T16:23:23.574Z</time>
      </trkpt>
      <trkpt lat="39.18575" lon="40.92492">
        <ele>1811.330795</ele>
        <time>2021-11-16T16:23:30.079Z</time>
      </trkpt>
      <trkpt lat="39.18464" lon="40.9244">
        <ele>1803.774171</ele>
        <time>2021-11-16T16:23:47.101Z</time>
      </trkpt>
      <trkpt lat="39.18422" lon="40.92412">
        <ele>1801.338606</ele>
        <time>2021-11-16T16:23:54.141Z</time>
      </trkpt>
      <trkpt lat="39.18393" lon="40.92372">
        <ele>1799.866813</ele>
        <time>2021-11-16T16:24:00.495Z</time>
      </trkpt>
      <trkpt lat="39.18238" lon="40.92114">
        <ele>1792.97896</ele>
        <time>2021-11-16T16:24:43.746Z</time>
      </trkpt>
      <trkpt lat="39.18206" lon="40.92033">
        <ele>1791.945723</ele>
        <time>2021-11-16T16:24:57.334Z</time>
      </trkpt>
      <trkpt lat="39.18173" lon="40.91924">
        <ele>1791.410489</ele>
        <time>2021-11-16T16:25:15.701Z</time>
      </trkpt>
      <trkpt lat="39.18141" lon="40.9185">
        <ele>1791.036023</ele>
        <time>2021-11-16T16:25:29.379Z</time>
      </trkpt>
      <trkpt lat="39.17857" lon="40.91488">
        <ele>1791.181384</ele>
        <time>2021-11-16T16:26:55.746Z</time>
      </trkpt>
      <trkpt lat="39.17829" lon="40.91463">
        <ele>1791.718796</ele>
        <time>2021-11-16T16:27:05.696Z</time>
      </trkpt>
      <trkpt lat="39.17812" lon="40.91454">
        <ele>1792.019508</ele>
        <time>2021-11-16T16:27:12.308Z</time>
      </trkpt>
      <trkpt lat="39.17711" lon="40.91416">
        <ele>1793.482737</ele>
        <time>2021-11-16T16:27:45.499Z</time>
      </trkpt>
      <trkpt lat="39.17655" lon="40.91388">
        <ele>1793.834221</ele>
        <time>2021-11-16T16:28:02.901Z</time>
      </trkpt>
      <trkpt lat="39.17608" lon="40.9136">
        <ele>1794.139622</ele>
        <time>2021-11-16T16:28:14.749Z</time>
      </trkpt>
      <trkpt lat="39.17556" lon="40.91322">
        <ele>1794.137789</ele>
        <time>2021-11-16T16:28:26.763Z</time>
      </trkpt>
      <trkpt lat="39.1743" lon="40.91212">
        <ele>1790.628025</ele>
        <time>2021-11-16T16:28:52.530Z</time>
      </trkpt>
      <trkpt lat="39.17237" lon="40.91117">
        <ele>1784.345858</ele>
        <time>2021-11-16T16:29:26.678Z</time>
      </trkpt>
      <trkpt lat="39.16871" lon="40.90889">
        <ele>1768.82004</ele>
        <time>2021-11-16T16:30:30.607Z</time>
      </trkpt>
      <trkpt lat="39.16817" lon="40.90875">
        <ele>1766.842979</ele>
        <time>2021-11-16T16:30:39.443Z</time>
      </trkpt>
      <trkpt lat="39.16683" lon="40.90908">
        <ele>1762.263153</ele>
        <time>2021-11-16T16:31:01.516Z</time>
      </trkpt>
      <trkpt lat="39.1664" lon="40.909">
        <ele>1760.912285</ele>
        <time>2021-11-16T16:31:08.502Z</time>
      </trkpt>
      <trkpt lat="39.16606" lon="40.90881">
        <ele>1759.741998</ele>
        <time>2021-11-16T16:31:14.614Z</time>
      </trkpt>
      <trkpt lat="39.16561" lon="40.90846">
        <ele>1758.277843</ele>
        <time>2021-11-16T16:31:23.363Z</time>
      </trkpt>
      <trkpt lat="39.16401" lon="40.90709">
        <ele>1754.046997</ele>
        <time>2021-11-16T16:31:56.656Z</time>
      </trkpt>
      <trkpt lat="39.16374" lon="40.90681">
        <ele>1753.384529</ele>
        <time>2021-11-16T16:32:03.082Z</time>
      </trkpt>
      <trkpt lat="39.16354" lon="40.9065">
        <ele>1752.79666</ele>
        <time>2021-11-16T16:32:08.787Z</time>
      </trkpt>
      <trkpt lat="39.16319" lon="40.90571">
        <ele>1751.46498</ele>
        <time>2021-11-16T16:32:21.359Z</time>
      </trkpt>
      <trkpt lat="39.16263" lon="40.90488">
        <ele>1749.370227</ele>
        <time>2021-11-16T16:32:35.956Z</time>
      </trkpt>
      <trkpt lat="39.16214" lon="40.90369">
        <ele>1746.738111</ele>
        <time>2021-11-16T16:32:53.434Z</time>
      </trkpt>
      <trkpt lat="39.16192" lon="40.90336">
        <ele>1746.198437</ele>
        <time>2021-11-16T16:32:59.142Z</time>
      </trkpt>
      <trkpt lat="39.1614" lon="40.90283">
        <ele>1745.142527</ele>
        <time>2021-11-16T16:33:10.639Z</time>
      </trkpt>
      <trkpt lat="39.16133" lon="40.90275">
        <ele>1744.9923</ele>
        <time>2021-11-16T16:33:12.235Z</time>
      </trkpt>
      <trkpt lat="39.16019" lon="40.90187">
        <ele>1744.403029</ele>
        <time>2021-11-16T16:33:40.044Z</time>
      </trkpt>
      <trkpt lat="39.15865" lon="40.90088">
        <ele>1746.689621</ele>
        <time>2021-11-16T16:34:28.039Z</time>
      </trkpt>
      <trkpt lat="39.15848" lon="40.9007">
        <ele>1747.252501</ele>
        <time>2021-11-16T16:34:35.114Z</time>
      </trkpt>
      <trkpt lat="39.15772" lon="40.89962">
        <ele>1750.341908</ele>
        <time>2021-11-16T16:35:12.840Z</time>
      </trkpt>
      <trkpt lat="39.15724" lon="40.89911">
        <ele>1753.546944</ele>
        <time>2021-11-16T16:35:38.347Z</time>
      </trkpt>
      <trkpt lat="39.15663" lon="40.89832">
        <ele>1758.050345</ele>
        <time>2021-11-16T16:36:17.796Z</time>
      </trkpt>
      <trkpt lat="39.15628" lon="40.89769">
        <ele>1761.46981</ele>
        <time>2021-11-16T16:36:46.723Z</time>
      </trkpt>
      <trkpt lat="39.15552" lon="40.89575">
        <ele>1771.149044</ele>
        <time>2021-11-16T16:38:05.691Z</time>
      </trkpt>
      <trkpt lat="39.15509" lon="40.8944">
        <ele>1775.920524</ele>
        <time>2021-11-16T16:38:49.071Z</time>
      </trkpt>
      <trkpt lat="39.15499" lon="40.89207">
        <ele>1781.645293</ele>
        <time>2021-11-16T16:39:50.494Z</time>
      </trkpt>
      <trkpt lat="39.15494" lon="40.89166">
        <ele>1782.579552</ele>
        <time>2021-11-16T16:40:01.108Z</time>
      </trkpt>
      <trkpt lat="39.15492" lon="40.8915">
        <ele>1782.952003</ele>
        <time>2021-11-16T16:40:05.027Z</time>
      </trkpt>
      <trkpt lat="39.1549" lon="40.8914">
        <ele>1783.185112</ele>
        <time>2021-11-16T16:40:07.575Z</time>
      </trkpt>
      <trkpt lat="39.15481" lon="40.89106">
        <ele>1784.012843</ele>
        <time>2021-11-16T16:40:16.449Z</time>
      </trkpt>
      <trkpt lat="39.15468" lon="40.89075">
        <ele>1784.838572</ele>
        <time>2021-11-16T16:40:25.590Z</time>
      </trkpt>
      <trkpt lat="39.15441" lon="40.89012">
        <ele>1786.526742</ele>
        <time>2021-11-16T16:40:44.461Z</time>
      </trkpt>
      <trkpt lat="39.15408" lon="40.88934">
        <ele>1788.603318</ele>
        <time>2021-11-16T16:41:09.544Z</time>
      </trkpt>
      <trkpt lat="39.15377" lon="40.88861">
        <ele>1790.522509</ele>
        <time>2021-11-16T16:41:33.877Z</time>
      </trkpt>
      <trkpt lat="39.15374" lon="40.88853">
        <ele>1790.720614</ele>
        <time>2021-11-16T16:41:36.363Z</time>
      </trkpt>
      <trkpt lat="39.15339" lon="40.8877">
        <ele>1792.924148</ele>
        <time>2021-11-16T16:42:01.555Z</time>
      </trkpt>
      <trkpt lat="39.15325" lon="40.88731">
        <ele>1793.30248</ele>
        <time>2021-11-16T16:42:10.992Z</time>
      </trkpt>
      <trkpt lat="39.15319" lon="40.88708">
        <ele>1793.073734</ele>
        <time>2021-11-16T16:42:16.371Z</time>
      </trkpt>
      <trkpt lat="39.15308" lon="40.88648">
        <ele>1792.495722</ele>
        <time>2021-11-16T16:42:26.779Z</time>
      </trkpt>
      <trkpt lat="39.15305" lon="40.88609">
        <ele>1792.121182</ele>
        <time>2021-11-16T16:42:32.591Z</time>
      </trkpt>
      <trkpt lat="39.15286" lon="40.88406">
        <ele>1787.359891</ele>
        <time>2021-11-16T16:42:57.589Z</time>
      </trkpt>
      <trkpt lat="39.15258" lon="40.88072">
        <ele>1774.972135</ele>
        <time>2021-11-16T16:43:37.112Z</time>
      </trkpt>
      <trkpt lat="39.15242" lon="40.87982">
        <ele>1770.59164</ele>
        <time>2021-11-16T16:43:47.785Z</time>
      </trkpt>
      <trkpt lat="39.15224" lon="40.87927">
        <ele>1767.696922</ele>
        <time>2021-11-16T16:43:54.559Z</time>
      </trkpt>
      <trkpt lat="39.15199" lon="40.8787">
        <ele>1764.512075</ele>
        <time>2021-11-16T16:44:01.845Z</time>
      </trkpt>
      <trkpt lat="39.15174" lon="40.87828">
        <ele>1761.936786</ele>
        <time>2021-11-16T16:44:07.631Z</time>
      </trkpt>
      <trkpt lat="39.15143" lon="40.87786">
        <ele>1759.02055</ele>
        <time>2021-11-16T16:44:14.099Z</time>
      </trkpt>
      <trkpt lat="39.15107" lon="40.8775">
        <ele>1756.07529</ele>
        <time>2021-11-16T16:44:20.646Z</time>
      </trkpt>
      <trkpt lat="39.14914" lon="40.87572">
        <ele>1742.710164</ele>
        <time>2021-11-16T16:44:55.961Z</time>
      </trkpt>
      <trkpt lat="39.14745" lon="40.87418">
        <ele>1732.930936</ele>
        <time>2021-11-16T16:45:27.998Z</time>
      </trkpt>
      <trkpt lat="39.14709" lon="40.87386">
        <ele>1730.211345</ele>
        <time>2021-11-16T16:45:34.351Z</time>
      </trkpt>
      <trkpt lat="39.1442" lon="40.87123">
        <ele>1708.028552</ele>
        <time>2021-11-16T16:46:25.169Z</time>
      </trkpt>
      <trkpt lat="39.142" lon="40.86923">
        <ele>1698.786757</ele>
        <time>2021-11-16T16:47:09.759Z</time>
      </trkpt>
      <trkpt lat="39.13749" lon="40.86512">
        <ele>1684.685542</ele>
        <time>2021-11-16T16:48:44.341Z</time>
      </trkpt>
      <trkpt lat="39.13725" lon="40.86485">
        <ele>1683.584275</ele>
        <time>2021-11-16T16:48:49.210Z</time>
      </trkpt>
      <trkpt lat="39.13715" lon="40.86469">
        <ele>1682.722067</ele>
        <time>2021-11-16T16:48:51.594Z</time>
      </trkpt>
      <trkpt lat="39.13667" lon="40.86356">
        <ele>1677.328196</ele>
        <time>2021-11-16T16:49:06.504Z</time>
      </trkpt>
      <trkpt lat="39.13534" lon="40.85994">
        <ele>1659.360507</ele>
        <time>2021-11-16T16:49:51.884Z</time>
      </trkpt>
      <trkpt lat="39.13449" lon="40.85774">
        <ele>1652.668816</ele>
        <time>2021-11-16T16:50:21.252Z</time>
      </trkpt>
      <trkpt lat="39.13431" lon="40.85737">
        <ele>1652.180067</ele>
        <time>2021-11-16T16:50:27.764Z</time>
      </trkpt>
      <trkpt lat="39.1341" lon="40.85709">
        <ele>1651.733205</ele>
        <time>2021-11-16T16:50:34.938Z</time>
      </trkpt>
      <trkpt lat="39.13383" lon="40.85683">
        <ele>1651.499639</ele>
        <time>2021-11-16T16:50:44.852Z</time>
      </trkpt>
      <trkpt lat="39.13286" lon="40.85627">
        <ele>1657.6214</ele>
        <time>2021-11-16T16:51:30.063Z</time>
      </trkpt>
      <trkpt lat="39.13188" lon="40.85578">
        <ele>1664.48655</ele>
        <time>2021-11-16T16:52:27.508Z</time>
      </trkpt>
      <trkpt lat="39.13146" lon="40.85564">
        <ele>1668.013932</ele>
        <time>2021-11-16T16:52:52.361Z</time>
      </trkpt>
      <trkpt lat="39.13106" lon="40.85567">
        <ele>1671.250806</ele>
        <time>2021-11-16T16:53:15.215Z</time>
      </trkpt>
      <trkpt lat="39.12996" lon="40.85608">
        <ele>1678.9626</ele>
        <time>2021-11-16T16:54:15.795Z</time>
      </trkpt>
      <trkpt lat="39.12949" lon="40.85619">
        <ele>1681.426677</ele>
        <time>2021-11-16T16:54:37.666Z</time>
      </trkpt>
      <trkpt lat="39.12892" lon="40.85619">
        <ele>1684.322405</ele>
        <time>2021-11-16T16:54:58.774Z</time>
      </trkpt>
      <trkpt lat="39.12878" lon="40.85616">
        <ele>1685.074036</ele>
        <time>2021-11-16T16:55:04.277Z</time>
      </trkpt>
      <trkpt lat="39.12849" lon="40.85609">
        <ele>1685.283425</ele>
        <time>2021-11-16T16:55:12.857Z</time>
      </trkpt>
      <trkpt lat="39.12829" lon="40.85601">
        <ele>1685.094921</ele>
        <time>2021-11-16T16:55:18.268Z</time>
      </trkpt>
      <trkpt lat="39.12812" lon="40.85594">
        <ele>1684.945628</ele>
        <time>2021-11-16T16:55:22.510Z</time>
      </trkpt>
      <trkpt lat="39.12777" lon="40.85574">
        <ele>1684.597951</ele>
        <time>2021-11-16T16:55:30.602Z</time>
      </trkpt>
      <trkpt lat="39.12759" lon="40.85564">
        <ele>1684.430776</ele>
        <time>2021-11-16T16:55:33.925Z</time>
      </trkpt>
      <trkpt lat="39.12705" lon="40.85535">
        <ele>1683.909958</ele>
        <time>2021-11-16T16:55:43.813Z</time>
      </trkpt>
      <trkpt lat="39.12563" lon="40.85453">
        <ele>1675.810488</ele>
        <time>2021-11-16T16:56:07.230Z</time>
      </trkpt>
      <trkpt lat="39.12486" lon="40.85405">
        <ele>1669.636882</ele>
        <time>2021-11-16T16:56:19.338Z</time>
      </trkpt>
      <trkpt lat="39.12246" lon="40.8523">
        <ele>1646.12555</ele>
        <time>2021-11-16T16:56:57.469Z</time>
      </trkpt>
      <trkpt lat="39.12016" lon="40.85066">
        <ele>1625.36427</ele>
        <time>2021-11-16T16:57:34.257Z</time>
      </trkpt>
      <trkpt lat="39.11959" lon="40.85032">
        <ele>1621.302413</ele>
        <time>2021-11-16T16:57:43.363Z</time>
      </trkpt>
      <trkpt lat="39.11817" lon="40.84955">
        <ele>1614.422114</ele>
        <time>2021-11-16T16:58:06.956Z</time>
      </trkpt>
      <trkpt lat="39.11797" lon="40.84943">
        <ele>1613.68927</ele>
        <time>2021-11-16T16:58:10.767Z</time>
      </trkpt>
      <trkpt lat="39.11748" lon="40.84917">
        <ele>1611.962373</ele>
        <time>2021-11-16T16:58:20.092Z</time>
      </trkpt>
      <trkpt lat="39.11711" lon="40.84892">
        <ele>1611.241471</ele>
        <time>2021-11-16T16:58:27.854Z</time>
      </trkpt>
      <trkpt lat="39.11654" lon="40.84842">
        <ele>1610.416281</ele>
        <time>2021-11-16T16:58:41.362Z</time>
      </trkpt>
      <trkpt lat="39.11614" lon="40.84794">
        <ele>1609.763622</ele>
        <time>2021-11-16T16:58:52.059Z</time>
      </trkpt>
      <trkpt lat="39.11576" lon="40.84735">
        <ele>1608.962645</ele>
        <time>2021-11-16T16:59:02.973Z</time>
      </trkpt>
      <trkpt lat="39.11529" lon="40.84636">
        <ele>1607.673787</ele>
        <time>2021-11-16T16:59:18.955Z</time>
      </trkpt>
      <trkpt lat="39.115" lon="40.84564">
        <ele>1606.929974</ele>
        <time>2021-11-16T16:59:30.890Z</time>
      </trkpt>
      <trkpt lat="39.11491" lon="40.84539">
        <ele>1607.0852</ele>
        <time>2021-11-16T16:59:35.016Z</time>
      </trkpt>
      <trkpt lat="39.11472" lon="40.84486">
        <ele>1607.419057</ele>
        <time>2021-11-16T16:59:44.874Z</time>
      </trkpt>
      <trkpt lat="39.11447" lon="40.84434">
        <ele>1607.769033</ele>
        <time>2021-11-16T16:59:56.287Z</time>
      </trkpt>
      <trkpt lat="39.11353" lon="40.8428">
        <ele>1611.316395</ele>
        <time>2021-11-16T17:00:46.021Z</time>
      </trkpt>
      <trkpt lat="39.11238" lon="40.84005">
        <ele>1620.467639</ele>
        <time>2021-11-16T17:02:20.424Z</time>
      </trkpt>
      <trkpt lat="39.11057" lon="40.83671">
        <ele>1629.628539</ele>
        <time>2021-11-16T17:04:14.104Z</time>
      </trkpt>
      <trkpt lat="39.10716" lon="40.83362">
        <ele>1627.479927</ele>
        <time>2021-11-16T17:05:35.077Z</time>
      </trkpt>
      <trkpt lat="39.10609" lon="40.83253">
        <ele>1625.051955</ele>
        <time>2021-11-16T17:06:00.377Z</time>
      </trkpt>
      <trkpt lat="39.10554" lon="40.8318">
        <ele>1622.970677</ele>
        <time>2021-11-16T17:06:13.740Z</time>
      </trkpt>
      <trkpt lat="39.10239" lon="40.82704">
        <ele>1602.180085</ele>
        <time>2021-11-16T17:07:28.354Z</time>
      </trkpt>
      <trkpt lat="39.10216" lon="40.82677">
        <ele>1600.928608</ele>
        <time>2021-11-16T17:07:33.355Z</time>
      </trkpt>
      <trkpt lat="39.10077" lon="40.82551">
        <ele>1595.744425</ele>
        <time>2021-11-16T17:08:01.893Z</time>
      </trkpt>
      <trkpt lat="39.10024" lon="40.82498">
        <ele>1591.987731</ele>
        <time>2021-11-16T17:08:12.272Z</time>
      </trkpt>
      <trkpt lat="39.10008" lon="40.82476">
        <ele>1590.595179</ele>
        <time>2021-11-16T17:08:15.712Z</time>
      </trkpt>
      <trkpt lat="39.10003" lon="40.82463">
        <ele>1589.891616</ele>
        <time>2021-11-16T17:08:17.529Z</time>
      </trkpt>
      <trkpt lat="39.09998" lon="40.82451">
        <ele>1589.294659</ele>
        <time>2021-11-16T17:08:18.904Z</time>
      </trkpt>
      <trkpt lat="39.09959" lon="40.82291">
        <ele>1580.808805</ele>
        <time>2021-11-16T17:08:37.468Z</time>
      </trkpt>
      <trkpt lat="39.09945" lon="40.82257">
        <ele>1578.622447</ele>
        <time>2021-11-16T17:08:41.595Z</time>
      </trkpt>
      <trkpt lat="39.0987" lon="40.82142">
        <ele>1570.408003</ele>
        <time>2021-11-16T17:08:58.264Z</time>
      </trkpt>
      <trkpt lat="39.09756" lon="40.81898">
        <ele>1557.962406</ele>
        <time>2021-11-16T17:09:30.938Z</time>
      </trkpt>
      <trkpt lat="39.09745" lon="40.81885">
        <ele>1557.220662</ele>
        <time>2021-11-16T17:09:33.331Z</time>
      </trkpt>
      <trkpt lat="39.09728" lon="40.81874">
        <ele>1556.293558</ele>
        <time>2021-11-16T17:09:36.268Z</time>
      </trkpt>
      <trkpt lat="39.09713" lon="40.81879">
        <ele>1555.538247</ele>
        <time>2021-11-16T17:09:38.702Z</time>
      </trkpt>
      <trkpt lat="39.09671" lon="40.81953">
        <ele>1552.027102</ele>
        <time>2021-11-16T17:09:49.724Z</time>
      </trkpt>
      <trkpt lat="39.09651" lon="40.81965">
        <ele>1550.617618</ele>
        <time>2021-11-16T17:09:53.015Z</time>
      </trkpt>
      <trkpt lat="39.09638" lon="40.81959">
        <ele>1549.699708</ele>
        <time>2021-11-16T17:09:55.174Z</time>
      </trkpt>
      <trkpt lat="39.09543" lon="40.81841">
        <ele>1540.95799</ele>
        <time>2021-11-16T17:10:14.330Z</time>
      </trkpt>
      <trkpt lat="39.09532" lon="40.81807">
        <ele>1537.986194</ele>
        <time>2021-11-16T17:10:18.148Z</time>
      </trkpt>
      <trkpt lat="39.09523" lon="40.81725">
        <ele>1529.995446</ele>
        <time>2021-11-16T17:10:26.776Z</time>
      </trkpt>
      <trkpt lat="39.09515" lon="40.81703">
        <ele>1527.637282</ele>
        <time>2021-11-16T17:10:29.284Z</time>
      </trkpt>
      <trkpt lat="39.0949" lon="40.81684">
        <ele>1524.096773</ele>
        <time>2021-11-16T17:10:33.050Z</time>
      </trkpt>
      <trkpt lat="39.09441" lon="40.817">
        <ele>1517.800041</ele>
        <time>2021-11-16T17:10:39.623Z</time>
      </trkpt>
      <trkpt lat="39.09296" lon="40.81687">
        <ele>1497.689471</ele>
        <time>2021-11-16T17:10:58.525Z</time>
      </trkpt>
      <trkpt lat="39.09283" lon="40.81696">
        <ele>1495.638293</ele>
        <time>2021-11-16T17:11:00.495Z</time>
      </trkpt>
      <trkpt lat="39.09279" lon="40.81711">
        <ele>1493.987006</ele>
        <time>2021-11-16T17:11:02.114Z</time>
      </trkpt>
      <trkpt lat="39.09275" lon="40.81778">
        <ele>1491.549515</ele>
        <time>2021-11-16T17:11:09.255Z</time>
      </trkpt>
      <trkpt lat="39.09265" lon="40.81798">
        <ele>1490.873902</ele>
        <time>2021-11-16T17:11:11.952Z</time>
      </trkpt>
      <trkpt lat="39.09239" lon="40.81833">
        <ele>1489.448098</ele>
        <time>2021-11-16T17:11:17.807Z</time>
      </trkpt>
      <trkpt lat="39.09235" lon="40.81853">
        <ele>1488.841331</ele>
        <time>2021-11-16T17:11:20.369Z</time>
      </trkpt>
      <trkpt lat="39.09238" lon="40.81875">
        <ele>1488.213757</ele>
        <time>2021-11-16T17:11:24.111Z</time>
      </trkpt>
      <trkpt lat="39.0928" lon="40.8202">
        <ele>1492.365965</ele>
        <time>2021-11-16T17:12:10.168Z</time>
      </trkpt>
      <trkpt lat="39.09289" lon="40.82074">
        <ele>1495.580027</ele>
        <time>2021-11-16T17:12:36.245Z</time>
      </trkpt>
      <trkpt lat="39.09283" lon="40.82091">
        <ele>1496.674948</ele>
        <time>2021-11-16T17:12:45.456Z</time>
      </trkpt>
      <trkpt lat="39.0927" lon="40.82103">
        <ele>1497.829919</ele>
        <time>2021-11-16T17:12:55.239Z</time>
      </trkpt>
      <trkpt lat="39.09245" lon="40.82101">
        <ele>1499.713264</ele>
        <time>2021-11-16T17:13:11.763Z</time>
      </trkpt>
      <trkpt lat="39.09063" lon="40.81936">
        <ele>1524.778799</ele>
        <time>2021-11-16T17:15:45.593Z</time>
      </trkpt>
      <trkpt lat="39.09023" lon="40.8191">
        <ele>1529.497238</ele>
        <time>2021-11-16T17:16:14.384Z</time>
      </trkpt>
      <trkpt lat="39.08749" lon="40.81793">
        <ele>1559.445982</ele>
        <time>2021-11-16T17:19:16.396Z</time>
      </trkpt>
      <trkpt lat="39.08662" lon="40.81696">
        <ele>1570.703985</ele>
        <time>2021-11-16T17:20:33.375Z</time>
      </trkpt>
      <trkpt lat="39.08638" lon="40.81682">
        <ele>1573.268185</ele>
        <time>2021-11-16T17:20:49.725Z</time>
      </trkpt>
      <trkpt lat="39.0853" lon="40.81652">
        <ele>1577.339858</ele>
        <time>2021-11-16T17:21:40.776Z</time>
      </trkpt>
      <trkpt lat="39.08464" lon="40.81622">
        <ele>1578.538962</ele>
        <time>2021-11-16T17:21:53.933Z</time>
      </trkpt>
      <trkpt lat="39.08449" lon="40.8161">
        <ele>1578.845796</ele>
        <time>2021-11-16T17:21:56.744Z</time>
      </trkpt>
      <trkpt lat="39.08389" lon="40.81538">
        <ele>1576.943932</ele>
        <time>2021-11-16T17:22:09.277Z</time>
      </trkpt>
      <trkpt lat="39.08372" lon="40.81525">
        <ele>1576.392205</ele>
        <time>2021-11-16T17:22:12.254Z</time>
      </trkpt>
      <trkpt lat="39.08352" lon="40.81527">
        <ele>1575.844415</ele>
        <time>2021-11-16T17:22:15.301Z</time>
      </trkpt>
      <trkpt lat="39.0834" lon="40.81533">
        <ele>1575.477204</ele>
        <time>2021-11-16T17:22:17.301Z</time>
      </trkpt>
      <trkpt lat="39.08186" lon="40.81766">
        <ele>1576.780739</ele>
        <time>2021-11-16T17:23:18.870Z</time>
      </trkpt>
      <trkpt lat="39.08168" lon="40.81778">
        <ele>1578.028293</ele>
        <time>2021-11-16T17:23:28.416Z</time>
      </trkpt>
      <trkpt lat="39.08149" lon="40.81782">
        <ele>1579.17058</ele>
        <time>2021-11-16T17:23:37.275Z</time>
      </trkpt>
      <trkpt lat="39.08129" lon="40.81776">
        <ele>1580.406983</ele>
        <time>2021-11-16T17:23:47.153Z</time>
      </trkpt>
      <trkpt lat="39.08112" lon="40.8176">
        <ele>1581.628551</ele>
        <time>2021-11-16T17:23:57.222Z</time>
      </trkpt>
      <trkpt lat="39.08102" lon="40.81737">
        <ele>1582.855758</ele>
        <time>2021-11-16T17:24:07.502Z</time>
      </trkpt>
      <trkpt lat="39.08098" lon="40.81708">
        <ele>1584.223278</ele>
        <time>2021-11-16T17:24:19.424Z</time>
      </trkpt>
      <trkpt lat="39.08081" lon="40.81393">
        <ele>1599.824866</ele>
        <time>2021-11-16T17:26:22.903Z</time>
      </trkpt>
      <trkpt lat="39.08078" lon="40.81363">
        <ele>1600.408929</ele>
        <time>2021-11-16T17:26:32.538Z</time>
      </trkpt>
      <trkpt lat="39.0807" lon="40.81332">
        <ele>1601.040151</ele>
        <time>2021-11-16T17:26:42.398Z</time>
      </trkpt>
      <trkpt lat="39.08051" lon="40.81303">
        <ele>1601.750176</ele>
        <time>2021-11-16T17:26:52.701Z</time>
      </trkpt>
      <trkpt lat="39.08025" lon="40.81281">
        <ele>1602.527951</ele>
        <time>2021-11-16T17:27:02.916Z</time>
      </trkpt>
      <trkpt lat="39.07889" lon="40.81175">
        <ele>1601.209505</ele>
        <time>2021-11-16T17:27:32.238Z</time>
      </trkpt>
      <trkpt lat="39.07778" lon="40.81081">
        <ele>1597.3435</ele>
        <time>2021-11-16T17:27:52.837Z</time>
      </trkpt>
      <trkpt lat="39.07761" lon="40.81073">
        <ele>1596.748705</ele>
        <time>2021-11-16T17:27:55.646Z</time>
      </trkpt>
      <trkpt lat="39.07742" lon="40.81075">
        <ele>1596.144271</ele>
        <time>2021-11-16T17:27:58.498Z</time>
      </trkpt>
      <trkpt lat="39.07731" lon="40.81086">
        <ele>1595.68342</ele>
        <time>2021-11-16T17:28:00.752Z</time>
      </trkpt>
      <trkpt lat="39.07726" lon="40.81103">
        <ele>1595.232494</ele>
        <time>2021-11-16T17:28:02.982Z</time>
      </trkpt>
      <trkpt lat="39.07733" lon="40.81248">
        <ele>1592.587752</ele>
        <time>2021-11-16T17:28:23.329Z</time>
      </trkpt>
      <trkpt lat="39.07731" lon="40.81302">
        <ele>1592.033353</ele>
        <time>2021-11-16T17:28:31.814Z</time>
      </trkpt>
      <trkpt lat="39.07723" lon="40.81322">
        <ele>1591.807668</ele>
        <time>2021-11-16T17:28:35.297Z</time>
      </trkpt>
      <trkpt lat="39.07712" lon="40.81336">
        <ele>1591.613246</ele>
        <time>2021-11-16T17:28:38.283Z</time>
      </trkpt>
      <trkpt lat="39.07507" lon="40.81476">
        <ele>1587.63406</ele>
        <time>2021-11-16T17:29:20.562Z</time>
      </trkpt>
      <trkpt lat="39.07481" lon="40.81488">
        <ele>1586.253903</ele>
        <time>2021-11-16T17:29:25.025Z</time>
      </trkpt>
      <trkpt lat="39.07427" lon="40.81489">
        <ele>1583.553573</ele>
        <time>2021-11-16T17:29:33.511Z</time>
      </trkpt>
      <trkpt lat="39.07399" lon="40.81474">
        <ele>1582.023124</ele>
        <time>2021-11-16T17:29:38.210Z</time>
      </trkpt>
      <trkpt lat="39.07227" lon="40.8136">
        <ele>1567.82725</ele>
        <time>2021-11-16T17:30:05.604Z</time>
      </trkpt>
      <trkpt lat="39.0708" lon="40.81276">
        <ele>1551.661338</ele>
        <time>2021-11-16T17:30:27.170Z</time>
      </trkpt>
      <trkpt lat="39.0694" lon="40.81184">
        <ele>1535.667306</ele>
        <time>2021-11-16T17:30:48.456Z</time>
      </trkpt>
      <trkpt lat="39.069" lon="40.81156">
        <ele>1531.332878</ele>
        <time>2021-11-16T17:30:54.729Z</time>
      </trkpt>
      <trkpt lat="39.06823" lon="40.81103">
        <ele>1523.520715</ele>
        <time>2021-11-16T17:31:06.844Z</time>
      </trkpt>
      <trkpt lat="39.0677" lon="40.81054">
        <ele>1518.185968</ele>
        <time>2021-11-16T17:31:15.980Z</time>
      </trkpt>
      <trkpt lat="39.06679" lon="40.80941">
        <ele>1508.355465</ele>
        <time>2021-11-16T17:31:33.793Z</time>
      </trkpt>
      <trkpt lat="39.06616" lon="40.80838">
        <ele>1501.106691</ele>
        <time>2021-11-16T17:31:48.264Z</time>
      </trkpt>
      <trkpt lat="39.06416" lon="40.80434">
        <ele>1479.894525</ele>
        <time>2021-11-16T17:32:43.421Z</time>
      </trkpt>
      <trkpt lat="39.06379" lon="40.80365">
        <ele>1476.507942</ele>
        <time>2021-11-16T17:32:53.358Z</time>
      </trkpt>
      <trkpt lat="39.06341" lon="40.8031">
        <ele>1473.622098</ele>
        <time>2021-11-16T17:33:01.970Z</time>
      </trkpt>
      <trkpt lat="39.06306" lon="40.80265">
        <ele>1471.123045</ele>
        <time>2021-11-16T17:33:09.415Z</time>
      </trkpt>
      <trkpt lat="39.06182" lon="40.80137">
        <ele>1463.196796</ele>
        <time>2021-11-16T17:33:33.313Z</time>
      </trkpt>
      <trkpt lat="39.05982" lon="40.79943">
        <ele>1452.274</ele>
        <time>2021-11-16T17:34:11.837Z</time>
      </trkpt>
      <trkpt lat="39.05944" lon="40.79896">
        <ele>1450.423672</ele>
        <time>2021-11-16T17:34:20.453Z</time>
      </trkpt>
      <trkpt lat="39.05916" lon="40.79851">
        <ele>1448.866514</ele>
        <time>2021-11-16T17:34:27.805Z</time>
      </trkpt>
      <trkpt lat="39.05897" lon="40.79799">
        <ele>1447.326108</ele>
        <time>2021-11-16T17:34:35.156Z</time>
      </trkpt>
      <trkpt lat="39.05853" lon="40.79599">
        <ele>1440.336809</ele>
        <time>2021-11-16T17:35:00.769Z</time>
      </trkpt>
      <trkpt lat="39.05839" lon="40.79531">
        <ele>1437.030791</ele>
        <time>2021-11-16T17:35:08.718Z</time>
      </trkpt>
      <trkpt lat="39.05831" lon="40.7946">
        <ele>1432.43829</ele>
        <time>2021-11-16T17:35:16.552Z</time>
      </trkpt>
      <trkpt lat="39.058" lon="40.79345">
        <ele>1424.676774</ele>
        <time>2021-11-16T17:35:29.489Z</time>
      </trkpt>
      <trkpt lat="39.05793" lon="40.79292">
        <ele>1421.293042</ele>
        <time>2021-11-16T17:35:35.276Z</time>
      </trkpt>
      <trkpt lat="39.05793" lon="40.79227">
        <ele>1417.26918</ele>
        <time>2021-11-16T17:35:42.224Z</time>
      </trkpt>
      <trkpt lat="39.05813" lon="40.79042">
        <ele>1408.034712</ele>
        <time>2021-11-16T17:36:03.050Z</time>
      </trkpt>
      <trkpt lat="39.05814" lon="40.79026">
        <ele>1407.590818</ele>
        <time>2021-11-16T17:36:04.999Z</time>
      </trkpt>
      <trkpt lat="39.05815" lon="40.79007">
        <ele>1407.075516</ele>
        <time>2021-11-16T17:36:07.344Z</time>
      </trkpt>
      <trkpt lat="39.05804" lon="40.78931">
        <ele>1404.947368</ele>
        <time>2021-11-16T17:36:17.332Z</time>
      </trkpt>
      <trkpt lat="39.05752" lon="40.7876">
        <ele>1403.315821</ele>
        <time>2021-11-16T17:36:47.791Z</time>
      </trkpt>
      <trkpt lat="39.05742" lon="40.78589">
        <ele>1401.777315</ele>
        <time>2021-11-16T17:37:18.659Z</time>
      </trkpt>
      <trkpt lat="39.05721" lon="40.78465">
        <ele>1399.24703</ele>
        <time>2021-11-16T17:37:35.163Z</time>
      </trkpt>
      <trkpt lat="39.05666" lon="40.78268">
        <ele>1390.783826</ele>
        <time>2021-11-16T17:37:58.671Z</time>
      </trkpt>
      <trkpt lat="39.05603" lon="40.78147">
        <ele>1387.262587</ele>
        <time>2021-11-16T17:38:15.854Z</time>
      </trkpt>
      <trkpt lat="39.05511" lon="40.77939">
        <ele>1386.98689</ele>
        <time>2021-11-16T17:39:02.712Z</time>
      </trkpt>
      <trkpt lat="39.05472" lon="40.77885">
        <ele>1388.025921</ele>
        <time>2021-11-16T17:39:22.679Z</time>
      </trkpt>
      <trkpt lat="39.0534" lon="40.7776">
        <ele>1390.6582</ele>
        <time>2021-11-16T17:40:12.744Z</time>
      </trkpt>
      <trkpt lat="39.05303" lon="40.77711">
        <ele>1391.476077</ele>
        <time>2021-11-16T17:40:25.732Z</time>
      </trkpt>
      <trkpt lat="39.05235" lon="40.77576">
        <ele>1392.384963</ele>
        <time>2021-11-16T17:40:54.955Z</time>
      </trkpt>
      <trkpt lat="39.05207" lon="40.7753">
        <ele>1392.675316</ele>
        <time>2021-11-16T17:41:06.203Z</time>
      </trkpt>
      <trkpt lat="39.05146" lon="40.77439">
        <ele>1394.422035</ele>
        <time>2021-11-16T17:41:33.122Z</time>
      </trkpt>
      <trkpt lat="39.05079" lon="40.77326">
        <ele>1396.874198</ele>
        <time>2021-11-16T17:42:10.202Z</time>
      </trkpt>
      <trkpt lat="39.05007" lon="40.77218">
        <ele>1398.915279</ele>
        <time>2021-11-16T17:42:45.464Z</time>
      </trkpt>
      <trkpt lat="39.04974" lon="40.77177">
        <ele>1399.756476</ele>
        <time>2021-11-16T17:42:57.982Z</time>
      </trkpt>
      <trkpt lat="39.04935" lon="40.77141">
        <ele>1399.628431</ele>
        <time>2021-11-16T17:43:09.712Z</time>
      </trkpt>
      <trkpt lat="39.049" lon="40.77119">
        <ele>1398.912247</ele>
        <time>2021-11-16T17:43:18.288Z</time>
      </trkpt>
      <trkpt lat="39.04741" lon="40.77043">
        <ele>1392.795922</ele>
        <time>2021-11-16T17:43:46.134Z</time>
      </trkpt>
      <trkpt lat="39.04715" lon="40.77024">
        <ele>1390.710282</ele>
        <time>2021-11-16T17:43:50.346Z</time>
      </trkpt>
      <trkpt lat="39.047" lon="40.76997">
        <ele>1388.861384</ele>
        <time>2021-11-16T17:43:53.981Z</time>
      </trkpt>
      <trkpt lat="39.0469" lon="40.76959">
        <ele>1386.654667</ele>
        <time>2021-11-16T17:43:58.251Z</time>
      </trkpt>
      <trkpt lat="39.0468" lon="40.76849">
        <ele>1378.452181</ele>
        <time>2021-11-16T17:44:09.752Z</time>
      </trkpt>
      <trkpt lat="39.04669" lon="40.76799">
        <ele>1373.804221</ele>
        <time>2021-11-16T17:44:15.134Z</time>
      </trkpt>
      <trkpt lat="39.04597" lon="40.76596">
        <ele>1356.381227</ele>
        <time>2021-11-16T17:44:38.339Z</time>
      </trkpt>
      <trkpt lat="39.04576" lon="40.76554">
        <ele>1353.037826</ele>
        <time>2021-11-16T17:44:43.830Z</time>
      </trkpt>
      <trkpt lat="39.04502" lon="40.76464">
        <ele>1346.557957</ele>
        <time>2021-11-16T17:44:59.081Z</time>
      </trkpt>
      <trkpt lat="39.04486" lon="40.7643">
        <ele>1345.488229</ele>
        <time>2021-11-16T17:45:04.071Z</time>
      </trkpt>
      <trkpt lat="39.04479" lon="40.76392">
        <ele>1344.399744</ele>
        <time>2021-11-16T17:45:09.254Z</time>
      </trkpt>
      <trkpt lat="39.04476" lon="40.76272">
        <ele>1341.160368</ele>
        <time>2021-11-16T17:45:24.850Z</time>
      </trkpt>
      <trkpt lat="39.04396" lon="40.75929">
        <ele>1332.452898</ele>
        <time>2021-11-16T17:46:09.548Z</time>
      </trkpt>
      <trkpt lat="39.04379" lon="40.75886">
        <ele>1331.426013</ele>
        <time>2021-11-16T17:46:15.825Z</time>
      </trkpt>
      <trkpt lat="39.04358" lon="40.75848">
        <ele>1330.76516</ele>
        <time>2021-11-16T17:46:22.502Z</time>
      </trkpt>
      <trkpt lat="39.04272" lon="40.75758">
        <ele>1331.324722</ele>
        <time>2021-11-16T17:46:47.774Z</time>
      </trkpt>
      <trkpt lat="39.04094" lon="40.7562">
        <ele>1334.231546</ele>
        <time>2021-11-16T17:47:51.903Z</time>
      </trkpt>
      <trkpt lat="39.04045" lon="40.7557">
        <ele>1334.25885</ele>
        <time>2021-11-16T17:48:08.005Z</time>
      </trkpt>
      <trkpt lat="39.04022" lon="40.75542">
        <ele>1333.763589</ele>
        <time>2021-11-16T17:48:14.600Z</time>
      </trkpt>
      <trkpt lat="39.03952" lon="40.75433">
        <ele>1332.048562</ele>
        <time>2021-11-16T17:48:33.400Z</time>
      </trkpt>
      <trkpt lat="39.03905" lon="40.75375">
        <ele>1329.402268</ele>
        <time>2021-11-16T17:48:43.547Z</time>
      </trkpt>
      <trkpt lat="39.0388" lon="40.75327">
        <ele>1327.487792</ele>
        <time>2021-11-16T17:48:50.345Z</time>
      </trkpt>
      <trkpt lat="39.03869" lon="40.75283">
        <ele>1325.963145</ele>
        <time>2021-11-16T17:48:55.777Z</time>
      </trkpt>
      <trkpt lat="39.03863" lon="40.75137">
        <ele>1321.100214</ele>
        <time>2021-11-16T17:49:13.349Z</time>
      </trkpt>
      <trkpt lat="39.03854" lon="40.75067">
        <ele>1318.736938</ele>
        <time>2021-11-16T17:49:21.995Z</time>
      </trkpt>
      <trkpt lat="39.03844" lon="40.75029">
        <ele>1317.409307</ele>
        <time>2021-11-16T17:49:26.842Z</time>
      </trkpt>
      <trkpt lat="39.03817" lon="40.74963">
        <ele>1314.488377</ele>
        <time>2021-11-16T17:49:35.852Z</time>
      </trkpt>
      <trkpt lat="39.03749" lon="40.74807">
        <ele>1306.981731</ele>
        <time>2021-11-16T17:49:56.450Z</time>
      </trkpt>
      <trkpt lat="39.03725" lon="40.74765">
        <ele>1304.415975</ele>
        <time>2021-11-16T17:50:02.326Z</time>
      </trkpt>
      <trkpt lat="39.03682" lon="40.7472">
        <ele>1300.866634</ele>
        <time>2021-11-16T17:50:10.310Z</time>
      </trkpt>
      <trkpt lat="39.03556" lon="40.74701">
        <ele>1293.02554</ele>
        <time>2021-11-16T17:50:28.713Z</time>
      </trkpt>
      <trkpt lat="39.03519" lon="40.74688">
        <ele>1290.85772</ele>
        <time>2021-11-16T17:50:34.393Z</time>
      </trkpt>
      <trkpt lat="39.03481" lon="40.74674">
        <ele>1288.621111</ele>
        <time>2021-11-16T17:50:40.304Z</time>
      </trkpt>
      <trkpt lat="39.03438" lon="40.74644">
        <ele>1285.885322</ele>
        <time>2021-11-16T17:50:47.602Z</time>
      </trkpt>
      <trkpt lat="39.03257" lon="40.74426">
        <ele>1272.096389</ele>
        <time>2021-11-16T17:51:24.707Z</time>
      </trkpt>
      <trkpt lat="39.0324" lon="40.74383">
        <ele>1269.766055</ele>
        <time>2021-11-16T17:51:30.102Z</time>
      </trkpt>
      <trkpt lat="39.03203" lon="40.74206">
        <ele>1261.821239</ele>
        <time>2021-11-16T17:51:50.616Z</time>
      </trkpt>
      <trkpt lat="39.03129" lon="40.7399">
        <ele>1254.407105</ele>
        <time>2021-11-16T17:52:19.642Z</time>
      </trkpt>
      <trkpt lat="39.03113" lon="40.73901">
        <ele>1252.494363</ele>
        <time>2021-11-16T17:52:31.945Z</time>
      </trkpt>
      <trkpt lat="39.03092" lon="40.73847">
        <ele>1251.240706</ele>
        <time>2021-11-16T17:52:40.066Z</time>
      </trkpt>
      <trkpt lat="39.03072" lon="40.73809">
        <ele>1250.890765</ele>
        <time>2021-11-16T17:52:46.335Z</time>
      </trkpt>
      <trkpt lat="39.03026" lon="40.73761">
        <ele>1250.420976</ele>
        <time>2021-11-16T17:52:57.645Z</time>
      </trkpt>
      <trkpt lat="39.02974" lon="40.73725">
        <ele>1249.959061</ele>
        <time>2021-11-16T17:53:09.907Z</time>
      </trkpt>
      <trkpt lat="39.02936" lon="40.7371">
        <ele>1249.80723</ele>
        <time>2021-11-16T17:53:19.216Z</time>
      </trkpt>
      <trkpt lat="39.02904" lon="40.73698">
        <ele>1250.05913</ele>
        <time>2021-11-16T17:53:27.808Z</time>
      </trkpt>
      <trkpt lat="39.02869" lon="40.73678">
        <ele>1250.34508</ele>
        <time>2021-11-16T17:53:37.308Z</time>
      </trkpt>
      <trkpt lat="39.02771" lon="40.736">
        <ele>1251.185585</ele>
        <time>2021-11-16T17:54:08.055Z</time>
      </trkpt>
      <trkpt lat="39.02751" lon="40.73584">
        <ele>1251.324558</ele>
        <time>2021-11-16T17:54:13.591Z</time>
      </trkpt>
      <trkpt lat="39.0267" lon="40.73499">
        <ele>1251.925765</ele>
        <time>2021-11-16T17:54:37.686Z</time>
      </trkpt>
      <trkpt lat="39.02597" lon="40.7347">
        <ele>1252.3107</ele>
        <time>2021-11-16T17:54:57.910Z</time>
      </trkpt>
      <trkpt lat="39.02553" lon="40.73458">
        <ele>1252.510351</ele>
        <time>2021-11-16T17:55:09.335Z</time>
      </trkpt>
      <trkpt lat="39.02453" lon="40.73432">
        <ele>1252.780635</ele>
        <time>2021-11-16T17:55:32.921Z</time>
      </trkpt>
      <trkpt lat="39.02418" lon="40.73416">
        <ele>1252.188157</ele>
        <time>2021-11-16T17:55:40.659Z</time>
      </trkpt>
      <trkpt lat="39.02386" lon="40.73365">
        <ele>1251.380578</ele>
        <time>2021-11-16T17:55:50.381Z</time>
      </trkpt>
      <trkpt lat="39.02204" lon="40.72989">
        <ele>1242.593493</ele>
        <time>2021-11-16T17:56:47.702Z</time>
      </trkpt>
      <trkpt lat="39.02173" lon="40.72907">
        <ele>1240.505966</ele>
        <time>2021-11-16T17:56:59.205Z</time>
      </trkpt>
      <trkpt lat="39.02136" lon="40.72722">
        <ele>1237.109292</ele>
        <time>2021-11-16T17:57:23.979Z</time>
      </trkpt>
      <trkpt lat="39.02109" lon="40.72654">
        <ele>1235.849446</ele>
        <time>2021-11-16T17:57:34.989Z</time>
      </trkpt>
      <trkpt lat="39.01996" lon="40.7242">
        <ele>1235.692371</ele>
        <time>2021-11-16T17:58:25.392Z</time>
      </trkpt>
      <trkpt lat="39.01923" lon="40.72251">
        <ele>1234.463609</ele>
        <time>2021-11-16T17:58:56.387Z</time>
      </trkpt>
      <trkpt lat="39.0191" lon="40.72209">
        <ele>1232.546773</ele>
        <time>2021-11-16T17:59:02.124Z</time>
      </trkpt>
      <trkpt lat="39.01888" lon="40.72064">
        <ele>1226.224212</ele>
        <time>2021-11-16T17:59:19.125Z</time>
      </trkpt>
      <trkpt lat="39.01877" lon="40.71928">
        <ele>1217.917207</ele>
        <time>2021-11-16T17:59:33.607Z</time>
      </trkpt>
      <trkpt lat="39.01887" lon="40.71873">
        <ele>1214.19281</ele>
        <time>2021-11-16T17:59:39.685Z</time>
      </trkpt>
      <trkpt lat="39.01901" lon="40.71841">
        <ele>1211.731124</ele>
        <time>2021-11-16T17:59:43.679Z</time>
      </trkpt>
      <trkpt lat="39.01931" lon="40.71777">
        <ele>1208.085768</ele>
        <time>2021-11-16T17:59:51.966Z</time>
      </trkpt>
      <trkpt lat="39.01943" lon="40.71736">
        <ele>1206.559038</ele>
        <time>2021-11-16T17:59:56.975Z</time>
      </trkpt>
      <trkpt lat="39.01927" lon="40.71574">
        <ele>1201.207108</ele>
        <time>2021-11-16T18:00:17.553Z</time>
      </trkpt>
      <trkpt lat="39.0191" lon="40.71535">
        <ele>1200.56024</ele>
        <time>2021-11-16T18:00:23.694Z</time>
      </trkpt>
      <trkpt lat="39.01861" lon="40.71461">
        <ele>1199.154783</ele>
        <time>2021-11-16T18:00:37.002Z</time>
      </trkpt>
      <trkpt lat="39.01801" lon="40.71342">
        <ele>1197.862464</ele>
        <time>2021-11-16T18:00:58.020Z</time>
      </trkpt>
      <trkpt lat="39.01764" lon="40.7124">
        <ele>1197.49391</ele>
        <time>2021-11-16T18:01:16.757Z</time>
      </trkpt>
      <trkpt lat="39.01734" lon="40.71135">
        <ele>1196.969247</ele>
        <time>2021-11-16T18:01:36.837Z</time>
      </trkpt>
      <trkpt lat="39.01682" lon="40.71018">
        <ele>1196.189793</ele>
        <time>2021-11-16T18:01:57.961Z</time>
      </trkpt>
      <trkpt lat="39.01503" lon="40.707">
        <ele>1190.021025</ele>
        <time>2021-11-16T18:02:50.561Z</time>
      </trkpt>
      <trkpt lat="39.0143" lon="40.70593">
        <ele>1187.962248</ele>
        <time>2021-11-16T18:03:10.175Z</time>
      </trkpt>
      <trkpt lat="39.01128" lon="40.70223">
        <ele>1183.59566</ele>
        <time>2021-11-16T18:04:29.879Z</time>
      </trkpt>
      <trkpt lat="39.00981" lon="40.70032">
        <ele>1183.192063</ele>
        <time>2021-11-16T18:05:16.025Z</time>
      </trkpt>
      <trkpt lat="39.00903" lon="40.69973">
        <ele>1183.613153</ele>
        <time>2021-11-16T18:05:36.761Z</time>
      </trkpt>
      <trkpt lat="39.00866" lon="40.69953">
        <ele>1184.171874</ele>
        <time>2021-11-16T18:05:46.163Z</time>
      </trkpt>
      <trkpt lat="39.00618" lon="40.69861">
        <ele>1189.496942</ele>
        <time>2021-11-16T18:07:05.422Z</time>
      </trkpt>
      <trkpt lat="39.00573" lon="40.6983">
        <ele>1190.981837</ele>
        <time>2021-11-16T18:07:25.204Z</time>
      </trkpt>
      <trkpt lat="39.00489" lon="40.69758">
        <ele>1194.815693</ele>
        <time>2021-11-16T18:08:03.708Z</time>
      </trkpt>
      <trkpt lat="39.00463" lon="40.69721">
        <ele>1196.262694</ele>
        <time>2021-11-16T18:08:17.151Z</time>
      </trkpt>
      <trkpt lat="39.00397" lon="40.69588">
        <ele>1201.306959</ele>
        <time>2021-11-16T18:09:04.532Z</time>
      </trkpt>
      <trkpt lat="39.00379" lon="40.69565">
        <ele>1202.375967</ele>
        <time>2021-11-16T18:09:14.303Z</time>
      </trkpt>
      <trkpt lat="39.0034" lon="40.69523">
        <ele>1204.468853</ele>
        <time>2021-11-16T18:09:34.620Z</time>
      </trkpt>
      <trkpt lat="39.00269" lon="40.69467">
        <ele>1208.226513</ele>
        <time>2021-11-16T18:10:08.785Z</time>
      </trkpt>
      <trkpt lat="39.00201" lon="40.69428">
        <ele>1211.580009</ele>
        <time>2021-11-16T18:10:39.582Z</time>
      </trkpt>
      <trkpt lat="39.00156" lon="40.69379">
        <ele>1213.990723</ele>
        <time>2021-11-16T18:11:01.935Z</time>
      </trkpt>
      <trkpt lat="39.00106" lon="40.6932">
        <ele>1216.462222</ele>
        <time>2021-11-16T18:11:26.755Z</time>
      </trkpt>
      <trkpt lat="39.00099" lon="40.69313">
        <ele>1216.784281</ele>
        <time>2021-11-16T18:11:30.049Z</time>
      </trkpt>
      <trkpt lat="39.00047" lon="40.69257">
        <ele>1219.278501</ele>
        <time>2021-11-16T18:11:55.118Z</time>
      </trkpt>
      <trkpt lat="39.00009" lon="40.69216">
        <ele>1219.630624</ele>
        <time>2021-11-16T18:12:13.598Z</time>
      </trkpt>
      <trkpt lat="38.99915" lon="40.69133">
        <ele>1220.152339</ele>
        <time>2021-11-16T18:12:40.473Z</time>
      </trkpt>
      <trkpt lat="38.99882" lon="40.69103">
        <ele>1219.137634</ele>
        <time>2021-11-16T18:12:46.982Z</time>
      </trkpt>
      <trkpt lat="38.99822" lon="40.6905">
        <ele>1215.024309</ele>
        <time>2021-11-16T18:12:57.814Z</time>
      </trkpt>
      <trkpt lat="38.99604" lon="40.68895">
        <ele>1199.42826</ele>
        <time>2021-11-16T18:13:33.346Z</time>
      </trkpt>
      <trkpt lat="38.99559" lon="40.68863">
        <ele>1197.153244</ele>
        <time>2021-11-16T18:13:41.447Z</time>
      </trkpt>
      <trkpt lat="38.99523" lon="40.68837">
        <ele>1195.822202</ele>
        <time>2021-11-16T18:13:48.032Z</time>
      </trkpt>
      <trkpt lat="38.99464" lon="40.68793">
        <ele>1193.56635</ele>
        <time>2021-11-16T18:13:59.849Z</time>
      </trkpt>
      <trkpt lat="38.99386" lon="40.68702">
        <ele>1190.336971</ele>
        <time>2021-11-16T18:14:17.441Z</time>
      </trkpt>
      <trkpt lat="38.99335" lon="40.68603">
        <ele>1187.624367</ele>
        <time>2021-11-16T18:14:32.453Z</time>
      </trkpt>
      <trkpt lat="38.99278" lon="40.68464">
        <ele>1183.791508</ele>
        <time>2021-11-16T18:14:52.513Z</time>
      </trkpt>
      <trkpt lat="38.99254" lon="40.68428">
        <ele>1182.59145</ele>
        <time>2021-11-16T18:14:58.794Z</time>
      </trkpt>
      <trkpt lat="38.99199" lon="40.68364">
        <ele>1179.8964</ele>
        <time>2021-11-16T18:15:10.482Z</time>
      </trkpt>
      <trkpt lat="38.99183" lon="40.68348">
        <ele>1179.026049</ele>
        <time>2021-11-16T18:15:13.669Z</time>
      </trkpt>
      <trkpt lat="38.99137" lon="40.683">
        <ele>1176.526365</ele>
        <time>2021-11-16T18:15:22.756Z</time>
      </trkpt>
      <trkpt lat="38.99128" lon="40.68291">
        <ele>1176.037565</ele>
        <time>2021-11-16T18:15:24.458Z</time>
      </trkpt>
      <trkpt lat="38.99083" lon="40.68227">
        <ele>1173.32325</ele>
        <time>2021-11-16T18:15:34.855Z</time>
      </trkpt>
      <trkpt lat="38.99066" lon="40.68197">
        <ele>1172.385694</ele>
        <time>2021-11-16T18:15:39.394Z</time>
      </trkpt>
      <trkpt lat="38.99048" lon="40.68166">
        <ele>1171.426399</ele>
        <time>2021-11-16T18:15:44.004Z</time>
      </trkpt>
      <trkpt lat="38.99045" lon="40.68152">
        <ele>1171.076728</ele>
        <time>2021-11-16T18:15:45.723Z</time>
      </trkpt>
      <trkpt lat="38.9902" lon="40.6809">
        <ele>1169.332253</ele>
        <time>2021-11-16T18:15:54.693Z</time>
      </trkpt>
      <trkpt lat="38.99004" lon="40.68047">
        <ele>1168.139445</ele>
        <time>2021-11-16T18:16:01.123Z</time>
      </trkpt>
      <trkpt lat="38.98982" lon="40.68004">
        <ele>1167.563494</ele>
        <time>2021-11-16T18:16:08.549Z</time>
      </trkpt>
      <trkpt lat="38.98922" lon="40.67883">
        <ele>1166.343191</ele>
        <time>2021-11-16T18:16:31.207Z</time>
      </trkpt>
      <trkpt lat="38.9886" lon="40.67756">
        <ele>1164.669343</ele>
        <time>2021-11-16T18:16:52.965Z</time>
      </trkpt>
      <trkpt lat="38.98843" lon="40.6773">
        <ele>1164.259248</ele>
        <time>2021-11-16T18:16:57.603Z</time>
      </trkpt>
      <trkpt lat="38.98813" lon="40.67697">
        <ele>1163.63962</ele>
        <time>2021-11-16T18:17:04.593Z</time>
      </trkpt>
      <trkpt lat="38.98812" lon="40.67692">
        <ele>1163.577001</ele>
        <time>2021-11-16T18:17:05.295Z</time>
      </trkpt>
      <trkpt lat="38.9881" lon="40.67687">
        <ele>1163.515956</ele>
        <time>2021-11-16T18:17:05.995Z</time>
      </trkpt>
      <trkpt lat="38.98807" lon="40.67682">
        <ele>1163.430079</ele>
        <time>2021-11-16T18:17:06.877Z</time>
      </trkpt>
      <trkpt lat="38.98797" lon="40.67677">
        <ele>1163.261672</ele>
        <time>2021-11-16T18:17:08.918Z</time>
      </trkpt>
      <trkpt lat="38.98791" lon="40.67678">
        <ele>1163.176348</ele>
        <time>2021-11-16T18:17:09.820Z</time>
      </trkpt>
      <trkpt lat="38.98776" lon="40.67665">
        <ele>1163.092814</ele>
        <time>2021-11-16T18:17:12.952Z</time>
      </trkpt>
      <trkpt lat="38.9869" lon="40.67635">
        <ele>1162.843938</ele>
        <time>2021-11-16T18:17:30.225Z</time>
      </trkpt>
      <trkpt lat="38.98673" lon="40.67631">
        <ele>1162.795553</ele>
        <time>2021-11-16T18:17:34.498Z</time>
      </trkpt>
      <trkpt lat="38.98615" lon="40.67617">
        <ele>1162.648046</ele>
        <time>2021-11-16T18:17:49.462Z</time>
      </trkpt>
      <trkpt lat="38.98604" lon="40.67616">
        <ele>1162.800885</ele>
        <time>2021-11-16T18:17:53.751Z</time>
      </trkpt>
      <trkpt lat="38.98544" lon="40.67614">
        <ele>1163.586455</ele>
        <time>2021-11-16T18:18:10.058Z</time>
      </trkpt>
      <trkpt lat="38.98517" lon="40.6762">
        <ele>1163.954601</ele>
        <time>2021-11-16T18:18:18.397Z</time>
      </trkpt>
      <trkpt lat="38.98493" lon="40.67628">
        <ele>1164.274226</ele>
        <time>2021-11-16T18:18:26.448Z</time>
      </trkpt>
      <trkpt lat="38.98481" lon="40.67634">
        <ele>1164.448024</ele>
        <time>2021-11-16T18:18:29.331Z</time>
      </trkpt>
      <trkpt lat="38.98383" lon="40.67698">
        <ele>1164.745409</ele>
        <time>2021-11-16T18:18:56.743Z</time>
      </trkpt>
      <trkpt lat="38.98358" lon="40.67707">
        <ele>1164.639862</ele>
        <time>2021-11-16T18:19:02.557Z</time>
      </trkpt>
      <trkpt lat="38.98343" lon="40.67711">
        <ele>1164.57774</ele>
        <time>2021-11-16T18:19:05.386Z</time>
      </trkpt>
      <trkpt lat="38.9831" lon="40.67713">
        <ele>1164.446687</ele>
        <time>2021-11-16T18:19:11.540Z</time>
      </trkpt>
      <trkpt lat="38.982" lon="40.67695">
        <ele>1163.875313</ele>
        <time>2021-11-16T18:19:31.975Z</time>
      </trkpt>
      <trkpt lat="38.98186" lon="40.67688">
        <ele>1163.78834</ele>
        <time>2021-11-16T18:19:34.880Z</time>
      </trkpt>
      <trkpt lat="38.98161" lon="40.67669">
        <ele>1163.620473</ele>
        <time>2021-11-16T18:19:40.850Z</time>
      </trkpt>
      <trkpt lat="38.98107" lon="40.67591">
        <ele>1163.604632</ele>
        <time>2021-11-16T18:19:59.443Z</time>
      </trkpt>
      <trkpt lat="38.98078" lon="40.67564">
        <ele>1164.279341</ele>
        <time>2021-11-16T18:20:08.559Z</time>
      </trkpt>
      <trkpt lat="38.97727" lon="40.67343">
        <ele>1174.276603</ele>
        <time>2021-11-16T18:22:16.261Z</time>
      </trkpt>
      <trkpt lat="38.97679" lon="40.67295">
        <ele>1176.347882</ele>
        <time>2021-11-16T18:22:38.341Z</time>
      </trkpt>
      <trkpt lat="38.97535" lon="40.67063">
        <ele>1187.283513</ele>
        <time>2021-11-16T18:24:15.380Z</time>
      </trkpt>
      <trkpt lat="38.975" lon="40.6702">
        <ele>1189.782847</ele>
        <time>2021-11-16T18:24:37.072Z</time>
      </trkpt>
      <trkpt lat="38.97475" lon="40.66991">
        <ele>1191.538333</ele>
        <time>2021-11-16T18:24:51.874Z</time>
      </trkpt>
      <trkpt lat="38.97473" lon="40.66986">
        <ele>1191.800854</ele>
        <time>2021-11-16T18:24:54.068Z</time>
      </trkpt>
      <trkpt lat="38.97469" lon="40.66982">
        <ele>1192.066642</ele>
        <time>2021-11-16T18:24:56.105Z</time>
      </trkpt>
      <trkpt lat="38.97464" lon="40.6698">
        <ele>1192.326342</ele>
        <time>2021-11-16T18:24:58.196Z</time>
      </trkpt>
      <trkpt lat="38.97459" lon="40.6698">
        <ele>1192.567655</ele>
        <time>2021-11-16T18:25:00.058Z</time>
      </trkpt>
      <trkpt lat="38.97443" lon="40.6697">
        <ele>1193.50734</ele>
        <time>2021-11-16T18:25:08.308Z</time>
      </trkpt>
      <trkpt lat="38.97334" lon="40.66928">
        <ele>1198.434257</ele>
        <time>2021-11-16T18:25:56.018Z</time>
      </trkpt>
      <trkpt lat="38.97246" lon="40.66862">
        <ele>1202.229786</ele>
        <time>2021-11-16T18:26:31.595Z</time>
      </trkpt>
      <trkpt lat="38.97119" lon="40.66712">
        <ele>1205.841423</ele>
        <time>2021-11-16T18:27:24.209Z</time>
      </trkpt>
      <trkpt lat="38.97035" lon="40.66634">
        <ele>1207.310048</ele>
        <time>2021-11-16T18:27:51.983Z</time>
      </trkpt>
      <trkpt lat="38.9689" lon="40.66515">
        <ele>1209.758287</ele>
        <time>2021-11-16T18:28:39.478Z</time>
      </trkpt>
      <trkpt lat="38.96849" lon="40.66477">
        <ele>1210.521487</ele>
        <time>2021-11-16T18:28:54.368Z</time>
      </trkpt>
      <trkpt lat="38.96692" lon="40.66304">
        <ele>1212.920529</ele>
        <time>2021-11-16T18:29:53.573Z</time>
      </trkpt>
      <trkpt lat="38.96501" lon="40.6617">
        <ele>1210.129936</ele>
        <time>2021-11-16T18:30:34.283Z</time>
      </trkpt>
      <trkpt lat="38.96317" lon="40.65944">
        <ele>1201.102941</ele>
        <time>2021-11-16T18:31:13.604Z</time>
      </trkpt>
      <trkpt lat="38.96272" lon="40.65903">
        <ele>1199.428644</ele>
        <time>2021-11-16T18:31:23.014Z</time>
      </trkpt>
      <trkpt lat="38.96227" lon="40.65876">
        <ele>1198.372409</ele>
        <time>2021-11-16T18:31:32.215Z</time>
      </trkpt>
      <trkpt lat="38.95803" lon="40.65736">
        <ele>1195.992067</ele>
        <time>2021-11-16T18:33:10.331Z</time>
      </trkpt>
      <trkpt lat="38.95743" lon="40.65709">
        <ele>1194.657842</ele>
        <time>2021-11-16T18:33:20.398Z</time>
      </trkpt>
      <trkpt lat="38.95661" lon="40.65647">
        <ele>1189.439687</ele>
        <time>2021-11-16T18:33:34.549Z</time>
      </trkpt>
      <trkpt lat="38.95601" lon="40.6557">
        <ele>1183.923425</ele>
        <time>2021-11-16T18:33:46.582Z</time>
      </trkpt>
      <trkpt lat="38.95562" lon="40.65482">
        <ele>1177.795437</ele>
        <time>2021-11-16T18:33:57.656Z</time>
      </trkpt>
      <trkpt lat="38.95483" lon="40.65279">
        <ele>1163.704604</ele>
        <time>2021-11-16T18:34:22.183Z</time>
      </trkpt>
      <trkpt lat="38.95451" lon="40.65221">
        <ele>1159.724191</ele>
        <time>2021-11-16T18:34:29.963Z</time>
      </trkpt>
      <trkpt lat="38.95401" lon="40.65153">
        <ele>1154.566939</ele>
        <time>2021-11-16T18:34:40.428Z</time>
      </trkpt>
      <trkpt lat="38.94722" lon="40.64484">
        <ele>1133.282705</ele>
        <time>2021-11-16T18:37:06.135Z</time>
      </trkpt>
      <trkpt lat="38.94524" lon="40.64306">
        <ele>1131.400421</ele>
        <time>2021-11-16T18:37:54.780Z</time>
      </trkpt>
      <trkpt lat="38.94409" lon="40.6422">
        <ele>1131.802267</ele>
        <time>2021-11-16T18:38:26.132Z</time>
      </trkpt>
      <trkpt lat="38.93988" lon="40.63925">
        <ele>1136.087969</ele>
        <time>2021-11-16T18:40:33.910Z</time>
      </trkpt>
      <trkpt lat="38.93959" lon="40.63893">
        <ele>1136.248253</ele>
        <time>2021-11-16T18:40:42.485Z</time>
      </trkpt>
      <trkpt lat="38.93891" lon="40.63772">
        <ele>1135.786409</ele>
        <time>2021-11-16T18:41:06.218Z</time>
      </trkpt>
      <trkpt lat="38.93872" lon="40.63739">
        <ele>1135.466683</ele>
        <time>2021-11-16T18:41:12.310Z</time>
      </trkpt>
      <trkpt lat="38.93792" lon="40.63595">
        <ele>1133.478565</ele>
        <time>2021-11-16T18:41:37.833Z</time>
      </trkpt>
      <trkpt lat="38.93502" lon="40.6308">
        <ele>1122.410291</ele>
        <time>2021-11-16T18:43:03.296Z</time>
      </trkpt>
      <trkpt lat="38.93459" lon="40.63011">
        <ele>1120.046659</ele>
        <time>2021-11-16T18:43:14.051Z</time>
      </trkpt>
      <trkpt lat="38.93384" lon="40.62913">
        <ele>1116.589007</ele>
        <time>2021-11-16T18:43:31.069Z</time>
      </trkpt>
      <trkpt lat="38.93354" lon="40.62871">
        <ele>1116.249382</ele>
        <time>2021-11-16T18:43:38.874Z</time>
      </trkpt>
      <trkpt lat="38.93251" lon="40.62739">
        <ele>1115.433012</ele>
        <time>2021-11-16T18:44:10.896Z</time>
      </trkpt>
      <trkpt lat="38.93191" lon="40.62664">
        <ele>1116.244814</ele>
        <time>2021-11-16T18:44:34.764Z</time>
      </trkpt>
      <trkpt lat="38.93151" lon="40.62596">
        <ele>1116.890027</ele>
        <time>2021-11-16T18:44:51.577Z</time>
      </trkpt>
      <trkpt lat="38.92997" lon="40.62225">
        <ele>1120.82695</ele>
        <time>2021-11-16T18:46:15.110Z</time>
      </trkpt>
      <trkpt lat="38.92965" lon="40.62161">
        <ele>1122.231679</ele>
        <time>2021-11-16T18:46:36.870Z</time>
      </trkpt>
      <trkpt lat="38.92884" lon="40.6204">
        <ele>1127.949528</ele>
        <time>2021-11-16T18:47:29.588Z</time>
      </trkpt>
      <trkpt lat="38.92802" lon="40.61937">
        <ele>1131.598005</ele>
        <time>2021-11-16T18:48:16.537Z</time>
      </trkpt>
      <trkpt lat="38.92719" lon="40.61846">
        <ele>1134.061893</ele>
        <time>2021-11-16T18:48:47.713Z</time>
      </trkpt>
      <trkpt lat="38.92559" lon="40.61695">
        <ele>1128.501229</ele>
        <time>2021-11-16T18:49:20.722Z</time>
      </trkpt>
      <trkpt lat="38.9249" lon="40.61616">
        <ele>1123.184635</ele>
        <time>2021-11-16T18:49:34.284Z</time>
      </trkpt>
      <trkpt lat="38.92378" lon="40.61463">
        <ele>1112.909556</ele>
        <time>2021-11-16T18:49:57.677Z</time>
      </trkpt>
      <trkpt lat="38.92211" lon="40.61186">
        <ele>1096.369536</ele>
        <time>2021-11-16T18:50:37.497Z</time>
      </trkpt>
      <trkpt lat="38.91783" lon="40.60267">
        <ele>1065.5449</ele>
        <time>2021-11-16T18:52:50.210Z</time>
      </trkpt>
      <trkpt lat="38.91727" lon="40.60172">
        <ele>1062.83336</ele>
        <time>2021-11-16T18:53:05.561Z</time>
      </trkpt>
      <trkpt lat="38.91694" lon="40.60125">
        <ele>1061.756539</ele>
        <time>2021-11-16T18:53:13.945Z</time>
      </trkpt>
      <trkpt lat="38.91631" lon="40.6005">
        <ele>1059.870201</ele>
        <time>2021-11-16T18:53:29.127Z</time>
      </trkpt>
      <trkpt lat="38.91342" lon="40.59751">
        <ele>1054.409606</ele>
        <time>2021-11-16T18:54:37.680Z</time>
      </trkpt>
      <trkpt lat="38.91323" lon="40.59719">
        <ele>1054.014735</ele>
        <time>2021-11-16T18:54:43.483Z</time>
      </trkpt>
      <trkpt lat="38.91321" lon="40.59712">
        <ele>1053.948545</ele>
        <time>2021-11-16T18:54:44.480Z</time>
      </trkpt>
      <trkpt lat="38.91328" lon="40.59638">
        <ele>1053.213834</ele>
        <time>2021-11-16T18:54:55.357Z</time>
      </trkpt>
      <trkpt lat="38.91337" lon="40.5951">
        <ele>1052.047502</ele>
        <time>2021-11-16T18:55:14.321Z</time>
      </trkpt>
      <trkpt lat="38.91331" lon="40.59391">
        <ele>1051.376625</ele>
        <time>2021-11-16T18:55:32.578Z</time>
      </trkpt>
      <trkpt lat="38.91317" lon="40.5925">
        <ele>1050.854995</ele>
        <time>2021-11-16T18:55:55.373Z</time>
      </trkpt>
      <trkpt lat="38.91246" lon="40.58911">
        <ele>1051.142091</ele>
        <time>2021-11-16T18:56:57.524Z</time>
      </trkpt>
      <trkpt lat="38.90926" lon="40.57378">
        <ele>1056.906314</ele>
        <time>2021-11-16T19:01:57.850Z</time>
      </trkpt>
      <trkpt lat="38.90922" lon="40.57356">
        <ele>1056.918571</ele>
        <time>2021-11-16T19:02:01.580Z</time>
      </trkpt>
      <trkpt lat="38.90884" lon="40.5718">
        <ele>1056.478611</ele>
        <time>2021-11-16T19:02:30.119Z</time>
      </trkpt>
      <trkpt lat="38.90878" lon="40.57148">
        <ele>1056.344674</ele>
        <time>2021-11-16T19:02:35.105Z</time>
      </trkpt>
      <trkpt lat="38.90868" lon="40.57091">
        <ele>1056.103814</ele>
        <time>2021-11-16T19:02:44.590Z</time>
      </trkpt>
      <trkpt lat="38.90854" lon="40.56965">
        <ele>1056.090824</ele>
        <time>2021-11-16T19:03:06.007Z</time>
      </trkpt>
      <trkpt lat="38.9082" lon="40.56369">
        <ele>1056.610959</ele>
        <time>2021-11-16T19:04:53.417Z</time>
      </trkpt>
      <trkpt lat="38.90819" lon="40.56356">
        <ele>1056.553442</ele>
        <time>2021-11-16T19:04:55.445Z</time>
      </trkpt>
      <trkpt lat="38.90811" lon="40.56221">
        <ele>1055.934668</ele>
        <time>2021-11-16T19:05:16.819Z</time>
      </trkpt>
      <trkpt lat="38.90808" lon="40.56178">
        <ele>1055.739697</ele>
        <time>2021-11-16T19:05:23.465Z</time>
      </trkpt>
      <trkpt lat="38.90796" lon="40.55891">
        <ele>1053.326318</ele>
        <time>2021-11-16T19:06:06.503Z</time>
      </trkpt>
      <trkpt lat="38.90794" lon="40.55868">
        <ele>1052.993316</ele>
        <time>2021-11-16T19:06:09.688Z</time>
      </trkpt>
      <trkpt lat="38.90794" lon="40.55862">
        <ele>1052.905326</ele>
        <time>2021-11-16T19:06:10.496Z</time>
      </trkpt>
      <trkpt lat="38.90792" lon="40.55856">
        <ele>1052.809742</ele>
        <time>2021-11-16T19:06:11.397Z</time>
      </trkpt>
      <trkpt lat="38.90785" lon="40.55816">
        <ele>1052.207199</ele>
        <time>2021-11-16T19:06:17.069Z</time>
      </trkpt>
      <trkpt lat="38.9075" lon="40.55428">
        <ele>1046.035279</ele>
        <time>2021-11-16T19:07:10.001Z</time>
      </trkpt>
      <trkpt lat="38.90748" lon="40.55414">
        <ele>1045.852986</ele>
        <time>2021-11-16T19:07:11.823Z</time>
      </trkpt>
      <trkpt lat="38.90743" lon="40.5535">
        <ele>1044.991451</ele>
        <time>2021-11-16T19:07:20.777Z</time>
      </trkpt>
      <trkpt lat="38.90736" lon="40.55281">
        <ele>1044.079276</ele>
        <time>2021-11-16T19:07:30.417Z</time>
      </trkpt>
      <trkpt lat="38.90728" lon="40.55185">
        <ele>1043.440631</ele>
        <time>2021-11-16T19:07:44.652Z</time>
      </trkpt>
      <trkpt lat="38.90716" lon="40.55054">
        <ele>1043.68517</ele>
        <time>2021-11-16T19:08:08.120Z</time>
      </trkpt>
      <trkpt lat="38.90708" lon="40.54965">
        <ele>1044.281728</ele>
        <time>2021-11-16T19:08:27.795Z</time>
      </trkpt>
      <trkpt lat="38.90697" lon="40.54847">
        <ele>1046.074616</ele>
        <time>2021-11-16T19:08:56.318Z</time>
      </trkpt>
      <trkpt lat="38.90694" lon="40.54805">
        <ele>1046.700237</ele>
        <time>2021-11-16T19:09:06.380Z</time>
      </trkpt>
      <trkpt lat="38.90692" lon="40.54787">
        <ele>1046.974275</ele>
        <time>2021-11-16T19:09:10.814Z</time>
      </trkpt>
      <trkpt lat="38.90686" lon="40.54672">
        <ele>1047.909086</ele>
        <time>2021-11-16T19:09:37.223Z</time>
      </trkpt>
      <trkpt lat="38.9068" lon="40.54561">
        <ele>1048.653944</ele>
        <time>2021-11-16T19:09:57.964Z</time>
      </trkpt>
      <trkpt lat="38.90682" lon="40.54556">
        <ele>1048.69382</ele>
        <time>2021-11-16T19:09:58.959Z</time>
      </trkpt>
      <trkpt lat="38.9068" lon="40.54539">
        <ele>1048.810437</ele>
        <time>2021-11-16T19:10:01.829Z</time>
      </trkpt>
      <trkpt lat="38.90677" lon="40.54534">
        <ele>1048.804357</ele>
        <time>2021-11-16T19:10:02.809Z</time>
      </trkpt>
      <trkpt lat="38.90651" lon="40.54319">
        <ele>1048.229284</ele>
        <time>2021-11-16T19:10:37.023Z</time>
      </trkpt>
      <trkpt lat="38.90624" lon="40.54007">
        <ele>1049.861037</ele>
        <time>2021-11-16T19:11:38.182Z</time>
      </trkpt>
      <trkpt lat="38.90603" lon="40.53757">
        <ele>1052.08901</ele>
        <time>2021-11-16T19:12:32.110Z</time>
      </trkpt>
      <trkpt lat="38.90585" lon="40.53571">
        <ele>1053.586891</ele>
        <time>2021-11-16T19:13:10.730Z</time>
      </trkpt>
      <trkpt lat="38.90582" lon="40.53538">
        <ele>1053.746689</ele>
        <time>2021-11-16T19:13:17.190Z</time>
      </trkpt>
      <trkpt lat="38.9058" lon="40.53524">
        <ele>1053.815252</ele>
        <time>2021-11-16T19:13:20.057Z</time>
      </trkpt>
      <trkpt lat="38.90576" lon="40.53474">
        <ele>1054.058998</ele>
        <time>2021-11-16T19:13:29.884Z</time>
      </trkpt>
      <trkpt lat="38.9057" lon="40.53413">
        <ele>1054.352813</ele>
        <time>2021-11-16T19:13:41.371Z</time>
      </trkpt>
      <trkpt lat="38.90557" lon="40.5332">
        <ele>1054.015275</ele>
        <time>2021-11-16T19:13:58.103Z</time>
      </trkpt>
      <trkpt lat="38.90539" lon="40.53252">
        <ele>1053.592364</ele>
        <time>2021-11-16T19:14:09.137Z</time>
      </trkpt>
      <trkpt lat="38.90527" lon="40.53211">
        <ele>1053.332258</ele>
        <time>2021-11-16T19:14:15.491Z</time>
      </trkpt>
      <trkpt lat="38.90515" lon="40.5317">
        <ele>1053.066559</ele>
        <time>2021-11-16T19:14:21.605Z</time>
      </trkpt>
      <trkpt lat="38.90481" lon="40.53111">
        <ele>1052.239374</ele>
        <time>2021-11-16T19:14:31.687Z</time>
      </trkpt>
      <trkpt lat="38.90417" lon="40.53011">
        <ele>1050.79107</ele>
        <time>2021-11-16T19:14:49.800Z</time>
      </trkpt>
      <trkpt lat="38.90378" lon="40.52956">
        <ele>1050.765521</ele>
        <time>2021-11-16T19:15:01.354Z</time>
      </trkpt>
      <trkpt lat="38.90163" lon="40.52667">
        <ele>1054.189044</ele>
        <time>2021-11-16T19:16:27.460Z</time>
      </trkpt>
      <trkpt lat="38.90098" lon="40.52558">
        <ele>1056.102039</ele>
        <time>2021-11-16T19:16:58.342Z</time>
      </trkpt>
      <trkpt lat="38.90096" lon="40.52554">
        <ele>1056.166363</ele>
        <time>2021-11-16T19:16:59.357Z</time>
      </trkpt>
      <trkpt lat="38.90081" lon="40.52536">
        <ele>1056.555278</ele>
        <time>2021-11-16T19:17:05.250Z</time>
      </trkpt>
      <trkpt lat="38.90021" lon="40.52462">
        <ele>1058.478708</ele>
        <time>2021-11-16T19:17:30.585Z</time>
      </trkpt>
      <trkpt lat="38.89951" lon="40.52369">
        <ele>1062.055198</ele>
        <time>2021-11-16T19:18:05.042Z</time>
      </trkpt>
      <trkpt lat="38.89943" lon="40.52359">
        <ele>1062.437125</ele>
        <time>2021-11-16T19:18:09.953Z</time>
      </trkpt>
      <trkpt lat="38.89894" lon="40.52277">
        <ele>1066.340186</ele>
        <time>2021-11-16T19:18:43.898Z</time>
      </trkpt>
      <trkpt lat="38.8985" lon="40.52188">
        <ele>1071.657777</ele>
        <time>2021-11-16T19:19:24.317Z</time>
      </trkpt>
      <trkpt lat="38.89811" lon="40.52087">
        <ele>1077.43481</ele>
        <time>2021-11-16T19:20:09.202Z</time>
      </trkpt>
      <trkpt lat="38.89776" lon="40.51985">
        <ele>1083.364601</ele>
        <time>2021-11-16T19:20:53.598Z</time>
      </trkpt>
      <trkpt lat="38.89753" lon="40.51886">
        <ele>1088.606174</ele>
        <time>2021-11-16T19:21:32.145Z</time>
      </trkpt>
      <trkpt lat="38.8974" lon="40.5179">
        <ele>1092.262339</ele>
        <time>2021-11-16T19:22:05.429Z</time>
      </trkpt>
      <trkpt lat="38.89734" lon="40.51669">
        <ele>1096.781113</ele>
        <time>2021-11-16T19:22:42.710Z</time>
      </trkpt>
      <trkpt lat="38.89728" lon="40.51559">
        <ele>1098.946179</ele>
        <time>2021-11-16T19:23:11.677Z</time>
      </trkpt>
      <trkpt lat="38.89721" lon="40.51462">
        <ele>1100.874621</ele>
        <time>2021-11-16T19:23:34.693Z</time>
      </trkpt>
      <trkpt lat="38.89718" lon="40.51401">
        <ele>1101.842648</ele>
        <time>2021-11-16T19:23:48.263Z</time>
      </trkpt>
      <trkpt lat="38.89702" lon="40.51162">
        <ele>1105.526749</ele>
        <time>2021-11-16T19:24:42.196Z</time>
      </trkpt>
      <trkpt lat="38.89688" lon="40.50875">
        <ele>1112.257342</ele>
        <time>2021-11-16T19:26:00.750Z</time>
      </trkpt>
      <trkpt lat="38.89683" lon="40.50794">
        <ele>1114.385432</ele>
        <time>2021-11-16T19:26:23.665Z</time>
      </trkpt>
      <trkpt lat="38.89676" lon="40.50672">
        <ele>1117.644504</ele>
        <time>2021-11-16T19:26:57.905Z</time>
      </trkpt>
      <trkpt lat="38.89675" lon="40.50658">
        <ele>1118.018571</ele>
        <time>2021-11-16T19:27:01.833Z</time>
      </trkpt>
      <trkpt lat="38.89665" lon="40.5051">
        <ele>1122.037635</ele>
        <time>2021-11-16T19:27:43.399Z</time>
      </trkpt>
      <trkpt lat="38.89661" lon="40.50421">
        <ele>1124.566906</ele>
        <time>2021-11-16T19:28:08.897Z</time>
      </trkpt>
      <trkpt lat="38.8966" lon="40.5041">
        <ele>1124.885163</ele>
        <time>2021-11-16T19:28:12.153Z</time>
      </trkpt>
      <trkpt lat="38.8964" lon="40.50087">
        <ele>1134.260302</ele>
        <time>2021-11-16T19:29:45.792Z</time>
      </trkpt>
      <trkpt lat="38.89627" lon="40.49856">
        <ele>1141.155084</ele>
        <time>2021-11-16T19:30:54.279Z</time>
      </trkpt>
      <trkpt lat="38.89623" lon="40.49786">
        <ele>1143.068492</ele>
        <time>2021-11-16T19:31:14.293Z</time>
      </trkpt>
      <trkpt lat="38.89619" lon="40.49693">
        <ele>1145.436165</ele>
        <time>2021-11-16T19:31:39.763Z</time>
      </trkpt>
      <trkpt lat="38.89611" lon="40.49585">
        <ele>1148.216192</ele>
        <time>2021-11-16T19:32:08.924Z</time>
      </trkpt>
      <trkpt lat="38.89589" lon="40.49171">
        <ele>1158.322579</ele>
        <time>2021-11-16T19:34:01.102Z</time>
      </trkpt>
      <trkpt lat="38.89589" lon="40.49144">
        <ele>1158.983423</ele>
        <time>2021-11-16T19:34:08.925Z</time>
      </trkpt>
      <trkpt lat="38.89591" lon="40.49138">
        <ele>1159.142291</ele>
        <time>2021-11-16T19:34:10.588Z</time>
      </trkpt>
      <trkpt lat="38.8959" lon="40.49131">
        <ele>1159.297631</ele>
        <time>2021-11-16T19:34:12.259Z</time>
      </trkpt>
      <trkpt lat="38.89588" lon="40.49125">
        <ele>1159.45059</ele>
        <time>2021-11-16T19:34:14.024Z</time>
      </trkpt>
      <trkpt lat="38.89583" lon="40.49103">
        <ele>1159.967207</ele>
        <time>2021-11-16T19:34:20.606Z</time>
      </trkpt>
      <trkpt lat="38.89567" lon="40.48805">
        <ele>1166.7396</ele>
        <time>2021-11-16T19:35:38.698Z</time>
      </trkpt>
      <trkpt lat="38.89564" lon="40.48763">
        <ele>1167.689425</ele>
        <time>2021-11-16T19:35:50.105Z</time>
      </trkpt>
      <trkpt lat="38.89563" lon="40.48751">
        <ele>1167.957992</ele>
        <time>2021-11-16T19:35:53.238Z</time>
      </trkpt>
      <trkpt lat="38.89561" lon="40.48619">
        <ele>1171.035839</ele>
        <time>2021-11-16T19:36:27.783Z</time>
      </trkpt>
      <trkpt lat="38.89564" lon="40.48581">
        <ele>1171.956839</ele>
        <time>2021-11-16T19:36:38.057Z</time>
      </trkpt>
      <trkpt lat="38.89567" lon="40.48511">
        <ele>1173.646628</ele>
        <time>2021-11-16T19:36:57.112Z</time>
      </trkpt>
      <trkpt lat="38.89578" lon="40.48451">
        <ele>1175.132968</ele>
        <time>2021-11-16T19:37:13.956Z</time>
      </trkpt>
      <trkpt lat="38.89595" lon="40.48363">
        <ele>1177.571526</ele>
        <time>2021-11-16T19:37:38.734Z</time>
      </trkpt>
      <trkpt lat="38.8962" lon="40.48265">
        <ele>1180.385394</ele>
        <time>2021-11-16T19:38:08.240Z</time>
      </trkpt>
      <trkpt lat="38.89656" lon="40.48165">
        <ele>1183.245018</ele>
        <time>2021-11-16T19:38:40.284Z</time>
      </trkpt>
      <trkpt lat="38.89697" lon="40.48077">
        <ele>1185.864735</ele>
        <time>2021-11-16T19:39:09.008Z</time>
      </trkpt>
      <trkpt lat="38.89804" lon="40.47877">
        <ele>1190.33689</ele>
        <time>2021-11-16T19:40:09.450Z</time>
      </trkpt>
      <trkpt lat="38.90108" lon="40.47358">
        <ele>1195.863606</ele>
        <time>2021-11-16T19:42:19.791Z</time>
      </trkpt>
      <trkpt lat="38.90117" lon="40.47336">
        <ele>1196.125687</ele>
        <time>2021-11-16T19:42:25.602Z</time>
      </trkpt>
      <trkpt lat="38.90121" lon="40.47333">
        <ele>1196.193125</ele>
        <time>2021-11-16T19:42:26.918Z</time>
      </trkpt>
      <trkpt lat="38.90126" lon="40.47323">
        <ele>1196.320326</ele>
        <time>2021-11-16T19:42:29.464Z</time>
      </trkpt>
      <trkpt lat="38.90126" lon="40.47317">
        <ele>1196.384949</ele>
        <time>2021-11-16T19:42:30.731Z</time>
      </trkpt>
      <trkpt lat="38.90133" lon="40.47298">
        <ele>1196.607568</ele>
        <time>2021-11-16T19:42:35.921Z</time>
      </trkpt>
      <trkpt lat="38.90182" lon="40.47135">
        <ele>1199.741183</ele>
        <time>2021-11-16T19:43:19.225Z</time>
      </trkpt>
      <trkpt lat="38.9021" lon="40.4701">
        <ele>1202.19391</ele>
        <time>2021-11-16T19:43:52.580Z</time>
      </trkpt>
      <trkpt lat="38.90336" lon="40.4618">
        <ele>1218.072615</ele>
        <time>2021-11-16T19:47:22.240Z</time>
      </trkpt>
      <trkpt lat="38.90371" lon="40.46005">
        <ele>1222.40076</ele>
        <time>2021-11-16T19:48:04.959Z</time>
      </trkpt>
      <trkpt lat="38.90467" lon="40.45621">
        <ele>1238.923984</ele>
        <time>2021-11-16T19:50:22.646Z</time>
      </trkpt>
      <trkpt lat="38.90488" lon="40.45545">
        <ele>1243.087607</ele>
        <time>2021-11-16T19:50:54.981Z</time>
      </trkpt>
      <trkpt lat="38.90506" lon="40.45496">
        <ele>1245.900178</ele>
        <time>2021-11-16T19:51:17.339Z</time>
      </trkpt>
      <trkpt lat="38.90597" lon="40.45292">
        <ele>1260.245453</ele>
        <time>2021-11-16T19:52:56.014Z</time>
      </trkpt>
      <trkpt lat="38.90664" lon="40.4513">
        <ele>1271.250453</ele>
        <time>2021-11-16T19:54:11.778Z</time>
      </trkpt>
      <trkpt lat="38.9073" lon="40.44907">
        <ele>1285.272415</ele>
        <time>2021-11-16T19:55:49.599Z</time>
      </trkpt>
      <trkpt lat="38.90839" lon="40.44679">
        <ele>1300.028823</ele>
        <time>2021-11-16T19:57:36.311Z</time>
      </trkpt>
      <trkpt lat="38.90893" lon="40.44599">
        <ele>1303.623014</ele>
        <time>2021-11-16T19:58:12.706Z</time>
      </trkpt>
      <trkpt lat="38.90922" lon="40.44568">
        <ele>1305.265952</ele>
        <time>2021-11-16T19:58:27.429Z</time>
      </trkpt>
      <trkpt lat="38.91002" lon="40.44507">
        <ele>1307.976612</ele>
        <time>2021-11-16T19:58:58.072Z</time>
      </trkpt>
      <trkpt lat="38.9108" lon="40.44427">
        <ele>1308.309056</ele>
        <time>2021-11-16T19:59:21.929Z</time>
      </trkpt>
      <trkpt lat="38.91145" lon="40.44338">
        <ele>1307.218459</ele>
        <time>2021-11-16T19:59:39.063Z</time>
      </trkpt>
      <trkpt lat="38.91185" lon="40.44261">
        <ele>1305.378718</ele>
        <time>2021-11-16T19:59:51.116Z</time>
      </trkpt>
      <trkpt lat="38.91245" lon="40.44121">
        <ele>1301.548206</ele>
        <time>2021-11-16T20:00:11.094Z</time>
      </trkpt>
      <trkpt lat="38.91293" lon="40.43992">
        <ele>1297.536028</ele>
        <time>2021-11-16T20:00:28.802Z</time>
      </trkpt>
      <trkpt lat="38.91393" lon="40.43689">
        <ele>1291.970742</ele>
        <time>2021-11-16T20:01:10.399Z</time>
      </trkpt>
      <trkpt lat="38.91476" lon="40.43511">
        <ele>1295.450535</ele>
        <time>2021-11-16T20:02:07.236Z</time>
      </trkpt>
      <trkpt lat="38.91556" lon="40.43315">
        <ele>1304.476803</ele>
        <time>2021-11-16T20:03:27.532Z</time>
      </trkpt>
      <trkpt lat="38.91619" lon="40.43202">
        <ele>1310.425326</ele>
        <time>2021-11-16T20:04:14.131Z</time>
      </trkpt>
      <trkpt lat="38.91745" lon="40.43044">
        <ele>1320.03741</ele>
        <time>2021-11-16T20:05:30.178Z</time>
      </trkpt>
      <trkpt lat="38.91788" lon="40.42969">
        <ele>1324.093937</ele>
        <time>2021-11-16T20:06:04.566Z</time>
      </trkpt>
      <trkpt lat="38.91813" lon="40.42901">
        <ele>1327.392159</ele>
        <time>2021-11-16T20:06:32.498Z</time>
      </trkpt>
      <trkpt lat="38.91861" lon="40.4272">
        <ele>1333.781382</ele>
        <time>2021-11-16T20:07:35.693Z</time>
      </trkpt>
      <trkpt lat="38.91891" lon="40.42556">
        <ele>1336.567635</ele>
        <time>2021-11-16T20:08:12.678Z</time>
      </trkpt>
      <trkpt lat="38.91898" lon="40.42496">
        <ele>1336.168127</ele>
        <time>2021-11-16T20:08:22.032Z</time>
      </trkpt>
      <trkpt lat="38.91905" lon="40.42246">
        <ele>1335.838837</ele>
        <time>2021-11-16T20:08:57.372Z</time>
      </trkpt>
      <trkpt lat="38.9191" lon="40.42157">
        <ele>1336.32939</ele>
        <time>2021-11-16T20:09:15.529Z</time>
      </trkpt>
      <trkpt lat="38.9193" lon="40.41954">
        <ele>1344.519455</ele>
        <time>2021-11-16T20:10:25.463Z</time>
      </trkpt>
      <trkpt lat="38.9193" lon="40.41868">
        <ele>1348.873106</ele>
        <time>2021-11-16T20:11:02.877Z</time>
      </trkpt>
      <trkpt lat="38.91903" lon="40.41749">
        <ele>1356.313989</ele>
        <time>2021-11-16T20:11:58.094Z</time>
      </trkpt>
      <trkpt lat="38.91836" lon="40.41593">
        <ele>1363.444789</ele>
        <time>2021-11-16T20:13:03.960Z</time>
      </trkpt>
      <trkpt lat="38.91773" lon="40.41474">
        <ele>1366.329091</ele>
        <time>2021-11-16T20:13:35.628Z</time>
      </trkpt>
      <trkpt lat="38.91668" lon="40.41333">
        <ele>1361.395573</ele>
        <time>2021-11-16T20:13:59.589Z</time>
      </trkpt>
      <trkpt lat="38.9165" lon="40.41302">
        <ele>1360.482387</ele>
        <time>2021-11-16T20:14:04.084Z</time>
      </trkpt>
      <trkpt lat="38.91634" lon="40.41261">
        <ele>1359.555434</ele>
        <time>2021-11-16T20:14:09.668Z</time>
      </trkpt>
      <trkpt lat="38.91628" lon="40.41228">
        <ele>1358.897241</ele>
        <time>2021-11-16T20:14:13.725Z</time>
      </trkpt>
      <trkpt lat="38.91629" lon="40.41193">
        <ele>1358.196075</ele>
        <time>2021-11-16T20:14:18.158Z</time>
      </trkpt>
      <trkpt lat="38.91639" lon="40.41157">
        <ele>1357.439523</ele>
        <time>2021-11-16T20:14:23.107Z</time>
      </trkpt>
      <trkpt lat="38.91721" lon="40.41012">
        <ele>1356.560124</ele>
        <time>2021-11-16T20:14:56.097Z</time>
      </trkpt>
      <trkpt lat="38.91749" lon="40.4097">
        <ele>1356.773132</ele>
        <time>2021-11-16T20:15:08.678Z</time>
      </trkpt>
      <trkpt lat="38.91762" lon="40.40936">
        <ele>1356.917733</ele>
        <time>2021-11-16T20:15:15.602Z</time>
      </trkpt>
      <trkpt lat="38.91767" lon="40.40916">
        <ele>1356.997826</ele>
        <time>2021-11-16T20:15:20.565Z</time>
      </trkpt>
      <trkpt lat="38.9177" lon="40.40905">
        <ele>1356.859115</ele>
        <time>2021-11-16T20:15:22.188Z</time>
      </trkpt>
      <trkpt lat="38.91781" lon="40.40833">
        <ele>1355.421847</ele>
        <time>2021-11-16T20:15:33.985Z</time>
      </trkpt>
      <trkpt lat="38.91783" lon="40.40651">
        <ele>1350.971364</ele>
        <time>2021-11-16T20:15:56.493Z</time>
      </trkpt>
      <trkpt lat="38.91798" lon="40.40551">
        <ele>1346.201986</ele>
        <time>2021-11-16T20:16:08.185Z</time>
      </trkpt>
      <trkpt lat="38.91839" lon="40.40463">
        <ele>1341.391913</ele>
        <time>2021-11-16T20:16:19.547Z</time>
      </trkpt>
      <trkpt lat="38.919" lon="40.4038">
        <ele>1334.462276</ele>
        <time>2021-11-16T20:16:32.163Z</time>
      </trkpt>
      <trkpt lat="38.91921" lon="40.40361">
        <ele>1332.462898</ele>
        <time>2021-11-16T20:16:35.761Z</time>
      </trkpt>
      <trkpt lat="38.91946" lon="40.40348">
        <ele>1330.352909</ele>
        <time>2021-11-16T20:16:39.561Z</time>
      </trkpt>
      <trkpt lat="38.91974" lon="40.40342">
        <ele>1328.172709</ele>
        <time>2021-11-16T20:16:43.468Z</time>
      </trkpt>
      <trkpt lat="38.91999" lon="40.40341">
        <ele>1326.431233</ele>
        <time>2021-11-16T20:16:46.875Z</time>
      </trkpt>
      <trkpt lat="38.92078" lon="40.40363">
        <ele>1320.784701</ele>
        <time>2021-11-16T20:16:58.335Z</time>
      </trkpt>
      <trkpt lat="38.92109" lon="40.40365">
        <ele>1318.646925</ele>
        <time>2021-11-16T20:17:02.782Z</time>
      </trkpt>
      <trkpt lat="38.92146" lon="40.40363">
        <ele>1316.114274</ele>
        <time>2021-11-16T20:17:08.145Z</time>
      </trkpt>
      <trkpt lat="38.92177" lon="40.40354">
        <ele>1314.620481</ele>
        <time>2021-11-16T20:17:12.909Z</time>
      </trkpt>
      <trkpt lat="38.92288" lon="40.40301">
        <ele>1310.79055</ele>
        <time>2021-11-16T20:17:31.934Z</time>
      </trkpt>
      <trkpt lat="38.92318" lon="40.40278">
        <ele>1309.661908</ele>
        <time>2021-11-16T20:17:38.450Z</time>
      </trkpt>
      <trkpt lat="38.92339" lon="40.40249">
        <ele>1309.267471</ele>
        <time>2021-11-16T20:17:44.612Z</time>
      </trkpt>
      <trkpt lat="38.92356" lon="40.40198">
        <ele>1308.97201</ele>
        <time>2021-11-16T20:17:53.249Z</time>
      </trkpt>
      <trkpt lat="38.9236" lon="40.4015">
        <ele>1308.712416</ele>
        <time>2021-11-16T20:18:01.012Z</time>
      </trkpt>
      <trkpt lat="38.92357" lon="40.40096">
        <ele>1308.416079</ele>
        <time>2021-11-16T20:18:10.125Z</time>
      </trkpt>
      <trkpt lat="38.92318" lon="40.39801">
        <ele>1306.487767</ele>
        <time>2021-11-16T20:18:57.106Z</time>
      </trkpt>
      <trkpt lat="38.92309" lon="40.39681">
        <ele>1304.302591</ele>
        <time>2021-11-16T20:19:13.749Z</time>
      </trkpt>
      <trkpt lat="38.92275" lon="40.39401">
        <ele>1296.835221</ele>
        <time>2021-11-16T20:19:48.888Z</time>
      </trkpt>
      <trkpt lat="38.92281" lon="40.39302">
        <ele>1293.832098</ele>
        <time>2021-11-16T20:20:00.626Z</time>
      </trkpt>
      <trkpt lat="38.92361" lon="40.3894">
        <ele>1284.533783</ele>
        <time>2021-11-16T20:20:47.386Z</time>
      </trkpt>
      <trkpt lat="38.92363" lon="40.38906">
        <ele>1284.351296</ele>
        <time>2021-11-16T20:20:54.717Z</time>
      </trkpt>
      <trkpt lat="38.92365" lon="40.38883">
        <ele>1284.740345</ele>
        <time>2021-11-16T20:21:00.382Z</time>
      </trkpt>
      <trkpt lat="38.92365" lon="40.38876">
        <ele>1284.84836</ele>
        <time>2021-11-16T20:21:01.644Z</time>
      </trkpt>
      <trkpt lat="38.92364" lon="40.3887">
        <ele>1284.950147</ele>
        <time>2021-11-16T20:21:02.853Z</time>
      </trkpt>
      <trkpt lat="38.92358" lon="40.38838">
        <ele>1285.502643</ele>
        <time>2021-11-16T20:21:11.649Z</time>
      </trkpt>
      <trkpt lat="38.92335" lon="40.38734">
        <ele>1287.327932</ele>
        <time>2021-11-16T20:21:41.068Z</time>
      </trkpt>
      <trkpt lat="38.92333" lon="40.38621">
        <ele>1288.331648</ele>
        <time>2021-11-16T20:22:10.438Z</time>
      </trkpt>
      <trkpt lat="38.92349" lon="40.38425">
        <ele>1288.868632</ele>
        <time>2021-11-16T20:22:41.727Z</time>
      </trkpt>
      <trkpt lat="38.92374" lon="40.38243">
        <ele>1288.113579</ele>
        <time>2021-11-16T20:23:10.239Z</time>
      </trkpt>
      <trkpt lat="38.9239" lon="40.38067">
        <ele>1289.893177</ele>
        <time>2021-11-16T20:23:45.541Z</time>
      </trkpt>
      <trkpt lat="38.92397" lon="40.38006">
        <ele>1290.560453</ele>
        <time>2021-11-16T20:24:01.421Z</time>
      </trkpt>
      <trkpt lat="38.92404" lon="40.37921">
        <ele>1293.685355</ele>
        <time>2021-11-16T20:24:26.424Z</time>
      </trkpt>
      <trkpt lat="38.92426" lon="40.37717">
        <ele>1301.694001</ele>
        <time>2021-11-16T20:25:37.514Z</time>
      </trkpt>
      <trkpt lat="38.92439" lon="40.37649">
        <ele>1304.825642</ele>
        <time>2021-11-16T20:26:02.353Z</time>
      </trkpt>
      <trkpt lat="38.9245" lon="40.37616">
        <ele>1306.405039</ele>
        <time>2021-11-16T20:26:14.976Z</time>
      </trkpt>
      <trkpt lat="38.92554" lon="40.37415">
        <ele>1316.788543</ele>
        <time>2021-11-16T20:27:40.033Z</time>
      </trkpt>
      <trkpt lat="38.92592" lon="40.3732">
        <ele>1320.57887</ele>
        <time>2021-11-16T20:28:14.169Z</time>
      </trkpt>
      <trkpt lat="38.92602" lon="40.37256">
        <ele>1322.4496</ele>
        <time>2021-11-16T20:28:33.608Z</time>
      </trkpt>
      <trkpt lat="38.92602" lon="40.37039">
        <ele>1327.574253</ele>
        <time>2021-11-16T20:29:30.623Z</time>
      </trkpt>
      <trkpt lat="38.92614" lon="40.36959">
        <ele>1329.051232</ele>
        <time>2021-11-16T20:29:49.647Z</time>
      </trkpt>
      <trkpt lat="38.92633" lon="40.36877">
        <ele>1330.627769</ele>
        <time>2021-11-16T20:30:09.255Z</time>
      </trkpt>
      <trkpt lat="38.92681" lon="40.36754">
        <ele>1333.220531</ele>
        <time>2021-11-16T20:30:42.368Z</time>
      </trkpt>
      <trkpt lat="38.9278" lon="40.36574">
        <ele>1338.653031</ele>
        <time>2021-11-16T20:31:42.923Z</time>
      </trkpt>
      <trkpt lat="38.92845" lon="40.36445">
        <ele>1343.330296</ele>
        <time>2021-11-16T20:32:28.171Z</time>
      </trkpt>
      <trkpt lat="38.92884" lon="40.3634">
        <ele>1347.192611</ele>
        <time>2021-11-16T20:33:04.975Z</time>
      </trkpt>
      <trkpt lat="38.92892" lon="40.36314">
        <ele>1348.105604</ele>
        <time>2021-11-16T20:33:13.469Z</time>
      </trkpt>
      <trkpt lat="38.92902" lon="40.36279">
        <ele>1349.225547</ele>
        <time>2021-11-16T20:33:25.418Z</time>
      </trkpt>
      <trkpt lat="38.92929" lon="40.3616">
        <ele>1352.915545</ele>
        <time>2021-11-16T20:34:03.080Z</time>
      </trkpt>
      <trkpt lat="38.93142" lon="40.35112">
        <ele>1378.131831</ele>
        <time>2021-11-16T20:38:46.154Z</time>
      </trkpt>
      <trkpt lat="38.93146" lon="40.35094">
        <ele>1378.692502</ele>
        <time>2021-11-16T20:38:51.573Z</time>
      </trkpt>
      <trkpt lat="38.93155" lon="40.35055">
        <ele>1379.90507</ele>
        <time>2021-11-16T20:39:03.758Z</time>
      </trkpt>
      <trkpt lat="38.93279" lon="40.34434">
        <ele>1404.673346</ele>
        <time>2021-11-16T20:42:30.722Z</time>
      </trkpt>
      <trkpt lat="38.9333" lon="40.34237">
        <ele>1416.075331</ele>
        <time>2021-11-16T20:43:58.864Z</time>
      </trkpt>
      <trkpt lat="38.93373" lon="40.34099">
        <ele>1425.044608</ele>
        <time>2021-11-16T20:45:02.544Z</time>
      </trkpt>
      <trkpt lat="38.9339" lon="40.34047">
        <ele>1426.558127</ele>
        <time>2021-11-16T20:45:22.464Z</time>
      </trkpt>
      <trkpt lat="38.93399" lon="40.34019">
        <ele>1427.192379</ele>
        <time>2021-11-16T20:45:32.781Z</time>
      </trkpt>
      <trkpt lat="38.93559" lon="40.33559">
        <ele>1436.721889</ele>
        <time>2021-11-16T20:47:29.401Z</time>
      </trkpt>
      <trkpt lat="38.93588" lon="40.33483">
        <ele>1437.808947</ele>
        <time>2021-11-16T20:47:47.165Z</time>
      </trkpt>
      <trkpt lat="38.93613" lon="40.33411">
        <ele>1439.133008</ele>
        <time>2021-11-16T20:48:04.909Z</time>
      </trkpt>
      <trkpt lat="38.93665" lon="40.33253">
        <ele>1442.339323</ele>
        <time>2021-11-16T20:48:48.352Z</time>
      </trkpt>
      <trkpt lat="38.93695" lon="40.33169">
        <ele>1444.577482</ele>
        <time>2021-11-16T20:49:12.972Z</time>
      </trkpt>
      <trkpt lat="38.93722" lon="40.3309">
        <ele>1446.761887</ele>
        <time>2021-11-16T20:49:36.963Z</time>
      </trkpt>
      <trkpt lat="38.9375" lon="40.32987">
        <ele>1449.66826</ele>
        <time>2021-11-16T20:50:07.803Z</time>
      </trkpt>
      <trkpt lat="38.93764" lon="40.32883">
        <ele>1452.663047</ele>
        <time>2021-11-16T20:50:37.700Z</time>
      </trkpt>
      <trkpt lat="38.93761" lon="40.32785">
        <ele>1455.622653</ele>
        <time>2021-11-16T20:51:06.103Z</time>
      </trkpt>
      <trkpt lat="38.9374" lon="40.32678">
        <ele>1459.665272</ele>
        <time>2021-11-16T20:51:40.021Z</time>
      </trkpt>
      <trkpt lat="38.93708" lon="40.32591">
        <ele>1463.211769</ele>
        <time>2021-11-16T20:52:12.303Z</time>
      </trkpt>
      <trkpt lat="38.93608" lon="40.32408">
        <ele>1473.729909</ele>
        <time>2021-11-16T20:53:34.294Z</time>
      </trkpt>
      <trkpt lat="38.93546" lon="40.32263">
        <ele>1481.311032</ele>
        <time>2021-11-16T20:54:34.144Z</time>
      </trkpt>
      <trkpt lat="38.93502" lon="40.32132">
        <ele>1487.803158</ele>
        <time>2021-11-16T20:55:23.042Z</time>
      </trkpt>
      <trkpt lat="38.9339" lon="40.31721">
        <ele>1508.744344</ele>
        <time>2021-11-16T20:58:00.686Z</time>
      </trkpt>
      <trkpt lat="38.93369" lon="40.31622">
        <ele>1514.800219</ele>
        <time>2021-11-16T20:58:42.926Z</time>
      </trkpt>
      <trkpt lat="38.93358" lon="40.31543">
        <ele>1519.573827</ele>
        <time>2021-11-16T20:59:17.601Z</time>
      </trkpt>
      <trkpt lat="38.93357" lon="40.3148">
        <ele>1523.485676</ele>
        <time>2021-11-16T20:59:44.932Z</time>
      </trkpt>
      <trkpt lat="38.93361" lon="40.31428">
        <ele>1526.858901</ele>
        <time>2021-11-16T21:00:08.087Z</time>
      </trkpt>
      <trkpt lat="38.93371" lon="40.31379">
        <ele>1530.044521</ele>
        <time>2021-11-16T21:00:29.567Z</time>
      </trkpt>
      <trkpt lat="38.93413" lon="40.31241">
        <ele>1538.977419</ele>
        <time>2021-11-16T21:01:31.344Z</time>
      </trkpt>
      <trkpt lat="38.93421" lon="40.31198">
        <ele>1541.455384</ele>
        <time>2021-11-16T21:01:49.000Z</time>
      </trkpt>
      <trkpt lat="38.93465" lon="40.30874">
        <ele>1559.098593</ele>
        <time>2021-11-16T21:03:56.658Z</time>
      </trkpt>
      <trkpt lat="38.93534" lon="40.3046">
        <ele>1578.734005</ele>
        <time>2021-11-16T21:06:25.787Z</time>
      </trkpt>
      <trkpt lat="38.93558" lon="40.30387">
        <ele>1582.674783</ele>
        <time>2021-11-16T21:06:55.506Z</time>
      </trkpt>
      <trkpt lat="38.93573" lon="40.30353">
        <ele>1584.922456</ele>
        <time>2021-11-16T21:07:10.840Z</time>
      </trkpt>
      <trkpt lat="38.93587" lon="40.30326">
        <ele>1586.766666</ele>
        <time>2021-11-16T21:07:23.669Z</time>
      </trkpt>
      <trkpt lat="38.93633" lon="40.30262">
        <ele>1591.773365</ele>
        <time>2021-11-16T21:07:59.609Z</time>
      </trkpt>
      <trkpt lat="38.93708" lon="40.30178">
        <ele>1599.257032</ele>
        <time>2021-11-16T21:08:53.766Z</time>
      </trkpt>
      <trkpt lat="38.93877" lon="40.30015">
        <ele>1614.302909</ele>
        <time>2021-11-16T21:10:43.698Z</time>
      </trkpt>
      <trkpt lat="38.94031" lon="40.29909">
        <ele>1623.676147</ele>
        <time>2021-11-16T21:12:00.401Z</time>
      </trkpt>
      <trkpt lat="38.94088" lon="40.29853">
        <ele>1626.696593</ele>
        <time>2021-11-16T21:12:26.684Z</time>
      </trkpt>
      <trkpt lat="38.94503" lon="40.29267">
        <ele>1641.063435</ele>
        <time>2021-11-16T21:15:40.316Z</time>
      </trkpt>
      <trkpt lat="38.94519" lon="40.29245">
        <ele>1641.456906</ele>
        <time>2021-11-16T21:15:47.321Z</time>
      </trkpt>
      <trkpt lat="38.94537" lon="40.29219">
        <ele>1641.909803</ele>
        <time>2021-11-16T21:15:55.202Z</time>
      </trkpt>
      <trkpt lat="38.94611" lon="40.29119">
        <ele>1643.274836</ele>
        <time>2021-11-16T21:16:24.403Z</time>
      </trkpt>
      <trkpt lat="38.94909" lon="40.28686">
        <ele>1645.682228</ele>
        <time>2021-11-16T21:18:08.215Z</time>
      </trkpt>
      <trkpt lat="38.94926" lon="40.28663">
        <ele>1645.94299</ele>
        <time>2021-11-16T21:18:15.767Z</time>
      </trkpt>
      <trkpt lat="38.94952" lon="40.28628">
        <ele>1646.509946</ele>
        <time>2021-11-16T21:18:28.175Z</time>
      </trkpt>
      <trkpt lat="38.95014" lon="40.28537">
        <ele>1650.223193</ele>
        <time>2021-11-16T21:19:03.611Z</time>
      </trkpt>
      <trkpt lat="38.95085" lon="40.2845">
        <ele>1654.208179</ele>
        <time>2021-11-16T21:19:42.750Z</time>
      </trkpt>
      <trkpt lat="38.95162" lon="40.2838">
        <ele>1658.924229</ele>
        <time>2021-11-16T21:20:21.743Z</time>
      </trkpt>
      <trkpt lat="38.95234" lon="40.28326">
        <ele>1663.296172</ele>
        <time>2021-11-16T21:20:57.016Z</time>
      </trkpt>
      <trkpt lat="38.95406" lon="40.28231">
        <ele>1675.757481</ele>
        <time>2021-11-16T21:22:29.381Z</time>
      </trkpt>
      <trkpt lat="38.9546" lon="40.28179">
        <ele>1680.793356</ele>
        <time>2021-11-16T21:23:06.983Z</time>
      </trkpt>
      <trkpt lat="38.95481" lon="40.2815">
        <ele>1683.090947</ele>
        <time>2021-11-16T21:23:23.811Z</time>
      </trkpt>
      <trkpt lat="38.95515" lon="40.28084">
        <ele>1687.489572</ele>
        <time>2021-11-16T21:23:55.593Z</time>
      </trkpt>
      <trkpt lat="38.95529" lon="40.28011">
        <ele>1689.459084</ele>
        <time>2021-11-16T21:24:22.162Z</time>
      </trkpt>
      <trkpt lat="38.95531" lon="40.27921">
        <ele>1691.804669</ele>
        <time>2021-11-16T21:24:46.654Z</time>
      </trkpt>
      <trkpt lat="38.95492" lon="40.27501">
        <ele>1694.122082</ele>
        <time>2021-11-16T21:25:56.494Z</time>
      </trkpt>
      <trkpt lat="38.9549" lon="40.27296">
        <ele>1697.487016</ele>
        <time>2021-11-16T21:26:49.301Z</time>
      </trkpt>
      <trkpt lat="38.95516" lon="40.26994">
        <ele>1704.670119</ele>
        <time>2021-11-16T21:28:15.571Z</time>
      </trkpt>
      <trkpt lat="38.95517" lon="40.26921">
        <ele>1705.976001</ele>
        <time>2021-11-16T21:28:32.675Z</time>
      </trkpt>
      <trkpt lat="38.95539" lon="40.26698">
        <ele>1706.597889</ele>
        <time>2021-11-16T21:29:11.696Z</time>
      </trkpt>
      <trkpt lat="38.95542" lon="40.26669">
        <ele>1706.617266</ele>
        <time>2021-11-16T21:29:16.250Z</time>
      </trkpt>
      <trkpt lat="38.95544" lon="40.26663">
        <ele>1706.621782</ele>
        <time>2021-11-16T21:29:17.285Z</time>
      </trkpt>
      <trkpt lat="38.95543" lon="40.26656">
        <ele>1706.625951</ele>
        <time>2021-11-16T21:29:18.296Z</time>
      </trkpt>
      <trkpt lat="38.95545" lon="40.26616">
        <ele>1706.653447</ele>
        <time>2021-11-16T21:29:24.949Z</time>
      </trkpt>
      <trkpt lat="38.9555" lon="40.26483">
        <ele>1706.74245</ele>
        <time>2021-11-16T21:29:48.015Z</time>
      </trkpt>
      <trkpt lat="38.95591" lon="40.26166">
        <ele>1709.714877</ele>
        <time>2021-11-16T21:30:57.966Z</time>
      </trkpt>
      <trkpt lat="38.95647" lon="40.25859">
        <ele>1711.600309</ele>
        <time>2021-11-16T21:32:00.081Z</time>
      </trkpt>
      <trkpt lat="38.9569" lon="40.25573">
        <ele>1712.709616</ele>
        <time>2021-11-16T21:32:50.537Z</time>
      </trkpt>
      <trkpt lat="38.95808" lon="40.24881">
        <ele>1730.766822</ele>
        <time>2021-11-16T21:36:11.677Z</time>
      </trkpt>
      <trkpt lat="38.95816" lon="40.24835">
        <ele>1730.91194</ele>
        <time>2021-11-16T21:36:22.071Z</time>
      </trkpt>
      <trkpt lat="38.95821" lon="40.24798">
        <ele>1731.026921</ele>
        <time>2021-11-16T21:36:29.454Z</time>
      </trkpt>
      <trkpt lat="38.95831" lon="40.24647">
        <ele>1731.211266</ele>
        <time>2021-11-16T21:36:53.272Z</time>
      </trkpt>
      <trkpt lat="38.95827" lon="40.24558">
        <ele>1730.129773</ele>
        <time>2021-11-16T21:37:05.350Z</time>
      </trkpt>
      <trkpt lat="38.95818" lon="40.24482">
        <ele>1729.192226</ele>
        <time>2021-11-16T21:37:16.011Z</time>
      </trkpt>
      <trkpt lat="38.9579" lon="40.24346">
        <ele>1728.27305</ele>
        <time>2021-11-16T21:37:36.722Z</time>
      </trkpt>
      <trkpt lat="38.95772" lon="40.24259">
        <ele>1727.931489</ele>
        <time>2021-11-16T21:37:51.431Z</time>
      </trkpt>
      <trkpt lat="38.95754" lon="40.24176">
        <ele>1728.244472</ele>
        <time>2021-11-16T21:38:07.121Z</time>
      </trkpt>
      <trkpt lat="38.9573" lon="40.2406">
        <ele>1729.733139</ele>
        <time>2021-11-16T21:38:32.713Z</time>
      </trkpt>
      <trkpt lat="38.95725" lon="40.24033">
        <ele>1730.081167</ele>
        <time>2021-11-16T21:38:39.565Z</time>
      </trkpt>
      <trkpt lat="38.95708" lon="40.23954">
        <ele>1731.954214</ele>
        <time>2021-11-16T21:39:01.495Z</time>
      </trkpt>
      <trkpt lat="38.95703" lon="40.2393">
        <ele>1732.811407</ele>
        <time>2021-11-16T21:39:08.620Z</time>
      </trkpt>
      <trkpt lat="38.95678" lon="40.23803">
        <ele>1737.405979</ele>
        <time>2021-11-16T21:39:50.508Z</time>
      </trkpt>
      <trkpt lat="38.95669" lon="40.23694">
        <ele>1742.344869</ele>
        <time>2021-11-16T21:40:29.810Z</time>
      </trkpt>
      <trkpt lat="38.95668" lon="40.23594">
        <ele>1747.429721</ele>
        <time>2021-11-16T21:41:07.941Z</time>
      </trkpt>
      <trkpt lat="38.95678" lon="40.23489">
        <ele>1752.594594</ele>
        <time>2021-11-16T21:41:50.537Z</time>
      </trkpt>
      <trkpt lat="38.95712" lon="40.23318">
        <ele>1760.630495</ele>
        <time>2021-11-16T21:42:54.974Z</time>
      </trkpt>
      <trkpt lat="38.95843" lon="40.22732">
        <ele>1770.034902</ele>
        <time>2021-11-16T21:45:18.377Z</time>
      </trkpt>
      <trkpt lat="38.95869" lon="40.22639">
        <ele>1770.690642</ele>
        <time>2021-11-16T21:45:34.543Z</time>
      </trkpt>
      <trkpt lat="38.95903" lon="40.22542">
        <ele>1769.687824</ele>
        <time>2021-11-16T21:45:50.482Z</time>
      </trkpt>
      <trkpt lat="38.95977" lon="40.22396">
        <ele>1767.531294</ele>
        <time>2021-11-16T21:46:15.138Z</time>
      </trkpt>
      <trkpt lat="38.96018" lon="40.22334">
        <ele>1766.033584</ele>
        <time>2021-11-16T21:46:26.015Z</time>
      </trkpt>
      <trkpt lat="38.9617" lon="40.22125">
        <ele>1759.877313</ele>
        <time>2021-11-16T21:47:02.656Z</time>
      </trkpt>
      <trkpt lat="38.96385" lon="40.21846">
        <ele>1751.316314</ele>
        <time>2021-11-16T21:47:53.706Z</time>
      </trkpt>
      <trkpt lat="38.96397" lon="40.21834">
        <ele>1750.907137</ele>
        <time>2021-11-16T21:47:56.137Z</time>
      </trkpt>
      <trkpt lat="38.96401" lon="40.21831">
        <ele>1750.773449</ele>
        <time>2021-11-16T21:47:56.993Z</time>
      </trkpt>
      <trkpt lat="38.96405" lon="40.21827">
        <ele>1750.636335</ele>
        <time>2021-11-16T21:47:57.851Z</time>
      </trkpt>
      <trkpt lat="38.96407" lon="40.21821">
        <ele>1750.50038</ele>
        <time>2021-11-16T21:47:58.699Z</time>
      </trkpt>
      <trkpt lat="38.96419" lon="40.218">
        <ele>1749.94101</ele>
        <time>2021-11-16T21:48:02.046Z</time>
      </trkpt>
      <trkpt lat="38.96524" lon="40.21636">
        <ele>1745.449517</ele>
        <time>2021-11-16T21:48:29.728Z</time>
      </trkpt>
      <trkpt lat="38.96542" lon="40.21591">
        <ele>1744.382258</ele>
        <time>2021-11-16T21:48:36.332Z</time>
      </trkpt>
      <trkpt lat="38.96558" lon="40.21529">
        <ele>1742.911454</ele>
        <time>2021-11-16T21:48:44.811Z</time>
      </trkpt>
      <trkpt lat="38.96572" lon="40.21449">
        <ele>1741.031044</ele>
        <time>2021-11-16T21:48:55.430Z</time>
      </trkpt>
      <trkpt lat="38.96574" lon="40.21397">
        <ele>1739.83479</ele>
        <time>2021-11-16T21:49:02.153Z</time>
      </trkpt>
      <trkpt lat="38.96565" lon="40.21293">
        <ele>1737.035705</ele>
        <time>2021-11-16T21:49:15.469Z</time>
      </trkpt>
      <trkpt lat="38.96555" lon="40.21242">
        <ele>1735.475446</ele>
        <time>2021-11-16T21:49:22.087Z</time>
      </trkpt>
      <trkpt lat="38.9611" lon="40.19387">
        <ele>1677.386359</ele>
        <time>2021-11-16T21:53:20.198Z</time>
      </trkpt>
      <trkpt lat="38.96065" lon="40.19277">
        <ele>1672.842021</ele>
        <time>2021-11-16T21:53:34.983Z</time>
      </trkpt>
      <trkpt lat="38.96044" lon="40.19241">
        <ele>1671.108092</ele>
        <time>2021-11-16T21:53:40.317Z</time>
      </trkpt>
      <trkpt lat="38.96001" lon="40.19194">
        <ele>1668.349482</ele>
        <time>2021-11-16T21:53:48.731Z</time>
      </trkpt>
      <trkpt lat="38.95959" lon="40.19156">
        <ele>1665.556964</ele>
        <time>2021-11-16T21:53:56.344Z</time>
      </trkpt>
      <trkpt lat="38.95797" lon="40.19042">
        <ele>1654.852378</ele>
        <time>2021-11-16T21:54:23.680Z</time>
      </trkpt>
      <trkpt lat="38.95741" lon="40.19005">
        <ele>1651.00284</ele>
        <time>2021-11-16T21:54:33.000Z</time>
      </trkpt>
      <trkpt lat="38.95559" lon="40.18885">
        <ele>1636.888514</ele>
        <time>2021-11-16T21:55:02.350Z</time>
      </trkpt>
      <trkpt lat="38.95525" lon="40.18859">
        <ele>1633.990576</ele>
        <time>2021-11-16T21:55:07.822Z</time>
      </trkpt>
      <trkpt lat="38.95479" lon="40.18824">
        <ele>1630.157596</ele>
        <time>2021-11-16T21:55:15.297Z</time>
      </trkpt>
      <trkpt lat="38.95388" lon="40.18761">
        <ele>1622.911719</ele>
        <time>2021-11-16T21:55:29.798Z</time>
      </trkpt>
      <trkpt lat="38.95293" lon="40.18694">
        <ele>1617.882249</ele>
        <time>2021-11-16T21:55:46.794Z</time>
      </trkpt>
      <trkpt lat="38.95259" lon="40.18663">
        <ele>1616.416009</ele>
        <time>2021-11-16T21:55:53.878Z</time>
      </trkpt>
      <trkpt lat="38.95226" lon="40.18611">
        <ele>1614.564231</ele>
        <time>2021-11-16T21:56:02.783Z</time>
      </trkpt>
      <trkpt lat="38.95187" lon="40.18536">
        <ele>1610.856765</ele>
        <time>2021-11-16T21:56:14.029Z</time>
      </trkpt>
      <trkpt lat="38.94984" lon="40.17878">
        <ele>1579.194285</ele>
        <time>2021-11-16T21:57:34.418Z</time>
      </trkpt>
      <trkpt lat="38.94975" lon="40.17706">
        <ele>1572.922931</ele>
        <time>2021-11-16T21:57:54.943Z</time>
      </trkpt>
      <trkpt lat="38.95013" lon="40.17333">
        <ele>1564.201633</ele>
        <time>2021-11-16T21:58:44.510Z</time>
      </trkpt>
      <trkpt lat="38.95039" lon="40.16982">
        <ele>1553.572688</ele>
        <time>2021-11-16T21:59:27.226Z</time>
      </trkpt>
      <trkpt lat="38.951" lon="40.1638">
        <ele>1535.502379</ele>
        <time>2021-11-16T22:00:41.914Z</time>
      </trkpt>
      <trkpt lat="38.95127" lon="40.16256">
        <ele>1531.503052</ele>
        <time>2021-11-16T22:00:57.827Z</time>
      </trkpt>
      <trkpt lat="38.95165" lon="40.16011">
        <ele>1523.081908</ele>
        <time>2021-11-16T22:01:27.960Z</time>
      </trkpt>
      <trkpt lat="38.95206" lon="40.15847">
        <ele>1516.368929</ele>
        <time>2021-11-16T22:01:48.195Z</time>
      </trkpt>
      <trkpt lat="38.95251" lon="40.15718">
        <ele>1510.312313</ele>
        <time>2021-11-16T22:02:04.393Z</time>
      </trkpt>
      <trkpt lat="38.95278" lon="40.1565">
        <ele>1506.894848</ele>
        <time>2021-11-16T22:02:13.163Z</time>
      </trkpt>
      <trkpt lat="38.95437" lon="40.15335">
        <ele>1489.757279</ele>
        <time>2021-11-16T22:02:56.157Z</time>
      </trkpt>
      <trkpt lat="38.95461" lon="40.15268">
        <ele>1486.108952</ele>
        <time>2021-11-16T22:03:04.598Z</time>
      </trkpt>
      <trkpt lat="38.95499" lon="40.15181">
        <ele>1480.980812</ele>
        <time>2021-11-16T22:03:15.764Z</time>
      </trkpt>
      <trkpt lat="38.95521" lon="40.15078">
        <ele>1475.272202</ele>
        <time>2021-11-16T22:03:27.695Z</time>
      </trkpt>
      <trkpt lat="38.9554" lon="40.14951">
        <ele>1467.198835</ele>
        <time>2021-11-16T22:03:41.893Z</time>
      </trkpt>
      <trkpt lat="38.95594" lon="40.14283">
        <ele>1422.202658</ele>
        <time>2021-11-16T22:04:54.242Z</time>
      </trkpt>
      <trkpt lat="38.95596" lon="40.14134">
        <ele>1412.227988</ele>
        <time>2021-11-16T22:05:10.321Z</time>
      </trkpt>
      <trkpt lat="38.95563" lon="40.13641">
        <ele>1378.180308</ele>
        <time>2021-11-16T22:06:03.725Z</time>
      </trkpt>
      <trkpt lat="38.95514" lon="40.13019">
        <ele>1330.381092</ele>
        <time>2021-11-16T22:07:09.844Z</time>
      </trkpt>
      <trkpt lat="38.95503" lon="40.1295">
        <ele>1324.725814</ele>
        <time>2021-11-16T22:07:17.297Z</time>
      </trkpt>
      <trkpt lat="38.9548" lon="40.12874">
        <ele>1318.280598</ele>
        <time>2021-11-16T22:07:25.832Z</time>
      </trkpt>
      <trkpt lat="38.95463" lon="40.12836">
        <ele>1314.792626</ele>
        <time>2021-11-16T22:07:30.488Z</time>
      </trkpt>
      <trkpt lat="38.95445" lon="40.12814">
        <ele>1312.272272</ele>
        <time>2021-11-16T22:07:33.850Z</time>
      </trkpt>
      <trkpt lat="38.95305" lon="40.12639">
        <ele>1295.678558</ele>
        <time>2021-11-16T22:08:01.009Z</time>
      </trkpt>
      <trkpt lat="38.95263" lon="40.12569">
        <ele>1290.801785</ele>
        <time>2021-11-16T22:08:10.780Z</time>
      </trkpt>
      <trkpt lat="38.95228" lon="40.12496">
        <ele>1285.98697</ele>
        <time>2021-11-16T22:08:20.462Z</time>
      </trkpt>
      <trkpt lat="38.95005" lon="40.11943">
        <ele>1253.594584</ele>
        <time>2021-11-16T22:09:30.379Z</time>
      </trkpt>
      <trkpt lat="38.94967" lon="40.11866">
        <ele>1248.755445</ele>
        <time>2021-11-16T22:09:40.533Z</time>
      </trkpt>
      <trkpt lat="38.9491" lon="40.11772">
        <ele>1242.045906</ele>
        <time>2021-11-16T22:09:53.787Z</time>
      </trkpt>
      <trkpt lat="38.94874" lon="40.11722">
        <ele>1238.20255</ele>
        <time>2021-11-16T22:10:01.315Z</time>
      </trkpt>
      <trkpt lat="38.94787" lon="40.11583">
        <ele>1227.443456</ele>
        <time>2021-11-16T22:10:20.891Z</time>
      </trkpt>
      <trkpt lat="38.94403" lon="40.11073">
        <ele>1183.844565</ele>
        <time>2021-11-16T22:11:37.788Z</time>
      </trkpt>
      <trkpt lat="38.94139" lon="40.10729">
        <ele>1173.531547</ele>
        <time>2021-11-16T22:12:41.006Z</time>
      </trkpt>
      <trkpt lat="38.93862" lon="40.1038">
        <ele>1182.881735</ele>
        <time>2021-11-16T22:14:49.501Z</time>
      </trkpt>
      <trkpt lat="38.9376" lon="40.10226">
        <ele>1190.264132</ele>
        <time>2021-11-16T22:16:00.389Z</time>
      </trkpt>
      <trkpt lat="38.93702" lon="40.10139">
        <ele>1193.618511</ele>
        <time>2021-11-16T22:16:36.477Z</time>
      </trkpt>
      <trkpt lat="38.93566" lon="40.09971">
        <ele>1195.951648</ele>
        <time>2021-11-16T22:17:27.131Z</time>
      </trkpt>
      <trkpt lat="38.93542" lon="40.0992">
        <ele>1195.499215</ele>
        <time>2021-11-16T22:17:35.899Z</time>
      </trkpt>
      <trkpt lat="38.93481" lon="40.09746">
        <ele>1193.196365</ele>
        <time>2021-11-16T22:18:01.918Z</time>
      </trkpt>
      <trkpt lat="38.93251" lon="40.09012">
        <ele>1178.034447</ele>
        <time>2021-11-16T22:19:46.716Z</time>
      </trkpt>
      <trkpt lat="38.93185" lon="40.08844">
        <ele>1173.466489</ele>
        <time>2021-11-16T22:20:10.513Z</time>
      </trkpt>
      <trkpt lat="38.93091" lon="40.08662">
        <ele>1167.825438</ele>
        <time>2021-11-16T22:20:37.677Z</time>
      </trkpt>
      <trkpt lat="38.93024" lon="40.08553">
        <ele>1164.496486</ele>
        <time>2021-11-16T22:20:55.337Z</time>
      </trkpt>
      <trkpt lat="38.92663" lon="40.0801">
        <ele>1152.236831</ele>
        <time>2021-11-16T22:22:32.322Z</time>
      </trkpt>
      <trkpt lat="38.92617" lon="40.07918">
        <ele>1150.136461</ele>
        <time>2021-11-16T22:22:46.729Z</time>
      </trkpt>
      <trkpt lat="38.9259" lon="40.07851">
        <ele>1148.689316</ele>
        <time>2021-11-16T22:22:56.582Z</time>
      </trkpt>
      <trkpt lat="38.92552" lon="40.07717">
        <ele>1145.956531</ele>
        <time>2021-11-16T22:23:15.309Z</time>
      </trkpt>
      <trkpt lat="38.92527" lon="40.07548">
        <ele>1143.008455</ele>
        <time>2021-11-16T22:23:38.374Z</time>
      </trkpt>
      <trkpt lat="38.92524" lon="40.07472">
        <ele>1141.857519</ele>
        <time>2021-11-16T22:23:48.814Z</time>
      </trkpt>
      <trkpt lat="38.92548" lon="40.0689">
        <ele>1134.205045</ele>
        <time>2021-11-16T22:25:10.841Z</time>
      </trkpt>
      <trkpt lat="38.92536" lon="40.06771">
        <ele>1132.852745</ele>
        <time>2021-11-16T22:25:28.084Z</time>
      </trkpt>
      <trkpt lat="38.92537" lon="40.06759">
        <ele>1132.718501</ele>
        <time>2021-11-16T22:25:29.782Z</time>
      </trkpt>
      <trkpt lat="38.92541" lon="40.06755">
        <ele>1132.648949</ele>
        <time>2021-11-16T22:25:30.678Z</time>
      </trkpt>
      <trkpt lat="38.92543" lon="40.0675">
        <ele>1132.584278</ele>
        <time>2021-11-16T22:25:31.512Z</time>
      </trkpt>
      <trkpt lat="38.92544" lon="40.06745">
        <ele>1132.519727</ele>
        <time>2021-11-16T22:25:32.331Z</time>
      </trkpt>
      <trkpt lat="38.92541" lon="40.06729">
        <ele>1132.331578</ele>
        <time>2021-11-16T22:25:34.765Z</time>
      </trkpt>
      <trkpt lat="38.92538" lon="40.06724">
        <ele>1132.267972</ele>
        <time>2021-11-16T22:25:35.581Z</time>
      </trkpt>
      <trkpt lat="38.92534" lon="40.06718">
        <ele>1132.173408</ele>
        <time>2021-11-16T22:25:36.801Z</time>
      </trkpt>
      <trkpt lat="38.92512" lon="40.06679">
        <ele>1131.689934</ele>
        <time>2021-11-16T22:25:43.891Z</time>
      </trkpt>
      <trkpt lat="38.92439" lon="40.06551">
        <ele>1130.126586</ele>
        <time>2021-11-16T22:26:06.895Z</time>
      </trkpt>
      <trkpt lat="38.92376" lon="40.06466">
        <ele>1129.001644</ele>
        <time>2021-11-16T22:26:24.171Z</time>
      </trkpt>
      <trkpt lat="38.92328" lon="40.0642">
        <ele>1128.270696</ele>
        <time>2021-11-16T22:26:35.352Z</time>
      </trkpt>
      <trkpt lat="38.92283" lon="40.06384">
        <ele>1127.663798</ele>
        <time>2021-11-16T22:26:45.208Z</time>
      </trkpt>
      <trkpt lat="38.92238" lon="40.06351">
        <ele>1127.581898</ele>
        <time>2021-11-16T22:26:55.537Z</time>
      </trkpt>
      <trkpt lat="38.9219" lon="40.06314">
        <ele>1127.494221</ele>
        <time>2021-11-16T22:27:07.172Z</time>
      </trkpt>
      <trkpt lat="38.9216" lon="40.06293">
        <ele>1127.441578</ele>
        <time>2021-11-16T22:27:14.767Z</time>
      </trkpt>
      <trkpt lat="38.92116" lon="40.06262">
        <ele>1127.728956</ele>
        <time>2021-11-16T22:27:27.043Z</time>
      </trkpt>
      <trkpt lat="38.92114" lon="40.0626">
        <ele>1127.782634</ele>
        <time>2021-11-16T22:27:27.950Z</time>
      </trkpt>
      <trkpt lat="38.91828" lon="40.06049">
        <ele>1135.906034</ele>
        <time>2021-11-16T22:29:14.219Z</time>
      </trkpt>
      <trkpt lat="38.91775" lon="40.06009">
        <ele>1138.529333</ele>
        <time>2021-11-16T22:29:37.868Z</time>
      </trkpt>
      <trkpt lat="38.91772" lon="40.06007">
        <ele>1138.678731</ele>
        <time>2021-11-16T22:29:40.099Z</time>
      </trkpt>
      <trkpt lat="38.9154" lon="40.05831">
        <ele>1151.464454</ele>
        <time>2021-11-16T22:31:32.967Z</time>
      </trkpt>
      <trkpt lat="38.91495" lon="40.05795">
        <ele>1153.980647</ele>
        <time>2021-11-16T22:31:54.461Z</time>
      </trkpt>
      <trkpt lat="38.91491" lon="40.05792">
        <ele>1154.219599</ele>
        <time>2021-11-16T22:31:57.192Z</time>
      </trkpt>
      <trkpt lat="38.91421" lon="40.05718">
        <ele>1158.310336</ele>
        <time>2021-11-16T22:32:34.043Z</time>
      </trkpt>
      <trkpt lat="38.91386" lon="40.05673">
        <ele>1160.513811</ele>
        <time>2021-11-16T22:32:53.409Z</time>
      </trkpt>
      <trkpt lat="38.91358" lon="40.05637">
        <ele>1162.206765</ele>
        <time>2021-11-16T22:33:08.605Z</time>
      </trkpt>
      <trkpt lat="38.9127" lon="40.05511">
        <ele>1167.383016</ele>
        <time>2021-11-16T22:34:00.202Z</time>
      </trkpt>
      <trkpt lat="38.91236" lon="40.05459">
        <ele>1168.97849</ele>
        <time>2021-11-16T22:34:18.634Z</time>
      </trkpt>
      <trkpt lat="38.91234" lon="40.05456">
        <ele>1169.040793</ele>
        <time>2021-11-16T22:34:20.202Z</time>
      </trkpt>
      <trkpt lat="38.91178" lon="40.05374">
        <ele>1170.690774</ele>
        <time>2021-11-16T22:34:46.204Z</time>
      </trkpt>
      <trkpt lat="38.91077" lon="40.05221">
        <ele>1173.130516</ele>
        <time>2021-11-16T22:35:26.148Z</time>
      </trkpt>
      <trkpt lat="38.90889" lon="40.04944">
        <ele>1178.671054</ele>
        <time>2021-11-16T22:36:49.599Z</time>
      </trkpt>
      <trkpt lat="38.90845" lon="40.04886">
        <ele>1182.11678</ele>
        <time>2021-11-16T22:37:13.931Z</time>
      </trkpt>
      <trkpt lat="38.90527" lon="40.04516">
        <ele>1206.772535</ele>
        <time>2021-11-16T22:40:34.679Z</time>
      </trkpt>
      <trkpt lat="38.9038" lon="40.04352">
        <ele>1219.253115</ele>
        <time>2021-11-16T22:42:09.548Z</time>
      </trkpt>
      <trkpt lat="38.90304" lon="40.04256">
        <ele>1224.132389</ele>
        <time>2021-11-16T22:42:58.262Z</time>
      </trkpt>
      <trkpt lat="38.89994" lon="40.03767">
        <ele>1240.167804</ele>
        <time>2021-11-16T22:45:57.760Z</time>
      </trkpt>
      <trkpt lat="38.8978" lon="40.03439">
        <ele>1226.624626</ele>
        <time>2021-11-16T22:46:48.216Z</time>
      </trkpt>
      <trkpt lat="38.89725" lon="40.03353">
        <ele>1222.230555</ele>
        <time>2021-11-16T22:47:00.882Z</time>
      </trkpt>
      <trkpt lat="38.89647" lon="40.03233">
        <ele>1216.902934</ele>
        <time>2021-11-16T22:47:19.569Z</time>
      </trkpt>
      <trkpt lat="38.89554" lon="40.03086">
        <ele>1212.46565</ele>
        <time>2021-11-16T22:47:44.691Z</time>
      </trkpt>
      <trkpt lat="38.89462" lon="40.02956">
        <ele>1208.863001</ele>
        <time>2021-11-16T22:48:08.557Z</time>
      </trkpt>
      <trkpt lat="38.89412" lon="40.02895">
        <ele>1206.623332</ele>
        <time>2021-11-16T22:48:19.288Z</time>
      </trkpt>
      <trkpt lat="38.89373" lon="40.02856">
        <ele>1204.75946</ele>
        <time>2021-11-16T22:48:26.807Z</time>
      </trkpt>
      <trkpt lat="38.89334" lon="40.02821">
        <ele>1202.940071</ele>
        <time>2021-11-16T22:48:34.177Z</time>
      </trkpt>
      <trkpt lat="38.89248" lon="40.02748">
        <ele>1201.078701</ele>
        <time>2021-11-16T22:48:51.125Z</time>
      </trkpt>
      <trkpt lat="38.89147" lon="40.02673">
        <ele>1200.957929</ele>
        <time>2021-11-16T22:49:21.936Z</time>
      </trkpt>
      <trkpt lat="38.89066" lon="40.02619">
        <ele>1202.087504</ele>
        <time>2021-11-16T22:49:52.660Z</time>
      </trkpt>
      <trkpt lat="38.89006" lon="40.02587">
        <ele>1202.959138</ele>
        <time>2021-11-16T22:50:11.647Z</time>
      </trkpt>
      <trkpt lat="38.88892" lon="40.0254">
        <ele>1200.20864</ele>
        <time>2021-11-16T22:50:33.413Z</time>
      </trkpt>
      <trkpt lat="38.88785" lon="40.0251">
        <ele>1195.783403</ele>
        <time>2021-11-16T22:50:49.689Z</time>
      </trkpt>
      <trkpt lat="38.88598" lon="40.02483">
        <ele>1185.053662</ele>
        <time>2021-11-16T22:51:16.916Z</time>
      </trkpt>
      <trkpt lat="38.88569" lon="40.0248">
        <ele>1184.373034</ele>
        <time>2021-11-16T22:51:21.338Z</time>
      </trkpt>
      <trkpt lat="38.88536" lon="40.02477">
        <ele>1183.581731</ele>
        <time>2021-11-16T22:51:26.812Z</time>
      </trkpt>
      <trkpt lat="38.88515" lon="40.02474">
        <ele>1183.069577</ele>
        <time>2021-11-16T22:51:30.704Z</time>
      </trkpt>
      <trkpt lat="38.88398" lon="40.02454">
        <ele>1182.246041</ele>
        <time>2021-11-16T22:51:58.117Z</time>
      </trkpt>
      <trkpt lat="38.88294" lon="40.02417">
        <ele>1184.112444</ele>
        <time>2021-11-16T22:52:32.498Z</time>
      </trkpt>
      <trkpt lat="38.88216" lon="40.02377">
        <ele>1185.83532</ele>
        <time>2021-11-16T22:52:58.842Z</time>
      </trkpt>
      <trkpt lat="38.88152" lon="40.02336">
        <ele>1187.41743</ele>
        <time>2021-11-16T22:53:21.546Z</time>
      </trkpt>
      <trkpt lat="38.88066" lon="40.02268">
        <ele>1188.988628</ele>
        <time>2021-11-16T22:53:51.534Z</time>
      </trkpt>
      <trkpt lat="38.88063" lon="40.02265">
        <ele>1189.031773</ele>
        <time>2021-11-16T22:53:53.060Z</time>
      </trkpt>
      <trkpt lat="38.88026" lon="40.02231">
        <ele>1189.475247</ele>
        <time>2021-11-16T22:54:05.102Z</time>
      </trkpt>
      <trkpt lat="38.87972" lon="40.02177">
        <ele>1190.155779</ele>
        <time>2021-11-16T22:54:21.737Z</time>
      </trkpt>
      <trkpt lat="38.87936" lon="40.02141">
        <ele>1189.559841</ele>
        <time>2021-11-16T22:54:31.713Z</time>
      </trkpt>
      <trkpt lat="38.87475" lon="40.01684">
        <ele>1176.941085</ele>
        <time>2021-11-16T22:56:13.025Z</time>
      </trkpt>
      <trkpt lat="38.87418" lon="40.01625">
        <ele>1174.502593</ele>
        <time>2021-11-16T22:56:24.306Z</time>
      </trkpt>
      <trkpt lat="38.87374" lon="40.01585">
        <ele>1172.562658</ele>
        <time>2021-11-16T22:56:32.603Z</time>
      </trkpt>
      <trkpt lat="38.8731" lon="40.0152">
        <ele>1169.454359</ele>
        <time>2021-11-16T22:56:45.286Z</time>
      </trkpt>
      <trkpt lat="38.87286" lon="40.01496">
        <ele>1168.281862</ele>
        <time>2021-11-16T22:56:50.208Z</time>
      </trkpt>
      <trkpt lat="38.87258" lon="40.01468">
        <ele>1166.935207</ele>
        <time>2021-11-16T22:56:56.051Z</time>
      </trkpt>
      <trkpt lat="38.87216" lon="40.01425">
        <ele>1165.546659</ele>
        <time>2021-11-16T22:57:05.322Z</time>
      </trkpt>
      <trkpt lat="38.87031" lon="40.01235">
        <ele>1159.182385</ele>
        <time>2021-11-16T22:57:45.897Z</time>
      </trkpt>
      <trkpt lat="38.87016" lon="40.01218">
        <ele>1158.566945</ele>
        <time>2021-11-16T22:57:49.160Z</time>
      </trkpt>
      <trkpt lat="38.86561" lon="40.0077">
        <ele>1135.656412</ele>
        <time>2021-11-16T22:59:18.676Z</time>
      </trkpt>
      <trkpt lat="38.86082" lon="40.00298">
        <ele>1113.519272</ele>
        <time>2021-11-16T23:00:53.571Z</time>
      </trkpt>
      <trkpt lat="38.8515" lon="39.9938">
        <ele>1105.514007</ele>
        <time>2021-11-16T23:04:55.513Z</time>
      </trkpt>
      <trkpt lat="38.84186" lon="39.98432">
        <ele>1078.223959</ele>
        <time>2021-11-16T23:08:23.874Z</time>
      </trkpt>
      <trkpt lat="38.84078" lon="39.98321">
        <ele>1076.29198</ele>
        <time>2021-11-16T23:08:49.580Z</time>
      </trkpt>
      <trkpt lat="38.83642" lon="39.97892">
        <ele>1073.948162</ele>
        <time>2021-11-16T23:10:43.432Z</time>
      </trkpt>
      <trkpt lat="38.83584" lon="39.97845">
        <ele>1074.143389</ele>
        <time>2021-11-16T23:10:59.772Z</time>
      </trkpt>
      <trkpt lat="38.83503" lon="39.97792">
        <ele>1075.093171</ele>
        <time>2021-11-16T23:11:23.315Z</time>
      </trkpt>
      <trkpt lat="38.83449" lon="39.97766">
        <ele>1076.227361</ele>
        <time>2021-11-16T23:11:40.816Z</time>
      </trkpt>
      <trkpt lat="38.83366" lon="39.97736">
        <ele>1077.903215</ele>
        <time>2021-11-16T23:12:09.064Z</time>
      </trkpt>
      <trkpt lat="38.8333" lon="39.97727">
        <ele>1078.433825</ele>
        <time>2021-11-16T23:12:20.957Z</time>
      </trkpt>
      <trkpt lat="38.83284" lon="39.97717">
        <ele>1079.110017</ele>
        <time>2021-11-16T23:12:36.022Z</time>
      </trkpt>
      <trkpt lat="38.82508" lon="39.97622">
        <ele>1090.479937</ele>
        <time>2021-11-16T23:16:09.933Z</time>
      </trkpt>
      <trkpt lat="38.82391" lon="39.97607">
        <ele>1091.179334</ele>
        <time>2021-11-16T23:16:45.800Z</time>
      </trkpt>
      <trkpt lat="38.82186" lon="39.97563">
        <ele>1088.60981</ele>
        <time>2021-11-16T23:17:24.641Z</time>
      </trkpt>
      <trkpt lat="38.82093" lon="39.9754">
        <ele>1086.08243</ele>
        <time>2021-11-16T23:17:39.202Z</time>
      </trkpt>
      <trkpt lat="38.81993" lon="39.97515">
        <ele>1082.915015</ele>
        <time>2021-11-16T23:17:55.270Z</time>
      </trkpt>
      <trkpt lat="38.81956" lon="39.97506">
        <ele>1081.734274</ele>
        <time>2021-11-16T23:18:02.022Z</time>
      </trkpt>
      <trkpt lat="38.8186" lon="39.97483">
        <ele>1082.465053</ele>
        <time>2021-11-16T23:18:24.705Z</time>
      </trkpt>
      <trkpt lat="38.81688" lon="39.97439">
        <ele>1086.207539</ele>
        <time>2021-11-16T23:19:21.989Z</time>
      </trkpt>
      <trkpt lat="38.81559" lon="39.97414">
        <ele>1090.494813</ele>
        <time>2021-11-16T23:20:09.855Z</time>
      </trkpt>
      <trkpt lat="38.81486" lon="39.97409">
        <ele>1093.167393</ele>
        <time>2021-11-16T23:20:37.353Z</time>
      </trkpt>
      <trkpt lat="38.81389" lon="39.97416">
        <ele>1096.497908</ele>
        <time>2021-11-16T23:21:12.835Z</time>
      </trkpt>
      <trkpt lat="38.81359" lon="39.97421">
        <ele>1097.341261</ele>
        <time>2021-11-16T23:21:23.262Z</time>
      </trkpt>
      <trkpt lat="38.81319" lon="39.97429">
        <ele>1098.500899</ele>
        <time>2021-11-16T23:21:37.220Z</time>
      </trkpt>
      <trkpt lat="38.81222" lon="39.97448">
        <ele>1101.115607</ele>
        <time>2021-11-16T23:22:09.102Z</time>
      </trkpt>
      <trkpt lat="38.81005" lon="39.97466">
        <ele>1104.27951</ele>
        <time>2021-11-16T23:23:10.594Z</time>
      </trkpt>
      <trkpt lat="38.80692" lon="39.97461">
        <ele>1106.023485</ele>
        <time>2021-11-16T23:24:25.917Z</time>
      </trkpt>
      <trkpt lat="38.79989" lon="39.97417">
        <ele>1107.080296</ele>
        <time>2021-11-16T23:27:06.049Z</time>
      </trkpt>
      <trkpt lat="38.78441" lon="39.97351">
        <ele>1110.021643</ele>
        <time>2021-11-16T23:33:16.832Z</time>
      </trkpt>
      <trkpt lat="38.77423" lon="39.9729">
        <ele>1037.299344</ele>
        <time>2021-11-16T23:35:40.903Z</time>
      </trkpt>
      <trkpt lat="38.7735" lon="39.97282">
        <ele>1033.201299</ele>
        <time>2021-11-16T23:35:51.784Z</time>
      </trkpt>
      <trkpt lat="38.77253" lon="39.97258">
        <ele>1028.471713</ele>
        <time>2021-11-16T23:36:07.107Z</time>
      </trkpt>
      <trkpt lat="38.77151" lon="39.9722">
        <ele>1025.288608</ele>
        <time>2021-11-16T23:36:24.724Z</time>
      </trkpt>
      <trkpt lat="38.7706" lon="39.97168">
        <ele>1022.821739</ele>
        <time>2021-11-16T23:36:41.851Z</time>
      </trkpt>
      <trkpt lat="38.76986" lon="39.97114">
        <ele>1021.046514</ele>
        <time>2021-11-16T23:36:56.813Z</time>
      </trkpt>
      <trkpt lat="38.76911" lon="39.97048">
        <ele>1019.268095</ele>
        <time>2021-11-16T23:37:12.878Z</time>
      </trkpt>
      <trkpt lat="38.76832" lon="39.96956">
        <ele>1017.282304</ele>
        <time>2021-11-16T23:37:31.974Z</time>
      </trkpt>
      <trkpt lat="38.76763" lon="39.96854">
        <ele>1015.368454</ele>
        <time>2021-11-16T23:37:50.938Z</time>
      </trkpt>
      <trkpt lat="38.7675" lon="39.9683">
        <ele>1014.958074</ele>
        <time>2021-11-16T23:37:54.972Z</time>
      </trkpt>
      <trkpt lat="38.76709" lon="39.96753">
        <ele>1013.631793</ele>
        <time>2021-11-16T23:38:07.955Z</time>
      </trkpt>
      <trkpt lat="38.76654" lon="39.9664">
        <ele>1011.219596</ele>
        <time>2021-11-16T23:38:25.950Z</time>
      </trkpt>
      <trkpt lat="38.76" lon="39.95288">
        <ele>980.279705</ele>
        <time>2021-11-16T23:41:55.828Z</time>
      </trkpt>
      <trkpt lat="38.75485" lon="39.94234">
        <ele>962.455806</ele>
        <time>2021-11-16T23:44:49.143Z</time>
      </trkpt>
      <trkpt lat="38.75141" lon="39.93532">
        <ele>955.775862</ele>
        <time>2021-11-16T23:46:54.076Z</time>
      </trkpt>
      <trkpt lat="38.74131" lon="39.91465">
        <ele>936.311507</ele>
        <time>2021-11-16T23:53:00.341Z</time>
      </trkpt>
      <trkpt lat="38.73886" lon="39.90964">
        <ele>930.825293</ele>
        <time>2021-11-16T23:54:25.908Z</time>
      </trkpt>
      <trkpt lat="38.73109" lon="39.89376">
        <ele>934.693301</ele>
        <time>2021-11-17T00:00:08.372Z</time>
      </trkpt>
      <trkpt lat="38.72916" lon="39.88983">
        <ele>937.953147</ele>
        <time>2021-11-17T00:01:44.084Z</time>
      </trkpt>
      <trkpt lat="38.7277" lon="39.88685">
        <ele>938.99913</ele>
        <time>2021-11-17T00:02:49.606Z</time>
      </trkpt>
      <trkpt lat="38.72724" lon="39.8859">
        <ele>938.861411</ele>
        <time>2021-11-17T00:03:08.355Z</time>
      </trkpt>
      <trkpt lat="38.72674" lon="39.88488">
        <ele>938.47064</ele>
        <time>2021-11-17T00:03:27.322Z</time>
      </trkpt>
      <trkpt lat="38.72619" lon="39.88367">
        <ele>937.776115</ele>
        <time>2021-11-17T00:03:49.051Z</time>
      </trkpt>
      <trkpt lat="38.72593" lon="39.88294">
        <ele>937.56122</ele>
        <time>2021-11-17T00:04:01.910Z</time>
      </trkpt>
      <trkpt lat="38.7257" lon="39.88228">
        <ele>937.450104</ele>
        <time>2021-11-17T00:04:14.026Z</time>
      </trkpt>
      <trkpt lat="38.72549" lon="39.88185">
        <ele>937.373929</ele>
        <time>2021-11-17T00:04:22.562Z</time>
      </trkpt>
      <trkpt lat="38.72545" lon="39.88179">
        <ele>937.362291</ele>
        <time>2021-11-17T00:04:23.837Z</time>
      </trkpt>
      <trkpt lat="38.72514" lon="39.88132">
        <ele>937.343764</ele>
        <time>2021-11-17T00:04:34.907Z</time>
      </trkpt>
      <trkpt lat="38.72481" lon="39.88077">
        <ele>937.557019</ele>
        <time>2021-11-17T00:04:47.516Z</time>
      </trkpt>
      <trkpt lat="38.72401" lon="39.87921">
        <ele>938.387169</ele>
        <time>2021-11-17T00:05:22.705Z</time>
      </trkpt>
      <trkpt lat="38.72351" lon="39.87821">
        <ele>939.471779</ele>
        <time>2021-11-17T00:05:47.564Z</time>
      </trkpt>
      <trkpt lat="38.72326" lon="39.87771">
        <ele>940.009826</ele>
        <time>2021-11-17T00:06:00.353Z</time>
      </trkpt>
      <trkpt lat="38.72247" lon="39.87617">
        <ele>942.802155</ele>
        <time>2021-11-17T00:06:43.758Z</time>
      </trkpt>
      <trkpt lat="38.72206" lon="39.87536">
        <ele>944.288124</ele>
        <time>2021-11-17T00:07:07.398Z</time>
      </trkpt>
      <trkpt lat="38.72171" lon="39.87467">
        <ele>945.509629</ele>
        <time>2021-11-17T00:07:26.980Z</time>
      </trkpt>
      <trkpt lat="38.7208" lon="39.87262">
        <ele>949.044344</ele>
        <time>2021-11-17T00:08:20.100Z</time>
      </trkpt>
      <trkpt lat="38.71974" lon="39.87049">
        <ele>953.434127</ele>
        <time>2021-11-17T00:09:21.684Z</time>
      </trkpt>
      <trkpt lat="38.71946" lon="39.86992">
        <ele>954.719825</ele>
        <time>2021-11-17T00:09:39.725Z</time>
      </trkpt>
      <trkpt lat="38.71828" lon="39.86736">
        <ele>960.210955</ele>
        <time>2021-11-17T00:10:54.159Z</time>
      </trkpt>
      <trkpt lat="38.71785" lon="39.86645">
        <ele>961.75837</ele>
        <time>2021-11-17T00:11:18.508Z</time>
      </trkpt>
      <trkpt lat="38.71711" lon="39.86496">
        <ele>963.769003</ele>
        <time>2021-11-17T00:11:57.394Z</time>
      </trkpt>
      <trkpt lat="38.71696" lon="39.86466">
        <ele>964.099979</ele>
        <time>2021-11-17T00:12:05.274Z</time>
      </trkpt>
      <trkpt lat="38.71661" lon="39.86396">
        <ele>964.867783</ele>
        <time>2021-11-17T00:12:22.999Z</time>
      </trkpt>
      <trkpt lat="38.71576" lon="39.86227">
        <ele>964.745701</ele>
        <time>2021-11-17T00:12:55.936Z</time>
      </trkpt>
      <trkpt lat="38.71522" lon="39.86118">
        <ele>965.191075</ele>
        <time>2021-11-17T00:13:17.891Z</time>
      </trkpt>
      <trkpt lat="38.71449" lon="39.85973">
        <ele>966.370384</ele>
        <time>2021-11-17T00:13:54.010Z</time>
      </trkpt>
      <trkpt lat="38.71382" lon="39.85839">
        <ele>968.49387</ele>
        <time>2021-11-17T00:14:32.035Z</time>
      </trkpt>
      <trkpt lat="38.7135" lon="39.85773">
        <ele>969.421917</ele>
        <time>2021-11-17T00:14:48.485Z</time>
      </trkpt>
      <trkpt lat="38.71299" lon="39.85668">
        <ele>970.782931</ele>
        <time>2021-11-17T00:15:14.386Z</time>
      </trkpt>
      <trkpt lat="38.71244" lon="39.85556">
        <ele>972.720909</ele>
        <time>2021-11-17T00:15:44.145Z</time>
      </trkpt>
      <trkpt lat="38.71192" lon="39.8545">
        <ele>975.00734</ele>
        <time>2021-11-17T00:16:15.464Z</time>
      </trkpt>
      <trkpt lat="38.71188" lon="39.8544">
        <ele>975.225585</ele>
        <time>2021-11-17T00:16:18.828Z</time>
      </trkpt>
      <trkpt lat="38.71165" lon="39.85394">
        <ele>976.377573</ele>
        <time>2021-11-17T00:16:33.342Z</time>
      </trkpt>
      <trkpt lat="38.71114" lon="39.85291">
        <ele>979.250587</ele>
        <time>2021-11-17T00:17:06.682Z</time>
      </trkpt>
      <trkpt lat="38.71022" lon="39.85107">
        <ele>983.58978</ele>
        <time>2021-11-17T00:18:03.901Z</time>
      </trkpt>
      <trkpt lat="38.70996" lon="39.85055">
        <ele>984.673513</ele>
        <time>2021-11-17T00:18:18.281Z</time>
      </trkpt>
      <trkpt lat="38.70914" lon="39.84888">
        <ele>986.503585</ele>
        <time>2021-11-17T00:18:58.576Z</time>
      </trkpt>
      <trkpt lat="38.70815" lon="39.84687">
        <ele>988.496011</ele>
        <time>2021-11-17T00:19:45.858Z</time>
      </trkpt>
      <trkpt lat="38.70776" lon="39.84609">
        <ele>989.741616</ele>
        <time>2021-11-17T00:20:06.258Z</time>
      </trkpt>
      <trkpt lat="38.70673" lon="39.844">
        <ele>995.838739</ele>
        <time>2021-11-17T00:21:12.725Z</time>
      </trkpt>
      <trkpt lat="38.70654" lon="39.84355">
        <ele>997.658785</ele>
        <time>2021-11-17T00:21:28.697Z</time>
      </trkpt>
      <trkpt lat="38.70645" lon="39.84335">
        <ele>998.510292</ele>
        <time>2021-11-17T00:21:36.287Z</time>
      </trkpt>
      <trkpt lat="38.70615" lon="39.84266">
        <ele>1001.329839</ele>
        <time>2021-11-17T00:22:02.826Z</time>
      </trkpt>
      <trkpt lat="38.70584" lon="39.84154">
        <ele>1006.916328</ele>
        <time>2021-11-17T00:22:46.084Z</time>
      </trkpt>
      <trkpt lat="38.70565" lon="39.84043">
        <ele>1012.569345</ele>
        <time>2021-11-17T00:23:28.994Z</time>
      </trkpt>
      <trkpt lat="38.70558" lon="39.83897">
        <ele>1020.43874</ele>
        <time>2021-11-17T00:24:26.485Z</time>
      </trkpt>
      <trkpt lat="38.70556" lon="39.83851">
        <ele>1022.920547</ele>
        <time>2021-11-17T00:24:44.420Z</time>
      </trkpt>
      <trkpt lat="38.70539" lon="39.83526">
        <ele>1040.958785</ele>
        <time>2021-11-17T00:26:52.485Z</time>
      </trkpt>
      <trkpt lat="38.70531" lon="39.83466">
        <ele>1044.574807</ele>
        <time>2021-11-17T00:27:17.850Z</time>
      </trkpt>
      <trkpt lat="38.7052" lon="39.83371">
        <ele>1050.323733</ele>
        <time>2021-11-17T00:27:59.015Z</time>
      </trkpt>
      <trkpt lat="38.70491" lon="39.83225">
        <ele>1057.392449</ele>
        <time>2021-11-17T00:28:59.492Z</time>
      </trkpt>
      <trkpt lat="38.70439" lon="39.83067">
        <ele>1062.513294</ele>
        <time>2021-11-17T00:29:50.166Z</time>
      </trkpt>
      <trkpt lat="38.70403" lon="39.82987">
        <ele>1062.635561</ele>
        <time>2021-11-17T00:30:05.749Z</time>
      </trkpt>
      <trkpt lat="38.70394" lon="39.82971">
        <ele>1062.662658</ele>
        <time>2021-11-17T00:30:08.614Z</time>
      </trkpt>
      <trkpt lat="38.7036" lon="39.82909">
        <ele>1062.539979</ele>
        <time>2021-11-17T00:30:19.065Z</time>
      </trkpt>
      <trkpt lat="38.69981" lon="39.82332">
        <ele>1046.683566</ele>
        <time>2021-11-17T00:31:56.779Z</time>
      </trkpt>
      <trkpt lat="38.69406" lon="39.81454">
        <ele>1033.001583</ele>
        <time>2021-11-17T00:34:39.277Z</time>
      </trkpt>
      <trkpt lat="38.69276" lon="39.81255">
        <ele>1034.336924</ele>
        <time>2021-11-17T00:35:39.899Z</time>
      </trkpt>
      <trkpt lat="38.69056" lon="39.80931">
        <ele>1030.992114</ele>
        <time>2021-11-17T00:36:46.959Z</time>
      </trkpt>
      <trkpt lat="38.6832" lon="39.79816">
        <ele>978.2986</ele>
        <time>2021-11-17T00:39:40.398Z</time>
      </trkpt>
      <trkpt lat="38.68202" lon="39.79668">
        <ele>969.988909</ele>
        <time>2021-11-17T00:40:05.308Z</time>
      </trkpt>
      <trkpt lat="38.67934" lon="39.79389">
        <ele>951.746672</ele>
        <time>2021-11-17T00:40:56.969Z</time>
      </trkpt>
      <trkpt lat="38.67863" lon="39.79303">
        <ele>946.389612</ele>
        <time>2021-11-17T00:41:11.489Z</time>
      </trkpt>
      <trkpt lat="38.67811" lon="39.79214">
        <ele>941.744019</ele>
        <time>2021-11-17T00:41:24.350Z</time>
      </trkpt>
      <trkpt lat="38.67759" lon="39.79142">
        <ele>937.630221</ele>
        <time>2021-11-17T00:41:35.849Z</time>
      </trkpt>
      <trkpt lat="38.67714" lon="39.7909">
        <ele>934.738282</ele>
        <time>2021-11-17T00:41:45.016Z</time>
      </trkpt>
      <trkpt lat="38.67657" lon="39.79046">
        <ele>931.709921</ele>
        <time>2021-11-17T00:41:55.211Z</time>
      </trkpt>
      <trkpt lat="38.67479" lon="39.7896">
        <ele>923.514658</ele>
        <time>2021-11-17T00:42:24.706Z</time>
      </trkpt>
      <trkpt lat="38.67365" lon="39.78861">
        <ele>918.044715</ele>
        <time>2021-11-17T00:42:46.319Z</time>
      </trkpt>
      <trkpt lat="38.67304" lon="39.78779">
        <ele>914.648967</ele>
        <time>2021-11-17T00:43:00.417Z</time>
      </trkpt>
      <trkpt lat="38.67104" lon="39.78432">
        <ele>902.3151</ele>
        <time>2021-11-17T00:43:54.182Z</time>
      </trkpt>
      <trkpt lat="38.67021" lon="39.78346">
        <ele>897.898323</ele>
        <time>2021-11-17T00:44:10.943Z</time>
      </trkpt>
      <trkpt lat="38.66924" lon="39.78281">
        <ele>893.184966</ele>
        <time>2021-11-17T00:44:27.687Z</time>
      </trkpt>
      <trkpt lat="38.66874" lon="39.7826">
        <ele>890.744334</ele>
        <time>2021-11-17T00:44:35.774Z</time>
      </trkpt>
      <trkpt lat="38.66728" lon="39.78213">
        <ele>883.864262</ele>
        <time>2021-11-17T00:44:58.766Z</time>
      </trkpt>
      <trkpt lat="38.66681" lon="39.78189">
        <ele>881.657219</ele>
        <time>2021-11-17T00:45:06.491Z</time>
      </trkpt>
      <trkpt lat="38.66614" lon="39.78145">
        <ele>878.361865</ele>
        <time>2021-11-17T00:45:18.190Z</time>
      </trkpt>
      <trkpt lat="38.666" lon="39.78133">
        <ele>877.643537</ele>
        <time>2021-11-17T00:45:20.744Z</time>
      </trkpt>
      <trkpt lat="38.66596" lon="39.78129">
        <ele>877.432369</ele>
        <time>2021-11-17T00:45:21.540Z</time>
      </trkpt>
      <trkpt lat="38.6658" lon="39.78115">
        <ele>876.735139</ele>
        <time>2021-11-17T00:45:24.701Z</time>
      </trkpt>
      <trkpt lat="38.66496" lon="39.78025">
        <ele>873.749488</ele>
        <time>2021-11-17T00:45:42.553Z</time>
      </trkpt>
      <trkpt lat="38.66453" lon="39.7796">
        <ele>872.032799</ele>
        <time>2021-11-17T00:45:54.456Z</time>
      </trkpt>
      <trkpt lat="38.66387" lon="39.77836">
        <ele>870.841557</ele>
        <time>2021-11-17T00:46:17.108Z</time>
      </trkpt>
      <trkpt lat="38.66174" lon="39.7736">
        <ele>868.01487</ele>
        <time>2021-11-17T00:47:43.524Z</time>
      </trkpt>
      <trkpt lat="38.65919" lon="39.76802">
        <ele>864.891746</ele>
        <time>2021-11-17T00:49:26.565Z</time>
      </trkpt>
      <trkpt lat="38.65805" lon="39.76554">
        <ele>861.752741</ele>
        <time>2021-11-17T00:50:07.558Z</time>
      </trkpt>
      <trkpt lat="38.65735" lon="39.76401">
        <ele>859.824295</ele>
        <time>2021-11-17T00:50:33.106Z</time>
      </trkpt>
      <trkpt lat="38.65642" lon="39.76198">
        <ele>857.884081</ele>
        <time>2021-11-17T00:51:08.505Z</time>
      </trkpt>
      <trkpt lat="38.65506" lon="39.75902">
        <ele>855.689754</ele>
        <time>2021-11-17T00:52:01.965Z</time>
      </trkpt>
      <trkpt lat="38.654" lon="39.75669">
        <ele>853.849299</ele>
        <time>2021-11-17T00:52:42.536Z</time>
      </trkpt>
      <trkpt lat="38.65328" lon="39.755">
        <ele>852.93337</ele>
        <time>2021-11-17T00:53:12.875Z</time>
      </trkpt>
      <trkpt lat="38.65241" lon="39.75242">
        <ele>852.576393</ele>
        <time>2021-11-17T00:54:00.485Z</time>
      </trkpt>
      <trkpt lat="38.6521" lon="39.75105">
        <ele>852.736955</ele>
        <time>2021-11-17T00:54:26.238Z</time>
      </trkpt>
      <trkpt lat="38.65177" lon="39.74927">
        <ele>853.198956</ele>
        <time>2021-11-17T00:55:00.097Z</time>
      </trkpt>
      <trkpt lat="38.65158" lon="39.74756">
        <ele>853.599231</ele>
        <time>2021-11-17T00:55:31.888Z</time>
      </trkpt>
      <trkpt lat="38.65146" lon="39.74601">
        <ele>853.720244</ele>
        <time>2021-11-17T00:55:59.450Z</time>
      </trkpt>
      <trkpt lat="38.65132" lon="39.74229">
        <ele>853.677623</ele>
        <time>2021-11-17T00:57:03.538Z</time>
      </trkpt>
      <trkpt lat="38.65129" lon="39.74128">
        <ele>853.761303</ele>
        <time>2021-11-17T00:57:21.577Z</time>
      </trkpt>
      <trkpt lat="38.65113" lon="39.73925">
        <ele>853.806923</ele>
        <time>2021-11-17T00:57:57.469Z</time>
      </trkpt>
      <trkpt lat="38.65094" lon="39.73789">
        <ele>853.748567</ele>
        <time>2021-11-17T00:58:20.786Z</time>
      </trkpt>
      <trkpt lat="38.65067" lon="39.73654">
        <ele>853.890257</ele>
        <time>2021-11-17T00:58:45.245Z</time>
      </trkpt>
      <trkpt lat="38.65033" lon="39.73502">
        <ele>854.169059</ele>
        <time>2021-11-17T00:59:14.500Z</time>
      </trkpt>
      <trkpt lat="38.64983" lon="39.73339">
        <ele>854.580205</ele>
        <time>2021-11-17T00:59:47.247Z</time>
      </trkpt>
      <trkpt lat="38.64917" lon="39.73172">
        <ele>854.438907</ele>
        <time>2021-11-17T01:00:19.551Z</time>
      </trkpt>
      <trkpt lat="38.6471" lon="39.72732">
        <ele>851.031214</ele>
        <time>2021-11-17T01:01:38.643Z</time>
      </trkpt>
      <trkpt lat="38.64531" lon="39.72397">
        <ele>845.317166</ele>
        <time>2021-11-17T01:02:34.117Z</time>
      </trkpt>
      <trkpt lat="38.64301" lon="39.71952">
        <ele>842.944311</ele>
        <time>2021-11-17T01:03:57.306Z</time>
      </trkpt>
      <trkpt lat="38.6426" lon="39.71902">
        <ele>843.895621</ele>
        <time>2021-11-17T01:04:12.204Z</time>
      </trkpt>
      <trkpt lat="38.64093" lon="39.71589">
        <ele>852.641102</ele>
        <time>2021-11-17T01:05:56.603Z</time>
      </trkpt>
      <trkpt lat="38.64079" lon="39.71554">
        <ele>854.006773</ele>
        <time>2021-11-17T01:06:09.144Z</time>
      </trkpt>
      <trkpt lat="38.64074" lon="39.71537">
        <ele>854.621827</ele>
        <time>2021-11-17T01:06:16.346Z</time>
      </trkpt>
      <trkpt lat="38.64071" lon="39.71502">
        <ele>855.833808</ele>
        <time>2021-11-17T01:06:27.194Z</time>
      </trkpt>
      <trkpt lat="38.64078" lon="39.71453">
        <ele>857.55686</ele>
        <time>2021-11-17T01:06:44.197Z</time>
      </trkpt>
      <trkpt lat="38.64175" lon="39.71287">
        <ele>862.967556</ele>
        <time>2021-11-17T01:07:45.029Z</time>
      </trkpt>
      <trkpt lat="38.64214" lon="39.71206">
        <ele>864.717411</ele>
        <time>2021-11-17T01:08:05.923Z</time>
      </trkpt>
      <trkpt lat="38.64229" lon="39.71166">
        <ele>864.67899</ele>
        <time>2021-11-17T01:08:14.768Z</time>
      </trkpt>
      <trkpt lat="38.6446" lon="39.70561">
        <ele>863.454431</ele>
        <time>2021-11-17T01:10:05.016Z</time>
      </trkpt>
      <trkpt lat="38.64527" lon="39.70372">
        <ele>862.503833</ele>
        <time>2021-11-17T01:10:37.253Z</time>
      </trkpt>
      <trkpt lat="38.64562" lon="39.70235">
        <ele>862.377614</ele>
        <time>2021-11-17T01:11:01.042Z</time>
      </trkpt>
      <trkpt lat="38.64582" lon="39.70118">
        <ele>862.817778</ele>
        <time>2021-11-17T01:11:24.029Z</time>
      </trkpt>
      <trkpt lat="38.64591" lon="39.70067">
        <ele>863.267805</ele>
        <time>2021-11-17T01:11:34.853Z</time>
      </trkpt>
      <trkpt lat="38.64657" lon="39.69716">
        <ele>867.08778</ele>
        <time>2021-11-17T01:12:54.140Z</time>
      </trkpt>
      <trkpt lat="38.64881" lon="39.68546">
        <ele>880.585238</ele>
        <time>2021-11-17T01:17:17.901Z</time>
      </trkpt>
      <trkpt lat="38.64906" lon="39.68349">
        <ele>882.532904</ele>
        <time>2021-11-17T01:17:59.714Z</time>
      </trkpt>
      <trkpt lat="38.64912" lon="39.68154">
        <ele>884.513609</ele>
        <time>2021-11-17T01:18:40.511Z</time>
      </trkpt>
      <trkpt lat="38.64909" lon="39.67998">
        <ele>888.344109</ele>
        <time>2021-11-17T01:19:19.480Z</time>
      </trkpt>
      <trkpt lat="38.64862" lon="39.6728">
        <ele>915.041134</ele>
        <time>2021-11-17T01:23:16.742Z</time>
      </trkpt>
      <trkpt lat="38.64846" lon="39.67179">
        <ele>917.995599</ele>
        <time>2021-11-17T01:23:49.714Z</time>
      </trkpt>
      <trkpt lat="38.64807" lon="39.67061">
        <ele>920.687315</ele>
        <time>2021-11-17T01:24:24.404Z</time>
      </trkpt>
      <trkpt lat="38.64083" lon="39.65139">
        <ele>916.181112</ele>
        <time>2021-11-17T01:30:12.025Z</time>
      </trkpt>
      <trkpt lat="38.64025" lon="39.6497">
        <ele>918.908508</ele>
        <time>2021-11-17T01:30:56.041Z</time>
      </trkpt>
      <trkpt lat="38.63986" lon="39.64829">
        <ele>922.221722</ele>
        <time>2021-11-17T01:31:36.688Z</time>
      </trkpt>
      <trkpt lat="38.63953" lon="39.64685">
        <ele>925.818402</ele>
        <time>2021-11-17T01:32:17.685Z</time>
      </trkpt>
      <trkpt lat="38.6393" lon="39.64554">
        <ele>929.006679</ele>
        <time>2021-11-17T01:32:54.046Z</time>
      </trkpt>
      <trkpt lat="38.6386" lon="39.63954">
        <ele>941.059785</ele>
        <time>2021-11-17T01:35:33.334Z</time>
      </trkpt>
      <trkpt lat="38.63755" lon="39.6297">
        <ele>944.981046</ele>
        <time>2021-11-17T01:38:39.152Z</time>
      </trkpt>
      <trkpt lat="38.63664" lon="39.62181">
        <ele>934.450757</ele>
        <time>2021-11-17T01:40:30.051Z</time>
      </trkpt>
      <trkpt lat="38.63659" lon="39.62058">
        <ele>932.770214</ele>
        <time>2021-11-17T01:40:47.502Z</time>
      </trkpt>
      <trkpt lat="38.63674" lon="39.61621">
        <ele>925.915064</ele>
        <time>2021-11-17T01:41:48.693Z</time>
      </trkpt>
      <trkpt lat="38.6368" lon="39.61424">
        <ele>920.00733</ele>
        <time>2021-11-17T01:42:13.322Z</time>
      </trkpt>
      <trkpt lat="38.63704" lon="39.60592">
        <ele>887.150706</ele>
        <time>2021-11-17T01:43:50.636Z</time>
      </trkpt>
      <trkpt lat="38.63701" lon="39.60492">
        <ele>884.059274</ele>
        <time>2021-11-17T01:44:02.595Z</time>
      </trkpt>
      <trkpt lat="38.63688" lon="39.60402">
        <ele>881.231611</ele>
        <time>2021-11-17T01:44:14.017Z</time>
      </trkpt>
      <trkpt lat="38.63669" lon="39.60329">
        <ele>880.326327</ele>
        <time>2021-11-17T01:44:24.456Z</time>
      </trkpt>
      <trkpt lat="38.63637" lon="39.60244">
        <ele>879.998477</ele>
        <time>2021-11-17T01:44:39.116Z</time>
      </trkpt>
      <trkpt lat="38.63491" lon="39.59896">
        <ele>882.459269</ele>
        <time>2021-11-17T01:46:04.668Z</time>
      </trkpt>
      <trkpt lat="38.6341" lon="39.5968">
        <ele>882.135077</ele>
        <time>2021-11-17T01:46:47.125Z</time>
      </trkpt>
      <trkpt lat="38.63375" lon="39.59516">
        <ele>880.137975</ele>
        <time>2021-11-17T01:47:10.035Z</time>
      </trkpt>
      <trkpt lat="38.63358" lon="39.59398">
        <ele>878.070633</ele>
        <time>2021-11-17T01:47:25.554Z</time>
      </trkpt>
      <trkpt lat="38.63306" lon="39.57375">
        <ele>857.034337</ele>
        <time>2021-11-17T01:52:20.026Z</time>
      </trkpt>
      <trkpt lat="38.63304" lon="39.57245">
        <ele>856.630521</ele>
        <time>2021-11-17T01:52:42.458Z</time>
      </trkpt>
      <trkpt lat="38.63295" lon="39.56865">
        <ele>860.518776</ele>
        <time>2021-11-17T01:54:05.227Z</time>
      </trkpt>
      <trkpt lat="38.63286" lon="39.567">
        <ele>862.249575</ele>
        <time>2021-11-17T01:54:41.660Z</time>
      </trkpt>
      <trkpt lat="38.63269" lon="39.5655">
        <ele>863.672564</ele>
        <time>2021-11-17T01:55:13.670Z</time>
      </trkpt>
      <trkpt lat="38.63239" lon="39.56405">
        <ele>864.307305</ele>
        <time>2021-11-17T01:55:43.205Z</time>
      </trkpt>
      <trkpt lat="38.63203" lon="39.56268">
        <ele>864.333787</ele>
        <time>2021-11-17T01:56:08.147Z</time>
      </trkpt>
      <trkpt lat="38.63168" lon="39.56167">
        <ele>863.921969</ele>
        <time>2021-11-17T01:56:25.514Z</time>
      </trkpt>
      <trkpt lat="38.63123" lon="39.56054">
        <ele>863.267503</ele>
        <time>2021-11-17T01:56:44.913Z</time>
      </trkpt>
      <trkpt lat="38.6307" lon="39.5594">
        <ele>862.479535</ele>
        <time>2021-11-17T01:57:05.434Z</time>
      </trkpt>
      <trkpt lat="38.6276" lon="39.55309">
        <ele>859.439782</ele>
        <time>2021-11-17T01:59:05.148Z</time>
      </trkpt>
      <trkpt lat="38.62643" lon="39.55071">
        <ele>858.184412</ele>
        <time>2021-11-17T01:59:49.273Z</time>
      </trkpt>
      <trkpt lat="38.62338" lon="39.54448">
        <ele>855.76827</ele>
        <time>2021-11-17T02:01:49.067Z</time>
      </trkpt>
      <trkpt lat="38.62295" lon="39.54341">
        <ele>855.719393</ele>
        <time>2021-11-17T02:02:07.854Z</time>
      </trkpt>
      <trkpt lat="38.62265" lon="39.54238">
        <ele>856.931515</ele>
        <time>2021-11-17T02:02:29.577Z</time>
      </trkpt>
      <trkpt lat="38.62232" lon="39.54098">
        <ele>858.831984</ele>
        <time>2021-11-17T02:03:08.331Z</time>
      </trkpt>
      <trkpt lat="38.62219" lon="39.53966">
        <ele>861.068541</ele>
        <time>2021-11-17T02:03:43.805Z</time>
      </trkpt>
      <trkpt lat="38.62178" lon="39.53262">
        <ele>860.790867</ele>
        <time>2021-11-17T02:05:41.759Z</time>
      </trkpt>
      <trkpt lat="38.62161" lon="39.53132">
        <ele>860.293868</ele>
        <time>2021-11-17T02:06:02.639Z</time>
      </trkpt>
      <trkpt lat="38.62133" lon="39.52993">
        <ele>859.687886</ele>
        <time>2021-11-17T02:06:25.523Z</time>
      </trkpt>
      <trkpt lat="38.62101" lon="39.52867">
        <ele>859.085732</ele>
        <time>2021-11-17T02:06:46.598Z</time>
      </trkpt>
      <trkpt lat="38.62079" lon="39.52803">
        <ele>858.769611</ele>
        <time>2021-11-17T02:06:57.600Z</time>
      </trkpt>
      <trkpt lat="38.62063" lon="39.52757">
        <ele>858.548709</ele>
        <time>2021-11-17T02:07:05.590Z</time>
      </trkpt>
      <trkpt lat="38.61971" lon="39.52544">
        <ele>857.59208</ele>
        <time>2021-11-17T02:07:44.488Z</time>
      </trkpt>
      <trkpt lat="38.61911" lon="39.52438">
        <ele>857.254554</ele>
        <time>2021-11-17T02:08:06.268Z</time>
      </trkpt>
      <trkpt lat="38.61019" lon="39.50909">
        <ele>854.065515</ele>
        <time>2021-11-17T02:13:26.153Z</time>
      </trkpt>
      <trkpt lat="38.60986" lon="39.50849">
        <ele>853.889654</ele>
        <time>2021-11-17T02:13:38.113Z</time>
      </trkpt>
      <trkpt lat="38.6095" lon="39.50783">
        <ele>853.698994</ele>
        <time>2021-11-17T02:13:51.350Z</time>
      </trkpt>
      <trkpt lat="38.60941" lon="39.50765">
        <ele>853.649469</ele>
        <time>2021-11-17T02:13:54.729Z</time>
      </trkpt>
      <trkpt lat="38.60899" lon="39.50678">
        <ele>853.538214</ele>
        <time>2021-11-17T02:14:11.891Z</time>
      </trkpt>
      <trkpt lat="38.60889" lon="39.50655">
        <ele>853.530947</ele>
        <time>2021-11-17T02:14:16.331Z</time>
      </trkpt>
      <trkpt lat="38.60826" lon="39.50506">
        <ele>853.523592</ele>
        <time>2021-11-17T02:14:46.248Z</time>
      </trkpt>
      <trkpt lat="38.6023" lon="39.49001">
        <ele>855.40274</ele>
        <time>2021-11-17T02:19:47.048Z</time>
      </trkpt>
      <trkpt lat="38.59287" lon="39.46601">
        <ele>858.420457</ele>
        <time>2021-11-17T02:27:46.414Z</time>
      </trkpt>
      <trkpt lat="38.59263" lon="39.46505">
        <ele>858.383693</ele>
        <time>2021-11-17T02:28:03.845Z</time>
      </trkpt>
      <trkpt lat="38.59244" lon="39.46408">
        <ele>858.346748</ele>
        <time>2021-11-17T02:28:20.858Z</time>
      </trkpt>
      <trkpt lat="38.5923" lon="39.46302">
        <ele>858.166034</ele>
        <time>2021-11-17T02:28:38.999Z</time>
      </trkpt>
      <trkpt lat="38.5922" lon="39.46202">
        <ele>857.996119</ele>
        <time>2021-11-17T02:28:55.875Z</time>
      </trkpt>
      <trkpt lat="38.59217" lon="39.46101">
        <ele>857.864604</ele>
        <time>2021-11-17T02:29:12.452Z</time>
      </trkpt>
      <trkpt lat="38.59232" lon="39.45883">
        <ele>857.914958</ele>
        <time>2021-11-17T02:29:49.823Z</time>
      </trkpt>
      <trkpt lat="38.59248" lon="39.45791">
        <ele>858.236622</ele>
        <time>2021-11-17T02:30:07.653Z</time>
      </trkpt>
      <trkpt lat="38.59295" lon="39.45601">
        <ele>859.452221</ele>
        <time>2021-11-17T02:30:48.536Z</time>
      </trkpt>
      <trkpt lat="38.59386" lon="39.4531">
        <ele>861.484748</ele>
        <time>2021-11-17T02:31:51.780Z</time>
      </trkpt>
      <trkpt lat="38.59414" lon="39.45198">
        <ele>861.65326</ele>
        <time>2021-11-17T02:32:12.372Z</time>
      </trkpt>
      <trkpt lat="38.5943" lon="39.45113">
        <ele>861.715373</ele>
        <time>2021-11-17T02:32:26.738Z</time>
      </trkpt>
      <trkpt lat="38.59445" lon="39.44973">
        <ele>862.816479</ele>
        <time>2021-11-17T02:32:52.584Z</time>
      </trkpt>
      <trkpt lat="38.59444" lon="39.44874">
        <ele>863.871722</ele>
        <time>2021-11-17T02:33:15.684Z</time>
      </trkpt>
      <trkpt lat="38.59438" lon="39.44784">
        <ele>865.282496</ele>
        <time>2021-11-17T02:33:40.165Z</time>
      </trkpt>
      <trkpt lat="38.59427" lon="39.44697">
        <ele>866.883018</ele>
        <time>2021-11-17T02:34:03.926Z</time>
      </trkpt>
      <trkpt lat="38.5941" lon="39.44613">
        <ele>868.339848</ele>
        <time>2021-11-17T02:34:25.188Z</time>
      </trkpt>
      <trkpt lat="38.592" lon="39.4388">
        <ele>862.167818</ele>
        <time>2021-11-17T02:36:20.856Z</time>
      </trkpt>
      <trkpt lat="38.5918" lon="39.43729">
        <ele>860.9933</ele>
        <time>2021-11-17T02:36:43.807Z</time>
      </trkpt>
      <trkpt lat="38.59179" lon="39.43642">
        <ele>860.799973</ele>
        <time>2021-11-17T02:36:57.652Z</time>
      </trkpt>
      <trkpt lat="38.59179" lon="39.43625">
        <ele>860.759867</ele>
        <time>2021-11-17T02:37:00.651Z</time>
      </trkpt>
      <trkpt lat="38.5918" lon="39.43582">
        <ele>860.663965</ele>
        <time>2021-11-17T02:37:07.959Z</time>
      </trkpt>
      <trkpt lat="38.59185" lon="39.43522">
        <ele>860.528663</ele>
        <time>2021-11-17T02:37:18.759Z</time>
      </trkpt>
      <trkpt lat="38.59211" lon="39.43369">
        <ele>861.042357</ele>
        <time>2021-11-17T02:37:47.997Z</time>
      </trkpt>
      <trkpt lat="38.59283" lon="39.43057">
        <ele>862.311941</ele>
        <time>2021-11-17T02:38:50.051Z</time>
      </trkpt>
      <trkpt lat="38.59293" lon="39.42968">
        <ele>862.677504</ele>
        <time>2021-11-17T02:39:07.017Z</time>
      </trkpt>
      <trkpt lat="38.59298" lon="39.42862">
        <ele>863.111093</ele>
        <time>2021-11-17T02:39:27.324Z</time>
      </trkpt>
      <trkpt lat="38.59294" lon="39.4277">
        <ele>863.427192</ele>
        <time>2021-11-17T02:39:44.917Z</time>
      </trkpt>
      <trkpt lat="38.59281" lon="39.42679">
        <ele>863.725452</ele>
        <time>2021-11-17T02:40:01.938Z</time>
      </trkpt>
      <trkpt lat="38.59235" lon="39.42503">
        <ele>864.526929</ele>
        <time>2021-11-17T02:40:35.966Z</time>
      </trkpt>
      <trkpt lat="38.58981" lon="39.41818">
        <ele>871.008436</ele>
        <time>2021-11-17T02:43:11.753Z</time>
      </trkpt>
      <trkpt lat="38.58906" lon="39.4162">
        <ele>875.559768</ele>
        <time>2021-11-17T02:44:13.673Z</time>
      </trkpt>
      <trkpt lat="38.58879" lon="39.41536">
        <ele>876.677977</ele>
        <time>2021-11-17T02:44:36.063Z</time>
      </trkpt>
      <trkpt lat="38.58557" lon="39.40692">
        <ele>876.787253</ele>
        <time>2021-11-17T02:47:15.165Z</time>
      </trkpt>
      <trkpt lat="38.58469" lon="39.40431">
        <ele>876.704375</ele>
        <time>2021-11-17T02:48:05.395Z</time>
      </trkpt>
      <trkpt lat="38.5847" lon="39.40425">
        <ele>876.698652</ele>
        <time>2021-11-17T02:48:06.387Z</time>
      </trkpt>
      <trkpt lat="38.58469" lon="39.4042">
        <ele>876.692885</ele>
        <time>2021-11-17T02:48:07.390Z</time>
      </trkpt>
      <trkpt lat="38.58468" lon="39.40414">
        <ele>876.687125</ele>
        <time>2021-11-17T02:48:08.379Z</time>
      </trkpt>
      <trkpt lat="38.58465" lon="39.40409">
        <ele>876.680706</ele>
        <time>2021-11-17T02:48:09.475Z</time>
      </trkpt>
      <trkpt lat="38.5846" lon="39.40406">
        <ele>876.674256</ele>
        <time>2021-11-17T02:48:10.577Z</time>
      </trkpt>
      <trkpt lat="38.58415" lon="39.40299">
        <ele>876.260399</ele>
        <time>2021-11-17T02:48:30.739Z</time>
      </trkpt>
      <trkpt lat="38.58153" lon="39.39603">
        <ele>868.920239</ele>
        <time>2021-11-17T02:50:24.578Z</time>
      </trkpt>
      <trkpt lat="38.58105" lon="39.39476">
        <ele>867.116085</ele>
        <time>2021-11-17T02:50:44.259Z</time>
      </trkpt>
      <trkpt lat="38.57966" lon="39.39104">
        <ele>860.720619</ele>
        <time>2021-11-17T02:51:40.592Z</time>
      </trkpt>
      <trkpt lat="38.57936" lon="39.39006">
        <ele>859.935829</ele>
        <time>2021-11-17T02:51:55.994Z</time>
      </trkpt>
      <trkpt lat="38.57916" lon="39.38922">
        <ele>859.438809</ele>
        <time>2021-11-17T02:52:09.838Z</time>
      </trkpt>
      <trkpt lat="38.57899" lon="39.38814">
        <ele>859.341076</ele>
        <time>2021-11-17T02:52:29.262Z</time>
      </trkpt>
      <trkpt lat="38.57898" lon="39.38811">
        <ele>859.356121</ele>
        <time>2021-11-17T02:52:30.176Z</time>
      </trkpt>
      <trkpt lat="38.57885" lon="39.38701">
        <ele>859.801327</ele>
        <time>2021-11-17T02:52:51.630Z</time>
      </trkpt>
      <trkpt lat="38.57884" lon="39.38685">
        <ele>859.863538</ele>
        <time>2021-11-17T02:52:54.737Z</time>
      </trkpt>
      <trkpt lat="38.5788" lon="39.38578">
        <ele>860.293713</ele>
        <time>2021-11-17T02:53:16.015Z</time>
      </trkpt>
      <trkpt lat="38.57881" lon="39.38471">
        <ele>860.723742</ele>
        <time>2021-11-17T02:53:36.526Z</time>
      </trkpt>
      <trkpt lat="38.57882" lon="39.38463">
        <ele>860.755539</ele>
        <time>2021-11-17T02:53:37.949Z</time>
      </trkpt>
      <trkpt lat="38.57893" lon="39.38349">
        <ele>860.931847</ele>
        <time>2021-11-17T02:53:58.700Z</time>
      </trkpt>
      <trkpt lat="38.57911" lon="39.38239">
        <ele>860.86983</ele>
        <time>2021-11-17T02:54:18.310Z</time>
      </trkpt>
      <trkpt lat="38.57942" lon="39.38115">
        <ele>860.320328</ele>
        <time>2021-11-17T02:54:39.118Z</time>
      </trkpt>
      <trkpt lat="38.58016" lon="39.3787">
        <ele>858.510875</ele>
        <time>2021-11-17T02:55:18.178Z</time>
      </trkpt>
      <trkpt lat="38.58166" lon="39.37374">
        <ele>855.225273</ele>
        <time>2021-11-17T02:56:40.503Z</time>
      </trkpt>
      <trkpt lat="38.58369" lon="39.36701">
        <ele>854.098605</ele>
        <time>2021-11-17T02:58:42.192Z</time>
      </trkpt>
      <trkpt lat="38.58419" lon="39.36486">
        <ele>854.429196</ele>
        <time>2021-11-17T02:59:22.456Z</time>
      </trkpt>
      <trkpt lat="38.58465" lon="39.36252">
        <ele>855.482325</ele>
        <time>2021-11-17T03:00:08.653Z</time>
      </trkpt>
      <trkpt lat="38.58476" lon="39.36204">
        <ele>855.839428</ele>
        <time>2021-11-17T03:00:18.710Z</time>
      </trkpt>
      <trkpt lat="38.58479" lon="39.36199">
        <ele>855.888727</ele>
        <time>2021-11-17T03:00:19.892Z</time>
      </trkpt>
      <trkpt lat="38.58481" lon="39.36194">
        <ele>855.939038</ele>
        <time>2021-11-17T03:00:21.144Z</time>
      </trkpt>
      <trkpt lat="38.58482" lon="39.36188">
        <ele>855.989021</ele>
        <time>2021-11-17T03:00:22.398Z</time>
      </trkpt>
      <trkpt lat="38.58482" lon="39.36182">
        <ele>856.036759</ele>
        <time>2021-11-17T03:00:23.588Z</time>
      </trkpt>
      <trkpt lat="38.5848" lon="39.36177">
        <ele>856.084386</ele>
        <time>2021-11-17T03:00:24.781Z</time>
      </trkpt>
      <trkpt lat="38.58477" lon="39.36172">
        <ele>856.135325</ele>
        <time>2021-11-17T03:00:26.118Z</time>
      </trkpt>
      <trkpt lat="38.58463" lon="39.36167">
        <ele>856.285</ele>
        <time>2021-11-17T03:00:29.745Z</time>
      </trkpt>
      <trkpt lat="38.58459" lon="39.36169">
        <ele>856.33542</ele>
        <time>2021-11-17T03:00:31.080Z</time>
      </trkpt>
      <trkpt lat="38.58446" lon="39.36171">
        <ele>856.465634</ele>
        <time>2021-11-17T03:00:34.330Z</time>
      </trkpt>
      <trkpt lat="38.5844" lon="39.36171">
        <ele>856.53471</ele>
        <time>2021-11-17T03:00:36.129Z</time>
      </trkpt>
      <trkpt lat="38.58432" lon="39.36169">
        <ele>856.617969</ele>
        <time>2021-11-17T03:00:38.195Z</time>
      </trkpt>
      <trkpt lat="38.58414" lon="39.36103">
        <ele>857.187375</ele>
        <time>2021-11-17T03:00:52.818Z</time>
      </trkpt>
      <trkpt lat="38.58383" lon="39.36038">
        <ele>857.939737</ele>
        <time>2021-11-17T03:01:09.316Z</time>
      </trkpt>
      <trkpt lat="38.58369" lon="39.36022">
        <ele>858.195729</ele>
        <time>2021-11-17T03:01:14.425Z</time>
      </trkpt>
      <trkpt lat="38.58313" lon="39.35988">
        <ele>859.055472</ele>
        <time>2021-11-17T03:01:31.792Z</time>
      </trkpt>
      <trkpt lat="38.58291" lon="39.35986">
        <ele>859.349265</ele>
        <time>2021-11-17T03:01:37.589Z</time>
      </trkpt>
      <trkpt lat="38.58247" lon="39.35996">
        <ele>859.983932</ele>
        <time>2021-11-17T03:01:50.513Z</time>
      </trkpt>
      <trkpt lat="38.58228" lon="39.35995">
        <ele>860.259528</ele>
        <time>2021-11-17T03:01:55.656Z</time>
      </trkpt>
      <trkpt lat="38.58185" lon="39.3597">
        <ele>860.972816</ele>
        <time>2021-11-17T03:02:08.949Z</time>
      </trkpt>
      <trkpt lat="38.58176" lon="39.35966">
        <ele>861.09974</ele>
        <time>2021-11-17T03:02:11.566Z</time>
      </trkpt>
      <trkpt lat="38.58163" lon="39.35961">
        <ele>861.313181</ele>
        <time>2021-11-17T03:02:15.460Z</time>
      </trkpt>
      <trkpt lat="38.57984" lon="39.35983">
        <ele>863.982845</ele>
        <time>2021-11-17T03:03:06.330Z</time>
      </trkpt>
      <trkpt lat="38.57961" lon="39.35983">
        <ele>864.333425</ele>
        <time>2021-11-17T03:03:13.079Z</time>
      </trkpt>
      <trkpt lat="38.57947" lon="39.35967">
        <ele>864.611202</ele>
        <time>2021-11-17T03:03:18.040Z</time>
      </trkpt>
      <trkpt lat="38.57946" lon="39.35954">
        <ele>864.753819</ele>
        <time>2021-11-17T03:03:20.987Z</time>
      </trkpt>
      <trkpt lat="38.57944" lon="39.35938">
        <ele>864.944247</ele>
        <time>2021-11-17T03:03:24.501Z</time>
      </trkpt>
      <trkpt lat="38.57943" lon="39.35739">
        <ele>866.99069</ele>
        <time>2021-11-17T03:04:07.595Z</time>
      </trkpt>
      <trkpt lat="38.57946" lon="39.35678">
        <ele>867.597523</ele>
        <time>2021-11-17T03:04:20.273Z</time>
      </trkpt>
      <trkpt lat="38.57958" lon="39.35637">
        <ele>867.943806</ele>
        <time>2021-11-17T03:04:29.439Z</time>
      </trkpt>
      <trkpt lat="38.57974" lon="39.35592">
        <ele>868.337786</ele>
        <time>2021-11-17T03:04:39.907Z</time>
      </trkpt>
      <trkpt lat="38.57972" lon="39.35557">
        <ele>868.611319</ele>
        <time>2021-11-17T03:04:47.097Z</time>
      </trkpt>
      <trkpt lat="38.5797" lon="39.35549">
        <ele>868.681982</ele>
        <time>2021-11-17T03:04:48.910Z</time>
      </trkpt>
      <trkpt lat="38.57955" lon="39.35493">
        <ele>869.1481</ele>
        <time>2021-11-17T03:05:00.949Z</time>
      </trkpt>
      <trkpt lat="38.57943" lon="39.35446">
        <ele>869.441985</ele>
        <time>2021-11-17T03:05:10.704Z</time>
      </trkpt>
      <trkpt lat="38.57929" lon="39.3543">
        <ele>869.501498</ele>
        <time>2021-11-17T03:05:15.804Z</time>
      </trkpt>
      <trkpt lat="38.57926" lon="39.35427">
        <ele>869.509803</ele>
        <time>2021-11-17T03:05:16.456Z</time>
      </trkpt>
      <trkpt lat="38.57938" lon="39.35305">
        <ele>869.799557</ele>
        <time>2021-11-17T03:05:39.287Z</time>
      </trkpt>
      <trkpt lat="38.57944" lon="39.35231">
        <ele>869.891263</ele>
        <time>2021-11-17T03:05:51.944Z</time>
      </trkpt>
      <trkpt lat="38.57944" lon="39.35224">
        <ele>869.86022</ele>
        <time>2021-11-17T03:05:53.180Z</time>
      </trkpt>
      <trkpt lat="38.57948" lon="39.35193">
        <ele>869.731262</ele>
        <time>2021-11-17T03:05:58.277Z</time>
      </trkpt>
      <trkpt lat="38.5798" lon="39.34903">
        <ele>868.182104</ele>
        <time>2021-11-17T03:06:44.216Z</time>
      </trkpt>
      <trkpt lat="38.58062" lon="39.34512">
        <ele>864.937884</ele>
        <time>2021-11-17T03:07:44.436Z</time>
      </trkpt>
      <trkpt lat="38.58106" lon="39.34238">
        <ele>863.349388</ele>
        <time>2021-11-17T03:08:27.601Z</time>
      </trkpt>
      <trkpt lat="38.58123" lon="39.34136">
        <ele>862.954381</ele>
        <time>2021-11-17T03:08:44.862Z</time>
      </trkpt>
      <trkpt lat="38.58131" lon="39.34111">
        <ele>862.896545</ele>
        <time>2021-11-17T03:08:49.349Z</time>
      </trkpt>
      <trkpt lat="38.58203" lon="39.33975">
        <ele>863.030075</ele>
        <time>2021-11-17T03:09:18.723Z</time>
      </trkpt>
      <trkpt lat="38.5825" lon="39.33915">
        <ele>863.055598</ele>
        <time>2021-11-17T03:09:34.218Z</time>
      </trkpt>
      <trkpt lat="38.58227" lon="39.33807">
        <ele>862.977308</ele>
        <time>2021-11-17T03:09:54.167Z</time>
      </trkpt>
      <trkpt lat="38.58224" lon="39.33796">
        <ele>862.969335</ele>
        <time>2021-11-17T03:09:55.965Z</time>
      </trkpt>
      <trkpt lat="38.58222" lon="39.3376">
        <ele>862.943715</ele>
        <time>2021-11-17T03:10:02.466Z</time>
      </trkpt>
      <trkpt lat="38.58222" lon="39.33757">
        <ele>862.942172</ele>
        <time>2021-11-17T03:10:02.756Z</time>
      </trkpt>
      <trkpt lat="38.58228" lon="39.33338">
        <ele>860.89238</ele>
        <time>2021-11-17T03:11:08.075Z</time>
      </trkpt>
      <trkpt lat="38.58233" lon="39.33316">
        <ele>860.775965</ele>
        <time>2021-11-17T03:11:11.664Z</time>
      </trkpt>
      <trkpt lat="38.58236" lon="39.33308">
        <ele>860.727657</ele>
        <time>2021-11-17T03:11:13.078Z</time>
      </trkpt>
      <trkpt lat="38.58245" lon="39.33281">
        <ele>860.577267</ele>
        <time>2021-11-17T03:11:17.723Z</time>
      </trkpt>
      <trkpt lat="38.58395" lon="39.32964">
        <ele>859.682869</ele>
        <time>2021-11-17T03:12:18.318Z</time>
      </trkpt>
      <trkpt lat="38.58404" lon="39.32951">
        <ele>859.671618</ele>
        <time>2021-11-17T03:12:21.355Z</time>
      </trkpt>
      <trkpt lat="38.58416" lon="39.32927">
        <ele>859.653665</ele>
        <time>2021-11-17T03:12:26.225Z</time>
      </trkpt>
      <trkpt lat="38.58432" lon="39.329">
        <ele>859.631375</ele>
        <time>2021-11-17T03:12:32.383Z</time>
      </trkpt>
      <trkpt lat="38.5849" lon="39.3286">
        <ele>859.951583</ele>
        <time>2021-11-17T03:12:47.838Z</time>
      </trkpt>
      <trkpt lat="38.58576" lon="39.32768">
        <ele>860.833925</ele>
        <time>2021-11-17T03:13:16.748Z</time>
      </trkpt>
      <trkpt lat="38.586" lon="39.32751">
        <ele>861.050407</ele>
        <time>2021-11-17T03:13:24.370Z</time>
      </trkpt>
      <trkpt lat="38.58621" lon="39.32742">
        <ele>861.233909</ele>
        <time>2021-11-17T03:13:30.315Z</time>
      </trkpt>
      <trkpt lat="38.58638" lon="39.32737">
        <ele>861.387002</ele>
        <time>2021-11-17T03:13:35.130Z</time>
      </trkpt>
      <trkpt lat="38.58659" lon="39.32732">
        <ele>861.569422</ele>
        <time>2021-11-17T03:13:40.869Z</time>
      </trkpt>
      <trkpt lat="38.58673" lon="39.32724">
        <ele>861.695362</ele>
        <time>2021-11-17T03:13:44.735Z</time>
      </trkpt>
      <trkpt lat="38.58688" lon="39.32704">
        <ele>861.880586</ele>
        <time>2021-11-17T03:13:50.417Z</time>
      </trkpt>
      <trkpt lat="38.58695" lon="39.32677">
        <ele>862.068592</ele>
        <time>2021-11-17T03:13:56.133Z</time>
      </trkpt>
      <trkpt lat="38.58708" lon="39.32628">
        <ele>862.410024</ele>
        <time>2021-11-17T03:14:06.267Z</time>
      </trkpt>
      <trkpt lat="38.58725" lon="39.3261">
        <ele>862.560322</ele>
        <time>2021-11-17T03:14:11.614Z</time>
      </trkpt>
      <trkpt lat="38.58848" lon="39.32523">
        <ele>862.795507</ele>
        <time>2021-11-17T03:14:43.472Z</time>
      </trkpt>
      <trkpt lat="38.58875" lon="39.32492">
        <ele>862.861477</ele>
        <time>2021-11-17T03:14:51.528Z</time>
      </trkpt>
      <trkpt lat="38.58899" lon="39.32451">
        <ele>863.004952</ele>
        <time>2021-11-17T03:15:00.639Z</time>
      </trkpt>
      <trkpt lat="38.5893" lon="39.32382">
        <ele>863.227713</ele>
        <time>2021-11-17T03:15:15.034Z</time>
      </trkpt>
      <trkpt lat="38.58938" lon="39.32364">
        <ele>863.286638</ele>
        <time>2021-11-17T03:15:19.054Z</time>
      </trkpt>
      <trkpt lat="38.58968" lon="39.32267">
        <ele>863.678072</ele>
        <time>2021-11-17T03:15:38.982Z</time>
      </trkpt>
      <trkpt lat="38.59014" lon="39.32085">
        <ele>864.852673</ele>
        <time>2021-11-17T03:16:17.056Z</time>
      </trkpt>
      <trkpt lat="38.59031" lon="39.31868">
        <ele>866.507588</ele>
        <time>2021-11-17T03:17:01.843Z</time>
      </trkpt>
      <trkpt lat="38.59041" lon="39.31831">
        <ele>866.787713</ele>
        <time>2021-11-17T03:17:09.911Z</time>
      </trkpt>
      <trkpt lat="38.59052" lon="39.31803">
        <ele>866.991493</ele>
        <time>2021-11-17T03:17:16.337Z</time>
      </trkpt>
      <trkpt lat="38.59067" lon="39.31782">
        <ele>867.174846</ele>
        <time>2021-11-17T03:17:22.091Z</time>
      </trkpt>
      <trkpt lat="38.59159" lon="39.31709">
        <ele>868.062748</ele>
        <time>2021-11-17T03:17:49.503Z</time>
      </trkpt>
      <trkpt lat="38.59278" lon="39.31616">
        <ele>868.901261</ele>
        <time>2021-11-17T03:18:23.904Z</time>
      </trkpt>
      <trkpt lat="38.59569" lon="39.31388">
        <ele>870.427003</ele>
        <time>2021-11-17T03:19:45.660Z</time>
      </trkpt>
      <trkpt lat="38.59584" lon="39.31377">
        <ele>870.501688</ele>
        <time>2021-11-17T03:19:49.658Z</time>
      </trkpt>
      <trkpt lat="38.59814" lon="39.31197">
        <ele>871.786515</ele>
        <time>2021-11-17T03:20:54.586Z</time>
      </trkpt>
      <trkpt lat="38.59886" lon="39.31137">
        <ele>872.314152</ele>
        <time>2021-11-17T03:21:16.020Z</time>
      </trkpt>
      <trkpt lat="38.60079" lon="39.30976">
        <ele>873.77822</ele>
        <time>2021-11-17T03:22:13.371Z</time>
      </trkpt>
      <trkpt lat="38.60096" lon="39.30961">
        <ele>873.905681</ele>
        <time>2021-11-17T03:22:18.332Z</time>
      </trkpt>
      <trkpt lat="38.60259" lon="39.30817">
        <ele>875.169813</ele>
        <time>2021-11-17T03:23:07.068Z</time>
      </trkpt>
      <trkpt lat="38.60301" lon="39.30777">
        <ele>875.584102</ele>
        <time>2021-11-17T03:23:20.607Z</time>
      </trkpt>
      <trkpt lat="38.60348" lon="39.30731">
        <ele>876.046663</ele>
        <time>2021-11-17T03:23:35.844Z</time>
      </trkpt>
      <trkpt lat="38.60553" lon="39.30535">
        <ele>877.850577</ele>
        <time>2021-11-17T03:24:40.228Z</time>
      </trkpt>
      <trkpt lat="38.60714" lon="39.30364">
        <ele>879.08685</ele>
        <time>2021-11-17T03:25:31.396Z</time>
      </trkpt>
      <trkpt lat="38.60726" lon="39.30349">
        <ele>879.1803</ele>
        <time>2021-11-17T03:25:35.329Z</time>
      </trkpt>
      <trkpt lat="38.60737" lon="39.30341">
        <ele>879.25314</ele>
        <time>2021-11-17T03:25:38.373Z</time>
      </trkpt>
      <trkpt lat="38.60746" lon="39.30335">
        <ele>879.307027</ele>
        <time>2021-11-17T03:25:40.727Z</time>
      </trkpt>
      <trkpt lat="38.60766" lon="39.30324">
        <ele>879.430882</ele>
        <time>2021-11-17T03:25:46.083Z</time>
      </trkpt>
      <trkpt lat="38.60785" lon="39.30316">
        <ele>879.545386</ele>
        <time>2021-11-17T03:25:51.219Z</time>
      </trkpt>
      <trkpt lat="38.60838" lon="39.30294">
        <ele>879.85043</ele>
        <time>2021-11-17T03:26:05.195Z</time>
      </trkpt>
      <trkpt lat="38.60848" lon="39.30291">
        <ele>879.90397</ele>
        <time>2021-11-17T03:26:07.733Z</time>
      </trkpt>
      <trkpt lat="38.60858" lon="39.30274">
        <ele>879.990695</ele>
        <time>2021-11-17T03:26:11.729Z</time>
      </trkpt>
      <trkpt lat="38.60866" lon="39.30265">
        <ele>880.050177</ele>
        <time>2021-11-17T03:26:14.470Z</time>
      </trkpt>
      <trkpt lat="38.6092" lon="39.30208">
        <ele>880.425424</ele>
        <time>2021-11-17T03:26:31.229Z</time>
      </trkpt>
      <trkpt lat="38.60941" lon="39.30182">
        <ele>880.581807</ele>
        <time>2021-11-17T03:26:38.147Z</time>
      </trkpt>
      <trkpt lat="38.60946" lon="39.30176">
        <ele>880.616308</ele>
        <time>2021-11-17T03:26:39.728Z</time>
      </trkpt>
      <trkpt lat="38.60953" lon="39.30166">
        <ele>880.673805</ele>
        <time>2021-11-17T03:26:42.339Z</time>
      </trkpt>
      <trkpt lat="38.6096" lon="39.30157">
        <ele>880.718281</ele>
        <time>2021-11-17T03:26:44.763Z</time>
      </trkpt>
      <trkpt lat="38.61007" lon="39.30096">
        <ele>881.020659</ele>
        <time>2021-11-17T03:27:01.396Z</time>
      </trkpt>
      <trkpt lat="38.6103" lon="39.30065">
        <ele>881.17087</ele>
        <time>2021-11-17T03:27:09.418Z</time>
      </trkpt>
      <trkpt lat="38.61037" lon="39.30056">
        <ele>881.214527</ele>
        <time>2021-11-17T03:27:11.679Z</time>
      </trkpt>
      <trkpt lat="38.6105" lon="39.3004">
        <ele>881.294906</ele>
        <time>2021-11-17T03:27:15.838Z</time>
      </trkpt>
      <trkpt lat="38.61119" lon="39.29952">
        <ele>881.794242</ele>
        <time>2021-11-17T03:27:38.756Z</time>
      </trkpt>
      <trkpt lat="38.61206" lon="39.29841">
        <ele>882.466579</ele>
        <time>2021-11-17T03:28:09.123Z</time>
      </trkpt>
      <trkpt lat="38.61214" lon="39.29831">
        <ele>882.595501</ele>
        <time>2021-11-17T03:28:11.808Z</time>
      </trkpt>
      <trkpt lat="38.61286" lon="39.29734">
        <ele>883.855281</ele>
        <time>2021-11-17T03:28:39.359Z</time>
      </trkpt>
      <trkpt lat="38.6136" lon="39.29602">
        <ele>885.731937</ele>
        <time>2021-11-17T03:29:16.207Z</time>
      </trkpt>
      <trkpt lat="38.6149" lon="39.29325">
        <ele>889.947376</ele>
        <time>2021-11-17T03:30:30.512Z</time>
      </trkpt>
      <trkpt lat="38.61494" lon="39.29289">
        <ele>890.399843</ele>
        <time>2021-11-17T03:30:38.359Z</time>
      </trkpt>
      <trkpt lat="38.61504" lon="39.29228">
        <ele>891.009992</ele>
        <time>2021-11-17T03:30:51.977Z</time>
      </trkpt>
      <trkpt lat="38.6152" lon="39.29164">
        <ele>891.569014</ele>
        <time>2021-11-17T03:31:06.171Z</time>
      </trkpt>
      <trkpt lat="38.6153" lon="39.29137">
        <ele>891.821018</ele>
        <time>2021-11-17T03:31:12.529Z</time>
      </trkpt>
      <trkpt lat="38.6153" lon="39.29102">
        <ele>892.113942</ele>
        <time>2021-11-17T03:31:19.744Z</time>
      </trkpt>
      <trkpt lat="38.61539" lon="39.29039">
        <ele>892.651794</ele>
        <time>2021-11-17T03:31:33.387Z</time>
      </trkpt>
      <trkpt lat="38.61555" lon="39.28955">
        <ele>893.393484</ele>
        <time>2021-11-17T03:31:52.216Z</time>
      </trkpt>
      <trkpt lat="38.61562" lon="39.28883">
        <ele>894.014632</ele>
        <time>2021-11-17T03:32:08.019Z</time>
      </trkpt>
      <trkpt lat="38.61574" lon="39.28838">
        <ele>894.419178</ele>
        <time>2021-11-17T03:32:18.145Z</time>
      </trkpt>
      <trkpt lat="38.61578" lon="39.28747">
        <ele>895.073534</ele>
        <time>2021-11-17T03:32:37.363Z</time>
      </trkpt>
      <trkpt lat="38.61588" lon="39.28718">
        <ele>895.28523</ele>
        <time>2021-11-17T03:32:43.821Z</time>
      </trkpt>
      <trkpt lat="38.61585" lon="39.28642">
        <ele>895.810316</ele>
        <time>2021-11-17T03:32:59.726Z</time>
      </trkpt>
      <trkpt lat="38.61594" lon="39.28618">
        <ele>895.988234</ele>
        <time>2021-11-17T03:33:05.080Z</time>
      </trkpt>
      <trkpt lat="38.61603" lon="39.28423">
        <ele>897.31053</ele>
        <time>2021-11-17T03:33:45.735Z</time>
      </trkpt>
      <trkpt lat="38.61598" lon="39.2841">
        <ele>897.411188</ele>
        <time>2021-11-17T03:33:48.862Z</time>
      </trkpt>
      <trkpt lat="38.61598" lon="39.2834">
        <ele>897.888501</ele>
        <time>2021-11-17T03:34:03.397Z</time>
      </trkpt>
      <trkpt lat="38.61612" lon="39.28232">
        <ele>898.653917</ele>
        <time>2021-11-17T03:34:26.171Z</time>
      </trkpt>
      <trkpt lat="38.61619" lon="39.28214">
        <ele>898.799213</ele>
        <time>2021-11-17T03:34:30.479Z</time>
      </trkpt>
      <trkpt lat="38.61624" lon="39.28002">
        <ele>900.439681</ele>
        <time>2021-11-17T03:35:14.870Z</time>
      </trkpt>
      <trkpt lat="38.61633" lon="39.27909">
        <ele>901.208286</ele>
        <time>2021-11-17T03:35:35.315Z</time>
      </trkpt>
      <trkpt lat="38.61668" lon="39.27742">
        <ele>902.784686</ele>
        <time>2021-11-17T03:36:13.574Z</time>
      </trkpt>
      <trkpt lat="38.61674" lon="39.27682">
        <ele>903.310485</ele>
        <time>2021-11-17T03:36:26.376Z</time>
      </trkpt>
      <trkpt lat="38.61678" lon="39.27635">
        <ele>903.591845</ele>
        <time>2021-11-17T03:36:36.276Z</time>
      </trkpt>
      <trkpt lat="38.6168" lon="39.27577">
        <ele>903.931389</ele>
        <time>2021-11-17T03:36:48.071Z</time>
      </trkpt>
      <trkpt lat="38.61673" lon="39.27521">
        <ele>904.268555</ele>
        <time>2021-11-17T03:36:59.616Z</time>
      </trkpt>
      <trkpt lat="38.61659" lon="39.27456">
        <ele>904.673586</ele>
        <time>2021-11-17T03:37:12.737Z</time>
      </trkpt>
      <trkpt lat="38.61658" lon="39.27308">
        <ele>905.821604</ele>
        <time>2021-11-17T03:37:43.485Z</time>
      </trkpt>
      <trkpt lat="38.61669" lon="39.27146">
        <ele>907.335674</ele>
        <time>2021-11-17T03:38:19.761Z</time>
      </trkpt>
      <trkpt lat="38.61678" lon="39.27115">
        <ele>907.698465</ele>
        <time>2021-11-17T03:38:27.401Z</time>
      </trkpt>
      <trkpt lat="38.61679" lon="39.2711">
        <ele>907.754488</ele>
        <time>2021-11-17T03:38:28.660Z</time>
      </trkpt>
      <trkpt lat="38.61681" lon="39.271">
        <ele>907.860713</ele>
        <time>2021-11-17T03:38:30.972Z</time>
      </trkpt>
      <trkpt lat="38.61683" lon="39.27085">
        <ele>908.020364</ele>
        <time>2021-11-17T03:38:34.303Z</time>
      </trkpt>
      <trkpt lat="38.61681" lon="39.27065">
        <ele>908.238847</ele>
        <time>2021-11-17T03:38:39.034Z</time>
      </trkpt>
      <trkpt lat="38.61672" lon="39.27026">
        <ele>908.674114</ele>
        <time>2021-11-17T03:38:48.182Z</time>
      </trkpt>
      <trkpt lat="38.6166" lon="39.26964">
        <ele>909.218992</ele>
        <time>2021-11-17T03:39:02.527Z</time>
      </trkpt>
      <trkpt lat="38.61655" lon="39.26939">
        <ele>909.41207</ele>
        <time>2021-11-17T03:39:07.974Z</time>
      </trkpt>
      <trkpt lat="38.6167" lon="39.26894">
        <ele>909.785896</ele>
        <time>2021-11-17T03:39:18.481Z</time>
      </trkpt>
      <trkpt lat="38.61663" lon="39.26873">
        <ele>909.957203</ele>
        <time>2021-11-17T03:39:23.135Z</time>
      </trkpt>
      <trkpt lat="38.61642" lon="39.26801">
        <ele>910.540773</ele>
        <time>2021-11-17T03:39:38.870Z</time>
      </trkpt>
      <trkpt lat="38.61635" lon="39.26768">
        <ele>910.715899</ele>
        <time>2021-11-17T03:39:45.718Z</time>
      </trkpt>
      <trkpt lat="38.61611" lon="39.2665">
        <ele>911.228742</ele>
        <time>2021-11-17T03:40:10.073Z</time>
      </trkpt>
      <trkpt lat="38.6163" lon="39.26627">
        <ele>911.371689</ele>
        <time>2021-11-17T03:40:16.939Z</time>
      </trkpt>
      <trkpt lat="38.61682" lon="39.26577">
        <ele>911.563303</ele>
        <time>2021-11-17T03:40:32.859Z</time>
      </trkpt>
      <trkpt lat="38.6172" lon="39.2657">
        <ele>911.535375</ele>
        <time>2021-11-17T03:40:41.920Z</time>
      </trkpt>
      <trkpt lat="38.61688" lon="39.26544">
        <ele>911.50766</ele>
        <time>2021-11-17T03:40:50.434Z</time>
      </trkpt>
      <trkpt lat="38.6167" lon="39.26531">
        <ele>911.492411</ele>
        <time>2021-11-17T03:40:54.925Z</time>
      </trkpt>
      <trkpt lat="38.61665" lon="39.26519">
        <ele>911.484333</ele>
        <time>2021-11-17T03:40:57.279Z</time>
      </trkpt>
      <trkpt lat="38.61646" lon="39.26462">
        <ele>911.441491</ele>
        <time>2021-11-17T03:41:07.256Z</time>
      </trkpt>
      <trkpt lat="38.61611" lon="39.26351">
        <ele>911.013196</ele>
        <time>2021-11-17T03:41:26.056Z</time>
      </trkpt>
      <trkpt lat="38.6159" lon="39.26254">
        <ele>910.655137</ele>
        <time>2021-11-17T03:41:42.230Z</time>
      </trkpt>
      <trkpt lat="38.61571" lon="39.2614">
        <ele>910.93544</ele>
        <time>2021-11-17T03:42:02.653Z</time>
      </trkpt>
      <trkpt lat="38.61538" lon="39.25802">
        <ele>912.785616</ele>
        <time>2021-11-17T03:43:09.575Z</time>
      </trkpt>
      <trkpt lat="38.61529" lon="39.25586">
        <ele>916.026628</ele>
        <time>2021-11-17T03:43:59.768Z</time>
      </trkpt>
      <trkpt lat="38.61529" lon="39.2557">
        <ele>916.271304</ele>
        <time>2021-11-17T03:44:03.965Z</time>
      </trkpt>
      <trkpt lat="38.61522" lon="39.2557">
        <ele>916.422315</ele>
        <time>2021-11-17T03:44:06.199Z</time>
      </trkpt>
      <trkpt lat="38.61523" lon="39.2551">
        <ele>918.207374</ele>
        <time>2021-11-17T03:44:22.729Z</time>
      </trkpt>
      <trkpt lat="38.61517" lon="39.25411">
        <ele>921.118384</ele>
        <time>2021-11-17T03:44:51.397Z</time>
      </trkpt>
      <trkpt lat="38.6148" lon="39.25226">
        <ele>927.282645</ele>
        <time>2021-11-17T03:45:53.453Z</time>
      </trkpt>
      <trkpt lat="38.61462" lon="39.25169">
        <ele>929.363933</ele>
        <time>2021-11-17T03:46:12.453Z</time>
      </trkpt>
      <trkpt lat="38.61452" lon="39.25138">
        <ele>930.520317</ele>
        <time>2021-11-17T03:46:22.193Z</time>
      </trkpt>
      <trkpt lat="38.61445" lon="39.25117">
        <ele>931.120363</ele>
        <time>2021-11-17T03:46:28.641Z</time>
      </trkpt>
      <trkpt lat="38.61428" lon="39.25085">
        <ele>931.756495</ele>
        <time>2021-11-17T03:46:39.293Z</time>
      </trkpt>
      <trkpt lat="38.61386" lon="39.2504">
        <ele>932.909376</ele>
        <time>2021-11-17T03:46:57.112Z</time>
      </trkpt>
      <trkpt lat="38.61373" lon="39.25026">
        <ele>933.267441</ele>
        <time>2021-11-17T03:47:02.377Z</time>
      </trkpt>
      <trkpt lat="38.61355" lon="39.24995">
        <ele>933.912186</ele>
        <time>2021-11-17T03:47:10.652Z</time>
      </trkpt>
      <trkpt lat="38.61246" lon="39.24835">
        <ele>935.774738</ele>
        <time>2021-11-17T03:47:51.846Z</time>
      </trkpt>
      <trkpt lat="38.6116" lon="39.24712">
        <ele>937.059286</ele>
        <time>2021-11-17T03:48:25.402Z</time>
      </trkpt>
      <trkpt lat="38.61083" lon="39.24597">
        <ele>938.334716</ele>
        <time>2021-11-17T03:48:58.421Z</time>
      </trkpt>
      <trkpt lat="38.61034" lon="39.24525">
        <ele>938.755821</ele>
        <time>2021-11-17T03:49:17.485Z</time>
      </trkpt>
      <trkpt lat="38.61008" lon="39.24481">
        <ele>938.99693</ele>
        <time>2021-11-17T03:49:27.864Z</time>
      </trkpt>
      <trkpt lat="38.60992" lon="39.24472">
        <ele>939.096013</ele>
        <time>2021-11-17T03:49:32.098Z</time>
      </trkpt>
      <trkpt lat="38.6098" lon="39.24514">
        <ele>939.25716</ele>
        <time>2021-11-17T03:49:39.892Z</time>
      </trkpt>
      <trkpt lat="38.6097" lon="39.24517">
        <ele>939.12936</ele>
        <time>2021-11-17T03:49:42.053Z</time>
      </trkpt>
      <trkpt lat="38.60941" lon="39.24508">
        <ele>938.758425</ele>
        <time>2021-11-17T03:49:48.201Z</time>
      </trkpt>
      <trkpt lat="38.60924" lon="39.24492">
        <ele>938.504667</ele>
        <time>2021-11-17T03:49:52.149Z</time>
      </trkpt>
      <trkpt lat="38.6087" lon="39.24443">
        <ele>937.700083</ele>
        <time>2021-11-17T03:50:04.191Z</time>
      </trkpt>
      <trkpt lat="38.60793" lon="39.24383">
        <ele>936.333765</ele>
        <time>2021-11-17T03:50:20.412Z</time>
      </trkpt>
      <trkpt lat="38.6063" lon="39.24243">
        <ele>932.963317</ele>
        <time>2021-11-17T03:50:54.987Z</time>
      </trkpt>
      <trkpt lat="38.60609" lon="39.24222">
        <ele>932.606381</ele>
        <time>2021-11-17T03:50:59.986Z</time>
      </trkpt>
      <trkpt lat="38.60592" lon="39.24198">
        <ele>932.273892</ele>
        <time>2021-11-17T03:51:04.746Z</time>
      </trkpt>
      <trkpt lat="38.60565" lon="39.24142">
        <ele>931.592578</ele>
        <time>2021-11-17T03:51:14.713Z</time>
      </trkpt>
      <trkpt lat="38.60549" lon="39.24097">
        <ele>931.283612</ele>
        <time>2021-11-17T03:51:22.272Z</time>
      </trkpt>
      <trkpt lat="38.60524" lon="39.23995">
        <ele>931.064779</ele>
        <time>2021-11-17T03:51:39.924Z</time>
      </trkpt>
      <trkpt lat="38.60512" lon="39.23902">
        <ele>930.872357</ele>
        <time>2021-11-17T03:51:56.374Z</time>
      </trkpt>
      <trkpt lat="38.60501" lon="39.23865">
        <ele>930.915701</ele>
        <time>2021-11-17T03:52:03.558Z</time>
      </trkpt>
      <trkpt lat="38.60496" lon="39.23855">
        <ele>930.93547</ele>
        <time>2021-11-17T03:52:05.670Z</time>
      </trkpt>
      <trkpt lat="38.60441" lon="39.23743">
        <ele>931.150067</ele>
        <time>2021-11-17T03:52:29.403Z</time>
      </trkpt>
      <trkpt lat="38.60427" lon="39.23719">
        <ele>931.199162</ele>
        <time>2021-11-17T03:52:34.827Z</time>
      </trkpt>
      <trkpt lat="38.6042" lon="39.23707">
        <ele>931.221919</ele>
        <time>2021-11-17T03:52:37.363Z</time>
      </trkpt>
      <trkpt lat="38.604" lon="39.23682">
        <ele>931.407344</ele>
        <time>2021-11-17T03:52:43.914Z</time>
      </trkpt>
      <trkpt lat="38.60311" lon="39.23634">
        <ele>932.152075</ele>
        <time>2021-11-17T03:53:08.389Z</time>
      </trkpt>
      <trkpt lat="38.60254" lon="39.23606">
        <ele>932.61839</ele>
        <time>2021-11-17T03:53:24.371Z</time>
      </trkpt>
      <trkpt lat="38.60215" lon="39.23575">
        <ele>933.212204</ele>
        <time>2021-11-17T03:53:36.782Z</time>
      </trkpt>
      <trkpt lat="38.60198" lon="39.23565">
        <ele>933.454982</ele>
        <time>2021-11-17T03:53:42.116Z</time>
      </trkpt>
      <trkpt lat="38.60165" lon="39.23546">
        <ele>933.915694</ele>
        <time>2021-11-17T03:53:52.047Z</time>
      </trkpt>
      <trkpt lat="38.60099" lon="39.23498">
        <ele>934.893084</ele>
        <time>2021-11-17T03:54:13.460Z</time>
      </trkpt>
      <trkpt lat="38.59986" lon="39.23387">
        <ele>936.239979</ele>
        <time>2021-11-17T03:54:50.501Z</time>
      </trkpt>
      <trkpt lat="38.59959" lon="39.23349">
        <ele>936.613316</ele>
        <time>2021-11-17T03:55:00.525Z</time>
      </trkpt>
      <trkpt lat="38.59928" lon="39.23293">
        <ele>936.840612</ele>
        <time>2021-11-17T03:55:13.991Z</time>
      </trkpt>
      <trkpt lat="38.5992" lon="39.23278">
        <ele>936.899972</ele>
        <time>2021-11-17T03:55:17.498Z</time>
      </trkpt>
      <trkpt lat="38.59905" lon="39.2325">
        <ele>937.010233</ele>
        <time>2021-11-17T03:55:23.899Z</time>
      </trkpt>
      <trkpt lat="38.59875" lon="39.23193">
        <ele>937.232031</ele>
        <time>2021-11-17T03:55:36.494Z</time>
      </trkpt>
      <trkpt lat="38.59858" lon="39.23162">
        <ele>937.356488</ele>
        <time>2021-11-17T03:55:43.327Z</time>
      </trkpt>
      <trkpt lat="38.59827" lon="39.23108">
        <ele>937.364378</ele>
        <time>2021-11-17T03:55:54.919Z</time>
      </trkpt>
      <trkpt lat="38.59805" lon="39.23069">
        <ele>937.364044</ele>
        <time>2021-11-17T03:56:03.150Z</time>
      </trkpt>
      <trkpt lat="38.59777" lon="39.2302">
        <ele>937.36363</ele>
        <time>2021-11-17T03:56:13.281Z</time>
      </trkpt>
      <trkpt lat="38.59752" lon="39.22965">
        <ele>937.431207</ele>
        <time>2021-11-17T03:56:24.048Z</time>
      </trkpt>
      <trkpt lat="38.59732" lon="39.2292">
        <ele>937.942084</ele>
        <time>2021-11-17T03:56:33.089Z</time>
      </trkpt>
      <trkpt lat="38.59695" lon="39.22788">
        <ele>939.352517</ele>
        <time>2021-11-17T03:57:03.764Z</time>
      </trkpt>
      <trkpt lat="38.59693" lon="39.22774">
        <ele>939.502081</ele>
        <time>2021-11-17T03:57:07.813Z</time>
      </trkpt>
      <trkpt lat="38.59692" lon="39.22762">
        <ele>939.620467</ele>
        <time>2021-11-17T03:57:10.495Z</time>
      </trkpt>
      <trkpt lat="38.59691" lon="39.22749">
        <ele>939.850711</ele>
        <time>2021-11-17T03:57:13.455Z</time>
      </trkpt>
      <trkpt lat="38.59689" lon="39.22732">
        <ele>940.258367</ele>
        <time>2021-11-17T03:57:18.518Z</time>
      </trkpt>
      <trkpt lat="38.59685" lon="39.22665">
        <ele>941.870288</ele>
        <time>2021-11-17T03:57:36.182Z</time>
      </trkpt>
      <trkpt lat="38.59679" lon="39.22608">
        <ele>943.263297</ele>
        <time>2021-11-17T03:57:52.606Z</time>
      </trkpt>
      <trkpt lat="38.59666" lon="39.22505">
        <ele>945.670015</ele>
        <time>2021-11-17T03:58:21.908Z</time>
      </trkpt>
      <trkpt lat="38.5965" lon="39.224">
        <ele>947.909662</ele>
        <time>2021-11-17T03:58:50.091Z</time>
      </trkpt>
      <trkpt lat="38.59646" lon="39.22371">
        <ele>948.517398</ele>
        <time>2021-11-17T03:58:57.187Z</time>
      </trkpt>
      <trkpt lat="38.59643" lon="39.2236">
        <ele>948.762016</ele>
        <time>2021-11-17T03:59:00.051Z</time>
      </trkpt>
      <trkpt lat="38.59632" lon="39.22319">
        <ele>949.677926</ele>
        <time>2021-11-17T03:59:10.671Z</time>
      </trkpt>
      <trkpt lat="38.59591" lon="39.2217">
        <ele>952.328908</ele>
        <time>2021-11-17T03:59:48.161Z</time>
      </trkpt>
      <trkpt lat="38.59573" lon="39.22104">
        <ele>953.483484</ele>
        <time>2021-11-17T04:00:04.997Z</time>
      </trkpt>
      <trkpt lat="38.5955" lon="39.22017">
        <ele>954.819192</ele>
        <time>2021-11-17T04:00:26.908Z</time>
      </trkpt>
      <trkpt lat="38.5953" lon="39.21949">
        <ele>955.846426</ele>
        <time>2021-11-17T04:00:43.929Z</time>
      </trkpt>
      <trkpt lat="38.59507" lon="39.21871">
        <ele>957.031579</ele>
        <time>2021-11-17T04:01:02.829Z</time>
      </trkpt>
      <trkpt lat="38.59459" lon="39.21655">
        <ele>959.305479</ele>
        <time>2021-11-17T04:01:50.471Z</time>
      </trkpt>
      <trkpt lat="38.59446" lon="39.21605">
        <ele>959.917154</ele>
        <time>2021-11-17T04:02:01.570Z</time>
      </trkpt>
      <trkpt lat="38.59427" lon="39.21529">
        <ele>960.856871</ele>
        <time>2021-11-17T04:02:18.905Z</time>
      </trkpt>
      <trkpt lat="38.59376" lon="39.21313">
        <ele>963.738208</ele>
        <time>2021-11-17T04:03:10.433Z</time>
      </trkpt>
      <trkpt lat="38.59355" lon="39.21256">
        <ele>964.596429</ele>
        <time>2021-11-17T04:03:25.007Z</time>
      </trkpt>
      <trkpt lat="38.59286" lon="39.21121">
        <ele>966.775256</ele>
        <time>2021-11-17T04:04:01.713Z</time>
      </trkpt>
      <trkpt lat="38.59208" lon="39.20845">
        <ele>970.314682</ele>
        <time>2021-11-17T04:05:08.357Z</time>
      </trkpt>
      <trkpt lat="38.59167" lon="39.20735">
        <ele>970.489672</ele>
        <time>2021-11-17T04:05:32.394Z</time>
      </trkpt>
      <trkpt lat="38.59144" lon="39.20658">
        <ele>970.064603</ele>
        <time>2021-11-17T04:05:45.009Z</time>
      </trkpt>
      <trkpt lat="38.59133" lon="39.20633">
        <ele>969.917155</ele>
        <time>2021-11-17T04:05:49.139Z</time>
      </trkpt>
      <trkpt lat="38.59093" lon="39.20566">
        <ele>969.012447</ele>
        <time>2021-11-17T04:06:00.655Z</time>
      </trkpt>
      <trkpt lat="38.59053" lon="39.20507">
        <ele>967.640698</ele>
        <time>2021-11-17T04:06:11.005Z</time>
      </trkpt>
      <trkpt lat="38.59025" lon="39.20483">
        <ele>966.891335</ele>
        <time>2021-11-17T04:06:16.568Z</time>
      </trkpt>
      <trkpt lat="38.5899" lon="39.20439">
        <ele>965.786204</ele>
        <time>2021-11-17T04:06:24.871Z</time>
      </trkpt>
      <trkpt lat="38.58869" lon="39.20368">
        <ele>964.693504</ele>
        <time>2021-11-17T04:06:50.568Z</time>
      </trkpt>
      <trkpt lat="38.58787" lon="39.20295">
        <ele>964.779665</ele>
        <time>2021-11-17T04:07:14.413Z</time>
      </trkpt>
      <trkpt lat="38.58767" lon="39.20286">
        <ele>964.987223</ele>
        <time>2021-11-17T04:07:19.581Z</time>
      </trkpt>
      <trkpt lat="38.58718" lon="39.20284">
        <ele>965.488203</ele>
        <time>2021-11-17T04:07:32.565Z</time>
      </trkpt>
      <trkpt lat="38.58622" lon="39.20234">
        <ele>966.671915</ele>
        <time>2021-11-17T04:08:02.352Z</time>
      </trkpt>
      <trkpt lat="38.58594" lon="39.20229">
        <ele>967.05274</ele>
        <time>2021-11-17T04:08:10.384Z</time>
      </trkpt>
      <trkpt lat="38.58584" lon="39.20223">
        <ele>967.198536</ele>
        <time>2021-11-17T04:08:13.562Z</time>
      </trkpt>
      <trkpt lat="38.58574" lon="39.20216">
        <ele>967.351651</ele>
        <time>2021-11-17T04:08:16.797Z</time>
      </trkpt>
      <trkpt lat="38.58561" lon="39.20196">
        <ele>967.621756</ele>
        <time>2021-11-17T04:08:21.943Z</time>
      </trkpt>
      <trkpt lat="38.58544" lon="39.20161">
        <ele>968.048613</ele>
        <time>2021-11-17T04:08:30.376Z</time>
      </trkpt>
      <trkpt lat="38.58534" lon="39.20136">
        <ele>968.340579</ele>
        <time>2021-11-17T04:08:36.374Z</time>
      </trkpt>
      <trkpt lat="38.58523" lon="39.20113">
        <ele>968.690258</ele>
        <time>2021-11-17T04:08:41.922Z</time>
      </trkpt>
      <trkpt lat="38.5851" lon="39.20102">
        <ele>969.059634</ele>
        <time>2021-11-17T04:08:46.200Z</time>
      </trkpt>
      <trkpt lat="38.58477" lon="39.20111">
        <ele>969.873426</ele>
        <time>2021-11-17T04:08:56.208Z</time>
      </trkpt>
      <trkpt lat="38.58473" lon="39.20112">
        <ele>969.968594</ele>
        <time>2021-11-17T04:08:57.150Z</time>
      </trkpt>
      <trkpt lat="38.58469" lon="39.20111">
        <ele>970.054601</ele>
        <time>2021-11-17T04:08:58.222Z</time>
      </trkpt>
      <trkpt lat="38.58463" lon="39.20108">
        <ele>970.222831</ele>
        <time>2021-11-17T04:09:00.373Z</time>
      </trkpt>
      <trkpt lat="38.5846" lon="39.20103">
        <ele>970.331434</ele>
        <time>2021-11-17T04:09:01.733Z</time>
      </trkpt>
      <trkpt lat="38.58459" lon="39.20102">
        <ele>970.366697</ele>
        <time>2021-11-17T04:09:02.219Z</time>
      </trkpt>
      <trkpt lat="38.58451" lon="39.20088">
        <ele>970.681367</ele>
        <time>2021-11-17T04:09:06.213Z</time>
      </trkpt>
      <trkpt lat="38.58446" lon="39.20076">
        <ele>970.942127</ele>
        <time>2021-11-17T04:09:09.448Z</time>
      </trkpt>
      <trkpt lat="38.58444" lon="39.20071">
        <ele>971.041559</ele>
        <time>2021-11-17T04:09:10.839Z</time>
      </trkpt>
      <trkpt lat="38.58436" lon="39.20063">
        <ele>971.274434</ele>
        <time>2021-11-17T04:09:13.958Z</time>
      </trkpt>
      <trkpt lat="38.5839" lon="39.20065">
        <ele>972.367445</ele>
        <time>2021-11-17T04:09:29.253Z</time>
      </trkpt>
      <trkpt lat="38.5838" lon="39.20056">
        <ele>972.649601</ele>
        <time>2021-11-17T04:09:33.290Z</time>
      </trkpt>
      <trkpt lat="38.58376" lon="39.20041">
        <ele>973.174487</ele>
        <time>2021-11-17T04:09:37.994Z</time>
      </trkpt>
      <trkpt lat="38.5838" lon="39.1994">
        <ele>977.754524</ele>
        <time>2021-11-17T04:10:11.561Z</time>
      </trkpt>
      <trkpt lat="38.58371" lon="39.1979">
        <ele>984.732811</ele>
        <time>2021-11-17T04:11:10.718Z</time>
      </trkpt>
      <trkpt lat="38.58342" lon="39.1969">
        <ele>990.164554</ele>
        <time>2021-11-17T04:11:53.790Z</time>
      </trkpt>
      <trkpt lat="38.58309" lon="39.19599">
        <ele>994.972814</ele>
        <time>2021-11-17T04:12:30.301Z</time>
      </trkpt>
      <trkpt lat="38.58299" lon="39.19549">
        <ele>995.6349</ele>
        <time>2021-11-17T04:12:45.837Z</time>
      </trkpt>
      <trkpt lat="38.58297" lon="39.19529">
        <ele>995.890811</ele>
        <time>2021-11-17T04:12:51.989Z</time>
      </trkpt>
      <trkpt lat="38.58291" lon="39.19467">
        <ele>996.698617</ele>
        <time>2021-11-17T04:13:06.810Z</time>
      </trkpt>
      <trkpt lat="38.58194" lon="39.19075">
        <ele>994.22356</ele>
        <time>2021-11-17T04:14:05.761Z</time>
      </trkpt>
      <trkpt lat="38.58172" lon="39.19014">
        <ele>993.52996</ele>
        <time>2021-11-17T04:14:15.288Z</time>
      </trkpt>
      <trkpt lat="38.58061" lon="39.1875">
        <ele>991.139523</ele>
        <time>2021-11-17T04:15:00.752Z</time>
      </trkpt>
      <trkpt lat="38.57937" lon="39.18476">
        <ele>989.658971</ele>
        <time>2021-11-17T04:15:50.013Z</time>
      </trkpt>
      <trkpt lat="38.57868" lon="39.1835">
        <ele>989.610322</ele>
        <time>2021-11-17T04:16:17.619Z</time>
      </trkpt>
      <trkpt lat="38.57848" lon="39.18262">
        <ele>990.277314</ele>
        <time>2021-11-17T04:16:36.233Z</time>
      </trkpt>
      <trkpt lat="38.5784" lon="39.18209">
        <ele>990.661628</ele>
        <time>2021-11-17T04:16:47.356Z</time>
      </trkpt>
      <trkpt lat="38.5777" lon="39.18034">
        <ele>991.867936</ele>
        <time>2021-11-17T04:17:27.982Z</time>
      </trkpt>
      <trkpt lat="38.57729" lon="39.17965">
        <ele>992.339716</ele>
        <time>2021-11-17T04:17:44.554Z</time>
      </trkpt>
      <trkpt lat="38.57626" lon="39.17856">
        <ele>992.475729</ele>
        <time>2021-11-17T04:18:14.386Z</time>
      </trkpt>
      <trkpt lat="38.575" lon="39.17705">
        <ele>992.436363</ele>
        <time>2021-11-17T04:18:51.623Z</time>
      </trkpt>
      <trkpt lat="38.57458" lon="39.17632">
        <ele>992.406391</ele>
        <time>2021-11-17T04:19:07.600Z</time>
      </trkpt>
      <trkpt lat="38.57421" lon="39.17584">
        <ele>992.532102</ele>
        <time>2021-11-17T04:19:20.088Z</time>
      </trkpt>
      <trkpt lat="38.57363" lon="39.17493">
        <ele>992.752307</ele>
        <time>2021-11-17T04:19:43.804Z</time>
      </trkpt>
      <trkpt lat="38.57336" lon="39.17452">
        <ele>992.671342</ele>
        <time>2021-11-17T04:19:52.835Z</time>
      </trkpt>
      <trkpt lat="38.57326" lon="39.17441">
        <ele>992.377497</ele>
        <time>2021-11-17T04:19:55.016Z</time>
      </trkpt>
      <trkpt lat="38.57322" lon="39.17436">
        <ele>992.250602</ele>
        <time>2021-11-17T04:19:56.238Z</time>
      </trkpt>
      <trkpt lat="38.57277" lon="39.17402">
        <ele>991.035036</ele>
        <time>2021-11-17T04:20:05.699Z</time>
      </trkpt>
      <trkpt lat="38.57268" lon="39.17421">
        <ele>990.618035</ele>
        <time>2021-11-17T04:20:10.996Z</time>
      </trkpt>
      <trkpt lat="38.57251" lon="39.17438">
        <ele>990.114742</ele>
        <time>2021-11-17T04:20:17.623Z</time>
      </trkpt>
      <trkpt lat="38.57243" lon="39.17444">
        <ele>989.893027</ele>
        <time>2021-11-17T04:20:20.350Z</time>
      </trkpt>
      <trkpt lat="38.57215" lon="39.17463">
        <ele>989.176869</ele>
        <time>2021-11-17T04:20:29.538Z</time>
      </trkpt>
      <trkpt lat="38.57195" lon="39.17479">
        <ele>988.614324</ele>
        <time>2021-11-17T04:20:36.829Z</time>
      </trkpt>
      <trkpt lat="38.57174" lon="39.17495">
        <ele>988.016308</ele>
        <time>2021-11-17T04:20:43.553Z</time>
      </trkpt>
      <trkpt lat="38.57168" lon="39.17506">
        <ele>987.74864</ele>
        <time>2021-11-17T04:20:46.786Z</time>
      </trkpt>
      <trkpt lat="38.57159" lon="39.1751">
        <ele>987.51394</ele>
        <time>2021-11-17T04:20:48.208Z</time>
      </trkpt>
      <trkpt lat="38.57142" lon="39.17505">
        <ele>987.073848</ele>
        <time>2021-11-17T04:20:50.954Z</time>
      </trkpt>
      <trkpt lat="38.57125" lon="39.17501">
        <ele>986.653295</ele>
        <time>2021-11-17T04:20:53.627Z</time>
      </trkpt>
      <trkpt lat="38.57117" lon="39.17486">
        <ele>986.300968</ele>
        <time>2021-11-17T04:20:55.897Z</time>
      </trkpt>
      <trkpt lat="38.57112" lon="39.17466">
        <ele>985.902454</ele>
        <time>2021-11-17T04:20:58.537Z</time>
      </trkpt>
      <trkpt lat="38.57102" lon="39.1746">
        <ele>985.629195</ele>
        <time>2021-11-17T04:21:00.266Z</time>
      </trkpt>
      <trkpt lat="38.57089" lon="39.17451">
        <ele>985.25145</ele>
        <time>2021-11-17T04:21:03.012Z</time>
      </trkpt>
      <trkpt lat="38.57068" lon="39.17408">
        <ele>984.27215</ele>
        <time>2021-11-17T04:21:10.896Z</time>
      </trkpt>
      <trkpt lat="38.57068" lon="39.17383">
        <ele>984.788653</ele>
        <time>2021-11-17T04:21:15.623Z</time>
      </trkpt>
      <trkpt lat="38.5705" lon="39.17337">
        <ele>986.198087</ele>
        <time>2021-11-17T04:21:27.491Z</time>
      </trkpt>
      <trkpt lat="38.57049" lon="39.17311">
        <ele>986.89893</ele>
        <time>2021-11-17T04:21:34.786Z</time>
      </trkpt>
      <trkpt lat="38.57044" lon="39.17298">
        <ele>987.297063</ele>
        <time>2021-11-17T04:21:38.505Z</time>
      </trkpt>
      <trkpt lat="38.57039" lon="39.17291">
        <ele>987.539358</ele>
        <time>2021-11-17T04:21:40.966Z</time>
      </trkpt>
      <trkpt lat="38.57031" lon="39.17281">
        <ele>987.927506</ele>
        <time>2021-11-17T04:21:45.087Z</time>
      </trkpt>
      <trkpt lat="38.57025" lon="39.17273">
        <ele>988.238587</ele>
        <time>2021-11-17T04:21:49.482Z</time>
      </trkpt>
      <trkpt lat="38.56991" lon="39.17173">
        <ele>992.022531</ele>
        <time>2021-11-17T04:22:27.059Z</time>
      </trkpt>
      <trkpt lat="38.56925" lon="39.16839">
        <ele>1012.474447</ele>
        <time>2021-11-17T04:24:52.119Z</time>
      </trkpt>
      <trkpt lat="38.56899" lon="39.16752">
        <ele>1018.134196</ele>
        <time>2021-11-17T04:25:31.178Z</time>
      </trkpt>
      <trkpt lat="38.56865" lon="39.16669">
        <ele>1023.129332</ele>
        <time>2021-11-17T04:26:09.082Z</time>
      </trkpt>
      <trkpt lat="38.56828" lon="39.1662">
        <ele>1026.725062</ele>
        <time>2021-11-17T04:26:34.415Z</time>
      </trkpt>
      <trkpt lat="38.56821" lon="39.16612">
        <ele>1027.381938</ele>
        <time>2021-11-17T04:26:39.685Z</time>
      </trkpt>
      <trkpt lat="38.56748" lon="39.16499">
        <ele>1034.084095</ele>
        <time>2021-11-17T04:27:32.499Z</time>
      </trkpt>
      <trkpt lat="38.56727" lon="39.16474">
        <ele>1035.613692</ele>
        <time>2021-11-17T04:27:45.333Z</time>
      </trkpt>
      <trkpt lat="38.56696" lon="39.16454">
        <ele>1037.487489</ele>
        <time>2021-11-17T04:27:59.491Z</time>
      </trkpt>
      <trkpt lat="38.56649" lon="39.16322">
        <ele>1042.898813</ele>
        <time>2021-11-17T04:28:45.088Z</time>
      </trkpt>
      <trkpt lat="38.5661" lon="39.16241">
        <ele>1046.195379</ele>
        <time>2021-11-17T04:29:14.825Z</time>
      </trkpt>
      <trkpt lat="38.56568" lon="39.16076">
        <ele>1052.269287</ele>
        <time>2021-11-17T04:30:09.093Z</time>
      </trkpt>
      <trkpt lat="38.56515" lon="39.15938">
        <ele>1057.623288</ele>
        <time>2021-11-17T04:30:57.664Z</time>
      </trkpt>
      <trkpt lat="38.56497" lon="39.15902">
        <ele>1059.108292</ele>
        <time>2021-11-17T04:31:11.242Z</time>
      </trkpt>
      <trkpt lat="38.56405" lon="39.15793">
        <ele>1064.524064</ele>
        <time>2021-11-17T04:32:01.011Z</time>
      </trkpt>
      <trkpt lat="38.5638" lon="39.15755">
        <ele>1066.008956</ele>
        <time>2021-11-17T04:32:16.173Z</time>
      </trkpt>
      <trkpt lat="38.56253" lon="39.15478">
        <ele>1074.810343</ele>
        <time>2021-11-17T04:33:47.522Z</time>
      </trkpt>
      <trkpt lat="38.56158" lon="39.15144">
        <ele>1082.422834</ele>
        <time>2021-11-17T04:35:17.555Z</time>
      </trkpt>
      <trkpt lat="38.56125" lon="39.15059">
        <ele>1084.482617</ele>
        <time>2021-11-17T04:35:41.892Z</time>
      </trkpt>
      <trkpt lat="38.56108" lon="39.14942">
        <ele>1087.367959</ele>
        <time>2021-11-17T04:36:14.123Z</time>
      </trkpt>
      <trkpt lat="38.56066" lon="39.14794">
        <ele>1091.779274</ele>
        <time>2021-11-17T04:36:59.437Z</time>
      </trkpt>
      <trkpt lat="38.5599" lon="39.14618">
        <ele>1098.17316</ele>
        <time>2021-11-17T04:38:00.400Z</time>
      </trkpt>
      <trkpt lat="38.56023" lon="39.14425">
        <ele>1104.624203</ele>
        <time>2021-11-17T04:39:01.104Z</time>
      </trkpt>
      <trkpt lat="38.56049" lon="39.14331">
        <ele>1107.909186</ele>
        <time>2021-11-17T04:39:31.686Z</time>
      </trkpt>
      <trkpt lat="38.56059" lon="39.14275">
        <ele>1109.616599</ele>
        <time>2021-11-17T04:39:48.458Z</time>
      </trkpt>
      <trkpt lat="38.56058" lon="39.14237">
        <ele>1110.792044</ele>
        <time>2021-11-17T04:39:59.871Z</time>
      </trkpt>
      <trkpt lat="38.56049" lon="39.14176">
        <ele>1112.643571</ele>
        <time>2021-11-17T04:40:17.724Z</time>
      </trkpt>
      <trkpt lat="38.56021" lon="39.14062">
        <ele>1116.282519</ele>
        <time>2021-11-17T04:40:52.559Z</time>
      </trkpt>
      <trkpt lat="38.56004" lon="39.1397">
        <ele>1119.15165</ele>
        <time>2021-11-17T04:41:20.335Z</time>
      </trkpt>
      <trkpt lat="38.5599" lon="39.13845">
        <ele>1122.957342</ele>
        <time>2021-11-17T04:41:58.728Z</time>
      </trkpt>
      <trkpt lat="38.55982" lon="39.1382">
        <ele>1123.730743</ele>
        <time>2021-11-17T04:42:06.880Z</time>
      </trkpt>
      <trkpt lat="38.55961" lon="39.13781">
        <ele>1125.138543</ele>
        <time>2021-11-17T04:42:21.489Z</time>
      </trkpt>
      <trkpt lat="38.55873" lon="39.13657">
        <ele>1129.356777</ele>
        <time>2021-11-17T04:43:07.865Z</time>
      </trkpt>
      <trkpt lat="38.55849" lon="39.13643">
        <ele>1129.968193</ele>
        <time>2021-11-17T04:43:16.128Z</time>
      </trkpt>
      <trkpt lat="38.558" lon="39.13631">
        <ele>1131.139977</ele>
        <time>2021-11-17T04:43:31.372Z</time>
      </trkpt>
      <trkpt lat="38.55769" lon="39.13606">
        <ele>1132.006478</ele>
        <time>2021-11-17T04:43:42.246Z</time>
      </trkpt>
      <trkpt lat="38.55752" lon="39.13579">
        <ele>1132.597709</ele>
        <time>2021-11-17T04:43:50.133Z</time>
      </trkpt>
      <trkpt lat="38.55748" lon="39.13555">
        <ele>1132.933511</ele>
        <time>2021-11-17T04:43:55.507Z</time>
      </trkpt>
      <trkpt lat="38.55753" lon="39.13536">
        <ele>1133.219434</ele>
        <time>2021-11-17T04:44:00.101Z</time>
      </trkpt>
      <trkpt lat="38.55799" lon="39.13481">
        <ele>1134.331869</ele>
        <time>2021-11-17T04:44:18.286Z</time>
      </trkpt>
      <trkpt lat="38.55815" lon="39.13449">
        <ele>1134.84881</ele>
        <time>2021-11-17T04:44:27.045Z</time>
      </trkpt>
      <trkpt lat="38.55818" lon="39.13421">
        <ele>1135.240985</ele>
        <time>2021-11-17T04:44:33.782Z</time>
      </trkpt>
      <trkpt lat="38.55809" lon="39.1327">
        <ele>1136.363647</ele>
        <time>2021-11-17T04:45:09.189Z</time>
      </trkpt>
      <trkpt lat="38.55794" lon="39.13202">
        <ele>1136.778456</ele>
        <time>2021-11-17T04:45:21.196Z</time>
      </trkpt>
      <trkpt lat="38.55779" lon="39.13157">
        <ele>1136.828641</ele>
        <time>2021-11-17T04:45:28.765Z</time>
      </trkpt>
      <trkpt lat="38.55774" lon="39.13123">
        <ele>1136.404948</ele>
        <time>2021-11-17T04:45:33.864Z</time>
      </trkpt>
      <trkpt lat="38.55774" lon="39.13112">
        <ele>1136.271214</ele>
        <time>2021-11-17T04:45:35.378Z</time>
      </trkpt>
      <trkpt lat="38.55776" lon="39.1307">
        <ele>1135.749741</ele>
        <time>2021-11-17T04:45:41.368Z</time>
      </trkpt>
      <trkpt lat="38.55776" lon="39.12984">
        <ele>1134.700591</ele>
        <time>2021-11-17T04:45:53.146Z</time>
      </trkpt>
      <trkpt lat="38.55766" lon="39.12924">
        <ele>1134.065795</ele>
        <time>2021-11-17T04:46:01.366Z</time>
      </trkpt>
      <trkpt lat="38.55758" lon="39.12697">
        <ele>1132.925287</ele>
        <time>2021-11-17T04:46:37.563Z</time>
      </trkpt>
      <trkpt lat="38.55766" lon="39.12676">
        <ele>1133.04323</ele>
        <time>2021-11-17T04:46:42.074Z</time>
      </trkpt>
      <trkpt lat="38.55782" lon="39.12665">
        <ele>1133.154733</ele>
        <time>2021-11-17T04:46:46.342Z</time>
      </trkpt>
      <trkpt lat="38.55824" lon="39.12658">
        <ele>1133.426124</ele>
        <time>2021-11-17T04:46:56.769Z</time>
      </trkpt>
      <trkpt lat="38.55858" lon="39.12641">
        <ele>1133.656169</ele>
        <time>2021-11-17T04:47:05.470Z</time>
      </trkpt>
      <trkpt lat="38.55892" lon="39.12615">
        <ele>1133.904924</ele>
        <time>2021-11-17T04:47:16.086Z</time>
      </trkpt>
      <trkpt lat="38.55917" lon="39.12588">
        <ele>1134.469116</ele>
        <time>2021-11-17T04:47:25.528Z</time>
      </trkpt>
      <trkpt lat="38.55929" lon="39.12575">
        <ele>1134.850256</ele>
        <time>2021-11-17T04:47:30.081Z</time>
      </trkpt>
      <trkpt lat="38.55945" lon="39.12561">
        <ele>1135.331744</ele>
        <time>2021-11-17T04:47:35.856Z</time>
      </trkpt>
      <trkpt lat="38.55966" lon="39.12559">
        <ele>1135.875104</ele>
        <time>2021-11-17T04:47:42.669Z</time>
      </trkpt>
      <trkpt lat="38.55979" lon="39.12559">
        <ele>1136.189104</ele>
        <time>2021-11-17T04:47:46.523Z</time>
      </trkpt>
      <trkpt lat="38.55956" lon="39.1252">
        <ele>1137.133062</ele>
        <time>2021-11-17T04:47:59.269Z</time>
      </trkpt>
      <trkpt lat="38.55934" lon="39.12352">
        <ele>1141.757904</ele>
        <time>2021-11-17T04:48:49.483Z</time>
      </trkpt>
      <trkpt lat="38.5591" lon="39.12266">
        <ele>1144.691185</ele>
        <time>2021-11-17T04:49:18.699Z</time>
      </trkpt>
      <trkpt lat="38.55915" lon="39.12197">
        <ele>1147.075649</ele>
        <time>2021-11-17T04:49:41.250Z</time>
      </trkpt>
      <trkpt lat="38.55911" lon="39.12178">
        <ele>1147.817334</ele>
        <time>2021-11-17T04:49:47.792Z</time>
      </trkpt>
      <trkpt lat="38.55904" lon="39.12157">
        <ele>1148.651412</ele>
        <time>2021-11-17T04:49:55.235Z</time>
      </trkpt>
      <trkpt lat="38.55862" lon="39.12108">
        <ele>1151.394017</ele>
        <time>2021-11-17T04:50:19.755Z</time>
      </trkpt>
      <trkpt lat="38.55845" lon="39.12075">
        <ele>1152.85211</ele>
        <time>2021-11-17T04:50:32.829Z</time>
      </trkpt>
      <trkpt lat="38.55848" lon="39.12034">
        <ele>1154.397408</ele>
        <time>2021-11-17T04:50:46.602Z</time>
      </trkpt>
      <trkpt lat="38.55839" lon="39.11762">
        <ele>1163.890969</ele>
        <time>2021-11-17T04:52:14.120Z</time>
      </trkpt>
      <trkpt lat="38.55834" lon="39.11727">
        <ele>1165.049207</ele>
        <time>2021-11-17T04:52:25.025Z</time>
      </trkpt>
      <trkpt lat="38.55813" lon="39.11673">
        <ele>1167.029663</ele>
        <time>2021-11-17T04:52:43.611Z</time>
      </trkpt>
      <trkpt lat="38.55789" lon="39.11543">
        <ele>1171.485883</ele>
        <time>2021-11-17T04:53:24.968Z</time>
      </trkpt>
      <trkpt lat="38.55788" lon="39.1151">
        <ele>1172.618257</ele>
        <time>2021-11-17T04:53:35.455Z</time>
      </trkpt>
      <trkpt lat="38.55801" lon="39.11463">
        <ele>1174.33336</ele>
        <time>2021-11-17T04:53:51.484Z</time>
      </trkpt>
      <trkpt lat="38.55792" lon="39.11433">
        <ele>1175.412096</ele>
        <time>2021-11-17T04:54:01.678Z</time>
      </trkpt>
      <trkpt lat="38.55791" lon="39.11411">
        <ele>1176.160266</ele>
        <time>2021-11-17T04:54:08.771Z</time>
      </trkpt>
      <trkpt lat="38.55769" lon="39.11353">
        <ele>1178.348454</ele>
        <time>2021-11-17T04:54:29.838Z</time>
      </trkpt>
      <trkpt lat="38.55672" lon="39.11175">
        <ele>1185.676031</ele>
        <time>2021-11-17T04:55:39.005Z</time>
      </trkpt>
      <trkpt lat="38.55632" lon="39.11129">
        <ele>1187.235385</ele>
        <time>2021-11-17T04:55:58.870Z</time>
      </trkpt>
      <trkpt lat="38.55578" lon="39.11078">
        <ele>1189.191429</ele>
        <time>2021-11-17T04:56:22.237Z</time>
      </trkpt>
      <trkpt lat="38.55557" lon="39.11006">
        <ele>1190.928737</ele>
        <time>2021-11-17T04:56:41.353Z</time>
      </trkpt>
      <trkpt lat="38.5552" lon="39.10918">
        <ele>1192.596346</ele>
        <time>2021-11-17T04:57:05.353Z</time>
      </trkpt>
      <trkpt lat="38.5548" lon="39.10806">
        <ele>1194.657022</ele>
        <time>2021-11-17T04:57:35.716Z</time>
      </trkpt>
      <trkpt lat="38.55442" lon="39.10793">
        <ele>1195.924151</ele>
        <time>2021-11-17T04:57:54.058Z</time>
      </trkpt>
      <trkpt lat="38.55324" lon="39.10728">
        <ele>1200.315816</ele>
        <time>2021-11-17T04:58:59.607Z</time>
      </trkpt>
      <trkpt lat="38.55172" lon="39.10635">
        <ele>1208.065925</ele>
        <time>2021-11-17T05:00:33.984Z</time>
      </trkpt>
      <trkpt lat="38.55084" lon="39.10573">
        <ele>1213.05696</ele>
        <time>2021-11-17T05:01:32.324Z</time>
      </trkpt>
      <trkpt lat="38.55025" lon="39.10518">
        <ele>1216.721817</ele>
        <time>2021-11-17T05:02:13.776Z</time>
      </trkpt>
      <trkpt lat="38.54979" lon="39.10487">
        <ele>1219.454718</ele>
        <time>2021-11-17T05:02:43.051Z</time>
      </trkpt>
      <trkpt lat="38.54947" lon="39.10474">
        <ele>1221.331291</ele>
        <time>2021-11-17T05:03:03.180Z</time>
      </trkpt>
      <trkpt lat="38.54935" lon="39.1047">
        <ele>1221.978717</ele>
        <time>2021-11-17T05:03:10.005Z</time>
      </trkpt>
      <trkpt lat="38.54913" lon="39.10453">
        <ele>1223.42063</ele>
        <time>2021-11-17T05:03:25.433Z</time>
      </trkpt>
      <trkpt lat="38.54892" lon="39.1044">
        <ele>1224.70169</ele>
        <time>2021-11-17T05:03:39.029Z</time>
      </trkpt>
      <trkpt lat="38.54861" lon="39.10435">
        <ele>1226.42973</ele>
        <time>2021-11-17T05:03:57.230Z</time>
      </trkpt>
      <trkpt lat="38.54848" lon="39.10438">
        <ele>1227.193068</ele>
        <time>2021-11-17T05:04:05.548Z</time>
      </trkpt>
      <trkpt lat="38.54803" lon="39.10449">
        <ele>1230.080362</ele>
        <time>2021-11-17T05:04:32.853Z</time>
      </trkpt>
      <trkpt lat="38.547" lon="39.10442">
        <ele>1237.709319</ele>
        <time>2021-11-17T05:05:42.926Z</time>
      </trkpt>
      <trkpt lat="38.54654" lon="39.10453">
        <ele>1241.152434</ele>
        <time>2021-11-17T05:06:14.774Z</time>
      </trkpt>
      <trkpt lat="38.54623" lon="39.10461">
        <ele>1243.317742</ele>
        <time>2021-11-17T05:06:36.915Z</time>
      </trkpt>
      <trkpt lat="38.54542" lon="39.10464">
        <ele>1248.82326</ele>
        <time>2021-11-17T05:07:33.415Z</time>
      </trkpt>
      <trkpt lat="38.54506" lon="39.1045">
        <ele>1251.301791</ele>
        <time>2021-11-17T05:07:56.871Z</time>
      </trkpt>
      <trkpt lat="38.54476" lon="39.1043">
        <ele>1253.573566</ele>
        <time>2021-11-17T05:08:16.596Z</time>
      </trkpt>
      <trkpt lat="38.54476" lon="39.1043">
        <ele>1253.573566</ele>
        <time>2021-11-17T05:08:16.652Z</time>
      </trkpt>
      <trkpt lat="38.54469" lon="39.10417">
        <ele>1253.788586</ele>
        <time>2021-11-17T05:08:21.200Z</time>
      </trkpt>
      <trkpt lat="38.5446" lon="39.10411">
        <ele>1253.76234</ele>
        <time>2021-11-17T05:08:25.116Z</time>
      </trkpt>
      <trkpt lat="38.54451" lon="39.10413">
        <ele>1253.737434</ele>
        <time>2021-11-17T05:08:28.278Z</time>
      </trkpt>
      <trkpt lat="38.5444" lon="39.1042">
        <ele>1253.707233</ele>
        <time>2021-11-17T05:08:31.868Z</time>
      </trkpt>
      <trkpt lat="38.5443" lon="39.10405">
        <ele>1253.666775</ele>
        <time>2021-11-17T05:08:38.917Z</time>
      </trkpt>
      <trkpt lat="38.54418" lon="39.10372">
        <ele>1253.595043</ele>
        <time>2021-11-17T05:08:45.630Z</time>
      </trkpt>
      <trkpt lat="38.54408" lon="39.10339">
        <ele>1253.52228</ele>
        <time>2021-11-17T05:08:51.518Z</time>
      </trkpt>
      <trkpt lat="38.5442" lon="39.10275">
        <ele>1253.391042</ele>
        <time>2021-11-17T05:09:00.576Z</time>
      </trkpt>
      <trkpt lat="38.54413" lon="39.10248">
        <ele>1252.98753</ele>
        <time>2021-11-17T05:09:04.329Z</time>
      </trkpt>
      <trkpt lat="38.54428" lon="39.10255">
        <ele>1252.021272</ele>
        <time>2021-11-17T05:09:06.675Z</time>
      </trkpt>
      <trkpt lat="38.5445" lon="39.10254">
        <ele>1250.666159</ele>
        <time>2021-11-17T05:09:10.225Z</time>
      </trkpt>
      <trkpt lat="38.54452" lon="39.10234">
        <ele>1249.707312</ele>
        <time>2021-11-17T05:09:12.540Z</time>
      </trkpt>
      <trkpt lat="38.54507" lon="39.10192">
        <ele>1245.720559</ele>
        <time>2021-11-17T05:09:22.445Z</time>
      </trkpt>
      <trkpt lat="38.54528" lon="39.1017">
        <ele>1244.075701</ele>
        <time>2021-11-17T05:09:26.421Z</time>
      </trkpt>
      <trkpt lat="38.54535" lon="39.10157">
        <ele>1243.302034</ele>
        <time>2021-11-17T05:09:28.190Z</time>
      </trkpt>
      <trkpt lat="38.54542" lon="39.10138">
        <ele>1242.23849</ele>
        <time>2021-11-17T05:09:30.774Z</time>
      </trkpt>
      <trkpt lat="38.54551" lon="39.10109">
        <ele>1240.49908</ele>
        <time>2021-11-17T05:09:34.245Z</time>
      </trkpt>
      <trkpt lat="38.54545" lon="39.10089">
        <ele>1239.229513</ele>
        <time>2021-11-17T05:09:36.911Z</time>
      </trkpt>
      <trkpt lat="38.54556" lon="39.10076">
        <ele>1238.141026</ele>
        <time>2021-11-17T05:09:40.692Z</time>
      </trkpt>
      <trkpt lat="38.54564" lon="39.10067">
        <ele>1237.345487</ele>
        <time>2021-11-17T05:09:43.551Z</time>
      </trkpt>
      <trkpt lat="38.54575" lon="39.10051">
        <ele>1236.163894</ele>
        <time>2021-11-17T05:09:47.772Z</time>
      </trkpt>
      <trkpt lat="38.54584" lon="39.10028">
        <ele>1234.707515</ele>
        <time>2021-11-17T05:09:52.856Z</time>
      </trkpt>
      <trkpt lat="38.54584" lon="39.1">
        <ele>1233.095778</ele>
        <time>2021-11-17T05:09:58.483Z</time>
      </trkpt>
      <trkpt lat="38.54581" lon="39.09972">
        <ele>1231.474543</ele>
        <time>2021-11-17T05:10:04.231Z</time>
      </trkpt>
      <trkpt lat="38.54595" lon="39.09877">
        <ele>1226.414313</ele>
        <time>2021-11-17T05:10:23.828Z</time>
      </trkpt>
      <trkpt lat="38.54647" lon="39.09739">
        <ele>1218.905406</ele>
        <time>2021-11-17T05:10:55.841Z</time>
      </trkpt>
      <trkpt lat="38.54665" lon="39.09682">
        <ele>1216.23717</ele>
        <time>2021-11-17T05:11:08.737Z</time>
      </trkpt>
      <trkpt lat="38.5472" lon="39.09459">
        <ele>1206.848251</ele>
        <time>2021-11-17T05:11:58.681Z</time>
      </trkpt>
      <trkpt lat="38.54803" lon="39.09225">
        <ele>1197.751665</ele>
        <time>2021-11-17T05:12:55.088Z</time>
      </trkpt>
      <trkpt lat="38.54851" lon="39.09055">
        <ele>1191.527669</ele>
        <time>2021-11-17T05:13:34.945Z</time>
      </trkpt>
      <trkpt lat="38.54862" lon="39.0901">
        <ele>1189.719948</ele>
        <time>2021-11-17T05:13:45.324Z</time>
      </trkpt>
      <trkpt lat="38.5492" lon="39.08754">
        <ele>1179.471481</ele>
        <time>2021-11-17T05:14:42.310Z</time>
      </trkpt>
      <trkpt lat="38.54964" lon="39.08533">
        <ele>1171.13141</ele>
        <time>2021-11-17T05:15:31.372Z</time>
      </trkpt>
      <trkpt lat="38.54968" lon="39.08486">
        <ele>1169.551231</ele>
        <time>2021-11-17T05:15:41.784Z</time>
      </trkpt>
      <trkpt lat="38.54957" lon="39.08361">
        <ele>1165.965797</ele>
        <time>2021-11-17T05:16:10.577Z</time>
      </trkpt>
      <trkpt lat="38.54963" lon="39.08289">
        <ele>1164.571834</ele>
        <time>2021-11-17T05:16:27.533Z</time>
      </trkpt>
      <trkpt lat="38.5502" lon="39.07919">
        <ele>1158.796596</ele>
        <time>2021-11-17T05:18:01.450Z</time>
      </trkpt>
      <trkpt lat="38.55022" lon="39.07869">
        <ele>1158.300714</ele>
        <time>2021-11-17T05:18:14.240Z</time>
      </trkpt>
      <trkpt lat="38.55033" lon="39.07588">
        <ele>1156.251262</ele>
        <time>2021-11-17T05:19:28.350Z</time>
      </trkpt>
      <trkpt lat="38.55042" lon="39.07558">
        <ele>1156.103413</ele>
        <time>2021-11-17T05:19:37.541Z</time>
      </trkpt>
      <trkpt lat="38.55067" lon="39.07503">
        <ele>1155.841248</ele>
        <time>2021-11-17T05:19:55.993Z</time>
      </trkpt>
      <trkpt lat="38.5516" lon="39.07245">
        <ele>1156.816586</ele>
        <time>2021-11-17T05:21:22.471Z</time>
      </trkpt>
      <trkpt lat="38.5516" lon="39.07241">
        <ele>1156.835711</ele>
        <time>2021-11-17T05:21:24.067Z</time>
      </trkpt>
      <trkpt lat="38.55186" lon="39.07251">
        <ele>1156.982243</ele>
        <time>2021-11-17T05:21:31.288Z</time>
      </trkpt>
      <trkpt lat="38.55199" lon="39.07253">
        <ele>1157.048512</ele>
        <time>2021-11-17T05:21:34.629Z</time>
      </trkpt>
      <trkpt lat="38.55218" lon="39.07255">
        <ele>1157.145635</ele>
        <time>2021-11-17T05:21:39.401Z</time>
      </trkpt>
      <trkpt lat="38.55221" lon="39.07254">
        <ele>1157.160915</ele>
        <time>2021-11-17T05:21:40.097Z</time>
      </trkpt>
      <trkpt lat="38.55247" lon="39.07249">
        <ele>1157.298069</ele>
        <time>2021-11-17T05:21:46.852Z</time>
      </trkpt>
      <trkpt lat="38.55253" lon="39.07243">
        <ele>1157.33871</ele>
        <time>2021-11-17T05:21:48.835Z</time>
      </trkpt>
      <trkpt lat="38.55271" lon="39.07179">
        <ele>1157.485382</ele>
        <time>2021-11-17T05:22:02.072Z</time>
      </trkpt>
      <trkpt lat="38.5527" lon="39.07147">
        <ele>1157.434102</ele>
        <time>2021-11-17T05:22:08.062Z</time>
      </trkpt>
      <trkpt lat="38.55298" lon="39.07148">
        <ele>1157.37712</ele>
        <time>2021-11-17T05:22:14.259Z</time>
      </trkpt>
      <trkpt lat="38.5532" lon="39.07139">
        <ele>1157.330283</ele>
        <time>2021-11-17T05:22:19.240Z</time>
      </trkpt>
      <trkpt lat="38.55334" lon="39.07134">
        <ele>1157.300614</ele>
        <time>2021-11-17T05:22:22.547Z</time>
      </trkpt>
      <trkpt lat="38.55375" lon="39.07103">
        <ele>1157.202361</ele>
        <time>2021-11-17T05:22:32.602Z</time>
      </trkpt>
      <trkpt lat="38.55454" lon="39.07006">
        <ele>1155.641913</ele>
        <time>2021-11-17T05:22:53.471Z</time>
      </trkpt>
      <trkpt lat="38.5555" lon="39.06871">
        <ele>1152.721235</ele>
        <time>2021-11-17T05:23:17.852Z</time>
      </trkpt>
      <trkpt lat="38.55594" lon="39.0681">
        <ele>1151.065168</ele>
        <time>2021-11-17T05:23:28.578Z</time>
      </trkpt>
      <trkpt lat="38.55675" lon="39.06708">
        <ele>1148.5125</ele>
        <time>2021-11-17T05:23:47.861Z</time>
      </trkpt>
      <trkpt lat="38.55824" lon="39.06489">
        <ele>1144.64809</ele>
        <time>2021-11-17T05:24:29.531Z</time>
      </trkpt>
      <trkpt lat="38.55839" lon="39.06475">
        <ele>1144.360932</ele>
        <time>2021-11-17T05:24:32.904Z</time>
      </trkpt>
      <trkpt lat="38.55847" lon="39.06472">
        <ele>1144.233118</ele>
        <time>2021-11-17T05:24:34.432Z</time>
      </trkpt>
      <trkpt lat="38.55945" lon="39.06479">
        <ele>1142.622195</ele>
        <time>2021-11-17T05:24:52.218Z</time>
      </trkpt>
      <trkpt lat="38.56034" lon="39.06492">
        <ele>1141.038608</ele>
        <time>2021-11-17T05:25:08.234Z</time>
      </trkpt>
      <trkpt lat="38.56169" lon="39.06479">
        <ele>1139.021098</ele>
        <time>2021-11-17T05:25:32.534Z</time>
      </trkpt>
      <trkpt lat="38.56178" lon="39.06479">
        <ele>1138.907753</ele>
        <time>2021-11-17T05:25:33.993Z</time>
      </trkpt>
      <trkpt lat="38.56198" lon="39.0648">
        <ele>1138.635752</ele>
        <time>2021-11-17T05:25:37.826Z</time>
      </trkpt>
      <trkpt lat="38.5629" lon="39.06477">
        <ele>1138.138344</ele>
        <time>2021-11-17T05:25:55.661Z</time>
      </trkpt>
      <trkpt lat="38.56356" lon="39.06478">
        <ele>1139.057433</ele>
        <time>2021-11-17T05:26:12.261Z</time>
      </trkpt>
      <trkpt lat="38.56402" lon="39.06469">
        <ele>1139.718497</ele>
        <time>2021-11-17T05:26:26.128Z</time>
      </trkpt>
      <trkpt lat="38.56429" lon="39.06457">
        <ele>1140.113174</ele>
        <time>2021-11-17T05:26:35.512Z</time>
      </trkpt>
      <trkpt lat="38.5648" lon="39.06425">
        <ele>1142.275876</ele>
        <time>2021-11-17T05:26:57.208Z</time>
      </trkpt>
      <trkpt lat="38.56555" lon="39.0635">
        <ele>1146.492608</ele>
        <time>2021-11-17T05:27:37.741Z</time>
      </trkpt>
      <trkpt lat="38.56581" lon="39.06317">
        <ele>1148.124158</ele>
        <time>2021-11-17T05:27:52.635Z</time>
      </trkpt>
      <trkpt lat="38.56587" lon="39.06311">
        <ele>1148.413291</ele>
        <time>2021-11-17T05:27:56.637Z</time>
      </trkpt>
      <trkpt lat="38.56594" lon="39.06305">
        <ele>1148.703072</ele>
        <time>2021-11-17T05:27:59.820Z</time>
      </trkpt>
      <trkpt lat="38.56603" lon="39.06299">
        <ele>1149.002552</ele>
        <time>2021-11-17T05:28:03.104Z</time>
      </trkpt>
      <trkpt lat="38.56613" lon="39.06291">
        <ele>1149.369058</ele>
        <time>2021-11-17T05:28:07.613Z</time>
      </trkpt>
      <trkpt lat="38.56661" lon="39.06239">
        <ele>1151.382674</ele>
        <time>2021-11-17T05:28:30.814Z</time>
      </trkpt>
      <trkpt lat="38.56708" lon="39.06163">
        <ele>1153.808101</ele>
        <time>2021-11-17T05:28:56.406Z</time>
      </trkpt>
      <trkpt lat="38.56742" lon="39.06123">
        <ele>1154.369147</ele>
        <time>2021-11-17T05:29:08.478Z</time>
      </trkpt>
      <trkpt lat="38.56776" lon="39.0609">
        <ele>1154.74287</ele>
        <time>2021-11-17T05:29:19.376Z</time>
      </trkpt>
      <trkpt lat="38.56926" lon="39.05929">
        <ele>1155.400565</ele>
        <time>2021-11-17T05:30:06.796Z</time>
      </trkpt>
      <trkpt lat="38.56991" lon="39.0586">
        <ele>1155.192091</ele>
        <time>2021-11-17T05:30:23.293Z</time>
      </trkpt>
      <trkpt lat="38.56999" lon="39.05857">
        <ele>1155.054403</ele>
        <time>2021-11-17T05:30:24.995Z</time>
      </trkpt>
      <trkpt lat="38.57025" lon="39.05853">
        <ele>1154.597759</ele>
        <time>2021-11-17T05:30:29.695Z</time>
      </trkpt>
      <trkpt lat="38.57047" lon="39.05853">
        <ele>1154.224804</ele>
        <time>2021-11-17T05:30:33.819Z</time>
      </trkpt>
      <trkpt lat="38.57048" lon="39.05853">
        <ele>1154.207648</ele>
        <time>2021-11-17T05:30:33.961Z</time>
      </trkpt>
      <trkpt lat="38.57055" lon="39.05853">
        <ele>1154.097467</ele>
        <time>2021-11-17T05:30:35.059Z</time>
      </trkpt>
      <trkpt lat="38.57073" lon="39.05854">
        <ele>1153.783329</ele>
        <time>2021-11-17T05:30:38.534Z</time>
      </trkpt>
      <trkpt lat="38.57077" lon="39.05853">
        <ele>1153.718252</ele>
        <time>2021-11-17T05:30:39.193Z</time>
      </trkpt>
      <trkpt lat="38.57079" lon="39.05854">
        <ele>1153.685612</ele>
        <time>2021-11-17T05:30:39.550Z</time>
      </trkpt>
      <trkpt lat="38.57095" lon="39.05866">
        <ele>1153.366814</ele>
        <time>2021-11-17T05:30:42.706Z</time>
      </trkpt>
      <trkpt lat="38.57138" lon="39.05883">
        <ele>1152.606305</ele>
        <time>2021-11-17T05:30:50.650Z</time>
      </trkpt>
      <trkpt lat="38.57166" lon="39.05887">
        <ele>1152.17512</ele>
        <time>2021-11-17T05:30:55.500Z</time>
      </trkpt>
      <trkpt lat="38.57265" lon="39.05904">
        <ele>1151.957874</ele>
        <time>2021-11-17T05:31:14.967Z</time>
      </trkpt>
      <trkpt lat="38.5728" lon="39.05901">
        <ele>1151.923118</ele>
        <time>2021-11-17T05:31:18.800Z</time>
      </trkpt>
      <trkpt lat="38.57303" lon="39.05918">
        <ele>1151.865846</ele>
        <time>2021-11-17T05:31:25.260Z</time>
      </trkpt>
      <trkpt lat="38.57318" lon="39.05933">
        <ele>1151.823936</ele>
        <time>2021-11-17T05:31:30.611Z</time>
      </trkpt>
      <trkpt lat="38.57327" lon="39.05944">
        <ele>1151.796643</ele>
        <time>2021-11-17T05:31:33.992Z</time>
      </trkpt>
      <trkpt lat="38.57341" lon="39.05916">
        <ele>1152.144058</ele>
        <time>2021-11-17T05:31:41.586Z</time>
      </trkpt>
      <trkpt lat="38.57347" lon="39.059">
        <ele>1152.36677</ele>
        <time>2021-11-17T05:31:45.459Z</time>
      </trkpt>
      <trkpt lat="38.57364" lon="39.05835">
        <ele>1153.226861</ele>
        <time>2021-11-17T05:32:01.671Z</time>
      </trkpt>
      <trkpt lat="38.57367" lon="39.05827">
        <ele>1153.341623</ele>
        <time>2021-11-17T05:32:03.872Z</time>
      </trkpt>
      <trkpt lat="38.57368" lon="39.05823">
        <ele>1153.39599</ele>
        <time>2021-11-17T05:32:04.956Z</time>
      </trkpt>
      <trkpt lat="38.57373" lon="39.05814">
        <ele>1153.530276</ele>
        <time>2021-11-17T05:32:07.333Z</time>
      </trkpt>
      <trkpt lat="38.57378" lon="39.05802">
        <ele>1153.708649</ele>
        <time>2021-11-17T05:32:10.856Z</time>
      </trkpt>
      <trkpt lat="38.57386" lon="39.05794">
        <ele>1153.862509</ele>
        <time>2021-11-17T05:32:13.875Z</time>
      </trkpt>
      <trkpt lat="38.57396" lon="39.0578">
        <ele>1154.099426</ele>
        <time>2021-11-17T05:32:18.204Z</time>
      </trkpt>
      <trkpt lat="38.57419" lon="39.05729">
        <ele>1154.784317</ele>
        <time>2021-11-17T05:32:32.093Z</time>
      </trkpt>
      <trkpt lat="38.57434" lon="39.05694">
        <ele>1155.123225</ele>
        <time>2021-11-17T05:32:41.151Z</time>
      </trkpt>
      <trkpt lat="38.57451" lon="39.05656">
        <ele>1155.493069</ele>
        <time>2021-11-17T05:32:50.633Z</time>
      </trkpt>
      <trkpt lat="38.57482" lon="39.05595">
        <ele>1156.108115</ele>
        <time>2021-11-17T05:33:05.559Z</time>
      </trkpt>
      <trkpt lat="38.57488" lon="39.05577">
        <ele>1156.269007</ele>
        <time>2021-11-17T05:33:09.300Z</time>
      </trkpt>
      <trkpt lat="38.57418" lon="39.05534">
        <ele>1157.046138</ele>
        <time>2021-11-17T05:33:29.514Z</time>
      </trkpt>
      <trkpt lat="38.57348" lon="39.05488">
        <ele>1157.795542</ele>
        <time>2021-11-17T05:33:50.418Z</time>
      </trkpt>
      <trkpt lat="38.57327" lon="39.05474">
        <ele>1158.015672</ele>
        <time>2021-11-17T05:33:56.455Z</time>
      </trkpt>
      <trkpt lat="38.57319" lon="39.05469">
        <ele>1158.097756</ele>
        <time>2021-11-17T05:33:58.811Z</time>
      </trkpt>
      <trkpt lat="38.5731" lon="39.05464">
        <ele>1158.195426</ele>
        <time>2021-11-17T05:34:01.401Z</time>
      </trkpt>
      <trkpt lat="38.57284" lon="39.0545">
        <ele>1158.419338</ele>
        <time>2021-11-17T05:34:08.647Z</time>
      </trkpt>
      <trkpt lat="38.57207" lon="39.05416">
        <ele>1158.976308</ele>
        <time>2021-11-17T05:34:29.136Z</time>
      </trkpt>
      <trkpt lat="38.5709" lon="39.05376">
        <ele>1159.939381</ele>
        <time>2021-11-17T05:34:58.647Z</time>
      </trkpt>
      <trkpt lat="38.5709" lon="39.05376">
        <ele>1159.939381</ele>
        <time>2021-11-17T05:34:58.649Z</time>
      </trkpt>
      <trkpt lat="38.57057" lon="39.05365">
        <ele>1160.29581</ele>
        <time>2021-11-17T05:35:07.186Z</time>
      </trkpt>
      <trkpt lat="38.56762" lon="39.05272">
        <ele>1164.211728</ele>
        <time>2021-11-17T05:36:30.793Z</time>
      </trkpt>
      <trkpt lat="38.56668" lon="39.05238">
        <ele>1166.085972</ele>
        <time>2021-11-17T05:37:00.398Z</time>
      </trkpt>
      <trkpt lat="38.56625" lon="39.05221">
        <ele>1166.967076</ele>
        <time>2021-11-17T05:37:14.487Z</time>
      </trkpt>
      <trkpt lat="38.5659" lon="39.05206">
        <ele>1167.663287</ele>
        <time>2021-11-17T05:37:25.798Z</time>
      </trkpt>
      <trkpt lat="38.56552" lon="39.05186">
        <ele>1168.424044</ele>
        <time>2021-11-17T05:37:38.320Z</time>
      </trkpt>
      <trkpt lat="38.56409" lon="39.05091">
        <ele>1171.206827</ele>
        <time>2021-11-17T05:38:25.567Z</time>
      </trkpt>
      <trkpt lat="38.56314" lon="39.05007">
        <ele>1172.727781</ele>
        <time>2021-11-17T05:38:57.122Z</time>
      </trkpt>
      <trkpt lat="38.56237" lon="39.04938">
        <ele>1173.786577</ele>
        <time>2021-11-17T05:39:21.138Z</time>
      </trkpt>
      <trkpt lat="38.56135" lon="39.04846">
        <ele>1175.191786</ele>
        <time>2021-11-17T05:39:54.164Z</time>
      </trkpt>
      <trkpt lat="38.56105" lon="39.0482">
        <ele>1175.863572</ele>
        <time>2021-11-17T05:40:04.131Z</time>
      </trkpt>
      <trkpt lat="38.5591" lon="39.04641">
        <ele>1180.913261</ele>
        <time>2021-11-17T05:41:17.992Z</time>
      </trkpt>
      <trkpt lat="38.5555" lon="39.04311">
        <ele>1193.228094</ele>
        <time>2021-11-17T05:43:47.043Z</time>
      </trkpt>
      <trkpt lat="38.55269" lon="39.04053">
        <ele>1203.376853</ele>
        <time>2021-11-17T05:45:44.662Z</time>
      </trkpt>
      <trkpt lat="38.55233" lon="39.04026">
        <ele>1204.44796</ele>
        <time>2021-11-17T05:45:58.739Z</time>
      </trkpt>
      <trkpt lat="38.55224" lon="39.04018">
        <ele>1204.734294</ele>
        <time>2021-11-17T05:46:02.516Z</time>
      </trkpt>
      <trkpt lat="38.55186" lon="39.03992">
        <ele>1205.8285</ele>
        <time>2021-11-17T05:46:16.729Z</time>
      </trkpt>
      <trkpt lat="38.55183" lon="39.03991">
        <ele>1205.90664</ele>
        <time>2021-11-17T05:46:17.939Z</time>
      </trkpt>
      <trkpt lat="38.55127" lon="39.03965">
        <ele>1207.428152</ele>
        <time>2021-11-17T05:46:36.803Z</time>
      </trkpt>
      <trkpt lat="38.55115" lon="39.0396">
        <ele>1207.7677</ele>
        <time>2021-11-17T05:46:41.147Z</time>
      </trkpt>
      <trkpt lat="38.55066" lon="39.03937">
        <ele>1208.738798</ele>
        <time>2021-11-17T05:46:56.306Z</time>
      </trkpt>
      <trkpt lat="38.5494" lon="39.03916">
        <ele>1210.938634</ele>
        <time>2021-11-17T05:47:32.885Z</time>
      </trkpt>
      <trkpt lat="38.54872" lon="39.03918">
        <ele>1211.947934</ele>
        <time>2021-11-17T05:47:52.353Z</time>
      </trkpt>
      <trkpt lat="38.54761" lon="39.03938">
        <ele>1213.539684</ele>
        <time>2021-11-17T05:48:23.455Z</time>
      </trkpt>
      <trkpt lat="38.54746" lon="39.03942">
        <ele>1213.716339</ele>
        <time>2021-11-17T05:48:28.188Z</time>
      </trkpt>
      <trkpt lat="38.54674" lon="39.03957">
        <ele>1214.051886</ele>
        <time>2021-11-17T05:48:46.947Z</time>
      </trkpt>
      <trkpt lat="38.54401" lon="39.04016">
        <ele>1214.44798</ele>
        <time>2021-11-17T05:49:48.149Z</time>
      </trkpt>
      <trkpt lat="38.54387" lon="39.04019">
        <ele>1214.45993</ele>
        <time>2021-11-17T05:49:51.055Z</time>
      </trkpt>
      <trkpt lat="38.54273" lon="39.04044">
        <ele>1214.641128</ele>
        <time>2021-11-17T05:50:17.594Z</time>
      </trkpt>
      <trkpt lat="38.54175" lon="39.04066">
        <ele>1214.906461</ele>
        <time>2021-11-17T05:50:40.516Z</time>
      </trkpt>
      <trkpt lat="38.5411" lon="39.04079">
        <ele>1215.178228</ele>
        <time>2021-11-17T05:50:56.434Z</time>
      </trkpt>
      <trkpt lat="38.53938" lon="39.04106">
        <ele>1216.414836</ele>
        <time>2021-11-17T05:51:38.517Z</time>
      </trkpt>
      <trkpt lat="38.53666" lon="39.04149">
        <ele>1219.865183</ele>
        <time>2021-11-17T05:52:55.435Z</time>
      </trkpt>
      <trkpt lat="38.53629" lon="39.04155">
        <ele>1220.246035</ele>
        <time>2021-11-17T05:53:05.263Z</time>
      </trkpt>
      <trkpt lat="38.53369" lon="39.04189">
        <ele>1223.337358</ele>
        <time>2021-11-17T05:54:13.278Z</time>
      </trkpt>
      <trkpt lat="38.53204" lon="39.04212">
        <ele>1226.309894</ele>
        <time>2021-11-17T05:55:05.520Z</time>
      </trkpt>
      <trkpt lat="38.53048" lon="39.04233">
        <ele>1227.141485</ele>
        <time>2021-11-17T05:55:48.705Z</time>
      </trkpt>
      <trkpt lat="38.52854" lon="39.04259">
        <ele>1223.734333</ele>
        <time>2021-11-17T05:56:22.206Z</time>
      </trkpt>
      <trkpt lat="38.52799" lon="39.04267">
        <ele>1222.219846</ele>
        <time>2021-11-17T05:56:30.960Z</time>
      </trkpt>
      <trkpt lat="38.52353" lon="39.04336">
        <ele>1208.660939</ele>
        <time>2021-11-17T05:57:45.295Z</time>
      </trkpt>
      <trkpt lat="38.51797" lon="39.04416">
        <ele>1189.583147</ele>
        <time>2021-11-17T05:59:15.479Z</time>
      </trkpt>
      <trkpt lat="38.51677" lon="39.04433">
        <ele>1185.58454</ele>
        <time>2021-11-17T05:59:34.288Z</time>
      </trkpt>
      <trkpt lat="38.51208" lon="39.04501">
        <ele>1174.346064</ele>
        <time>2021-11-17T06:00:56.006Z</time>
      </trkpt>
      <trkpt lat="38.51035" lon="39.04532">
        <ele>1170.599334</ele>
        <time>2021-11-17T06:01:26.585Z</time>
      </trkpt>
      <trkpt lat="38.5098" lon="39.04544">
        <ele>1169.358895</ele>
        <time>2021-11-17T06:01:36.155Z</time>
      </trkpt>
      <trkpt lat="38.50957" lon="39.04551">
        <ele>1168.809334</ele>
        <time>2021-11-17T06:01:40.155Z</time>
      </trkpt>
      <trkpt lat="38.50762" lon="39.04617">
        <ele>1164.493161</ele>
        <time>2021-11-17T06:02:14.826Z</time>
      </trkpt>
      <trkpt lat="38.50652" lon="39.04663">
        <ele>1162.598314</ele>
        <time>2021-11-17T06:02:35.513Z</time>
      </trkpt>
      <trkpt lat="38.50551" lon="39.04701">
        <ele>1163.782795</ele>
        <time>2021-11-17T06:02:59.050Z</time>
      </trkpt>
      <trkpt lat="38.50509" lon="39.04719">
        <ele>1164.278231</ele>
        <time>2021-11-17T06:03:11.849Z</time>
      </trkpt>
      <trkpt lat="38.50196" lon="39.04846">
        <ele>1180.315727</ele>
        <time>2021-11-17T06:05:31.053Z</time>
      </trkpt>
      <trkpt lat="38.50012" lon="39.04917">
        <ele>1193.031994</ele>
        <time>2021-11-17T06:07:10.044Z</time>
      </trkpt>
      <trkpt lat="38.50005" lon="39.04919">
        <ele>1193.480082</ele>
        <time>2021-11-17T06:07:14.303Z</time>
      </trkpt>
      <trkpt lat="38.49833" lon="39.04989">
        <ele>1203.41532</ele>
        <time>2021-11-17T06:08:36.423Z</time>
      </trkpt>
      <trkpt lat="38.498" lon="39.05003">
        <ele>1205.228485</ele>
        <time>2021-11-17T06:08:48.749Z</time>
      </trkpt>
      <trkpt lat="38.49723" lon="39.05037">
        <ele>1206.808556</ele>
        <time>2021-11-17T06:09:14.046Z</time>
      </trkpt>
      <trkpt lat="38.49546" lon="39.05112">
        <ele>1210.37476</ele>
        <time>2021-11-17T06:10:04.870Z</time>
      </trkpt>
      <trkpt lat="38.49542" lon="39.05114">
        <ele>1210.454346</ele>
        <time>2021-11-17T06:10:06.098Z</time>
      </trkpt>
      <trkpt lat="38.49384" lon="39.05178">
        <ele>1213.793241</ele>
        <time>2021-11-17T06:10:59.715Z</time>
      </trkpt>
      <trkpt lat="38.49197" lon="39.05231">
        <ele>1217.42388</ele>
        <time>2021-11-17T06:11:56.229Z</time>
      </trkpt>
      <trkpt lat="38.49126" lon="39.05238">
        <ele>1218.592407</ele>
        <time>2021-11-17T06:12:16.366Z</time>
      </trkpt>
      <trkpt lat="38.49065" lon="39.05236">
        <ele>1219.662514</ele>
        <time>2021-11-17T06:12:33.578Z</time>
      </trkpt>
      <trkpt lat="38.49044" lon="39.05234">
        <ele>1220.053918</ele>
        <time>2021-11-17T06:12:39.416Z</time>
      </trkpt>
      <trkpt lat="38.49038" lon="39.05233">
        <ele>1220.165471</ele>
        <time>2021-11-17T06:12:41.557Z</time>
      </trkpt>
      <trkpt lat="38.48972" lon="39.05218">
        <ele>1221.372917</ele>
        <time>2021-11-17T06:13:00.193Z</time>
      </trkpt>
      <trkpt lat="38.48824" lon="39.05161">
        <ele>1224.709676</ele>
        <time>2021-11-17T06:13:50.179Z</time>
      </trkpt>
      <trkpt lat="38.48806" lon="39.05149">
        <ele>1225.179457</ele>
        <time>2021-11-17T06:13:56.747Z</time>
      </trkpt>
      <trkpt lat="38.4877" lon="39.05124">
        <ele>1226.131408</ele>
        <time>2021-11-17T06:14:09.787Z</time>
      </trkpt>
      <trkpt lat="38.48737" lon="39.05102">
        <ele>1226.637954</ele>
        <time>2021-11-17T06:14:21.062Z</time>
      </trkpt>
      <trkpt lat="38.48403" lon="39.04878">
        <ele>1230.251378</ele>
        <time>2021-11-17T06:15:56.906Z</time>
      </trkpt>
      <trkpt lat="38.48291" lon="39.04763">
        <ele>1231.897927</ele>
        <time>2021-11-17T06:16:35.153Z</time>
      </trkpt>
      <trkpt lat="38.48203" lon="39.04636">
        <ele>1234.346072</ele>
        <time>2021-11-17T06:17:14.451Z</time>
      </trkpt>
      <trkpt lat="38.48166" lon="39.04569">
        <ele>1235.732231</ele>
        <time>2021-11-17T06:17:34.904Z</time>
      </trkpt>
      <trkpt lat="38.48112" lon="39.04445">
        <ele>1238.53719</ele>
        <time>2021-11-17T06:18:11.161Z</time>
      </trkpt>
      <trkpt lat="38.48076" lon="39.04322">
        <ele>1240.600381</ele>
        <time>2021-11-17T06:18:44.589Z</time>
      </trkpt>
      <trkpt lat="38.48069" lon="39.04301">
        <ele>1240.885604</ele>
        <time>2021-11-17T06:18:50.473Z</time>
      </trkpt>
      <trkpt lat="38.47946" lon="39.03746">
        <ele>1248.221061</ele>
        <time>2021-11-17T06:20:55.621Z</time>
      </trkpt>
      <trkpt lat="38.47937" lon="39.03702">
        <ele>1249.280449</ele>
        <time>2021-11-17T06:21:07.470Z</time>
      </trkpt>
      <trkpt lat="38.47959" lon="39.03637">
        <ele>1251.154135</ele>
        <time>2021-11-17T06:21:27.315Z</time>
      </trkpt>
      <trkpt lat="38.47971" lon="39.03597">
        <ele>1252.294155</ele>
        <time>2021-11-17T06:21:39.871Z</time>
      </trkpt>
      <trkpt lat="38.47944" lon="39.0349">
        <ele>1255.463772</ele>
        <time>2021-11-17T06:22:15.473Z</time>
      </trkpt>
      <trkpt lat="38.47924" lon="39.03393">
        <ele>1258.599148</ele>
        <time>2021-11-17T06:22:46.394Z</time>
      </trkpt>
      <trkpt lat="38.47908" lon="39.03253">
        <ele>1262.572239</ele>
        <time>2021-11-17T06:23:29.521Z</time>
      </trkpt>
      <trkpt lat="38.47897" lon="39.03215">
        <ele>1263.412401</ele>
        <time>2021-11-17T06:23:40.895Z</time>
      </trkpt>
      <trkpt lat="38.47892" lon="39.03157">
        <ele>1264.619949</ele>
        <time>2021-11-17T06:23:56.392Z</time>
      </trkpt>
      <trkpt lat="38.47891" lon="39.03148">
        <ele>1264.81596</ele>
        <time>2021-11-17T06:23:59.017Z</time>
      </trkpt>
      <trkpt lat="38.47887" lon="39.03053">
        <ele>1266.484044</ele>
        <time>2021-11-17T06:24:21.626Z</time>
      </trkpt>
      <trkpt lat="38.47873" lon="39.02972">
        <ele>1266.622145</ele>
        <time>2021-11-17T06:24:38.633Z</time>
      </trkpt>
      <trkpt lat="38.4786" lon="39.02945">
        <ele>1266.675105</ele>
        <time>2021-11-17T06:24:44.123Z</time>
      </trkpt>
      <trkpt lat="38.47845" lon="39.02902">
        <ele>1266.754256</ele>
        <time>2021-11-17T06:24:51.911Z</time>
      </trkpt>
      <trkpt lat="38.47846" lon="39.0289">
        <ele>1266.774174</ele>
        <time>2021-11-17T06:24:53.892Z</time>
      </trkpt>
      <trkpt lat="38.47819" lon="39.02812">
        <ele>1266.830091</ele>
        <time>2021-11-17T06:25:08.054Z</time>
      </trkpt>
      <trkpt lat="38.47787" lon="39.02753">
        <ele>1266.812796</ele>
        <time>2021-11-17T06:25:20.302Z</time>
      </trkpt>
      <trkpt lat="38.47746" lon="39.02771">
        <ele>1266.799429</ele>
        <time>2021-11-17T06:25:30.183Z</time>
      </trkpt>
      <trkpt lat="38.47737" lon="39.02771">
        <ele>1266.796476</ele>
        <time>2021-11-17T06:25:32.454Z</time>
      </trkpt>
      <trkpt lat="38.47667" lon="39.02436">
        <ele>1269.03279</ele>
        <time>2021-11-17T06:26:42.339Z</time>
      </trkpt>
      <trkpt lat="38.47657" lon="39.02403">
        <ele>1269.381862</ele>
        <time>2021-11-17T06:26:50.029Z</time>
      </trkpt>
      <trkpt lat="38.47626" lon="39.02265">
        <ele>1270.751018</ele>
        <time>2021-11-17T06:27:21.922Z</time>
      </trkpt>
      <trkpt lat="38.47608" lon="39.0217">
        <ele>1271.438106</ele>
        <time>2021-11-17T06:27:42.600Z</time>
      </trkpt>
      <trkpt lat="38.47599" lon="39.0211">
        <ele>1271.873383</ele>
        <time>2021-11-17T06:27:54.918Z</time>
      </trkpt>
      <trkpt lat="38.4759" lon="39.02045">
        <ele>1272.166062</ele>
        <time>2021-11-17T06:28:07.070Z</time>
      </trkpt>
      <trkpt lat="38.47584" lon="39.01909">
        <ele>1271.686772</ele>
        <time>2021-11-17T06:28:29.976Z</time>
      </trkpt>
      <trkpt lat="38.47585" lon="39.01877">
        <ele>1271.57118</ele>
        <time>2021-11-17T06:28:34.935Z</time>
      </trkpt>
      <trkpt lat="38.47586" lon="39.01737">
        <ele>1270.371841</ele>
        <time>2021-11-17T06:28:55.318Z</time>
      </trkpt>
      <trkpt lat="38.47588" lon="39.01703">
        <ele>1270.003295</ele>
        <time>2021-11-17T06:29:00.084Z</time>
      </trkpt>
      <trkpt lat="38.4759" lon="39.01634">
        <ele>1269.246291</ele>
        <time>2021-11-17T06:29:09.967Z</time>
      </trkpt>
      <trkpt lat="38.47592" lon="39.01557">
        <ele>1268.630471</ele>
        <time>2021-11-17T06:29:21.028Z</time>
      </trkpt>
      <trkpt lat="38.47597" lon="39.01369">
        <ele>1267.564066</ele>
        <time>2021-11-17T06:29:50.720Z</time>
      </trkpt>
      <trkpt lat="38.47602" lon="39.01202">
        <ele>1267.923704</ele>
        <time>2021-11-17T06:30:22.127Z</time>
      </trkpt>
      <trkpt lat="38.47606" lon="39.01058">
        <ele>1267.966031</ele>
        <time>2021-11-17T06:30:48.753Z</time>
      </trkpt>
      <trkpt lat="38.47608" lon="39.00938">
        <ele>1267.84672</ele>
        <time>2021-11-17T06:31:08.968Z</time>
      </trkpt>
      <trkpt lat="38.4761" lon="39.00853">
        <ele>1267.051056</ele>
        <time>2021-11-17T06:31:22.014Z</time>
      </trkpt>
      <trkpt lat="38.47629" lon="39.00113">
        <ele>1256.952327</ele>
        <time>2021-11-17T06:33:05.519Z</time>
      </trkpt>
      <trkpt lat="38.47632" lon="38.9998">
        <ele>1255.04932</ele>
        <time>2021-11-17T06:33:23.816Z</time>
      </trkpt>
      <trkpt lat="38.47635" lon="38.99883">
        <ele>1253.973664</ele>
        <time>2021-11-17T06:33:37.233Z</time>
      </trkpt>
      <trkpt lat="38.47639" lon="38.99736">
        <ele>1252.712925</ele>
        <time>2021-11-17T06:33:59.287Z</time>
      </trkpt>
      <trkpt lat="38.47652" lon="38.9924">
        <ele>1253.354655</ele>
        <time>2021-11-17T06:35:33.825Z</time>
      </trkpt>
      <trkpt lat="38.47654" lon="38.99149">
        <ele>1252.511799</ele>
        <time>2021-11-17T06:35:47.951Z</time>
      </trkpt>
      <trkpt lat="38.47682" lon="38.98069">
        <ele>1227.679562</ele>
        <time>2021-11-17T06:38:06.157Z</time>
      </trkpt>
      <trkpt lat="38.47689" lon="38.97954">
        <ele>1225.568568</ele>
        <time>2021-11-17T06:38:21.860Z</time>
      </trkpt>
      <trkpt lat="38.47694" lon="38.97793">
        <ele>1224.302907</ele>
        <time>2021-11-17T06:38:46.406Z</time>
      </trkpt>
      <trkpt lat="38.477" lon="38.97606">
        <ele>1222.739872</ele>
        <time>2021-11-17T06:39:17.438Z</time>
      </trkpt>
      <trkpt lat="38.47706" lon="38.97429">
        <ele>1219.698961</ele>
        <time>2021-11-17T06:39:42.368Z</time>
      </trkpt>
      <trkpt lat="38.47728" lon="38.96576">
        <ele>1186.394655</ele>
        <time>2021-11-17T06:41:22.694Z</time>
      </trkpt>
      <trkpt lat="38.47738" lon="38.96216">
        <ele>1170.50935</ele>
        <time>2021-11-17T06:42:04.308Z</time>
      </trkpt>
      <trkpt lat="38.47743" lon="38.96032">
        <ele>1163.007323</ele>
        <time>2021-11-17T06:42:26.134Z</time>
      </trkpt>
      <trkpt lat="38.47746" lon="38.95956">
        <ele>1160.100363</ele>
        <time>2021-11-17T06:42:35.114Z</time>
      </trkpt>
      <trkpt lat="38.47734" lon="38.9583">
        <ele>1155.469199</ele>
        <time>2021-11-17T06:42:50.137Z</time>
      </trkpt>
      <trkpt lat="38.47724" lon="38.95781">
        <ele>1153.914312</ele>
        <time>2021-11-17T06:42:56.226Z</time>
      </trkpt>
      <trkpt lat="38.47715" lon="38.95738">
        <ele>1152.516422</ele>
        <time>2021-11-17T06:43:01.805Z</time>
      </trkpt>
      <trkpt lat="38.47701" lon="38.95677">
        <ele>1150.585352</ele>
        <time>2021-11-17T06:43:09.623Z</time>
      </trkpt>
      <trkpt lat="38.47654" lon="38.95556">
        <ele>1147.284267</ele>
        <time>2021-11-17T06:43:27.184Z</time>
      </trkpt>
      <trkpt lat="38.47635" lon="38.95457">
        <ele>1145.063189</ele>
        <time>2021-11-17T06:43:40.861Z</time>
      </trkpt>
      <trkpt lat="38.47627" lon="38.95376">
        <ele>1142.977743</ele>
        <time>2021-11-17T06:43:51.376Z</time>
      </trkpt>
      <trkpt lat="38.47632" lon="38.95203">
        <ele>1138.089837</ele>
        <time>2021-11-17T06:44:12.885Z</time>
      </trkpt>
      <trkpt lat="38.47656" lon="38.94805">
        <ele>1124.117466</ele>
        <time>2021-11-17T06:45:00.906Z</time>
      </trkpt>
      <trkpt lat="38.47688" lon="38.94361">
        <ele>1109.076804</ele>
        <time>2021-11-17T06:45:55.030Z</time>
      </trkpt>
      <trkpt lat="38.47707" lon="38.94153">
        <ele>1101.656087</ele>
        <time>2021-11-17T06:46:20.469Z</time>
      </trkpt>
      <trkpt lat="38.47708" lon="38.94136">
        <ele>1101.054635</ele>
        <time>2021-11-17T06:46:22.415Z</time>
      </trkpt>
      <trkpt lat="38.47715" lon="38.94038">
        <ele>1097.43032</ele>
        <time>2021-11-17T06:46:34.074Z</time>
      </trkpt>
      <trkpt lat="38.47715" lon="38.93871">
        <ele>1091.240828</ele>
        <time>2021-11-17T06:46:53.660Z</time>
      </trkpt>
      <trkpt lat="38.47709" lon="38.93718">
        <ele>1087.133165</ele>
        <time>2021-11-17T06:47:12.957Z</time>
      </trkpt>
      <trkpt lat="38.47688" lon="38.93407">
        <ele>1080.77208</ele>
        <time>2021-11-17T06:47:55.481Z</time>
      </trkpt>
      <trkpt lat="38.47672" lon="38.93187">
        <ele>1074.635222</ele>
        <time>2021-11-17T06:48:23.294Z</time>
      </trkpt>
      <trkpt lat="38.47644" lon="38.92833">
        <ele>1060.791899</ele>
        <time>2021-11-17T06:49:05.136Z</time>
      </trkpt>
      <trkpt lat="38.47626" lon="38.92608">
        <ele>1051.170278</ele>
        <time>2021-11-17T06:49:31.505Z</time>
      </trkpt>
      <trkpt lat="38.47608" lon="38.92314">
        <ele>1037.865239</ele>
        <time>2021-11-17T06:50:05.708Z</time>
      </trkpt>
      <trkpt lat="38.47587" lon="38.9213">
        <ele>1030.116322</ele>
        <time>2021-11-17T06:50:26.904Z</time>
      </trkpt>
      <trkpt lat="38.4758" lon="38.92065">
        <ele>1027.613527</ele>
        <time>2021-11-17T06:50:34.820Z</time>
      </trkpt>
      <trkpt lat="38.47574" lon="38.92031">
        <ele>1026.323252</ele>
        <time>2021-11-17T06:50:38.994Z</time>
      </trkpt>
      <trkpt lat="38.47558" lon="38.91931">
        <ele>1023.799413</ele>
        <time>2021-11-17T06:50:52.330Z</time>
      </trkpt>
      <trkpt lat="38.47527" lon="38.91771">
        <ele>1020.890563</ele>
        <time>2021-11-17T06:51:15.558Z</time>
      </trkpt>
      <trkpt lat="38.47515" lon="38.91721">
        <ele>1019.488641</ele>
        <time>2021-11-17T06:51:22.581Z</time>
      </trkpt>
      <trkpt lat="38.47491" lon="38.91626">
        <ele>1016.778251</ele>
        <time>2021-11-17T06:51:35.255Z</time>
      </trkpt>
      <trkpt lat="38.47466" lon="38.91535">
        <ele>1013.907746</ele>
        <time>2021-11-17T06:51:46.889Z</time>
      </trkpt>
      <trkpt lat="38.47448" lon="38.9148">
        <ele>1011.460766</ele>
        <time>2021-11-17T06:51:53.896Z</time>
      </trkpt>
      <trkpt lat="38.47422" lon="38.91398">
        <ele>1007.855092</ele>
        <time>2021-11-17T06:52:04.272Z</time>
      </trkpt>
      <trkpt lat="38.47268" lon="38.90987">
        <ele>987.840928</ele>
        <time>2021-11-17T06:52:56.871Z</time>
      </trkpt>
      <trkpt lat="38.47107" lon="38.90555">
        <ele>971.855919</ele>
        <time>2021-11-17T06:53:54.471Z</time>
      </trkpt>
      <trkpt lat="38.4702" lon="38.90328">
        <ele>969.732476</ele>
        <time>2021-11-17T06:54:34.342Z</time>
      </trkpt>
      <trkpt lat="38.46974" lon="38.90207">
        <ele>969.968183</ele>
        <time>2021-11-17T06:55:02.195Z</time>
      </trkpt>
      <trkpt lat="38.46931" lon="38.90082">
        <ele>970.05417</ele>
        <time>2021-11-17T06:55:28.181Z</time>
      </trkpt>
      <trkpt lat="38.46861" lon="38.89893">
        <ele>966.880646</ele>
        <time>2021-11-17T06:55:56.717Z</time>
      </trkpt>
      <trkpt lat="38.46856" lon="38.8988">
        <ele>966.458803</ele>
        <time>2021-11-17T06:55:58.477Z</time>
      </trkpt>
      <trkpt lat="38.46352" lon="38.8854">
        <ele>917.472823</ele>
        <time>2021-11-17T06:58:59.472Z</time>
      </trkpt>
      <trkpt lat="38.46333" lon="38.88487">
        <ele>915.389906</ele>
        <time>2021-11-17T06:59:06.419Z</time>
      </trkpt>
      <trkpt lat="38.46303" lon="38.88394">
        <ele>911.232289</ele>
        <time>2021-11-17T06:59:18.348Z</time>
      </trkpt>
      <trkpt lat="38.46256" lon="38.88257">
        <ele>904.086824</ele>
        <time>2021-11-17T06:59:35.516Z</time>
      </trkpt>
      <trkpt lat="38.46221" lon="38.88143">
        <ele>896.580429</ele>
        <time>2021-11-17T06:59:49.028Z</time>
      </trkpt>
      <trkpt lat="38.46212" lon="38.88107">
        <ele>894.048489</ele>
        <time>2021-11-17T06:59:53.102Z</time>
      </trkpt>
      <trkpt lat="38.46176" lon="38.87952">
        <ele>883.353039</ele>
        <time>2021-11-17T07:00:10.547Z</time>
      </trkpt>
      <trkpt lat="38.46173" lon="38.8793">
        <ele>881.889185</ele>
        <time>2021-11-17T07:00:12.908Z</time>
      </trkpt>
      <trkpt lat="38.46153" lon="38.87815">
        <ele>874.210707</ele>
        <time>2021-11-17T07:00:25.897Z</time>
      </trkpt>
      <trkpt lat="38.46138" lon="38.87701">
        <ele>867.576833</ele>
        <time>2021-11-17T07:00:38.661Z</time>
      </trkpt>
      <trkpt lat="38.46123" lon="38.87519">
        <ele>858.118646</ele>
        <time>2021-11-17T07:00:59.418Z</time>
      </trkpt>
      <trkpt lat="38.46116" lon="38.87385">
        <ele>852.601931</ele>
        <time>2021-11-17T07:01:15.053Z</time>
      </trkpt>
      <trkpt lat="38.46119" lon="38.872">
        <ele>846.4516</ele>
        <time>2021-11-17T07:01:37.789Z</time>
      </trkpt>
      <trkpt lat="38.46117" lon="38.87128">
        <ele>844.312457</ele>
        <time>2021-11-17T07:01:46.940Z</time>
      </trkpt>
      <trkpt lat="38.4608" lon="38.86789">
        <ele>834.40313</ele>
        <time>2021-11-17T07:02:29.928Z</time>
      </trkpt>
      <trkpt lat="38.4606" lon="38.86689">
        <ele>831.057215</ele>
        <time>2021-11-17T07:02:42.452Z</time>
      </trkpt>
      <trkpt lat="38.4604" lon="38.86625">
        <ele>828.695797</ele>
        <time>2021-11-17T07:02:50.607Z</time>
      </trkpt>
      <trkpt lat="38.46024" lon="38.86576">
        <ele>826.651214</ele>
        <time>2021-11-17T07:02:56.929Z</time>
      </trkpt>
      <trkpt lat="38.45983" lon="38.86461">
        <ele>821.773292</ele>
        <time>2021-11-17T07:03:11.835Z</time>
      </trkpt>
      <trkpt lat="38.45931" lon="38.8631">
        <ele>816.087037</ele>
        <time>2021-11-17T07:03:31.524Z</time>
      </trkpt>
      <trkpt lat="38.45889" lon="38.86193">
        <ele>812.482707</ele>
        <time>2021-11-17T07:03:47.380Z</time>
      </trkpt>
      <trkpt lat="38.45828" lon="38.86011">
        <ele>809.326024</ele>
        <time>2021-11-17T07:04:15.950Z</time>
      </trkpt>
      <trkpt lat="38.45737" lon="38.85731">
        <ele>804.708102</ele>
        <time>2021-11-17T07:04:58.526Z</time>
      </trkpt>
      <trkpt lat="38.45733" lon="38.85714">
        <ele>804.373607</ele>
        <time>2021-11-17T07:05:00.634Z</time>
      </trkpt>
      <trkpt lat="38.4571" lon="38.85658">
        <ele>803.128297</ele>
        <time>2021-11-17T07:05:08.889Z</time>
      </trkpt>
      <trkpt lat="38.45706" lon="38.85648">
        <ele>802.906101</ele>
        <time>2021-11-17T07:05:10.342Z</time>
      </trkpt>
      <trkpt lat="38.45698" lon="38.85633">
        <ele>802.566554</ele>
        <time>2021-11-17T07:05:12.523Z</time>
      </trkpt>
      <trkpt lat="38.45596" lon="38.8543">
        <ele>798.10755</ele>
        <time>2021-11-17T07:05:45.087Z</time>
      </trkpt>
      <trkpt lat="38.45483" lon="38.85233">
        <ele>792.611384</ele>
        <time>2021-11-17T07:06:18.088Z</time>
      </trkpt>
      <trkpt lat="38.45406" lon="38.85106">
        <ele>784.188239</ele>
        <time>2021-11-17T07:06:36.210Z</time>
      </trkpt>
      <trkpt lat="38.45309" lon="38.8493">
        <ele>773.834564</ele>
        <time>2021-11-17T07:06:59.521Z</time>
      </trkpt>
      <trkpt lat="38.45278" lon="38.84881">
        <ele>771.067719</ele>
        <time>2021-11-17T07:07:07.222Z</time>
      </trkpt>
      <trkpt lat="38.45281" lon="38.84871">
        <ele>770.626952</ele>
        <time>2021-11-17T07:07:09.139Z</time>
      </trkpt>
      <trkpt lat="38.45281" lon="38.84861">
        <ele>770.18272</ele>
        <time>2021-11-17T07:07:10.558Z</time>
      </trkpt>
      <trkpt lat="38.45279" lon="38.84852">
        <ele>769.739522</ele>
        <time>2021-11-17T07:07:12.498Z</time>
      </trkpt>
      <trkpt lat="38.45274" lon="38.84844">
        <ele>769.912327</ele>
        <time>2021-11-17T07:07:14.035Z</time>
      </trkpt>
      <trkpt lat="38.45184" lon="38.84629">
        <ele>775.77949</ele>
        <time>2021-11-17T07:08:32.768Z</time>
      </trkpt>
      <trkpt lat="38.45026" lon="38.84243">
        <ele>775.36382</ele>
        <time>2021-11-17T07:09:46.309Z</time>
      </trkpt>
      <trkpt lat="38.44706" lon="38.83456">
        <ele>762.201389</ele>
        <time>2021-11-17T07:11:54.834Z</time>
      </trkpt>
      <trkpt lat="38.44448" lon="38.82841">
        <ele>751.5896</ele>
        <time>2021-11-17T07:13:35.989Z</time>
      </trkpt>
      <trkpt lat="38.44317" lon="38.82513">
        <ele>746.01637</ele>
        <time>2021-11-17T07:14:29.393Z</time>
      </trkpt>
      <trkpt lat="38.44196" lon="38.82183">
        <ele>741.27658</ele>
        <time>2021-11-17T07:15:23.207Z</time>
      </trkpt>
      <trkpt lat="38.44148" lon="38.82071">
        <ele>740.459627</ele>
        <time>2021-11-17T07:15:42.763Z</time>
      </trkpt>
      <trkpt lat="38.44102" lon="38.8194">
        <ele>739.394176</ele>
        <time>2021-11-17T07:16:06.464Z</time>
      </trkpt>
      <trkpt lat="38.43949" lon="38.81535">
        <ele>733.127822</ele>
        <time>2021-11-17T07:17:11.552Z</time>
      </trkpt>
      <trkpt lat="38.43929" lon="38.81492">
        <ele>731.17811</ele>
        <time>2021-11-17T07:17:17.487Z</time>
      </trkpt>
      <trkpt lat="38.43894" lon="38.81419">
        <ele>727.879707</ele>
        <time>2021-11-17T07:17:27.238Z</time>
      </trkpt>
      <trkpt lat="38.43843" lon="38.81344">
        <ele>723.908684</ele>
        <time>2021-11-17T07:17:38.233Z</time>
      </trkpt>
      <trkpt lat="38.43802" lon="38.81306">
        <ele>721.250357</ele>
        <time>2021-11-17T07:17:45.742Z</time>
      </trkpt>
      <trkpt lat="38.43728" lon="38.81261">
        <ele>716.983189</ele>
        <time>2021-11-17T07:17:58.561Z</time>
      </trkpt>
      <trkpt lat="38.4369" lon="38.81238">
        <ele>716.076873</ele>
        <time>2021-11-17T07:18:05.372Z</time>
      </trkpt>
      <trkpt lat="38.43602" lon="38.81184">
        <ele>714.238245</ele>
        <time>2021-11-17T07:18:21.609Z</time>
      </trkpt>
      <trkpt lat="38.43468" lon="38.81136">
        <ele>716.032947</ele>
        <time>2021-11-17T07:19:00.910Z</time>
      </trkpt>
      <trkpt lat="38.43396" lon="38.8111">
        <ele>718.074819</ele>
        <time>2021-11-17T07:19:29.118Z</time>
      </trkpt>
      <trkpt lat="38.43191" lon="38.80963">
        <ele>728.94231</ele>
        <time>2021-11-17T07:21:13.870Z</time>
      </trkpt>
      <trkpt lat="38.42949" lon="38.80814">
        <ele>733.983996</ele>
        <time>2021-11-17T07:22:26.702Z</time>
      </trkpt>
      <trkpt lat="38.42841" lon="38.80704">
        <ele>735.917502</ele>
        <time>2021-11-17T07:23:05.448Z</time>
      </trkpt>
      <trkpt lat="38.42755" lon="38.80584">
        <ele>737.485646</ele>
        <time>2021-11-17T07:23:41.886Z</time>
      </trkpt>
      <trkpt lat="38.42554" lon="38.80189">
        <ele>739.199704</ele>
        <time>2021-11-17T07:25:10.641Z</time>
      </trkpt>
      <trkpt lat="38.42378" lon="38.79829">
        <ele>739.076065</ele>
        <time>2021-11-17T07:26:20.403Z</time>
      </trkpt>
      <trkpt lat="38.42335" lon="38.79696">
        <ele>740.994519</ele>
        <time>2021-11-17T07:26:52.121Z</time>
      </trkpt>
      <trkpt lat="38.42278" lon="38.79389">
        <ele>748.384575</ele>
        <time>2021-11-17T07:28:22.744Z</time>
      </trkpt>
      <trkpt lat="38.42263" lon="38.79298">
        <ele>749.644106</ele>
        <time>2021-11-17T07:28:45.693Z</time>
      </trkpt>
      <trkpt lat="38.42248" lon="38.79205">
        <ele>750.925544</ele>
        <time>2021-11-17T07:29:06.045Z</time>
      </trkpt>
      <trkpt lat="38.4221" lon="38.78976">
        <ele>749.660411</ele>
        <time>2021-11-17T07:29:41.713Z</time>
      </trkpt>
      <trkpt lat="38.42193" lon="38.78874">
        <ele>748.477955</ele>
        <time>2021-11-17T07:29:56.406Z</time>
      </trkpt>
      <trkpt lat="38.42177" lon="38.78776">
        <ele>747.305154</ele>
        <time>2021-11-17T07:30:10.394Z</time>
      </trkpt>
      <trkpt lat="38.42149" lon="38.78596">
        <ele>746.240942</ele>
        <time>2021-11-17T07:30:38.908Z</time>
      </trkpt>
      <trkpt lat="38.42135" lon="38.78511">
        <ele>745.873708</ele>
        <time>2021-11-17T07:30:53.830Z</time>
      </trkpt>
      <trkpt lat="38.42088" lon="38.78218">
        <ele>745.42369</ele>
        <time>2021-11-17T07:31:44.684Z</time>
      </trkpt>
      <trkpt lat="38.42087" lon="38.78208">
        <ele>745.398914</ele>
        <time>2021-11-17T07:31:46.407Z</time>
      </trkpt>
      <trkpt lat="38.42083" lon="38.78185">
        <ele>745.343225</ele>
        <time>2021-11-17T07:31:50.300Z</time>
      </trkpt>
      <trkpt lat="38.42072" lon="38.78117">
        <ele>745.177972</ele>
        <time>2021-11-17T07:32:01.715Z</time>
      </trkpt>
      <trkpt lat="38.42041" lon="38.77922">
        <ele>744.423489</ele>
        <time>2021-11-17T07:32:33.499Z</time>
      </trkpt>
      <trkpt lat="38.4201" lon="38.77727">
        <ele>743.623513</ele>
        <time>2021-11-17T07:33:05.476Z</time>
      </trkpt>
      <trkpt lat="38.41974" lon="38.77537">
        <ele>743.139196</ele>
        <time>2021-11-17T07:33:37.034Z</time>
      </trkpt>
      <trkpt lat="38.41971" lon="38.77522">
        <ele>743.127884</ele>
        <time>2021-11-17T07:33:39.507Z</time>
      </trkpt>
      <trkpt lat="38.4193" lon="38.77378">
        <ele>743.216529</ele>
        <time>2021-11-17T07:34:06.700Z</time>
      </trkpt>
      <trkpt lat="38.4185" lon="38.77163">
        <ele>745.270939</ele>
        <time>2021-11-17T07:34:56.248Z</time>
      </trkpt>
      <trkpt lat="38.41724" lon="38.76923">
        <ele>748.993449</ele>
        <time>2021-11-17T07:36:04.893Z</time>
      </trkpt>
      <trkpt lat="38.41681" lon="38.76855">
        <ele>749.872765</ele>
        <time>2021-11-17T07:36:24.030Z</time>
      </trkpt>
      <trkpt lat="38.41631" lon="38.76792">
        <ele>749.963157</ele>
        <time>2021-11-17T07:36:40.249Z</time>
      </trkpt>
      <trkpt lat="38.41603" lon="38.76757">
        <ele>749.429868</ele>
        <time>2021-11-17T07:36:48.040Z</time>
      </trkpt>
      <trkpt lat="38.41543" lon="38.76681">
        <ele>748.276325</ele>
        <time>2021-11-17T07:37:03.093Z</time>
      </trkpt>
      <trkpt lat="38.41454" lon="38.76568">
        <ele>745.206287</ele>
        <time>2021-11-17T07:37:23.900Z</time>
      </trkpt>
      <trkpt lat="38.41417" lon="38.76521">
        <ele>743.798082</ele>
        <time>2021-11-17T07:37:32.528Z</time>
      </trkpt>
      <trkpt lat="38.41393" lon="38.7649">
        <ele>742.900821</ele>
        <time>2021-11-17T07:37:38.269Z</time>
      </trkpt>
      <trkpt lat="38.40977" lon="38.75949">
        <ele>729.567196</ele>
        <time>2021-11-17T07:39:20.789Z</time>
      </trkpt>
      <trkpt lat="38.40923" lon="38.75879">
        <ele>728.16377</ele>
        <time>2021-11-17T07:39:33.816Z</time>
      </trkpt>
      <trkpt lat="38.40921" lon="38.75876">
        <ele>728.120948</ele>
        <time>2021-11-17T07:39:34.149Z</time>
      </trkpt>
      <trkpt lat="38.40919" lon="38.75874">
        <ele>728.072276</ele>
        <time>2021-11-17T07:39:35.128Z</time>
      </trkpt>
      <trkpt lat="38.40898" lon="38.75846">
        <ele>727.509423</ele>
        <time>2021-11-17T07:39:40.741Z</time>
      </trkpt>
      <trkpt lat="38.40895" lon="38.75843">
        <ele>727.448518</ele>
        <time>2021-11-17T07:39:41.236Z</time>
      </trkpt>
      <trkpt lat="38.40894" lon="38.7584">
        <ele>727.40332</ele>
        <time>2021-11-17T07:39:42.548Z</time>
      </trkpt>
      <trkpt lat="38.40752" lon="38.75656">
        <ele>729.528317</ele>
        <time>2021-11-17T07:40:38.901Z</time>
      </trkpt>
      <trkpt lat="38.40725" lon="38.75619">
        <ele>729.894159</ele>
        <time>2021-11-17T07:40:50.872Z</time>
      </trkpt>
      <trkpt lat="38.40628" lon="38.75488">
        <ele>730.813347</ele>
        <time>2021-11-17T07:41:26.303Z</time>
      </trkpt>
      <trkpt lat="38.40601" lon="38.75447">
        <ele>730.527431</ele>
        <time>2021-11-17T07:41:34.446Z</time>
      </trkpt>
      <trkpt lat="38.40527" lon="38.75332">
        <ele>729.724624</ele>
        <time>2021-11-17T07:41:56.586Z</time>
      </trkpt>
      <trkpt lat="38.40426" lon="38.75148">
        <ele>728.722061</ele>
        <time>2021-11-17T07:42:31.898Z</time>
      </trkpt>
      <trkpt lat="38.40413" lon="38.75124">
        <ele>728.782184</ele>
        <time>2021-11-17T07:42:37.531Z</time>
      </trkpt>
      <trkpt lat="38.40322" lon="38.74957">
        <ele>729.311982</ele>
        <time>2021-11-17T07:43:16.700Z</time>
      </trkpt>
      <trkpt lat="38.40255" lon="38.74835">
        <ele>728.8149</ele>
        <time>2021-11-17T07:43:41.618Z</time>
      </trkpt>
      <trkpt lat="38.4015" lon="38.74638">
        <ele>727.579657</ele>
        <time>2021-11-17T07:44:17.671Z</time>
      </trkpt>
      <trkpt lat="38.40026" lon="38.74404">
        <ele>726.514537</ele>
        <time>2021-11-17T07:45:04.261Z</time>
      </trkpt>
      <trkpt lat="38.39955" lon="38.7427">
        <ele>725.6177</ele>
        <time>2021-11-17T07:45:29.810Z</time>
      </trkpt>
      <trkpt lat="38.39861" lon="38.74093">
        <ele>724.297132</ele>
        <time>2021-11-17T07:46:02.209Z</time>
      </trkpt>
      <trkpt lat="38.39814" lon="38.74005">
        <ele>723.650577</ele>
        <time>2021-11-17T07:46:18.814Z</time>
      </trkpt>
      <trkpt lat="38.39547" lon="38.73503">
        <ele>723.053843</ele>
        <time>2021-11-17T07:48:02.628Z</time>
      </trkpt>
      <trkpt lat="38.39314" lon="38.73066">
        <ele>723.130475</ele>
        <time>2021-11-17T07:49:34.947Z</time>
      </trkpt>
      <trkpt lat="38.3931" lon="38.73057">
        <ele>723.137668</ele>
        <time>2021-11-17T07:49:37.047Z</time>
      </trkpt>
      <trkpt lat="38.38965" lon="38.72404">
        <ele>723.775048</ele>
        <time>2021-11-17T07:51:58.480Z</time>
      </trkpt>
      <trkpt lat="38.38889" lon="38.72233">
        <ele>723.089778</ele>
        <time>2021-11-17T07:52:29.038Z</time>
      </trkpt>
      <trkpt lat="38.38871" lon="38.72182">
        <ele>722.819927</ele>
        <time>2021-11-17T07:52:37.691Z</time>
      </trkpt>
      <trkpt lat="38.38844" lon="38.72095">
        <ele>722.365491</ele>
        <time>2021-11-17T07:52:52.696Z</time>
      </trkpt>
      <trkpt lat="38.3881" lon="38.71986">
        <ele>722.020625</ele>
        <time>2021-11-17T07:53:12.358Z</time>
      </trkpt>
      <trkpt lat="38.38756" lon="38.71723">
        <ele>721.252836</ele>
        <time>2021-11-17T07:53:57.344Z</time>
      </trkpt>
      <trkpt lat="38.38739" lon="38.71584">
        <ele>720.925329</ele>
        <time>2021-11-17T07:54:19.861Z</time>
      </trkpt>
      <trkpt lat="38.3873" lon="38.71441">
        <ele>720.694966</ele>
        <time>2021-11-17T07:54:43.927Z</time>
      </trkpt>
      <trkpt lat="38.3873" lon="38.71378">
        <ele>720.818835</ele>
        <time>2021-11-17T07:54:55.356Z</time>
      </trkpt>
      <trkpt lat="38.38727" lon="38.71068">
        <ele>722.203642</ele>
        <time>2021-11-17T07:55:55.949Z</time>
      </trkpt>
      <trkpt lat="38.38728" lon="38.70279">
        <ele>725.124331</ele>
        <time>2021-11-17T07:58:25.709Z</time>
      </trkpt>
      <trkpt lat="38.38729" lon="38.69958">
        <ele>724.398407</ele>
        <time>2021-11-17T07:59:19.799Z</time>
      </trkpt>
      <trkpt lat="38.3873" lon="38.69379">
        <ele>720.895933</ele>
        <time>2021-11-17T08:00:47.736Z</time>
      </trkpt>
      <trkpt lat="38.3873" lon="38.69367">
        <ele>720.827788</ele>
        <time>2021-11-17T08:00:49.718Z</time>
      </trkpt>
      <trkpt lat="38.3873" lon="38.69344">
        <ele>720.780815</ele>
        <time>2021-11-17T08:00:53.745Z</time>
      </trkpt>
      <trkpt lat="38.38734" lon="38.68318">
        <ele>727.881871</ele>
        <time>2021-11-17T08:04:21.101Z</time>
      </trkpt>
      <trkpt lat="38.38736" lon="38.679">
        <ele>732.412818</ele>
        <time>2021-11-17T08:05:54.185Z</time>
      </trkpt>
      <trkpt lat="38.38736" lon="38.67853">
        <ele>732.861724</ele>
        <time>2021-11-17T08:06:04.214Z</time>
      </trkpt>
      <trkpt lat="38.38737" lon="38.67612">
        <ele>734.988064</ele>
        <time>2021-11-17T08:06:53.942Z</time>
      </trkpt>
      <trkpt lat="38.38738" lon="38.6708">
        <ele>739.223122</ele>
        <time>2021-11-17T08:08:44.057Z</time>
      </trkpt>
      <trkpt lat="38.38738" lon="38.67043">
        <ele>739.490657</ele>
        <time>2021-11-17T08:08:51.240Z</time>
      </trkpt>
      <trkpt lat="38.38739" lon="38.66537">
        <ele>743.809954</ele>
        <time>2021-11-17T08:10:32.417Z</time>
      </trkpt>
      <trkpt lat="38.38739" lon="38.65965">
        <ele>756.762749</ele>
        <time>2021-11-17T08:13:07.635Z</time>
      </trkpt>
      <trkpt lat="38.38733" lon="38.65805">
        <ele>761.112492</ele>
        <time>2021-11-17T08:13:52.948Z</time>
      </trkpt>
      <trkpt lat="38.38732" lon="38.65789">
        <ele>761.578453</ele>
        <time>2021-11-17T08:13:57.990Z</time>
      </trkpt>
      <trkpt lat="38.38727" lon="38.65713">
        <ele>763.711797</ele>
        <time>2021-11-17T08:14:19.577Z</time>
      </trkpt>
      <trkpt lat="38.38417" lon="38.63479">
        <ele>832.583809</ele>
        <time>2021-11-17T08:25:31.970Z</time>
      </trkpt>
      <trkpt lat="38.38377" lon="38.63212">
        <ele>839.810053</ele>
        <time>2021-11-17T08:26:48.160Z</time>
      </trkpt>
      <trkpt lat="38.3834" lon="38.63001">
        <ele>844.737306</ele>
        <time>2021-11-17T08:27:45.982Z</time>
      </trkpt>
      <trkpt lat="38.38302" lon="38.62833">
        <ele>848.019221</ele>
        <time>2021-11-17T08:28:28.634Z</time>
      </trkpt>
      <trkpt lat="38.38247" lon="38.62636">
        <ele>852.055487</ele>
        <time>2021-11-17T08:29:20.205Z</time>
      </trkpt>
      <trkpt lat="38.38132" lon="38.623">
        <ele>858.398778</ele>
        <time>2021-11-17T08:30:57.466Z</time>
      </trkpt>
      <trkpt lat="38.37375" lon="38.60498">
        <ele>829.739591</ele>
        <time>2021-11-17T08:35:42.544Z</time>
      </trkpt>
      <trkpt lat="38.37286" lon="38.60324">
        <ele>823.152264</ele>
        <time>2021-11-17T08:36:07.719Z</time>
      </trkpt>
      <trkpt lat="38.37253" lon="38.6026">
        <ele>820.95973</ele>
        <time>2021-11-17T08:36:16.921Z</time>
      </trkpt>
      <trkpt lat="38.36766" lon="38.59315">
        <ele>789.492958</ele>
        <time>2021-11-17T08:38:39.191Z</time>
      </trkpt>
      <trkpt lat="38.36705" lon="38.59188">
        <ele>785.64525</ele>
        <time>2021-11-17T08:38:58.120Z</time>
      </trkpt>
      <trkpt lat="38.36636" lon="38.58972">
        <ele>779.701837</ele>
        <time>2021-11-17T08:39:28.092Z</time>
      </trkpt>
      <trkpt lat="38.36612" lon="38.58837">
        <ele>775.669036</ele>
        <time>2021-11-17T08:39:45.532Z</time>
      </trkpt>
      <trkpt lat="38.36602" lon="38.58722">
        <ele>772.215207</ele>
        <time>2021-11-17T08:39:59.577Z</time>
      </trkpt>
      <trkpt lat="38.36592" lon="38.58378">
        <ele>764.414817</ele>
        <time>2021-11-17T08:40:41.730Z</time>
      </trkpt>
      <trkpt lat="38.3659" lon="38.58279">
        <ele>764.131088</ele>
        <time>2021-11-17T08:41:03.086Z</time>
      </trkpt>
      <trkpt lat="38.36584" lon="38.58001">
        <ele>778.39746</ele>
        <time>2021-11-17T08:42:55.638Z</time>
      </trkpt>
      <trkpt lat="38.36577" lon="38.57871">
        <ele>786.53401</ele>
        <time>2021-11-17T08:43:53.792Z</time>
      </trkpt>
      <trkpt lat="38.36558" lon="38.5777">
        <ele>792.547654</ele>
        <time>2021-11-17T08:44:36.511Z</time>
      </trkpt>
      <trkpt lat="38.3653" lon="38.57664">
        <ele>798.120967</ele>
        <time>2021-11-17T08:45:18.986Z</time>
      </trkpt>
      <trkpt lat="38.3633" lon="38.5708">
        <ele>824.773611</ele>
        <time>2021-11-17T08:48:57.114Z</time>
      </trkpt>
      <trkpt lat="38.36287" lon="38.56968">
        <ele>829.083463</ele>
        <time>2021-11-17T08:49:34.933Z</time>
      </trkpt>
      <trkpt lat="38.3621" lon="38.5681">
        <ele>832.702761</ele>
        <time>2021-11-17T08:50:22.070Z</time>
      </trkpt>
      <trkpt lat="38.3605" lon="38.56515">
        <ele>837.88664</ele>
        <time>2021-11-17T08:51:39.864Z</time>
      </trkpt>
      <trkpt lat="38.3603" lon="38.56479">
        <ele>838.85387</ele>
        <time>2021-11-17T08:51:51.517Z</time>
      </trkpt>
      <trkpt lat="38.35975" lon="38.56369">
        <ele>841.976186</ele>
        <time>2021-11-17T08:52:28.985Z</time>
      </trkpt>
      <trkpt lat="38.35933" lon="38.56261">
        <ele>846.254357</ele>
        <time>2021-11-17T08:53:07.202Z</time>
      </trkpt>
      <trkpt lat="38.35787" lon="38.55719">
        <ele>868.52673</ele>
        <time>2021-11-17T08:56:17.458Z</time>
      </trkpt>
      <trkpt lat="38.35771" lon="38.55682">
        <ele>870.212038</ele>
        <time>2021-11-17T08:56:31.742Z</time>
      </trkpt>
      <trkpt lat="38.35746" lon="38.55622">
        <ele>872.896137</ele>
        <time>2021-11-17T08:56:54.294Z</time>
      </trkpt>
      <trkpt lat="38.35696" lon="38.55536">
        <ele>877.177084</ele>
        <time>2021-11-17T08:57:30.569Z</time>
      </trkpt>
      <trkpt lat="38.35648" lon="38.55477">
        <ele>880.456012</ele>
        <time>2021-11-17T08:57:57.650Z</time>
      </trkpt>
      <trkpt lat="38.3545" lon="38.55309">
        <ele>892.447737</ele>
        <time>2021-11-17T08:59:38.561Z</time>
      </trkpt>
      <trkpt lat="38.35338" lon="38.55206">
        <ele>899.674045</ele>
        <time>2021-11-17T09:00:38.650Z</time>
      </trkpt>
      <trkpt lat="38.35244" lon="38.55104">
        <ele>906.130435</ele>
        <time>2021-11-17T09:01:32.432Z</time>
      </trkpt>
      <trkpt lat="38.35164" lon="38.55005">
        <ele>911.719947</ele>
        <time>2021-11-17T09:02:19.568Z</time>
      </trkpt>
      <trkpt lat="38.35082" lon="38.54893">
        <ele>917.617844</ele>
        <time>2021-11-17T09:03:08.968Z</time>
      </trkpt>
      <trkpt lat="38.35003" lon="38.54771">
        <ele>923.867984</ele>
        <time>2021-11-17T09:04:01.327Z</time>
      </trkpt>
      <trkpt lat="38.34912" lon="38.54593">
        <ele>932.898044</ele>
        <time>2021-11-17T09:05:14.953Z</time>
      </trkpt>
      <trkpt lat="38.34595" lon="38.53818">
        <ele>972.227014</ele>
        <time>2021-11-17T09:10:25.128Z</time>
      </trkpt>
      <trkpt lat="38.34498" lon="38.53615">
        <ele>983.033589</ele>
        <time>2021-11-17T09:11:50.176Z</time>
      </trkpt>
      <trkpt lat="38.34433" lon="38.53506">
        <ele>989.145682</ele>
        <time>2021-11-17T09:12:38.104Z</time>
      </trkpt>
      <trkpt lat="38.34361" lon="38.534">
        <ele>995.577339</ele>
        <time>2021-11-17T09:13:27.275Z</time>
      </trkpt>
      <trkpt lat="38.33618" lon="38.52362">
        <ele>1065.97765</ele>
        <time>2021-11-17T09:22:12.573Z</time>
      </trkpt>
      <trkpt lat="38.33518" lon="38.52234">
        <ele>1076.733767</ele>
        <time>2021-11-17T09:23:30.592Z</time>
      </trkpt>
      <trkpt lat="38.33435" lon="38.52142">
        <ele>1085.184692</ele>
        <time>2021-11-17T09:24:32.387Z</time>
      </trkpt>
      <trkpt lat="38.33249" lon="38.5197">
        <ele>1098.988238</ele>
        <time>2021-11-17T09:26:19.579Z</time>
      </trkpt>
      <trkpt lat="38.33198" lon="38.5191">
        <ele>1098.980633</ele>
        <time>2021-11-17T09:26:38.947Z</time>
      </trkpt>
      <trkpt lat="38.3315" lon="38.51839">
        <ele>1098.853742</ele>
        <time>2021-11-17T09:26:53.016Z</time>
      </trkpt>
      <trkpt lat="38.33117" lon="38.51772">
        <ele>1097.826045</ele>
        <time>2021-11-17T09:27:03.133Z</time>
      </trkpt>
      <trkpt lat="38.33092" lon="38.51691">
        <ele>1094.917878</ele>
        <time>2021-11-17T09:27:13.834Z</time>
      </trkpt>
      <trkpt lat="38.33075" lon="38.51612">
        <ele>1092.212725</ele>
        <time>2021-11-17T09:27:23.663Z</time>
      </trkpt>
      <trkpt lat="38.33068" lon="38.51526">
        <ele>1088.864111</ele>
        <time>2021-11-17T09:27:33.787Z</time>
      </trkpt>
      <trkpt lat="38.33072" lon="38.51442">
        <ele>1085.283203</ele>
        <time>2021-11-17T09:27:43.708Z</time>
      </trkpt>
      <trkpt lat="38.33076" lon="38.51419">
        <ele>1084.318337</ele>
        <time>2021-11-17T09:27:46.341Z</time>
      </trkpt>
      <trkpt lat="38.33086" lon="38.51359">
        <ele>1081.726561</ele>
        <time>2021-11-17T09:27:53.522Z</time>
      </trkpt>
      <trkpt lat="38.33199" lon="38.50797">
        <ele>1056.336906</ele>
        <time>2021-11-17T09:29:01.384Z</time>
      </trkpt>
      <trkpt lat="38.33205" lon="38.50756">
        <ele>1054.369027</ele>
        <time>2021-11-17T09:29:06.133Z</time>
      </trkpt>
      <trkpt lat="38.33228" lon="38.50601">
        <ele>1045.906614</ele>
        <time>2021-11-17T09:29:23.905Z</time>
      </trkpt>
      <trkpt lat="38.3324" lon="38.50446">
        <ele>1036.785226</ele>
        <time>2021-11-17T09:29:41.050Z</time>
      </trkpt>
      <trkpt lat="38.33246" lon="38.50252">
        <ele>1025.071671</ele>
        <time>2021-11-17T09:30:02.446Z</time>
      </trkpt>
      <trkpt lat="38.33241" lon="38.49932">
        <ele>1009.133198</ele>
        <time>2021-11-17T09:30:38.748Z</time>
      </trkpt>
      <trkpt lat="38.33233" lon="38.49593">
        <ele>998.061851</ele>
        <time>2021-11-17T09:31:20.783Z</time>
      </trkpt>
      <trkpt lat="38.33232" lon="38.49505">
        <ele>995.779184</ele>
        <time>2021-11-17T09:31:31.947Z</time>
      </trkpt>
      <trkpt lat="38.33228" lon="38.49346">
        <ele>992.170842</ele>
        <time>2021-11-17T09:31:52.800Z</time>
      </trkpt>
      <trkpt lat="38.33219" lon="38.488">
        <ele>979.805338</ele>
        <time>2021-11-17T09:33:04.686Z</time>
      </trkpt>
      <trkpt lat="38.33219" lon="38.48784">
        <ele>979.275861</ele>
        <time>2021-11-17T09:33:06.445Z</time>
      </trkpt>
      <trkpt lat="38.33226" lon="38.48637">
        <ele>974.428636</ele>
        <time>2021-11-17T09:33:24.067Z</time>
      </trkpt>
      <trkpt lat="38.33226" lon="38.4861">
        <ele>973.731912</ele>
        <time>2021-11-17T09:33:27.251Z</time>
      </trkpt>
      <trkpt lat="38.33209" lon="38.4783">
        <ele>958.513329</ele>
        <time>2021-11-17T09:35:11.185Z</time>
      </trkpt>
      <trkpt lat="38.33215" lon="38.47183">
        <ele>949.486892</ele>
        <time>2021-11-17T09:36:45.367Z</time>
      </trkpt>
      <trkpt lat="38.33222" lon="38.46451">
        <ele>929.714473</ele>
        <time>2021-11-17T09:38:15.699Z</time>
      </trkpt>
      <trkpt lat="38.33224" lon="38.46389">
        <ele>928.588712</ele>
        <time>2021-11-17T09:38:24.805Z</time>
      </trkpt>
      <trkpt lat="38.3324" lon="38.45957">
        <ele>927.293989</ele>
        <time>2021-11-17T09:39:39.861Z</time>
      </trkpt>
      <trkpt lat="38.33248" lon="38.45832">
        <ele>926.884045</ele>
        <time>2021-11-17T09:40:00.391Z</time>
      </trkpt>
      <trkpt lat="38.33263" lon="38.4572">
        <ele>926.11833</ele>
        <time>2021-11-17T09:40:17.694Z</time>
      </trkpt>
      <trkpt lat="38.33276" lon="38.45658">
        <ele>925.686797</ele>
        <time>2021-11-17T09:40:27.297Z</time>
      </trkpt>
      <trkpt lat="38.33297" lon="38.45611">
        <ele>925.353106</ele>
        <time>2021-11-17T09:40:35.413Z</time>
      </trkpt>
      <trkpt lat="38.33384" lon="38.45305">
        <ele>924.013482</ele>
        <time>2021-11-17T09:41:26.667Z</time>
      </trkpt>
      <trkpt lat="38.3339" lon="38.45284">
        <ele>923.977753</ele>
        <time>2021-11-17T09:41:30.593Z</time>
      </trkpt>
      <trkpt lat="38.33399" lon="38.45251">
        <ele>923.921461</ele>
        <time>2021-11-17T09:41:37.535Z</time>
      </trkpt>
      <trkpt lat="38.33443" lon="38.45098">
        <ele>924.545272</ele>
        <time>2021-11-17T09:42:08.849Z</time>
      </trkpt>
      <trkpt lat="38.33444" lon="38.45095">
        <ele>924.563624</ele>
        <time>2021-11-17T09:42:10.020Z</time>
      </trkpt>
      <trkpt lat="38.33489" lon="38.44947">
        <ele>925.041422</ele>
        <time>2021-11-17T09:42:40.616Z</time>
      </trkpt>
      <trkpt lat="38.33495" lon="38.44925">
        <ele>925.044746</ele>
        <time>2021-11-17T09:42:45.128Z</time>
      </trkpt>
      <trkpt lat="38.33532" lon="38.448">
        <ele>925.063149</ele>
        <time>2021-11-17T09:43:07.149Z</time>
      </trkpt>
      <trkpt lat="38.33579" lon="38.4464">
        <ele>924.597366</ele>
        <time>2021-11-17T09:43:35.191Z</time>
      </trkpt>
      <trkpt lat="38.33615" lon="38.44517">
        <ele>924.352853</ele>
        <time>2021-11-17T09:43:56.645Z</time>
      </trkpt>
      <trkpt lat="38.33647" lon="38.44379">
        <ele>924.221028</ele>
        <time>2021-11-17T09:44:21.601Z</time>
      </trkpt>
      <trkpt lat="38.33657" lon="38.44339">
        <ele>924.250206</ele>
        <time>2021-11-17T09:44:29.002Z</time>
      </trkpt>
      <trkpt lat="38.33657" lon="38.44336">
        <ele>924.257249</ele>
        <time>2021-11-17T09:44:29.681Z</time>
      </trkpt>
      <trkpt lat="38.33777" lon="38.43849">
        <ele>925.352542</ele>
        <time>2021-11-17T09:46:03.642Z</time>
      </trkpt>
      <trkpt lat="38.33844" lon="38.43589">
        <ele>925.645641</ele>
        <time>2021-11-17T09:46:52.719Z</time>
      </trkpt>
      <trkpt lat="38.33874" lon="38.43493">
        <ele>925.665551</ele>
        <time>2021-11-17T09:47:10.524Z</time>
      </trkpt>
      <trkpt lat="38.33885" lon="38.4346">
        <ele>925.561634</ele>
        <time>2021-11-17T09:47:16.616Z</time>
      </trkpt>
      <trkpt lat="38.33948" lon="38.43194">
        <ele>924.264175</ele>
        <time>2021-11-17T09:48:01.494Z</time>
      </trkpt>
      <trkpt lat="38.33953" lon="38.43175">
        <ele>924.102529</ele>
        <time>2021-11-17T09:48:04.571Z</time>
      </trkpt>
      <trkpt lat="38.3397" lon="38.43111">
        <ele>923.555107</ele>
        <time>2021-11-17T09:48:14.747Z</time>
      </trkpt>
      <trkpt lat="38.34031" lon="38.4289">
        <ele>920.703767</ele>
        <time>2021-11-17T09:48:47.830Z</time>
      </trkpt>
      <trkpt lat="38.3405" lon="38.42834">
        <ele>919.856673</ele>
        <time>2021-11-17T09:48:56.386Z</time>
      </trkpt>
      <trkpt lat="38.34063" lon="38.42794">
        <ele>919.199601</ele>
        <time>2021-11-17T09:49:02.363Z</time>
      </trkpt>
      <trkpt lat="38.34067" lon="38.42774">
        <ele>918.890325</ele>
        <time>2021-11-17T09:49:05.196Z</time>
      </trkpt>
      <trkpt lat="38.34083" lon="38.42687">
        <ele>917.531028</ele>
        <time>2021-11-17T09:49:17.460Z</time>
      </trkpt>
      <trkpt lat="38.34107" lon="38.42595">
        <ele>916.21812</ele>
        <time>2021-11-17T09:49:30.961Z</time>
      </trkpt>
      <trkpt lat="38.34135" lon="38.42482">
        <ele>915.184267</ele>
        <time>2021-11-17T09:49:47.733Z</time>
      </trkpt>
      <trkpt lat="38.34175" lon="38.42316">
        <ele>915.01089</ele>
        <time>2021-11-17T09:50:17.169Z</time>
      </trkpt>
      <trkpt lat="38.34188" lon="38.42262">
        <ele>915.384628</ele>
        <time>2021-11-17T09:50:28.590Z</time>
      </trkpt>
      <trkpt lat="38.34197" lon="38.42228">
        <ele>915.61686</ele>
        <time>2021-11-17T09:50:36.063Z</time>
      </trkpt>
      <trkpt lat="38.34241" lon="38.42057">
        <ele>919.100109</ele>
        <time>2021-11-17T09:51:20.449Z</time>
      </trkpt>
      <trkpt lat="38.34291" lon="38.41861">
        <ele>926.212455</ele>
        <time>2021-11-17T09:52:23.554Z</time>
      </trkpt>
      <trkpt lat="38.3436" lon="38.41589">
        <ele>939.55285</ele>
        <time>2021-11-17T09:54:15.723Z</time>
      </trkpt>
      <trkpt lat="38.34515" lon="38.40976">
        <ele>962.979732</ele>
        <time>2021-11-17T09:57:39.154Z</time>
      </trkpt>
      <trkpt lat="38.3452" lon="38.40957">
        <ele>963.631432</ele>
        <time>2021-11-17T09:57:46.133Z</time>
      </trkpt>
      <trkpt lat="38.34538" lon="38.40889">
        <ele>965.963843</ele>
        <time>2021-11-17T09:58:07.215Z</time>
      </trkpt>
      <trkpt lat="38.34589" lon="38.40702">
        <ele>969.827044</ele>
        <time>2021-11-17T09:58:59.828Z</time>
      </trkpt>
      <trkpt lat="38.3464" lon="38.40477">
        <ele>971.038083</ele>
        <time>2021-11-17T09:59:42.880Z</time>
      </trkpt>
      <trkpt lat="38.34652" lon="38.40421">
        <ele>971.126654</ele>
        <time>2021-11-17T09:59:52.101Z</time>
      </trkpt>
      <trkpt lat="38.34666" lon="38.40337">
        <ele>971.195433</ele>
        <time>2021-11-17T10:00:06.336Z</time>
      </trkpt>
      <trkpt lat="38.34682" lon="38.40238">
        <ele>971.276726</ele>
        <time>2021-11-17T10:00:24.199Z</time>
      </trkpt>
      <trkpt lat="38.34692" lon="38.40173">
        <ele>971.871209</ele>
        <time>2021-11-17T10:00:37.293Z</time>
      </trkpt>
      <trkpt lat="38.34694" lon="38.40155">
        <ele>972.145427</ele>
        <time>2021-11-17T10:00:41.096Z</time>
      </trkpt>
      <trkpt lat="38.34719" lon="38.39961">
        <ele>975.349251</ele>
        <time>2021-11-17T10:01:29.209Z</time>
      </trkpt>
      <trkpt lat="38.34745" lon="38.39755">
        <ele>980.738055</ele>
        <time>2021-11-17T10:02:28.148Z</time>
      </trkpt>
      <trkpt lat="38.34764" lon="38.39609">
        <ele>985.434228</ele>
        <time>2021-11-17T10:03:12.302Z</time>
      </trkpt>
      <trkpt lat="38.34795" lon="38.39382">
        <ele>993.413525</ele>
        <time>2021-11-17T10:04:24.619Z</time>
      </trkpt>
      <trkpt lat="38.34817" lon="38.39301">
        <ele>996.519279</ele>
        <time>2021-11-17T10:04:52.944Z</time>
      </trkpt>
      <trkpt lat="38.34916" lon="38.38997">
        <ele>1009.038924</ele>
        <time>2021-11-17T10:06:41.605Z</time>
      </trkpt>
      <trkpt lat="38.34946" lon="38.38865">
        <ele>1013.820971</ele>
        <time>2021-11-17T10:07:24.966Z</time>
      </trkpt>
      <trkpt lat="38.34953" lon="38.38806">
        <ele>1015.225452</ele>
        <time>2021-11-17T10:07:41.930Z</time>
      </trkpt>
      <trkpt lat="38.34953" lon="38.388">
        <ele>1015.369913</ele>
        <time>2021-11-17T10:07:44.173Z</time>
      </trkpt>
      <trkpt lat="38.34954" lon="38.38789">
        <ele>1015.628011</ele>
        <time>2021-11-17T10:07:46.906Z</time>
      </trkpt>
      <trkpt lat="38.34956" lon="38.38751">
        <ele>1016.520411</ele>
        <time>2021-11-17T10:07:57.369Z</time>
      </trkpt>
      <trkpt lat="38.34956" lon="38.38718">
        <ele>1017.296844</ele>
        <time>2021-11-17T10:08:05.378Z</time>
      </trkpt>
      <trkpt lat="38.34956" lon="38.38665">
        <ele>1018.552352</ele>
        <time>2021-11-17T10:08:18.498Z</time>
      </trkpt>
      <trkpt lat="38.34946" lon="38.38551">
        <ele>1020.320216</ele>
        <time>2021-11-17T10:08:44.669Z</time>
      </trkpt>
      <trkpt lat="38.34938" lon="38.38501">
        <ele>1021.056788</ele>
        <time>2021-11-17T10:08:55.572Z</time>
      </trkpt>
      <trkpt lat="38.34929" lon="38.38453">
        <ele>1021.758684</ele>
        <time>2021-11-17T10:09:06.446Z</time>
      </trkpt>
      <trkpt lat="38.34896" lon="38.38208">
        <ele>1026.783072</ele>
        <time>2021-11-17T10:10:11.357Z</time>
      </trkpt>
      <trkpt lat="38.34889" lon="38.37979">
        <ele>1031.18688</ele>
        <time>2021-11-17T10:11:10.625Z</time>
      </trkpt>
      <trkpt lat="38.3489" lon="38.3792">
        <ele>1031.372796</ele>
        <time>2021-11-17T10:11:22.953Z</time>
      </trkpt>
      <trkpt lat="38.34891" lon="38.37867">
        <ele>1031.432433</ele>
        <time>2021-11-17T10:11:33.232Z</time>
      </trkpt>
      <trkpt lat="38.34892" lon="38.37771">
        <ele>1031.539202</ele>
        <time>2021-11-17T10:11:48.757Z</time>
      </trkpt>
      <trkpt lat="38.34903" lon="38.37591">
        <ele>1030.223157</ele>
        <time>2021-11-17T10:12:15.023Z</time>
      </trkpt>
      <trkpt lat="38.34904" lon="38.37568">
        <ele>1030.020922</ele>
        <time>2021-11-17T10:12:18.164Z</time>
      </trkpt>
      <trkpt lat="38.34896" lon="38.37472">
        <ele>1029.502265</ele>
        <time>2021-11-17T10:12:33.632Z</time>
      </trkpt>
      <trkpt lat="38.34896" lon="38.37459">
        <ele>1029.491386</ele>
        <time>2021-11-17T10:12:36.157Z</time>
      </trkpt>
      <trkpt lat="38.34894" lon="38.3743">
        <ele>1029.465231</ele>
        <time>2021-11-17T10:12:40.698Z</time>
      </trkpt>
      <trkpt lat="38.34893" lon="38.37419">
        <ele>1029.455265</ele>
        <time>2021-11-17T10:12:43.060Z</time>
      </trkpt>
      <trkpt lat="38.34892" lon="38.37402">
        <ele>1029.439953</ele>
        <time>2021-11-17T10:12:46.258Z</time>
      </trkpt>
      <trkpt lat="38.34891" lon="38.3737">
        <ele>1029.41169</ele>
        <time>2021-11-17T10:12:51.944Z</time>
      </trkpt>
      <trkpt lat="38.34892" lon="38.37134">
        <ele>1029.128285</ele>
        <time>2021-11-17T10:13:33.371Z</time>
      </trkpt>
      <trkpt lat="38.34893" lon="38.3703">
        <ele>1028.984937</ele>
        <time>2021-11-17T10:13:49.414Z</time>
      </trkpt>
      <trkpt lat="38.34895" lon="38.36644">
        <ele>1028.956778</ele>
        <time>2021-11-17T10:14:56.108Z</time>
      </trkpt>
      <trkpt lat="38.34902" lon="38.36535">
        <ele>1029.443584</ele>
        <time>2021-11-17T10:15:18.356Z</time>
      </trkpt>
      <trkpt lat="38.34903" lon="38.36513">
        <ele>1029.592743</ele>
        <time>2021-11-17T10:15:23.051Z</time>
      </trkpt>
      <trkpt lat="38.34905" lon="38.36508">
        <ele>1029.628082</ele>
        <time>2021-11-17T10:15:24.251Z</time>
      </trkpt>
      <trkpt lat="38.34904" lon="38.36492">
        <ele>1029.733553</ele>
        <time>2021-11-17T10:15:27.290Z</time>
      </trkpt>
      <trkpt lat="38.34902" lon="38.36488">
        <ele>1029.768689</ele>
        <time>2021-11-17T10:15:28.403Z</time>
      </trkpt>
      <trkpt lat="38.34901" lon="38.36461">
        <ele>1029.948091</ele>
        <time>2021-11-17T10:15:34.118Z</time>
      </trkpt>
      <trkpt lat="38.34901" lon="38.36359">
        <ele>1030.586775</ele>
        <time>2021-11-17T10:15:55.089Z</time>
      </trkpt>
      <trkpt lat="38.34926" lon="38.35968">
        <ele>1030.182846</ele>
        <time>2021-11-17T10:17:05.231Z</time>
      </trkpt>
      <trkpt lat="38.34932" lon="38.35852">
        <ele>1027.962301</ele>
        <time>2021-11-17T10:17:20.550Z</time>
      </trkpt>
      <trkpt lat="38.34937" lon="38.35752">
        <ele>1024.716911</ele>
        <time>2021-11-17T10:17:32.864Z</time>
      </trkpt>
      <trkpt lat="38.34947" lon="38.35587">
        <ele>1018.417786</ele>
        <time>2021-11-17T10:17:52.129Z</time>
      </trkpt>
      <trkpt lat="38.34964" lon="38.35476">
        <ele>1013.653351</ele>
        <time>2021-11-17T10:18:05.221Z</time>
      </trkpt>
      <trkpt lat="38.34994" lon="38.35315">
        <ele>1008.294831</ele>
        <time>2021-11-17T10:18:24.990Z</time>
      </trkpt>
      <trkpt lat="38.35072" lon="38.34894">
        <ele>1000.318104</ele>
        <time>2021-11-17T10:19:22.565Z</time>
      </trkpt>
      <trkpt lat="38.35076" lon="38.34875">
        <ele>1000.178771</ele>
        <time>2021-11-17T10:19:26.365Z</time>
      </trkpt>
      <trkpt lat="38.35077" lon="38.34873">
        <ele>1000.159437</ele>
        <time>2021-11-17T10:19:26.846Z</time>
      </trkpt>
      <trkpt lat="38.3508" lon="38.34869">
        <ele>1000.123409</ele>
        <time>2021-11-17T10:19:27.969Z</time>
      </trkpt>
      <trkpt lat="38.35082" lon="38.34864">
        <ele>1000.086741</ele>
        <time>2021-11-17T10:19:28.988Z</time>
      </trkpt>
      <trkpt lat="38.35083" lon="38.34859">
        <ele>1000.050729</ele>
        <time>2021-11-17T10:19:30.059Z</time>
      </trkpt>
      <trkpt lat="38.35082" lon="38.34849">
        <ele>999.978472</ele>
        <time>2021-11-17T10:19:32.221Z</time>
      </trkpt>
      <trkpt lat="38.35081" lon="38.34844">
        <ele>999.941995</ele>
        <time>2021-11-17T10:19:33.171Z</time>
      </trkpt>
      <trkpt lat="38.35079" lon="38.3484">
        <ele>999.904257</ele>
        <time>2021-11-17T10:19:34.501Z</time>
      </trkpt>
      <trkpt lat="38.35068" lon="38.34831">
        <ele>999.794623</ele>
        <time>2021-11-17T10:19:37.451Z</time>
      </trkpt>
      <trkpt lat="38.35056" lon="38.34833">
        <ele>999.684265</ele>
        <time>2021-11-17T10:19:40.735Z</time>
      </trkpt>
      <trkpt lat="38.35052" lon="38.34836">
        <ele>999.646977</ele>
        <time>2021-11-17T10:19:41.996Z</time>
      </trkpt>
      <trkpt lat="38.35049" lon="38.34839">
        <ele>999.613262</ele>
        <time>2021-11-17T10:19:42.932Z</time>
      </trkpt>
      <trkpt lat="38.3501" lon="38.3483">
        <ele>1000.000346</ele>
        <time>2021-11-17T10:19:53.680Z</time>
      </trkpt>
      <trkpt lat="38.34962" lon="38.34804">
        <ele>1000.701076</ele>
        <time>2021-11-17T10:20:07.520Z</time>
      </trkpt>
      <trkpt lat="38.3496" lon="38.34801">
        <ele>1000.746575</ele>
        <time>2021-11-17T10:20:08.388Z</time>
      </trkpt>
      <trkpt lat="38.34957" lon="38.34798">
        <ele>1000.792979</ele>
        <time>2021-11-17T10:20:09.290Z</time>
      </trkpt>
      <trkpt lat="38.34947" lon="38.34716">
        <ele>1001.665706</ele>
        <time>2021-11-17T10:20:28.937Z</time>
      </trkpt>
      <trkpt lat="38.34938" lon="38.34657">
        <ele>1002.35782</ele>
        <time>2021-11-17T10:20:41.632Z</time>
      </trkpt>
      <trkpt lat="38.34925" lon="38.3456">
        <ele>1003.561192</ele>
        <time>2021-11-17T10:21:02.169Z</time>
      </trkpt>
      <trkpt lat="38.34923" lon="38.34546">
        <ele>1003.738283</ele>
        <time>2021-11-17T10:21:05.249Z</time>
      </trkpt>
      <trkpt lat="38.3492" lon="38.34519">
        <ele>1004.082244</ele>
        <time>2021-11-17T10:21:11.775Z</time>
      </trkpt>
      <trkpt lat="38.34918" lon="38.34494">
        <ele>1004.388374</ele>
        <time>2021-11-17T10:21:17.666Z</time>
      </trkpt>
      <trkpt lat="38.34911" lon="38.34412">
        <ele>1005.427505</ele>
        <time>2021-11-17T10:21:37.624Z</time>
      </trkpt>
      <trkpt lat="38.34901" lon="38.34306">
        <ele>1006.789071</ele>
        <time>2021-11-17T10:22:04.032Z</time>
      </trkpt>
      <trkpt lat="38.3489" lon="38.34167">
        <ele>1007.656752</ele>
        <time>2021-11-17T10:22:30.627Z</time>
      </trkpt>
      <trkpt lat="38.34875" lon="38.34018">
        <ele>1007.515529</ele>
        <time>2021-11-17T10:22:54.829Z</time>
      </trkpt>
      <trkpt lat="38.34866" lon="38.33898">
        <ele>1007.434143</ele>
        <time>2021-11-17T10:23:14.578Z</time>
      </trkpt>
      <trkpt lat="38.34865" lon="38.33887">
        <ele>1007.426593</ele>
        <time>2021-11-17T10:23:16.655Z</time>
      </trkpt>
      <trkpt lat="38.34847" lon="38.33681">
        <ele>1007.088192</ele>
        <time>2021-11-17T10:23:54.072Z</time>
      </trkpt>
      <trkpt lat="38.34846" lon="38.33657">
        <ele>1007.022095</ele>
        <time>2021-11-17T10:23:58.038Z</time>
      </trkpt>
      <trkpt lat="38.34845" lon="38.33632">
        <ele>1006.952134</ele>
        <time>2021-11-17T10:24:01.993Z</time>
      </trkpt>
      <trkpt lat="38.34843" lon="38.33605">
        <ele>1006.87815</ele>
        <time>2021-11-17T10:24:06.231Z</time>
      </trkpt>
      <trkpt lat="38.34835" lon="38.33527">
        <ele>1006.505546</ele>
        <time>2021-11-17T10:24:18.185Z</time>
      </trkpt>
      <trkpt lat="38.34831" lon="38.33474">
        <ele>1005.987027</ele>
        <time>2021-11-17T10:24:26.438Z</time>
      </trkpt>
      <trkpt lat="38.34826" lon="38.33416">
        <ele>1005.419123</ele>
        <time>2021-11-17T10:24:35.235Z</time>
      </trkpt>
      <trkpt lat="38.34823" lon="38.33398">
        <ele>1005.234525</ele>
        <time>2021-11-17T10:24:38.052Z</time>
      </trkpt>
      <trkpt lat="38.34821" lon="38.33377">
        <ele>1005.028358</ele>
        <time>2021-11-17T10:24:41.061Z</time>
      </trkpt>
      <trkpt lat="38.34819" lon="38.33356">
        <ele>1004.820947</ele>
        <time>2021-11-17T10:24:44.036Z</time>
      </trkpt>
      <trkpt lat="38.34812" lon="38.33286">
        <ele>1003.877511</ele>
        <time>2021-11-17T10:24:53.737Z</time>
      </trkpt>
      <trkpt lat="38.34804" lon="38.33203">
        <ele>1002.450893</ele>
        <time>2021-11-17T10:25:05.303Z</time>
      </trkpt>
      <trkpt lat="38.34801" lon="38.3317">
        <ele>1001.87943</ele>
        <time>2021-11-17T10:25:09.930Z</time>
      </trkpt>
      <trkpt lat="38.34777" lon="38.3292">
        <ele>996.41222</ele>
        <time>2021-11-17T10:25:43.209Z</time>
      </trkpt>
      <trkpt lat="38.34766" lon="38.32824">
        <ele>993.754229</ele>
        <time>2021-11-17T10:25:55.070Z</time>
      </trkpt>
      <trkpt lat="38.34763" lon="38.32783">
        <ele>992.406273</ele>
        <time>2021-11-17T10:26:00.157Z</time>
      </trkpt>
      <trkpt lat="38.34758" lon="38.3273">
        <ele>990.656116</ele>
        <time>2021-11-17T10:26:06.747Z</time>
      </trkpt>
      <trkpt lat="38.34761" lon="38.32696">
        <ele>989.556851</ele>
        <time>2021-11-17T10:26:10.839Z</time>
      </trkpt>
      <trkpt lat="38.34759" lon="38.32697">
        <ele>989.455969</ele>
        <time>2021-11-17T10:26:11.241Z</time>
      </trkpt>
      <trkpt lat="38.34751" lon="38.32692">
        <ele>989.078012</ele>
        <time>2021-11-17T10:26:12.654Z</time>
      </trkpt>
      <trkpt lat="38.3475" lon="38.32689">
        <ele>988.968661</ele>
        <time>2021-11-17T10:26:13.068Z</time>
      </trkpt>
      <trkpt lat="38.3475" lon="38.32685">
        <ele>988.857652</ele>
        <time>2021-11-17T10:26:13.465Z</time>
      </trkpt>
      <trkpt lat="38.34751" lon="38.32682">
        <ele>988.748517</ele>
        <time>2021-11-17T10:26:13.871Z</time>
      </trkpt>
      <trkpt lat="38.34753" lon="38.3268">
        <ele>988.640398</ele>
        <time>2021-11-17T10:26:14.269Z</time>
      </trkpt>
      <trkpt lat="38.34755" lon="38.32678">
        <ele>988.531629</ele>
        <time>2021-11-17T10:26:14.666Z</time>
      </trkpt>
      <trkpt lat="38.34764" lon="38.32683">
        <ele>988.124033</ele>
        <time>2021-11-17T10:26:16.172Z</time>
      </trkpt>
      <trkpt lat="38.34765" lon="38.32686">
        <ele>988.023943</ele>
        <time>2021-11-17T10:26:16.546Z</time>
      </trkpt>
      <trkpt lat="38.34811" lon="38.32567">
        <ele>983.684198</ele>
        <time>2021-11-17T10:26:32.463Z</time>
      </trkpt>
      <trkpt lat="38.34812" lon="38.32565">
        <ele>983.590808</ele>
        <time>2021-11-17T10:26:32.798Z</time>
      </trkpt>
      <trkpt lat="38.34815" lon="38.3256">
        <ele>983.41352</ele>
        <time>2021-11-17T10:26:33.487Z</time>
      </trkpt>
      <trkpt lat="38.34815" lon="38.32558">
        <ele>983.321656</ele>
        <time>2021-11-17T10:26:33.833Z</time>
      </trkpt>
      <trkpt lat="38.34861" lon="38.32437">
        <ele>979.192175</ele>
        <time>2021-11-17T10:26:50.611Z</time>
      </trkpt>
      <trkpt lat="38.34864" lon="38.32436">
        <ele>979.09441</ele>
        <time>2021-11-17T10:26:51.086Z</time>
      </trkpt>
      <trkpt lat="38.34867" lon="38.32435">
        <ele>978.999993</ele>
        <time>2021-11-17T10:26:51.544Z</time>
      </trkpt>
      <trkpt lat="38.34869" lon="38.32432">
        <ele>978.903627</ele>
        <time>2021-11-17T10:26:51.984Z</time>
      </trkpt>
      <trkpt lat="38.34871" lon="38.32425">
        <ele>978.714838</ele>
        <time>2021-11-17T10:26:52.955Z</time>
      </trkpt>
      <trkpt lat="38.3487" lon="38.32421">
        <ele>978.618384</ele>
        <time>2021-11-17T10:26:53.424Z</time>
      </trkpt>
      <trkpt lat="38.34875" lon="38.3239">
        <ele>977.82529</ele>
        <time>2021-11-17T10:26:57.357Z</time>
      </trkpt>
      <trkpt lat="38.34882" lon="38.32347">
        <ele>976.70736</ele>
        <time>2021-11-17T10:27:02.947Z</time>
      </trkpt>
      <trkpt lat="38.34882" lon="38.32343">
        <ele>976.595366</ele>
        <time>2021-11-17T10:27:03.460Z</time>
      </trkpt>
      <trkpt lat="38.34902" lon="38.32245">
        <ele>974.127495</ele>
        <time>2021-11-17T10:27:16.645Z</time>
      </trkpt>
      <trkpt lat="38.34927" lon="38.32116">
        <ele>971.623342</ele>
        <time>2021-11-17T10:27:34.886Z</time>
      </trkpt>
      <trkpt lat="38.34931" lon="38.321">
        <ele>971.317213</ele>
        <time>2021-11-17T10:27:37.061Z</time>
      </trkpt>
      <trkpt lat="38.3494" lon="38.32058">
        <ele>970.503914</ele>
        <time>2021-11-17T10:27:42.859Z</time>
      </trkpt>
      <trkpt lat="38.34943" lon="38.32056">
        <ele>970.411078</ele>
        <time>2021-11-17T10:27:43.535Z</time>
      </trkpt>
      <trkpt lat="38.34953" lon="38.32044">
        <ele>970.088189</ele>
        <time>2021-11-17T10:27:45.913Z</time>
      </trkpt>
      <trkpt lat="38.34965" lon="38.3204">
        <ele>969.842549</ele>
        <time>2021-11-17T10:27:48.074Z</time>
      </trkpt>
      <trkpt lat="38.34962" lon="38.32039">
        <ele>969.781764</ele>
        <time>2021-11-17T10:27:48.605Z</time>
      </trkpt>
      <trkpt lat="38.35008" lon="38.3201">
        <ele>968.755259</ele>
        <time>2021-11-17T10:27:57.611Z</time>
      </trkpt>
      <trkpt lat="38.35" lon="38.31906">
        <ele>967.135732</ele>
        <time>2021-11-17T10:28:11.854Z</time>
      </trkpt>
      <trkpt lat="38.34999" lon="38.31893">
        <ele>966.92708</ele>
        <time>2021-11-17T10:28:13.994Z</time>
      </trkpt>
      <trkpt lat="38.34997" lon="38.31831">
        <ele>966.33407</ele>
        <time>2021-11-17T10:28:23.493Z</time>
      </trkpt>
      <trkpt lat="38.34997" lon="38.31813">
        <ele>966.248105</ele>
        <time>2021-11-17T10:28:26.541Z</time>
      </trkpt>
      <trkpt lat="38.34993" lon="38.3175">
        <ele>965.954372</ele>
        <time>2021-11-17T10:28:36.585Z</time>
      </trkpt>
      <trkpt lat="38.3499" lon="38.31735">
        <ele>965.884169</ele>
        <time>2021-11-17T10:28:38.960Z</time>
      </trkpt>
      <trkpt lat="38.34981" lon="38.31713">
        <ele>965.769273</ele>
        <time>2021-11-17T10:28:43.142Z</time>
      </trkpt>
      <trkpt lat="38.34959" lon="38.3165">
        <ele>965.448523</ele>
        <time>2021-11-17T10:28:54.128Z</time>
      </trkpt>
      <trkpt lat="38.34993" lon="38.31631">
        <ele>965.309478</ele>
        <time>2021-11-17T10:29:02.612Z</time>
      </trkpt>
      <trkpt lat="38.35065" lon="38.31576">
        <ele>965.022094</ele>
        <time>2021-11-17T10:29:21.740Z</time>
      </trkpt>
      <trkpt lat="38.35089" lon="38.31555">
        <ele>964.921858</ele>
        <time>2021-11-17T10:29:27.688Z</time>
      </trkpt>
      <trkpt lat="38.35082" lon="38.3152">
        <ele>964.823347</ele>
        <time>2021-11-17T10:29:33.521Z</time>
      </trkpt>
      <trkpt lat="38.35076" lon="38.31486">
        <ele>964.791192</ele>
        <time>2021-11-17T10:29:39.663Z</time>
      </trkpt>
      <trkpt lat="38.3505" lon="38.31422">
        <ele>964.753468</ele>
        <time>2021-11-17T10:29:52.558Z</time>
      </trkpt>
      <trkpt lat="38.35011" lon="38.31363">
        <ele>964.712562</ele>
        <time>2021-11-17T10:30:07.503Z</time>
      </trkpt>
      <trkpt lat="38.34991" lon="38.31319">
        <ele>964.68586</ele>
        <time>2021-11-17T10:30:17.030Z</time>
      </trkpt>
      <trkpt lat="38.35002" lon="38.31272">
        <ele>964.353255</ele>
        <time>2021-11-17T10:30:25.383Z</time>
      </trkpt>
      <trkpt lat="38.35001" lon="38.31153">
        <ele>963.520041</ele>
        <time>2021-11-17T10:30:44.280Z</time>
      </trkpt>
      <trkpt lat="38.35011" lon="38.31021">
        <ele>963.082229</ele>
        <time>2021-11-17T10:31:04.383Z</time>
      </trkpt>
      <trkpt lat="38.35014" lon="38.30987">
        <ele>963.082229</ele>
        <time>2021-11-17T10:31:09.669Z</time>
      </trkpt>
      <trkpt lat="38.35016" lon="38.30968">
        <ele>963.082229</ele>
        <time>2021-11-17T10:31:12.551Z</time>
      </trkpt>
      <trkpt lat="38.3502" lon="38.30926">
        <ele>963.082229</ele>
        <time>2021-11-17T10:31:19.291Z</time>
      </trkpt>
    </trkseg>
  </trk>
  <trk>
    <name><![CDATA[2_De Malatya à Avanos]]></name>
    <extensions>
      <line xmlns="http://www.topografix.com/GPX/gpx_style/0/2">
        <color>00FF00</color>
        <width>4</width>
      </line>
    </extensions>
    <trkseg>
      <trkpt lat="38.3502" lon="38.30926">
        <ele>960.723164</ele>
        <time>2021-11-15T11:36:31.464Z</time>
      </trkpt>
      <trkpt lat="38.35025" lon="38.30884">
        <ele>960.723164</ele>
        <time>2021-11-15T11:36:39.182Z</time>
      </trkpt>
      <trkpt lat="38.3501" lon="38.30824">
        <ele>960.723164</ele>
        <time>2021-11-15T11:36:51.699Z</time>
      </trkpt>
      <trkpt lat="38.34987" lon="38.30714">
        <ele>960.463607</ele>
        <time>2021-11-15T11:37:13.254Z</time>
      </trkpt>
      <trkpt lat="38.34985" lon="38.30707">
        <ele>960.444524</ele>
        <time>2021-11-15T11:37:14.633Z</time>
      </trkpt>
      <trkpt lat="38.34969" lon="38.30628">
        <ele>960.241522</ele>
        <time>2021-11-15T11:37:28.352Z</time>
      </trkpt>
      <trkpt lat="38.34959" lon="38.30436">
        <ele>958.359193</ele>
        <time>2021-11-15T11:37:57.665Z</time>
      </trkpt>
      <trkpt lat="38.34954" lon="38.30348">
        <ele>957.366636</ele>
        <time>2021-11-15T11:38:10.532Z</time>
      </trkpt>
      <trkpt lat="38.34949" lon="38.30273">
        <ele>956.641997</ele>
        <time>2021-11-15T11:38:21.890Z</time>
      </trkpt>
      <trkpt lat="38.34943" lon="38.30204">
        <ele>955.974307</ele>
        <time>2021-11-15T11:38:33.275Z</time>
      </trkpt>
      <trkpt lat="38.34946" lon="38.30202">
        <ele>955.935756</ele>
        <time>2021-11-15T11:38:33.883Z</time>
      </trkpt>
      <trkpt lat="38.34958" lon="38.30197">
        <ele>955.773956</ele>
        <time>2021-11-15T11:38:36.736Z</time>
      </trkpt>
      <trkpt lat="38.3497" lon="38.30173">
        <ele>955.504148</ele>
        <time>2021-11-15T11:38:41.246Z</time>
      </trkpt>
      <trkpt lat="38.34985" lon="38.30114">
        <ele>954.498089</ele>
        <time>2021-11-15T11:38:50.849Z</time>
      </trkpt>
      <trkpt lat="38.34987" lon="38.30104">
        <ele>954.298546</ele>
        <time>2021-11-15T11:38:52.330Z</time>
      </trkpt>
      <trkpt lat="38.34988" lon="38.30093">
        <ele>954.08985</ele>
        <time>2021-11-15T11:38:53.970Z</time>
      </trkpt>
      <trkpt lat="38.34985" lon="38.30051">
        <ele>953.280968</ele>
        <time>2021-11-15T11:38:59.936Z</time>
      </trkpt>
      <trkpt lat="38.34978" lon="38.30018">
        <ele>952.625095</ele>
        <time>2021-11-15T11:39:04.504Z</time>
      </trkpt>
      <trkpt lat="38.35046" lon="38.29988">
        <ele>950.858418</ele>
        <time>2021-11-15T11:39:16.296Z</time>
      </trkpt>
      <trkpt lat="38.3507" lon="38.29991">
        <ele>950.126619</ele>
        <time>2021-11-15T11:39:20.272Z</time>
      </trkpt>
      <trkpt lat="38.35081" lon="38.29992">
        <ele>949.780586</ele>
        <time>2021-11-15T11:39:22.143Z</time>
      </trkpt>
      <trkpt lat="38.35097" lon="38.29996">
        <ele>949.305967</ele>
        <time>2021-11-15T11:39:24.756Z</time>
      </trkpt>
      <trkpt lat="38.35102" lon="38.29998">
        <ele>949.142039</ele>
        <time>2021-11-15T11:39:25.586Z</time>
      </trkpt>
      <trkpt lat="38.35114" lon="38.30002">
        <ele>948.764051</ele>
        <time>2021-11-15T11:39:27.627Z</time>
      </trkpt>
      <trkpt lat="38.35118" lon="38.30002">
        <ele>948.664281</ele>
        <time>2021-11-15T11:39:28.164Z</time>
      </trkpt>
      <trkpt lat="38.35121" lon="38.30001">
        <ele>948.564259</ele>
        <time>2021-11-15T11:39:28.689Z</time>
      </trkpt>
      <trkpt lat="38.35129" lon="38.29995">
        <ele>948.27357</ele>
        <time>2021-11-15T11:39:30.285Z</time>
      </trkpt>
      <trkpt lat="38.35131" lon="38.29991">
        <ele>948.172353</ele>
        <time>2021-11-15T11:39:30.786Z</time>
      </trkpt>
      <trkpt lat="38.35131" lon="38.29987">
        <ele>948.074131</ele>
        <time>2021-11-15T11:39:31.287Z</time>
      </trkpt>
      <trkpt lat="38.35132" lon="38.29983">
        <ele>947.974951</ele>
        <time>2021-11-15T11:39:31.812Z</time>
      </trkpt>
      <trkpt lat="38.35131" lon="38.29978">
        <ele>947.874186</ele>
        <time>2021-11-15T11:39:32.338Z</time>
      </trkpt>
      <trkpt lat="38.35135" lon="38.29917">
        <ele>946.414475</ele>
        <time>2021-11-15T11:39:40.254Z</time>
      </trkpt>
      <trkpt lat="38.35136" lon="38.299">
        <ele>946.018913</ele>
        <time>2021-11-15T11:39:42.521Z</time>
      </trkpt>
      <trkpt lat="38.35141" lon="38.29829">
        <ele>944.948744</ele>
        <time>2021-11-15T11:39:52.366Z</time>
      </trkpt>
      <trkpt lat="38.35143" lon="38.29791">
        <ele>944.535684</ele>
        <time>2021-11-15T11:39:57.852Z</time>
      </trkpt>
      <trkpt lat="38.35145" lon="38.29742">
        <ele>943.98444</ele>
        <time>2021-11-15T11:40:05.361Z</time>
      </trkpt>
      <trkpt lat="38.35148" lon="38.29604">
        <ele>942.732521</ele>
        <time>2021-11-15T11:40:25.959Z</time>
      </trkpt>
      <trkpt lat="38.35134" lon="38.29508">
        <ele>942.251203</ele>
        <time>2021-11-15T11:40:40.928Z</time>
      </trkpt>
      <trkpt lat="38.35132" lon="38.29497">
        <ele>942.191343</ele>
        <time>2021-11-15T11:40:42.746Z</time>
      </trkpt>
      <trkpt lat="38.35162" lon="38.29482">
        <ele>941.986681</ele>
        <time>2021-11-15T11:40:50.023Z</time>
      </trkpt>
      <trkpt lat="38.3516" lon="38.29458">
        <ele>941.866042</ele>
        <time>2021-11-15T11:40:54.429Z</time>
      </trkpt>
      <trkpt lat="38.35157" lon="38.29408">
        <ele>941.738567</ele>
        <time>2021-11-15T11:41:03.802Z</time>
      </trkpt>
      <trkpt lat="38.35154" lon="38.29371">
        <ele>941.663588</ele>
        <time>2021-11-15T11:41:10.556Z</time>
      </trkpt>
      <trkpt lat="38.35147" lon="38.29276">
        <ele>941.474654</ele>
        <time>2021-11-15T11:41:26.995Z</time>
      </trkpt>
      <trkpt lat="38.35143" lon="38.29253">
        <ele>941.426891</ele>
        <time>2021-11-15T11:41:31.031Z</time>
      </trkpt>
      <trkpt lat="38.35134" lon="38.29237">
        <ele>941.388208</ele>
        <time>2021-11-15T11:41:34.340Z</time>
      </trkpt>
      <trkpt lat="38.35261" lon="38.29118">
        <ele>940.725015</ele>
        <time>2021-11-15T11:42:08.098Z</time>
      </trkpt>
      <trkpt lat="38.35259" lon="38.29087">
        <ele>940.617795</ele>
        <time>2021-11-15T11:42:13.291Z</time>
      </trkpt>
      <trkpt lat="38.35255" lon="38.29033">
        <ele>940.710706</ele>
        <time>2021-11-15T11:42:22.583Z</time>
      </trkpt>
      <trkpt lat="38.35253" lon="38.29009">
        <ele>940.782018</ele>
        <time>2021-11-15T11:42:27.057Z</time>
      </trkpt>
      <trkpt lat="38.35243" lon="38.28949">
        <ele>940.963425</ele>
        <time>2021-11-15T11:42:38.725Z</time>
      </trkpt>
      <trkpt lat="38.35234" lon="38.28895">
        <ele>941.128105</ele>
        <time>2021-11-15T11:42:50.229Z</time>
      </trkpt>
      <trkpt lat="38.35216" lon="38.28796">
        <ele>941.766104</ele>
        <time>2021-11-15T11:43:11.856Z</time>
      </trkpt>
      <trkpt lat="38.35215" lon="38.2879">
        <ele>941.816572</ele>
        <time>2021-11-15T11:43:12.942Z</time>
      </trkpt>
      <trkpt lat="38.3521" lon="38.28758">
        <ele>942.105277</ele>
        <time>2021-11-15T11:43:20.255Z</time>
      </trkpt>
      <trkpt lat="38.35179" lon="38.28572">
        <ele>943.521483</ele>
        <time>2021-11-15T11:44:02.353Z</time>
      </trkpt>
      <trkpt lat="38.35157" lon="38.28469">
        <ele>943.940288</ele>
        <time>2021-11-15T11:44:23.773Z</time>
      </trkpt>
      <trkpt lat="38.35137" lon="38.28386">
        <ele>944.084487</ele>
        <time>2021-11-15T11:44:39.029Z</time>
      </trkpt>
      <trkpt lat="38.35179" lon="38.28369">
        <ele>943.758777</ele>
        <time>2021-11-15T11:44:47.716Z</time>
      </trkpt>
      <trkpt lat="38.35171" lon="38.28345">
        <ele>943.60504</ele>
        <time>2021-11-15T11:44:51.726Z</time>
      </trkpt>
      <trkpt lat="38.35127" lon="38.28205">
        <ele>942.727093</ele>
        <time>2021-11-15T11:45:14.609Z</time>
      </trkpt>
      <trkpt lat="38.35112" lon="38.28183">
        <ele>942.570694</ele>
        <time>2021-11-15T11:45:19.198Z</time>
      </trkpt>
      <trkpt lat="38.35105" lon="38.28167">
        <ele>942.475433</ele>
        <time>2021-11-15T11:45:22.003Z</time>
      </trkpt>
      <trkpt lat="38.35047" lon="38.27987">
        <ele>941.560615</ele>
        <time>2021-11-15T11:45:52.875Z</time>
      </trkpt>
      <trkpt lat="38.34997" lon="38.27828">
        <ele>941.228773</ele>
        <time>2021-11-15T11:46:21.516Z</time>
      </trkpt>
      <trkpt lat="38.34987" lon="38.27799">
        <ele>941.19755</ele>
        <time>2021-11-15T11:46:27.177Z</time>
      </trkpt>
      <trkpt lat="38.34946" lon="38.27673">
        <ele>941.366449</ele>
        <time>2021-11-15T11:46:52.100Z</time>
      </trkpt>
      <trkpt lat="38.34936" lon="38.27633">
        <ele>941.418415</ele>
        <time>2021-11-15T11:46:59.758Z</time>
      </trkpt>
      <trkpt lat="38.34914" lon="38.27565">
        <ele>941.411254</ele>
        <time>2021-11-15T11:47:12.834Z</time>
      </trkpt>
      <trkpt lat="38.34906" lon="38.27552">
        <ele>941.380886</ele>
        <time>2021-11-15T11:47:15.673Z</time>
      </trkpt>
      <trkpt lat="38.34907" lon="38.27546">
        <ele>941.369193</ele>
        <time>2021-11-15T11:47:16.756Z</time>
      </trkpt>
      <trkpt lat="38.34904" lon="38.27534">
        <ele>941.346172</ele>
        <time>2021-11-15T11:47:18.943Z</time>
      </trkpt>
      <trkpt lat="38.349" lon="38.27529">
        <ele>941.334441</ele>
        <time>2021-11-15T11:47:20.052Z</time>
      </trkpt>
      <trkpt lat="38.34898" lon="38.27528">
        <ele>941.328971</ele>
        <time>2021-11-15T11:47:20.576Z</time>
      </trkpt>
      <trkpt lat="38.34897" lon="38.27509">
        <ele>941.294403</ele>
        <time>2021-11-15T11:47:23.745Z</time>
      </trkpt>
      <trkpt lat="38.34895" lon="38.27213">
        <ele>940.613432</ele>
        <time>2021-11-15T11:48:12.126Z</time>
      </trkpt>
      <trkpt lat="38.34885" lon="38.27144">
        <ele>940.432287</ele>
        <time>2021-11-15T11:48:23.854Z</time>
      </trkpt>
      <trkpt lat="38.34685" lon="38.2645">
        <ele>939.595889</ele>
        <time>2021-11-15T11:50:30.975Z</time>
      </trkpt>
      <trkpt lat="38.346" lon="38.26173">
        <ele>937.710638</ele>
        <time>2021-11-15T11:51:16.509Z</time>
      </trkpt>
      <trkpt lat="38.34585" lon="38.26128">
        <ele>937.330509</ele>
        <time>2021-11-15T11:51:23.788Z</time>
      </trkpt>
      <trkpt lat="38.34586" lon="38.26124">
        <ele>937.298524</ele>
        <time>2021-11-15T11:51:24.403Z</time>
      </trkpt>
      <trkpt lat="38.34587" lon="38.2612">
        <ele>937.265854</ele>
        <time>2021-11-15T11:51:25.029Z</time>
      </trkpt>
      <trkpt lat="38.34587" lon="38.26116">
        <ele>937.233916</ele>
        <time>2021-11-15T11:51:25.644Z</time>
      </trkpt>
      <trkpt lat="38.34586" lon="38.26112">
        <ele>937.201443</ele>
        <time>2021-11-15T11:51:26.262Z</time>
      </trkpt>
      <trkpt lat="38.34585" lon="38.26108">
        <ele>937.169548</ele>
        <time>2021-11-15T11:51:26.881Z</time>
      </trkpt>
      <trkpt lat="38.34583" lon="38.26105">
        <ele>937.136961</ele>
        <time>2021-11-15T11:51:27.498Z</time>
      </trkpt>
      <trkpt lat="38.3458" lon="38.26101">
        <ele>937.089042</ele>
        <time>2021-11-15T11:51:28.423Z</time>
      </trkpt>
      <trkpt lat="38.34575" lon="38.26098">
        <ele>937.040898</ele>
        <time>2021-11-15T11:51:29.351Z</time>
      </trkpt>
      <trkpt lat="38.34573" lon="38.26098">
        <ele>937.020906</ele>
        <time>2021-11-15T11:51:29.737Z</time>
      </trkpt>
      <trkpt lat="38.34557" lon="38.26042">
        <ele>936.550494</ele>
        <time>2021-11-15T11:51:38.659Z</time>
      </trkpt>
      <trkpt lat="38.34179" lon="38.24777">
        <ele>925.963206</ele>
        <time>2021-11-15T11:55:03.469Z</time>
      </trkpt>
      <trkpt lat="38.34119" lon="38.24584">
        <ele>924.686319</ele>
        <time>2021-11-15T11:55:35.706Z</time>
      </trkpt>
      <trkpt lat="38.34114" lon="38.24568">
        <ele>924.602007</ele>
        <time>2021-11-15T11:55:38.534Z</time>
      </trkpt>
      <trkpt lat="38.3411" lon="38.24553">
        <ele>924.529295</ele>
        <time>2021-11-15T11:55:41.113Z</time>
      </trkpt>
      <trkpt lat="38.34048" lon="38.24347">
        <ele>923.542149</ele>
        <time>2021-11-15T11:56:16.432Z</time>
      </trkpt>
      <trkpt lat="38.34027" lon="38.24265">
        <ele>923.173099</ele>
        <time>2021-11-15T11:56:29.769Z</time>
      </trkpt>
      <trkpt lat="38.34014" lon="38.24183">
        <ele>922.814457</ele>
        <time>2021-11-15T11:56:43.111Z</time>
      </trkpt>
      <trkpt lat="38.34013" lon="38.24173">
        <ele>922.773108</ele>
        <time>2021-11-15T11:56:44.510Z</time>
      </trkpt>
      <trkpt lat="38.34013" lon="38.24161">
        <ele>922.722521</ele>
        <time>2021-11-15T11:56:46.480Z</time>
      </trkpt>
      <trkpt lat="38.34012" lon="38.2415">
        <ele>922.672762</ele>
        <time>2021-11-15T11:56:48.305Z</time>
      </trkpt>
      <trkpt lat="38.33996" lon="38.2368">
        <ele>924.381851</ele>
        <time>2021-11-15T11:58:16.970Z</time>
      </trkpt>
      <trkpt lat="38.33991" lon="38.23566">
        <ele>925.792032</ele>
        <time>2021-11-15T11:58:42.616Z</time>
      </trkpt>
      <trkpt lat="38.33982" lon="38.23567">
        <ele>925.926338</ele>
        <time>2021-11-15T11:58:45.254Z</time>
      </trkpt>
      <trkpt lat="38.33972" lon="38.23568">
        <ele>926.079578</ele>
        <time>2021-11-15T11:58:48.289Z</time>
      </trkpt>
      <trkpt lat="38.33888" lon="38.23577">
        <ele>927.343971</ele>
        <time>2021-11-15T11:59:14.925Z</time>
      </trkpt>
      <trkpt lat="38.33884" lon="38.23569">
        <ele>927.430305</ele>
        <time>2021-11-15T11:59:16.989Z</time>
      </trkpt>
      <trkpt lat="38.33883" lon="38.23559">
        <ele>927.523612</ele>
        <time>2021-11-15T11:59:19.456Z</time>
      </trkpt>
      <trkpt lat="38.33886" lon="38.23554">
        <ele>927.580585</ele>
        <time>2021-11-15T11:59:20.886Z</time>
      </trkpt>
      <trkpt lat="38.33886" lon="38.2355">
        <ele>927.621979</ele>
        <time>2021-11-15T11:59:21.858Z</time>
      </trkpt>
      <trkpt lat="38.33884" lon="38.23517">
        <ele>927.919863</ele>
        <time>2021-11-15T11:59:28.798Z</time>
      </trkpt>
      <trkpt lat="38.33881" lon="38.23466">
        <ele>928.387888</ele>
        <time>2021-11-15T11:59:39.658Z</time>
      </trkpt>
      <trkpt lat="38.33879" lon="38.23453">
        <ele>928.514113</ele>
        <time>2021-11-15T11:59:42.526Z</time>
      </trkpt>
      <trkpt lat="38.33873" lon="38.2341">
        <ele>928.914423</ele>
        <time>2021-11-15T11:59:51.701Z</time>
      </trkpt>
      <trkpt lat="38.33874" lon="38.23407">
        <ele>928.946642</ele>
        <time>2021-11-15T11:59:52.433Z</time>
      </trkpt>
      <trkpt lat="38.33875" lon="38.23403">
        <ele>928.979249</ele>
        <time>2021-11-15T11:59:53.147Z</time>
      </trkpt>
      <trkpt lat="38.33875" lon="38.234">
        <ele>929.004107</ele>
        <time>2021-11-15T11:59:53.714Z</time>
      </trkpt>
      <trkpt lat="38.33899" lon="38.2335">
        <ele>929.430364</ele>
        <time>2021-11-15T12:00:06.089Z</time>
      </trkpt>
      <trkpt lat="38.33889" lon="38.23342">
        <ele>929.519018</ele>
        <time>2021-11-15T12:00:09.331Z</time>
      </trkpt>
      <trkpt lat="38.33848" lon="38.23302">
        <ele>929.902949</ele>
        <time>2021-11-15T12:00:22.752Z</time>
      </trkpt>
      <trkpt lat="38.33809" lon="38.23264">
        <ele>930.265603</ele>
        <time>2021-11-15T12:00:34.975Z</time>
      </trkpt>
      <trkpt lat="38.33769" lon="38.23225">
        <ele>930.699416</ele>
        <time>2021-11-15T12:00:47.968Z</time>
      </trkpt>
      <trkpt lat="38.33759" lon="38.23215">
        <ele>930.874075</ele>
        <time>2021-11-15T12:00:51.611Z</time>
      </trkpt>
      <trkpt lat="38.33729" lon="38.23187">
        <ele>931.360944</ele>
        <time>2021-11-15T12:01:01.872Z</time>
      </trkpt>
      <trkpt lat="38.33689" lon="38.23148">
        <ele>932.042024</ele>
        <time>2021-11-15T12:01:16.723Z</time>
      </trkpt>
      <trkpt lat="38.3365" lon="38.23112">
        <ele>932.680853</ele>
        <time>2021-11-15T12:01:30.688Z</time>
      </trkpt>
      <trkpt lat="38.3361" lon="38.23074">
        <ele>933.492048</ele>
        <time>2021-11-15T12:01:45.400Z</time>
      </trkpt>
      <trkpt lat="38.33591" lon="38.23044">
        <ele>934.049631</ele>
        <time>2021-11-15T12:01:54.462Z</time>
      </trkpt>
      <trkpt lat="38.33581" lon="38.22928">
        <ele>935.711226</ele>
        <time>2021-11-15T12:02:22.637Z</time>
      </trkpt>
      <trkpt lat="38.3358" lon="38.22917">
        <ele>935.867879</ele>
        <time>2021-11-15T12:02:25.359Z</time>
      </trkpt>
      <trkpt lat="38.3353" lon="38.22923">
        <ele>936.800544</ele>
        <time>2021-11-15T12:02:41.182Z</time>
      </trkpt>
      <trkpt lat="38.33524" lon="38.22868">
        <ele>937.62562</ele>
        <time>2021-11-15T12:02:54.650Z</time>
      </trkpt>
      <trkpt lat="38.33517" lon="38.22809">
        <ele>938.500434</ele>
        <time>2021-11-15T12:03:08.842Z</time>
      </trkpt>
      <trkpt lat="38.3351" lon="38.22748">
        <ele>939.410357</ele>
        <time>2021-11-15T12:03:23.528Z</time>
      </trkpt>
      <trkpt lat="38.33503" lon="38.22686">
        <ele>940.206675</ele>
        <time>2021-11-15T12:03:38.315Z</time>
      </trkpt>
      <trkpt lat="38.33489" lon="38.22553">
        <ele>941.845746</ele>
        <time>2021-11-15T12:04:10.025Z</time>
      </trkpt>
      <trkpt lat="38.33476" lon="38.22481">
        <ele>942.488456</ele>
        <time>2021-11-15T12:04:26.299Z</time>
      </trkpt>
      <trkpt lat="38.33458" lon="38.22391">
        <ele>942.729771</ele>
        <time>2021-11-15T12:04:44.711Z</time>
      </trkpt>
      <trkpt lat="38.33438" lon="38.22237">
        <ele>942.773622</ele>
        <time>2021-11-15T12:05:11.370Z</time>
      </trkpt>
      <trkpt lat="38.33429" lon="38.22169">
        <ele>942.426404</ele>
        <time>2021-11-15T12:05:21.955Z</time>
      </trkpt>
      <trkpt lat="38.33434" lon="38.22091">
        <ele>942.025986</ele>
        <time>2021-11-15T12:05:33.649Z</time>
      </trkpt>
      <trkpt lat="38.33438" lon="38.22063">
        <ele>941.881093</ele>
        <time>2021-11-15T12:05:37.928Z</time>
      </trkpt>
      <trkpt lat="38.33461" lon="38.21993">
        <ele>942.201839</ele>
        <time>2021-11-15T12:05:50.431Z</time>
      </trkpt>
      <trkpt lat="38.3347" lon="38.21965">
        <ele>942.360389</ele>
        <time>2021-11-15T12:05:56.188Z</time>
      </trkpt>
      <trkpt lat="38.33476" lon="38.21935">
        <ele>942.518406</ele>
        <time>2021-11-15T12:06:02.096Z</time>
      </trkpt>
      <trkpt lat="38.33488" lon="38.21901">
        <ele>942.710989</ele>
        <time>2021-11-15T12:06:10.203Z</time>
      </trkpt>
      <trkpt lat="38.33526" lon="38.21819">
        <ele>943.562425</ele>
        <time>2021-11-15T12:06:31.848Z</time>
      </trkpt>
      <trkpt lat="38.33561" lon="38.2177">
        <ele>944.621188</ele>
        <time>2021-11-15T12:06:48.202Z</time>
      </trkpt>
      <trkpt lat="38.33584" lon="38.21749">
        <ele>945.209039</ele>
        <time>2021-11-15T12:06:57.732Z</time>
      </trkpt>
      <trkpt lat="38.33612" lon="38.21727">
        <ele>945.869468</ele>
        <time>2021-11-15T12:07:07.975Z</time>
      </trkpt>
      <trkpt lat="38.33697" lon="38.21656">
        <ele>947.134443</ele>
        <time>2021-11-15T12:07:37.402Z</time>
      </trkpt>
      <trkpt lat="38.33745" lon="38.21613">
        <ele>947.557798</ele>
        <time>2021-11-15T12:07:51.282Z</time>
      </trkpt>
      <trkpt lat="38.33781" lon="38.21575">
        <ele>947.895001</ele>
        <time>2021-11-15T12:08:01.764Z</time>
      </trkpt>
      <trkpt lat="38.33806" lon="38.21538">
        <ele>948.038684</ele>
        <time>2021-11-15T12:08:10.333Z</time>
      </trkpt>
      <trkpt lat="38.33835" lon="38.21473">
        <ele>948.147159</ele>
        <time>2021-11-15T12:08:23.288Z</time>
      </trkpt>
      <trkpt lat="38.33854" lon="38.21403">
        <ele>948.253676</ele>
        <time>2021-11-15T12:08:36.805Z</time>
      </trkpt>
      <trkpt lat="38.33864" lon="38.21287">
        <ele>948.43375</ele>
        <time>2021-11-15T12:08:58.381Z</time>
      </trkpt>
      <trkpt lat="38.3387" lon="38.21212">
        <ele>948.556504</ele>
        <time>2021-11-15T12:09:12.282Z</time>
      </trkpt>
      <trkpt lat="38.33876" lon="38.20982">
        <ele>948.627543</ele>
        <time>2021-11-15T12:09:52.559Z</time>
      </trkpt>
      <trkpt lat="38.33881" lon="38.20919">
        <ele>948.597949</ele>
        <time>2021-11-15T12:10:03.269Z</time>
      </trkpt>
      <trkpt lat="38.33915" lon="38.2061">
        <ele>948.338935</ele>
        <time>2021-11-15T12:10:56.389Z</time>
      </trkpt>
      <trkpt lat="38.3393" lon="38.20402">
        <ele>948.388319</ele>
        <time>2021-11-15T12:11:32.850Z</time>
      </trkpt>
      <trkpt lat="38.33932" lon="38.20333">
        <ele>948.575276</ele>
        <time>2021-11-15T12:11:45.753Z</time>
      </trkpt>
      <trkpt lat="38.33927" lon="38.20293">
        <ele>948.683519</ele>
        <time>2021-11-15T12:11:53.324Z</time>
      </trkpt>
      <trkpt lat="38.33926" lon="38.20215">
        <ele>948.894222</ele>
        <time>2021-11-15T12:12:08.257Z</time>
      </trkpt>
      <trkpt lat="38.33931" lon="38.20191">
        <ele>948.883882</ele>
        <time>2021-11-15T12:12:12.927Z</time>
      </trkpt>
      <trkpt lat="38.33941" lon="38.20172">
        <ele>948.871327</ele>
        <time>2021-11-15T12:12:17.190Z</time>
      </trkpt>
      <trkpt lat="38.33962" lon="38.20153">
        <ele>948.853137</ele>
        <time>2021-11-15T12:12:23.282Z</time>
      </trkpt>
      <trkpt lat="38.33986" lon="38.20141">
        <ele>948.835348</ele>
        <time>2021-11-15T12:12:29.041Z</time>
      </trkpt>
      <trkpt lat="38.34013" lon="38.20135">
        <ele>948.816251</ele>
        <time>2021-11-15T12:12:35.217Z</time>
      </trkpt>
      <trkpt lat="38.34026" lon="38.20132">
        <ele>948.807174</ele>
        <time>2021-11-15T12:12:37.988Z</time>
      </trkpt>
      <trkpt lat="38.34041" lon="38.20128">
        <ele>948.796297</ele>
        <time>2021-11-15T12:12:41.274Z</time>
      </trkpt>
      <trkpt lat="38.34036" lon="38.2011">
        <ele>948.786335</ele>
        <time>2021-11-15T12:12:44.168Z</time>
      </trkpt>
      <trkpt lat="38.34027" lon="38.2008">
        <ele>948.740214</ele>
        <time>2021-11-15T12:12:49.197Z</time>
      </trkpt>
      <trkpt lat="38.34003" lon="38.2003">
        <ele>948.382313</ele>
        <time>2021-11-15T12:12:58.066Z</time>
      </trkpt>
      <trkpt lat="38.33932" lon="38.19885">
        <ele>947.389134</ele>
        <time>2021-11-15T12:13:24.269Z</time>
      </trkpt>
      <trkpt lat="38.33925" lon="38.19871">
        <ele>947.420727</ele>
        <time>2021-11-15T12:13:26.914Z</time>
      </trkpt>
      <trkpt lat="38.33924" lon="38.19868">
        <ele>947.427094</ele>
        <time>2021-11-15T12:13:27.419Z</time>
      </trkpt>
      <trkpt lat="38.33918" lon="38.19856">
        <ele>947.456988</ele>
        <time>2021-11-15T12:13:29.925Z</time>
      </trkpt>
      <trkpt lat="38.33881" lon="38.19781">
        <ele>947.631253</ele>
        <time>2021-11-15T12:13:45.530Z</time>
      </trkpt>
      <trkpt lat="38.33862" lon="38.19731">
        <ele>947.738479</ele>
        <time>2021-11-15T12:13:56.173Z</time>
      </trkpt>
      <trkpt lat="38.33856" lon="38.19651">
        <ele>948.083556</ele>
        <time>2021-11-15T12:14:13.042Z</time>
      </trkpt>
      <trkpt lat="38.33854" lon="38.19579">
        <ele>948.611793</ele>
        <time>2021-11-15T12:14:28.074Z</time>
      </trkpt>
      <trkpt lat="38.3385" lon="38.1946">
        <ele>949.487585</ele>
        <time>2021-11-15T12:14:51.883Z</time>
      </trkpt>
      <trkpt lat="38.33849" lon="38.19435">
        <ele>949.73409</ele>
        <time>2021-11-15T12:14:57.302Z</time>
      </trkpt>
      <trkpt lat="38.33847" lon="38.19364">
        <ele>950.447428</ele>
        <time>2021-11-15T12:15:11.744Z</time>
      </trkpt>
      <trkpt lat="38.33837" lon="38.19366">
        <ele>950.574083</ele>
        <time>2021-11-15T12:15:14.527Z</time>
      </trkpt>
      <trkpt lat="38.33779" lon="38.19366">
        <ele>951.316255</ele>
        <time>2021-11-15T12:15:30.561Z</time>
      </trkpt>
      <trkpt lat="38.33651" lon="38.19371">
        <ele>953.569045</ele>
        <time>2021-11-15T12:16:10.153Z</time>
      </trkpt>
      <trkpt lat="38.33605" lon="38.19372">
        <ele>954.47192</ele>
        <time>2021-11-15T12:16:24.635Z</time>
      </trkpt>
      <trkpt lat="38.33587" lon="38.19372">
        <ele>954.83265</ele>
        <time>2021-11-15T12:16:30.526Z</time>
      </trkpt>
      <trkpt lat="38.3354" lon="38.19367">
        <ele>955.634461</ele>
        <time>2021-11-15T12:16:45.149Z</time>
      </trkpt>
      <trkpt lat="38.33493" lon="38.19361">
        <ele>956.273971</ele>
        <time>2021-11-15T12:16:59.804Z</time>
      </trkpt>
      <trkpt lat="38.33492" lon="38.19342">
        <ele>956.470511</ele>
        <time>2021-11-15T12:17:04.346Z</time>
      </trkpt>
      <trkpt lat="38.33492" lon="38.19291">
        <ele>957.004419</ele>
        <time>2021-11-15T12:17:15.753Z</time>
      </trkpt>
      <trkpt lat="38.33491" lon="38.19177">
        <ele>957.84673</ele>
        <time>2021-11-15T12:17:38.383Z</time>
      </trkpt>
      <trkpt lat="38.33491" lon="38.19138">
        <ele>957.915976</ele>
        <time>2021-11-15T12:17:45.828Z</time>
      </trkpt>
      <trkpt lat="38.33488" lon="38.18995">
        <ele>958.171375</ele>
        <time>2021-11-15T12:18:12.434Z</time>
      </trkpt>
      <trkpt lat="38.33486" lon="38.18799">
        <ele>958.215884</ele>
        <time>2021-11-15T12:18:47.958Z</time>
      </trkpt>
      <trkpt lat="38.33485" lon="38.18703">
        <ele>958.441074</ele>
        <time>2021-11-15T12:19:05.602Z</time>
      </trkpt>
      <trkpt lat="38.33484" lon="38.18607">
        <ele>958.81021</ele>
        <time>2021-11-15T12:19:24.153Z</time>
      </trkpt>
      <trkpt lat="38.33484" lon="38.18595">
        <ele>958.857898</ele>
        <time>2021-11-15T12:19:26.756Z</time>
      </trkpt>
      <trkpt lat="38.33482" lon="38.18436">
        <ele>960.190031</ele>
        <time>2021-11-15T12:20:00.556Z</time>
      </trkpt>
      <trkpt lat="38.33482" lon="38.18375">
        <ele>960.889842</ele>
        <time>2021-11-15T12:20:15.111Z</time>
      </trkpt>
      <trkpt lat="38.3346" lon="38.18377">
        <ele>961.214152</ele>
        <time>2021-11-15T12:20:21.826Z</time>
      </trkpt>
      <trkpt lat="38.33309" lon="38.18389">
        <ele>963.544175</ele>
        <time>2021-11-15T12:21:07.598Z</time>
      </trkpt>
      <trkpt lat="38.33297" lon="38.18387">
        <ele>963.735595</ele>
        <time>2021-11-15T12:21:11.090Z</time>
      </trkpt>
      <trkpt lat="38.33292" lon="38.18374">
        <ele>963.917058</ele>
        <time>2021-11-15T12:21:14.386Z</time>
      </trkpt>
      <trkpt lat="38.33286" lon="38.18279">
        <ele>964.746312</ele>
        <time>2021-11-15T12:21:35.269Z</time>
      </trkpt>
      <trkpt lat="38.33285" lon="38.18266">
        <ele>964.801043</ele>
        <time>2021-11-15T12:21:38.041Z</time>
      </trkpt>
      <trkpt lat="38.33274" lon="38.18111">
        <ele>965.453869</ele>
        <time>2021-11-15T12:22:08.940Z</time>
      </trkpt>
      <trkpt lat="38.33264" lon="38.17639">
        <ele>963.631568</ele>
        <time>2021-11-15T12:23:27.282Z</time>
      </trkpt>
      <trkpt lat="38.33263" lon="38.176">
        <ele>963.553339</ele>
        <time>2021-11-15T12:23:33.961Z</time>
      </trkpt>
      <trkpt lat="38.33262" lon="38.1755">
        <ele>963.47471</ele>
        <time>2021-11-15T12:23:42.421Z</time>
      </trkpt>
      <trkpt lat="38.33259" lon="38.17397">
        <ele>963.300671</ele>
        <time>2021-11-15T12:24:09.530Z</time>
      </trkpt>
      <trkpt lat="38.33258" lon="38.173">
        <ele>963.942043</ele>
        <time>2021-11-15T12:24:28.754Z</time>
      </trkpt>
      <trkpt lat="38.33248" lon="38.17282">
        <ele>964.087882</ele>
        <time>2021-11-15T12:24:33.253Z</time>
      </trkpt>
      <trkpt lat="38.3307" lon="38.17049">
        <ele>967.280733</ele>
        <time>2021-11-15T12:25:47.110Z</time>
      </trkpt>
      <trkpt lat="38.33035" lon="38.16995">
        <ele>967.795913</ele>
        <time>2021-11-15T12:26:03.034Z</time>
      </trkpt>
      <trkpt lat="38.32979" lon="38.16947">
        <ele>968.381977</ele>
        <time>2021-11-15T12:26:21.298Z</time>
      </trkpt>
      <trkpt lat="38.32986" lon="38.16906">
        <ele>968.671556</ele>
        <time>2021-11-15T12:26:29.837Z</time>
      </trkpt>
      <trkpt lat="38.33025" lon="38.1676">
        <ele>968.54426</ele>
        <time>2021-11-15T12:26:58.059Z</time>
      </trkpt>
      <trkpt lat="38.33116" lon="38.1664">
        <ele>967.71512</ele>
        <time>2021-11-15T12:27:24.710Z</time>
      </trkpt>
      <trkpt lat="38.33174" lon="38.1656">
        <ele>966.784797</ele>
        <time>2021-11-15T12:27:41.719Z</time>
      </trkpt>
      <trkpt lat="38.33183" lon="38.16548">
        <ele>966.647237</ele>
        <time>2021-11-15T12:27:44.198Z</time>
      </trkpt>
      <trkpt lat="38.33247" lon="38.16466">
        <ele>965.723256</ele>
        <time>2021-11-15T12:28:02.130Z</time>
      </trkpt>
      <trkpt lat="38.33467" lon="38.16312">
        <ele>963.188913</ele>
        <time>2021-11-15T12:28:53.462Z</time>
      </trkpt>
      <trkpt lat="38.33485" lon="38.16265">
        <ele>962.761496</ele>
        <time>2021-11-15T12:29:01.572Z</time>
      </trkpt>
      <trkpt lat="38.33495" lon="38.16211">
        <ele>962.090037</ele>
        <time>2021-11-15T12:29:10.027Z</time>
      </trkpt>
      <trkpt lat="38.33499" lon="38.1617">
        <ele>961.493764</ele>
        <time>2021-11-15T12:29:16.144Z</time>
      </trkpt>
      <trkpt lat="38.33497" lon="38.1613">
        <ele>960.919149</ele>
        <time>2021-11-15T12:29:22.019Z</time>
      </trkpt>
      <trkpt lat="38.33497" lon="38.16111">
        <ele>960.655067</ele>
        <time>2021-11-15T12:29:24.735Z</time>
      </trkpt>
      <trkpt lat="38.33506" lon="38.161">
        <ele>960.416004</ele>
        <time>2021-11-15T12:29:27.132Z</time>
      </trkpt>
      <trkpt lat="38.33538" lon="38.16077">
        <ele>959.744753</ele>
        <time>2021-11-15T12:29:33.806Z</time>
      </trkpt>
      <trkpt lat="38.33548" lon="38.16066">
        <ele>959.50728</ele>
        <time>2021-11-15T12:29:36.178Z</time>
      </trkpt>
      <trkpt lat="38.33534" lon="38.15992">
        <ele>958.500832</ele>
        <time>2021-11-15T12:29:47.065Z</time>
      </trkpt>
      <trkpt lat="38.33517" lon="38.15941">
        <ele>957.779482</ele>
        <time>2021-11-15T12:29:55.108Z</time>
      </trkpt>
      <trkpt lat="38.33506" lon="38.1592">
        <ele>957.449621</ele>
        <time>2021-11-15T12:29:58.932Z</time>
      </trkpt>
      <trkpt lat="38.33478" lon="38.15865">
        <ele>956.602299</ele>
        <time>2021-11-15T12:30:08.881Z</time>
      </trkpt>
      <trkpt lat="38.33448" lon="38.15824">
        <ele>956.071112</ele>
        <time>2021-11-15T12:30:17.665Z</time>
      </trkpt>
      <trkpt lat="38.33407" lon="38.15774">
        <ele>955.541594</ele>
        <time>2021-11-15T12:30:29.524Z</time>
      </trkpt>
      <trkpt lat="38.33406" lon="38.15756">
        <ele>955.416577</ele>
        <time>2021-11-15T12:30:32.257Z</time>
      </trkpt>
      <trkpt lat="38.33412" lon="38.15742">
        <ele>955.296953</ele>
        <time>2021-11-15T12:30:35.092Z</time>
      </trkpt>
      <trkpt lat="38.33454" lon="38.15687">
        <ele>954.738427</ele>
        <time>2021-11-15T12:30:47.515Z</time>
      </trkpt>
      <trkpt lat="38.33481" lon="38.15647">
        <ele>954.24249</ele>
        <time>2021-11-15T12:30:55.793Z</time>
      </trkpt>
      <trkpt lat="38.33481" lon="38.15622">
        <ele>953.998683</ele>
        <time>2021-11-15T12:30:59.553Z</time>
      </trkpt>
      <trkpt lat="38.33472" lon="38.15567">
        <ele>953.422675</ele>
        <time>2021-11-15T12:31:08.221Z</time>
      </trkpt>
      <trkpt lat="38.33443" lon="38.15459">
        <ele>952.307559</ele>
        <time>2021-11-15T12:31:25.332Z</time>
      </trkpt>
      <trkpt lat="38.33439" lon="38.15425">
        <ele>952.159948</ele>
        <time>2021-11-15T12:31:30.605Z</time>
      </trkpt>
      <trkpt lat="38.33445" lon="38.1537">
        <ele>951.924168</ele>
        <time>2021-11-15T12:31:39.491Z</time>
      </trkpt>
      <trkpt lat="38.33432" lon="38.15353">
        <ele>951.820965</ele>
        <time>2021-11-15T12:31:43.243Z</time>
      </trkpt>
      <trkpt lat="38.3343" lon="38.15351">
        <ele>951.808119</ele>
        <time>2021-11-15T12:31:44.003Z</time>
      </trkpt>
      <trkpt lat="38.33349" lon="38.1528">
        <ele>951.448633</ele>
        <time>2021-11-15T12:32:06.442Z</time>
      </trkpt>
      <trkpt lat="38.33341" lon="38.15272">
        <ele>951.515939</ele>
        <time>2021-11-15T12:32:09.214Z</time>
      </trkpt>
      <trkpt lat="38.33285" lon="38.15221">
        <ele>951.964544</ele>
        <time>2021-11-15T12:32:27.340Z</time>
      </trkpt>
      <trkpt lat="38.33267" lon="38.15206">
        <ele>952.103885</ele>
        <time>2021-11-15T12:32:33.274Z</time>
      </trkpt>
      <trkpt lat="38.33269" lon="38.15202">
        <ele>952.131198</ele>
        <time>2021-11-15T12:32:34.301Z</time>
      </trkpt>
      <trkpt lat="38.33279" lon="38.15184">
        <ele>952.244483</ele>
        <time>2021-11-15T12:32:38.966Z</time>
      </trkpt>
      <trkpt lat="38.33311" lon="38.15132">
        <ele>952.524349</ele>
        <time>2021-11-15T12:32:51.982Z</time>
      </trkpt>
      <trkpt lat="38.33349" lon="38.15068">
        <ele>952.539869</ele>
        <time>2021-11-15T12:33:06.717Z</time>
      </trkpt>
      <trkpt lat="38.33412" lon="38.14961">
        <ele>952.565721</ele>
        <time>2021-11-15T12:33:29.154Z</time>
      </trkpt>
      <trkpt lat="38.33474" lon="38.14856">
        <ele>952.251745</ele>
        <time>2021-11-15T12:33:50.723Z</time>
      </trkpt>
      <trkpt lat="38.33517" lon="38.14784">
        <ele>952.029492</ele>
        <time>2021-11-15T12:34:05.682Z</time>
      </trkpt>
      <trkpt lat="38.3358" lon="38.14671">
        <ele>951.71058</ele>
        <time>2021-11-15T12:34:29.055Z</time>
      </trkpt>
      <trkpt lat="38.33808" lon="38.14297">
        <ele>949.859494</ele>
        <time>2021-11-15T12:35:46.290Z</time>
      </trkpt>
      <trkpt lat="38.33953" lon="38.14056">
        <ele>946.236835</ele>
        <time>2021-11-15T12:36:30.443Z</time>
      </trkpt>
      <trkpt lat="38.33977" lon="38.14017">
        <ele>944.666957</ele>
        <time>2021-11-15T12:36:36.501Z</time>
      </trkpt>
      <trkpt lat="38.34017" lon="38.13952">
        <ele>941.460357</ele>
        <time>2021-11-15T12:36:46.590Z</time>
      </trkpt>
      <trkpt lat="38.34006" lon="38.13925">
        <ele>940.283846</ele>
        <time>2021-11-15T12:36:50.279Z</time>
      </trkpt>
      <trkpt lat="38.33993" lon="38.13884">
        <ele>938.572877</ele>
        <time>2021-11-15T12:36:55.660Z</time>
      </trkpt>
      <trkpt lat="38.33985" lon="38.13825">
        <ele>936.1051</ele>
        <time>2021-11-15T12:37:02.755Z</time>
      </trkpt>
      <trkpt lat="38.33989" lon="38.13805">
        <ele>935.15501</ele>
        <time>2021-11-15T12:37:05.171Z</time>
      </trkpt>
      <trkpt lat="38.34013" lon="38.13774">
        <ele>933.12993</ele>
        <time>2021-11-15T12:37:10.367Z</time>
      </trkpt>
      <trkpt lat="38.34025" lon="38.13749">
        <ele>931.766668</ele>
        <time>2021-11-15T12:37:13.873Z</time>
      </trkpt>
      <trkpt lat="38.34025" lon="38.13693">
        <ele>929.217987</ele>
        <time>2021-11-15T12:37:20.580Z</time>
      </trkpt>
      <trkpt lat="38.34019" lon="38.13685">
        <ele>928.65192</ele>
        <time>2021-11-15T12:37:22.063Z</time>
      </trkpt>
      <trkpt lat="38.33994" lon="38.13685">
        <ele>927.182726</ele>
        <time>2021-11-15T12:37:26.038Z</time>
      </trkpt>
      <trkpt lat="38.33973" lon="38.13673">
        <ele>926.260951</ele>
        <time>2021-11-15T12:37:29.668Z</time>
      </trkpt>
      <trkpt lat="38.33928" lon="38.13633">
        <ele>924.644741</ele>
        <time>2021-11-15T12:37:38.776Z</time>
      </trkpt>
      <trkpt lat="38.33926" lon="38.13621">
        <ele>924.354784</ele>
        <time>2021-11-15T12:37:40.359Z</time>
      </trkpt>
      <trkpt lat="38.33948" lon="38.13579">
        <ele>923.183175</ele>
        <time>2021-11-15T12:37:47.360Z</time>
      </trkpt>
      <trkpt lat="38.33994" lon="38.13519">
        <ele>921.289087</ele>
        <time>2021-11-15T12:37:59.749Z</time>
      </trkpt>
      <trkpt lat="38.34032" lon="38.13439">
        <ele>920.38762</ele>
        <time>2021-11-15T12:38:14.357Z</time>
      </trkpt>
      <trkpt lat="38.34036" lon="38.13422">
        <ele>920.218312</ele>
        <time>2021-11-15T12:38:17.169Z</time>
      </trkpt>
      <trkpt lat="38.34033" lon="38.13404">
        <ele>920.038745</ele>
        <time>2021-11-15T12:38:20.122Z</time>
      </trkpt>
      <trkpt lat="38.34061" lon="38.13316">
        <ele>919.119748</ele>
        <time>2021-11-15T12:38:34.920Z</time>
      </trkpt>
      <trkpt lat="38.34075" lon="38.13237">
        <ele>918.175095</ele>
        <time>2021-11-15T12:38:47.238Z</time>
      </trkpt>
      <trkpt lat="38.34085" lon="38.13215">
        <ele>917.876327</ele>
        <time>2021-11-15T12:38:51.069Z</time>
      </trkpt>
      <trkpt lat="38.34125" lon="38.13146">
        <ele>916.869901</ele>
        <time>2021-11-15T12:39:03.634Z</time>
      </trkpt>
      <trkpt lat="38.34176" lon="38.13084">
        <ele>916.26241</ele>
        <time>2021-11-15T12:39:17.525Z</time>
      </trkpt>
      <trkpt lat="38.34199" lon="38.13058">
        <ele>916.128041</ele>
        <time>2021-11-15T12:39:23.809Z</time>
      </trkpt>
      <trkpt lat="38.34235" lon="38.13043">
        <ele>915.962857</ele>
        <time>2021-11-15T12:39:31.976Z</time>
      </trkpt>
      <trkpt lat="38.34247" lon="38.13029">
        <ele>915.889843</ele>
        <time>2021-11-15T12:39:35.936Z</time>
      </trkpt>
      <trkpt lat="38.34277" lon="38.12983">
        <ele>915.685812</ele>
        <time>2021-11-15T12:39:46.694Z</time>
      </trkpt>
      <trkpt lat="38.34288" lon="38.12955">
        <ele>915.758082</ele>
        <time>2021-11-15T12:39:52.964Z</time>
      </trkpt>
      <trkpt lat="38.34302" lon="38.12881">
        <ele>916.083435</ele>
        <time>2021-11-15T12:40:08.567Z</time>
      </trkpt>
      <trkpt lat="38.3434" lon="38.12811">
        <ele>916.451948</ele>
        <time>2021-11-15T12:40:26.737Z</time>
      </trkpt>
      <trkpt lat="38.3435" lon="38.12744">
        <ele>916.492461</ele>
        <time>2021-11-15T12:40:40.192Z</time>
      </trkpt>
      <trkpt lat="38.34425" lon="38.12528">
        <ele>914.859511</ele>
        <time>2021-11-15T12:41:17.400Z</time>
      </trkpt>
      <trkpt lat="38.3443" lon="38.12515">
        <ele>914.697549</ele>
        <time>2021-11-15T12:41:19.573Z</time>
      </trkpt>
      <trkpt lat="38.34435" lon="38.12502">
        <ele>914.542437</ele>
        <time>2021-11-15T12:41:21.456Z</time>
      </trkpt>
      <trkpt lat="38.34442" lon="38.12386">
        <ele>913.251267</ele>
        <time>2021-11-15T12:41:38.539Z</time>
      </trkpt>
      <trkpt lat="38.3445" lon="38.12336">
        <ele>912.693143</ele>
        <time>2021-11-15T12:41:46.551Z</time>
      </trkpt>
      <trkpt lat="38.34468" lon="38.12296">
        <ele>913.144639</ele>
        <time>2021-11-15T12:41:54.307Z</time>
      </trkpt>
      <trkpt lat="38.34483" lon="38.12275">
        <ele>913.465823</ele>
        <time>2021-11-15T12:41:59.794Z</time>
      </trkpt>
      <trkpt lat="38.34487" lon="38.12271">
        <ele>913.53765</ele>
        <time>2021-11-15T12:42:00.691Z</time>
      </trkpt>
      <trkpt lat="38.34483" lon="38.12264">
        <ele>913.634704</ele>
        <time>2021-11-15T12:42:03.358Z</time>
      </trkpt>
      <trkpt lat="38.34475" lon="38.12177">
        <ele>914.621053</ele>
        <time>2021-11-15T12:42:23.504Z</time>
      </trkpt>
      <trkpt lat="38.34487" lon="38.12052">
        <ele>916.747032</ele>
        <time>2021-11-15T12:43:00.526Z</time>
      </trkpt>
      <trkpt lat="38.34501" lon="38.11956">
        <ele>918.826512</ele>
        <time>2021-11-15T12:43:28.026Z</time>
      </trkpt>
      <trkpt lat="38.34502" lon="38.11934">
        <ele>919.301063</ele>
        <time>2021-11-15T12:43:34.363Z</time>
      </trkpt>
      <trkpt lat="38.34507" lon="38.11901">
        <ele>920.017803</ele>
        <time>2021-11-15T12:43:42.660Z</time>
      </trkpt>
      <trkpt lat="38.34552" lon="38.11658">
        <ele>920.353309</ele>
        <time>2021-11-15T12:44:27.937Z</time>
      </trkpt>
      <trkpt lat="38.34556" lon="38.11642">
        <ele>920.253111</ele>
        <time>2021-11-15T12:44:30.570Z</time>
      </trkpt>
      <trkpt lat="38.34553" lon="38.11623">
        <ele>920.139343</ele>
        <time>2021-11-15T12:44:33.381Z</time>
      </trkpt>
      <trkpt lat="38.34546" lon="38.11541">
        <ele>919.658152</ele>
        <time>2021-11-15T12:44:45.990Z</time>
      </trkpt>
      <trkpt lat="38.3456" lon="38.1146">
        <ele>919.168661</ele>
        <time>2021-11-15T12:44:59.256Z</time>
      </trkpt>
      <trkpt lat="38.34591" lon="38.11325">
        <ele>920.363292</ele>
        <time>2021-11-15T12:45:27.759Z</time>
      </trkpt>
      <trkpt lat="38.34616" lon="38.11121">
        <ele>922.771263</ele>
        <time>2021-11-15T12:46:20.484Z</time>
      </trkpt>
      <trkpt lat="38.34619" lon="38.11023">
        <ele>924.075641</ele>
        <time>2021-11-15T12:46:43.053Z</time>
      </trkpt>
      <trkpt lat="38.34618" lon="38.11003">
        <ele>924.339124</ele>
        <time>2021-11-15T12:46:47.835Z</time>
      </trkpt>
      <trkpt lat="38.34617" lon="38.1099">
        <ele>924.42687</ele>
        <time>2021-11-15T12:46:49.965Z</time>
      </trkpt>
      <trkpt lat="38.34612" lon="38.10911">
        <ele>924.326588</ele>
        <time>2021-11-15T12:47:04.851Z</time>
      </trkpt>
      <trkpt lat="38.34591" lon="38.10752">
        <ele>924.215816</ele>
        <time>2021-11-15T12:47:30.981Z</time>
      </trkpt>
      <trkpt lat="38.34538" lon="38.10513">
        <ele>925.640643</ele>
        <time>2021-11-15T12:48:21.481Z</time>
      </trkpt>
      <trkpt lat="38.34522" lon="38.10404">
        <ele>927.319571</ele>
        <time>2021-11-15T12:48:50.029Z</time>
      </trkpt>
      <trkpt lat="38.34521" lon="38.10383">
        <ele>927.643577</ele>
        <time>2021-11-15T12:48:55.664Z</time>
      </trkpt>
      <trkpt lat="38.34521" lon="38.10364">
        <ele>927.923698</ele>
        <time>2021-11-15T12:49:00.169Z</time>
      </trkpt>
      <trkpt lat="38.34518" lon="38.10335">
        <ele>928.366952</ele>
        <time>2021-11-15T12:49:07.637Z</time>
      </trkpt>
      <trkpt lat="38.34516" lon="38.10319">
        <ele>928.587922</ele>
        <time>2021-11-15T12:49:11.588Z</time>
      </trkpt>
      <trkpt lat="38.34515" lon="38.10306">
        <ele>928.682645</ele>
        <time>2021-11-15T12:49:14.856Z</time>
      </trkpt>
      <trkpt lat="38.3451" lon="38.10207">
        <ele>929.4212</ele>
        <time>2021-11-15T12:49:38.355Z</time>
      </trkpt>
      <trkpt lat="38.34505" lon="38.09924">
        <ele>930.263072</ele>
        <time>2021-11-15T12:50:29.524Z</time>
      </trkpt>
      <trkpt lat="38.34504" lon="38.09858">
        <ele>930.281218</ele>
        <time>2021-11-15T12:50:41.631Z</time>
      </trkpt>
      <trkpt lat="38.34506" lon="38.09843">
        <ele>930.320137</ele>
        <time>2021-11-15T12:50:44.016Z</time>
      </trkpt>
      <trkpt lat="38.34567" lon="38.09387">
        <ele>931.341866</ele>
        <time>2021-11-15T12:52:14.477Z</time>
      </trkpt>
      <trkpt lat="38.3457" lon="38.09156">
        <ele>930.036506</ele>
        <time>2021-11-15T12:52:51.981Z</time>
      </trkpt>
      <trkpt lat="38.34581" lon="38.09097">
        <ele>929.259858</ele>
        <time>2021-11-15T12:53:00.898Z</time>
      </trkpt>
      <trkpt lat="38.34614" lon="38.08998">
        <ele>927.896313</ele>
        <time>2021-11-15T12:53:16.631Z</time>
      </trkpt>
      <trkpt lat="38.34616" lon="38.08991">
        <ele>927.810215</ele>
        <time>2021-11-15T12:53:17.476Z</time>
      </trkpt>
      <trkpt lat="38.34619" lon="38.08982">
        <ele>927.685784</ele>
        <time>2021-11-15T12:53:18.906Z</time>
      </trkpt>
      <trkpt lat="38.34652" lon="38.08875">
        <ele>927.268718</ele>
        <time>2021-11-15T12:53:36.831Z</time>
      </trkpt>
      <trkpt lat="38.34698" lon="38.08746">
        <ele>927.067214</ele>
        <time>2021-11-15T12:54:04.431Z</time>
      </trkpt>
      <trkpt lat="38.34712" lon="38.08713">
        <ele>927.309582</ele>
        <time>2021-11-15T12:54:12.668Z</time>
      </trkpt>
      <trkpt lat="38.34713" lon="38.08701">
        <ele>927.384127</ele>
        <time>2021-11-15T12:54:15.398Z</time>
      </trkpt>
      <trkpt lat="38.34739" lon="38.08641">
        <ele>927.828797</ele>
        <time>2021-11-15T12:54:30.374Z</time>
      </trkpt>
      <trkpt lat="38.34751" lon="38.08625">
        <ele>927.968408</ele>
        <time>2021-11-15T12:54:35.014Z</time>
      </trkpt>
      <trkpt lat="38.34755" lon="38.08615">
        <ele>928.038688</ele>
        <time>2021-11-15T12:54:37.627Z</time>
      </trkpt>
      <trkpt lat="38.3476" lon="38.08612">
        <ele>928.082361</ele>
        <time>2021-11-15T12:54:38.898Z</time>
      </trkpt>
      <trkpt lat="38.34822" lon="38.0849">
        <ele>928.507472</ele>
        <time>2021-11-15T12:55:07.454Z</time>
      </trkpt>
      <trkpt lat="38.34908" lon="38.08362">
        <ele>928.387056</ele>
        <time>2021-11-15T12:55:37.563Z</time>
      </trkpt>
      <trkpt lat="38.35039" lon="38.0814">
        <ele>923.780905</ele>
        <time>2021-11-15T12:56:21.073Z</time>
      </trkpt>
      <trkpt lat="38.35043" lon="38.08128">
        <ele>923.248792</ele>
        <time>2021-11-15T12:56:22.640Z</time>
      </trkpt>
      <trkpt lat="38.35039" lon="38.08103">
        <ele>922.181845</ele>
        <time>2021-11-15T12:56:25.926Z</time>
      </trkpt>
      <trkpt lat="38.35005" lon="38.08055">
        <ele>919.504768</ele>
        <time>2021-11-15T12:56:33.656Z</time>
      </trkpt>
      <trkpt lat="38.34956" lon="38.07899">
        <ele>906.254037</ele>
        <time>2021-11-15T12:56:52.465Z</time>
      </trkpt>
      <trkpt lat="38.34934" lon="38.07867">
        <ele>902.168284</ele>
        <time>2021-11-15T12:56:57.039Z</time>
      </trkpt>
      <trkpt lat="38.34929" lon="38.07793">
        <ele>895.066343</ele>
        <time>2021-11-15T12:57:04.918Z</time>
      </trkpt>
      <trkpt lat="38.34887" lon="38.07705">
        <ele>884.37037</ele>
        <time>2021-11-15T12:57:15.876Z</time>
      </trkpt>
      <trkpt lat="38.34866" lon="38.07638">
        <ele>876.881951</ele>
        <time>2021-11-15T12:57:23.637Z</time>
      </trkpt>
      <trkpt lat="38.34846" lon="38.07605">
        <ele>872.465719</ele>
        <time>2021-11-15T12:57:28.300Z</time>
      </trkpt>
      <trkpt lat="38.3483" lon="38.07545">
        <ele>869.037957</ele>
        <time>2021-11-15T12:57:35.432Z</time>
      </trkpt>
      <trkpt lat="38.3482" lon="38.0753">
        <ele>868.158728</ele>
        <time>2021-11-15T12:57:37.726Z</time>
      </trkpt>
      <trkpt lat="38.34781" lon="38.07518">
        <ele>865.861378</ele>
        <time>2021-11-15T12:57:43.935Z</time>
      </trkpt>
      <trkpt lat="38.34747" lon="38.07493">
        <ele>863.636179</ele>
        <time>2021-11-15T12:57:50.391Z</time>
      </trkpt>
      <trkpt lat="38.34692" lon="38.07477">
        <ele>861.260418</ele>
        <time>2021-11-15T12:58:00.864Z</time>
      </trkpt>
      <trkpt lat="38.34639" lon="38.07439">
        <ele>861.611321</ele>
        <time>2021-11-15T12:58:14.557Z</time>
      </trkpt>
      <trkpt lat="38.34623" lon="38.07414">
        <ele>861.757984</ele>
        <time>2021-11-15T12:58:20.755Z</time>
      </trkpt>
      <trkpt lat="38.34592" lon="38.07339">
        <ele>862.142493</ele>
        <time>2021-11-15T12:58:39.923Z</time>
      </trkpt>
      <trkpt lat="38.34575" lon="38.07312">
        <ele>862.805246</ele>
        <time>2021-11-15T12:58:49.346Z</time>
      </trkpt>
      <trkpt lat="38.34561" lon="38.07257">
        <ele>864.814839</ele>
        <time>2021-11-15T12:59:06.319Z</time>
      </trkpt>
      <trkpt lat="38.34555" lon="38.07251">
        <ele>865.147445</ele>
        <time>2021-11-15T12:59:09.244Z</time>
      </trkpt>
      <trkpt lat="38.34522" lon="38.07265">
        <ele>866.694041</ele>
        <time>2021-11-15T12:59:23.853Z</time>
      </trkpt>
      <trkpt lat="38.34501" lon="38.07263">
        <ele>867.604926</ele>
        <time>2021-11-15T12:59:32.821Z</time>
      </trkpt>
      <trkpt lat="38.34426" lon="38.07231">
        <ele>871.083698</ele>
        <time>2021-11-15T13:00:08.881Z</time>
      </trkpt>
      <trkpt lat="38.34372" lon="38.07218">
        <ele>873.422351</ele>
        <time>2021-11-15T13:00:34.992Z</time>
      </trkpt>
      <trkpt lat="38.34351" lon="38.07202">
        <ele>874.476678</ele>
        <time>2021-11-15T13:00:45.778Z</time>
      </trkpt>
      <trkpt lat="38.3432" lon="38.07195">
        <ele>875.795371</ele>
        <time>2021-11-15T13:00:58.101Z</time>
      </trkpt>
      <trkpt lat="38.34316" lon="38.07159">
        <ele>876.971111</ele>
        <time>2021-11-15T13:01:07.783Z</time>
      </trkpt>
      <trkpt lat="38.34298" lon="38.07143">
        <ele>877.800766</ele>
        <time>2021-11-15T13:01:14.739Z</time>
      </trkpt>
      <trkpt lat="38.34295" lon="38.07107">
        <ele>877.537387</ele>
        <time>2021-11-15T13:01:22.459Z</time>
      </trkpt>
      <trkpt lat="38.34269" lon="38.07097">
        <ele>877.280954</ele>
        <time>2021-11-15T13:01:29.022Z</time>
      </trkpt>
      <trkpt lat="38.34226" lon="38.07056">
        <ele>876.785385</ele>
        <time>2021-11-15T13:01:39.909Z</time>
      </trkpt>
      <trkpt lat="38.3421" lon="38.07005">
        <ele>876.390224</ele>
        <time>2021-11-15T13:01:47.417Z</time>
      </trkpt>
      <trkpt lat="38.34187" lon="38.06906">
        <ele>875.317403</ele>
        <time>2021-11-15T13:02:01.220Z</time>
      </trkpt>
      <trkpt lat="38.34167" lon="38.06903">
        <ele>875.012189</ele>
        <time>2021-11-15T13:02:04.965Z</time>
      </trkpt>
      <trkpt lat="38.34134" lon="38.06875">
        <ele>874.415446</ele>
        <time>2021-11-15T13:02:12.500Z</time>
      </trkpt>
      <trkpt lat="38.34122" lon="38.06844">
        <ele>874.00778</ele>
        <time>2021-11-15T13:02:17.989Z</time>
      </trkpt>
      <trkpt lat="38.34113" lon="38.06807">
        <ele>873.55503</ele>
        <time>2021-11-15T13:02:24.669Z</time>
      </trkpt>
      <trkpt lat="38.341" lon="38.06797">
        <ele>873.529056</ele>
        <time>2021-11-15T13:02:28.213Z</time>
      </trkpt>
      <trkpt lat="38.34088" lon="38.06796">
        <ele>873.680328</ele>
        <time>2021-11-15T13:02:31.538Z</time>
      </trkpt>
      <trkpt lat="38.34065" lon="38.06818">
        <ele>874.029916</ele>
        <time>2021-11-15T13:02:39.911Z</time>
      </trkpt>
      <trkpt lat="38.34051" lon="38.0682">
        <ele>874.189883</ele>
        <time>2021-11-15T13:02:44.183Z</time>
      </trkpt>
      <trkpt lat="38.3404" lon="38.06803">
        <ele>874.401973</ele>
        <time>2021-11-15T13:02:49.275Z</time>
      </trkpt>
      <trkpt lat="38.34006" lon="38.06796">
        <ele>874.812864</ele>
        <time>2021-11-15T13:03:00.381Z</time>
      </trkpt>
      <trkpt lat="38.33947" lon="38.06745">
        <ele>875.447523</ele>
        <time>2021-11-15T13:03:21.468Z</time>
      </trkpt>
      <trkpt lat="38.33933" lon="38.06722">
        <ele>874.914779</ele>
        <time>2021-11-15T13:03:27.293Z</time>
      </trkpt>
      <trkpt lat="38.33924" lon="38.0667">
        <ele>873.951573</ele>
        <time>2021-11-15T13:03:35.766Z</time>
      </trkpt>
      <trkpt lat="38.33921" lon="38.0662">
        <ele>873.022832</ele>
        <time>2021-11-15T13:03:43.415Z</time>
      </trkpt>
      <trkpt lat="38.33913" lon="38.06608">
        <ele>872.740452</ele>
        <time>2021-11-15T13:03:45.526Z</time>
      </trkpt>
      <trkpt lat="38.33866" lon="38.06577">
        <ele>871.506337</ele>
        <time>2021-11-15T13:03:53.896Z</time>
      </trkpt>
      <trkpt lat="38.33853" lon="38.06555">
        <ele>870.121448</ele>
        <time>2021-11-15T13:03:57.154Z</time>
      </trkpt>
      <trkpt lat="38.33832" lon="38.06493">
        <ele>866.057501</ele>
        <time>2021-11-15T13:04:05.080Z</time>
      </trkpt>
      <trkpt lat="38.33822" lon="38.06484">
        <ele>865.117659</ele>
        <time>2021-11-15T13:04:06.939Z</time>
      </trkpt>
      <trkpt lat="38.33804" lon="38.06483">
        <ele>863.795887</ele>
        <time>2021-11-15T13:04:09.449Z</time>
      </trkpt>
      <trkpt lat="38.3382" lon="38.06459">
        <ele>861.920671</ele>
        <time>2021-11-15T13:04:13.001Z</time>
      </trkpt>
      <trkpt lat="38.33873" lon="38.06383">
        <ele>856.684681</ele>
        <time>2021-11-15T13:04:24.601Z</time>
      </trkpt>
      <trkpt lat="38.33873" lon="38.06369">
        <ele>856.235704</ele>
        <time>2021-11-15T13:04:26.135Z</time>
      </trkpt>
      <trkpt lat="38.33939" lon="38.06308">
        <ele>852.913767</ele>
        <time>2021-11-15T13:04:38.168Z</time>
      </trkpt>
      <trkpt lat="38.33994" lon="38.06267">
        <ele>850.282007</ele>
        <time>2021-11-15T13:04:49.653Z</time>
      </trkpt>
      <trkpt lat="38.34139" lon="38.06141">
        <ele>857.98278</ele>
        <time>2021-11-15T13:06:03.375Z</time>
      </trkpt>
      <trkpt lat="38.34157" lon="38.06126">
        <ele>859.329077</ele>
        <time>2021-11-15T13:06:15.242Z</time>
      </trkpt>
      <trkpt lat="38.34321" lon="38.0598">
        <ele>872.289779</ele>
        <time>2021-11-15T13:07:53.917Z</time>
      </trkpt>
      <trkpt lat="38.34402" lon="38.059">
        <ele>878.268802</ele>
        <time>2021-11-15T13:08:41.612Z</time>
      </trkpt>
      <trkpt lat="38.34479" lon="38.05813">
        <ele>882.007706</ele>
        <time>2021-11-15T13:09:23.898Z</time>
      </trkpt>
      <trkpt lat="38.34527" lon="38.05746">
        <ele>883.554511</ele>
        <time>2021-11-15T13:09:46.055Z</time>
      </trkpt>
      <trkpt lat="38.34652" lon="38.05543">
        <ele>883.106204</ele>
        <time>2021-11-15T13:10:24.424Z</time>
      </trkpt>
      <trkpt lat="38.34706" lon="38.05454">
        <ele>883.639072</ele>
        <time>2021-11-15T13:10:42.317Z</time>
      </trkpt>
      <trkpt lat="38.34793" lon="38.05312">
        <ele>886.002769</ele>
        <time>2021-11-15T13:11:25.048Z</time>
      </trkpt>
      <trkpt lat="38.34957" lon="38.04999">
        <ele>898.614603</ele>
        <time>2021-11-15T13:13:24.063Z</time>
      </trkpt>
      <trkpt lat="38.35097" lon="38.04732">
        <ele>910.936512</ele>
        <time>2021-11-15T13:15:08.401Z</time>
      </trkpt>
      <trkpt lat="38.35148" lon="38.04644">
        <ele>915.698628</ele>
        <time>2021-11-15T13:15:47.650Z</time>
      </trkpt>
      <trkpt lat="38.35178" lon="38.04593">
        <ele>918.452635</ele>
        <time>2021-11-15T13:16:10.189Z</time>
      </trkpt>
      <trkpt lat="38.35184" lon="38.04582">
        <ele>919.019187</ele>
        <time>2021-11-15T13:16:15.479Z</time>
      </trkpt>
      <trkpt lat="38.35236" lon="38.04476">
        <ele>923.281046</ele>
        <time>2021-11-15T13:16:56.731Z</time>
      </trkpt>
      <trkpt lat="38.35245" lon="38.04454">
        <ele>924.107164</ele>
        <time>2021-11-15T13:17:04.853Z</time>
      </trkpt>
      <trkpt lat="38.35244" lon="38.04438">
        <ele>924.678034</ele>
        <time>2021-11-15T13:17:09.556Z</time>
      </trkpt>
      <trkpt lat="38.35236" lon="38.04424">
        <ele>925.2443</ele>
        <time>2021-11-15T13:17:15.157Z</time>
      </trkpt>
      <trkpt lat="38.35216" lon="38.04412">
        <ele>926.218253</ele>
        <time>2021-11-15T13:17:22.681Z</time>
      </trkpt>
      <trkpt lat="38.35196" lon="38.04391">
        <ele>927.026643</ele>
        <time>2021-11-15T13:17:31.158Z</time>
      </trkpt>
      <trkpt lat="38.35102" lon="38.04178">
        <ele>930.172642</ele>
        <time>2021-11-15T13:18:24.973Z</time>
      </trkpt>
      <trkpt lat="38.34763" lon="38.03378">
        <ele>938.050052</ele>
        <time>2021-11-15T13:21:34.783Z</time>
      </trkpt>
      <trkpt lat="38.347" lon="38.03221">
        <ele>939.088473</ele>
        <time>2021-11-15T13:22:11.737Z</time>
      </trkpt>
      <trkpt lat="38.34649" lon="38.03093">
        <ele>937.803537</ele>
        <time>2021-11-15T13:22:34.132Z</time>
      </trkpt>
      <trkpt lat="38.34571" lon="38.02899">
        <ele>934.726107</ele>
        <time>2021-11-15T13:23:02.676Z</time>
      </trkpt>
      <trkpt lat="38.3453" lon="38.02776">
        <ele>932.77421</ele>
        <time>2021-11-15T13:23:21.449Z</time>
      </trkpt>
      <trkpt lat="38.345" lon="38.02666">
        <ele>933.35966</ele>
        <time>2021-11-15T13:23:42.568Z</time>
      </trkpt>
      <trkpt lat="38.34471" lon="38.02468">
        <ele>935.502163</ele>
        <time>2021-11-15T13:24:28.763Z</time>
      </trkpt>
      <trkpt lat="38.34466" lon="38.0238">
        <ele>937.018963</ele>
        <time>2021-11-15T13:24:50.883Z</time>
      </trkpt>
      <trkpt lat="38.34462" lon="38.0194">
        <ele>945.511807</ele>
        <time>2021-11-15T13:26:42.184Z</time>
      </trkpt>
      <trkpt lat="38.34458" lon="38.01009">
        <ele>964.030015</ele>
        <time>2021-11-15T13:30:37.997Z</time>
      </trkpt>
      <trkpt lat="38.34456" lon="38.00756">
        <ele>969.513194</ele>
        <time>2021-11-15T13:31:44.857Z</time>
      </trkpt>
      <trkpt lat="38.34455" lon="38.00579">
        <ele>973.026137</ele>
        <time>2021-11-15T13:32:30.234Z</time>
      </trkpt>
      <trkpt lat="38.34455" lon="38.00318">
        <ele>977.7499</ele>
        <time>2021-11-15T13:33:34.048Z</time>
      </trkpt>
      <trkpt lat="38.34454" lon="38.00111">
        <ele>981.561395</ele>
        <time>2021-11-15T13:34:25.087Z</time>
      </trkpt>
      <trkpt lat="38.34454" lon="37.99871">
        <ele>986.159694</ele>
        <time>2021-11-15T13:35:25.799Z</time>
      </trkpt>
      <trkpt lat="38.34453" lon="37.99715">
        <ele>989.05875</ele>
        <time>2021-11-15T13:36:04.603Z</time>
      </trkpt>
      <trkpt lat="38.34451" lon="37.99542">
        <ele>992.244787</ele>
        <time>2021-11-15T13:36:47.029Z</time>
      </trkpt>
      <trkpt lat="38.3445" lon="37.99386">
        <ele>995.195335</ele>
        <time>2021-11-15T13:37:26.076Z</time>
      </trkpt>
      <trkpt lat="38.34449" lon="37.99276">
        <ele>997.413761</ele>
        <time>2021-11-15T13:37:54.484Z</time>
      </trkpt>
      <trkpt lat="38.34447" lon="37.98893">
        <ele>1005.332588</ele>
        <time>2021-11-15T13:39:33.082Z</time>
      </trkpt>
      <trkpt lat="38.34446" lon="37.98489">
        <ele>1014.523609</ele>
        <time>2021-11-15T13:41:18.819Z</time>
      </trkpt>
      <trkpt lat="38.34446" lon="37.9847">
        <ele>1014.980734</ele>
        <time>2021-11-15T13:41:24.344Z</time>
      </trkpt>
      <trkpt lat="38.34448" lon="37.98236">
        <ele>1021.785365</ele>
        <time>2021-11-15T13:42:33.420Z</time>
      </trkpt>
      <trkpt lat="38.34446" lon="37.97999">
        <ele>1028.760861</ele>
        <time>2021-11-15T13:43:43.287Z</time>
      </trkpt>
      <trkpt lat="38.34446" lon="37.97978">
        <ele>1029.354136</ele>
        <time>2021-11-15T13:43:49.070Z</time>
      </trkpt>
      <trkpt lat="38.34446" lon="37.9772">
        <ele>1036.214364</ele>
        <time>2021-11-15T13:45:01.702Z</time>
      </trkpt>
      <trkpt lat="38.34447" lon="37.97559">
        <ele>1040.217271</ele>
        <time>2021-11-15T13:45:45.213Z</time>
      </trkpt>
      <trkpt lat="38.34447" lon="37.97534">
        <ele>1040.856564</ele>
        <time>2021-11-15T13:45:52.217Z</time>
      </trkpt>
      <trkpt lat="38.34447" lon="37.97523">
        <ele>1041.118781</ele>
        <time>2021-11-15T13:45:55.084Z</time>
      </trkpt>
      <trkpt lat="38.34448" lon="37.97475">
        <ele>1042.381448</ele>
        <time>2021-11-15T13:46:08.304Z</time>
      </trkpt>
      <trkpt lat="38.3445" lon="37.97418">
        <ele>1043.910923</ele>
        <time>2021-11-15T13:46:24.438Z</time>
      </trkpt>
      <trkpt lat="38.34452" lon="37.97305">
        <ele>1046.911406</ele>
        <time>2021-11-15T13:46:56.156Z</time>
      </trkpt>
      <trkpt lat="38.34452" lon="37.97224">
        <ele>1049.161616</ele>
        <time>2021-11-15T13:47:19.751Z</time>
      </trkpt>
      <trkpt lat="38.3445" lon="37.97128">
        <ele>1051.849629</ele>
        <time>2021-11-15T13:47:47.760Z</time>
      </trkpt>
      <trkpt lat="38.34449" lon="37.97107">
        <ele>1052.419028</ele>
        <time>2021-11-15T13:47:53.715Z</time>
      </trkpt>
      <trkpt lat="38.34451" lon="37.97097">
        <ele>1052.72911</ele>
        <time>2021-11-15T13:47:56.946Z</time>
      </trkpt>
      <trkpt lat="38.3448" lon="37.97013">
        <ele>1054.978105</ele>
        <time>2021-11-15T13:48:22.123Z</time>
      </trkpt>
      <trkpt lat="38.34501" lon="37.96969">
        <ele>1056.109536</ele>
        <time>2021-11-15T13:48:35.788Z</time>
      </trkpt>
      <trkpt lat="38.34504" lon="37.96955">
        <ele>1056.428267</ele>
        <time>2021-11-15T13:48:39.412Z</time>
      </trkpt>
      <trkpt lat="38.34512" lon="37.96925">
        <ele>1057.123554</ele>
        <time>2021-11-15T13:48:47.865Z</time>
      </trkpt>
      <trkpt lat="38.34536" lon="37.96803">
        <ele>1059.845489</ele>
        <time>2021-11-15T13:49:19.275Z</time>
      </trkpt>
      <trkpt lat="38.34536" lon="37.96803">
        <ele>1059.845489</ele>
        <time>2021-11-15T13:49:19.390Z</time>
      </trkpt>
      <trkpt lat="38.34547" lon="37.96745">
        <ele>1061.094345</ele>
        <time>2021-11-15T13:49:33.171Z</time>
      </trkpt>
      <trkpt lat="38.34552" lon="37.96718">
        <ele>1061.664851</ele>
        <time>2021-11-15T13:49:39.733Z</time>
      </trkpt>
      <trkpt lat="38.34553" lon="37.96713">
        <ele>1061.776547</ele>
        <time>2021-11-15T13:49:41.484Z</time>
      </trkpt>
      <trkpt lat="38.34561" lon="37.96697">
        <ele>1062.168017</ele>
        <time>2021-11-15T13:49:46.157Z</time>
      </trkpt>
      <trkpt lat="38.34565" lon="37.96691">
        <ele>1062.317025</ele>
        <time>2021-11-15T13:49:48.049Z</time>
      </trkpt>
      <trkpt lat="38.34578" lon="37.96683">
        <ele>1062.696749</ele>
        <time>2021-11-15T13:49:52.700Z</time>
      </trkpt>
      <trkpt lat="38.34616" lon="37.96676">
        <ele>1063.899922</ele>
        <time>2021-11-15T13:50:06.728Z</time>
      </trkpt>
      <trkpt lat="38.34661" lon="37.96676">
        <ele>1066.601957</ele>
        <time>2021-11-15T13:50:23.219Z</time>
      </trkpt>
      <trkpt lat="38.34709" lon="37.96675">
        <ele>1069.522607</ele>
        <time>2021-11-15T13:50:45.577Z</time>
      </trkpt>
      <trkpt lat="38.34788" lon="37.96662">
        <ele>1074.385691</ele>
        <time>2021-11-15T13:51:25.909Z</time>
      </trkpt>
      <trkpt lat="38.34815" lon="37.96648">
        <ele>1076.890373</ele>
        <time>2021-11-15T13:51:43.180Z</time>
      </trkpt>
      <trkpt lat="38.34827" lon="37.96642">
        <ele>1077.990755</ele>
        <time>2021-11-15T13:51:50.991Z</time>
      </trkpt>
      <trkpt lat="38.34847" lon="37.96625">
        <ele>1080.198952</ele>
        <time>2021-11-15T13:52:05.878Z</time>
      </trkpt>
      <trkpt lat="38.34864" lon="37.96601">
        <ele>1082.452887</ele>
        <time>2021-11-15T13:52:22.306Z</time>
      </trkpt>
      <trkpt lat="38.34877" lon="37.96574">
        <ele>1084.721142</ele>
        <time>2021-11-15T13:52:37.425Z</time>
      </trkpt>
      <trkpt lat="38.34883" lon="37.96532">
        <ele>1087.714206</ele>
        <time>2021-11-15T13:52:57.206Z</time>
      </trkpt>
      <trkpt lat="38.34884" lon="37.96517">
        <ele>1088.790869</ele>
        <time>2021-11-15T13:53:05.444Z</time>
      </trkpt>
      <trkpt lat="38.34886" lon="37.96437">
        <ele>1093.22721</ele>
        <time>2021-11-15T13:53:37.026Z</time>
      </trkpt>
      <trkpt lat="38.34893" lon="37.96402">
        <ele>1094.97407</ele>
        <time>2021-11-15T13:53:50.697Z</time>
      </trkpt>
      <trkpt lat="38.34896" lon="37.96391">
        <ele>1095.542213</ele>
        <time>2021-11-15T13:53:54.898Z</time>
      </trkpt>
      <trkpt lat="38.34902" lon="37.9638">
        <ele>1096.228887</ele>
        <time>2021-11-15T13:54:01.132Z</time>
      </trkpt>
      <trkpt lat="38.34907" lon="37.96369">
        <ele>1096.827285</ele>
        <time>2021-11-15T13:54:05.078Z</time>
      </trkpt>
      <trkpt lat="38.34918" lon="37.96363">
        <ele>1097.566309</ele>
        <time>2021-11-15T13:54:09.718Z</time>
      </trkpt>
      <trkpt lat="38.34924" lon="37.96359">
        <ele>1097.996725</ele>
        <time>2021-11-15T13:54:13.816Z</time>
      </trkpt>
      <trkpt lat="38.35108" lon="37.9636">
        <ele>1108.344664</ele>
        <time>2021-11-15T13:55:29.976Z</time>
      </trkpt>
      <trkpt lat="38.35163" lon="37.96337">
        <ele>1111.41379</ele>
        <time>2021-11-15T13:55:55.628Z</time>
      </trkpt>
      <trkpt lat="38.35191" lon="37.96307">
        <ele>1114.249484</ele>
        <time>2021-11-15T13:56:13.703Z</time>
      </trkpt>
      <trkpt lat="38.35196" lon="37.96302">
        <ele>1114.726343</ele>
        <time>2021-11-15T13:56:18.088Z</time>
      </trkpt>
      <trkpt lat="38.35255" lon="37.96225">
        <ele>1121.226938</ele>
        <time>2021-11-15T13:57:04.089Z</time>
      </trkpt>
      <trkpt lat="38.35279" lon="37.96203">
        <ele>1123.522702</ele>
        <time>2021-11-15T13:57:20.983Z</time>
      </trkpt>
      <trkpt lat="38.35313" lon="37.96183">
        <ele>1126.380531</ele>
        <time>2021-11-15T13:57:41.877Z</time>
      </trkpt>
      <trkpt lat="38.3533" lon="37.96173">
        <ele>1127.766871</ele>
        <time>2021-11-15T13:57:51.750Z</time>
      </trkpt>
      <trkpt lat="38.35392" lon="37.96148">
        <ele>1132.541242</ele>
        <time>2021-11-15T13:58:24.458Z</time>
      </trkpt>
      <trkpt lat="38.35421" lon="37.96128">
        <ele>1134.967133</ele>
        <time>2021-11-15T13:58:41.329Z</time>
      </trkpt>
      <trkpt lat="38.3548" lon="37.96067">
        <ele>1140.807708</ele>
        <time>2021-11-15T13:59:19.533Z</time>
      </trkpt>
      <trkpt lat="38.35497" lon="37.96058">
        <ele>1142.328283</ele>
        <time>2021-11-15T13:59:29.295Z</time>
      </trkpt>
      <trkpt lat="38.35515" lon="37.96057">
        <ele>1143.85036</ele>
        <time>2021-11-15T13:59:38.287Z</time>
      </trkpt>
      <trkpt lat="38.35562" lon="37.96073">
        <ele>1147.87495</ele>
        <time>2021-11-15T14:00:07.230Z</time>
      </trkpt>
      <trkpt lat="38.35592" lon="37.96074">
        <ele>1150.431368</ele>
        <time>2021-11-15T14:00:24.033Z</time>
      </trkpt>
      <trkpt lat="38.35596" lon="37.96073">
        <ele>1150.729902</ele>
        <time>2021-11-15T14:00:27.153Z</time>
      </trkpt>
      <trkpt lat="38.35661" lon="37.96045">
        <ele>1156.557481</ele>
        <time>2021-11-15T14:01:06.071Z</time>
      </trkpt>
      <trkpt lat="38.35672" lon="37.96038">
        <ele>1157.560993</ele>
        <time>2021-11-15T14:01:14.247Z</time>
      </trkpt>
      <trkpt lat="38.35682" lon="37.96031">
        <ele>1158.564505</ele>
        <time>2021-11-15T14:01:20.665Z</time>
      </trkpt>
      <trkpt lat="38.35702" lon="37.96006">
        <ele>1160.944638</ele>
        <time>2021-11-15T14:01:36.995Z</time>
      </trkpt>
      <trkpt lat="38.35771" lon="37.95883">
        <ele>1170.548885</ele>
        <time>2021-11-15T14:02:43.095Z</time>
      </trkpt>
      <trkpt lat="38.35823" lon="37.95764">
        <ele>1177.470055</ele>
        <time>2021-11-15T14:03:32.515Z</time>
      </trkpt>
      <trkpt lat="38.35864" lon="37.95691">
        <ele>1181.961436</ele>
        <time>2021-11-15T14:04:05.099Z</time>
      </trkpt>
      <trkpt lat="38.35914" lon="37.95615">
        <ele>1186.856329</ele>
        <time>2021-11-15T14:04:41.405Z</time>
      </trkpt>
      <trkpt lat="38.35942" lon="37.9555">
        <ele>1190.497134</ele>
        <time>2021-11-15T14:05:08.838Z</time>
      </trkpt>
      <trkpt lat="38.3596" lon="37.95521">
        <ele>1192.463914</ele>
        <time>2021-11-15T14:05:22.982Z</time>
      </trkpt>
      <trkpt lat="38.36012" lon="37.95475">
        <ele>1197.541716</ele>
        <time>2021-11-15T14:05:55.345Z</time>
      </trkpt>
      <trkpt lat="38.36043" lon="37.95442">
        <ele>1200.792829</ele>
        <time>2021-11-15T14:06:17.104Z</time>
      </trkpt>
      <trkpt lat="38.36281" lon="37.95253">
        <ele>1226.021411</ele>
        <time>2021-11-15T14:09:03.907Z</time>
      </trkpt>
      <trkpt lat="38.36331" lon="37.95219">
        <ele>1231.280312</ele>
        <time>2021-11-15T14:09:38.046Z</time>
      </trkpt>
      <trkpt lat="38.36406" lon="37.95186">
        <ele>1238.70452</ele>
        <time>2021-11-15T14:10:25.777Z</time>
      </trkpt>
      <trkpt lat="38.36601" lon="37.95133">
        <ele>1256.400778</ele>
        <time>2021-11-15T14:12:21.076Z</time>
      </trkpt>
      <trkpt lat="38.36642" lon="37.95131">
        <ele>1259.734267</ele>
        <time>2021-11-15T14:12:44.257Z</time>
      </trkpt>
      <trkpt lat="38.36844" lon="37.95171">
        <ele>1275.284645</ele>
        <time>2021-11-15T14:14:33.700Z</time>
      </trkpt>
      <trkpt lat="38.36958" lon="37.95203">
        <ele>1283.003182</ele>
        <time>2021-11-15T14:15:29.609Z</time>
      </trkpt>
      <trkpt lat="38.36992" lon="37.95216">
        <ele>1284.604504</ele>
        <time>2021-11-15T14:15:44.690Z</time>
      </trkpt>
      <trkpt lat="38.37129" lon="37.95278">
        <ele>1291.123145</ele>
        <time>2021-11-15T14:16:40.560Z</time>
      </trkpt>
      <trkpt lat="38.37192" lon="37.95279">
        <ele>1293.845922</ele>
        <time>2021-11-15T14:17:03.304Z</time>
      </trkpt>
      <trkpt lat="38.37227" lon="37.95264">
        <ele>1295.411727</ele>
        <time>2021-11-15T14:17:17.257Z</time>
      </trkpt>
      <trkpt lat="38.37283" lon="37.95219">
        <ele>1298.249645</ele>
        <time>2021-11-15T14:17:44.739Z</time>
      </trkpt>
      <trkpt lat="38.37312" lon="37.95176">
        <ele>1300.876804</ele>
        <time>2021-11-15T14:18:04.834Z</time>
      </trkpt>
      <trkpt lat="38.37327" lon="37.95139">
        <ele>1302.830827</ele>
        <time>2021-11-15T14:18:20.228Z</time>
      </trkpt>
      <trkpt lat="38.37338" lon="37.95096">
        <ele>1304.940524</ele>
        <time>2021-11-15T14:18:37.109Z</time>
      </trkpt>
      <trkpt lat="38.37343" lon="37.95038">
        <ele>1307.637886</ele>
        <time>2021-11-15T14:18:58.693Z</time>
      </trkpt>
      <trkpt lat="38.37336" lon="37.94996">
        <ele>1309.530602</ele>
        <time>2021-11-15T14:19:14.348Z</time>
      </trkpt>
      <trkpt lat="38.37324" lon="37.94957">
        <ele>1311.19408</ele>
        <time>2021-11-15T14:19:29.643Z</time>
      </trkpt>
      <trkpt lat="38.37298" lon="37.94902">
        <ele>1313.735215</ele>
        <time>2021-11-15T14:19:52.233Z</time>
      </trkpt>
      <trkpt lat="38.36865" lon="37.94235">
        <ele>1342.380671</ele>
        <time>2021-11-15T14:24:15.158Z</time>
      </trkpt>
      <trkpt lat="38.36799" lon="37.94157">
        <ele>1345.901545</ele>
        <time>2021-11-15T14:24:49.845Z</time>
      </trkpt>
      <trkpt lat="38.36752" lon="37.94122">
        <ele>1347.769079</ele>
        <time>2021-11-15T14:25:10.061Z</time>
      </trkpt>
      <trkpt lat="38.36322" lon="37.93832">
        <ele>1358.707782</ele>
        <time>2021-11-15T14:27:44.544Z</time>
      </trkpt>
      <trkpt lat="38.36287" lon="37.93779">
        <ele>1359.204049</ele>
        <time>2021-11-15T14:27:55.632Z</time>
      </trkpt>
      <trkpt lat="38.36254" lon="37.93706">
        <ele>1358.899258</ele>
        <time>2021-11-15T14:28:08.192Z</time>
      </trkpt>
      <trkpt lat="38.36243" lon="37.93634">
        <ele>1358.629773</ele>
        <time>2021-11-15T14:28:19.043Z</time>
      </trkpt>
      <trkpt lat="38.36243" lon="37.93601">
        <ele>1358.512717</ele>
        <time>2021-11-15T14:28:23.955Z</time>
      </trkpt>
      <trkpt lat="38.36248" lon="37.93558">
        <ele>1359.409269</ele>
        <time>2021-11-15T14:28:31.518Z</time>
      </trkpt>
      <trkpt lat="38.36261" lon="37.93507">
        <ele>1361.246747</ele>
        <time>2021-11-15T14:28:47.023Z</time>
      </trkpt>
      <trkpt lat="38.36283" lon="37.93451">
        <ele>1363.376546</ele>
        <time>2021-11-15T14:29:07.300Z</time>
      </trkpt>
      <trkpt lat="38.3631" lon="37.93407">
        <ele>1365.304402</ele>
        <time>2021-11-15T14:29:28.133Z</time>
      </trkpt>
      <trkpt lat="38.36335" lon="37.93368">
        <ele>1367.440378</ele>
        <time>2021-11-15T14:29:48.386Z</time>
      </trkpt>
      <trkpt lat="38.3634" lon="37.93359">
        <ele>1368.060767</ele>
        <time>2021-11-15T14:29:54.611Z</time>
      </trkpt>
      <trkpt lat="38.36501" lon="37.93116">
        <ele>1383.477179</ele>
        <time>2021-11-15T14:31:57.872Z</time>
      </trkpt>
      <trkpt lat="38.36535" lon="37.93072">
        <ele>1385.885698</ele>
        <time>2021-11-15T14:32:15.179Z</time>
      </trkpt>
      <trkpt lat="38.36565" lon="37.93046">
        <ele>1387.66587</ele>
        <time>2021-11-15T14:32:27.160Z</time>
      </trkpt>
      <trkpt lat="38.36627" lon="37.9301">
        <ele>1389.375403</ele>
        <time>2021-11-15T14:32:48.264Z</time>
      </trkpt>
      <trkpt lat="38.36742" lon="37.92995">
        <ele>1392.323896</ele>
        <time>2021-11-15T14:33:24.405Z</time>
      </trkpt>
      <trkpt lat="38.36789" lon="37.92973">
        <ele>1394.58533</ele>
        <time>2021-11-15T14:33:42.285Z</time>
      </trkpt>
      <trkpt lat="38.3691" lon="37.92887">
        <ele>1401.030479</ele>
        <time>2021-11-15T14:34:41.045Z</time>
      </trkpt>
      <trkpt lat="38.37007" lon="37.92805">
        <ele>1408.529656</ele>
        <time>2021-11-15T14:35:37.700Z</time>
      </trkpt>
      <trkpt lat="38.37041" lon="37.9276">
        <ele>1411.705542</ele>
        <time>2021-11-15T14:36:02.473Z</time>
      </trkpt>
      <trkpt lat="38.37164" lon="37.92517">
        <ele>1426.261131</ele>
        <time>2021-11-15T14:37:52.507Z</time>
      </trkpt>
      <trkpt lat="38.37245" lon="37.92409">
        <ele>1432.965736</ele>
        <time>2021-11-15T14:38:44.912Z</time>
      </trkpt>
      <trkpt lat="38.37386" lon="37.92237">
        <ele>1442.723564</ele>
        <time>2021-11-15T14:40:06.860Z</time>
      </trkpt>
      <trkpt lat="38.37536" lon="37.92016">
        <ele>1453.161588</ele>
        <time>2021-11-15T14:41:39.528Z</time>
      </trkpt>
      <trkpt lat="38.3756" lon="37.9197">
        <ele>1455.030603</ele>
        <time>2021-11-15T14:41:57.070Z</time>
      </trkpt>
      <trkpt lat="38.37618" lon="37.91806">
        <ele>1460.421235</ele>
        <time>2021-11-15T14:42:51.869Z</time>
      </trkpt>
      <trkpt lat="38.37642" lon="37.91711">
        <ele>1462.729226</ele>
        <time>2021-11-15T14:43:19.044Z</time>
      </trkpt>
      <trkpt lat="38.37766" lon="37.91043">
        <ele>1471.471733</ele>
        <time>2021-11-15T14:45:51.713Z</time>
      </trkpt>
      <trkpt lat="38.37795" lon="37.90895">
        <ele>1471.927214</ele>
        <time>2021-11-15T14:46:21.949Z</time>
      </trkpt>
      <trkpt lat="38.37812" lon="37.90808">
        <ele>1471.704508</ele>
        <time>2021-11-15T14:46:36.370Z</time>
      </trkpt>
      <trkpt lat="38.37817" lon="37.90785">
        <ele>1471.644571</ele>
        <time>2021-11-15T14:46:39.913Z</time>
      </trkpt>
      <trkpt lat="38.37829" lon="37.90722">
        <ele>1470.926401</ele>
        <time>2021-11-15T14:46:49.026Z</time>
      </trkpt>
      <trkpt lat="38.37842" lon="37.90693">
        <ele>1470.303614</ele>
        <time>2021-11-15T14:46:53.632Z</time>
      </trkpt>
      <trkpt lat="38.37845" lon="37.90689">
        <ele>1470.194059</ele>
        <time>2021-11-15T14:46:54.392Z</time>
      </trkpt>
      <trkpt lat="38.3785" lon="37.9068">
        <ele>1469.988103</ele>
        <time>2021-11-15T14:46:55.982Z</time>
      </trkpt>
      <trkpt lat="38.37852" lon="37.9066">
        <ele>1469.622377</ele>
        <time>2021-11-15T14:46:58.610Z</time>
      </trkpt>
      <trkpt lat="38.37844" lon="37.90654">
        <ele>1469.395808</ele>
        <time>2021-11-15T14:47:00.258Z</time>
      </trkpt>
      <trkpt lat="38.37828" lon="37.9064">
        <ele>1468.930726</ele>
        <time>2021-11-15T14:47:03.634Z</time>
      </trkpt>
      <trkpt lat="38.37792" lon="37.90603">
        <ele>1467.836896</ele>
        <time>2021-11-15T14:47:11.370Z</time>
      </trkpt>
      <trkpt lat="38.37747" lon="37.90533">
        <ele>1465.317845</ele>
        <time>2021-11-15T14:47:22.943Z</time>
      </trkpt>
      <trkpt lat="38.37729" lon="37.90478">
        <ele>1463.436517</ele>
        <time>2021-11-15T14:47:30.408Z</time>
      </trkpt>
      <trkpt lat="38.37655" lon="37.89978">
        <ele>1443.507574</ele>
        <time>2021-11-15T14:48:30.761Z</time>
      </trkpt>
      <trkpt lat="38.37628" lon="37.89754">
        <ele>1431.877877</ele>
        <time>2021-11-15T14:48:56.035Z</time>
      </trkpt>
      <trkpt lat="38.37623" lon="37.89696">
        <ele>1428.759452</ele>
        <time>2021-11-15T14:49:02.654Z</time>
      </trkpt>
      <trkpt lat="38.37619" lon="37.89651">
        <ele>1426.82615</ele>
        <time>2021-11-15T14:49:07.939Z</time>
      </trkpt>
      <trkpt lat="38.37615" lon="37.896">
        <ele>1424.701023</ele>
        <time>2021-11-15T14:49:13.849Z</time>
      </trkpt>
      <trkpt lat="38.37604" lon="37.89551">
        <ele>1422.544144</ele>
        <time>2021-11-15T14:49:19.886Z</time>
      </trkpt>
      <trkpt lat="38.37583" lon="37.89502">
        <ele>1420.173637</ele>
        <time>2021-11-15T14:49:26.749Z</time>
      </trkpt>
      <trkpt lat="38.37478" lon="37.89361">
        <ele>1411.196167</ele>
        <time>2021-11-15T14:49:49.303Z</time>
      </trkpt>
      <trkpt lat="38.37445" lon="37.89269">
        <ele>1406.115892</ele>
        <time>2021-11-15T14:50:00.603Z</time>
      </trkpt>
      <trkpt lat="38.37435" lon="37.8922">
        <ele>1403.357311</ele>
        <time>2021-11-15T14:50:06.216Z</time>
      </trkpt>
      <trkpt lat="38.37429" lon="37.89143">
        <ele>1399.077088</ele>
        <time>2021-11-15T14:50:14.894Z</time>
      </trkpt>
      <trkpt lat="38.37429" lon="37.89032">
        <ele>1392.87957</ele>
        <time>2021-11-15T14:50:27.446Z</time>
      </trkpt>
      <trkpt lat="38.37438" lon="37.88914">
        <ele>1386.242112</ele>
        <time>2021-11-15T14:50:40.662Z</time>
      </trkpt>
      <trkpt lat="38.37444" lon="37.88858">
        <ele>1383.059119</ele>
        <time>2021-11-15T14:50:47.007Z</time>
      </trkpt>
      <trkpt lat="38.37445" lon="37.88849">
        <ele>1382.579547</ele>
        <time>2021-11-15T14:50:47.934Z</time>
      </trkpt>
      <trkpt lat="38.37455" lon="37.88787">
        <ele>1379.065433</ele>
        <time>2021-11-15T14:50:54.948Z</time>
      </trkpt>
      <trkpt lat="38.37557" lon="37.88287">
        <ele>1350.826496</ele>
        <time>2021-11-15T14:51:52.898Z</time>
      </trkpt>
      <trkpt lat="38.37552" lon="37.8824">
        <ele>1348.38454</ele>
        <time>2021-11-15T14:51:58.322Z</time>
      </trkpt>
      <trkpt lat="38.37548" lon="37.88211">
        <ele>1346.862333</ele>
        <time>2021-11-15T14:52:01.718Z</time>
      </trkpt>
      <trkpt lat="38.37543" lon="37.88194">
        <ele>1345.905073</ele>
        <time>2021-11-15T14:52:03.868Z</time>
      </trkpt>
      <trkpt lat="38.37528" lon="37.88158">
        <ele>1344.293427</ele>
        <time>2021-11-15T14:52:08.521Z</time>
      </trkpt>
      <trkpt lat="38.37489" lon="37.88092">
        <ele>1341.395667</ele>
        <time>2021-11-15T14:52:18.098Z</time>
      </trkpt>
      <trkpt lat="38.37447" lon="37.8803">
        <ele>1338.522415</ele>
        <time>2021-11-15T14:52:28.181Z</time>
      </trkpt>
      <trkpt lat="38.37442" lon="37.88022">
        <ele>1338.144721</ele>
        <time>2021-11-15T14:52:29.427Z</time>
      </trkpt>
      <trkpt lat="38.37405" lon="37.87955">
        <ele>1337.33227</ele>
        <time>2021-11-15T14:52:40.789Z</time>
      </trkpt>
      <trkpt lat="38.37381" lon="37.87897">
        <ele>1337.406075</ele>
        <time>2021-11-15T14:52:50.706Z</time>
      </trkpt>
      <trkpt lat="38.37349" lon="37.87785">
        <ele>1338.00217</ele>
        <time>2021-11-15T14:53:18.801Z</time>
      </trkpt>
      <trkpt lat="38.37343" lon="37.87726">
        <ele>1340.225151</ele>
        <time>2021-11-15T14:53:36.681Z</time>
      </trkpt>
      <trkpt lat="38.37343" lon="37.87672">
        <ele>1342.235692</ele>
        <time>2021-11-15T14:53:54.437Z</time>
      </trkpt>
      <trkpt lat="38.37357" lon="37.87312">
        <ele>1357.539013</ele>
        <time>2021-11-15T14:56:04.612Z</time>
      </trkpt>
      <trkpt lat="38.3735" lon="37.87258">
        <ele>1359.307043</ele>
        <time>2021-11-15T14:56:21.923Z</time>
      </trkpt>
      <trkpt lat="38.37338" lon="37.87204">
        <ele>1361.13989</ele>
        <time>2021-11-15T14:56:38.723Z</time>
      </trkpt>
      <trkpt lat="38.37293" lon="37.87107">
        <ele>1364.734959</ele>
        <time>2021-11-15T14:57:10.012Z</time>
      </trkpt>
      <trkpt lat="38.37255" lon="37.87044">
        <ele>1367.03235</ele>
        <time>2021-11-15T14:57:31.259Z</time>
      </trkpt>
      <trkpt lat="38.37178" lon="37.86958">
        <ele>1370.872079</ele>
        <time>2021-11-15T14:58:10.092Z</time>
      </trkpt>
      <trkpt lat="38.37128" lon="37.8689">
        <ele>1374.162225</ele>
        <time>2021-11-15T14:58:41.353Z</time>
      </trkpt>
      <trkpt lat="38.37053" lon="37.86758">
        <ele>1378.818315</ele>
        <time>2021-11-15T14:59:34.452Z</time>
      </trkpt>
      <trkpt lat="38.37005" lon="37.86642">
        <ele>1378.38665</ele>
        <time>2021-11-15T15:00:01.608Z</time>
      </trkpt>
      <trkpt lat="38.36969" lon="37.8649">
        <ele>1371.802753</ele>
        <time>2021-11-15T15:00:19.986Z</time>
      </trkpt>
      <trkpt lat="38.36965" lon="37.86471">
        <ele>1370.406633</ele>
        <time>2021-11-15T15:00:22.044Z</time>
      </trkpt>
      <trkpt lat="38.36947" lon="37.86423">
        <ele>1366.616599</ele>
        <time>2021-11-15T15:00:27.686Z</time>
      </trkpt>
      <trkpt lat="38.36849" lon="37.86247">
        <ele>1350.8073</ele>
        <time>2021-11-15T15:00:50.251Z</time>
      </trkpt>
      <trkpt lat="38.36807" lon="37.86186">
        <ele>1344.872776</ele>
        <time>2021-11-15T15:00:59.109Z</time>
      </trkpt>
      <trkpt lat="38.36528" lon="37.85938">
        <ele>1341.869387</ele>
        <time>2021-11-15T15:02:06.751Z</time>
      </trkpt>
      <trkpt lat="38.36435" lon="37.85845">
        <ele>1345.608291</ele>
        <time>2021-11-15T15:02:48.354Z</time>
      </trkpt>
      <trkpt lat="38.36426" lon="37.85837">
        <ele>1346.018544</ele>
        <time>2021-11-15T15:02:53.071Z</time>
      </trkpt>
      <trkpt lat="38.36394" lon="37.85807">
        <ele>1347.531695</ele>
        <time>2021-11-15T15:03:09.275Z</time>
      </trkpt>
      <trkpt lat="38.36343" lon="37.8574">
        <ele>1351.29027</ele>
        <time>2021-11-15T15:03:41.539Z</time>
      </trkpt>
      <trkpt lat="38.36323" lon="37.85692">
        <ele>1353.858269</ele>
        <time>2021-11-15T15:04:01.453Z</time>
      </trkpt>
      <trkpt lat="38.36311" lon="37.85638">
        <ele>1356.532284</ele>
        <time>2021-11-15T15:04:22.187Z</time>
      </trkpt>
      <trkpt lat="38.36291" lon="37.8545">
        <ele>1366.040797</ele>
        <time>2021-11-15T15:05:35.030Z</time>
      </trkpt>
      <trkpt lat="38.36265" lon="37.85399">
        <ele>1369.142567</ele>
        <time>2021-11-15T15:05:58.151Z</time>
      </trkpt>
      <trkpt lat="38.36238" lon="37.8536">
        <ele>1371.786679</ele>
        <time>2021-11-15T15:06:17.728Z</time>
      </trkpt>
      <trkpt lat="38.36204" lon="37.85331">
        <ele>1374.302698</ele>
        <time>2021-11-15T15:06:37.247Z</time>
      </trkpt>
      <trkpt lat="38.36109" lon="37.85288">
        <ele>1380.359805</ele>
        <time>2021-11-15T15:07:22.886Z</time>
      </trkpt>
      <trkpt lat="38.3608" lon="37.85268">
        <ele>1382.363665</ele>
        <time>2021-11-15T15:07:37.996Z</time>
      </trkpt>
      <trkpt lat="38.36035" lon="37.85213">
        <ele>1386.722032</ele>
        <time>2021-11-15T15:08:07.103Z</time>
      </trkpt>
      <trkpt lat="38.35935" lon="37.85048">
        <ele>1399.019464</ele>
        <time>2021-11-15T15:09:32.960Z</time>
      </trkpt>
      <trkpt lat="38.35802" lon="37.84811">
        <ele>1418.675005</ele>
        <time>2021-11-15T15:11:47.139Z</time>
      </trkpt>
      <trkpt lat="38.35776" lon="37.84756">
        <ele>1422.99667</ele>
        <time>2021-11-15T15:12:15.333Z</time>
      </trkpt>
      <trkpt lat="38.35748" lon="37.84675">
        <ele>1428.334009</ele>
        <time>2021-11-15T15:12:51.789Z</time>
      </trkpt>
      <trkpt lat="38.35725" lon="37.84585">
        <ele>1433.558934</ele>
        <time>2021-11-15T15:13:28.863Z</time>
      </trkpt>
      <trkpt lat="38.35705" lon="37.8454">
        <ele>1436.434646</ele>
        <time>2021-11-15T15:13:48.646Z</time>
      </trkpt>
      <trkpt lat="38.35675" lon="37.84493">
        <ele>1439.845837</ele>
        <time>2021-11-15T15:14:11.780Z</time>
      </trkpt>
      <trkpt lat="38.35528" lon="37.84304">
        <ele>1455.873559</ele>
        <time>2021-11-15T15:15:59.047Z</time>
      </trkpt>
      <trkpt lat="38.35386" lon="37.84157">
        <ele>1473.31828</ele>
        <time>2021-11-15T15:17:53.297Z</time>
      </trkpt>
      <trkpt lat="38.35364" lon="37.84127">
        <ele>1476.579462</ele>
        <time>2021-11-15T15:18:14.175Z</time>
      </trkpt>
      <trkpt lat="38.35349" lon="37.84087">
        <ele>1480.161297</ele>
        <time>2021-11-15T15:18:36.801Z</time>
      </trkpt>
      <trkpt lat="38.35342" lon="37.84053">
        <ele>1482.963236</ele>
        <time>2021-11-15T15:18:54.369Z</time>
      </trkpt>
      <trkpt lat="38.35346" lon="37.83966">
        <ele>1489.521892</ele>
        <time>2021-11-15T15:19:37.068Z</time>
      </trkpt>
      <trkpt lat="38.35397" lon="37.83836">
        <ele>1499.814225</ele>
        <time>2021-11-15T15:20:42.644Z</time>
      </trkpt>
      <trkpt lat="38.35443" lon="37.8374">
        <ele>1507.486712</ele>
        <time>2021-11-15T15:21:31.584Z</time>
      </trkpt>
      <trkpt lat="38.35451" lon="37.83692">
        <ele>1510.778837</ele>
        <time>2021-11-15T15:21:53.230Z</time>
      </trkpt>
      <trkpt lat="38.35451" lon="37.83647">
        <ele>1513.788489</ele>
        <time>2021-11-15T15:22:13.082Z</time>
      </trkpt>
      <trkpt lat="38.35445" lon="37.83592">
        <ele>1517.509772</ele>
        <time>2021-11-15T15:22:38.051Z</time>
      </trkpt>
      <trkpt lat="38.35409" lon="37.83494">
        <ele>1524.777136</ele>
        <time>2021-11-15T15:23:27.849Z</time>
      </trkpt>
      <trkpt lat="38.35365" lon="37.83444">
        <ele>1529.823893</ele>
        <time>2021-11-15T15:24:02.623Z</time>
      </trkpt>
      <trkpt lat="38.35246" lon="37.83331">
        <ele>1539.955846</ele>
        <time>2021-11-15T15:25:18.052Z</time>
      </trkpt>
      <trkpt lat="38.35078" lon="37.83193">
        <ele>1550.789128</ele>
        <time>2021-11-15T15:26:38.571Z</time>
      </trkpt>
      <trkpt lat="38.35063" lon="37.83177">
        <ele>1551.795494</ele>
        <time>2021-11-15T15:26:46.980Z</time>
      </trkpt>
      <trkpt lat="38.34973" lon="37.83082">
        <ele>1559.462286</ele>
        <time>2021-11-15T15:27:42.678Z</time>
      </trkpt>
      <trkpt lat="38.34862" lon="37.83005">
        <ele>1568.599855</ele>
        <time>2021-11-15T15:28:51.890Z</time>
      </trkpt>
      <trkpt lat="38.34763" lon="37.82937">
        <ele>1576.838087</ele>
        <time>2021-11-15T15:29:51.720Z</time>
      </trkpt>
      <trkpt lat="38.34613" lon="37.82846">
        <ele>1586.347835</ele>
        <time>2021-11-15T15:31:07.551Z</time>
      </trkpt>
      <trkpt lat="38.34517" lon="37.82789">
        <ele>1590.3642</ele>
        <time>2021-11-15T15:31:47.054Z</time>
      </trkpt>
      <trkpt lat="38.34488" lon="37.82773">
        <ele>1591.105452</ele>
        <time>2021-11-15T15:31:57.471Z</time>
      </trkpt>
      <trkpt lat="38.34269" lon="37.82646">
        <ele>1595.229583</ele>
        <time>2021-11-15T15:33:03.540Z</time>
      </trkpt>
      <trkpt lat="38.34219" lon="37.82591">
        <ele>1596.57369</ele>
        <time>2021-11-15T15:33:21.202Z</time>
      </trkpt>
      <trkpt lat="38.34167" lon="37.82505">
        <ele>1598.936501</ele>
        <time>2021-11-15T15:33:47.076Z</time>
      </trkpt>
      <trkpt lat="38.3412" lon="37.82387">
        <ele>1603.448884</ele>
        <time>2021-11-15T15:34:28.204Z</time>
      </trkpt>
      <trkpt lat="38.3401" lon="37.82002">
        <ele>1625.916088</ele>
        <time>2021-11-15T15:37:17.891Z</time>
      </trkpt>
      <trkpt lat="38.33931" lon="37.8181">
        <ele>1632.665479</ele>
        <time>2021-11-15T15:38:25.983Z</time>
      </trkpt>
      <trkpt lat="38.33872" lon="37.81716">
        <ele>1630.062186</ele>
        <time>2021-11-15T15:38:42.616Z</time>
      </trkpt>
      <trkpt lat="38.33763" lon="37.81563">
        <ele>1623.909831</ele>
        <time>2021-11-15T15:39:06.480Z</time>
      </trkpt>
      <trkpt lat="38.33558" lon="37.81244">
        <ele>1611.398594</ele>
        <time>2021-11-15T15:39:57.849Z</time>
      </trkpt>
      <trkpt lat="38.3348" lon="37.81145">
        <ele>1608.326152</ele>
        <time>2021-11-15T15:40:16.274Z</time>
      </trkpt>
      <trkpt lat="38.33163" lon="37.8077">
        <ele>1600.508925</ele>
        <time>2021-11-15T15:41:32.272Z</time>
      </trkpt>
      <trkpt lat="38.3304" lon="37.80584">
        <ele>1605.13556</ele>
        <time>2021-11-15T15:42:25.317Z</time>
      </trkpt>
      <trkpt lat="38.32935" lon="37.80416">
        <ele>1618.774979</ele>
        <time>2021-11-15T15:44:07.264Z</time>
      </trkpt>
      <trkpt lat="38.3287" lon="37.80279">
        <ele>1632.626352</ele>
        <time>2021-11-15T15:45:38.974Z</time>
      </trkpt>
      <trkpt lat="38.32796" lon="37.80106">
        <ele>1643.078707</ele>
        <time>2021-11-15T15:47:01.856Z</time>
      </trkpt>
      <trkpt lat="38.32581" lon="37.7973">
        <ele>1650.776691</ele>
        <time>2021-11-15T15:48:30.091Z</time>
      </trkpt>
      <trkpt lat="38.32491" lon="37.79526">
        <ele>1665.020529</ele>
        <time>2021-11-15T15:50:17.164Z</time>
      </trkpt>
      <trkpt lat="38.32416" lon="37.79356">
        <ele>1678.970079</ele>
        <time>2021-11-15T15:51:57.606Z</time>
      </trkpt>
      <trkpt lat="38.3235" lon="37.79139">
        <ele>1691.121825</ele>
        <time>2021-11-15T15:53:24.070Z</time>
      </trkpt>
      <trkpt lat="38.32329" lon="37.79017">
        <ele>1695.559054</ele>
        <time>2021-11-15T15:54:00.063Z</time>
      </trkpt>
      <trkpt lat="38.32325" lon="37.78849">
        <ele>1699.819902</ele>
        <time>2021-11-15T15:54:45.835Z</time>
      </trkpt>
      <trkpt lat="38.32367" lon="37.785">
        <ele>1707.274366</ele>
        <time>2021-11-15T15:56:19.014Z</time>
      </trkpt>
      <trkpt lat="38.32404" lon="37.78342">
        <ele>1709.27174</ele>
        <time>2021-11-15T15:56:57.327Z</time>
      </trkpt>
      <trkpt lat="38.32714" lon="37.76697">
        <ele>1705.399317</ele>
        <time>2021-11-15T16:01:53.323Z</time>
      </trkpt>
      <trkpt lat="38.32763" lon="37.76572">
        <ele>1701.301305</ele>
        <time>2021-11-15T16:02:11.703Z</time>
      </trkpt>
      <trkpt lat="38.32817" lon="37.76448">
        <ele>1692.971101</ele>
        <time>2021-11-15T16:02:27.204Z</time>
      </trkpt>
      <trkpt lat="38.32839" lon="37.76409">
        <ele>1690.026549</ele>
        <time>2021-11-15T16:02:32.303Z</time>
      </trkpt>
      <trkpt lat="38.32936" lon="37.76246">
        <ele>1675.00869</ele>
        <time>2021-11-15T16:02:54.115Z</time>
      </trkpt>
      <trkpt lat="38.33189" lon="37.75863">
        <ele>1654.398638</ele>
        <time>2021-11-15T16:03:53.732Z</time>
      </trkpt>
      <trkpt lat="38.33319" lon="37.75716">
        <ele>1644.598102</ele>
        <time>2021-11-15T16:04:19.664Z</time>
      </trkpt>
      <trkpt lat="38.3335" lon="37.7568">
        <ele>1641.302504</ele>
        <time>2021-11-15T16:04:25.644Z</time>
      </trkpt>
      <trkpt lat="38.33439" lon="37.75568">
        <ele>1631.529862</ele>
        <time>2021-11-15T16:04:43.076Z</time>
      </trkpt>
      <trkpt lat="38.33664" lon="37.75244">
        <ele>1605.768075</ele>
        <time>2021-11-15T16:05:30.977Z</time>
      </trkpt>
      <trkpt lat="38.33679" lon="37.75222">
        <ele>1604.08294</ele>
        <time>2021-11-15T16:05:34.219Z</time>
      </trkpt>
      <trkpt lat="38.33681" lon="37.75221">
        <ele>1603.906455</ele>
        <time>2021-11-15T16:05:34.604Z</time>
      </trkpt>
      <trkpt lat="38.33684" lon="37.7522">
        <ele>1603.723479</ele>
        <time>2021-11-15T16:05:34.990Z</time>
      </trkpt>
      <trkpt lat="38.33687" lon="37.75218">
        <ele>1603.492314</ele>
        <time>2021-11-15T16:05:35.501Z</time>
      </trkpt>
      <trkpt lat="38.33691" lon="37.75212">
        <ele>1603.03365</ele>
        <time>2021-11-15T16:05:36.517Z</time>
      </trkpt>
      <trkpt lat="38.33693" lon="37.75208">
        <ele>1602.804169</ele>
        <time>2021-11-15T16:05:37.024Z</time>
      </trkpt>
      <trkpt lat="38.33698" lon="37.75213">
        <ele>1602.347686</ele>
        <time>2021-11-15T16:05:37.963Z</time>
      </trkpt>
      <trkpt lat="38.33746" lon="37.75125">
        <ele>1596.727792</ele>
        <time>2021-11-15T16:05:50.111Z</time>
      </trkpt>
      <trkpt lat="38.33818" lon="37.74989">
        <ele>1588.362287</ele>
        <time>2021-11-15T16:06:08.872Z</time>
      </trkpt>
      <trkpt lat="38.33865" lon="37.74867">
        <ele>1581.686667</ele>
        <time>2021-11-15T16:06:24.398Z</time>
      </trkpt>
      <trkpt lat="38.33874" lon="37.74861">
        <ele>1581.051303</ele>
        <time>2021-11-15T16:06:25.848Z</time>
      </trkpt>
      <trkpt lat="38.33875" lon="37.74847">
        <ele>1580.349468</ele>
        <time>2021-11-15T16:06:27.429Z</time>
      </trkpt>
      <trkpt lat="38.33875" lon="37.74807">
        <ele>1578.310346</ele>
        <time>2021-11-15T16:06:32.113Z</time>
      </trkpt>
      <trkpt lat="38.33873" lon="37.74794">
        <ele>1577.613329</ele>
        <time>2021-11-15T16:06:33.658Z</time>
      </trkpt>
      <trkpt lat="38.33862" lon="37.74725">
        <ele>1574.037251</ele>
        <time>2021-11-15T16:06:41.630Z</time>
      </trkpt>
      <trkpt lat="38.33861" lon="37.74706">
        <ele>1573.046546</ele>
        <time>2021-11-15T16:06:43.780Z</time>
      </trkpt>
      <trkpt lat="38.33859" lon="37.74642">
        <ele>1569.816744</ele>
        <time>2021-11-15T16:06:50.989Z</time>
      </trkpt>
      <trkpt lat="38.33856" lon="37.74624">
        <ele>1568.792281</ele>
        <time>2021-11-15T16:06:53.156Z</time>
      </trkpt>
      <trkpt lat="38.33848" lon="37.74577">
        <ele>1566.024794</ele>
        <time>2021-11-15T16:06:58.571Z</time>
      </trkpt>
      <trkpt lat="38.33824" lon="37.74405">
        <ele>1555.983149</ele>
        <time>2021-11-15T16:07:17.856Z</time>
      </trkpt>
      <trkpt lat="38.33825" lon="37.7434">
        <ele>1554.035168</ele>
        <time>2021-11-15T16:07:25.101Z</time>
      </trkpt>
      <trkpt lat="38.33844" lon="37.74271">
        <ele>1551.783844</ele>
        <time>2021-11-15T16:07:33.951Z</time>
      </trkpt>
      <trkpt lat="38.33877" lon="37.74225">
        <ele>1549.911205</ele>
        <time>2021-11-15T16:07:42.151Z</time>
      </trkpt>
      <trkpt lat="38.33925" lon="37.74184">
        <ele>1550.842492</ele>
        <time>2021-11-15T16:07:54.324Z</time>
      </trkpt>
      <trkpt lat="38.34105" lon="37.74086">
        <ele>1563.059174</ele>
        <time>2021-11-15T16:09:30.902Z</time>
      </trkpt>
      <trkpt lat="38.34119" lon="37.74076">
        <ele>1564.570868</ele>
        <time>2021-11-15T16:09:41.501Z</time>
      </trkpt>
      <trkpt lat="38.34141" lon="37.74054">
        <ele>1567.259235</ele>
        <time>2021-11-15T16:09:59.771Z</time>
      </trkpt>
      <trkpt lat="38.3417" lon="37.7401">
        <ele>1571.669499</ele>
        <time>2021-11-15T16:10:30.287Z</time>
      </trkpt>
      <trkpt lat="38.34222" lon="37.73876">
        <ele>1582.32005</ele>
        <time>2021-11-15T16:11:48.211Z</time>
      </trkpt>
      <trkpt lat="38.34237" lon="37.73849">
        <ele>1584.629149</ele>
        <time>2021-11-15T16:12:02.568Z</time>
      </trkpt>
      <trkpt lat="38.34265" lon="37.73815">
        <ele>1588.033852</ele>
        <time>2021-11-15T16:12:23.140Z</time>
      </trkpt>
      <trkpt lat="38.34676" lon="37.7346">
        <ele>1618.38473</ele>
        <time>2021-11-15T16:16:12.069Z</time>
      </trkpt>
      <trkpt lat="38.34813" lon="37.73325">
        <ele>1627.961671</ele>
        <time>2021-11-15T16:17:25.464Z</time>
      </trkpt>
      <trkpt lat="38.34899" lon="37.7325">
        <ele>1633.987909</ele>
        <time>2021-11-15T16:18:13.204Z</time>
      </trkpt>
      <trkpt lat="38.34949" lon="37.73204">
        <ele>1638.314399</ele>
        <time>2021-11-15T16:18:43.596Z</time>
      </trkpt>
      <trkpt lat="38.35002" lon="37.73155">
        <ele>1642.895388</ele>
        <time>2021-11-15T16:19:18.005Z</time>
      </trkpt>
      <trkpt lat="38.35062" lon="37.73092">
        <ele>1647.552293</ele>
        <time>2021-11-15T16:19:58.467Z</time>
      </trkpt>
      <trkpt lat="38.35088" lon="37.73057">
        <ele>1649.529291</ele>
        <time>2021-11-15T16:20:17.111Z</time>
      </trkpt>
      <trkpt lat="38.35153" lon="37.72967">
        <ele>1654.499049</ele>
        <time>2021-11-15T16:20:55.281Z</time>
      </trkpt>
      <trkpt lat="38.35219" lon="37.72862">
        <ele>1655.962829</ele>
        <time>2021-11-15T16:21:23.813Z</time>
      </trkpt>
      <trkpt lat="38.35248" lon="37.72813">
        <ele>1656.554575</ele>
        <time>2021-11-15T16:21:34.066Z</time>
      </trkpt>
      <trkpt lat="38.35467" lon="37.72499">
        <ele>1661.145238</ele>
        <time>2021-11-15T16:23:00.915Z</time>
      </trkpt>
      <trkpt lat="38.35495" lon="37.72448">
        <ele>1662.148977</ele>
        <time>2021-11-15T16:23:19.372Z</time>
      </trkpt>
      <trkpt lat="38.35513" lon="37.72404">
        <ele>1663.307242</ele>
        <time>2021-11-15T16:23:34.532Z</time>
      </trkpt>
      <trkpt lat="38.35524" lon="37.72349">
        <ele>1664.814911</ele>
        <time>2021-11-15T16:23:52.059Z</time>
      </trkpt>
      <trkpt lat="38.3553" lon="37.72258">
        <ele>1667.201951</ele>
        <time>2021-11-15T16:24:19.222Z</time>
      </trkpt>
      <trkpt lat="38.35493" lon="37.71877">
        <ele>1671.700417</ele>
        <time>2021-11-15T16:25:43.280Z</time>
      </trkpt>
      <trkpt lat="38.35478" lon="37.71676">
        <ele>1672.503619</ele>
        <time>2021-11-15T16:26:17.637Z</time>
      </trkpt>
      <trkpt lat="38.35477" lon="37.71639">
        <ele>1672.608721</ele>
        <time>2021-11-15T16:26:23.889Z</time>
      </trkpt>
      <trkpt lat="38.35483" lon="37.71594">
        <ele>1672.737699</ele>
        <time>2021-11-15T16:26:31.839Z</time>
      </trkpt>
      <trkpt lat="38.35504" lon="37.71543">
        <ele>1672.899148</ele>
        <time>2021-11-15T16:26:43.127Z</time>
      </trkpt>
      <trkpt lat="38.35521" lon="37.71518">
        <ele>1673.684654</ele>
        <time>2021-11-15T16:26:50.805Z</time>
      </trkpt>
      <trkpt lat="38.35593" lon="37.71464">
        <ele>1676.853908</ele>
        <time>2021-11-15T16:27:18.945Z</time>
      </trkpt>
      <trkpt lat="38.35686" lon="37.71409">
        <ele>1681.041201</ele>
        <time>2021-11-15T16:28:05.632Z</time>
      </trkpt>
      <trkpt lat="38.35709" lon="37.71389">
        <ele>1682.371498</ele>
        <time>2021-11-15T16:28:18.828Z</time>
      </trkpt>
      <trkpt lat="38.35731" lon="37.7136">
        <ele>1683.897352</ele>
        <time>2021-11-15T16:28:33.508Z</time>
      </trkpt>
      <trkpt lat="38.35753" lon="37.71321">
        <ele>1685.727179</ele>
        <time>2021-11-15T16:28:50.099Z</time>
      </trkpt>
      <trkpt lat="38.35765" lon="37.7129">
        <ele>1686.992431</ele>
        <time>2021-11-15T16:29:00.589Z</time>
      </trkpt>
      <trkpt lat="38.35774" lon="37.71256">
        <ele>1688.349978</ele>
        <time>2021-11-15T16:29:10.828Z</time>
      </trkpt>
      <trkpt lat="38.35781" lon="37.71203">
        <ele>1688.012282</ele>
        <time>2021-11-15T16:29:24.533Z</time>
      </trkpt>
      <trkpt lat="38.35785" lon="37.70938">
        <ele>1683.595155</ele>
        <time>2021-11-15T16:29:59.907Z</time>
      </trkpt>
      <trkpt lat="38.35785" lon="37.70931">
        <ele>1683.382514</ele>
        <time>2021-11-15T16:30:00.573Z</time>
      </trkpt>
      <trkpt lat="38.35786" lon="37.7083">
        <ele>1679.956885</ele>
        <time>2021-11-15T16:30:12.611Z</time>
      </trkpt>
      <trkpt lat="38.35805" lon="37.70698">
        <ele>1674.40797</ele>
        <time>2021-11-15T16:30:28.170Z</time>
      </trkpt>
      <trkpt lat="38.35954" lon="37.70127">
        <ele>1647.979645</ele>
        <time>2021-11-15T16:31:38.175Z</time>
      </trkpt>
      <trkpt lat="38.35967" lon="37.70032">
        <ele>1643.337248</ele>
        <time>2021-11-15T16:31:49.428Z</time>
      </trkpt>
      <trkpt lat="38.35964" lon="37.7001">
        <ele>1642.264478</ele>
        <time>2021-11-15T16:31:51.961Z</time>
      </trkpt>
      <trkpt lat="38.35955" lon="37.69948">
        <ele>1639.224287</ele>
        <time>2021-11-15T16:31:59.115Z</time>
      </trkpt>
      <trkpt lat="38.35939" lon="37.69906">
        <ele>1636.642858</ele>
        <time>2021-11-15T16:32:04.413Z</time>
      </trkpt>
      <trkpt lat="38.35918" lon="37.69868">
        <ele>1633.391769</ele>
        <time>2021-11-15T16:32:09.513Z</time>
      </trkpt>
      <trkpt lat="38.35885" lon="37.6983">
        <ele>1629.420952</ele>
        <time>2021-11-15T16:32:15.657Z</time>
      </trkpt>
      <trkpt lat="38.35853" lon="37.69802">
        <ele>1625.959535</ele>
        <time>2021-11-15T16:32:20.955Z</time>
      </trkpt>
      <trkpt lat="38.3563" lon="37.69637">
        <ele>1601.488791</ele>
        <time>2021-11-15T16:32:55.992Z</time>
      </trkpt>
      <trkpt lat="38.35601" lon="37.69603">
        <ele>1598.24395</ele>
        <time>2021-11-15T16:33:01.588Z</time>
      </trkpt>
      <trkpt lat="38.35572" lon="37.69554">
        <ele>1594.410096</ele>
        <time>2021-11-15T16:33:08.271Z</time>
      </trkpt>
      <trkpt lat="38.35555" lon="37.69523">
        <ele>1592.047409</ele>
        <time>2021-11-15T16:33:12.420Z</time>
      </trkpt>
      <trkpt lat="38.35542" lon="37.69483">
        <ele>1589.332961</ele>
        <time>2021-11-15T16:33:17.278Z</time>
      </trkpt>
      <trkpt lat="38.35533" lon="37.69443">
        <ele>1588.252592</ele>
        <time>2021-11-15T16:33:22.158Z</time>
      </trkpt>
      <trkpt lat="38.35529" lon="37.69393">
        <ele>1587.010395</ele>
        <time>2021-11-15T16:33:28.137Z</time>
      </trkpt>
      <trkpt lat="38.35533" lon="37.69351">
        <ele>1585.953517</ele>
        <time>2021-11-15T16:33:33.413Z</time>
      </trkpt>
      <trkpt lat="38.35542" lon="37.69316">
        <ele>1585.016699</ele>
        <time>2021-11-15T16:33:38.315Z</time>
      </trkpt>
      <trkpt lat="38.35644" lon="37.69022">
        <ele>1583.546686</ele>
        <time>2021-11-15T16:34:38.368Z</time>
      </trkpt>
      <trkpt lat="38.35649" lon="37.68952">
        <ele>1582.647557</ele>
        <time>2021-11-15T16:34:49.530Z</time>
      </trkpt>
      <trkpt lat="38.35647" lon="37.68921">
        <ele>1582.24881</ele>
        <time>2021-11-15T16:34:53.973Z</time>
      </trkpt>
      <trkpt lat="38.35632" lon="37.6888">
        <ele>1581.678164</ele>
        <time>2021-11-15T16:34:59.933Z</time>
      </trkpt>
      <trkpt lat="38.35599" lon="37.68815">
        <ele>1580.196748</ele>
        <time>2021-11-15T16:35:09.767Z</time>
      </trkpt>
      <trkpt lat="38.35545" lon="37.68737">
        <ele>1577.031689</ele>
        <time>2021-11-15T16:35:22.425Z</time>
      </trkpt>
      <trkpt lat="38.3549" lon="37.68641">
        <ele>1573.648638</ele>
        <time>2021-11-15T16:35:36.931Z</time>
      </trkpt>
      <trkpt lat="38.35465" lon="37.68597">
        <ele>1572.598496</ele>
        <time>2021-11-15T16:35:43.915Z</time>
      </trkpt>
      <trkpt lat="38.35429" lon="37.68543">
        <ele>1571.232967</ele>
        <time>2021-11-15T16:35:53.410Z</time>
      </trkpt>
      <trkpt lat="38.35373" lon="37.68469">
        <ele>1569.652328</ele>
        <time>2021-11-15T16:36:08.122Z</time>
      </trkpt>
      <trkpt lat="38.35344" lon="37.68423">
        <ele>1569.682774</ele>
        <time>2021-11-15T16:36:17.412Z</time>
      </trkpt>
      <trkpt lat="38.35245" lon="37.68285">
        <ele>1570.125746</ele>
        <time>2021-11-15T16:36:53.462Z</time>
      </trkpt>
      <trkpt lat="38.35185" lon="37.68196">
        <ele>1571.283772</ele>
        <time>2021-11-15T16:37:21.230Z</time>
      </trkpt>
      <trkpt lat="38.3511" lon="37.68087">
        <ele>1571.436008</ele>
        <time>2021-11-15T16:37:50.510Z</time>
      </trkpt>
      <trkpt lat="38.35053" lon="37.68014">
        <ele>1570.578136</ele>
        <time>2021-11-15T16:38:06.273Z</time>
      </trkpt>
      <trkpt lat="38.34663" lon="37.6746">
        <ele>1551.559053</ele>
        <time>2021-11-15T16:39:39.856Z</time>
      </trkpt>
      <trkpt lat="38.34617" lon="37.67371">
        <ele>1552.196971</ele>
        <time>2021-11-15T16:39:54.056Z</time>
      </trkpt>
      <trkpt lat="38.34597" lon="37.67321">
        <ele>1552.539995</ele>
        <time>2021-11-15T16:40:06.174Z</time>
      </trkpt>
      <trkpt lat="38.34582" lon="37.67271">
        <ele>1552.864814</ele>
        <time>2021-11-15T16:40:21.917Z</time>
      </trkpt>
      <trkpt lat="38.34571" lon="37.67214">
        <ele>1556.18588</ele>
        <time>2021-11-15T16:40:44.106Z</time>
      </trkpt>
      <trkpt lat="38.34568" lon="37.67147">
        <ele>1560.881483</ele>
        <time>2021-11-15T16:41:15.002Z</time>
      </trkpt>
      <trkpt lat="38.34565" lon="37.67018">
        <ele>1569.953457</ele>
        <time>2021-11-15T16:42:21.918Z</time>
      </trkpt>
      <trkpt lat="38.3457" lon="37.66839">
        <ele>1582.731432</ele>
        <time>2021-11-15T16:43:47.237Z</time>
      </trkpt>
      <trkpt lat="38.34572" lon="37.66809">
        <ele>1584.907384</ele>
        <time>2021-11-15T16:43:59.119Z</time>
      </trkpt>
      <trkpt lat="38.34577" lon="37.66675">
        <ele>1591.954542</ele>
        <time>2021-11-15T16:44:48.663Z</time>
      </trkpt>
      <trkpt lat="38.34603" lon="37.66151">
        <ele>1619.165028</ele>
        <time>2021-11-15T16:48:07.740Z</time>
      </trkpt>
      <trkpt lat="38.34634" lon="37.65901">
        <ele>1633.784277</ele>
        <time>2021-11-15T16:49:52.021Z</time>
      </trkpt>
      <trkpt lat="38.34636" lon="37.65838">
        <ele>1637.416287</ele>
        <time>2021-11-15T16:50:17.435Z</time>
      </trkpt>
      <trkpt lat="38.34632" lon="37.65787">
        <ele>1640.347393</ele>
        <time>2021-11-15T16:50:37.867Z</time>
      </trkpt>
      <trkpt lat="38.3462" lon="37.65743">
        <ele>1643.001788</ele>
        <time>2021-11-15T16:50:56.251Z</time>
      </trkpt>
      <trkpt lat="38.34546" lon="37.65575">
        <ele>1654.443829</ele>
        <time>2021-11-15T16:52:14.910Z</time>
      </trkpt>
      <trkpt lat="38.34527" lon="37.65505">
        <ele>1658.953717</ele>
        <time>2021-11-15T16:52:46.723Z</time>
      </trkpt>
      <trkpt lat="38.34514" lon="37.65431">
        <ele>1663.616713</ele>
        <time>2021-11-15T16:53:19.272Z</time>
      </trkpt>
      <trkpt lat="38.34475" lon="37.65092">
        <ele>1685.376543</ele>
        <time>2021-11-15T16:55:45.356Z</time>
      </trkpt>
      <trkpt lat="38.34477" lon="37.6472">
        <ele>1709.871522</ele>
        <time>2021-11-15T16:58:28.558Z</time>
      </trkpt>
      <trkpt lat="38.34499" lon="37.64519">
        <ele>1723.744342</ele>
        <time>2021-11-15T17:00:00.568Z</time>
      </trkpt>
      <trkpt lat="38.345" lon="37.64463">
        <ele>1727.52753</ele>
        <time>2021-11-15T17:00:25.729Z</time>
      </trkpt>
      <trkpt lat="38.34496" lon="37.64411">
        <ele>1731.053938</ele>
        <time>2021-11-15T17:00:48.949Z</time>
      </trkpt>
      <trkpt lat="38.34485" lon="37.64365">
        <ele>1734.28975</ele>
        <time>2021-11-15T17:01:09.961Z</time>
      </trkpt>
      <trkpt lat="38.34415" lon="37.64213">
        <ele>1745.87681</ele>
        <time>2021-11-15T17:02:26.812Z</time>
      </trkpt>
      <trkpt lat="38.34387" lon="37.64133">
        <ele>1751.632229</ele>
        <time>2021-11-15T17:03:05.131Z</time>
      </trkpt>
      <trkpt lat="38.34374" lon="37.64024">
        <ele>1758.783648</ele>
        <time>2021-11-15T17:03:53.460Z</time>
      </trkpt>
      <trkpt lat="38.34365" lon="37.63874">
        <ele>1768.33833</ele>
        <time>2021-11-15T17:04:58.217Z</time>
      </trkpt>
      <trkpt lat="38.34358" lon="37.63823">
        <ele>1771.383226</ele>
        <time>2021-11-15T17:05:19.868Z</time>
      </trkpt>
      <trkpt lat="38.34336" lon="37.63737">
        <ele>1776.773264</ele>
        <time>2021-11-15T17:05:57.325Z</time>
      </trkpt>
      <trkpt lat="38.34299" lon="37.63659">
        <ele>1781.940882</ele>
        <time>2021-11-15T17:06:33.925Z</time>
      </trkpt>
      <trkpt lat="38.34195" lon="37.63489">
        <ele>1792.854059</ele>
        <time>2021-11-15T17:07:56.191Z</time>
      </trkpt>
      <trkpt lat="38.3416" lon="37.63421">
        <ele>1795.75575</ele>
        <time>2021-11-15T17:08:23.783Z</time>
      </trkpt>
      <trkpt lat="38.34129" lon="37.63342">
        <ele>1798.982699</ele>
        <time>2021-11-15T17:08:52.031Z</time>
      </trkpt>
      <trkpt lat="38.34066" lon="37.63155">
        <ele>1802.798483</ele>
        <time>2021-11-15T17:09:43.200Z</time>
      </trkpt>
      <trkpt lat="38.34039" lon="37.63039">
        <ele>1803.614181</ele>
        <time>2021-11-15T17:10:05.151Z</time>
      </trkpt>
      <trkpt lat="38.34028" lon="37.62929">
        <ele>1803.271322</ele>
        <time>2021-11-15T17:10:22.523Z</time>
      </trkpt>
      <trkpt lat="38.34031" lon="37.62923">
        <ele>1803.250997</ele>
        <time>2021-11-15T17:10:23.563Z</time>
      </trkpt>
      <trkpt lat="38.34032" lon="37.62917">
        <ele>1803.231104</ele>
        <time>2021-11-15T17:10:24.584Z</time>
      </trkpt>
      <trkpt lat="38.34032" lon="37.62911">
        <ele>1803.21094</ele>
        <time>2021-11-15T17:10:25.598Z</time>
      </trkpt>
      <trkpt lat="38.3403" lon="37.62905">
        <ele>1803.190738</ele>
        <time>2021-11-15T17:10:26.601Z</time>
      </trkpt>
      <trkpt lat="38.34027" lon="37.629">
        <ele>1803.170494</ele>
        <time>2021-11-15T17:10:27.578Z</time>
      </trkpt>
      <trkpt lat="38.3402" lon="37.62841">
        <ele>1803.052713</ele>
        <time>2021-11-15T17:10:36.820Z</time>
      </trkpt>
      <trkpt lat="38.34016" lon="37.62767">
        <ele>1803.020155</ele>
        <time>2021-11-15T17:10:48.845Z</time>
      </trkpt>
      <trkpt lat="38.34018" lon="37.62698">
        <ele>1802.989643</ele>
        <time>2021-11-15T17:11:01.084Z</time>
      </trkpt>
      <trkpt lat="38.34024" lon="37.62632">
        <ele>1802.980311</ele>
        <time>2021-11-15T17:11:13.667Z</time>
      </trkpt>
      <trkpt lat="38.34052" lon="37.62493">
        <ele>1803.51563</ele>
        <time>2021-11-15T17:11:41.628Z</time>
      </trkpt>
      <trkpt lat="38.34064" lon="37.62443">
        <ele>1803.710403</ele>
        <time>2021-11-15T17:11:51.640Z</time>
      </trkpt>
      <trkpt lat="38.34165" lon="37.62192">
        <ele>1803.406865</ele>
        <time>2021-11-15T17:12:40.497Z</time>
      </trkpt>
      <trkpt lat="38.34434" lon="37.61578">
        <ele>1795.945256</ele>
        <time>2021-11-15T17:14:23.465Z</time>
      </trkpt>
      <trkpt lat="38.34542" lon="37.61315">
        <ele>1790.02669</ele>
        <time>2021-11-15T17:15:01.307Z</time>
      </trkpt>
      <trkpt lat="38.34582" lon="37.61251">
        <ele>1788.719801</ele>
        <time>2021-11-15T17:15:12.720Z</time>
      </trkpt>
      <trkpt lat="38.34637" lon="37.61188">
        <ele>1788.709687</ele>
        <time>2021-11-15T17:15:29.229Z</time>
      </trkpt>
      <trkpt lat="38.34677" lon="37.61155">
        <ele>1789.422572</ele>
        <time>2021-11-15T17:15:42.799Z</time>
      </trkpt>
      <trkpt lat="38.34741" lon="37.61114">
        <ele>1790.503592</ele>
        <time>2021-11-15T17:16:07.060Z</time>
      </trkpt>
      <trkpt lat="38.3484" lon="37.61078">
        <ele>1789.974315</ele>
        <time>2021-11-15T17:16:37.555Z</time>
      </trkpt>
      <trkpt lat="38.34888" lon="37.61071">
        <ele>1789.517708</ele>
        <time>2021-11-15T17:16:47.278Z</time>
      </trkpt>
      <trkpt lat="38.35289" lon="37.61077">
        <ele>1767.805834</ele>
        <time>2021-11-15T17:17:46.013Z</time>
      </trkpt>
      <trkpt lat="38.35341" lon="37.61086">
        <ele>1764.50567</ele>
        <time>2021-11-15T17:17:53.577Z</time>
      </trkpt>
      <trkpt lat="38.3542" lon="37.6111">
        <ele>1759.39482</ele>
        <time>2021-11-15T17:18:05.269Z</time>
      </trkpt>
      <trkpt lat="38.35575" lon="37.61186">
        <ele>1751.110274</ele>
        <time>2021-11-15T17:18:29.981Z</time>
      </trkpt>
      <trkpt lat="38.35634" lon="37.61204">
        <ele>1748.398007</ele>
        <time>2021-11-15T17:18:40.035Z</time>
      </trkpt>
      <trkpt lat="38.35987" lon="37.61233">
        <ele>1739.804597</ele>
        <time>2021-11-15T17:19:43.991Z</time>
      </trkpt>
      <trkpt lat="38.36241" lon="37.61249">
        <ele>1713.985413</ele>
        <time>2021-11-15T17:20:18.416Z</time>
      </trkpt>
      <trkpt lat="38.36289" lon="37.61247">
        <ele>1707.96894</ele>
        <time>2021-11-15T17:20:24.684Z</time>
      </trkpt>
      <trkpt lat="38.36383" lon="37.61208">
        <ele>1696.921062</ele>
        <time>2021-11-15T17:20:37.648Z</time>
      </trkpt>
      <trkpt lat="38.36421" lon="37.6118">
        <ele>1693.32429</ele>
        <time>2021-11-15T17:20:43.481Z</time>
      </trkpt>
      <trkpt lat="38.36475" lon="37.61127">
        <ele>1687.698563</ele>
        <time>2021-11-15T17:20:53.057Z</time>
      </trkpt>
      <trkpt lat="38.36632" lon="37.60917">
        <ele>1680.304088</ele>
        <time>2021-11-15T17:21:32.951Z</time>
      </trkpt>
      <trkpt lat="38.36658" lon="37.60892">
        <ele>1679.450037</ele>
        <time>2021-11-15T17:21:39.276Z</time>
      </trkpt>
      <trkpt lat="38.36689" lon="37.60872">
        <ele>1678.532933</ele>
        <time>2021-11-15T17:21:45.706Z</time>
      </trkpt>
      <trkpt lat="38.36745" lon="37.60855">
        <ele>1677.030132</ele>
        <time>2021-11-15T17:21:55.488Z</time>
      </trkpt>
      <trkpt lat="38.36802" lon="37.60852">
        <ele>1674.917913</ele>
        <time>2021-11-15T17:22:04.539Z</time>
      </trkpt>
      <trkpt lat="38.36854" lon="37.60864">
        <ele>1671.120849</ele>
        <time>2021-11-15T17:22:12.225Z</time>
      </trkpt>
      <trkpt lat="38.36876" lon="37.60876">
        <ele>1669.324405</ele>
        <time>2021-11-15T17:22:15.758Z</time>
      </trkpt>
      <trkpt lat="38.36997" lon="37.60983">
        <ele>1657.223622</ele>
        <time>2021-11-15T17:22:36.035Z</time>
      </trkpt>
      <trkpt lat="38.37052" lon="37.61006">
        <ele>1651.626595</ele>
        <time>2021-11-15T17:22:43.897Z</time>
      </trkpt>
      <trkpt lat="38.37212" lon="37.6103">
        <ele>1636.09078</ele>
        <time>2021-11-15T17:23:05.886Z</time>
      </trkpt>
      <trkpt lat="38.37325" lon="37.61072">
        <ele>1625.103591</ele>
        <time>2021-11-15T17:23:21.973Z</time>
      </trkpt>
      <trkpt lat="38.37353" lon="37.61077">
        <ele>1622.768042</ele>
        <time>2021-11-15T17:23:25.762Z</time>
      </trkpt>
      <trkpt lat="38.37412" lon="37.61076">
        <ele>1617.76736</ele>
        <time>2021-11-15T17:23:33.972Z</time>
      </trkpt>
      <trkpt lat="38.37467" lon="37.61056">
        <ele>1612.866911</ele>
        <time>2021-11-15T17:23:42.167Z</time>
      </trkpt>
      <trkpt lat="38.37567" lon="37.6098">
        <ele>1604.342448</ele>
        <time>2021-11-15T17:23:58.752Z</time>
      </trkpt>
      <trkpt lat="38.37592" lon="37.60953">
        <ele>1601.957832</ele>
        <time>2021-11-15T17:24:03.407Z</time>
      </trkpt>
      <trkpt lat="38.37596" lon="37.60952">
        <ele>1601.632528</ele>
        <time>2021-11-15T17:24:04.055Z</time>
      </trkpt>
      <trkpt lat="38.376" lon="37.60949">
        <ele>1601.304699</ele>
        <time>2021-11-15T17:24:04.713Z</time>
      </trkpt>
      <trkpt lat="38.37604" lon="37.60946">
        <ele>1600.981281</ele>
        <time>2021-11-15T17:24:05.369Z</time>
      </trkpt>
      <trkpt lat="38.37607" lon="37.6094">
        <ele>1600.564885</ele>
        <time>2021-11-15T17:24:06.184Z</time>
      </trkpt>
      <trkpt lat="38.37608" lon="37.60933">
        <ele>1600.150362</ele>
        <time>2021-11-15T17:24:06.984Z</time>
      </trkpt>
      <trkpt lat="38.37621" lon="37.60919">
        <ele>1598.774534</ele>
        <time>2021-11-15T17:24:09.347Z</time>
      </trkpt>
      <trkpt lat="38.37676" lon="37.60847">
        <ele>1591.780456</ele>
        <time>2021-11-15T17:24:20.289Z</time>
      </trkpt>
      <trkpt lat="38.37747" lon="37.60732">
        <ele>1581.662359</ele>
        <time>2021-11-15T17:24:35.930Z</time>
      </trkpt>
      <trkpt lat="38.37803" lon="37.60587">
        <ele>1570.706019</ele>
        <time>2021-11-15T17:24:53.517Z</time>
      </trkpt>
      <trkpt lat="38.37843" lon="37.605">
        <ele>1564.442506</ele>
        <time>2021-11-15T17:25:04.663Z</time>
      </trkpt>
      <trkpt lat="38.37976" lon="37.60141">
        <ele>1541.763113</ele>
        <time>2021-11-15T17:25:49.002Z</time>
      </trkpt>
      <trkpt lat="38.38065" lon="37.59934">
        <ele>1529.322621</ele>
        <time>2021-11-15T17:26:15.771Z</time>
      </trkpt>
      <trkpt lat="38.38146" lon="37.5971">
        <ele>1515.511521</ele>
        <time>2021-11-15T17:26:43.248Z</time>
      </trkpt>
      <trkpt lat="38.38163" lon="37.59675">
        <ele>1513.184637</ele>
        <time>2021-11-15T17:26:47.811Z</time>
      </trkpt>
      <trkpt lat="38.38246" lon="37.59541">
        <ele>1503.447923</ele>
        <time>2021-11-15T17:27:06.914Z</time>
      </trkpt>
      <trkpt lat="38.38409" lon="37.59291">
        <ele>1484.942369</ele>
        <time>2021-11-15T17:27:43.069Z</time>
      </trkpt>
      <trkpt lat="38.38433" lon="37.59241">
        <ele>1481.794474</ele>
        <time>2021-11-15T17:27:49.591Z</time>
      </trkpt>
      <trkpt lat="38.38507" lon="37.59016">
        <ele>1470.243805</ele>
        <time>2021-11-15T17:28:17.785Z</time>
      </trkpt>
      <trkpt lat="38.38534" lon="37.58969">
        <ele>1467.686569</ele>
        <time>2021-11-15T17:28:24.623Z</time>
      </trkpt>
      <trkpt lat="38.38562" lon="37.58936">
        <ele>1465.55441</ele>
        <time>2021-11-15T17:28:30.392Z</time>
      </trkpt>
      <trkpt lat="38.38589" lon="37.58912">
        <ele>1463.676329</ele>
        <time>2021-11-15T17:28:35.471Z</time>
      </trkpt>
      <trkpt lat="38.38775" lon="37.58821">
        <ele>1451.388185</ele>
        <time>2021-11-15T17:29:04.579Z</time>
      </trkpt>
      <trkpt lat="38.38837" lon="37.58774">
        <ele>1446.425723</ele>
        <time>2021-11-15T17:29:14.782Z</time>
      </trkpt>
      <trkpt lat="38.3888" lon="37.58732">
        <ele>1442.251267</ele>
        <time>2021-11-15T17:29:22.437Z</time>
      </trkpt>
      <trkpt lat="38.39063" lon="37.58482">
        <ele>1421.503089</ele>
        <time>2021-11-15T17:30:00.040Z</time>
      </trkpt>
      <trkpt lat="38.39098" lon="37.58445">
        <ele>1418.054364</ele>
        <time>2021-11-15T17:30:06.574Z</time>
      </trkpt>
      <trkpt lat="38.39196" lon="37.58369">
        <ele>1410.24529</ele>
        <time>2021-11-15T17:30:23.153Z</time>
      </trkpt>
      <trkpt lat="38.39265" lon="37.58298">
        <ele>1404.218771</ele>
        <time>2021-11-15T17:30:35.946Z</time>
      </trkpt>
      <trkpt lat="38.39307" lon="37.5823">
        <ele>1399.512628</ele>
        <time>2021-11-15T17:30:45.640Z</time>
      </trkpt>
      <trkpt lat="38.39337" lon="37.58156">
        <ele>1394.960785</ele>
        <time>2021-11-15T17:30:54.878Z</time>
      </trkpt>
      <trkpt lat="38.39374" lon="37.58044">
        <ele>1388.948155</ele>
        <time>2021-11-15T17:31:08.664Z</time>
      </trkpt>
      <trkpt lat="38.39382" lon="37.58022">
        <ele>1387.802808</ele>
        <time>2021-11-15T17:31:11.399Z</time>
      </trkpt>
      <trkpt lat="38.39408" lon="37.57939">
        <ele>1383.595154</ele>
        <time>2021-11-15T17:31:21.829Z</time>
      </trkpt>
      <trkpt lat="38.39433" lon="37.57879">
        <ele>1380.973259</ele>
        <time>2021-11-15T17:31:29.905Z</time>
      </trkpt>
      <trkpt lat="38.39463" lon="37.57826">
        <ele>1378.928536</ele>
        <time>2021-11-15T17:31:37.753Z</time>
      </trkpt>
      <trkpt lat="38.39498" lon="37.57782">
        <ele>1376.963864</ele>
        <time>2021-11-15T17:31:45.553Z</time>
      </trkpt>
      <trkpt lat="38.39559" lon="37.57725">
        <ele>1374.044855</ele>
        <time>2021-11-15T17:31:57.888Z</time>
      </trkpt>
      <trkpt lat="38.39597" lon="37.57697">
        <ele>1372.476379</ele>
        <time>2021-11-15T17:32:05.077Z</time>
      </trkpt>
      <trkpt lat="38.39608" lon="37.57689">
        <ele>1372.014677</ele>
        <time>2021-11-15T17:32:07.218Z</time>
      </trkpt>
      <trkpt lat="38.39653" lon="37.57666">
        <ele>1370.266518</ele>
        <time>2021-11-15T17:32:15.084Z</time>
      </trkpt>
      <trkpt lat="38.3972" lon="37.57647">
        <ele>1367.453518</ele>
        <time>2021-11-15T17:32:25.803Z</time>
      </trkpt>
      <trkpt lat="38.39984" lon="37.57617">
        <ele>1350.807331</ele>
        <time>2021-11-15T17:33:04.582Z</time>
      </trkpt>
      <trkpt lat="38.40045" lon="37.57608">
        <ele>1346.399299</ele>
        <time>2021-11-15T17:33:13.156Z</time>
      </trkpt>
      <trkpt lat="38.40096" lon="37.57593">
        <ele>1342.154429</ele>
        <time>2021-11-15T17:33:20.456Z</time>
      </trkpt>
      <trkpt lat="38.40171" lon="37.5756">
        <ele>1335.494053</ele>
        <time>2021-11-15T17:33:31.402Z</time>
      </trkpt>
      <trkpt lat="38.40386" lon="37.57419">
        <ele>1316.258119</ele>
        <time>2021-11-15T17:34:05.417Z</time>
      </trkpt>
      <trkpt lat="38.40503" lon="37.57372">
        <ele>1306.578918</ele>
        <time>2021-11-15T17:34:22.776Z</time>
      </trkpt>
      <trkpt lat="38.40624" lon="37.57348">
        <ele>1296.74032</ele>
        <time>2021-11-15T17:34:39.877Z</time>
      </trkpt>
      <trkpt lat="38.40724" lon="37.57353">
        <ele>1288.637792</ele>
        <time>2021-11-15T17:34:53.745Z</time>
      </trkpt>
      <trkpt lat="38.4085" lon="37.57383">
        <ele>1280.669076</ele>
        <time>2021-11-15T17:35:12.117Z</time>
      </trkpt>
      <trkpt lat="38.41211" lon="37.57567">
        <ele>1263.508811</ele>
        <time>2021-11-15T17:36:12.737Z</time>
      </trkpt>
      <trkpt lat="38.41264" lon="37.5759">
        <ele>1261.333274</ele>
        <time>2021-11-15T17:36:21.747Z</time>
      </trkpt>
      <trkpt lat="38.41356" lon="37.57617">
        <ele>1257.963267</ele>
        <time>2021-11-15T17:36:36.883Z</time>
      </trkpt>
      <trkpt lat="38.41505" lon="37.57634">
        <ele>1252.928617</ele>
        <time>2021-11-15T17:37:00.904Z</time>
      </trkpt>
      <trkpt lat="38.42092" lon="37.57666">
        <ele>1234.081878</ele>
        <time>2021-11-15T17:38:36.916Z</time>
      </trkpt>
      <trkpt lat="38.42178" lon="37.57671">
        <ele>1231.072876</ele>
        <time>2021-11-15T17:38:50.701Z</time>
      </trkpt>
      <trkpt lat="38.42239" lon="37.57674">
        <ele>1228.676928</ele>
        <time>2021-11-15T17:39:00.390Z</time>
      </trkpt>
      <trkpt lat="38.42606" lon="37.57691">
        <ele>1213.546561</ele>
        <time>2021-11-15T17:39:57.289Z</time>
      </trkpt>
      <trkpt lat="38.42717" lon="37.57709">
        <ele>1209.391659</ele>
        <time>2021-11-15T17:40:15.207Z</time>
      </trkpt>
      <trkpt lat="38.42801" lon="37.57735">
        <ele>1206.655935</ele>
        <time>2021-11-15T17:40:29.405Z</time>
      </trkpt>
      <trkpt lat="38.43031" lon="37.57859">
        <ele>1199.23167</ele>
        <time>2021-11-15T17:41:10.684Z</time>
      </trkpt>
      <trkpt lat="38.43134" lon="37.57907">
        <ele>1195.753283</ele>
        <time>2021-11-15T17:41:28.720Z</time>
      </trkpt>
      <trkpt lat="38.43472" lon="37.58003">
        <ele>1185.21614</ele>
        <time>2021-11-15T17:42:24.625Z</time>
      </trkpt>
      <trkpt lat="38.43509" lon="37.58019">
        <ele>1184.279124</ele>
        <time>2021-11-15T17:42:31.995Z</time>
      </trkpt>
      <trkpt lat="38.43535" lon="37.58029">
        <ele>1183.649396</ele>
        <time>2021-11-15T17:42:37.080Z</time>
      </trkpt>
      <trkpt lat="38.43578" lon="37.58037">
        <ele>1183.335403</ele>
        <time>2021-11-15T17:42:46.221Z</time>
      </trkpt>
      <trkpt lat="38.43681" lon="37.58072">
        <ele>1182.802841</ele>
        <time>2021-11-15T17:43:10.281Z</time>
      </trkpt>
      <trkpt lat="38.43854" lon="37.58169">
        <ele>1179.696388</ele>
        <time>2021-11-15T17:43:44.929Z</time>
      </trkpt>
      <trkpt lat="38.43921" lon="37.58206">
        <ele>1177.245394</ele>
        <time>2021-11-15T17:43:56.484Z</time>
      </trkpt>
      <trkpt lat="38.43964" lon="37.58227">
        <ele>1175.31075</ele>
        <time>2021-11-15T17:44:03.679Z</time>
      </trkpt>
      <trkpt lat="38.44105" lon="37.58282">
        <ele>1168.772323</ele>
        <time>2021-11-15T17:44:26.146Z</time>
      </trkpt>
      <trkpt lat="38.44184" lon="37.58307">
        <ele>1164.898561</ele>
        <time>2021-11-15T17:44:38.482Z</time>
      </trkpt>
      <trkpt lat="38.44402" lon="37.58348">
        <ele>1154.540179</ele>
        <time>2021-11-15T17:45:12.112Z</time>
      </trkpt>
      <trkpt lat="38.44528" lon="37.58358">
        <ele>1149.968763</ele>
        <time>2021-11-15T17:45:31.929Z</time>
      </trkpt>
      <trkpt lat="38.4464" lon="37.58356">
        <ele>1146.652953</ele>
        <time>2021-11-15T17:45:50.684Z</time>
      </trkpt>
      <trkpt lat="38.44901" lon="37.58335">
        <ele>1141.451064</ele>
        <time>2021-11-15T17:46:36.444Z</time>
      </trkpt>
      <trkpt lat="38.45038" lon="37.58326">
        <ele>1140.767133</ele>
        <time>2021-11-15T17:47:04.540Z</time>
      </trkpt>
      <trkpt lat="38.4519" lon="37.58319">
        <ele>1140.006773</ele>
        <time>2021-11-15T17:47:42.469Z</time>
      </trkpt>
      <trkpt lat="38.46317" lon="37.58509">
        <ele>1128.288216</ele>
        <time>2021-11-15T17:51:19.322Z</time>
      </trkpt>
      <trkpt lat="38.46423" lon="37.58539">
        <ele>1125.997804</ele>
        <time>2021-11-15T17:51:38.339Z</time>
      </trkpt>
      <trkpt lat="38.46461" lon="37.58554">
        <ele>1124.93653</ele>
        <time>2021-11-15T17:51:44.966Z</time>
      </trkpt>
      <trkpt lat="38.46629" lon="37.58618">
        <ele>1119.574261</ele>
        <time>2021-11-15T17:52:13.606Z</time>
      </trkpt>
      <trkpt lat="38.46691" lon="37.58642">
        <ele>1117.390239</ele>
        <time>2021-11-15T17:52:23.965Z</time>
      </trkpt>
      <trkpt lat="38.46732" lon="37.5866">
        <ele>1115.816291</ele>
        <time>2021-11-15T17:52:30.897Z</time>
      </trkpt>
      <trkpt lat="38.46735" lon="37.58663">
        <ele>1115.647157</ele>
        <time>2021-11-15T17:52:31.592Z</time>
      </trkpt>
      <trkpt lat="38.4674" lon="37.58665">
        <ele>1115.478985</ele>
        <time>2021-11-15T17:52:32.306Z</time>
      </trkpt>
      <trkpt lat="38.46744" lon="37.58665">
        <ele>1115.309206</ele>
        <time>2021-11-15T17:52:33.002Z</time>
      </trkpt>
      <trkpt lat="38.46769" lon="37.58671">
        <ele>1114.337327</ele>
        <time>2021-11-15T17:52:36.978Z</time>
      </trkpt>
      <trkpt lat="38.46822" lon="37.58684">
        <ele>1112.266032</ele>
        <time>2021-11-15T17:52:45.406Z</time>
      </trkpt>
      <trkpt lat="38.46903" lon="37.5871">
        <ele>1109.046419</ele>
        <time>2021-11-15T17:52:58.654Z</time>
      </trkpt>
      <trkpt lat="38.46917" lon="37.58714">
        <ele>1108.52436</ele>
        <time>2021-11-15T17:53:00.823Z</time>
      </trkpt>
      <trkpt lat="38.47106" lon="37.58781">
        <ele>1101.186695</ele>
        <time>2021-11-15T17:53:32.096Z</time>
      </trkpt>
      <trkpt lat="38.47245" lon="37.5883">
        <ele>1095.828594</ele>
        <time>2021-11-15T17:53:54.716Z</time>
      </trkpt>
      <trkpt lat="38.47284" lon="37.5884">
        <ele>1094.746575</ele>
        <time>2021-11-15T17:54:01.274Z</time>
      </trkpt>
      <trkpt lat="38.47325" lon="37.58852">
        <ele>1093.620468</ele>
        <time>2021-11-15T17:54:08.414Z</time>
      </trkpt>
      <trkpt lat="38.47359" lon="37.58861">
        <ele>1092.705149</ele>
        <time>2021-11-15T17:54:14.276Z</time>
      </trkpt>
      <trkpt lat="38.47385" lon="37.58864">
        <ele>1092.002902</ele>
        <time>2021-11-15T17:54:18.766Z</time>
      </trkpt>
      <trkpt lat="38.47409" lon="37.58866">
        <ele>1091.348443</ele>
        <time>2021-11-15T17:54:23.094Z</time>
      </trkpt>
      <trkpt lat="38.47482" lon="37.58868">
        <ele>1089.960767</ele>
        <time>2021-11-15T17:54:36.297Z</time>
      </trkpt>
      <trkpt lat="38.47514" lon="37.58866">
        <ele>1089.345795</ele>
        <time>2021-11-15T17:54:42.180Z</time>
      </trkpt>
      <trkpt lat="38.47634" lon="37.58853">
        <ele>1086.407441</ele>
        <time>2021-11-15T17:55:03.114Z</time>
      </trkpt>
      <trkpt lat="38.47725" lon="37.5883">
        <ele>1083.36263</ele>
        <time>2021-11-15T17:55:18.027Z</time>
      </trkpt>
      <trkpt lat="38.47749" lon="37.58821">
        <ele>1082.543985</ele>
        <time>2021-11-15T17:55:22.053Z</time>
      </trkpt>
      <trkpt lat="38.47774" lon="37.58812">
        <ele>1081.484035</ele>
        <time>2021-11-15T17:55:26.089Z</time>
      </trkpt>
      <trkpt lat="38.47852" lon="37.58774">
        <ele>1077.031394</ele>
        <time>2021-11-15T17:55:38.803Z</time>
      </trkpt>
      <trkpt lat="38.47853" lon="37.58774">
        <ele>1076.985525</ele>
        <time>2021-11-15T17:55:38.916Z</time>
      </trkpt>
      <trkpt lat="38.47914" lon="37.58735">
        <ele>1073.35173</ele>
        <time>2021-11-15T17:55:49.025Z</time>
      </trkpt>
      <trkpt lat="38.48449" lon="37.58345">
        <ele>1032.70483</ele>
        <time>2021-11-15T17:57:17.537Z</time>
      </trkpt>
      <trkpt lat="38.48538" lon="37.58301">
        <ele>1027.858999</ele>
        <time>2021-11-15T17:57:32.196Z</time>
      </trkpt>
      <trkpt lat="38.48583" lon="37.58285">
        <ele>1026.044281</ele>
        <time>2021-11-15T17:57:39.752Z</time>
      </trkpt>
      <trkpt lat="38.48643" lon="37.58274">
        <ele>1024.586947</ele>
        <time>2021-11-15T17:57:49.818Z</time>
      </trkpt>
      <trkpt lat="38.48941" lon="37.58272">
        <ele>1018.601364</ele>
        <time>2021-11-15T17:58:42.876Z</time>
      </trkpt>
      <trkpt lat="38.49074" lon="37.58257">
        <ele>1016.500687</ele>
        <time>2021-11-15T17:59:07.335Z</time>
      </trkpt>
      <trkpt lat="38.49157" lon="37.58231">
        <ele>1014.965344</ele>
        <time>2021-11-15T17:59:22.951Z</time>
      </trkpt>
      <trkpt lat="38.49229" lon="37.58198">
        <ele>1013.505532</ele>
        <time>2021-11-15T17:59:36.684Z</time>
      </trkpt>
      <trkpt lat="38.49271" lon="37.58177">
        <ele>1012.626787</ele>
        <time>2021-11-15T17:59:44.540Z</time>
      </trkpt>
      <trkpt lat="38.49356" lon="37.58134">
        <ele>1009.966903</ele>
        <time>2021-11-15T17:59:59.662Z</time>
      </trkpt>
      <trkpt lat="38.49523" lon="37.5805">
        <ele>1005.418184</ele>
        <time>2021-11-15T18:00:28.858Z</time>
      </trkpt>
      <trkpt lat="38.49611" lon="37.58004">
        <ele>1003.522287</ele>
        <time>2021-11-15T18:00:46.314Z</time>
      </trkpt>
      <trkpt lat="38.49666" lon="37.57962">
        <ele>1003.819292</ele>
        <time>2021-11-15T18:01:01.043Z</time>
      </trkpt>
      <trkpt lat="38.49734" lon="37.57884">
        <ele>1004.234756</ele>
        <time>2021-11-15T18:01:24.976Z</time>
      </trkpt>
      <trkpt lat="38.49772" lon="37.57819">
        <ele>1004.672387</ele>
        <time>2021-11-15T18:01:42.253Z</time>
      </trkpt>
      <trkpt lat="38.4981" lon="37.57705">
        <ele>1005.425225</ele>
        <time>2021-11-15T18:02:06.850Z</time>
      </trkpt>
      <trkpt lat="38.49822" lon="37.57606">
        <ele>1005.92835</ele>
        <time>2021-11-15T18:02:25.324Z</time>
      </trkpt>
      <trkpt lat="38.49814" lon="37.5749">
        <ele>1006.4062</ele>
        <time>2021-11-15T18:02:46.996Z</time>
      </trkpt>
      <trkpt lat="38.49774" lon="37.5721">
        <ele>1008.125346</ele>
        <time>2021-11-15T18:03:44.396Z</time>
      </trkpt>
      <trkpt lat="38.49771" lon="37.57104">
        <ele>1008.180848</ele>
        <time>2021-11-15T18:04:04.736Z</time>
      </trkpt>
      <trkpt lat="38.49786" lon="37.56976">
        <ele>1008.201838</ele>
        <time>2021-11-15T18:04:26.363Z</time>
      </trkpt>
      <trkpt lat="38.49834" lon="37.56861">
        <ele>1006.706689</ele>
        <time>2021-11-15T18:04:45.664Z</time>
      </trkpt>
      <trkpt lat="38.49882" lon="37.56782">
        <ele>1005.556818</ele>
        <time>2021-11-15T18:04:59.471Z</time>
      </trkpt>
      <trkpt lat="38.49929" lon="37.56727">
        <ele>1003.869399</ele>
        <time>2021-11-15T18:05:10.306Z</time>
      </trkpt>
      <trkpt lat="38.49983" lon="37.56686">
        <ele>1002.198275</ele>
        <time>2021-11-15T18:05:20.821Z</time>
      </trkpt>
      <trkpt lat="38.50052" lon="37.56646">
        <ele>1000.08627</ele>
        <time>2021-11-15T18:05:33.415Z</time>
      </trkpt>
      <trkpt lat="38.5052" lon="37.56409">
        <ele>985.331128</ele>
        <time>2021-11-15T18:06:56.196Z</time>
      </trkpt>
      <trkpt lat="38.50622" lon="37.56354">
        <ele>984.049019</ele>
        <time>2021-11-15T18:07:16.668Z</time>
      </trkpt>
      <trkpt lat="38.5068" lon="37.5631">
        <ele>983.415058</ele>
        <time>2021-11-15T18:07:30.848Z</time>
      </trkpt>
      <trkpt lat="38.50728" lon="37.56251">
        <ele>983.667623</ele>
        <time>2021-11-15T18:07:46.745Z</time>
      </trkpt>
      <trkpt lat="38.50758" lon="37.56203">
        <ele>984.022984</ele>
        <time>2021-11-15T18:07:59.482Z</time>
      </trkpt>
      <trkpt lat="38.50784" lon="37.56125">
        <ele>984.517645</ele>
        <time>2021-11-15T18:08:17.092Z</time>
      </trkpt>
      <trkpt lat="38.50798" lon="37.56051">
        <ele>984.852477</ele>
        <time>2021-11-15T18:08:31.894Z</time>
      </trkpt>
      <trkpt lat="38.50803" lon="37.56027">
        <ele>984.950247</ele>
        <time>2021-11-15T18:08:36.730Z</time>
      </trkpt>
      <trkpt lat="38.50804" lon="37.5594">
        <ele>985.296668</ele>
        <time>2021-11-15T18:08:53.000Z</time>
      </trkpt>
      <trkpt lat="38.5079" lon="37.55854">
        <ele>985.699544</ele>
        <time>2021-11-15T18:09:08.798Z</time>
      </trkpt>
      <trkpt lat="38.50436" lon="37.5458">
        <ele>994.019376</ele>
        <time>2021-11-15T18:13:36.757Z</time>
      </trkpt>
      <trkpt lat="38.50408" lon="37.54463">
        <ele>995.993206</ele>
        <time>2021-11-15T18:14:06.674Z</time>
      </trkpt>
      <trkpt lat="38.50402" lon="37.54395">
        <ele>997.083499</ele>
        <time>2021-11-15T18:14:23.490Z</time>
      </trkpt>
      <trkpt lat="38.50398" lon="37.54356">
        <ele>997.720638</ele>
        <time>2021-11-15T18:14:33.306Z</time>
      </trkpt>
      <trkpt lat="38.50406" lon="37.54261">
        <ele>998.93139</ele>
        <time>2021-11-15T18:14:55.924Z</time>
      </trkpt>
      <trkpt lat="38.50499" lon="37.53817">
        <ele>1002.649574</ele>
        <time>2021-11-15T18:16:34.323Z</time>
      </trkpt>
      <trkpt lat="38.50501" lon="37.53744">
        <ele>1002.442673</ele>
        <time>2021-11-15T18:16:45.280Z</time>
      </trkpt>
      <trkpt lat="38.50493" lon="37.53678">
        <ele>1002.159162</ele>
        <time>2021-11-15T18:16:54.633Z</time>
      </trkpt>
      <trkpt lat="38.50474" lon="37.53615">
        <ele>1000.980748</ele>
        <time>2021-11-15T18:17:03.646Z</time>
      </trkpt>
      <trkpt lat="38.50453" lon="37.53561">
        <ele>999.939935</ele>
        <time>2021-11-15T18:17:11.545Z</time>
      </trkpt>
      <trkpt lat="38.50412" lon="37.53498">
        <ele>998.517611</ele>
        <time>2021-11-15T18:17:22.524Z</time>
      </trkpt>
      <trkpt lat="38.50289" lon="37.53335">
        <ele>995.753821</ele>
        <time>2021-11-15T18:17:54.962Z</time>
      </trkpt>
      <trkpt lat="38.50255" lon="37.53273">
        <ele>995.160106</ele>
        <time>2021-11-15T18:18:06.293Z</time>
      </trkpt>
      <trkpt lat="38.5023" lon="37.53199">
        <ele>994.621496</ele>
        <time>2021-11-15T18:18:18.499Z</time>
      </trkpt>
      <trkpt lat="38.50216" lon="37.53126">
        <ele>994.119508</ele>
        <time>2021-11-15T18:18:30.226Z</time>
      </trkpt>
      <trkpt lat="38.50216" lon="37.53024">
        <ele>994.202878</ele>
        <time>2021-11-15T18:18:47.711Z</time>
      </trkpt>
      <trkpt lat="38.50222" lon="37.52936">
        <ele>994.392187</ele>
        <time>2021-11-15T18:19:04.114Z</time>
      </trkpt>
      <trkpt lat="38.50245" lon="37.52852">
        <ele>994.774522</ele>
        <time>2021-11-15T18:19:21.951Z</time>
      </trkpt>
      <trkpt lat="38.50277" lon="37.52787">
        <ele>995.363017</ele>
        <time>2021-11-15T18:19:37.827Z</time>
      </trkpt>
      <trkpt lat="38.50329" lon="37.52721">
        <ele>996.081662</ele>
        <time>2021-11-15T18:19:57.325Z</time>
      </trkpt>
      <trkpt lat="38.5037" lon="37.52678">
        <ele>996.628152</ele>
        <time>2021-11-15T18:20:11.210Z</time>
      </trkpt>
      <trkpt lat="38.50675" lon="37.52467">
        <ele>1000.430216</ele>
        <time>2021-11-15T18:21:43.124Z</time>
      </trkpt>
      <trkpt lat="38.50691" lon="37.52458">
        <ele>1000.651454</ele>
        <time>2021-11-15T18:21:48.382Z</time>
      </trkpt>
      <trkpt lat="38.50811" lon="37.52394">
        <ele>1002.267259</ele>
        <time>2021-11-15T18:22:24.489Z</time>
      </trkpt>
      <trkpt lat="38.51063" lon="37.52276">
        <ele>1002.856051</ele>
        <time>2021-11-15T18:23:29.917Z</time>
      </trkpt>
      <trkpt lat="38.51361" lon="37.52143">
        <ele>998.279175</ele>
        <time>2021-11-15T18:24:26.262Z</time>
      </trkpt>
      <trkpt lat="38.51468" lon="37.52106">
        <ele>996.75712</ele>
        <time>2021-11-15T18:24:46.455Z</time>
      </trkpt>
      <trkpt lat="38.51583" lon="37.52083">
        <ele>996.405214</ele>
        <time>2021-11-15T18:25:09.918Z</time>
      </trkpt>
      <trkpt lat="38.51681" lon="37.52072">
        <ele>996.586836</ele>
        <time>2021-11-15T18:25:34.205Z</time>
      </trkpt>
      <trkpt lat="38.52004" lon="37.52073">
        <ele>1002.468045</ele>
        <time>2021-11-15T18:27:09.659Z</time>
      </trkpt>
      <trkpt lat="38.52108" lon="37.52068">
        <ele>1004.966541</ele>
        <time>2021-11-15T18:27:43.616Z</time>
      </trkpt>
      <trkpt lat="38.52194" lon="37.52049">
        <ele>1007.220364</ele>
        <time>2021-11-15T18:28:12.442Z</time>
      </trkpt>
      <trkpt lat="38.52265" lon="37.52023">
        <ele>1008.915254</ele>
        <time>2021-11-15T18:28:36.420Z</time>
      </trkpt>
      <trkpt lat="38.52358" lon="37.51977">
        <ele>1011.081302</ele>
        <time>2021-11-15T18:29:07.728Z</time>
      </trkpt>
      <trkpt lat="38.52442" lon="37.5192">
        <ele>1011.990351</ele>
        <time>2021-11-15T18:29:34.304Z</time>
      </trkpt>
      <trkpt lat="38.53108" lon="37.51422">
        <ele>1014.295333</ele>
        <time>2021-11-15T18:32:31.966Z</time>
      </trkpt>
      <trkpt lat="38.53205" lon="37.51363">
        <ele>1014.457748</ele>
        <time>2021-11-15T18:32:56.648Z</time>
      </trkpt>
      <trkpt lat="38.5333" lon="37.513">
        <ele>1014.581576</ele>
        <time>2021-11-15T18:33:27.572Z</time>
      </trkpt>
      <trkpt lat="38.5344" lon="37.51258">
        <ele>1014.17645</ele>
        <time>2021-11-15T18:33:51.755Z</time>
      </trkpt>
      <trkpt lat="38.5362" lon="37.51209">
        <ele>1013.72948</ele>
        <time>2021-11-15T18:34:29.182Z</time>
      </trkpt>
      <trkpt lat="38.53788" lon="37.51169">
        <ele>1014.410365</ele>
        <time>2021-11-15T18:35:10.456Z</time>
      </trkpt>
      <trkpt lat="38.53986" lon="37.51148">
        <ele>1016.424179</ele>
        <time>2021-11-15T18:36:03.468Z</time>
      </trkpt>
      <trkpt lat="38.54047" lon="37.51113">
        <ele>1017.17249</ele>
        <time>2021-11-15T18:36:21.821Z</time>
      </trkpt>
      <trkpt lat="38.54095" lon="37.51063">
        <ele>1017.705768</ele>
        <time>2021-11-15T18:36:38.786Z</time>
      </trkpt>
      <trkpt lat="38.54176" lon="37.50966">
        <ele>1018.60532</ele>
        <time>2021-11-15T18:37:06.689Z</time>
      </trkpt>
      <trkpt lat="38.54214" lon="37.50937">
        <ele>1018.550111</ele>
        <time>2021-11-15T18:37:16.637Z</time>
      </trkpt>
      <trkpt lat="38.54269" lon="37.50925">
        <ele>1018.480774</ele>
        <time>2021-11-15T18:37:28.435Z</time>
      </trkpt>
      <trkpt lat="38.54329" lon="37.50928">
        <ele>1018.406619</ele>
        <time>2021-11-15T18:37:40.896Z</time>
      </trkpt>
      <trkpt lat="38.54376" lon="37.50951">
        <ele>1018.368172</ele>
        <time>2021-11-15T18:37:51.476Z</time>
      </trkpt>
      <trkpt lat="38.54414" lon="37.50988">
        <ele>1018.341568</ele>
        <time>2021-11-15T18:38:01.719Z</time>
      </trkpt>
      <trkpt lat="38.54504" lon="37.51117">
        <ele>1018.373524</ele>
        <time>2021-11-15T18:38:32.315Z</time>
      </trkpt>
      <trkpt lat="38.54558" lon="37.51173">
        <ele>1018.530029</ele>
        <time>2021-11-15T18:38:48.729Z</time>
      </trkpt>
      <trkpt lat="38.54596" lon="37.51199">
        <ele>1018.625747</ele>
        <time>2021-11-15T18:38:58.692Z</time>
      </trkpt>
      <trkpt lat="38.54641" lon="37.51211">
        <ele>1018.763423</ele>
        <time>2021-11-15T18:39:09.344Z</time>
      </trkpt>
      <trkpt lat="38.54689" lon="37.51211">
        <ele>1018.966105</ele>
        <time>2021-11-15T18:39:20.518Z</time>
      </trkpt>
      <trkpt lat="38.54776" lon="37.51182">
        <ele>1019.347167</ele>
        <time>2021-11-15T18:39:42.123Z</time>
      </trkpt>
      <trkpt lat="38.54811" lon="37.5115">
        <ele>1019.625355</ele>
        <time>2021-11-15T18:39:52.845Z</time>
      </trkpt>
      <trkpt lat="38.54837" lon="37.5111">
        <ele>1019.990394</ele>
        <time>2021-11-15T18:40:02.788Z</time>
      </trkpt>
      <trkpt lat="38.54855" lon="37.51055">
        <ele>1020.418206</ele>
        <time>2021-11-15T18:40:14.596Z</time>
      </trkpt>
      <trkpt lat="38.54855" lon="37.50994">
        <ele>1020.847403</ele>
        <time>2021-11-15T18:40:26.590Z</time>
      </trkpt>
      <trkpt lat="38.54825" lon="37.50864">
        <ele>1023.193107</ele>
        <time>2021-11-15T18:40:57.977Z</time>
      </trkpt>
      <trkpt lat="38.54818" lon="37.50809">
        <ele>1024.356138</ele>
        <time>2021-11-15T18:41:13.013Z</time>
      </trkpt>
      <trkpt lat="38.54819" lon="37.50769">
        <ele>1025.189466</ele>
        <time>2021-11-15T18:41:24.515Z</time>
      </trkpt>
      <trkpt lat="38.54819" lon="37.50746">
        <ele>1025.677847</ele>
        <time>2021-11-15T18:41:31.801Z</time>
      </trkpt>
      <trkpt lat="38.54837" lon="37.50551">
        <ele>1029.835794</ele>
        <time>2021-11-15T18:42:26.806Z</time>
      </trkpt>
      <trkpt lat="38.54865" lon="37.50342">
        <ele>1030.702693</ele>
        <time>2021-11-15T18:43:05.863Z</time>
      </trkpt>
      <trkpt lat="38.54875" lon="37.50262">
        <ele>1030.468634</ele>
        <time>2021-11-15T18:43:17.587Z</time>
      </trkpt>
      <trkpt lat="38.54936" lon="37.49927">
        <ele>1027.194663</ele>
        <time>2021-11-15T18:44:07.404Z</time>
      </trkpt>
      <trkpt lat="38.54955" lon="37.49849">
        <ele>1026.56247</ele>
        <time>2021-11-15T18:44:20.181Z</time>
      </trkpt>
      <trkpt lat="38.54986" lon="37.4976">
        <ele>1026.487597</ele>
        <time>2021-11-15T18:44:36.721Z</time>
      </trkpt>
      <trkpt lat="38.55025" lon="37.49685">
        <ele>1026.53119</ele>
        <time>2021-11-15T18:44:52.930Z</time>
      </trkpt>
      <trkpt lat="38.55061" lon="37.49636">
        <ele>1026.582909</ele>
        <time>2021-11-15T18:45:05.416Z</time>
      </trkpt>
      <trkpt lat="38.55215" lon="37.49462">
        <ele>1027.215298</ele>
        <time>2021-11-15T18:45:53.483Z</time>
      </trkpt>
      <trkpt lat="38.55495" lon="37.49179">
        <ele>1028.757337</ele>
        <time>2021-11-15T18:47:17.858Z</time>
      </trkpt>
      <trkpt lat="38.55619" lon="37.49091">
        <ele>1030.481576</ele>
        <time>2021-11-15T18:47:55.905Z</time>
      </trkpt>
      <trkpt lat="38.55659" lon="37.49073">
        <ele>1031.766953</ele>
        <time>2021-11-15T18:48:09.401Z</time>
      </trkpt>
      <trkpt lat="38.55739" lon="37.49037">
        <ele>1034.687325</ele>
        <time>2021-11-15T18:48:39.649Z</time>
      </trkpt>
      <trkpt lat="38.55908" lon="37.4899">
        <ele>1041.221603</ele>
        <time>2021-11-15T18:49:50.501Z</time>
      </trkpt>
      <trkpt lat="38.55909" lon="37.48989">
        <ele>1041.237758</ele>
        <time>2021-11-15T18:49:51.049Z</time>
      </trkpt>
      <trkpt lat="38.55988" lon="37.48973">
        <ele>1043.904656</ele>
        <time>2021-11-15T18:50:19.233Z</time>
      </trkpt>
      <trkpt lat="38.56177" lon="37.48934">
        <ele>1043.85672</ele>
        <time>2021-11-15T18:51:01.350Z</time>
      </trkpt>
      <trkpt lat="38.56256" lon="37.48918">
        <ele>1041.935778</ele>
        <time>2021-11-15T18:51:14.657Z</time>
      </trkpt>
      <trkpt lat="38.56301" lon="37.48909">
        <ele>1040.868264</ele>
        <time>2021-11-15T18:51:21.793Z</time>
      </trkpt>
      <trkpt lat="38.56453" lon="37.48869">
        <ele>1038.680907</ele>
        <time>2021-11-15T18:51:48.625Z</time>
      </trkpt>
      <trkpt lat="38.56514" lon="37.48837">
        <ele>1038.463032</ele>
        <time>2021-11-15T18:52:05.431Z</time>
      </trkpt>
      <trkpt lat="38.56584" lon="37.48778">
        <ele>1041.290794</ele>
        <time>2021-11-15T18:52:33.400Z</time>
      </trkpt>
      <trkpt lat="38.5664" lon="37.48699">
        <ele>1044.08468</ele>
        <time>2021-11-15T18:53:07.098Z</time>
      </trkpt>
      <trkpt lat="38.56708" lon="37.48567">
        <ele>1050.987747</ele>
        <time>2021-11-15T18:54:03.182Z</time>
      </trkpt>
      <trkpt lat="38.56723" lon="37.48534">
        <ele>1052.630282</ele>
        <time>2021-11-15T18:54:16.510Z</time>
      </trkpt>
      <trkpt lat="38.56748" lon="37.48487">
        <ele>1055.051318</ele>
        <time>2021-11-15T18:54:36.512Z</time>
      </trkpt>
      <trkpt lat="38.56822" lon="37.48337">
        <ele>1062.392907</ele>
        <time>2021-11-15T18:55:36.479Z</time>
      </trkpt>
      <trkpt lat="38.56848" lon="37.48273">
        <ele>1065.795967</ele>
        <time>2021-11-15T18:55:59.772Z</time>
      </trkpt>
      <trkpt lat="38.56885" lon="37.48138">
        <ele>1073.130405</ele>
        <time>2021-11-15T18:56:53.188Z</time>
      </trkpt>
      <trkpt lat="38.569" lon="37.48055">
        <ele>1078.28457</ele>
        <time>2021-11-15T18:57:29.932Z</time>
      </trkpt>
      <trkpt lat="38.56907" lon="37.4796">
        <ele>1084.993498</ele>
        <time>2021-11-15T18:58:15.641Z</time>
      </trkpt>
      <trkpt lat="38.56903" lon="37.47825">
        <ele>1093.636803</ele>
        <time>2021-11-15T18:59:18.322Z</time>
      </trkpt>
      <trkpt lat="38.56902" lon="37.47799">
        <ele>1094.862071</ele>
        <time>2021-11-15T18:59:30.004Z</time>
      </trkpt>
      <trkpt lat="38.56894" lon="37.47741">
        <ele>1097.703281</ele>
        <time>2021-11-15T18:59:52.052Z</time>
      </trkpt>
      <trkpt lat="38.5684" lon="37.47451">
        <ele>1108.808818</ele>
        <time>2021-11-15T19:01:20.585Z</time>
      </trkpt>
      <trkpt lat="38.56828" lon="37.47344">
        <ele>1113.061321</ele>
        <time>2021-11-15T19:01:53.599Z</time>
      </trkpt>
      <trkpt lat="38.56835" lon="37.47207">
        <ele>1119.005215</ele>
        <time>2021-11-15T19:02:42.423Z</time>
      </trkpt>
      <trkpt lat="38.56876" lon="37.46918">
        <ele>1135.017526</ele>
        <time>2021-11-15T19:04:40.925Z</time>
      </trkpt>
      <trkpt lat="38.56875" lon="37.46806">
        <ele>1140.831131</ele>
        <time>2021-11-15T19:05:24.488Z</time>
      </trkpt>
      <trkpt lat="38.56854" lon="37.46702">
        <ele>1146.140507</ele>
        <time>2021-11-15T19:06:03.362Z</time>
      </trkpt>
      <trkpt lat="38.56809" lon="37.46579">
        <ele>1152.094152</ele>
        <time>2021-11-15T19:06:49.896Z</time>
      </trkpt>
      <trkpt lat="38.56788" lon="37.46488">
        <ele>1156.563433</ele>
        <time>2021-11-15T19:07:22.252Z</time>
      </trkpt>
      <trkpt lat="38.56785" lon="37.46461">
        <ele>1158.026856</ele>
        <time>2021-11-15T19:07:32.440Z</time>
      </trkpt>
      <trkpt lat="38.56787" lon="37.46394">
        <ele>1161.572</ele>
        <time>2021-11-15T19:07:59.120Z</time>
      </trkpt>
      <trkpt lat="38.56802" lon="37.46314">
        <ele>1165.970848</ele>
        <time>2021-11-15T19:08:31.903Z</time>
      </trkpt>
      <trkpt lat="38.56805" lon="37.46299">
        <ele>1166.825237</ele>
        <time>2021-11-15T19:08:39.374Z</time>
      </trkpt>
      <trkpt lat="38.56809" lon="37.46295">
        <ele>1167.143165</ele>
        <time>2021-11-15T19:08:41.695Z</time>
      </trkpt>
      <trkpt lat="38.56812" lon="37.46291">
        <ele>1167.469787</ele>
        <time>2021-11-15T19:08:44.015Z</time>
      </trkpt>
      <trkpt lat="38.56813" lon="37.46286">
        <ele>1167.741018</ele>
        <time>2021-11-15T19:08:45.881Z</time>
      </trkpt>
      <trkpt lat="38.56814" lon="37.46281">
        <ele>1168.012207</ele>
        <time>2021-11-15T19:08:47.604Z</time>
      </trkpt>
      <trkpt lat="38.56813" lon="37.46277">
        <ele>1168.277845</ele>
        <time>2021-11-15T19:08:49.224Z</time>
      </trkpt>
      <trkpt lat="38.56826" lon="37.46242">
        <ele>1170.419585</ele>
        <time>2021-11-15T19:09:05.449Z</time>
      </trkpt>
      <trkpt lat="38.56838" lon="37.46208">
        <ele>1172.529809</ele>
        <time>2021-11-15T19:09:21.082Z</time>
      </trkpt>
      <trkpt lat="38.56864" lon="37.46167">
        <ele>1175.433197</ele>
        <time>2021-11-15T19:09:42.280Z</time>
      </trkpt>
      <trkpt lat="38.56885" lon="37.46142">
        <ele>1177.491763</ele>
        <time>2021-11-15T19:09:57.512Z</time>
      </trkpt>
      <trkpt lat="38.56932" lon="37.461">
        <ele>1180.96803</ele>
        <time>2021-11-15T19:10:24.379Z</time>
      </trkpt>
      <trkpt lat="38.5698" lon="37.46073">
        <ele>1183.304861</ele>
        <time>2021-11-15T19:10:46.355Z</time>
      </trkpt>
      <trkpt lat="38.57021" lon="37.46061">
        <ele>1185.174605</ele>
        <time>2021-11-15T19:11:02.800Z</time>
      </trkpt>
      <trkpt lat="38.57086" lon="37.46056">
        <ele>1188.044028</ele>
        <time>2021-11-15T19:11:25.840Z</time>
      </trkpt>
      <trkpt lat="38.57111" lon="37.46062">
        <ele>1188.982061</ele>
        <time>2021-11-15T19:11:34.358Z</time>
      </trkpt>
      <trkpt lat="38.57166" lon="37.46082">
        <ele>1191.08513</ele>
        <time>2021-11-15T19:11:53.444Z</time>
      </trkpt>
      <trkpt lat="38.57226" lon="37.46123">
        <ele>1193.619062</ele>
        <time>2021-11-15T19:12:17.192Z</time>
      </trkpt>
      <trkpt lat="38.57391" lon="37.46254">
        <ele>1205.794763</ele>
        <time>2021-11-15T19:13:48.973Z</time>
      </trkpt>
      <trkpt lat="38.57507" lon="37.4636">
        <ele>1219.105296</ele>
        <time>2021-11-15T19:15:19.192Z</time>
      </trkpt>
      <trkpt lat="38.57611" lon="37.46442">
        <ele>1229.37692</ele>
        <time>2021-11-15T19:16:31.991Z</time>
      </trkpt>
      <trkpt lat="38.57701" lon="37.46498">
        <ele>1236.955892</ele>
        <time>2021-11-15T19:17:20.536Z</time>
      </trkpt>
      <trkpt lat="38.57745" lon="37.46505">
        <ele>1239.631658</ele>
        <time>2021-11-15T19:17:40.433Z</time>
      </trkpt>
      <trkpt lat="38.57805" lon="37.46498">
        <ele>1243.121561</ele>
        <time>2021-11-15T19:18:06.443Z</time>
      </trkpt>
      <trkpt lat="38.57842" lon="37.46477">
        <ele>1245.41229</ele>
        <time>2021-11-15T19:18:23.998Z</time>
      </trkpt>
      <trkpt lat="38.57884" lon="37.46437">
        <ele>1248.679165</ele>
        <time>2021-11-15T19:18:48.320Z</time>
      </trkpt>
      <trkpt lat="38.579" lon="37.46416">
        <ele>1250.434986</ele>
        <time>2021-11-15T19:18:59.157Z</time>
      </trkpt>
      <trkpt lat="38.5804" lon="37.46154">
        <ele>1272.480465</ele>
        <time>2021-11-15T19:21:15.946Z</time>
      </trkpt>
      <trkpt lat="38.58103" lon="37.46085">
        <ele>1281.444418</ele>
        <time>2021-11-15T19:22:18.328Z</time>
      </trkpt>
      <trkpt lat="38.5814" lon="37.46063">
        <ele>1287.155318</ele>
        <time>2021-11-15T19:22:52.083Z</time>
      </trkpt>
      <trkpt lat="38.58168" lon="37.46056">
        <ele>1291.186061</ele>
        <time>2021-11-15T19:23:16.104Z</time>
      </trkpt>
      <trkpt lat="38.58213" lon="37.46048">
        <ele>1297.661995</ele>
        <time>2021-11-15T19:23:54.708Z</time>
      </trkpt>
      <trkpt lat="38.58284" lon="37.46059">
        <ele>1307.146489</ele>
        <time>2021-11-15T19:24:50.922Z</time>
      </trkpt>
      <trkpt lat="38.5853" lon="37.46198">
        <ele>1329.258785</ele>
        <time>2021-11-15T19:27:23.067Z</time>
      </trkpt>
      <trkpt lat="38.58666" lon="37.46288">
        <ele>1336.590205</ele>
        <time>2021-11-15T19:28:16.018Z</time>
      </trkpt>
      <trkpt lat="38.58679" lon="37.46293">
        <ele>1337.029044</ele>
        <time>2021-11-15T19:28:19.971Z</time>
      </trkpt>
      <trkpt lat="38.58681" lon="37.46297">
        <ele>1337.169616</ele>
        <time>2021-11-15T19:28:21.449Z</time>
      </trkpt>
      <trkpt lat="38.58685" lon="37.463">
        <ele>1337.309761</ele>
        <time>2021-11-15T19:28:22.788Z</time>
      </trkpt>
      <trkpt lat="38.58689" lon="37.46302">
        <ele>1337.463305</ele>
        <time>2021-11-15T19:28:24.152Z</time>
      </trkpt>
      <trkpt lat="38.58694" lon="37.46301">
        <ele>1337.617913</ele>
        <time>2021-11-15T19:28:25.401Z</time>
      </trkpt>
      <trkpt lat="38.58712" lon="37.46311">
        <ele>1338.277673</ele>
        <time>2021-11-15T19:28:32.081Z</time>
      </trkpt>
      <trkpt lat="38.58851" lon="37.46356">
        <ele>1344.255071</ele>
        <time>2021-11-15T19:29:28.978Z</time>
      </trkpt>
      <trkpt lat="38.58906" lon="37.46356">
        <ele>1346.787001</ele>
        <time>2021-11-15T19:29:51.901Z</time>
      </trkpt>
      <trkpt lat="38.58954" lon="37.46344">
        <ele>1349.119661</ele>
        <time>2021-11-15T19:30:12.700Z</time>
      </trkpt>
      <trkpt lat="38.59139" lon="37.46279">
        <ele>1358.909923</ele>
        <time>2021-11-15T19:31:35.047Z</time>
      </trkpt>
      <trkpt lat="38.59256" lon="37.46253">
        <ele>1364.773099</ele>
        <time>2021-11-15T19:32:24.993Z</time>
      </trkpt>
      <trkpt lat="38.59605" lon="37.46221">
        <ele>1382.099213</ele>
        <time>2021-11-15T19:34:50.771Z</time>
      </trkpt>
      <trkpt lat="38.59663" lon="37.4622">
        <ele>1385.160149</ele>
        <time>2021-11-15T19:35:16.310Z</time>
      </trkpt>
      <trkpt lat="38.59721" lon="37.46228">
        <ele>1388.814155</ele>
        <time>2021-11-15T19:35:42.950Z</time>
      </trkpt>
      <trkpt lat="38.59977" lon="37.46316">
        <ele>1406.139575</ele>
        <time>2021-11-15T19:37:51.701Z</time>
      </trkpt>
      <trkpt lat="38.6003" lon="37.46352">
        <ele>1410.367728</ele>
        <time>2021-11-15T19:38:23.591Z</time>
      </trkpt>
      <trkpt lat="38.60057" lon="37.4638">
        <ele>1412.851799</ele>
        <time>2021-11-15T19:38:42.050Z</time>
      </trkpt>
      <trkpt lat="38.60088" lon="37.46442">
        <ele>1416.940205</ele>
        <time>2021-11-15T19:39:12.499Z</time>
      </trkpt>
      <trkpt lat="38.60107" lon="37.466">
        <ele>1423.536384</ele>
        <time>2021-11-15T19:40:11.361Z</time>
      </trkpt>
      <trkpt lat="38.60128" lon="37.4666">
        <ele>1425.544907</ele>
        <time>2021-11-15T19:40:30.044Z</time>
      </trkpt>
      <trkpt lat="38.60149" lon="37.46699">
        <ele>1426.990042</ele>
        <time>2021-11-15T19:40:41.408Z</time>
      </trkpt>
      <trkpt lat="38.60169" lon="37.46721">
        <ele>1427.741997</ele>
        <time>2021-11-15T19:40:48.449Z</time>
      </trkpt>
      <trkpt lat="38.60199" lon="37.46746">
        <ele>1427.654095</ele>
        <time>2021-11-15T19:40:57.221Z</time>
      </trkpt>
      <trkpt lat="38.60218" lon="37.46754">
        <ele>1427.605376</ele>
        <time>2021-11-15T19:41:01.469Z</time>
      </trkpt>
      <trkpt lat="38.6029" lon="37.46765">
        <ele>1427.429572</ele>
        <time>2021-11-15T19:41:15.563Z</time>
      </trkpt>
      <trkpt lat="38.60638" lon="37.46772">
        <ele>1426.366073</ele>
        <time>2021-11-15T19:42:25.228Z</time>
      </trkpt>
      <trkpt lat="38.60812" lon="37.46793">
        <ele>1428.97289</ele>
        <time>2021-11-15T19:43:18.010Z</time>
      </trkpt>
      <trkpt lat="38.61066" lon="37.46795">
        <ele>1435.083623</ele>
        <time>2021-11-15T19:44:39.957Z</time>
      </trkpt>
      <trkpt lat="38.61145" lon="37.46787">
        <ele>1436.572481</ele>
        <time>2021-11-15T19:45:06.791Z</time>
      </trkpt>
      <trkpt lat="38.61176" lon="37.46774">
        <ele>1437.175593</ele>
        <time>2021-11-15T19:45:16.693Z</time>
      </trkpt>
      <trkpt lat="38.61206" lon="37.46746">
        <ele>1437.868422</ele>
        <time>2021-11-15T19:45:27.145Z</time>
      </trkpt>
      <trkpt lat="38.61244" lon="37.46682">
        <ele>1437.026805</ele>
        <time>2021-11-15T19:45:41.449Z</time>
      </trkpt>
      <trkpt lat="38.61303" lon="37.46564">
        <ele>1434.010774</ele>
        <time>2021-11-15T19:45:59.198Z</time>
      </trkpt>
      <trkpt lat="38.61344" lon="37.465">
        <ele>1431.552741</ele>
        <time>2021-11-15T19:46:08.738Z</time>
      </trkpt>
      <trkpt lat="38.61505" lon="37.46343">
        <ele>1425.183973</ele>
        <time>2021-11-15T19:46:40.095Z</time>
      </trkpt>
      <trkpt lat="38.61529" lon="37.46303">
        <ele>1425.189163</ele>
        <time>2021-11-15T19:46:49.919Z</time>
      </trkpt>
      <trkpt lat="38.61545" lon="37.46265">
        <ele>1425.193731</ele>
        <time>2021-11-15T19:47:00.295Z</time>
      </trkpt>
      <trkpt lat="38.61557" lon="37.46213">
        <ele>1425.19927</ele>
        <time>2021-11-15T19:47:15.293Z</time>
      </trkpt>
      <trkpt lat="38.61559" lon="37.46159">
        <ele>1425.911499</ele>
        <time>2021-11-15T19:47:31.808Z</time>
      </trkpt>
      <trkpt lat="38.61555" lon="37.46117">
        <ele>1426.515761</ele>
        <time>2021-11-15T19:47:44.276Z</time>
      </trkpt>
      <trkpt lat="38.6153" lon="37.46023">
        <ele>1427.93166</ele>
        <time>2021-11-15T19:48:08.296Z</time>
      </trkpt>
      <trkpt lat="38.61482" lon="37.4588">
        <ele>1425.133205</ele>
        <time>2021-11-15T19:48:29.475Z</time>
      </trkpt>
      <trkpt lat="38.61479" lon="37.45809">
        <ele>1423.11438</ele>
        <time>2021-11-15T19:48:37.681Z</time>
      </trkpt>
      <trkpt lat="38.61489" lon="37.45756">
        <ele>1421.382071</ele>
        <time>2021-11-15T19:48:43.909Z</time>
      </trkpt>
      <trkpt lat="38.615" lon="37.45725">
        <ele>1419.874759</ele>
        <time>2021-11-15T19:48:47.898Z</time>
      </trkpt>
      <trkpt lat="38.61567" lon="37.45586">
        <ele>1412.863192</ele>
        <time>2021-11-15T19:49:06.767Z</time>
      </trkpt>
      <trkpt lat="38.61618" lon="37.45437">
        <ele>1407.212627</ele>
        <time>2021-11-15T19:49:26.197Z</time>
      </trkpt>
      <trkpt lat="38.61639" lon="37.45365">
        <ele>1404.662351</ele>
        <time>2021-11-15T19:49:35.603Z</time>
      </trkpt>
      <trkpt lat="38.61642" lon="37.45362">
        <ele>1404.467625</ele>
        <time>2021-11-15T19:49:36.335Z</time>
      </trkpt>
      <trkpt lat="38.61645" lon="37.45358">
        <ele>1404.272586</ele>
        <time>2021-11-15T19:49:37.078Z</time>
      </trkpt>
      <trkpt lat="38.61647" lon="37.45352">
        <ele>1404.185997</ele>
        <time>2021-11-15T19:49:37.843Z</time>
      </trkpt>
      <trkpt lat="38.61647" lon="37.45346">
        <ele>1404.103746</ele>
        <time>2021-11-15T19:49:38.621Z</time>
      </trkpt>
      <trkpt lat="38.61654" lon="37.45326">
        <ele>1403.781968</ele>
        <time>2021-11-15T19:49:41.424Z</time>
      </trkpt>
      <trkpt lat="38.61699" lon="37.45238">
        <ele>1402.290903</ele>
        <time>2021-11-15T19:49:55.464Z</time>
      </trkpt>
      <trkpt lat="38.61748" lon="37.4519">
        <ele>1401.18103</ele>
        <time>2021-11-15T19:50:07.187Z</time>
      </trkpt>
      <trkpt lat="38.61931" lon="37.45103">
        <ele>1402.479483</ele>
        <time>2021-11-15T19:50:58.437Z</time>
      </trkpt>
      <trkpt lat="38.61968" lon="37.45076">
        <ele>1402.907608</ele>
        <time>2021-11-15T19:51:09.743Z</time>
      </trkpt>
      <trkpt lat="38.62028" lon="37.45014">
        <ele>1403.670349</ele>
        <time>2021-11-15T19:51:29.434Z</time>
      </trkpt>
      <trkpt lat="38.62052" lon="37.44996">
        <ele>1403.951622</ele>
        <time>2021-11-15T19:51:36.720Z</time>
      </trkpt>
      <trkpt lat="38.62101" lon="37.44978">
        <ele>1404.692019</ele>
        <time>2021-11-15T19:51:50.127Z</time>
      </trkpt>
      <trkpt lat="38.62156" lon="37.44978">
        <ele>1405.79593</ele>
        <time>2021-11-15T19:52:05.921Z</time>
      </trkpt>
      <trkpt lat="38.62182" lon="37.44986">
        <ele>1406.319984</ele>
        <time>2021-11-15T19:52:13.980Z</time>
      </trkpt>
      <trkpt lat="38.62224" lon="37.45011">
        <ele>1407.233764</ele>
        <time>2021-11-15T19:52:28.713Z</time>
      </trkpt>
      <trkpt lat="38.62267" lon="37.45062">
        <ele>1408.582358</ele>
        <time>2021-11-15T19:52:48.711Z</time>
      </trkpt>
      <trkpt lat="38.62378" lon="37.45268">
        <ele>1412.908094</ele>
        <time>2021-11-15T19:53:52.744Z</time>
      </trkpt>
      <trkpt lat="38.625" lon="37.45458">
        <ele>1414.712239</ele>
        <time>2021-11-15T19:54:37.547Z</time>
      </trkpt>
      <trkpt lat="38.62619" lon="37.45632">
        <ele>1417.344761</ele>
        <time>2021-11-15T19:55:26.623Z</time>
      </trkpt>
      <trkpt lat="38.62655" lon="37.45674">
        <ele>1418.60275</ele>
        <time>2021-11-15T19:55:43.877Z</time>
      </trkpt>
      <trkpt lat="38.62694" lon="37.45704">
        <ele>1419.766081</ele>
        <time>2021-11-15T19:56:00.017Z</time>
      </trkpt>
      <trkpt lat="38.62752" lon="37.45727">
        <ele>1420.80276</ele>
        <time>2021-11-15T19:56:21.287Z</time>
      </trkpt>
      <trkpt lat="38.62807" lon="37.45727">
        <ele>1421.411586</ele>
        <time>2021-11-15T19:56:39.951Z</time>
      </trkpt>
      <trkpt lat="38.63171" lon="37.45645">
        <ele>1424.564017</ele>
        <time>2021-11-15T19:58:08.784Z</time>
      </trkpt>
      <trkpt lat="38.63267" lon="37.45608">
        <ele>1424.384192</ele>
        <time>2021-11-15T19:58:30.773Z</time>
      </trkpt>
      <trkpt lat="38.63306" lon="37.45578">
        <ele>1423.589524</ele>
        <time>2021-11-15T19:58:40.197Z</time>
      </trkpt>
      <trkpt lat="38.63339" lon="37.45534">
        <ele>1422.756276</ele>
        <time>2021-11-15T19:58:49.097Z</time>
      </trkpt>
      <trkpt lat="38.6336" lon="37.45493">
        <ele>1422.087042</ele>
        <time>2021-11-15T19:58:55.702Z</time>
      </trkpt>
      <trkpt lat="38.6338" lon="37.45426">
        <ele>1419.904009</ele>
        <time>2021-11-15T19:59:04.734Z</time>
      </trkpt>
      <trkpt lat="38.63414" lon="37.45237">
        <ele>1410.764081</ele>
        <time>2021-11-15T19:59:26.651Z</time>
      </trkpt>
      <trkpt lat="38.63437" lon="37.45168">
        <ele>1405.271454</ele>
        <time>2021-11-15T19:59:34.689Z</time>
      </trkpt>
      <trkpt lat="38.63471" lon="37.4511">
        <ele>1399.911683</ele>
        <time>2021-11-15T19:59:42.403Z</time>
      </trkpt>
      <trkpt lat="38.63492" lon="37.45086">
        <ele>1397.227985</ele>
        <time>2021-11-15T19:59:46.245Z</time>
      </trkpt>
      <trkpt lat="38.63532" lon="37.45054">
        <ele>1392.74893</ele>
        <time>2021-11-15T19:59:52.652Z</time>
      </trkpt>
      <trkpt lat="38.63594" lon="37.45028">
        <ele>1386.575484</ele>
        <time>2021-11-15T20:00:01.552Z</time>
      </trkpt>
      <trkpt lat="38.63748" lon="37.45028">
        <ele>1372.906685</ele>
        <time>2021-11-15T20:00:22.845Z</time>
      </trkpt>
      <trkpt lat="38.63807" lon="37.45015">
        <ele>1368.357046</ele>
        <time>2021-11-15T20:00:31.193Z</time>
      </trkpt>
      <trkpt lat="38.63853" lon="37.44995">
        <ele>1364.587749</ele>
        <time>2021-11-15T20:00:38.160Z</time>
      </trkpt>
      <trkpt lat="38.64039" lon="37.44886">
        <ele>1350.552751</ele>
        <time>2021-11-15T20:01:07.602Z</time>
      </trkpt>
      <trkpt lat="38.64225" lon="37.44834">
        <ele>1337.232959</ele>
        <time>2021-11-15T20:01:35.033Z</time>
      </trkpt>
      <trkpt lat="38.6427" lon="37.44814">
        <ele>1333.613074</ele>
        <time>2021-11-15T20:01:41.722Z</time>
      </trkpt>
      <trkpt lat="38.64864" lon="37.44458">
        <ele>1283.680774</ele>
        <time>2021-11-15T20:03:14.225Z</time>
      </trkpt>
      <trkpt lat="38.64952" lon="37.44429">
        <ele>1279.054533</ele>
        <time>2021-11-15T20:03:27.857Z</time>
      </trkpt>
      <trkpt lat="38.6504" lon="37.44423">
        <ele>1274.646809</ele>
        <time>2021-11-15T20:03:41.406Z</time>
      </trkpt>
      <trkpt lat="38.65053" lon="37.44425">
        <ele>1274.132541</ele>
        <time>2021-11-15T20:03:43.454Z</time>
      </trkpt>
      <trkpt lat="38.65058" lon="37.44425">
        <ele>1273.961118</ele>
        <time>2021-11-15T20:03:44.211Z</time>
      </trkpt>
      <trkpt lat="38.65062" lon="37.44424">
        <ele>1273.793699</ele>
        <time>2021-11-15T20:03:44.973Z</time>
      </trkpt>
      <trkpt lat="38.65079" lon="37.44423">
        <ele>1273.155582</ele>
        <time>2021-11-15T20:03:47.669Z</time>
      </trkpt>
      <trkpt lat="38.65134" lon="37.44427">
        <ele>1271.18051</ele>
        <time>2021-11-15T20:03:56.363Z</time>
      </trkpt>
      <trkpt lat="38.65203" lon="37.44445">
        <ele>1268.610665</ele>
        <time>2021-11-15T20:04:07.586Z</time>
      </trkpt>
      <trkpt lat="38.65261" lon="37.4447">
        <ele>1266.884412</ele>
        <time>2021-11-15T20:04:17.580Z</time>
      </trkpt>
      <trkpt lat="38.65418" lon="37.44564">
        <ele>1262.564367</ele>
        <time>2021-11-15T20:04:47.886Z</time>
      </trkpt>
      <trkpt lat="38.65445" lon="37.44572">
        <ele>1261.814569</ele>
        <time>2021-11-15T20:04:52.778Z</time>
      </trkpt>
      <trkpt lat="38.65486" lon="37.44571">
        <ele>1260.696884</ele>
        <time>2021-11-15T20:04:59.787Z</time>
      </trkpt>
      <trkpt lat="38.65548" lon="37.44543">
        <ele>1258.895392</ele>
        <time>2021-11-15T20:05:10.702Z</time>
      </trkpt>
      <trkpt lat="38.65775" lon="37.44392">
        <ele>1246.334553</ele>
        <time>2021-11-15T20:05:49.559Z</time>
      </trkpt>
      <trkpt lat="38.65861" lon="37.44344">
        <ele>1240.953348</ele>
        <time>2021-11-15T20:06:03.253Z</time>
      </trkpt>
      <trkpt lat="38.66317" lon="37.44211">
        <ele>1212.704646</ele>
        <time>2021-11-15T20:07:11.106Z</time>
      </trkpt>
      <trkpt lat="38.66353" lon="37.44201">
        <ele>1210.890607</ele>
        <time>2021-11-15T20:07:16.892Z</time>
      </trkpt>
      <trkpt lat="38.66442" lon="37.44175">
        <ele>1207.452612</ele>
        <time>2021-11-15T20:07:31.788Z</time>
      </trkpt>
      <trkpt lat="38.66804" lon="37.44067">
        <ele>1200.93456</ele>
        <time>2021-11-15T20:08:38.799Z</time>
      </trkpt>
      <trkpt lat="38.66869" lon="37.44038">
        <ele>1200.19701</ele>
        <time>2021-11-15T20:08:52.044Z</time>
      </trkpt>
      <trkpt lat="38.67101" lon="37.43883">
        <ele>1198.538181</ele>
        <time>2021-11-15T20:09:44.960Z</time>
      </trkpt>
      <trkpt lat="38.67121" lon="37.43869">
        <ele>1198.61628</ele>
        <time>2021-11-15T20:09:49.621Z</time>
      </trkpt>
      <trkpt lat="38.67178" lon="37.4383">
        <ele>1198.843747</ele>
        <time>2021-11-15T20:10:04.030Z</time>
      </trkpt>
      <trkpt lat="38.67874" lon="37.43352">
        <ele>1208.204971</ele>
        <time>2021-11-15T20:13:38.193Z</time>
      </trkpt>
      <trkpt lat="38.67964" lon="37.43281">
        <ele>1211.693166</ele>
        <time>2021-11-15T20:14:14.208Z</time>
      </trkpt>
      <trkpt lat="38.6804" lon="37.43211">
        <ele>1215.145468</ele>
        <time>2021-11-15T20:14:50.511Z</time>
      </trkpt>
      <trkpt lat="38.68139" lon="37.43101">
        <ele>1222.004007</ele>
        <time>2021-11-15T20:15:47.352Z</time>
      </trkpt>
      <trkpt lat="38.6838" lon="37.42793">
        <ele>1240.453522</ele>
        <time>2021-11-15T20:18:24.403Z</time>
      </trkpt>
      <trkpt lat="38.68444" lon="37.42732">
        <ele>1242.311316</ele>
        <time>2021-11-15T20:18:50.703Z</time>
      </trkpt>
      <trkpt lat="38.68515" lon="37.42691">
        <ele>1240.668493</ele>
        <time>2021-11-15T20:19:05.970Z</time>
      </trkpt>
      <trkpt lat="38.68554" lon="37.42675">
        <ele>1239.801149</ele>
        <time>2021-11-15T20:19:12.556Z</time>
      </trkpt>
      <trkpt lat="38.68785" lon="37.42598">
        <ele>1223.864324</ele>
        <time>2021-11-15T20:19:46.252Z</time>
      </trkpt>
      <trkpt lat="38.68863" lon="37.42549">
        <ele>1217.880532</ele>
        <time>2021-11-15T20:19:58.346Z</time>
      </trkpt>
      <trkpt lat="38.68926" lon="37.42484">
        <ele>1212.754655</ele>
        <time>2021-11-15T20:20:10.289Z</time>
      </trkpt>
      <trkpt lat="38.68969" lon="37.42422">
        <ele>1210.760738</ele>
        <time>2021-11-15T20:20:20.364Z</time>
      </trkpt>
      <trkpt lat="38.69003" lon="37.42341">
        <ele>1208.530425</ele>
        <time>2021-11-15T20:20:32.673Z</time>
      </trkpt>
      <trkpt lat="38.69024" lon="37.42274">
        <ele>1207.580893</ele>
        <time>2021-11-15T20:20:43.556Z</time>
      </trkpt>
      <trkpt lat="38.69036" lon="37.42226">
        <ele>1207.539116</ele>
        <time>2021-11-15T20:20:51.748Z</time>
      </trkpt>
      <trkpt lat="38.69048" lon="37.42168">
        <ele>1207.489719</ele>
        <time>2021-11-15T20:21:02.166Z</time>
      </trkpt>
      <trkpt lat="38.69069" lon="37.42101">
        <ele>1207.43009</ele>
        <time>2021-11-15T20:21:16.083Z</time>
      </trkpt>
      <trkpt lat="38.69095" lon="37.42014">
        <ele>1208.07018</ele>
        <time>2021-11-15T20:21:34.168Z</time>
      </trkpt>
      <trkpt lat="38.6911" lon="37.41987">
        <ele>1208.345782</ele>
        <time>2021-11-15T20:21:41.303Z</time>
      </trkpt>
      <trkpt lat="38.69113" lon="37.41983">
        <ele>1208.391935</ele>
        <time>2021-11-15T20:21:42.497Z</time>
      </trkpt>
      <trkpt lat="38.69115" lon="37.41978">
        <ele>1208.443511</ele>
        <time>2021-11-15T20:21:43.797Z</time>
      </trkpt>
      <trkpt lat="38.69121" lon="37.4196">
        <ele>1208.598103</ele>
        <time>2021-11-15T20:21:47.937Z</time>
      </trkpt>
      <trkpt lat="38.69162" lon="37.41901">
        <ele>1209.250127</ele>
        <time>2021-11-15T20:22:04.835Z</time>
      </trkpt>
      <trkpt lat="38.69186" lon="37.41875">
        <ele>1209.672644</ele>
        <time>2021-11-15T20:22:13.399Z</time>
      </trkpt>
      <trkpt lat="38.69785" lon="37.41333">
        <ele>1219.340536</ele>
        <time>2021-11-15T20:25:38.372Z</time>
      </trkpt>
      <trkpt lat="38.70434" lon="37.40659">
        <ele>1217.959788</ele>
        <time>2021-11-15T20:28:35.521Z</time>
      </trkpt>
      <trkpt lat="38.70688" lon="37.40384">
        <ele>1219.402569</ele>
        <time>2021-11-15T20:29:56.379Z</time>
      </trkpt>
      <trkpt lat="38.70762" lon="37.40292">
        <ele>1219.936116</ele>
        <time>2021-11-15T20:30:20.867Z</time>
      </trkpt>
      <trkpt lat="38.70809" lon="37.40215">
        <ele>1220.370181</ele>
        <time>2021-11-15T20:30:38.863Z</time>
      </trkpt>
      <trkpt lat="38.70833" lon="37.40172">
        <ele>1220.599627</ele>
        <time>2021-11-15T20:30:48.821Z</time>
      </trkpt>
      <trkpt lat="38.7089" lon="37.40035">
        <ele>1222.383675</ele>
        <time>2021-11-15T20:31:23.462Z</time>
      </trkpt>
      <trkpt lat="38.70896" lon="37.4002">
        <ele>1222.580191</ele>
        <time>2021-11-15T20:31:27.198Z</time>
      </trkpt>
      <trkpt lat="38.709" lon="37.40017">
        <ele>1222.652037</ele>
        <time>2021-11-15T20:31:28.541Z</time>
      </trkpt>
      <trkpt lat="38.70902" lon="37.40011">
        <ele>1222.727066</ele>
        <time>2021-11-15T20:31:29.802Z</time>
      </trkpt>
      <trkpt lat="38.70903" lon="37.40005">
        <ele>1222.801944</ele>
        <time>2021-11-15T20:31:31.191Z</time>
      </trkpt>
      <trkpt lat="38.70907" lon="37.39991">
        <ele>1222.989119</ele>
        <time>2021-11-15T20:31:35.151Z</time>
      </trkpt>
      <trkpt lat="38.7113" lon="37.39404">
        <ele>1231.096189</ele>
        <time>2021-11-15T20:34:02.560Z</time>
      </trkpt>
      <trkpt lat="38.71133" lon="37.3939">
        <ele>1231.251133</ele>
        <time>2021-11-15T20:34:05.743Z</time>
      </trkpt>
      <trkpt lat="38.71137" lon="37.39376">
        <ele>1231.398347</ele>
        <time>2021-11-15T20:34:08.484Z</time>
      </trkpt>
      <trkpt lat="38.71153" lon="37.39293">
        <ele>1232.001201</ele>
        <time>2021-11-15T20:34:25.457Z</time>
      </trkpt>
      <trkpt lat="38.71183" lon="37.39045">
        <ele>1232.580025</ele>
        <time>2021-11-15T20:35:10.578Z</time>
      </trkpt>
      <trkpt lat="38.71194" lon="37.38979">
        <ele>1232.678047</ele>
        <time>2021-11-15T20:35:22.331Z</time>
      </trkpt>
      <trkpt lat="38.71233" lon="37.38853">
        <ele>1233.064669</ele>
        <time>2021-11-15T20:35:46.578Z</time>
      </trkpt>
      <trkpt lat="38.71277" lon="37.38755">
        <ele>1233.949718</ele>
        <time>2021-11-15T20:36:08.720Z</time>
      </trkpt>
      <trkpt lat="38.71302" lon="37.38714">
        <ele>1234.359994</ele>
        <time>2021-11-15T20:36:19.935Z</time>
      </trkpt>
      <trkpt lat="38.71364" lon="37.38628">
        <ele>1236.096688</ele>
        <time>2021-11-15T20:36:47.282Z</time>
      </trkpt>
      <trkpt lat="38.71427" lon="37.38559">
        <ele>1237.991376</ele>
        <time>2021-11-15T20:37:14.065Z</time>
      </trkpt>
      <trkpt lat="38.71668" lon="37.38371">
        <ele>1244.836662</ele>
        <time>2021-11-15T20:38:47.864Z</time>
      </trkpt>
      <trkpt lat="38.71723" lon="37.38304">
        <ele>1246.105692</ele>
        <time>2021-11-15T20:39:09.390Z</time>
      </trkpt>
      <trkpt lat="38.71749" lon="37.38255">
        <ele>1246.640723</ele>
        <time>2021-11-15T20:39:21.185Z</time>
      </trkpt>
      <trkpt lat="38.71862" lon="37.37935">
        <ele>1244.825557</ele>
        <time>2021-11-15T20:40:15.324Z</time>
      </trkpt>
      <trkpt lat="38.71892" lon="37.37855">
        <ele>1244.223998</ele>
        <time>2021-11-15T20:40:28.490Z</time>
      </trkpt>
      <trkpt lat="38.71927" lon="37.37749">
        <ele>1243.489968</ele>
        <time>2021-11-15T20:40:46.161Z</time>
      </trkpt>
      <trkpt lat="38.71987" lon="37.37571">
        <ele>1242.559351</ele>
        <time>2021-11-15T20:41:16.210Z</time>
      </trkpt>
      <trkpt lat="38.72031" lon="37.37439">
        <ele>1242.230778</ele>
        <time>2021-11-15T20:41:40.333Z</time>
      </trkpt>
      <trkpt lat="38.7214" lon="37.36951">
        <ele>1243.669775</ele>
        <time>2021-11-15T20:43:16.436Z</time>
      </trkpt>
      <trkpt lat="38.72178" lon="37.36759">
        <ele>1242.744547</ele>
        <time>2021-11-15T20:43:47.348Z</time>
      </trkpt>
      <trkpt lat="38.72181" lon="37.36735">
        <ele>1242.501449</ele>
        <time>2021-11-15T20:43:50.784Z</time>
      </trkpt>
      <trkpt lat="38.72184" lon="37.36696">
        <ele>1242.105613</ele>
        <time>2021-11-15T20:43:56.466Z</time>
      </trkpt>
      <trkpt lat="38.72186" lon="37.36628">
        <ele>1241.418257</ele>
        <time>2021-11-15T20:44:06.146Z</time>
      </trkpt>
      <trkpt lat="38.72167" lon="37.36492">
        <ele>1240.36852</ele>
        <time>2021-11-15T20:44:26.089Z</time>
      </trkpt>
      <trkpt lat="38.72161" lon="37.36454">
        <ele>1240.331032</ele>
        <time>2021-11-15T20:44:32.231Z</time>
      </trkpt>
      <trkpt lat="38.72156" lon="37.36417">
        <ele>1240.294495</ele>
        <time>2021-11-15T20:44:38.460Z</time>
      </trkpt>
      <trkpt lat="38.72149" lon="37.36367">
        <ele>1240.245494</ele>
        <time>2021-11-15T20:44:47.277Z</time>
      </trkpt>
      <trkpt lat="38.72136" lon="37.36308">
        <ele>1240.186202</ele>
        <time>2021-11-15T20:44:58.711Z</time>
      </trkpt>
      <trkpt lat="38.7203" lon="37.35972">
        <ele>1244.347976</ele>
        <time>2021-11-15T20:46:18.167Z</time>
      </trkpt>
      <trkpt lat="38.72017" lon="37.35895">
        <ele>1245.451483</ele>
        <time>2021-11-15T20:46:36.631Z</time>
      </trkpt>
      <trkpt lat="38.72008" lon="37.35822">
        <ele>1246.659394</ele>
        <time>2021-11-15T20:46:55.652Z</time>
      </trkpt>
      <trkpt lat="38.72008" lon="37.35817">
        <ele>1246.748572</ele>
        <time>2021-11-15T20:46:56.993Z</time>
      </trkpt>
      <trkpt lat="38.72007" lon="37.35812">
        <ele>1246.835939</ele>
        <time>2021-11-15T20:46:58.148Z</time>
      </trkpt>
      <trkpt lat="38.72004" lon="37.35727">
        <ele>1248.320231</ele>
        <time>2021-11-15T20:47:19.271Z</time>
      </trkpt>
      <trkpt lat="38.72006" lon="37.35696">
        <ele>1248.872156</ele>
        <time>2021-11-15T20:47:26.328Z</time>
      </trkpt>
      <trkpt lat="38.72008" lon="37.35681">
        <ele>1249.128565</ele>
        <time>2021-11-15T20:47:30.415Z</time>
      </trkpt>
      <trkpt lat="38.72015" lon="37.35637">
        <ele>1249.86905</ele>
        <time>2021-11-15T20:47:41.059Z</time>
      </trkpt>
      <trkpt lat="38.72023" lon="37.35565">
        <ele>1250.584816</ele>
        <time>2021-11-15T20:47:57.531Z</time>
      </trkpt>
      <trkpt lat="38.72007" lon="37.35504">
        <ele>1251.208022</ele>
        <time>2021-11-15T20:48:11.460Z</time>
      </trkpt>
      <trkpt lat="38.71968" lon="37.35428">
        <ele>1252.109272</ele>
        <time>2021-11-15T20:48:28.495Z</time>
      </trkpt>
      <trkpt lat="38.71943" lon="37.35369">
        <ele>1252.98159</ele>
        <time>2021-11-15T20:48:41.761Z</time>
      </trkpt>
      <trkpt lat="38.71934" lon="37.35316">
        <ele>1253.675238</ele>
        <time>2021-11-15T20:48:53.233Z</time>
      </trkpt>
      <trkpt lat="38.71936" lon="37.35244">
        <ele>1254.617279</ele>
        <time>2021-11-15T20:49:09.845Z</time>
      </trkpt>
      <trkpt lat="38.7208" lon="37.34385">
        <ele>1279.411231</ele>
        <time>2021-11-15T20:53:21.464Z</time>
      </trkpt>
      <trkpt lat="38.72098" lon="37.34308">
        <ele>1282.093061</ele>
        <time>2021-11-15T20:53:48.625Z</time>
      </trkpt>
      <trkpt lat="38.72153" lon="37.34133">
        <ele>1289.83483</ele>
        <time>2021-11-15T20:54:53.915Z</time>
      </trkpt>
      <trkpt lat="38.72266" lon="37.33878">
        <ele>1300.408732</ele>
        <time>2021-11-15T20:56:27.012Z</time>
      </trkpt>
      <trkpt lat="38.72272" lon="37.3384">
        <ele>1301.535076</ele>
        <time>2021-11-15T20:56:38.506Z</time>
      </trkpt>
      <trkpt lat="38.72269" lon="37.33803">
        <ele>1302.62142</ele>
        <time>2021-11-15T20:56:49.335Z</time>
      </trkpt>
      <trkpt lat="38.72259" lon="37.33767">
        <ele>1303.728701</ele>
        <time>2021-11-15T20:57:00.182Z</time>
      </trkpt>
      <trkpt lat="38.72242" lon="37.3374">
        <ele>1304.769953</ele>
        <time>2021-11-15T20:57:10.277Z</time>
      </trkpt>
      <trkpt lat="38.72212" lon="37.3371">
        <ele>1306.179056</ele>
        <time>2021-11-15T20:57:23.720Z</time>
      </trkpt>
      <trkpt lat="38.72193" lon="37.33701">
        <ele>1306.881088</ele>
        <time>2021-11-15T20:57:30.604Z</time>
      </trkpt>
      <trkpt lat="38.72158" lon="37.337">
        <ele>1308.122886</ele>
        <time>2021-11-15T20:57:43.256Z</time>
      </trkpt>
      <trkpt lat="38.72056" lon="37.33757">
        <ele>1312.020372</ele>
        <time>2021-11-15T20:58:23.066Z</time>
      </trkpt>
      <trkpt lat="38.72026" lon="37.33769">
        <ele>1313.288465</ele>
        <time>2021-11-15T20:58:34.863Z</time>
      </trkpt>
      <trkpt lat="38.71979" lon="37.33777">
        <ele>1315.648618</ele>
        <time>2021-11-15T20:58:53.584Z</time>
      </trkpt>
      <trkpt lat="38.71839" lon="37.33751">
        <ele>1322.658239</ele>
        <time>2021-11-15T20:59:55.748Z</time>
      </trkpt>
      <trkpt lat="38.71715" lon="37.33716">
        <ele>1329.109396</ele>
        <time>2021-11-15T21:00:53.026Z</time>
      </trkpt>
      <trkpt lat="38.71682" lon="37.33694">
        <ele>1330.789128</ele>
        <time>2021-11-15T21:01:07.313Z</time>
      </trkpt>
      <trkpt lat="38.71646" lon="37.33653">
        <ele>1331.009034</ele>
        <time>2021-11-15T21:01:22.783Z</time>
      </trkpt>
      <trkpt lat="38.71615" lon="37.33579">
        <ele>1331.313292</ele>
        <time>2021-11-15T21:01:38.812Z</time>
      </trkpt>
      <trkpt lat="38.71606" lon="37.3351">
        <ele>1331.561354</ele>
        <time>2021-11-15T21:01:48.632Z</time>
      </trkpt>
      <trkpt lat="38.71638" lon="37.33147">
        <ele>1323.64195</ele>
        <time>2021-11-15T21:02:35.046Z</time>
      </trkpt>
      <trkpt lat="38.71653" lon="37.33028">
        <ele>1321.252197</ele>
        <time>2021-11-15T21:02:51.902Z</time>
      </trkpt>
      <trkpt lat="38.71652" lon="37.32933">
        <ele>1319.611953</ele>
        <time>2021-11-15T21:03:05.096Z</time>
      </trkpt>
      <trkpt lat="38.71648" lon="37.32899">
        <ele>1319.003318</ele>
        <time>2021-11-15T21:03:09.896Z</time>
      </trkpt>
      <trkpt lat="38.71625" lon="37.32813">
        <ele>1317.381103</ele>
        <time>2021-11-15T21:03:21.839Z</time>
      </trkpt>
      <trkpt lat="38.71532" lon="37.32552">
        <ele>1311.037409</ele>
        <time>2021-11-15T21:03:57.868Z</time>
      </trkpt>
      <trkpt lat="38.71513" lon="37.32462">
        <ele>1310.08609</ele>
        <time>2021-11-15T21:04:11.490Z</time>
      </trkpt>
      <trkpt lat="38.71503" lon="37.32356">
        <ele>1309.568067</ele>
        <time>2021-11-15T21:04:31.376Z</time>
      </trkpt>
      <trkpt lat="38.71505" lon="37.32288">
        <ele>1310.077296</ele>
        <time>2021-11-15T21:04:46.245Z</time>
      </trkpt>
      <trkpt lat="38.71519" lon="37.32239">
        <ele>1310.460922</ele>
        <time>2021-11-15T21:04:57.552Z</time>
      </trkpt>
      <trkpt lat="38.7153" lon="37.32215">
        <ele>1310.668801</ele>
        <time>2021-11-15T21:05:03.546Z</time>
      </trkpt>
      <trkpt lat="38.7159" lon="37.32148">
        <ele>1310.629751</ele>
        <time>2021-11-15T21:05:23.569Z</time>
      </trkpt>
      <trkpt lat="38.71604" lon="37.32125">
        <ele>1310.385122</ele>
        <time>2021-11-15T21:05:28.354Z</time>
      </trkpt>
      <trkpt lat="38.71644" lon="37.32039">
        <ele>1309.571377</ele>
        <time>2021-11-15T21:05:42.456Z</time>
      </trkpt>
      <trkpt lat="38.71662" lon="37.31955">
        <ele>1308.603725</ele>
        <time>2021-11-15T21:05:54.182Z</time>
      </trkpt>
      <trkpt lat="38.71668" lon="37.319">
        <ele>1307.773899</ele>
        <time>2021-11-15T21:06:01.480Z</time>
      </trkpt>
      <trkpt lat="38.71665" lon="37.3171">
        <ele>1305.989876</ele>
        <time>2021-11-15T21:06:28.262Z</time>
      </trkpt>
      <trkpt lat="38.71669" lon="37.3168">
        <ele>1306.141006</ele>
        <time>2021-11-15T21:06:33.603Z</time>
      </trkpt>
      <trkpt lat="38.71708" lon="37.31548">
        <ele>1306.850968</ele>
        <time>2021-11-15T21:07:03.892Z</time>
      </trkpt>
      <trkpt lat="38.7181" lon="37.3094">
        <ele>1319.099735</ele>
        <time>2021-11-15T21:09:50.200Z</time>
      </trkpt>
      <trkpt lat="38.71841" lon="37.30819">
        <ele>1318.84022</ele>
        <time>2021-11-15T21:10:09.027Z</time>
      </trkpt>
      <trkpt lat="38.7187" lon="37.30762">
        <ele>1317.310668</ele>
        <time>2021-11-15T21:10:17.649Z</time>
      </trkpt>
      <trkpt lat="38.71896" lon="37.30729">
        <ele>1316.24258</ele>
        <time>2021-11-15T21:10:23.510Z</time>
      </trkpt>
      <trkpt lat="38.7192" lon="37.30697">
        <ele>1315.251314</ele>
        <time>2021-11-15T21:10:28.932Z</time>
      </trkpt>
      <trkpt lat="38.71938" lon="37.30677">
        <ele>1314.579436</ele>
        <time>2021-11-15T21:10:32.555Z</time>
      </trkpt>
      <trkpt lat="38.72025" lon="37.30565">
        <ele>1310.967905</ele>
        <time>2021-11-15T21:10:52.401Z</time>
      </trkpt>
      <trkpt lat="38.72076" lon="37.30479">
        <ele>1309.264836</ele>
        <time>2021-11-15T21:11:07.765Z</time>
      </trkpt>
      <trkpt lat="38.72103" lon="37.30377">
        <ele>1308.611918</ele>
        <time>2021-11-15T21:11:24.278Z</time>
      </trkpt>
      <trkpt lat="38.72103" lon="37.30377">
        <ele>1308.611918</ele>
        <time>2021-11-15T21:11:24.283Z</time>
      </trkpt>
      <trkpt lat="38.72114" lon="37.30271">
        <ele>1308.163659</ele>
        <time>2021-11-15T21:11:42.839Z</time>
      </trkpt>
      <trkpt lat="38.72114" lon="37.30191">
        <ele>1308.220296</ele>
        <time>2021-11-15T21:11:57.105Z</time>
      </trkpt>
      <trkpt lat="38.72114" lon="37.30179">
        <ele>1308.228598</ele>
        <time>2021-11-15T21:11:59.498Z</time>
      </trkpt>
      <trkpt lat="38.72118" lon="37.30057">
        <ele>1308.265082</ele>
        <time>2021-11-15T21:12:21.220Z</time>
      </trkpt>
      <trkpt lat="38.72136" lon="37.29918">
        <ele>1307.807735</ele>
        <time>2021-11-15T21:12:44.297Z</time>
      </trkpt>
      <trkpt lat="38.72161" lon="37.29829">
        <ele>1307.514808</ele>
        <time>2021-11-15T21:12:58.637Z</time>
      </trkpt>
      <trkpt lat="38.72216" lon="37.29672">
        <ele>1307.072516</ele>
        <time>2021-11-15T21:13:26.562Z</time>
      </trkpt>
      <trkpt lat="38.72231" lon="37.2963">
        <ele>1306.999744</ele>
        <time>2021-11-15T21:13:34.885Z</time>
      </trkpt>
      <trkpt lat="38.72236" lon="37.29616">
        <ele>1307.082881</ele>
        <time>2021-11-15T21:13:37.645Z</time>
      </trkpt>
      <trkpt lat="38.72248" lon="37.2958">
        <ele>1307.304075</ele>
        <time>2021-11-15T21:13:44.960Z</time>
      </trkpt>
      <trkpt lat="38.7231" lon="37.29392">
        <ele>1308.556907</ele>
        <time>2021-11-15T21:14:26.497Z</time>
      </trkpt>
      <trkpt lat="38.72337" lon="37.29275">
        <ele>1309.609664</ele>
        <time>2021-11-15T21:14:51.452Z</time>
      </trkpt>
      <trkpt lat="38.72362" lon="37.29116">
        <ele>1311.484085</ele>
        <time>2021-11-15T21:15:25.877Z</time>
      </trkpt>
      <trkpt lat="38.72365" lon="37.28982">
        <ele>1313.37351</ele>
        <time>2021-11-15T21:15:58.062Z</time>
      </trkpt>
      <trkpt lat="38.72366" lon="37.28961">
        <ele>1313.679783</ele>
        <time>2021-11-15T21:16:03.204Z</time>
      </trkpt>
      <trkpt lat="38.7237" lon="37.28864">
        <ele>1315.172727</ele>
        <time>2021-11-15T21:16:27.160Z</time>
      </trkpt>
      <trkpt lat="38.7238" lon="37.28633">
        <ele>1318.195256</ele>
        <time>2021-11-15T21:17:19.687Z</time>
      </trkpt>
      <trkpt lat="38.72378" lon="37.28574">
        <ele>1318.818967</ele>
        <time>2021-11-15T21:17:31.662Z</time>
      </trkpt>
      <trkpt lat="38.72376" lon="37.28522">
        <ele>1319.37903</ele>
        <time>2021-11-15T21:17:42.517Z</time>
      </trkpt>
      <trkpt lat="38.72343" lon="37.28338">
        <ele>1320.905665</ele>
        <time>2021-11-15T21:18:21.207Z</time>
      </trkpt>
      <trkpt lat="38.72323" lon="37.28261">
        <ele>1321.66675</ele>
        <time>2021-11-15T21:18:37.492Z</time>
      </trkpt>
      <trkpt lat="38.72319" lon="37.28248">
        <ele>1321.830035</ele>
        <time>2021-11-15T21:18:40.739Z</time>
      </trkpt>
      <trkpt lat="38.7228" lon="37.28131">
        <ele>1323.291571</ele>
        <time>2021-11-15T21:19:09.503Z</time>
      </trkpt>
      <trkpt lat="38.72257" lon="37.28062">
        <ele>1324.033822</ele>
        <time>2021-11-15T21:19:26.490Z</time>
      </trkpt>
      <trkpt lat="38.72236" lon="37.27998">
        <ele>1324.263702</ele>
        <time>2021-11-15T21:19:41.099Z</time>
      </trkpt>
      <trkpt lat="38.72204" lon="37.27904">
        <ele>1324.59951</ele>
        <time>2021-11-15T21:20:00.286Z</time>
      </trkpt>
      <trkpt lat="38.7219" lon="37.27861">
        <ele>1324.687595</ele>
        <time>2021-11-15T21:20:07.627Z</time>
      </trkpt>
      <trkpt lat="38.72182" lon="37.27836">
        <ele>1324.335684</ele>
        <time>2021-11-15T21:20:11.477Z</time>
      </trkpt>
      <trkpt lat="38.72169" lon="37.27785">
        <ele>1323.631134</ele>
        <time>2021-11-15T21:20:18.726Z</time>
      </trkpt>
      <trkpt lat="38.72163" lon="37.27763">
        <ele>1323.317742</ele>
        <time>2021-11-15T21:20:21.867Z</time>
      </trkpt>
      <trkpt lat="38.72143" lon="37.27672">
        <ele>1322.061258</ele>
        <time>2021-11-15T21:20:34.860Z</time>
      </trkpt>
      <trkpt lat="38.72135" lon="37.27619">
        <ele>1321.575553</ele>
        <time>2021-11-15T21:20:42.390Z</time>
      </trkpt>
      <trkpt lat="38.72128" lon="37.27564">
        <ele>1321.318341</ele>
        <time>2021-11-15T21:20:50.734Z</time>
      </trkpt>
      <trkpt lat="38.72119" lon="37.27436">
        <ele>1320.728128</ele>
        <time>2021-11-15T21:21:11.722Z</time>
      </trkpt>
      <trkpt lat="38.7212" lon="37.27395">
        <ele>1320.776622</ele>
        <time>2021-11-15T21:21:19.456Z</time>
      </trkpt>
      <trkpt lat="38.72125" lon="37.27236">
        <ele>1321.898266</ele>
        <time>2021-11-15T21:21:50.901Z</time>
      </trkpt>
      <trkpt lat="38.7214" lon="37.27096">
        <ele>1323.749431</ele>
        <time>2021-11-15T21:22:22.943Z</time>
      </trkpt>
      <trkpt lat="38.72142" lon="37.27081">
        <ele>1324.003798</ele>
        <time>2021-11-15T21:22:26.744Z</time>
      </trkpt>
      <trkpt lat="38.72144" lon="37.27043">
        <ele>1324.635312</ele>
        <time>2021-11-15T21:22:36.457Z</time>
      </trkpt>
      <trkpt lat="38.72153" lon="37.26915">
        <ele>1326.499105</ele>
        <time>2021-11-15T21:23:08.681Z</time>
      </trkpt>
      <trkpt lat="38.72157" lon="37.26875">
        <ele>1326.925335</ele>
        <time>2021-11-15T21:23:18.607Z</time>
      </trkpt>
      <trkpt lat="38.7217" lon="37.26708">
        <ele>1328.440516</ele>
        <time>2021-11-15T21:23:52.145Z</time>
      </trkpt>
      <trkpt lat="38.72178" lon="37.26634">
        <ele>1328.260394</ele>
        <time>2021-11-15T21:24:04.344Z</time>
      </trkpt>
      <trkpt lat="38.72182" lon="37.26597">
        <ele>1328.168636</ele>
        <time>2021-11-15T21:24:10.335Z</time>
      </trkpt>
      <trkpt lat="38.72186" lon="37.26566">
        <ele>1328.093934</ele>
        <time>2021-11-15T21:24:15.269Z</time>
      </trkpt>
      <trkpt lat="38.72187" lon="37.26559">
        <ele>1328.077074</ele>
        <time>2021-11-15T21:24:16.279Z</time>
      </trkpt>
      <trkpt lat="38.7219" lon="37.26517">
        <ele>1327.974988</ele>
        <time>2021-11-15T21:24:22.876Z</time>
      </trkpt>
      <trkpt lat="38.72191" lon="37.26508">
        <ele>1327.952647</ele>
        <time>2021-11-15T21:24:24.271Z</time>
      </trkpt>
      <trkpt lat="38.72201" lon="37.26372">
        <ele>1328.169759</ele>
        <time>2021-11-15T21:24:46.688Z</time>
      </trkpt>
      <trkpt lat="38.72205" lon="37.26322">
        <ele>1328.264938</ele>
        <time>2021-11-15T21:24:56.590Z</time>
      </trkpt>
      <trkpt lat="38.72213" lon="37.26229">
        <ele>1329.068777</ele>
        <time>2021-11-15T21:25:16.290Z</time>
      </trkpt>
      <trkpt lat="38.72217" lon="37.2618">
        <ele>1329.918732</ele>
        <time>2021-11-15T21:25:27.091Z</time>
      </trkpt>
      <trkpt lat="38.72225" lon="37.26087">
        <ele>1331.534579</ele>
        <time>2021-11-15T21:25:50.864Z</time>
      </trkpt>
      <trkpt lat="38.72244" lon="37.25997">
        <ele>1333.500123</ele>
        <time>2021-11-15T21:26:16.367Z</time>
      </trkpt>
      <trkpt lat="38.72248" lon="37.25986">
        <ele>1333.785729</ele>
        <time>2021-11-15T21:26:20.141Z</time>
      </trkpt>
      <trkpt lat="38.72281" lon="37.25903">
        <ele>1336.08782</ele>
        <time>2021-11-15T21:26:45.198Z</time>
      </trkpt>
      <trkpt lat="38.72384" lon="37.25706">
        <ele>1341.75527</ele>
        <time>2021-11-15T21:27:49.833Z</time>
      </trkpt>
      <trkpt lat="38.724" lon="37.25672">
        <ele>1342.673594</ele>
        <time>2021-11-15T21:28:00.034Z</time>
      </trkpt>
      <trkpt lat="38.72411" lon="37.25647">
        <ele>1343.354472</ele>
        <time>2021-11-15T21:28:07.765Z</time>
      </trkpt>
      <trkpt lat="38.72432" lon="37.25559">
        <ele>1344.669061</ele>
        <time>2021-11-15T21:28:31.065Z</time>
      </trkpt>
      <trkpt lat="38.72453" lon="37.25318">
        <ele>1347.140964</ele>
        <time>2021-11-15T21:29:22.424Z</time>
      </trkpt>
      <trkpt lat="38.72469" lon="37.25244">
        <ele>1347.518336</ele>
        <time>2021-11-15T21:29:36.177Z</time>
      </trkpt>
      <trkpt lat="38.72492" lon="37.25185">
        <ele>1347.830625</ele>
        <time>2021-11-15T21:29:47.924Z</time>
      </trkpt>
      <trkpt lat="38.72497" lon="37.25175">
        <ele>1347.876787</ele>
        <time>2021-11-15T21:29:49.948Z</time>
      </trkpt>
      <trkpt lat="38.72524" lon="37.2512">
        <ele>1348.136765</ele>
        <time>2021-11-15T21:30:01.459Z</time>
      </trkpt>
      <trkpt lat="38.72666" lon="37.24927">
        <ele>1349.478909</ele>
        <time>2021-11-15T21:30:53.567Z</time>
      </trkpt>
      <trkpt lat="38.72726" lon="37.24824">
        <ele>1350.250928</ele>
        <time>2021-11-15T21:31:19.927Z</time>
      </trkpt>
      <trkpt lat="38.72907" lon="37.24427">
        <ele>1352.252238</ele>
        <time>2021-11-15T21:32:46.378Z</time>
      </trkpt>
      <trkpt lat="38.72923" lon="37.24397">
        <ele>1352.594051</ele>
        <time>2021-11-15T21:32:53.438Z</time>
      </trkpt>
      <trkpt lat="38.73004" lon="37.24247">
        <ele>1354.366454</ele>
        <time>2021-11-15T21:33:32.689Z</time>
      </trkpt>
      <trkpt lat="38.73199" lon="37.23838">
        <ele>1362.747261</ele>
        <time>2021-11-15T21:35:31.893Z</time>
      </trkpt>
      <trkpt lat="38.73212" lon="37.23798">
        <ele>1363.169958</ele>
        <time>2021-11-15T21:35:41.732Z</time>
      </trkpt>
      <trkpt lat="38.73245" lon="37.23557">
        <ele>1365.681862</ele>
        <time>2021-11-15T21:36:30.529Z</time>
      </trkpt>
      <trkpt lat="38.73262" lon="37.23398">
        <ele>1367.654876</ele>
        <time>2021-11-15T21:37:05.955Z</time>
      </trkpt>
      <trkpt lat="38.73264" lon="37.23299">
        <ele>1370.310247</ele>
        <time>2021-11-15T21:37:32.484Z</time>
      </trkpt>
      <trkpt lat="38.7324" lon="37.23152">
        <ele>1374.390806</ele>
        <time>2021-11-15T21:38:18.977Z</time>
      </trkpt>
      <trkpt lat="38.73195" lon="37.23042">
        <ele>1377.991931</ele>
        <time>2021-11-15T21:38:55.430Z</time>
      </trkpt>
      <trkpt lat="38.73109" lon="37.22899">
        <ele>1382.661157</ele>
        <time>2021-11-15T21:39:43.822Z</time>
      </trkpt>
      <trkpt lat="38.73084" lon="37.22826">
        <ele>1384.572428</ele>
        <time>2021-11-15T21:40:05.106Z</time>
      </trkpt>
      <trkpt lat="38.73052" lon="37.22703">
        <ele>1387.665924</ele>
        <time>2021-11-15T21:40:40.305Z</time>
      </trkpt>
      <trkpt lat="38.73014" lon="37.22589">
        <ele>1390.674885</ele>
        <time>2021-11-15T21:41:14.167Z</time>
      </trkpt>
      <trkpt lat="38.72983" lon="37.22524">
        <ele>1392.427522</ele>
        <time>2021-11-15T21:41:33.729Z</time>
      </trkpt>
      <trkpt lat="38.72939" lon="37.22444">
        <ele>1394.697331</ele>
        <time>2021-11-15T21:41:59.372Z</time>
      </trkpt>
      <trkpt lat="38.72903" lon="37.22389">
        <ele>1396.358432</ele>
        <time>2021-11-15T21:42:18.225Z</time>
      </trkpt>
      <trkpt lat="38.72469" lon="37.2182">
        <ele>1421.16421</ele>
        <time>2021-11-15T21:46:13.057Z</time>
      </trkpt>
      <trkpt lat="38.72394" lon="37.21713">
        <ele>1426.923887</ele>
        <time>2021-11-15T21:47:03.757Z</time>
      </trkpt>
      <trkpt lat="38.72301" lon="37.2155">
        <ele>1436.936314</ele>
        <time>2021-11-15T21:48:20.455Z</time>
      </trkpt>
      <trkpt lat="38.72222" lon="37.21375">
        <ele>1445.917204</ele>
        <time>2021-11-15T21:49:32.978Z</time>
      </trkpt>
      <trkpt lat="38.72177" lon="37.21249">
        <ele>1450.649961</ele>
        <time>2021-11-15T21:50:16.012Z</time>
      </trkpt>
      <trkpt lat="38.72124" lon="37.21049">
        <ele>1456.451366</ele>
        <time>2021-11-15T21:51:13.977Z</time>
      </trkpt>
      <trkpt lat="38.721" lon="37.20908">
        <ele>1459.892528</ele>
        <time>2021-11-15T21:51:52.320Z</time>
      </trkpt>
      <trkpt lat="38.72019" lon="37.20328">
        <ele>1473.456061</ele>
        <time>2021-11-15T21:54:28.630Z</time>
      </trkpt>
      <trkpt lat="38.72008" lon="37.20268">
        <ele>1474.899087</ele>
        <time>2021-11-15T21:54:44.975Z</time>
      </trkpt>
      <trkpt lat="38.71978" lon="37.20161">
        <ele>1477.852171</ele>
        <time>2021-11-15T21:55:16.075Z</time>
      </trkpt>
      <trkpt lat="38.71951" lon="37.20046">
        <ele>1481.219698</ele>
        <time>2021-11-15T21:55:50.394Z</time>
      </trkpt>
      <trkpt lat="38.71936" lon="37.19915">
        <ele>1485.199417</ele>
        <time>2021-11-15T21:56:30.405Z</time>
      </trkpt>
      <trkpt lat="38.71931" lon="37.1981">
        <ele>1488.500865</ele>
        <time>2021-11-15T21:57:02.251Z</time>
      </trkpt>
      <trkpt lat="38.71931" lon="37.19765">
        <ele>1489.900249</ele>
        <time>2021-11-15T21:57:15.537Z</time>
      </trkpt>
      <trkpt lat="38.71932" lon="37.19288">
        <ele>1504.000734</ele>
        <time>2021-11-15T21:59:32.173Z</time>
      </trkpt>
      <trkpt lat="38.71925" lon="37.19124">
        <ele>1510.680305</ele>
        <time>2021-11-15T22:00:27.788Z</time>
      </trkpt>
      <trkpt lat="38.71917" lon="37.19047">
        <ele>1513.926615</ele>
        <time>2021-11-15T22:00:56.302Z</time>
      </trkpt>
      <trkpt lat="38.71898" lon="37.18947">
        <ele>1518.397398</ele>
        <time>2021-11-15T22:01:33.856Z</time>
      </trkpt>
      <trkpt lat="38.71867" lon="37.18825">
        <ele>1523.422221</ele>
        <time>2021-11-15T22:02:16.597Z</time>
      </trkpt>
      <trkpt lat="38.71826" lon="37.1871">
        <ele>1526.830304</ele>
        <time>2021-11-15T22:02:52.900Z</time>
      </trkpt>
      <trkpt lat="38.7175" lon="37.1855">
        <ele>1530.654419</ele>
        <time>2021-11-15T22:03:38.374Z</time>
      </trkpt>
      <trkpt lat="38.71425" lon="37.17959">
        <ele>1543.250553</ele>
        <time>2021-11-15T22:06:29.802Z</time>
      </trkpt>
      <trkpt lat="38.71071" lon="37.17361">
        <ele>1567.654019</ele>
        <time>2021-11-15T22:10:19.697Z</time>
      </trkpt>
      <trkpt lat="38.7106" lon="37.17302">
        <ele>1569.915948</ele>
        <time>2021-11-15T22:10:41.290Z</time>
      </trkpt>
      <trkpt lat="38.71069" lon="37.17257">
        <ele>1571.691531</ele>
        <time>2021-11-15T22:10:57.383Z</time>
      </trkpt>
      <trkpt lat="38.71099" lon="37.17217">
        <ele>1573.838392</ele>
        <time>2021-11-15T22:11:16.368Z</time>
      </trkpt>
      <trkpt lat="38.71125" lon="37.17206">
        <ele>1575.176032</ele>
        <time>2021-11-15T22:11:27.873Z</time>
      </trkpt>
      <trkpt lat="38.71155" lon="37.17206">
        <ele>1576.66804</ele>
        <time>2021-11-15T22:11:40.250Z</time>
      </trkpt>
      <trkpt lat="38.71213" lon="37.17249">
        <ele>1579.02575</ele>
        <time>2021-11-15T22:12:04.437Z</time>
      </trkpt>
      <trkpt lat="38.71296" lon="37.17381">
        <ele>1583.208657</ele>
        <time>2021-11-15T22:12:47.944Z</time>
      </trkpt>
      <trkpt lat="38.71332" lon="37.17425">
        <ele>1585.615106</ele>
        <time>2021-11-15T22:13:05.452Z</time>
      </trkpt>
      <trkpt lat="38.7137" lon="37.17462">
        <ele>1587.925283</ele>
        <time>2021-11-15T22:13:23.698Z</time>
      </trkpt>
      <trkpt lat="38.71621" lon="37.17664">
        <ele>1607.056092</ele>
        <time>2021-11-15T22:15:48.368Z</time>
      </trkpt>
      <trkpt lat="38.71663" lon="37.17692">
        <ele>1611.118692</ele>
        <time>2021-11-15T22:16:15.882Z</time>
      </trkpt>
      <trkpt lat="38.71707" lon="37.17714">
        <ele>1615.247273</ele>
        <time>2021-11-15T22:16:44.497Z</time>
      </trkpt>
      <trkpt lat="38.71754" lon="37.17714">
        <ele>1619.35285</ele>
        <time>2021-11-15T22:17:13.153Z</time>
      </trkpt>
      <trkpt lat="38.71805" lon="37.17698">
        <ele>1623.768222</ele>
        <time>2021-11-15T22:17:44.356Z</time>
      </trkpt>
      <trkpt lat="38.71835" lon="37.17677">
        <ele>1626.595982</ele>
        <time>2021-11-15T22:18:03.370Z</time>
      </trkpt>
      <trkpt lat="38.71882" lon="37.17632">
        <ele>1631.60707</ele>
        <time>2021-11-15T22:18:35.428Z</time>
      </trkpt>
      <trkpt lat="38.71911" lon="37.17594">
        <ele>1635.0716</ele>
        <time>2021-11-15T22:18:57.044Z</time>
      </trkpt>
      <trkpt lat="38.71926" lon="37.17559">
        <ele>1637.778797</ele>
        <time>2021-11-15T22:19:13.778Z</time>
      </trkpt>
      <trkpt lat="38.71942" lon="37.17487">
        <ele>1642.770254</ele>
        <time>2021-11-15T22:19:45.230Z</time>
      </trkpt>
      <trkpt lat="38.71945" lon="37.17443">
        <ele>1645.780758</ele>
        <time>2021-11-15T22:20:05.167Z</time>
      </trkpt>
      <trkpt lat="38.71936" lon="37.17333">
        <ele>1653.735765</ele>
        <time>2021-11-15T22:20:57.694Z</time>
      </trkpt>
      <trkpt lat="38.71928" lon="37.17275">
        <ele>1658.49833</ele>
        <time>2021-11-15T22:21:27.870Z</time>
      </trkpt>
      <trkpt lat="38.71907" lon="37.1722">
        <ele>1663.311514</ele>
        <time>2021-11-15T22:21:58.914Z</time>
      </trkpt>
      <trkpt lat="38.71835" lon="37.17075">
        <ele>1675.782496</ele>
        <time>2021-11-15T22:23:22.453Z</time>
      </trkpt>
      <trkpt lat="38.71807" lon="37.17009">
        <ele>1680.818926</ele>
        <time>2021-11-15T22:23:54.694Z</time>
      </trkpt>
      <trkpt lat="38.71794" lon="37.16957">
        <ele>1684.348768</ele>
        <time>2021-11-15T22:24:16.691Z</time>
      </trkpt>
      <trkpt lat="38.71785" lon="37.16833">
        <ele>1689.548118</ele>
        <time>2021-11-15T22:25:01.049Z</time>
      </trkpt>
      <trkpt lat="38.71797" lon="37.1669">
        <ele>1695.201706</ele>
        <time>2021-11-15T22:25:44.868Z</time>
      </trkpt>
      <trkpt lat="38.71833" lon="37.16565">
        <ele>1699.704784</ele>
        <time>2021-11-15T22:26:23.746Z</time>
      </trkpt>
      <trkpt lat="38.71943" lon="37.16319">
        <ele>1711.85163</ele>
        <time>2021-11-15T22:28:01.723Z</time>
      </trkpt>
      <trkpt lat="38.71978" lon="37.16196">
        <ele>1719.822433</ele>
        <time>2021-11-15T22:28:56.739Z</time>
      </trkpt>
      <trkpt lat="38.71994" lon="37.16087">
        <ele>1726.506361</ele>
        <time>2021-11-15T22:29:45.330Z</time>
      </trkpt>
      <trkpt lat="38.72002" lon="37.15988">
        <ele>1732.190269</ele>
        <time>2021-11-15T22:30:27.402Z</time>
      </trkpt>
      <trkpt lat="38.72003" lon="37.1592">
        <ele>1736.062404</ele>
        <time>2021-11-15T22:30:54.515Z</time>
      </trkpt>
      <trkpt lat="38.71996" lon="37.15698">
        <ele>1746.59156</ele>
        <time>2021-11-15T22:32:14.256Z</time>
      </trkpt>
      <trkpt lat="38.71999" lon="37.15628">
        <ele>1749.609759</ele>
        <time>2021-11-15T22:32:37.249Z</time>
      </trkpt>
      <trkpt lat="38.72007" lon="37.15558">
        <ele>1752.244747</ele>
        <time>2021-11-15T22:33:00.137Z</time>
      </trkpt>
      <trkpt lat="38.72029" lon="37.15472">
        <ele>1755.596714</ele>
        <time>2021-11-15T22:33:28.754Z</time>
      </trkpt>
      <trkpt lat="38.72061" lon="37.15392">
        <ele>1758.959605</ele>
        <time>2021-11-15T22:33:57.542Z</time>
      </trkpt>
      <trkpt lat="38.72102" lon="37.1532">
        <ele>1762.368533</ele>
        <time>2021-11-15T22:34:26.837Z</time>
      </trkpt>
      <trkpt lat="38.72142" lon="37.1527">
        <ele>1765.072615</ele>
        <time>2021-11-15T22:34:50.289Z</time>
      </trkpt>
      <trkpt lat="38.72199" lon="37.15217">
        <ele>1768.304036</ele>
        <time>2021-11-15T22:35:19.660Z</time>
      </trkpt>
      <trkpt lat="38.72261" lon="37.15177">
        <ele>1771.358341</ele>
        <time>2021-11-15T22:35:48.041Z</time>
      </trkpt>
      <trkpt lat="38.72748" lon="37.14946">
        <ele>1789.887242</ele>
        <time>2021-11-15T22:39:02.682Z</time>
      </trkpt>
      <trkpt lat="38.72975" lon="37.14848">
        <ele>1790.945027</ele>
        <time>2021-11-15T22:39:57.967Z</time>
      </trkpt>
      <trkpt lat="38.7303" lon="37.14842">
        <ele>1789.701975</ele>
        <time>2021-11-15T22:40:07.266Z</time>
      </trkpt>
      <trkpt lat="38.73087" lon="37.14848">
        <ele>1787.144928</ele>
        <time>2021-11-15T22:40:16.309Z</time>
      </trkpt>
      <trkpt lat="38.73127" lon="37.14859">
        <ele>1785.327765</ele>
        <time>2021-11-15T22:40:22.450Z</time>
      </trkpt>
      <trkpt lat="38.73186" lon="37.14885">
        <ele>1782.360792</ele>
        <time>2021-11-15T22:40:31.715Z</time>
      </trkpt>
      <trkpt lat="38.73225" lon="37.14909">
        <ele>1779.239421</ele>
        <time>2021-11-15T22:40:37.958Z</time>
      </trkpt>
      <trkpt lat="38.73366" lon="37.15018">
        <ele>1766.968666</ele>
        <time>2021-11-15T22:41:01.224Z</time>
      </trkpt>
      <trkpt lat="38.73441" lon="37.15054">
        <ele>1760.288069</ele>
        <time>2021-11-15T22:41:12.348Z</time>
      </trkpt>
      <trkpt lat="38.73503" lon="37.1506">
        <ele>1755.096944</ele>
        <time>2021-11-15T22:41:20.962Z</time>
      </trkpt>
      <trkpt lat="38.73545" lon="37.15052">
        <ele>1751.503934</ele>
        <time>2021-11-15T22:41:26.830Z</time>
      </trkpt>
      <trkpt lat="38.73779" lon="37.1496">
        <ele>1731.823579</ele>
        <time>2021-11-15T22:42:00.947Z</time>
      </trkpt>
      <trkpt lat="38.73843" lon="37.14949">
        <ele>1727.013299</ele>
        <time>2021-11-15T22:42:10.287Z</time>
      </trkpt>
      <trkpt lat="38.73886" lon="37.14949">
        <ele>1724.951169</ele>
        <time>2021-11-15T22:42:16.539Z</time>
      </trkpt>
      <trkpt lat="38.74079" lon="37.15022">
        <ele>1718.570537</ele>
        <time>2021-11-15T22:42:49.415Z</time>
      </trkpt>
      <trkpt lat="38.74583" lon="37.15282">
        <ele>1712.497963</ele>
        <time>2021-11-15T22:44:34.945Z</time>
      </trkpt>
      <trkpt lat="38.74683" lon="37.15309">
        <ele>1711.69731</ele>
        <time>2021-11-15T22:44:55.369Z</time>
      </trkpt>
      <trkpt lat="38.74759" lon="37.15317">
        <ele>1711.306797</ele>
        <time>2021-11-15T22:45:10.461Z</time>
      </trkpt>
      <trkpt lat="38.74881" lon="37.15297">
        <ele>1710.810473</ele>
        <time>2021-11-15T22:45:35.861Z</time>
      </trkpt>
      <trkpt lat="38.74984" lon="37.15258">
        <ele>1711.539917</ele>
        <time>2021-11-15T22:46:02.161Z</time>
      </trkpt>
      <trkpt lat="38.75075" lon="37.15189">
        <ele>1712.341503</ele>
        <time>2021-11-15T22:46:31.132Z</time>
      </trkpt>
      <trkpt lat="38.75187" lon="37.15081">
        <ele>1713.608121</ele>
        <time>2021-11-15T22:47:08.105Z</time>
      </trkpt>
      <trkpt lat="38.7525" lon="37.14992">
        <ele>1713.180124</ele>
        <time>2021-11-15T22:47:28.487Z</time>
      </trkpt>
      <trkpt lat="38.75317" lon="37.14849">
        <ele>1711.905722</ele>
        <time>2021-11-15T22:47:53.078Z</time>
      </trkpt>
      <trkpt lat="38.75387" lon="37.14603">
        <ele>1706.632786</ele>
        <time>2021-11-15T22:48:28.344Z</time>
      </trkpt>
      <trkpt lat="38.75418" lon="37.14442">
        <ele>1701.311418</ele>
        <time>2021-11-15T22:48:48.221Z</time>
      </trkpt>
      <trkpt lat="38.75452" lon="37.1434">
        <ele>1695.883526</ele>
        <time>2021-11-15T22:49:00.735Z</time>
      </trkpt>
      <trkpt lat="38.75486" lon="37.14268">
        <ele>1691.733079</ele>
        <time>2021-11-15T22:49:10.200Z</time>
      </trkpt>
      <trkpt lat="38.75514" lon="37.14222">
        <ele>1688.988059</ele>
        <time>2021-11-15T22:49:16.650Z</time>
      </trkpt>
      <trkpt lat="38.75563" lon="37.1416">
        <ele>1684.890855</ele>
        <time>2021-11-15T22:49:26.633Z</time>
      </trkpt>
      <trkpt lat="38.75621" lon="37.1411">
        <ele>1680.707865</ele>
        <time>2021-11-15T22:49:37.043Z</time>
      </trkpt>
      <trkpt lat="38.75724" lon="37.1405">
        <ele>1675.005259</ele>
        <time>2021-11-15T22:49:54.312Z</time>
      </trkpt>
      <trkpt lat="38.75799" lon="37.13999">
        <ele>1670.843654</ele>
        <time>2021-11-15T22:50:07.244Z</time>
      </trkpt>
      <trkpt lat="38.75834" lon="37.13968">
        <ele>1668.644681</ele>
        <time>2021-11-15T22:50:13.626Z</time>
      </trkpt>
      <trkpt lat="38.75882" lon="37.13913">
        <ele>1665.320311</ele>
        <time>2021-11-15T22:50:23.234Z</time>
      </trkpt>
      <trkpt lat="38.75909" lon="37.13871">
        <ele>1663.093793</ele>
        <time>2021-11-15T22:50:29.634Z</time>
      </trkpt>
      <trkpt lat="38.75945" lon="37.138">
        <ele>1659.305559</ele>
        <time>2021-11-15T22:50:39.421Z</time>
      </trkpt>
      <trkpt lat="38.75964" lon="37.13748">
        <ele>1656.56162</ele>
        <time>2021-11-15T22:50:46.037Z</time>
      </trkpt>
      <trkpt lat="38.76005" lon="37.13604">
        <ele>1648.971681</ele>
        <time>2021-11-15T22:51:03.372Z</time>
      </trkpt>
      <trkpt lat="38.76058" lon="37.1346">
        <ele>1639.910891</ele>
        <time>2021-11-15T22:51:21.006Z</time>
      </trkpt>
      <trkpt lat="38.76146" lon="37.1328">
        <ele>1628.632948</ele>
        <time>2021-11-15T22:51:44.557Z</time>
      </trkpt>
      <trkpt lat="38.76296" lon="37.13">
        <ele>1614.836951</ele>
        <time>2021-11-15T22:52:24.335Z</time>
      </trkpt>
      <trkpt lat="38.76368" lon="37.12873">
        <ele>1610.212103</ele>
        <time>2021-11-15T22:52:43.902Z</time>
      </trkpt>
      <trkpt lat="38.76483" lon="37.12691">
        <ele>1605.705455</ele>
        <time>2021-11-15T22:53:15.077Z</time>
      </trkpt>
      <trkpt lat="38.76746" lon="37.12297">
        <ele>1601.574852</ele>
        <time>2021-11-15T22:54:32.434Z</time>
      </trkpt>
      <trkpt lat="38.76811" lon="37.12189">
        <ele>1602.193987</ele>
        <time>2021-11-15T22:54:59.171Z</time>
      </trkpt>
      <trkpt lat="38.76855" lon="37.12101">
        <ele>1602.935092</ele>
        <time>2021-11-15T22:55:22.441Z</time>
      </trkpt>
      <trkpt lat="38.76878" lon="37.1204">
        <ele>1603.618136</ele>
        <time>2021-11-15T22:55:37.507Z</time>
      </trkpt>
      <trkpt lat="38.76906" lon="37.11926">
        <ele>1604.818864</ele>
        <time>2021-11-15T22:56:02.868Z</time>
      </trkpt>
      <trkpt lat="38.76926" lon="37.11798">
        <ele>1605.636963</ele>
        <time>2021-11-15T22:56:27.577Z</time>
      </trkpt>
      <trkpt lat="38.76929" lon="37.11686">
        <ele>1606.476423</ele>
        <time>2021-11-15T22:56:49.361Z</time>
      </trkpt>
      <trkpt lat="38.76823" lon="37.10887">
        <ele>1618.27799</ele>
        <time>2021-11-15T23:00:00.977Z</time>
      </trkpt>
      <trkpt lat="38.76785" lon="37.10627">
        <ele>1620.035134</ele>
        <time>2021-11-15T23:00:53.415Z</time>
      </trkpt>
      <trkpt lat="38.7675" lon="37.1038">
        <ele>1619.169762</ele>
        <time>2021-11-15T23:01:34.512Z</time>
      </trkpt>
      <trkpt lat="38.76709" lon="37.101">
        <ele>1615.263825</ele>
        <time>2021-11-15T23:02:13.049Z</time>
      </trkpt>
      <trkpt lat="38.76684" lon="37.09913">
        <ele>1613.579802</ele>
        <time>2021-11-15T23:02:40.956Z</time>
      </trkpt>
      <trkpt lat="38.76673" lon="37.0979">
        <ele>1613.298313</ele>
        <time>2021-11-15T23:03:01.964Z</time>
      </trkpt>
      <trkpt lat="38.7669" lon="37.09395">
        <ele>1613.538165</ele>
        <time>2021-11-15T23:04:12.863Z</time>
      </trkpt>
      <trkpt lat="38.76692" lon="37.09286">
        <ele>1613.520244</ele>
        <time>2021-11-15T23:04:31.408Z</time>
      </trkpt>
      <trkpt lat="38.76677" lon="37.09189">
        <ele>1613.50721</ele>
        <time>2021-11-15T23:04:48.153Z</time>
      </trkpt>
      <trkpt lat="38.76655" lon="37.09096">
        <ele>1613.546509</ele>
        <time>2021-11-15T23:05:04.766Z</time>
      </trkpt>
      <trkpt lat="38.76619" lon="37.09004">
        <ele>1613.58867</ele>
        <time>2021-11-15T23:05:23.206Z</time>
      </trkpt>
      <trkpt lat="38.76394" lon="37.08626">
        <ele>1614.655404</ele>
        <time>2021-11-15T23:06:50.837Z</time>
      </trkpt>
      <trkpt lat="38.76325" lon="37.08472">
        <ele>1614.562133</ele>
        <time>2021-11-15T23:07:20.515Z</time>
      </trkpt>
      <trkpt lat="38.76297" lon="37.08383">
        <ele>1614.638355</ele>
        <time>2021-11-15T23:07:36.690Z</time>
      </trkpt>
      <trkpt lat="38.76181" lon="37.07849">
        <ele>1616.798149</ele>
        <time>2021-11-15T23:09:22.277Z</time>
      </trkpt>
      <trkpt lat="38.76027" lon="37.07108">
        <ele>1620.422753</ele>
        <time>2021-11-15T23:11:48.580Z</time>
      </trkpt>
      <trkpt lat="38.76011" lon="37.07031">
        <ele>1621.154189</ele>
        <time>2021-11-15T23:12:06.279Z</time>
      </trkpt>
      <trkpt lat="38.75988" lon="37.06775">
        <ele>1623.668679</ele>
        <time>2021-11-15T23:13:02.989Z</time>
      </trkpt>
      <trkpt lat="38.75972" lon="37.06297">
        <ele>1625.674267</ele>
        <time>2021-11-15T23:14:32.955Z</time>
      </trkpt>
      <trkpt lat="38.75955" lon="37.05766">
        <ele>1626.732968</ele>
        <time>2021-11-15T23:16:09.212Z</time>
      </trkpt>
      <trkpt lat="38.75891" lon="37.05246">
        <ele>1627.190557</ele>
        <time>2021-11-15T23:17:41.429Z</time>
      </trkpt>
      <trkpt lat="38.75771" lon="37.04833">
        <ele>1628.70648</ele>
        <time>2021-11-15T23:19:04.450Z</time>
      </trkpt>
      <trkpt lat="38.75724" lon="37.04716">
        <ele>1629.224485</ele>
        <time>2021-11-15T23:19:29.158Z</time>
      </trkpt>
      <trkpt lat="38.75204" lon="37.03578">
        <ele>1634.591916</ele>
        <time>2021-11-15T23:23:38.929Z</time>
      </trkpt>
      <trkpt lat="38.75188" lon="37.03519">
        <ele>1634.96258</ele>
        <time>2021-11-15T23:23:51.209Z</time>
      </trkpt>
      <trkpt lat="38.75069" lon="37.02726">
        <ele>1639.749932</ele>
        <time>2021-11-15T23:26:31.142Z</time>
      </trkpt>
      <trkpt lat="38.75045" lon="37.02489">
        <ele>1640.844525</ele>
        <time>2021-11-15T23:27:16.928Z</time>
      </trkpt>
      <trkpt lat="38.75038" lon="37.02157">
        <ele>1641.87046</ele>
        <time>2021-11-15T23:28:18.073Z</time>
      </trkpt>
      <trkpt lat="38.75048" lon="37.02043">
        <ele>1642.261204</ele>
        <time>2021-11-15T23:28:39.692Z</time>
      </trkpt>
      <trkpt lat="38.75078" lon="37.01733">
        <ele>1643.88793</ele>
        <time>2021-11-15T23:29:40.093Z</time>
      </trkpt>
      <trkpt lat="38.75091" lon="37.0159">
        <ele>1644.79783</ele>
        <time>2021-11-15T23:30:08.975Z</time>
      </trkpt>
      <trkpt lat="38.75132" lon="37.01137">
        <ele>1648.888378</ele>
        <time>2021-11-15T23:31:43.943Z</time>
      </trkpt>
      <trkpt lat="38.75146" lon="37.0104">
        <ele>1650.550378</ele>
        <time>2021-11-15T23:32:06.357Z</time>
      </trkpt>
      <trkpt lat="38.75162" lon="37.00949">
        <ele>1652.353787</ele>
        <time>2021-11-15T23:32:29.415Z</time>
      </trkpt>
      <trkpt lat="38.75192" lon="37.00856">
        <ele>1654.32113</ele>
        <time>2021-11-15T23:32:58.189Z</time>
      </trkpt>
      <trkpt lat="38.75228" lon="37.00786">
        <ele>1655.997889</ele>
        <time>2021-11-15T23:33:21.266Z</time>
      </trkpt>
      <trkpt lat="38.7527" lon="37.00726">
        <ele>1657.604979</ele>
        <time>2021-11-15T23:33:41.128Z</time>
      </trkpt>
      <trkpt lat="38.75307" lon="37.00682">
        <ele>1658.370655</ele>
        <time>2021-11-15T23:33:54.313Z</time>
      </trkpt>
      <trkpt lat="38.75437" lon="37.0052">
        <ele>1659.853469</ele>
        <time>2021-11-15T23:34:37.567Z</time>
      </trkpt>
      <trkpt lat="38.75492" lon="37.00448">
        <ele>1661.05721</ele>
        <time>2021-11-15T23:34:59.811Z</time>
      </trkpt>
      <trkpt lat="38.75545" lon="37.00355">
        <ele>1662.397981</ele>
        <time>2021-11-15T23:35:28.488Z</time>
      </trkpt>
      <trkpt lat="38.75699" lon="37.00039">
        <ele>1665.922</ele>
        <time>2021-11-15T23:36:45.379Z</time>
      </trkpt>
      <trkpt lat="38.75795" lon="36.99857">
        <ele>1667.999532</ele>
        <time>2021-11-15T23:37:32.659Z</time>
      </trkpt>
      <trkpt lat="38.75829" lon="36.99811">
        <ele>1668.610636</ele>
        <time>2021-11-15T23:37:46.076Z</time>
      </trkpt>
      <trkpt lat="38.76009" lon="36.99634">
        <ele>1670.740327</ele>
        <time>2021-11-15T23:38:44.893Z</time>
      </trkpt>
      <trkpt lat="38.7611" lon="36.99518">
        <ele>1671.806909</ele>
        <time>2021-11-15T23:39:19.331Z</time>
      </trkpt>
      <trkpt lat="38.76167" lon="36.99432">
        <ele>1672.096943</ele>
        <time>2021-11-15T23:39:40.440Z</time>
      </trkpt>
      <trkpt lat="38.76211" lon="36.99348">
        <ele>1672.323763</ele>
        <time>2021-11-15T23:39:58.429Z</time>
      </trkpt>
      <trkpt lat="38.76256" lon="36.99255">
        <ele>1672.411132</ele>
        <time>2021-11-15T23:40:17.393Z</time>
      </trkpt>
      <trkpt lat="38.76289" lon="36.99166">
        <ele>1672.44427</ele>
        <time>2021-11-15T23:40:34.445Z</time>
      </trkpt>
      <trkpt lat="38.76318" lon="36.99058">
        <ele>1672.656497</ele>
        <time>2021-11-15T23:40:54.647Z</time>
      </trkpt>
      <trkpt lat="38.76338" lon="36.98944">
        <ele>1673.009634</ele>
        <time>2021-11-15T23:41:16.167Z</time>
      </trkpt>
      <trkpt lat="38.76349" lon="36.98847">
        <ele>1673.550068</ele>
        <time>2021-11-15T23:41:35.512Z</time>
      </trkpt>
      <trkpt lat="38.76351" lon="36.98654">
        <ele>1675.078867</ele>
        <time>2021-11-15T23:42:15.997Z</time>
      </trkpt>
      <trkpt lat="38.76315" lon="36.98291">
        <ele>1677.876275</ele>
        <time>2021-11-15T23:43:31.534Z</time>
      </trkpt>
      <trkpt lat="38.76315" lon="36.9822">
        <ele>1678.346452</ele>
        <time>2021-11-15T23:43:44.662Z</time>
      </trkpt>
      <trkpt lat="38.76325" lon="36.98134">
        <ele>1679.077149</ele>
        <time>2021-11-15T23:44:01.282Z</time>
      </trkpt>
      <trkpt lat="38.76337" lon="36.98059">
        <ele>1679.747168</ele>
        <time>2021-11-15T23:44:16.826Z</time>
      </trkpt>
      <trkpt lat="38.76358" lon="36.9797">
        <ele>1680.68335</ele>
        <time>2021-11-15T23:44:37.585Z</time>
      </trkpt>
      <trkpt lat="38.76395" lon="36.97876">
        <ele>1682.607346</ele>
        <time>2021-11-15T23:45:03.849Z</time>
      </trkpt>
      <trkpt lat="38.76434" lon="36.978">
        <ele>1684.292126</ele>
        <time>2021-11-15T23:45:27.171Z</time>
      </trkpt>
      <trkpt lat="38.7647" lon="36.97745">
        <ele>1685.678881</ele>
        <time>2021-11-15T23:45:44.412Z</time>
      </trkpt>
      <trkpt lat="38.76481" lon="36.97729">
        <ele>1686.111134</ele>
        <time>2021-11-15T23:45:50.263Z</time>
      </trkpt>
      <trkpt lat="38.76523" lon="36.97675">
        <ele>1687.615446</ele>
        <time>2021-11-15T23:46:08.847Z</time>
      </trkpt>
      <trkpt lat="38.76561" lon="36.9763">
        <ele>1688.944691</ele>
        <time>2021-11-15T23:46:26.089Z</time>
      </trkpt>
      <trkpt lat="38.76674" lon="36.97549">
        <ele>1692.543162</ele>
        <time>2021-11-15T23:47:09.964Z</time>
      </trkpt>
      <trkpt lat="38.76832" lon="36.97472">
        <ele>1696.320508</ele>
        <time>2021-11-15T23:48:05.800Z</time>
      </trkpt>
      <trkpt lat="38.76919" lon="36.97418">
        <ele>1697.81347</ele>
        <time>2021-11-15T23:48:30.469Z</time>
      </trkpt>
      <trkpt lat="38.77022" lon="36.97321">
        <ele>1698.376194</ele>
        <time>2021-11-15T23:48:59.626Z</time>
      </trkpt>
      <trkpt lat="38.77059" lon="36.97275">
        <ele>1698.805288</ele>
        <time>2021-11-15T23:49:12.482Z</time>
      </trkpt>
      <trkpt lat="38.77108" lon="36.97198">
        <ele>1699.87162</ele>
        <time>2021-11-15T23:49:33.823Z</time>
      </trkpt>
      <trkpt lat="38.77275" lon="36.96921">
        <ele>1704.351452</ele>
        <time>2021-11-15T23:50:54.591Z</time>
      </trkpt>
      <trkpt lat="38.77411" lon="36.96787">
        <ele>1706.734633</ele>
        <time>2021-11-15T23:51:41.520Z</time>
      </trkpt>
      <trkpt lat="38.77473" lon="36.9672">
        <ele>1708.059491</ele>
        <time>2021-11-15T23:52:03.698Z</time>
      </trkpt>
      <trkpt lat="38.77683" lon="36.96356">
        <ele>1714.594243</ele>
        <time>2021-11-15T23:53:49.299Z</time>
      </trkpt>
      <trkpt lat="38.7774" lon="36.96274">
        <ele>1716.234879</ele>
        <time>2021-11-15T23:54:15.061Z</time>
      </trkpt>
      <trkpt lat="38.77778" lon="36.96232">
        <ele>1717.237645</ele>
        <time>2021-11-15T23:54:30.089Z</time>
      </trkpt>
      <trkpt lat="38.77966" lon="36.96064">
        <ele>1721.939916</ele>
        <time>2021-11-15T23:55:39.676Z</time>
      </trkpt>
      <trkpt lat="38.78064" lon="36.95969">
        <ele>1724.440473</ele>
        <time>2021-11-15T23:56:17.951Z</time>
      </trkpt>
      <trkpt lat="38.78236" lon="36.95788">
        <ele>1728.080059</ele>
        <time>2021-11-15T23:57:22.639Z</time>
      </trkpt>
      <trkpt lat="38.78389" lon="36.95659">
        <ele>1729.432364</ele>
        <time>2021-11-15T23:58:10.633Z</time>
      </trkpt>
      <trkpt lat="38.78485" lon="36.95594">
        <ele>1729.361276</ele>
        <time>2021-11-15T23:58:32.504Z</time>
      </trkpt>
      <trkpt lat="38.78602" lon="36.95538">
        <ele>1727.619708</ele>
        <time>2021-11-15T23:58:55.215Z</time>
      </trkpt>
      <trkpt lat="38.78799" lon="36.95419">
        <ele>1725.005482</ele>
        <time>2021-11-15T23:59:35.755Z</time>
      </trkpt>
      <trkpt lat="38.78936" lon="36.95316">
        <ele>1725.102173</ele>
        <time>2021-11-16T00:00:11.663Z</time>
      </trkpt>
      <trkpt lat="38.79035" lon="36.95225">
        <ele>1726.183946</ele>
        <time>2021-11-16T00:00:43.701Z</time>
      </trkpt>
      <trkpt lat="38.79148" lon="36.9511">
        <ele>1728.022293</ele>
        <time>2021-11-16T00:01:23.762Z</time>
      </trkpt>
      <trkpt lat="38.79234" lon="36.95003">
        <ele>1729.737124</ele>
        <time>2021-11-16T00:01:57.313Z</time>
      </trkpt>
      <trkpt lat="38.79286" lon="36.94928">
        <ele>1731.05049</ele>
        <time>2021-11-16T00:02:19.534Z</time>
      </trkpt>
      <trkpt lat="38.79379" lon="36.94743">
        <ele>1734.092429</ele>
        <time>2021-11-16T00:03:10.590Z</time>
      </trkpt>
      <trkpt lat="38.79469" lon="36.94489">
        <ele>1738.147888</ele>
        <time>2021-11-16T00:04:14.991Z</time>
      </trkpt>
      <trkpt lat="38.79533" lon="36.94273">
        <ele>1742.120439</ele>
        <time>2021-11-16T00:05:09.106Z</time>
      </trkpt>
      <trkpt lat="38.79554" lon="36.9418">
        <ele>1743.990569</ele>
        <time>2021-11-16T00:05:34.031Z</time>
      </trkpt>
      <trkpt lat="38.79601" lon="36.93928">
        <ele>1751.600373</ele>
        <time>2021-11-16T00:06:50.059Z</time>
      </trkpt>
      <trkpt lat="38.79629" lon="36.93861">
        <ele>1754.126316</ele>
        <time>2021-11-16T00:07:13.756Z</time>
      </trkpt>
      <trkpt lat="38.79662" lon="36.93807">
        <ele>1756.418179</ele>
        <time>2021-11-16T00:07:35.349Z</time>
      </trkpt>
      <trkpt lat="38.79763" lon="36.93699">
        <ele>1761.102661</ele>
        <time>2021-11-16T00:08:26.578Z</time>
      </trkpt>
      <trkpt lat="38.79854" lon="36.93646">
        <ele>1764.170188</ele>
        <time>2021-11-16T00:08:59.805Z</time>
      </trkpt>
      <trkpt lat="38.79994" lon="36.93595">
        <ele>1763.823908</ele>
        <time>2021-11-16T00:09:32.980Z</time>
      </trkpt>
      <trkpt lat="38.80178" lon="36.93532">
        <ele>1759.85301</ele>
        <time>2021-11-16T00:10:04.796Z</time>
      </trkpt>
      <trkpt lat="38.80224" lon="36.93516">
        <ele>1758.960052</ele>
        <time>2021-11-16T00:10:12.776Z</time>
      </trkpt>
      <trkpt lat="38.80345" lon="36.93476">
        <ele>1757.503024</ele>
        <time>2021-11-16T00:10:35.802Z</time>
      </trkpt>
      <trkpt lat="38.80496" lon="36.93416">
        <ele>1758.552079</ele>
        <time>2021-11-16T00:11:16.941Z</time>
      </trkpt>
      <trkpt lat="38.80596" lon="36.93363">
        <ele>1760.050055</ele>
        <time>2021-11-16T00:11:49.280Z</time>
      </trkpt>
      <trkpt lat="38.80931" lon="36.93114">
        <ele>1765.91744</ele>
        <time>2021-11-16T00:13:38.468Z</time>
      </trkpt>
      <trkpt lat="38.81051" lon="36.93003">
        <ele>1768.237659</ele>
        <time>2021-11-16T00:14:19.248Z</time>
      </trkpt>
      <trkpt lat="38.81138" lon="36.92865">
        <ele>1770.844725</ele>
        <time>2021-11-16T00:15:01.619Z</time>
      </trkpt>
      <trkpt lat="38.81178" lon="36.92642">
        <ele>1774.450803</ele>
        <time>2021-11-16T00:15:58.004Z</time>
      </trkpt>
      <trkpt lat="38.81188" lon="36.92102">
        <ele>1775.514245</ele>
        <time>2021-11-16T00:17:34.219Z</time>
      </trkpt>
      <trkpt lat="38.81188" lon="36.91665">
        <ele>1775.007095</ele>
        <time>2021-11-16T00:18:46.908Z</time>
      </trkpt>
      <trkpt lat="38.81179" lon="36.91487">
        <ele>1775.226677</ele>
        <time>2021-11-16T00:19:19.019Z</time>
      </trkpt>
      <trkpt lat="38.81156" lon="36.9136">
        <ele>1776.121067</ele>
        <time>2021-11-16T00:19:43.948Z</time>
      </trkpt>
      <trkpt lat="38.81109" lon="36.91223">
        <ele>1777.906032</ele>
        <time>2021-11-16T00:20:16.252Z</time>
      </trkpt>
      <trkpt lat="38.81044" lon="36.91106">
        <ele>1780.731382</ele>
        <time>2021-11-16T00:20:52.966Z</time>
      </trkpt>
      <trkpt lat="38.80945" lon="36.90959">
        <ele>1786.278288</ele>
        <time>2021-11-16T00:21:50.241Z</time>
      </trkpt>
      <trkpt lat="38.80908" lon="36.90893">
        <ele>1788.747542</ele>
        <time>2021-11-16T00:22:14.919Z</time>
      </trkpt>
      <trkpt lat="38.80885" lon="36.90839">
        <ele>1790.684504</ele>
        <time>2021-11-16T00:22:33.248Z</time>
      </trkpt>
      <trkpt lat="38.80869" lon="36.90785">
        <ele>1792.529473</ele>
        <time>2021-11-16T00:22:50.641Z</time>
      </trkpt>
      <trkpt lat="38.80855" lon="36.90705">
        <ele>1795.115708</ele>
        <time>2021-11-16T00:23:14.943Z</time>
      </trkpt>
      <trkpt lat="38.80851" lon="36.90646">
        <ele>1797.226599</ele>
        <time>2021-11-16T00:23:32.821Z</time>
      </trkpt>
      <trkpt lat="38.80855" lon="36.90585">
        <ele>1799.412101</ele>
        <time>2021-11-16T00:23:51.385Z</time>
      </trkpt>
      <trkpt lat="38.80864" lon="36.90525">
        <ele>1801.631183</ele>
        <time>2021-11-16T00:24:11.000Z</time>
      </trkpt>
      <trkpt lat="38.80881" lon="36.90463">
        <ele>1804.077288</ele>
        <time>2021-11-16T00:24:33.150Z</time>
      </trkpt>
      <trkpt lat="38.80898" lon="36.90416">
        <ele>1806.559259</ele>
        <time>2021-11-16T00:24:51.358Z</time>
      </trkpt>
      <trkpt lat="38.80931" lon="36.90346">
        <ele>1810.446295</ele>
        <time>2021-11-16T00:25:21.041Z</time>
      </trkpt>
      <trkpt lat="38.81024" lon="36.90192">
        <ele>1820.070917</ele>
        <time>2021-11-16T00:26:35.075Z</time>
      </trkpt>
      <trkpt lat="38.81145" lon="36.89999">
        <ele>1832.625011</ele>
        <time>2021-11-16T00:28:08.448Z</time>
      </trkpt>
      <trkpt lat="38.81212" lon="36.89918">
        <ele>1838.554369</ele>
        <time>2021-11-16T00:28:52.138Z</time>
      </trkpt>
      <trkpt lat="38.81265" lon="36.89861">
        <ele>1843.141758</ele>
        <time>2021-11-16T00:29:25.492Z</time>
      </trkpt>
      <trkpt lat="38.81311" lon="36.89821">
        <ele>1846.824441</ele>
        <time>2021-11-16T00:29:52.653Z</time>
      </trkpt>
      <trkpt lat="38.81378" lon="36.89788">
        <ele>1851.617639</ele>
        <time>2021-11-16T00:30:28.409Z</time>
      </trkpt>
      <trkpt lat="38.81499" lon="36.89758">
        <ele>1859.984256</ele>
        <time>2021-11-16T00:31:30.011Z</time>
      </trkpt>
      <trkpt lat="38.81574" lon="36.89763">
        <ele>1864.744673</ele>
        <time>2021-11-16T00:32:06.177Z</time>
      </trkpt>
      <trkpt lat="38.81677" lon="36.89795">
        <ele>1871.068727</ele>
        <time>2021-11-16T00:32:54.759Z</time>
      </trkpt>
      <trkpt lat="38.8174" lon="36.89827">
        <ele>1874.961829</ele>
        <time>2021-11-16T00:33:24.312Z</time>
      </trkpt>
      <trkpt lat="38.81871" lon="36.89927">
        <ele>1883.637322</ele>
        <time>2021-11-16T00:34:32.175Z</time>
      </trkpt>
      <trkpt lat="38.81933" lon="36.89964">
        <ele>1888.436684</ele>
        <time>2021-11-16T00:35:04.648Z</time>
      </trkpt>
      <trkpt lat="38.82018" lon="36.90006">
        <ele>1894.871474</ele>
        <time>2021-11-16T00:35:52.294Z</time>
      </trkpt>
      <trkpt lat="38.8208" lon="36.90029">
        <ele>1900.165787</ele>
        <time>2021-11-16T00:36:28.285Z</time>
      </trkpt>
      <trkpt lat="38.82263" lon="36.90071">
        <ele>1914.925235</ele>
        <time>2021-11-16T00:38:15.613Z</time>
      </trkpt>
      <trkpt lat="38.82323" lon="36.90076">
        <ele>1918.718035</ele>
        <time>2021-11-16T00:38:44.644Z</time>
      </trkpt>
      <trkpt lat="38.82369" lon="36.90075">
        <ele>1921.64748</ele>
        <time>2021-11-16T00:39:04.211Z</time>
      </trkpt>
      <trkpt lat="38.82452" lon="36.90054">
        <ele>1923.118483</ele>
        <time>2021-11-16T00:39:32.872Z</time>
      </trkpt>
      <trkpt lat="38.82553" lon="36.89996">
        <ele>1923.685061</ele>
        <time>2021-11-16T00:39:55.172Z</time>
      </trkpt>
      <trkpt lat="38.82596" lon="36.8996">
        <ele>1921.236416</ele>
        <time>2021-11-16T00:40:03.406Z</time>
      </trkpt>
      <trkpt lat="38.82637" lon="36.89911">
        <ele>1918.43942</ele>
        <time>2021-11-16T00:40:11.966Z</time>
      </trkpt>
      <trkpt lat="38.8266" lon="36.8988">
        <ele>1916.784629</ele>
        <time>2021-11-16T00:40:16.862Z</time>
      </trkpt>
      <trkpt lat="38.82742" lon="36.8973">
        <ele>1906.76365</ele>
        <time>2021-11-16T00:40:36.972Z</time>
      </trkpt>
      <trkpt lat="38.82787" lon="36.89662">
        <ele>1901.27468</ele>
        <time>2021-11-16T00:40:46.684Z</time>
      </trkpt>
      <trkpt lat="38.82825" lon="36.89615">
        <ele>1897.402007</ele>
        <time>2021-11-16T00:40:54.143Z</time>
      </trkpt>
      <trkpt lat="38.8287" lon="36.89574">
        <ele>1893.499571</ele>
        <time>2021-11-16T00:41:01.856Z</time>
      </trkpt>
      <trkpt lat="38.8296" lon="36.89525">
        <ele>1886.990321</ele>
        <time>2021-11-16T00:41:16.049Z</time>
      </trkpt>
      <trkpt lat="38.83134" lon="36.89482">
        <ele>1879.753185</ele>
        <time>2021-11-16T00:41:43.738Z</time>
      </trkpt>
      <trkpt lat="38.83171" lon="36.89466">
        <ele>1879.034147</ele>
        <time>2021-11-16T00:41:50.667Z</time>
      </trkpt>
      <trkpt lat="38.83239" lon="36.89421">
        <ele>1877.636027</ele>
        <time>2021-11-16T00:42:04.865Z</time>
      </trkpt>
      <trkpt lat="38.8327" lon="36.8939">
        <ele>1876.922245</ele>
        <time>2021-11-16T00:42:12.407Z</time>
      </trkpt>
      <trkpt lat="38.83302" lon="36.89348">
        <ele>1876.188872</ele>
        <time>2021-11-16T00:42:21.198Z</time>
      </trkpt>
      <trkpt lat="38.83335" lon="36.89293">
        <ele>1875.335197</ele>
        <time>2021-11-16T00:42:31.524Z</time>
      </trkpt>
      <trkpt lat="38.8343" lon="36.89077">
        <ele>1871.791392</ele>
        <time>2021-11-16T00:43:05.239Z</time>
      </trkpt>
      <trkpt lat="38.83476" lon="36.8899">
        <ele>1870.096774</ele>
        <time>2021-11-16T00:43:19.589Z</time>
      </trkpt>
      <trkpt lat="38.83498" lon="36.88957">
        <ele>1869.538538</ele>
        <time>2021-11-16T00:43:25.538Z</time>
      </trkpt>
      <trkpt lat="38.83529" lon="36.88921">
        <ele>1868.843079</ele>
        <time>2021-11-16T00:43:33.005Z</time>
      </trkpt>
      <trkpt lat="38.83608" lon="36.88855">
        <ele>1867.265243</ele>
        <time>2021-11-16T00:43:50.349Z</time>
      </trkpt>
      <trkpt lat="38.83645" lon="36.88832">
        <ele>1866.766947</ele>
        <time>2021-11-16T00:43:57.976Z</time>
      </trkpt>
      <trkpt lat="38.83696" lon="36.88811">
        <ele>1866.141077</ele>
        <time>2021-11-16T00:44:08.051Z</time>
      </trkpt>
      <trkpt lat="38.83777" lon="36.88792">
        <ele>1865.176806</ele>
        <time>2021-11-16T00:44:23.725Z</time>
      </trkpt>
      <trkpt lat="38.83861" lon="36.88796">
        <ele>1864.936488</ele>
        <time>2021-11-16T00:44:40.219Z</time>
      </trkpt>
      <trkpt lat="38.84731" lon="36.88934">
        <ele>1863.413449</ele>
        <time>2021-11-16T00:47:51.197Z</time>
      </trkpt>
      <trkpt lat="38.84977" lon="36.88973">
        <ele>1863.069371</ele>
        <time>2021-11-16T00:48:45.781Z</time>
      </trkpt>
      <trkpt lat="38.85045" lon="36.88975">
        <ele>1862.832378</ele>
        <time>2021-11-16T00:49:00.260Z</time>
      </trkpt>
      <trkpt lat="38.85111" lon="36.88965">
        <ele>1861.920366</ele>
        <time>2021-11-16T00:49:13.496Z</time>
      </trkpt>
      <trkpt lat="38.85198" lon="36.88934">
        <ele>1860.674952</ele>
        <time>2021-11-16T00:49:29.920Z</time>
      </trkpt>
      <trkpt lat="38.85287" lon="36.88882">
        <ele>1857.75565</ele>
        <time>2021-11-16T00:49:46.191Z</time>
      </trkpt>
      <trkpt lat="38.85344" lon="36.88833">
        <ele>1855.563925</ele>
        <time>2021-11-16T00:49:57.018Z</time>
      </trkpt>
      <trkpt lat="38.85395" lon="36.88777">
        <ele>1853.357496</ele>
        <time>2021-11-16T00:50:07.633Z</time>
      </trkpt>
      <trkpt lat="38.85449" lon="36.88701">
        <ele>1850.682003</ele>
        <time>2021-11-16T00:50:20.444Z</time>
      </trkpt>
      <trkpt lat="38.85591" lon="36.88412">
        <ele>1843.383104</ele>
        <time>2021-11-16T00:51:04.942Z</time>
      </trkpt>
      <trkpt lat="38.85655" lon="36.8829">
        <ele>1841.422862</ele>
        <time>2021-11-16T00:51:25.534Z</time>
      </trkpt>
      <trkpt lat="38.85752" lon="36.88145">
        <ele>1840.258271</ele>
        <time>2021-11-16T00:51:55.074Z</time>
      </trkpt>
      <trkpt lat="38.85871" lon="36.88016">
        <ele>1840.504601</ele>
        <time>2021-11-16T00:52:30.897Z</time>
      </trkpt>
      <trkpt lat="38.86066" lon="36.87834">
        <ele>1842.669811</ele>
        <time>2021-11-16T00:53:34.819Z</time>
      </trkpt>
      <trkpt lat="38.86194" lon="36.87708">
        <ele>1844.630502</ele>
        <time>2021-11-16T00:54:17.165Z</time>
      </trkpt>
      <trkpt lat="38.86238" lon="36.87658">
        <ele>1845.460828</ele>
        <time>2021-11-16T00:54:33.636Z</time>
      </trkpt>
      <trkpt lat="38.86354" lon="36.87501">
        <ele>1849.495428</ele>
        <time>2021-11-16T00:55:27.438Z</time>
      </trkpt>
      <trkpt lat="38.864" lon="36.87417">
        <ele>1851.567787</ele>
        <time>2021-11-16T00:55:55.778Z</time>
      </trkpt>
      <trkpt lat="38.86442" lon="36.87318">
        <ele>1853.846753</ele>
        <time>2021-11-16T00:56:24.343Z</time>
      </trkpt>
      <trkpt lat="38.86461" lon="36.87267">
        <ele>1854.540141</ele>
        <time>2021-11-16T00:56:37.384Z</time>
      </trkpt>
      <trkpt lat="38.86487" lon="36.87194">
        <ele>1855.174836</ele>
        <time>2021-11-16T00:56:54.244Z</time>
      </trkpt>
      <trkpt lat="38.86711" lon="36.86372">
        <ele>1860.582748</ele>
        <time>2021-11-16T00:59:36.549Z</time>
      </trkpt>
      <trkpt lat="38.86778" lon="36.8617">
        <ele>1868.265026</ele>
        <time>2021-11-16T01:00:52.015Z</time>
      </trkpt>
      <trkpt lat="38.86826" lon="36.86067">
        <ele>1873.937046</ele>
        <time>2021-11-16T01:01:38.165Z</time>
      </trkpt>
      <trkpt lat="38.86857" lon="36.86019">
        <ele>1876.840283</ele>
        <time>2021-11-16T01:02:00.510Z</time>
      </trkpt>
      <trkpt lat="38.86918" lon="36.85941">
        <ele>1880.029123</ele>
        <time>2021-11-16T01:02:36.355Z</time>
      </trkpt>
      <trkpt lat="38.87013" lon="36.85838">
        <ele>1883.667107</ele>
        <time>2021-11-16T01:03:16.283Z</time>
      </trkpt>
      <trkpt lat="38.87102" lon="36.85759">
        <ele>1884.536082</ele>
        <time>2021-11-16T01:03:43.113Z</time>
      </trkpt>
      <trkpt lat="38.87207" lon="36.8569">
        <ele>1884.439455</ele>
        <time>2021-11-16T01:04:08.204Z</time>
      </trkpt>
      <trkpt lat="38.87318" lon="36.85631">
        <ele>1883.601449</ele>
        <time>2021-11-16T01:04:32.219Z</time>
      </trkpt>
      <trkpt lat="38.87377" lon="36.85593">
        <ele>1882.49427</ele>
        <time>2021-11-16T01:04:44.345Z</time>
      </trkpt>
      <trkpt lat="38.87419" lon="36.85558">
        <ele>1881.640719</ele>
        <time>2021-11-16T01:04:53.351Z</time>
      </trkpt>
      <trkpt lat="38.87446" lon="36.85535">
        <ele>1881.080952</ele>
        <time>2021-11-16T01:04:59.024Z</time>
      </trkpt>
      <trkpt lat="38.87513" lon="36.85462">
        <ele>1878.130386</ele>
        <time>2021-11-16T01:05:13.496Z</time>
      </trkpt>
      <trkpt lat="38.87821" lon="36.85028">
        <ele>1861.101477</ele>
        <time>2021-11-16T01:06:25.622Z</time>
      </trkpt>
      <trkpt lat="38.87892" lon="36.84945">
        <ele>1857.345591</ele>
        <time>2021-11-16T01:06:40.737Z</time>
      </trkpt>
      <trkpt lat="38.87955" lon="36.84895">
        <ele>1854.421451</ele>
        <time>2021-11-16T01:06:52.454Z</time>
      </trkpt>
      <trkpt lat="38.88133" lon="36.848">
        <ele>1846.548411</ele>
        <time>2021-11-16T01:07:22.415Z</time>
      </trkpt>
      <trkpt lat="38.88176" lon="36.84767">
        <ele>1844.701504</ele>
        <time>2021-11-16T01:07:30.388Z</time>
      </trkpt>
      <trkpt lat="38.88218" lon="36.84734">
        <ele>1842.922559</ele>
        <time>2021-11-16T01:07:38.206Z</time>
      </trkpt>
      <trkpt lat="38.88243" lon="36.84708">
        <ele>1841.783482</ele>
        <time>2021-11-16T01:07:43.290Z</time>
      </trkpt>
      <trkpt lat="38.88267" lon="36.84679">
        <ele>1840.60747</ele>
        <time>2021-11-16T01:07:48.615Z</time>
      </trkpt>
      <trkpt lat="38.8832" lon="36.84596">
        <ele>1838.620032</ele>
        <time>2021-11-16T01:08:02.514Z</time>
      </trkpt>
      <trkpt lat="38.88551" lon="36.84231">
        <ele>1833.47867</ele>
        <time>2021-11-16T01:09:09.992Z</time>
      </trkpt>
      <trkpt lat="38.88686" lon="36.84004">
        <ele>1833.785713</ele>
        <time>2021-11-16T01:10:04.064Z</time>
      </trkpt>
      <trkpt lat="38.88734" lon="36.83891">
        <ele>1834.102525</ele>
        <time>2021-11-16T01:10:28.703Z</time>
      </trkpt>
      <trkpt lat="38.88775" lon="36.83765">
        <ele>1833.991316</ele>
        <time>2021-11-16T01:10:51.944Z</time>
      </trkpt>
      <trkpt lat="38.88811" lon="36.83619">
        <ele>1833.022818</ele>
        <time>2021-11-16T01:11:15.574Z</time>
      </trkpt>
      <trkpt lat="38.88822" lon="36.83543">
        <ele>1832.317053</ele>
        <time>2021-11-16T01:11:26.742Z</time>
      </trkpt>
      <trkpt lat="38.88828" lon="36.83503">
        <ele>1831.944383</ele>
        <time>2021-11-16T01:11:32.525Z</time>
      </trkpt>
      <trkpt lat="38.88834" lon="36.83444">
        <ele>1831.177363</ele>
        <time>2021-11-16T01:11:40.911Z</time>
      </trkpt>
      <trkpt lat="38.88835" lon="36.83428">
        <ele>1830.946597</ele>
        <time>2021-11-16T01:11:43.200Z</time>
      </trkpt>
      <trkpt lat="38.88837" lon="36.8338">
        <ele>1830.290312</ele>
        <time>2021-11-16T01:11:49.836Z</time>
      </trkpt>
      <trkpt lat="38.88834" lon="36.83183">
        <ele>1827.543212</ele>
        <time>2021-11-16T01:12:16.990Z</time>
      </trkpt>
      <trkpt lat="38.88823" lon="36.83082">
        <ele>1826.095977</ele>
        <time>2021-11-16T01:12:31.204Z</time>
      </trkpt>
      <trkpt lat="38.888" lon="36.82969">
        <ele>1824.686359</ele>
        <time>2021-11-16T01:12:47.585Z</time>
      </trkpt>
      <trkpt lat="38.88746" lon="36.82746">
        <ele>1823.645829</ele>
        <time>2021-11-16T01:13:21.619Z</time>
      </trkpt>
      <trkpt lat="38.88694" lon="36.82525">
        <ele>1826.029552</ele>
        <time>2021-11-16T01:14:19.826Z</time>
      </trkpt>
      <trkpt lat="38.88635" lon="36.82291">
        <ele>1825.774901</ele>
        <time>2021-11-16T01:15:09.935Z</time>
      </trkpt>
      <trkpt lat="38.88617" lon="36.8222">
        <ele>1823.923185</ele>
        <time>2021-11-16T01:15:18.422Z</time>
      </trkpt>
      <trkpt lat="38.88605" lon="36.82176">
        <ele>1822.784271</ele>
        <time>2021-11-16T01:15:23.503Z</time>
      </trkpt>
      <trkpt lat="38.88442" lon="36.81499">
        <ele>1808.243423</ele>
        <time>2021-11-16T01:16:56.820Z</time>
      </trkpt>
      <trkpt lat="38.88423" lon="36.81424">
        <ele>1807.137101</ele>
        <time>2021-11-16T01:17:08.370Z</time>
      </trkpt>
      <trkpt lat="38.88362" lon="36.8118">
        <ele>1803.313781</ele>
        <time>2021-11-16T01:17:44.247Z</time>
      </trkpt>
      <trkpt lat="38.88125" lon="36.80231">
        <ele>1786.078538</ele>
        <time>2021-11-16T01:19:57.449Z</time>
      </trkpt>
      <trkpt lat="38.88116" lon="36.80192">
        <ele>1785.462861</ele>
        <time>2021-11-16T01:20:03.134Z</time>
      </trkpt>
      <trkpt lat="38.88067" lon="36.79996">
        <ele>1784.164859</ele>
        <time>2021-11-16T01:20:34.822Z</time>
      </trkpt>
      <trkpt lat="38.878" lon="36.78896">
        <ele>1784.519612</ele>
        <time>2021-11-16T01:23:58.114Z</time>
      </trkpt>
      <trkpt lat="38.87716" lon="36.78557">
        <ele>1783.805165</ele>
        <time>2021-11-16T01:24:53.935Z</time>
      </trkpt>
      <trkpt lat="38.87709" lon="36.78528">
        <ele>1783.986897</ele>
        <time>2021-11-16T01:24:58.854Z</time>
      </trkpt>
      <trkpt lat="38.86922" lon="36.75304">
        <ele>1804.843685</ele>
        <time>2021-11-16T01:36:09.741Z</time>
      </trkpt>
      <trkpt lat="38.86862" lon="36.75057">
        <ele>1808.437494</ele>
        <time>2021-11-16T01:37:15.103Z</time>
      </trkpt>
      <trkpt lat="38.86781" lon="36.74724">
        <ele>1808.508185</ele>
        <time>2021-11-16T01:38:10.531Z</time>
      </trkpt>
      <trkpt lat="38.86306" lon="36.72783">
        <ele>1818.122442</ele>
        <time>2021-11-16T01:44:47.534Z</time>
      </trkpt>
      <trkpt lat="38.86272" lon="36.72632">
        <ele>1816.839296</ele>
        <time>2021-11-16T01:45:09.972Z</time>
      </trkpt>
      <trkpt lat="38.86203" lon="36.72374">
        <ele>1812.906099</ele>
        <time>2021-11-16T01:45:45.111Z</time>
      </trkpt>
      <trkpt lat="38.85969" lon="36.71416">
        <ele>1811.185681</ele>
        <time>2021-11-16T01:48:39.893Z</time>
      </trkpt>
      <trkpt lat="38.85921" lon="36.71194">
        <ele>1810.100026</ele>
        <time>2021-11-16T01:49:16.854Z</time>
      </trkpt>
      <trkpt lat="38.85911" lon="36.71138">
        <ele>1809.747701</ele>
        <time>2021-11-16T01:49:25.227Z</time>
      </trkpt>
      <trkpt lat="38.85904" lon="36.7109">
        <ele>1808.911255</ele>
        <time>2021-11-16T01:49:32.123Z</time>
      </trkpt>
      <trkpt lat="38.85888" lon="36.70943">
        <ele>1805.931145</ele>
        <time>2021-11-16T01:49:52.004Z</time>
      </trkpt>
      <trkpt lat="38.85878" lon="36.70756">
        <ele>1800.349306</ele>
        <time>2021-11-16T01:50:14.802Z</time>
      </trkpt>
      <trkpt lat="38.85878" lon="36.70656">
        <ele>1797.105496</ele>
        <time>2021-11-16T01:50:26.702Z</time>
      </trkpt>
      <trkpt lat="38.85878" lon="36.70609">
        <ele>1795.682829</ele>
        <time>2021-11-16T01:50:32.236Z</time>
      </trkpt>
      <trkpt lat="38.85899" lon="36.70311">
        <ele>1788.090856</ele>
        <time>2021-11-16T01:51:09.377Z</time>
      </trkpt>
      <trkpt lat="38.86198" lon="36.66948">
        <ele>1768.034923</ele>
        <time>2021-11-16T01:59:53.071Z</time>
      </trkpt>
      <trkpt lat="38.86224" lon="36.66656">
        <ele>1772.811512</ele>
        <time>2021-11-16T02:01:05.600Z</time>
      </trkpt>
      <trkpt lat="38.86226" lon="36.66636">
        <ele>1773.265642</ele>
        <time>2021-11-16T02:01:11.898Z</time>
      </trkpt>
      <trkpt lat="38.86241" lon="36.6647">
        <ele>1776.687371</ele>
        <time>2021-11-16T02:01:57.610Z</time>
      </trkpt>
      <trkpt lat="38.86253" lon="36.6634">
        <ele>1778.972645</ele>
        <time>2021-11-16T02:02:29.106Z</time>
      </trkpt>
      <trkpt lat="38.8631" lon="36.65696">
        <ele>1782.992358</ele>
        <time>2021-11-16T02:04:38.490Z</time>
      </trkpt>
      <trkpt lat="38.86316" lon="36.65585">
        <ele>1782.759838</ele>
        <time>2021-11-16T02:04:55.794Z</time>
      </trkpt>
      <trkpt lat="38.8632" lon="36.65391">
        <ele>1780.5943</ele>
        <time>2021-11-16T02:05:23.166Z</time>
      </trkpt>
      <trkpt lat="38.86305" lon="36.65151">
        <ele>1777.799007</ele>
        <time>2021-11-16T02:05:57.019Z</time>
      </trkpt>
      <trkpt lat="38.86275" lon="36.6494">
        <ele>1777.129572</ele>
        <time>2021-11-16T02:06:31.462Z</time>
      </trkpt>
      <trkpt lat="38.86168" lon="36.64411">
        <ele>1781.307497</ele>
        <time>2021-11-16T02:08:26.278Z</time>
      </trkpt>
      <trkpt lat="38.86103" lon="36.64078">
        <ele>1781.609191</ele>
        <time>2021-11-16T02:09:27.939Z</time>
      </trkpt>
      <trkpt lat="38.85982" lon="36.63471">
        <ele>1773.768384</ele>
        <time>2021-11-16T02:10:55.452Z</time>
      </trkpt>
      <trkpt lat="38.85851" lon="36.62806">
        <ele>1764.802181</ele>
        <time>2021-11-16T02:12:32.406Z</time>
      </trkpt>
      <trkpt lat="38.85806" lon="36.62611">
        <ele>1761.669246</ele>
        <time>2021-11-16T02:12:59.683Z</time>
      </trkpt>
      <trkpt lat="38.85742" lon="36.62374">
        <ele>1758.180107</ele>
        <time>2021-11-16T02:13:34.505Z</time>
      </trkpt>
      <trkpt lat="38.85642" lon="36.62064">
        <ele>1755.227975</ele>
        <time>2021-11-16T02:14:24.492Z</time>
      </trkpt>
      <trkpt lat="38.85574" lon="36.61888">
        <ele>1754.374312</ele>
        <time>2021-11-16T02:14:55.757Z</time>
      </trkpt>
      <trkpt lat="38.85424" lon="36.61545">
        <ele>1753.34352</ele>
        <time>2021-11-16T02:16:01.838Z</time>
      </trkpt>
      <trkpt lat="38.84906" lon="36.60401">
        <ele>1746.816332</ele>
        <time>2021-11-16T02:19:29.825Z</time>
      </trkpt>
      <trkpt lat="38.84841" lon="36.60241">
        <ele>1744.760856</ele>
        <time>2021-11-16T02:19:55.181Z</time>
      </trkpt>
      <trkpt lat="38.84662" lon="36.59846">
        <ele>1738.464592</ele>
        <time>2021-11-16T02:20:58.552Z</time>
      </trkpt>
      <trkpt lat="38.84603" lon="36.59715">
        <ele>1736.998868</ele>
        <time>2021-11-16T02:21:20.937Z</time>
      </trkpt>
      <trkpt lat="38.84417" lon="36.59295">
        <ele>1732.880879</ele>
        <time>2021-11-16T02:22:33.129Z</time>
      </trkpt>
      <trkpt lat="38.84357" lon="36.59182">
        <ele>1731.834911</ele>
        <time>2021-11-16T02:22:53.329Z</time>
      </trkpt>
      <trkpt lat="38.84291" lon="36.59073">
        <ele>1730.877759</ele>
        <time>2021-11-16T02:23:14.437Z</time>
      </trkpt>
      <trkpt lat="38.84212" lon="36.58976">
        <ele>1729.662276</ele>
        <time>2021-11-16T02:23:36.489Z</time>
      </trkpt>
      <trkpt lat="38.84146" lon="36.58907">
        <ele>1728.683644</ele>
        <time>2021-11-16T02:23:52.663Z</time>
      </trkpt>
      <trkpt lat="38.84031" lon="36.58812">
        <ele>1724.045577</ele>
        <time>2021-11-16T02:24:15.353Z</time>
      </trkpt>
      <trkpt lat="38.839" lon="36.58733">
        <ele>1715.508661</ele>
        <time>2021-11-16T02:24:36.772Z</time>
      </trkpt>
      <trkpt lat="38.83767" lon="36.58642">
        <ele>1703.661376</ele>
        <time>2021-11-16T02:24:57.570Z</time>
      </trkpt>
      <trkpt lat="38.83733" lon="36.58613">
        <ele>1700.13418</ele>
        <time>2021-11-16T02:25:03.113Z</time>
      </trkpt>
      <trkpt lat="38.83731" lon="36.58611">
        <ele>1699.831377</ele>
        <time>2021-11-16T02:25:03.554Z</time>
      </trkpt>
      <trkpt lat="38.8369" lon="36.58567">
        <ele>1695.206231</ele>
        <time>2021-11-16T02:25:10.924Z</time>
      </trkpt>
      <trkpt lat="38.83631" lon="36.5847">
        <ele>1688.941201</ele>
        <time>2021-11-16T02:25:24.491Z</time>
      </trkpt>
      <trkpt lat="38.83578" lon="36.58341">
        <ele>1682.390187</ele>
        <time>2021-11-16T02:25:41.818Z</time>
      </trkpt>
      <trkpt lat="38.83554" lon="36.58245">
        <ele>1679.330489</ele>
        <time>2021-11-16T02:25:54.023Z</time>
      </trkpt>
      <trkpt lat="38.83548" lon="36.58206">
        <ele>1678.116987</ele>
        <time>2021-11-16T02:25:58.967Z</time>
      </trkpt>
      <trkpt lat="38.83539" lon="36.58152">
        <ele>1676.437797</ele>
        <time>2021-11-16T02:26:05.922Z</time>
      </trkpt>
      <trkpt lat="38.83542" lon="36.58005">
        <ele>1673.488901</ele>
        <time>2021-11-16T02:26:24.889Z</time>
      </trkpt>
      <trkpt lat="38.83627" lon="36.57477">
        <ele>1665.950898</ele>
        <time>2021-11-16T02:27:40.756Z</time>
      </trkpt>
      <trkpt lat="38.83637" lon="36.57384">
        <ele>1664.889773</ele>
        <time>2021-11-16T02:27:54.251Z</time>
      </trkpt>
      <trkpt lat="38.83648" lon="36.57104">
        <ele>1661.661704</ele>
        <time>2021-11-16T02:28:34.842Z</time>
      </trkpt>
      <trkpt lat="38.83644" lon="36.57006">
        <ele>1660.449282</ele>
        <time>2021-11-16T02:28:48.577Z</time>
      </trkpt>
      <trkpt lat="38.83632" lon="36.5686">
        <ele>1658.327426</ele>
        <time>2021-11-16T02:29:08.815Z</time>
      </trkpt>
      <trkpt lat="38.83626" lon="36.56812">
        <ele>1657.618609</ele>
        <time>2021-11-16T02:29:15.470Z</time>
      </trkpt>
      <trkpt lat="38.83604" lon="36.56675">
        <ele>1655.735937</ele>
        <time>2021-11-16T02:29:34.795Z</time>
      </trkpt>
      <trkpt lat="38.83571" lon="36.56525">
        <ele>1653.755568</ele>
        <time>2021-11-16T02:29:57.077Z</time>
      </trkpt>
      <trkpt lat="38.83499" lon="36.56288">
        <ele>1651.058495</ele>
        <time>2021-11-16T02:30:33.871Z</time>
      </trkpt>
      <trkpt lat="38.83243" lon="36.55666">
        <ele>1644.564056</ele>
        <time>2021-11-16T02:32:17.340Z</time>
      </trkpt>
      <trkpt lat="38.83205" lon="36.55574">
        <ele>1643.912408</ele>
        <time>2021-11-16T02:32:32.693Z</time>
      </trkpt>
      <trkpt lat="38.83164" lon="36.55474">
        <ele>1643.766254</ele>
        <time>2021-11-16T02:32:50.793Z</time>
      </trkpt>
      <trkpt lat="38.83094" lon="36.55303">
        <ele>1645.543085</ele>
        <time>2021-11-16T02:33:32.640Z</time>
      </trkpt>
      <trkpt lat="38.83057" lon="36.55226">
        <ele>1647.73464</ele>
        <time>2021-11-16T02:33:57.610Z</time>
      </trkpt>
      <trkpt lat="38.82991" lon="36.55116">
        <ele>1651.096616</ele>
        <time>2021-11-16T02:34:37.519Z</time>
      </trkpt>
      <trkpt lat="38.82989" lon="36.55113">
        <ele>1651.153852</ele>
        <time>2021-11-16T02:34:39.505Z</time>
      </trkpt>
      <trkpt lat="38.82939" lon="36.55052">
        <ele>1652.08964</ele>
        <time>2021-11-16T02:34:59.733Z</time>
      </trkpt>
      <trkpt lat="38.82875" lon="36.54998">
        <ele>1653.108377</ele>
        <time>2021-11-16T02:35:20.659Z</time>
      </trkpt>
      <trkpt lat="38.82798" lon="36.54949">
        <ele>1653.786521</ele>
        <time>2021-11-16T02:35:37.728Z</time>
      </trkpt>
      <trkpt lat="38.82702" lon="36.54914">
        <ele>1654.225189</ele>
        <time>2021-11-16T02:35:59.980Z</time>
      </trkpt>
      <trkpt lat="38.82604" lon="36.54887">
        <ele>1657.219886</ele>
        <time>2021-11-16T02:36:33.218Z</time>
      </trkpt>
      <trkpt lat="38.82567" lon="36.54883">
        <ele>1658.710836</ele>
        <time>2021-11-16T02:36:48.187Z</time>
      </trkpt>
      <trkpt lat="38.82526" lon="36.54883">
        <ele>1660.300222</ele>
        <time>2021-11-16T02:37:05.369Z</time>
      </trkpt>
      <trkpt lat="38.82131" lon="36.54938">
        <ele>1682.362465</ele>
        <time>2021-11-16T02:40:04.935Z</time>
      </trkpt>
      <trkpt lat="38.81962" lon="36.54954">
        <ele>1691.258858</ele>
        <time>2021-11-16T02:41:18.011Z</time>
      </trkpt>
      <trkpt lat="38.81901" lon="36.54955">
        <ele>1694.284533</ele>
        <time>2021-11-16T02:41:44.086Z</time>
      </trkpt>
      <trkpt lat="38.81694" lon="36.54935">
        <ele>1704.30216</ele>
        <time>2021-11-16T02:43:09.824Z</time>
      </trkpt>
      <trkpt lat="38.81548" lon="36.54904">
        <ele>1711.504318</ele>
        <time>2021-11-16T02:44:10.267Z</time>
      </trkpt>
      <trkpt lat="38.81475" lon="36.5488">
        <ele>1715.370533</ele>
        <time>2021-11-16T02:44:42.772Z</time>
      </trkpt>
      <trkpt lat="38.81327" lon="36.54819">
        <ele>1723.306076</ele>
        <time>2021-11-16T02:45:51.931Z</time>
      </trkpt>
      <trkpt lat="38.81175" lon="36.54737">
        <ele>1730.042695</ele>
        <time>2021-11-16T02:46:58.504Z</time>
      </trkpt>
      <trkpt lat="38.81075" lon="36.54675">
        <ele>1732.872341</ele>
        <time>2021-11-16T02:47:32.727Z</time>
      </trkpt>
      <trkpt lat="38.79983" lon="36.53943">
        <ele>1731.366748</ele>
        <time>2021-11-16T02:51:59.100Z</time>
      </trkpt>
      <trkpt lat="38.79874" lon="36.53868">
        <ele>1729.890147</ele>
        <time>2021-11-16T02:52:22.670Z</time>
      </trkpt>
      <trkpt lat="38.79692" lon="36.53748">
        <ele>1727.025454</ele>
        <time>2021-11-16T02:52:59.344Z</time>
      </trkpt>
      <trkpt lat="38.79264" lon="36.53462">
        <ele>1723.859282</ele>
        <time>2021-11-16T02:54:35.039Z</time>
      </trkpt>
      <trkpt lat="38.79171" lon="36.53394">
        <ele>1724.372573</ele>
        <time>2021-11-16T02:55:04.142Z</time>
      </trkpt>
      <trkpt lat="38.79079" lon="36.53312">
        <ele>1726.190262</ele>
        <time>2021-11-16T02:55:37.985Z</time>
      </trkpt>
      <trkpt lat="38.79007" lon="36.53236">
        <ele>1726.980985</ele>
        <time>2021-11-16T02:56:04.109Z</time>
      </trkpt>
      <trkpt lat="38.78915" lon="36.53114">
        <ele>1726.725242</ele>
        <time>2021-11-16T02:56:31.635Z</time>
      </trkpt>
      <trkpt lat="38.78876" lon="36.53056">
        <ele>1725.356744</ele>
        <time>2021-11-16T02:56:41.940Z</time>
      </trkpt>
      <trkpt lat="38.78844" lon="36.53002">
        <ele>1723.970071</ele>
        <time>2021-11-16T02:56:50.521Z</time>
      </trkpt>
      <trkpt lat="38.78773" lon="36.5286">
        <ele>1721.299388</ele>
        <time>2021-11-16T02:57:12.173Z</time>
      </trkpt>
      <trkpt lat="38.78731" lon="36.52754">
        <ele>1720.217068</ele>
        <time>2021-11-16T02:57:30.316Z</time>
      </trkpt>
      <trkpt lat="38.78684" lon="36.52613">
        <ele>1720.440881</ele>
        <time>2021-11-16T02:58:01.356Z</time>
      </trkpt>
      <trkpt lat="38.78653" lon="36.52478">
        <ele>1720.877891</ele>
        <time>2021-11-16T02:58:29.905Z</time>
      </trkpt>
      <trkpt lat="38.78626" lon="36.52272">
        <ele>1719.261156</ele>
        <time>2021-11-16T02:59:01.098Z</time>
      </trkpt>
      <trkpt lat="38.7862" lon="36.52167">
        <ele>1716.174673</ele>
        <time>2021-11-16T02:59:14.480Z</time>
      </trkpt>
      <trkpt lat="38.78625" lon="36.5198">
        <ele>1710.506792</ele>
        <time>2021-11-16T02:59:36.800Z</time>
      </trkpt>
      <trkpt lat="38.78641" lon="36.51838">
        <ele>1705.818681</ele>
        <time>2021-11-16T02:59:54.053Z</time>
      </trkpt>
      <trkpt lat="38.78669" lon="36.51693">
        <ele>1702.436357</ele>
        <time>2021-11-16T03:00:13.312Z</time>
      </trkpt>
      <trkpt lat="38.78717" lon="36.51535">
        <ele>1699.028273</ele>
        <time>2021-11-16T03:00:36.535Z</time>
      </trkpt>
      <trkpt lat="38.79345" lon="36.498">
        <ele>1661.155017</ele>
        <time>2021-11-16T03:04:49.806Z</time>
      </trkpt>
      <trkpt lat="38.79387" lon="36.4965">
        <ele>1655.683546</ele>
        <time>2021-11-16T03:05:08.851Z</time>
      </trkpt>
      <trkpt lat="38.794" lon="36.49583">
        <ele>1652.37441</ele>
        <time>2021-11-16T03:05:16.812Z</time>
      </trkpt>
      <trkpt lat="38.79415" lon="36.49488">
        <ele>1647.761097</ele>
        <time>2021-11-16T03:05:27.686Z</time>
      </trkpt>
      <trkpt lat="38.79423" lon="36.49365">
        <ele>1641.179688</ele>
        <time>2021-11-16T03:05:41.196Z</time>
      </trkpt>
      <trkpt lat="38.79411" lon="36.49184">
        <ele>1632.884824</ele>
        <time>2021-11-16T03:06:01.700Z</time>
      </trkpt>
      <trkpt lat="38.79361" lon="36.48868">
        <ele>1623.497973</ele>
        <time>2021-11-16T03:06:42.810Z</time>
      </trkpt>
      <trkpt lat="38.79305" lon="36.48573">
        <ele>1614.773852</ele>
        <time>2021-11-16T03:07:20.859Z</time>
      </trkpt>
      <trkpt lat="38.79199" lon="36.47948">
        <ele>1582.752262</ele>
        <time>2021-11-16T03:08:33.038Z</time>
      </trkpt>
      <trkpt lat="38.79116" lon="36.47569">
        <ele>1561.357889</ele>
        <time>2021-11-16T03:09:16.735Z</time>
      </trkpt>
      <trkpt lat="38.7908" lon="36.47447">
        <ele>1554.818578</ele>
        <time>2021-11-16T03:09:31.464Z</time>
      </trkpt>
      <trkpt lat="38.79056" lon="36.47385">
        <ele>1552.610977</ele>
        <time>2021-11-16T03:09:39.566Z</time>
      </trkpt>
      <trkpt lat="38.79026" lon="36.47312">
        <ele>1549.978267</ele>
        <time>2021-11-16T03:09:49.648Z</time>
      </trkpt>
      <trkpt lat="38.79008" lon="36.4727">
        <ele>1548.426</ele>
        <time>2021-11-16T03:09:55.923Z</time>
      </trkpt>
      <trkpt lat="38.78981" lon="36.47206">
        <ele>1547.441078</ele>
        <time>2021-11-16T03:10:05.782Z</time>
      </trkpt>
      <trkpt lat="38.78951" lon="36.47144">
        <ele>1546.889445</ele>
        <time>2021-11-16T03:10:16.785Z</time>
      </trkpt>
      <trkpt lat="38.78902" lon="36.4705">
        <ele>1546.192756</ele>
        <time>2021-11-16T03:10:35.691Z</time>
      </trkpt>
      <trkpt lat="38.78867" lon="36.46991">
        <ele>1546.833597</ele>
        <time>2021-11-16T03:10:49.286Z</time>
      </trkpt>
      <trkpt lat="38.78845" lon="36.46959">
        <ele>1547.196816</ele>
        <time>2021-11-16T03:10:57.893Z</time>
      </trkpt>
      <trkpt lat="38.78818" lon="36.4692">
        <ele>1547.639482</ele>
        <time>2021-11-16T03:11:09.017Z</time>
      </trkpt>
      <trkpt lat="38.78777" lon="36.46867">
        <ele>1548.61579</ele>
        <time>2021-11-16T03:11:26.621Z</time>
      </trkpt>
      <trkpt lat="38.78688" lon="36.46759">
        <ele>1552.445898</ele>
        <time>2021-11-16T03:12:10.421Z</time>
      </trkpt>
      <trkpt lat="38.78604" lon="36.4667">
        <ele>1555.420368</ele>
        <time>2021-11-16T03:12:49.784Z</time>
      </trkpt>
      <trkpt lat="38.785" lon="36.46588">
        <ele>1558.493654</ele>
        <time>2021-11-16T03:13:26.242Z</time>
      </trkpt>
      <trkpt lat="38.78431" lon="36.46539">
        <ele>1560.475958</ele>
        <time>2021-11-16T03:13:50.330Z</time>
      </trkpt>
      <trkpt lat="38.78375" lon="36.46502">
        <ele>1562.049913</ele>
        <time>2021-11-16T03:14:11.021Z</time>
      </trkpt>
      <trkpt lat="38.7831" lon="36.46459">
        <ele>1564.338652</ele>
        <time>2021-11-16T03:14:37.070Z</time>
      </trkpt>
      <trkpt lat="38.78183" lon="36.46391">
        <ele>1569.032394</ele>
        <time>2021-11-16T03:15:29.474Z</time>
      </trkpt>
      <trkpt lat="38.78134" lon="36.46372">
        <ele>1569.346135</ele>
        <time>2021-11-16T03:15:45.179Z</time>
      </trkpt>
      <trkpt lat="38.78103" lon="36.46361">
        <ele>1569.536087</ele>
        <time>2021-11-16T03:15:53.671Z</time>
      </trkpt>
      <trkpt lat="38.78077" lon="36.46352">
        <ele>1569.700841</ele>
        <time>2021-11-16T03:16:00.385Z</time>
      </trkpt>
      <trkpt lat="38.77859" lon="36.46296">
        <ele>1566.981995</ele>
        <time>2021-11-16T03:16:40.648Z</time>
      </trkpt>
      <trkpt lat="38.77574" lon="36.46236">
        <ele>1557.309564</ele>
        <time>2021-11-16T03:17:26.830Z</time>
      </trkpt>
      <trkpt lat="38.77409" lon="36.46201">
        <ele>1551.455777</ele>
        <time>2021-11-16T03:17:53.864Z</time>
      </trkpt>
      <trkpt lat="38.77255" lon="36.46168">
        <ele>1546.186097</ele>
        <time>2021-11-16T03:18:18.709Z</time>
      </trkpt>
      <trkpt lat="38.77104" lon="36.46137">
        <ele>1541.933948</ele>
        <time>2021-11-16T03:18:44.157Z</time>
      </trkpt>
      <trkpt lat="38.77085" lon="36.46132">
        <ele>1541.669642</ele>
        <time>2021-11-16T03:18:47.509Z</time>
      </trkpt>
      <trkpt lat="38.76887" lon="36.4609">
        <ele>1539.2607</ele>
        <time>2021-11-16T03:19:26.368Z</time>
      </trkpt>
      <trkpt lat="38.76308" lon="36.45971">
        <ele>1534.100462</ele>
        <time>2021-11-16T03:21:23.494Z</time>
      </trkpt>
      <trkpt lat="38.76077" lon="36.45915">
        <ele>1528.545156</ele>
        <time>2021-11-16T03:22:03.180Z</time>
      </trkpt>
      <trkpt lat="38.76044" lon="36.45906">
        <ele>1527.449412</ele>
        <time>2021-11-16T03:22:08.603Z</time>
      </trkpt>
      <trkpt lat="38.76006" lon="36.45891">
        <ele>1526.048922</ele>
        <time>2021-11-16T03:22:14.866Z</time>
      </trkpt>
      <trkpt lat="38.75951" lon="36.4587">
        <ele>1524.003128</ele>
        <time>2021-11-16T03:22:23.902Z</time>
      </trkpt>
      <trkpt lat="38.75865" lon="36.45829">
        <ele>1521.191631</ele>
        <time>2021-11-16T03:22:38.646Z</time>
      </trkpt>
      <trkpt lat="38.75783" lon="36.45786">
        <ele>1519.463438</ele>
        <time>2021-11-16T03:22:54.046Z</time>
      </trkpt>
      <trkpt lat="38.75747" lon="36.45764">
        <ele>1518.674568</ele>
        <time>2021-11-16T03:23:01.625Z</time>
      </trkpt>
      <trkpt lat="38.75696" lon="36.45734">
        <ele>1518.096794</ele>
        <time>2021-11-16T03:23:12.528Z</time>
      </trkpt>
      <trkpt lat="38.75586" lon="36.45663">
        <ele>1517.640064</ele>
        <time>2021-11-16T03:23:39.190Z</time>
      </trkpt>
      <trkpt lat="38.75526" lon="36.45618">
        <ele>1517.380486</ele>
        <time>2021-11-16T03:23:54.293Z</time>
      </trkpt>
      <trkpt lat="38.75415" lon="36.45527">
        <ele>1516.886349</ele>
        <time>2021-11-16T03:24:21.374Z</time>
      </trkpt>
      <trkpt lat="38.75338" lon="36.45447">
        <ele>1516.620444</ele>
        <time>2021-11-16T03:24:41.846Z</time>
      </trkpt>
      <trkpt lat="38.75206" lon="36.45294">
        <ele>1516.592332</ele>
        <time>2021-11-16T03:25:21.378Z</time>
      </trkpt>
      <trkpt lat="38.75096" lon="36.45139">
        <ele>1516.971831</ele>
        <time>2021-11-16T03:26:00.790Z</time>
      </trkpt>
      <trkpt lat="38.75048" lon="36.4506">
        <ele>1517.179338</ele>
        <time>2021-11-16T03:26:18.884Z</time>
      </trkpt>
      <trkpt lat="38.74975" lon="36.44918">
        <ele>1517.201725</ele>
        <time>2021-11-16T03:26:47.880Z</time>
      </trkpt>
      <trkpt lat="38.74925" lon="36.44821">
        <ele>1517.229981</ele>
        <time>2021-11-16T03:27:07.669Z</time>
      </trkpt>
      <trkpt lat="38.74276" lon="36.43444">
        <ele>1520.598463</ele>
        <time>2021-11-16T03:32:01.313Z</time>
      </trkpt>
      <trkpt lat="38.74245" lon="36.43377">
        <ele>1520.466799</ele>
        <time>2021-11-16T03:32:14.960Z</time>
      </trkpt>
      <trkpt lat="38.74202" lon="36.43285">
        <ele>1520.285256</ele>
        <time>2021-11-16T03:32:32.575Z</time>
      </trkpt>
      <trkpt lat="38.73979" lon="36.42802">
        <ele>1517.007031</ele>
        <time>2021-11-16T03:33:57.971Z</time>
      </trkpt>
      <trkpt lat="38.73926" lon="36.42689">
        <ele>1516.90493</ele>
        <time>2021-11-16T03:34:22.068Z</time>
      </trkpt>
      <trkpt lat="38.73899" lon="36.42631">
        <ele>1516.939317</ele>
        <time>2021-11-16T03:34:34.711Z</time>
      </trkpt>
      <trkpt lat="38.73874" lon="36.42578">
        <ele>1517.013478</ele>
        <time>2021-11-16T03:34:45.808Z</time>
      </trkpt>
      <trkpt lat="38.73839" lon="36.42505">
        <ele>1517.11756</ele>
        <time>2021-11-16T03:35:01.082Z</time>
      </trkpt>
      <trkpt lat="38.73828" lon="36.42481">
        <ele>1517.151138</ele>
        <time>2021-11-16T03:35:05.841Z</time>
      </trkpt>
      <trkpt lat="38.73779" lon="36.4238">
        <ele>1516.990815</ele>
        <time>2021-11-16T03:35:25.685Z</time>
      </trkpt>
      <trkpt lat="38.73744" lon="36.42303">
        <ele>1516.844687</ele>
        <time>2021-11-16T03:35:40.365Z</time>
      </trkpt>
      <trkpt lat="38.73695" lon="36.42197">
        <ele>1516.592469</ele>
        <time>2021-11-16T03:36:01.170Z</time>
      </trkpt>
      <trkpt lat="38.73559" lon="36.41909">
        <ele>1515.942452</ele>
        <time>2021-11-16T03:36:55.981Z</time>
      </trkpt>
      <trkpt lat="38.73444" lon="36.41666">
        <ele>1516.541442</ele>
        <time>2021-11-16T03:37:48.785Z</time>
      </trkpt>
      <trkpt lat="38.73388" lon="36.41547">
        <ele>1517.018723</ele>
        <time>2021-11-16T03:38:15.309Z</time>
      </trkpt>
      <trkpt lat="38.73351" lon="36.41469">
        <ele>1517.269864</ele>
        <time>2021-11-16T03:38:32.118Z</time>
      </trkpt>
      <trkpt lat="38.73344" lon="36.41455">
        <ele>1517.269874</ele>
        <time>2021-11-16T03:38:35.163Z</time>
      </trkpt>
      <trkpt lat="38.73329" lon="36.4142">
        <ele>1517.269899</ele>
        <time>2021-11-16T03:38:42.280Z</time>
      </trkpt>
      <trkpt lat="38.73315" lon="36.41388">
        <ele>1517.26992</ele>
        <time>2021-11-16T03:38:48.435Z</time>
      </trkpt>
      <trkpt lat="38.73281" lon="36.41315">
        <ele>1517.269971</ele>
        <time>2021-11-16T03:39:02.909Z</time>
      </trkpt>
      <trkpt lat="38.73246" lon="36.41244">
        <ele>1517.362811</ele>
        <time>2021-11-16T03:39:17.209Z</time>
      </trkpt>
      <trkpt lat="38.73205" lon="36.41159">
        <ele>1517.547068</ele>
        <time>2021-11-16T03:39:34.158Z</time>
      </trkpt>
      <trkpt lat="38.73111" lon="36.40937">
        <ele>1518.567292</ele>
        <time>2021-11-16T03:40:24.045Z</time>
      </trkpt>
      <trkpt lat="38.73016" lon="36.40646">
        <ele>1518.96645</ele>
        <time>2021-11-16T03:41:22.873Z</time>
      </trkpt>
      <trkpt lat="38.72999" lon="36.40595">
        <ele>1518.196394</ele>
        <time>2021-11-16T03:41:30.646Z</time>
      </trkpt>
      <trkpt lat="38.72984" lon="36.40538">
        <ele>1517.345104</ele>
        <time>2021-11-16T03:41:38.871Z</time>
      </trkpt>
      <trkpt lat="38.72945" lon="36.40404">
        <ele>1515.354698</ele>
        <time>2021-11-16T03:41:57.518Z</time>
      </trkpt>
      <trkpt lat="38.72882" lon="36.40206">
        <ele>1512.854309</ele>
        <time>2021-11-16T03:42:27.848Z</time>
      </trkpt>
      <trkpt lat="38.72853" lon="36.40128">
        <ele>1512.718921</ele>
        <time>2021-11-16T03:42:42.825Z</time>
      </trkpt>
      <trkpt lat="38.72845" lon="36.40109">
        <ele>1512.684949</ele>
        <time>2021-11-16T03:42:46.840Z</time>
      </trkpt>
      <trkpt lat="38.72801" lon="36.40011">
        <ele>1512.588228</ele>
        <time>2021-11-16T03:43:08.178Z</time>
      </trkpt>
      <trkpt lat="38.72745" lon="36.39894">
        <ele>1512.775448</ele>
        <time>2021-11-16T03:43:31.571Z</time>
      </trkpt>
      <trkpt lat="38.727" lon="36.39803">
        <ele>1513.283873</ele>
        <time>2021-11-16T03:43:51.074Z</time>
      </trkpt>
      <trkpt lat="38.72648" lon="36.39695">
        <ele>1514.550641</ele>
        <time>2021-11-16T03:44:17.501Z</time>
      </trkpt>
      <trkpt lat="38.72641" lon="36.39681">
        <ele>1514.720151</ele>
        <time>2021-11-16T03:44:21.408Z</time>
      </trkpt>
      <trkpt lat="38.72615" lon="36.39626">
        <ele>1515.496486</ele>
        <time>2021-11-16T03:44:37.354Z</time>
      </trkpt>
      <trkpt lat="38.726" lon="36.39595">
        <ele>1516.091094</ele>
        <time>2021-11-16T03:44:46.583Z</time>
      </trkpt>
      <trkpt lat="38.72588" lon="36.3957">
        <ele>1516.584696</ele>
        <time>2021-11-16T03:44:54.199Z</time>
      </trkpt>
      <trkpt lat="38.72549" lon="36.39486">
        <ele>1518.233214</ele>
        <time>2021-11-16T03:45:19.462Z</time>
      </trkpt>
      <trkpt lat="38.72491" lon="36.39361">
        <ele>1518.629248</ele>
        <time>2021-11-16T03:45:48.846Z</time>
      </trkpt>
      <trkpt lat="38.72475" lon="36.39326">
        <ele>1518.46774</ele>
        <time>2021-11-16T03:45:55.441Z</time>
      </trkpt>
      <trkpt lat="38.72411" lon="36.39181">
        <ele>1516.355679</ele>
        <time>2021-11-16T03:46:18.010Z</time>
      </trkpt>
      <trkpt lat="38.7233" lon="36.39023">
        <ele>1512.070951</ele>
        <time>2021-11-16T03:46:41.632Z</time>
      </trkpt>
      <trkpt lat="38.72282" lon="36.38928">
        <ele>1509.922621</ele>
        <time>2021-11-16T03:46:56.435Z</time>
      </trkpt>
      <trkpt lat="38.72202" lon="36.38795">
        <ele>1507.407664</ele>
        <time>2021-11-16T03:47:20.392Z</time>
      </trkpt>
      <trkpt lat="38.72173" lon="36.38755">
        <ele>1506.813763</ele>
        <time>2021-11-16T03:47:28.272Z</time>
      </trkpt>
      <trkpt lat="38.72154" lon="36.38728">
        <ele>1506.420375</ele>
        <time>2021-11-16T03:47:33.550Z</time>
      </trkpt>
      <trkpt lat="38.72115" lon="36.38681">
        <ele>1505.712566</ele>
        <time>2021-11-16T03:47:43.624Z</time>
      </trkpt>
      <trkpt lat="38.72073" lon="36.38634">
        <ele>1505.177516</ele>
        <time>2021-11-16T03:47:54.233Z</time>
      </trkpt>
      <trkpt lat="38.72034" lon="36.38597">
        <ele>1504.714652</ele>
        <time>2021-11-16T03:48:03.482Z</time>
      </trkpt>
      <trkpt lat="38.72019" lon="36.38584">
        <ele>1504.542671</ele>
        <time>2021-11-16T03:48:06.963Z</time>
      </trkpt>
      <trkpt lat="38.71948" lon="36.38518">
        <ele>1504.080951</ele>
        <time>2021-11-16T03:48:24.782Z</time>
      </trkpt>
      <trkpt lat="38.7186" lon="36.38442">
        <ele>1504.065343</ele>
        <time>2021-11-16T03:48:48.313Z</time>
      </trkpt>
      <trkpt lat="38.71711" lon="36.38311">
        <ele>1505.644369</ele>
        <time>2021-11-16T03:49:34.329Z</time>
      </trkpt>
      <trkpt lat="38.71552" lon="36.38163">
        <ele>1509.5237</ele>
        <time>2021-11-16T03:50:34.452Z</time>
      </trkpt>
      <trkpt lat="38.71535" lon="36.38148">
        <ele>1509.988659</ele>
        <time>2021-11-16T03:50:41.431Z</time>
      </trkpt>
      <trkpt lat="38.71532" lon="36.38146">
        <ele>1510.066092</ele>
        <time>2021-11-16T03:50:42.399Z</time>
      </trkpt>
      <trkpt lat="38.71401" lon="36.38039">
        <ele>1514.039285</ele>
        <time>2021-11-16T03:51:34.129Z</time>
      </trkpt>
      <trkpt lat="38.71124" lon="36.37764">
        <ele>1519.870739</ele>
        <time>2021-11-16T03:53:17.920Z</time>
      </trkpt>
      <trkpt lat="38.71082" lon="36.37729">
        <ele>1520.056845</ele>
        <time>2021-11-16T03:53:27.992Z</time>
      </trkpt>
      <trkpt lat="38.71019" lon="36.37686">
        <ele>1519.605975</ele>
        <time>2021-11-16T03:53:41.762Z</time>
      </trkpt>
      <trkpt lat="38.70906" lon="36.37627">
        <ele>1519.505066</ele>
        <time>2021-11-16T03:54:05.609Z</time>
      </trkpt>
      <trkpt lat="38.70495" lon="36.37438">
        <ele>1524.257624</ele>
        <time>2021-11-16T03:56:07.612Z</time>
      </trkpt>
      <trkpt lat="38.70432" lon="36.37405">
        <ele>1524.854664</ele>
        <time>2021-11-16T03:56:23.778Z</time>
      </trkpt>
      <trkpt lat="38.70358" lon="36.37355">
        <ele>1524.134273</ele>
        <time>2021-11-16T03:56:40.896Z</time>
      </trkpt>
      <trkpt lat="38.70307" lon="36.37313">
        <ele>1523.606859</ele>
        <time>2021-11-16T03:56:52.351Z</time>
      </trkpt>
      <trkpt lat="38.70258" lon="36.37266">
        <ele>1522.956712</ele>
        <time>2021-11-16T03:57:03.400Z</time>
      </trkpt>
      <trkpt lat="38.70216" lon="36.37215">
        <ele>1522.191089</ele>
        <time>2021-11-16T03:57:13.989Z</time>
      </trkpt>
      <trkpt lat="38.70135" lon="36.37093">
        <ele>1521.207565</ele>
        <time>2021-11-16T03:57:37.267Z</time>
      </trkpt>
      <trkpt lat="38.70069" lon="36.36943">
        <ele>1522.255189</ele>
        <time>2021-11-16T03:58:11.985Z</time>
      </trkpt>
      <trkpt lat="38.70008" lon="36.36787">
        <ele>1526.348363</ele>
        <time>2021-11-16T03:58:59.906Z</time>
      </trkpt>
      <trkpt lat="38.69953" lon="36.36652">
        <ele>1530.335365</ele>
        <time>2021-11-16T03:59:44.904Z</time>
      </trkpt>
      <trkpt lat="38.6991" lon="36.3657">
        <ele>1532.987798</ele>
        <time>2021-11-16T04:00:11.984Z</time>
      </trkpt>
      <trkpt lat="38.69864" lon="36.36485">
        <ele>1535.445764</ele>
        <time>2021-11-16T04:00:40.273Z</time>
      </trkpt>
      <trkpt lat="38.69783" lon="36.3637">
        <ele>1538.674939</ele>
        <time>2021-11-16T04:01:21.162Z</time>
      </trkpt>
      <trkpt lat="38.69341" lon="36.3581">
        <ele>1547.84217</ele>
        <time>2021-11-16T04:04:15.072Z</time>
      </trkpt>
      <trkpt lat="38.6921" lon="36.35646">
        <ele>1550.112863</ele>
        <time>2021-11-16T04:05:02.014Z</time>
      </trkpt>
      <trkpt lat="38.69203" lon="36.35638">
        <ele>1550.26712</ele>
        <time>2021-11-16T04:05:04.735Z</time>
      </trkpt>
      <trkpt lat="38.69081" lon="36.35485">
        <ele>1554.113147</ele>
        <time>2021-11-16T04:05:56.576Z</time>
      </trkpt>
      <trkpt lat="38.68597" lon="36.34866">
        <ele>1575.500032</ele>
        <time>2021-11-16T04:10:05.267Z</time>
      </trkpt>
      <trkpt lat="38.68504" lon="36.34744">
        <ele>1574.119927</ele>
        <time>2021-11-16T04:10:29.242Z</time>
      </trkpt>
      <trkpt lat="38.68426" lon="36.34648">
        <ele>1570.126319</ele>
        <time>2021-11-16T04:10:45.862Z</time>
      </trkpt>
      <trkpt lat="38.68342" lon="36.34542">
        <ele>1565.697402</ele>
        <time>2021-11-16T04:11:04.095Z</time>
      </trkpt>
      <trkpt lat="38.68299" lon="36.34488">
        <ele>1564.295651</ele>
        <time>2021-11-16T04:11:13.886Z</time>
      </trkpt>
      <trkpt lat="38.68258" lon="36.34435">
        <ele>1562.9285</ele>
        <time>2021-11-16T04:11:23.980Z</time>
      </trkpt>
      <trkpt lat="38.68122" lon="36.34261">
        <ele>1564.691966</ele>
        <time>2021-11-16T04:12:11.596Z</time>
      </trkpt>
      <trkpt lat="38.6793" lon="36.34013">
        <ele>1580.375494</ele>
        <time>2021-11-16T04:14:21.059Z</time>
      </trkpt>
      <trkpt lat="38.67869" lon="36.33936">
        <ele>1586.049834</ele>
        <time>2021-11-16T04:15:06.070Z</time>
      </trkpt>
      <trkpt lat="38.67681" lon="36.3369">
        <ele>1599.450402</ele>
        <time>2021-11-16T04:17:03.609Z</time>
      </trkpt>
      <trkpt lat="38.67639" lon="36.33625">
        <ele>1601.457386</ele>
        <time>2021-11-16T04:17:24.821Z</time>
      </trkpt>
      <trkpt lat="38.67588" lon="36.33524">
        <ele>1602.341335</ele>
        <time>2021-11-16T04:17:48.286Z</time>
      </trkpt>
      <trkpt lat="38.67544" lon="36.33409">
        <ele>1601.281628</ele>
        <time>2021-11-16T04:18:06.858Z</time>
      </trkpt>
      <trkpt lat="38.6752" lon="36.33323">
        <ele>1599.75151</ele>
        <time>2021-11-16T04:18:18.931Z</time>
      </trkpt>
      <trkpt lat="38.67461" lon="36.33084">
        <ele>1593.837538</ele>
        <time>2021-11-16T04:18:50.549Z</time>
      </trkpt>
      <trkpt lat="38.67371" lon="36.32705">
        <ele>1584.657944</ele>
        <time>2021-11-16T04:19:41.739Z</time>
      </trkpt>
      <trkpt lat="38.67211" lon="36.32044">
        <ele>1570.298135</ele>
        <time>2021-11-16T04:21:12.213Z</time>
      </trkpt>
      <trkpt lat="38.67172" lon="36.31881">
        <ele>1568.643325</ele>
        <time>2021-11-16T04:21:36.723Z</time>
      </trkpt>
      <trkpt lat="38.67128" lon="36.31698">
        <ele>1568.124416</ele>
        <time>2021-11-16T04:22:11.177Z</time>
      </trkpt>
      <trkpt lat="38.67095" lon="36.31589">
        <ele>1567.85668</ele>
        <time>2021-11-16T04:22:31.190Z</time>
      </trkpt>
      <trkpt lat="38.67086" lon="36.31566">
        <ele>1567.583962</ele>
        <time>2021-11-16T04:22:35.573Z</time>
      </trkpt>
      <trkpt lat="38.67075" lon="36.31536">
        <ele>1567.231968</ele>
        <time>2021-11-16T04:22:40.447Z</time>
      </trkpt>
      <trkpt lat="38.67013" lon="36.31399">
        <ele>1565.492677</ele>
        <time>2021-11-16T04:23:02.489Z</time>
      </trkpt>
      <trkpt lat="38.66887" lon="36.31204">
        <ele>1561.73415</ele>
        <time>2021-11-16T04:23:36.649Z</time>
      </trkpt>
      <trkpt lat="38.6682" lon="36.31102">
        <ele>1560.861859</ele>
        <time>2021-11-16T04:23:57.442Z</time>
      </trkpt>
      <trkpt lat="38.66657" lon="36.30863">
        <ele>1560.67632</ele>
        <time>2021-11-16T04:24:52.818Z</time>
      </trkpt>
      <trkpt lat="38.66527" lon="36.30668">
        <ele>1561.570546</ele>
        <time>2021-11-16T04:25:42.576Z</time>
      </trkpt>
      <trkpt lat="38.66478" lon="36.30584">
        <ele>1561.703679</ele>
        <time>2021-11-16T04:26:01.120Z</time>
      </trkpt>
      <trkpt lat="38.66474" lon="36.30578">
        <ele>1561.713095</ele>
        <time>2021-11-16T04:26:02.032Z</time>
      </trkpt>
      <trkpt lat="38.66431" lon="36.30487">
        <ele>1562.127734</ele>
        <time>2021-11-16T04:26:20.247Z</time>
      </trkpt>
      <trkpt lat="38.66378" lon="36.30334">
        <ele>1563.551091</ele>
        <time>2021-11-16T04:26:55.761Z</time>
      </trkpt>
      <trkpt lat="38.66365" lon="36.30289">
        <ele>1564.095818</ele>
        <time>2021-11-16T04:27:07.346Z</time>
      </trkpt>
      <trkpt lat="38.6635" lon="36.30221">
        <ele>1565.08619</ele>
        <time>2021-11-16T04:27:24.748Z</time>
      </trkpt>
      <trkpt lat="38.66325" lon="36.30024">
        <ele>1567.2085</ele>
        <time>2021-11-16T04:28:09.724Z</time>
      </trkpt>
      <trkpt lat="38.66324" lon="36.29923">
        <ele>1567.538777</ele>
        <time>2021-11-16T04:28:27.663Z</time>
      </trkpt>
      <trkpt lat="38.66332" lon="36.29786">
        <ele>1566.856715</ele>
        <time>2021-11-16T04:28:50.318Z</time>
      </trkpt>
      <trkpt lat="38.66351" lon="36.29661">
        <ele>1565.286748</ele>
        <time>2021-11-16T04:29:08.446Z</time>
      </trkpt>
      <trkpt lat="38.66534" lon="36.28879">
        <ele>1542.319901</ele>
        <time>2021-11-16T04:30:49.309Z</time>
      </trkpt>
      <trkpt lat="38.66584" lon="36.28701">
        <ele>1537.73181</ele>
        <time>2021-11-16T04:31:13.894Z</time>
      </trkpt>
      <trkpt lat="38.66645" lon="36.28451">
        <ele>1530.948855</ele>
        <time>2021-11-16T04:31:48.148Z</time>
      </trkpt>
      <trkpt lat="38.66676" lon="36.2825">
        <ele>1523.015892</ele>
        <time>2021-11-16T04:32:12.094Z</time>
      </trkpt>
      <trkpt lat="38.66689" lon="36.28039">
        <ele>1512.940926</ele>
        <time>2021-11-16T04:32:35.867Z</time>
      </trkpt>
      <trkpt lat="38.66713" lon="36.27628">
        <ele>1495.44749</ele>
        <time>2021-11-16T04:33:24.250Z</time>
      </trkpt>
      <trkpt lat="38.6674" lon="36.27436">
        <ele>1485.150132</ele>
        <time>2021-11-16T04:33:46.121Z</time>
      </trkpt>
      <trkpt lat="38.66761" lon="36.27352">
        <ele>1480.906651</ele>
        <time>2021-11-16T04:33:55.871Z</time>
      </trkpt>
      <trkpt lat="38.66796" lon="36.27249">
        <ele>1476.00535</ele>
        <time>2021-11-16T04:34:08.699Z</time>
      </trkpt>
      <trkpt lat="38.66957" lon="36.26824">
        <ele>1461.680973</ele>
        <time>2021-11-16T04:35:08.076Z</time>
      </trkpt>
      <trkpt lat="38.67015" lon="36.26677">
        <ele>1456.539306</ele>
        <time>2021-11-16T04:35:27.908Z</time>
      </trkpt>
      <trkpt lat="38.67037" lon="36.26617">
        <ele>1454.410102</ele>
        <time>2021-11-16T04:35:35.863Z</time>
      </trkpt>
      <trkpt lat="38.67081" lon="36.26495">
        <ele>1451.000803</ele>
        <time>2021-11-16T04:35:52.575Z</time>
      </trkpt>
      <trkpt lat="38.671" lon="36.26431">
        <ele>1449.642177</ele>
        <time>2021-11-16T04:36:01.763Z</time>
      </trkpt>
      <trkpt lat="38.67118" lon="36.26346">
        <ele>1447.903899</ele>
        <time>2021-11-16T04:36:14.102Z</time>
      </trkpt>
      <trkpt lat="38.67127" lon="36.26283">
        <ele>1447.519406</ele>
        <time>2021-11-16T04:36:23.362Z</time>
      </trkpt>
      <trkpt lat="38.67132" lon="36.2622">
        <ele>1447.145855</ele>
        <time>2021-11-16T04:36:32.834Z</time>
      </trkpt>
      <trkpt lat="38.67135" lon="36.26139">
        <ele>1446.660598</ele>
        <time>2021-11-16T04:36:46.285Z</time>
      </trkpt>
      <trkpt lat="38.67131" lon="36.26089">
        <ele>1446.570543</ele>
        <time>2021-11-16T04:36:55.398Z</time>
      </trkpt>
      <trkpt lat="38.67107" lon="36.25773">
        <ele>1446.843848</ele>
        <time>2021-11-16T04:37:52.720Z</time>
      </trkpt>
      <trkpt lat="38.67099" lon="36.25669">
        <ele>1446.808433</ele>
        <time>2021-11-16T04:38:10.035Z</time>
      </trkpt>
      <trkpt lat="38.67092" lon="36.25577">
        <ele>1446.864659</ele>
        <time>2021-11-16T04:38:25.386Z</time>
      </trkpt>
      <trkpt lat="38.67072" lon="36.253">
        <ele>1447.400901</ele>
        <time>2021-11-16T04:39:16.358Z</time>
      </trkpt>
      <trkpt lat="38.66965" lon="36.23906">
        <ele>1453.160034</ele>
        <time>2021-11-16T04:43:43.505Z</time>
      </trkpt>
      <trkpt lat="38.6695" lon="36.23673">
        <ele>1453.789509</ele>
        <time>2021-11-16T04:44:25.773Z</time>
      </trkpt>
      <trkpt lat="38.66928" lon="36.23411">
        <ele>1454.242563</ele>
        <time>2021-11-16T04:45:15.000Z</time>
      </trkpt>
      <trkpt lat="38.66899" lon="36.23082">
        <ele>1452.646861</ele>
        <time>2021-11-16T04:46:07.520Z</time>
      </trkpt>
      <trkpt lat="38.6688" lon="36.22967">
        <ele>1451.267732</ele>
        <time>2021-11-16T04:46:24.257Z</time>
      </trkpt>
      <trkpt lat="38.66822" lon="36.2268">
        <ele>1446.825514</ele>
        <time>2021-11-16T04:47:04.378Z</time>
      </trkpt>
      <trkpt lat="38.66813" lon="36.22635">
        <ele>1446.433827</ele>
        <time>2021-11-16T04:47:11.041Z</time>
      </trkpt>
      <trkpt lat="38.66732" lon="36.22236">
        <ele>1443.640871</ele>
        <time>2021-11-16T04:48:14.937Z</time>
      </trkpt>
      <trkpt lat="38.66654" lon="36.2185">
        <ele>1441.749436</ele>
        <time>2021-11-16T04:49:18.392Z</time>
      </trkpt>
      <trkpt lat="38.66286" lon="36.20096">
        <ele>1431.870814</ele>
        <time>2021-11-16T04:54:01.490Z</time>
      </trkpt>
      <trkpt lat="38.66178" lon="36.19578">
        <ele>1430.519125</ele>
        <time>2021-11-16T04:55:29.986Z</time>
      </trkpt>
      <trkpt lat="38.66153" lon="36.19433">
        <ele>1430.799382</ele>
        <time>2021-11-16T04:55:56.630Z</time>
      </trkpt>
      <trkpt lat="38.66092" lon="36.19163">
        <ele>1431.503459</ele>
        <time>2021-11-16T04:56:50.079Z</time>
      </trkpt>
      <trkpt lat="38.65854" lon="36.18012">
        <ele>1428.475901</ele>
        <time>2021-11-16T05:00:05.512Z</time>
      </trkpt>
      <trkpt lat="38.65843" lon="36.1796">
        <ele>1428.187428</ele>
        <time>2021-11-16T05:00:13.578Z</time>
      </trkpt>
      <trkpt lat="38.65775" lon="36.17627">
        <ele>1426.677554</ele>
        <time>2021-11-16T05:01:07.234Z</time>
      </trkpt>
      <trkpt lat="38.65677" lon="36.17158">
        <ele>1427.708529</ele>
        <time>2021-11-16T05:02:35.792Z</time>
      </trkpt>
      <trkpt lat="38.65644" lon="36.16984">
        <ele>1429.623622</ele>
        <time>2021-11-16T05:03:15.345Z</time>
      </trkpt>
      <trkpt lat="38.65641" lon="36.16954">
        <ele>1429.994505</ele>
        <time>2021-11-16T05:03:22.318Z</time>
      </trkpt>
      <trkpt lat="38.65636" lon="36.1692">
        <ele>1430.424689</ele>
        <time>2021-11-16T05:03:30.394Z</time>
      </trkpt>
      <trkpt lat="38.65632" lon="36.168">
        <ele>1431.951752</ele>
        <time>2021-11-16T05:03:58.088Z</time>
      </trkpt>
      <trkpt lat="38.65634" lon="36.16705">
        <ele>1433.157647</ele>
        <time>2021-11-16T05:04:19.161Z</time>
      </trkpt>
      <trkpt lat="38.6566" lon="36.16545">
        <ele>1435.484425</ele>
        <time>2021-11-16T05:04:54.915Z</time>
      </trkpt>
      <trkpt lat="38.65683" lon="36.16452">
        <ele>1436.9168</ele>
        <time>2021-11-16T05:05:18.252Z</time>
      </trkpt>
      <trkpt lat="38.65713" lon="36.16373">
        <ele>1439.319672</ele>
        <time>2021-11-16T05:05:41.223Z</time>
      </trkpt>
      <trkpt lat="38.65787" lon="36.16233">
        <ele>1444.352321</ele>
        <time>2021-11-16T05:06:32.411Z</time>
      </trkpt>
      <trkpt lat="38.6582" lon="36.16177">
        <ele>1447.167224</ele>
        <time>2021-11-16T05:06:55.423Z</time>
      </trkpt>
      <trkpt lat="38.66065" lon="36.15799">
        <ele>1467.563792</ele>
        <time>2021-11-16T05:09:41.474Z</time>
      </trkpt>
      <trkpt lat="38.66089" lon="36.1576">
        <ele>1469.888407</ele>
        <time>2021-11-16T05:10:00.136Z</time>
      </trkpt>
      <trkpt lat="38.66204" lon="36.15566">
        <ele>1482.287239</ele>
        <time>2021-11-16T05:11:35.441Z</time>
      </trkpt>
      <trkpt lat="38.66241" lon="36.15501">
        <ele>1486.036765</ele>
        <time>2021-11-16T05:12:04.887Z</time>
      </trkpt>
      <trkpt lat="38.6629" lon="36.15387">
        <ele>1491.220463</ele>
        <time>2021-11-16T05:12:49.066Z</time>
      </trkpt>
      <trkpt lat="38.66339" lon="36.15218">
        <ele>1496.571783</ele>
        <time>2021-11-16T05:13:42.442Z</time>
      </trkpt>
      <trkpt lat="38.66343" lon="36.15194">
        <ele>1497.142649</ele>
        <time>2021-11-16T05:13:48.966Z</time>
      </trkpt>
      <trkpt lat="38.66358" lon="36.15096">
        <ele>1499.384511</ele>
        <time>2021-11-16T05:14:13.048Z</time>
      </trkpt>
      <trkpt lat="38.66362" lon="36.14987">
        <ele>1499.801648</ele>
        <time>2021-11-16T05:14:35.658Z</time>
      </trkpt>
      <trkpt lat="38.66362" lon="36.14905">
        <ele>1500.114285</ele>
        <time>2021-11-16T05:14:49.762Z</time>
      </trkpt>
      <trkpt lat="38.66347" lon="36.14562">
        <ele>1498.554869</ele>
        <time>2021-11-16T05:15:43.135Z</time>
      </trkpt>
      <trkpt lat="38.66343" lon="36.1446">
        <ele>1498.031257</ele>
        <time>2021-11-16T05:15:58.997Z</time>
      </trkpt>
      <trkpt lat="38.66333" lon="36.14221">
        <ele>1496.734231</ele>
        <time>2021-11-16T05:16:37.190Z</time>
      </trkpt>
      <trkpt lat="38.66294" lon="36.13183">
        <ele>1488.185989</ele>
        <time>2021-11-16T05:19:12.227Z</time>
      </trkpt>
      <trkpt lat="38.66264" lon="36.12346">
        <ele>1482.140434</ele>
        <time>2021-11-16T05:21:19.306Z</time>
      </trkpt>
      <trkpt lat="38.66259" lon="36.12162">
        <ele>1481.125915</ele>
        <time>2021-11-16T05:21:49.868Z</time>
      </trkpt>
      <trkpt lat="38.66259" lon="36.12156">
        <ele>1481.095325</ele>
        <time>2021-11-16T05:21:50.792Z</time>
      </trkpt>
      <trkpt lat="38.66243" lon="36.11793">
        <ele>1477.129709</ele>
        <time>2021-11-16T05:22:42.561Z</time>
      </trkpt>
      <trkpt lat="38.66234" lon="36.11589">
        <ele>1474.932112</ele>
        <time>2021-11-16T05:23:11.812Z</time>
      </trkpt>
      <trkpt lat="38.66233" lon="36.11554">
        <ele>1474.645573</ele>
        <time>2021-11-16T05:23:16.988Z</time>
      </trkpt>
      <trkpt lat="38.66231" lon="36.11488">
        <ele>1474.097409</ele>
        <time>2021-11-16T05:23:27.130Z</time>
      </trkpt>
      <trkpt lat="38.66228" lon="36.11407">
        <ele>1473.443119</ele>
        <time>2021-11-16T05:23:39.770Z</time>
      </trkpt>
      <trkpt lat="38.66202" lon="36.10725">
        <ele>1468.758226</ele>
        <time>2021-11-16T05:25:24.132Z</time>
      </trkpt>
      <trkpt lat="38.66201" lon="36.10697">
        <ele>1468.46989</ele>
        <time>2021-11-16T05:25:28.339Z</time>
      </trkpt>
      <trkpt lat="38.662" lon="36.10648">
        <ele>1467.963857</ele>
        <time>2021-11-16T05:25:35.736Z</time>
      </trkpt>
      <trkpt lat="38.66198" lon="36.10598">
        <ele>1467.459967</ele>
        <time>2021-11-16T05:25:42.936Z</time>
      </trkpt>
      <trkpt lat="38.66197" lon="36.10578">
        <ele>1467.255416</ele>
        <time>2021-11-16T05:25:45.849Z</time>
      </trkpt>
      <trkpt lat="38.66187" lon="36.10314">
        <ele>1464.364989</ele>
        <time>2021-11-16T05:26:23.151Z</time>
      </trkpt>
      <trkpt lat="38.66156" lon="36.09469">
        <ele>1459.54598</ele>
        <time>2021-11-16T05:28:36.411Z</time>
      </trkpt>
      <trkpt lat="38.66146" lon="36.09321">
        <ele>1458.259949</ele>
        <time>2021-11-16T05:28:58.562Z</time>
      </trkpt>
      <trkpt lat="38.6613" lon="36.09205">
        <ele>1456.565117</ele>
        <time>2021-11-16T05:29:15.141Z</time>
      </trkpt>
      <trkpt lat="38.66116" lon="36.09136">
        <ele>1455.54997</ele>
        <time>2021-11-16T05:29:24.730Z</time>
      </trkpt>
      <trkpt lat="38.65845" lon="36.07938">
        <ele>1430.986181</ele>
        <time>2021-11-16T05:32:09.294Z</time>
      </trkpt>
      <trkpt lat="38.65824" lon="36.0783">
        <ele>1429.241461</ele>
        <time>2021-11-16T05:32:24.943Z</time>
      </trkpt>
      <trkpt lat="38.65806" lon="36.077">
        <ele>1427.373797</ele>
        <time>2021-11-16T05:32:43.598Z</time>
      </trkpt>
      <trkpt lat="38.65799" lon="36.07585">
        <ele>1425.800664</ele>
        <time>2021-11-16T05:32:59.629Z</time>
      </trkpt>
      <trkpt lat="38.65804" lon="36.07494">
        <ele>1424.568827</ele>
        <time>2021-11-16T05:33:12.348Z</time>
      </trkpt>
      <trkpt lat="38.65822" lon="36.07393">
        <ele>1423.173837</ele>
        <time>2021-11-16T05:33:26.810Z</time>
      </trkpt>
      <trkpt lat="38.65832" lon="36.0735">
        <ele>1422.563205</ele>
        <time>2021-11-16T05:33:33.221Z</time>
      </trkpt>
      <trkpt lat="38.65838" lon="36.07324">
        <ele>1422.268428</ele>
        <time>2021-11-16T05:33:36.984Z</time>
      </trkpt>
      <trkpt lat="38.65897" lon="36.07078">
        <ele>1420.029955</ele>
        <time>2021-11-16T05:34:15.019Z</time>
      </trkpt>
      <trkpt lat="38.65913" lon="36.07014">
        <ele>1419.794461</ele>
        <time>2021-11-16T05:34:25.733Z</time>
      </trkpt>
      <trkpt lat="38.65943" lon="36.06892">
        <ele>1419.387497</ele>
        <time>2021-11-16T05:34:47.378Z</time>
      </trkpt>
      <trkpt lat="38.66068" lon="36.06384">
        <ele>1419.967496</ele>
        <time>2021-11-16T05:36:22.524Z</time>
      </trkpt>
      <trkpt lat="38.66106" lon="36.06226">
        <ele>1420.280896</ele>
        <time>2021-11-16T05:36:52.706Z</time>
      </trkpt>
      <trkpt lat="38.6611" lon="36.06211">
        <ele>1420.308022</ele>
        <time>2021-11-16T05:36:55.563Z</time>
      </trkpt>
      <trkpt lat="38.66125" lon="36.0611">
        <ele>1420.486355</ele>
        <time>2021-11-16T05:37:14.266Z</time>
      </trkpt>
      <trkpt lat="38.66129" lon="36.06043">
        <ele>1420.604038</ele>
        <time>2021-11-16T05:37:26.505Z</time>
      </trkpt>
      <trkpt lat="38.66129" lon="36.05985">
        <ele>1420.637137</ele>
        <time>2021-11-16T05:37:36.503Z</time>
      </trkpt>
      <trkpt lat="38.66157" lon="36.05932">
        <ele>1420.608365</ele>
        <time>2021-11-16T05:37:47.354Z</time>
      </trkpt>
      <trkpt lat="38.66188" lon="36.05876">
        <ele>1420.577652</ele>
        <time>2021-11-16T05:37:59.034Z</time>
      </trkpt>
      <trkpt lat="38.66199" lon="36.0585">
        <ele>1420.564277</ele>
        <time>2021-11-16T05:38:04.075Z</time>
      </trkpt>
      <trkpt lat="38.66217" lon="36.05758">
        <ele>1420.65291</ele>
        <time>2021-11-16T05:38:20.352Z</time>
      </trkpt>
      <trkpt lat="38.66292" lon="36.05443">
        <ele>1421.656504</ele>
        <time>2021-11-16T05:39:21.013Z</time>
      </trkpt>
      <trkpt lat="38.6637" lon="36.05143">
        <ele>1423.758916</ele>
        <time>2021-11-16T05:40:25.498Z</time>
      </trkpt>
      <trkpt lat="38.66421" lon="36.04962">
        <ele>1424.85335</ele>
        <time>2021-11-16T05:41:04.158Z</time>
      </trkpt>
      <trkpt lat="38.66729" lon="36.04112">
        <ele>1425.464548</ele>
        <time>2021-11-16T05:43:48.401Z</time>
      </trkpt>
      <trkpt lat="38.66781" lon="36.03974">
        <ele>1425.372872</ele>
        <time>2021-11-16T05:44:15.057Z</time>
      </trkpt>
      <trkpt lat="38.66795" lon="36.03931">
        <ele>1425.342172</ele>
        <time>2021-11-16T05:44:23.020Z</time>
      </trkpt>
      <trkpt lat="38.66803" lon="36.03904">
        <ele>1425.322961</ele>
        <time>2021-11-16T05:44:27.850Z</time>
      </trkpt>
      <trkpt lat="38.66816" lon="36.03859">
        <ele>1425.220911</ele>
        <time>2021-11-16T05:44:35.905Z</time>
      </trkpt>
      <trkpt lat="38.66821" lon="36.03792">
        <ele>1425.042478</ele>
        <time>2021-11-16T05:44:46.882Z</time>
      </trkpt>
      <trkpt lat="38.66815" lon="36.03644">
        <ele>1424.710315</ele>
        <time>2021-11-16T05:45:10.779Z</time>
      </trkpt>
      <trkpt lat="38.66808" lon="36.03601">
        <ele>1424.725967</ele>
        <time>2021-11-16T05:45:18.249Z</time>
      </trkpt>
      <trkpt lat="38.66796" lon="36.03537">
        <ele>1424.749129</ele>
        <time>2021-11-16T05:45:29.404Z</time>
      </trkpt>
      <trkpt lat="38.66791" lon="36.03513">
        <ele>1424.758044</ele>
        <time>2021-11-16T05:45:33.726Z</time>
      </trkpt>
      <trkpt lat="38.66784" lon="36.0348">
        <ele>1424.770117</ele>
        <time>2021-11-16T05:45:39.662Z</time>
      </trkpt>
      <trkpt lat="38.66736" lon="36.03226">
        <ele>1426.041902</ele>
        <time>2021-11-16T05:46:30.847Z</time>
      </trkpt>
      <trkpt lat="38.66731" lon="36.03194">
        <ele>1426.292187</ele>
        <time>2021-11-16T05:46:37.737Z</time>
      </trkpt>
      <trkpt lat="38.6673" lon="36.03134">
        <ele>1426.801232</ele>
        <time>2021-11-16T05:46:50.580Z</time>
      </trkpt>
      <trkpt lat="38.66747" lon="36.03045">
        <ele>1427.577784</ele>
        <time>2021-11-16T05:47:10.065Z</time>
      </trkpt>
      <trkpt lat="38.66783" lon="36.02933">
        <ele>1428.169604</ele>
        <time>2021-11-16T05:47:34.741Z</time>
      </trkpt>
      <trkpt lat="38.66841" lon="36.02803">
        <ele>1428.420013</ele>
        <time>2021-11-16T05:48:00.523Z</time>
      </trkpt>
      <trkpt lat="38.66873" lon="36.02736">
        <ele>1428.161468</ele>
        <time>2021-11-16T05:48:13.315Z</time>
      </trkpt>
      <trkpt lat="38.66915" lon="36.02632">
        <ele>1427.633189</ele>
        <time>2021-11-16T05:48:31.473Z</time>
      </trkpt>
      <trkpt lat="38.66938" lon="36.02567">
        <ele>1427.425885</ele>
        <time>2021-11-16T05:48:42.510Z</time>
      </trkpt>
      <trkpt lat="38.66949" lon="36.02536">
        <ele>1427.45506</ele>
        <time>2021-11-16T05:48:47.987Z</time>
      </trkpt>
      <trkpt lat="38.66987" lon="36.02356">
        <ele>1427.737206</ele>
        <time>2021-11-16T05:49:21.620Z</time>
      </trkpt>
      <trkpt lat="38.67013" lon="36.02288">
        <ele>1428.677579</ele>
        <time>2021-11-16T05:49:38.128Z</time>
      </trkpt>
      <trkpt lat="38.67112" lon="36.02147">
        <ele>1430.971451</ele>
        <time>2021-11-16T05:50:22.852Z</time>
      </trkpt>
      <trkpt lat="38.67149" lon="36.02074">
        <ele>1431.951752</ele>
        <time>2021-11-16T05:50:42.640Z</time>
      </trkpt>
      <trkpt lat="38.67172" lon="36.02038">
        <ele>1432.48703</ele>
        <time>2021-11-16T05:50:52.787Z</time>
      </trkpt>
      <trkpt lat="38.672" lon="36.02007">
        <ele>1433.022263</ele>
        <time>2021-11-16T05:51:02.465Z</time>
      </trkpt>
      <trkpt lat="38.67339" lon="36.01897">
        <ele>1433.542709</ele>
        <time>2021-11-16T05:51:40.631Z</time>
      </trkpt>
      <trkpt lat="38.6739" lon="36.01848">
        <ele>1433.513154</ele>
        <time>2021-11-16T05:51:54.460Z</time>
      </trkpt>
      <trkpt lat="38.67447" lon="36.01781">
        <ele>1433.363532</ele>
        <time>2021-11-16T05:52:11.073Z</time>
      </trkpt>
      <trkpt lat="38.67604" lon="36.01633">
        <ele>1433.181731</ele>
        <time>2021-11-16T05:52:52.534Z</time>
      </trkpt>
      <trkpt lat="38.67752" lon="36.01423">
        <ele>1434.415092</ele>
        <time>2021-11-16T05:53:45.923Z</time>
      </trkpt>
      <trkpt lat="38.67762" lon="36.0141">
        <ele>1434.710432</ele>
        <time>2021-11-16T05:53:50.358Z</time>
      </trkpt>
      <trkpt lat="38.67803" lon="36.01354">
        <ele>1436.092217</ele>
        <time>2021-11-16T05:54:09.314Z</time>
      </trkpt>
      <trkpt lat="38.67837" lon="36.01324">
        <ele>1437.048408</ele>
        <time>2021-11-16T05:54:22.941Z</time>
      </trkpt>
      <trkpt lat="38.6781" lon="36.01281">
        <ele>1438.039358</ele>
        <time>2021-11-16T05:54:37.419Z</time>
      </trkpt>
      <trkpt lat="38.67778" lon="36.0125">
        <ele>1438.816171</ele>
        <time>2021-11-16T05:54:50.949Z</time>
      </trkpt>
      <trkpt lat="38.6771" lon="36.0121">
        <ele>1439.880283</ele>
        <time>2021-11-16T05:55:13.381Z</time>
      </trkpt>
      <trkpt lat="38.67687" lon="36.0118">
        <ele>1440.35169</ele>
        <time>2021-11-16T05:55:22.204Z</time>
      </trkpt>
      <trkpt lat="38.67674" lon="36.01142">
        <ele>1440.812033</ele>
        <time>2021-11-16T05:55:29.928Z</time>
      </trkpt>
      <trkpt lat="38.67665" lon="36.01074">
        <ele>1441.180995</ele>
        <time>2021-11-16T05:55:42.376Z</time>
      </trkpt>
      <trkpt lat="38.67651" lon="36.00964">
        <ele>1441.306181</ele>
        <time>2021-11-16T05:56:01.818Z</time>
      </trkpt>
      <trkpt lat="38.67605" lon="36.00623">
        <ele>1441.651393</ele>
        <time>2021-11-16T05:57:03.639Z</time>
      </trkpt>
      <trkpt lat="38.67592" lon="36.00278">
        <ele>1441.733839</ele>
        <time>2021-11-16T05:58:03.598Z</time>
      </trkpt>
      <trkpt lat="38.67593" lon="35.99801">
        <ele>1441.939499</ele>
        <time>2021-11-16T05:59:27.533Z</time>
      </trkpt>
      <trkpt lat="38.67588" lon="35.99629">
        <ele>1441.942974</ele>
        <time>2021-11-16T05:59:56.984Z</time>
      </trkpt>
      <trkpt lat="38.67559" lon="35.99129">
        <ele>1442.040931</ele>
        <time>2021-11-16T06:01:23.916Z</time>
      </trkpt>
      <trkpt lat="38.67547" lon="35.98823">
        <ele>1442.698633</ele>
        <time>2021-11-16T06:02:20.331Z</time>
      </trkpt>
      <trkpt lat="38.67565" lon="35.98393">
        <ele>1443.641355</ele>
        <time>2021-11-16T06:03:39.753Z</time>
      </trkpt>
      <trkpt lat="38.67552" lon="35.98005">
        <ele>1443.896973</ele>
        <time>2021-11-16T06:04:45.094Z</time>
      </trkpt>
      <trkpt lat="38.67548" lon="35.97588">
        <ele>1447.212275</ele>
        <time>2021-11-16T06:06:12.575Z</time>
      </trkpt>
      <trkpt lat="38.6754" lon="35.97439">
        <ele>1448.780428</ele>
        <time>2021-11-16T06:06:45.786Z</time>
      </trkpt>
      <trkpt lat="38.67531" lon="35.97389">
        <ele>1449.22489</ele>
        <time>2021-11-16T06:06:56.935Z</time>
      </trkpt>
      <trkpt lat="38.67496" lon="35.97235">
        <ele>1450.625312</ele>
        <time>2021-11-16T06:07:29.916Z</time>
      </trkpt>
      <trkpt lat="38.67492" lon="35.97218">
        <ele>1450.777539</ele>
        <time>2021-11-16T06:07:33.568Z</time>
      </trkpt>
      <trkpt lat="38.67484" lon="35.97184">
        <ele>1450.932911</ele>
        <time>2021-11-16T06:07:40.605Z</time>
      </trkpt>
      <trkpt lat="38.67473" lon="35.97115">
        <ele>1451.222491</ele>
        <time>2021-11-16T06:07:54.308Z</time>
      </trkpt>
      <trkpt lat="38.67449" lon="35.97066">
        <ele>1451.458446</ele>
        <time>2021-11-16T06:08:04.975Z</time>
      </trkpt>
      <trkpt lat="38.67442" lon="35.9704">
        <ele>1451.570155</ele>
        <time>2021-11-16T06:08:10.036Z</time>
      </trkpt>
      <trkpt lat="38.67394" lon="35.96952">
        <ele>1451.971009</ele>
        <time>2021-11-16T06:08:30.206Z</time>
      </trkpt>
      <trkpt lat="38.67372" lon="35.96907">
        <ele>1452.160959</ele>
        <time>2021-11-16T06:08:40.748Z</time>
      </trkpt>
      <trkpt lat="38.67348" lon="35.96875">
        <ele>1452.319377</ele>
        <time>2021-11-16T06:08:49.706Z</time>
      </trkpt>
      <trkpt lat="38.67327" lon="35.96833">
        <ele>1452.496207</ele>
        <time>2021-11-16T06:08:59.556Z</time>
      </trkpt>
      <trkpt lat="38.67313" lon="35.96793">
        <ele>1452.572087</ele>
        <time>2021-11-16T06:09:08.117Z</time>
      </trkpt>
      <trkpt lat="38.67292" lon="35.96769">
        <ele>1452.594438</ele>
        <time>2021-11-16T06:09:14.969Z</time>
      </trkpt>
      <trkpt lat="38.67291" lon="35.96739">
        <ele>1452.613433</ele>
        <time>2021-11-16T06:09:20.733Z</time>
      </trkpt>
      <trkpt lat="38.6729" lon="35.96729">
        <ele>1452.619531</ele>
        <time>2021-11-16T06:09:22.553Z</time>
      </trkpt>
      <trkpt lat="38.67289" lon="35.96711">
        <ele>1452.631415</ele>
        <time>2021-11-16T06:09:26.052Z</time>
      </trkpt>
      <trkpt lat="38.67288" lon="35.96678">
        <ele>1452.651914</ele>
        <time>2021-11-16T06:09:32.151Z</time>
      </trkpt>
      <trkpt lat="38.67287" lon="35.96655">
        <ele>1452.666121</ele>
        <time>2021-11-16T06:09:36.238Z</time>
      </trkpt>
      <trkpt lat="38.67285" lon="35.96595">
        <ele>1452.635356</ele>
        <time>2021-11-16T06:09:46.702Z</time>
      </trkpt>
      <trkpt lat="38.67276" lon="35.96572">
        <ele>1452.406543</ele>
        <time>2021-11-16T06:09:50.862Z</time>
      </trkpt>
      <trkpt lat="38.67274" lon="35.96522">
        <ele>1451.954211</ele>
        <time>2021-11-16T06:09:58.912Z</time>
      </trkpt>
      <trkpt lat="38.67288" lon="35.96485">
        <ele>1451.58663</ele>
        <time>2021-11-16T06:10:05.132Z</time>
      </trkpt>
      <trkpt lat="38.67302" lon="35.96449">
        <ele>1451.218474</ele>
        <time>2021-11-16T06:10:11.212Z</time>
      </trkpt>
      <trkpt lat="38.67292" lon="35.96416">
        <ele>1450.893659</ele>
        <time>2021-11-16T06:10:16.530Z</time>
      </trkpt>
      <trkpt lat="38.67295" lon="35.96298">
        <ele>1449.582438</ele>
        <time>2021-11-16T06:10:33.915Z</time>
      </trkpt>
      <trkpt lat="38.67301" lon="35.96265">
        <ele>1449.180164</ele>
        <time>2021-11-16T06:10:38.907Z</time>
      </trkpt>
      <trkpt lat="38.67256" lon="35.96163">
        <ele>1447.853301</ele>
        <time>2021-11-16T06:10:55.624Z</time>
      </trkpt>
      <trkpt lat="38.67181" lon="35.96077">
        <ele>1447.286718</ele>
        <time>2021-11-16T06:11:15.407Z</time>
      </trkpt>
      <trkpt lat="38.67161" lon="35.96057">
        <ele>1447.144524</ele>
        <time>2021-11-16T06:11:20.784Z</time>
      </trkpt>
      <trkpt lat="38.6711" lon="35.96006">
        <ele>1446.903347</ele>
        <time>2021-11-16T06:11:35.260Z</time>
      </trkpt>
      <trkpt lat="38.67056" lon="35.95947">
        <ele>1447.049679</ele>
        <time>2021-11-16T06:11:52.145Z</time>
      </trkpt>
      <trkpt lat="38.67045" lon="35.95934">
        <ele>1447.081252</ele>
        <time>2021-11-16T06:11:55.893Z</time>
      </trkpt>
      <trkpt lat="38.67011" lon="35.95872">
        <ele>1447.203545</ele>
        <time>2021-11-16T06:12:09.771Z</time>
      </trkpt>
      <trkpt lat="38.66995" lon="35.95844">
        <ele>1447.215507</ele>
        <time>2021-11-16T06:12:15.971Z</time>
      </trkpt>
      <trkpt lat="38.66967" lon="35.95786">
        <ele>1447.063064</ele>
        <time>2021-11-16T06:12:27.429Z</time>
      </trkpt>
      <trkpt lat="38.66957" lon="35.95774">
        <ele>1447.025767</ele>
        <time>2021-11-16T06:12:30.318Z</time>
      </trkpt>
      <trkpt lat="38.66946" lon="35.95766">
        <ele>1446.988384</ele>
        <time>2021-11-16T06:12:32.900Z</time>
      </trkpt>
      <trkpt lat="38.66846" lon="35.95763">
        <ele>1446.700184</ele>
        <time>2021-11-16T06:12:53.607Z</time>
      </trkpt>
      <trkpt lat="38.66779" lon="35.95742">
        <ele>1446.463081</ele>
        <time>2021-11-16T06:13:07.867Z</time>
      </trkpt>
      <trkpt lat="38.66555" lon="35.95598">
        <ele>1445.54087</ele>
        <time>2021-11-16T06:14:01.068Z</time>
      </trkpt>
      <trkpt lat="38.66403" lon="35.95533">
        <ele>1444.568234</ele>
        <time>2021-11-16T06:14:32.908Z</time>
      </trkpt>
      <trkpt lat="38.6611" lon="35.95339">
        <ele>1443.095803</ele>
        <time>2021-11-16T06:15:40.232Z</time>
      </trkpt>
      <trkpt lat="38.66049" lon="35.95296">
        <ele>1442.99445</ele>
        <time>2021-11-16T06:15:56.510Z</time>
      </trkpt>
      <trkpt lat="38.66036" lon="35.95287">
        <ele>1442.985162</ele>
        <time>2021-11-16T06:16:00.200Z</time>
      </trkpt>
      <trkpt lat="38.65966" lon="35.95226">
        <ele>1443.154601</ele>
        <time>2021-11-16T06:16:20.426Z</time>
      </trkpt>
      <trkpt lat="38.65855" lon="35.95105">
        <ele>1443.071988</ele>
        <time>2021-11-16T06:16:53.249Z</time>
      </trkpt>
      <trkpt lat="38.65808" lon="35.95046">
        <ele>1442.744804</ele>
        <time>2021-11-16T06:17:06.603Z</time>
      </trkpt>
      <trkpt lat="38.65703" lon="35.94882">
        <ele>1441.574394</ele>
        <time>2021-11-16T06:17:38.698Z</time>
      </trkpt>
      <trkpt lat="38.65664" lon="35.94834">
        <ele>1441.124121</ele>
        <time>2021-11-16T06:17:49.291Z</time>
      </trkpt>
      <trkpt lat="38.65326" lon="35.94474">
        <ele>1439.250197</ele>
        <time>2021-11-16T06:19:19.773Z</time>
      </trkpt>
      <trkpt lat="38.65197" lon="35.9433">
        <ele>1439.748415</ele>
        <time>2021-11-16T06:20:01.553Z</time>
      </trkpt>
      <trkpt lat="38.65126" lon="35.94252">
        <ele>1440.202481</ele>
        <time>2021-11-16T06:20:24.564Z</time>
      </trkpt>
      <trkpt lat="38.65045" lon="35.94163">
        <ele>1440.472999</ele>
        <time>2021-11-16T06:20:49.614Z</time>
      </trkpt>
      <trkpt lat="38.64968" lon="35.94076">
        <ele>1440.611806</ele>
        <time>2021-11-16T06:21:12.140Z</time>
      </trkpt>
      <trkpt lat="38.64877" lon="35.93958">
        <ele>1440.782636</ele>
        <time>2021-11-16T06:21:41.664Z</time>
      </trkpt>
      <trkpt lat="38.64837" lon="35.93924">
        <ele>1440.846254</ele>
        <time>2021-11-16T06:21:52.784Z</time>
      </trkpt>
      <trkpt lat="38.64832" lon="35.9392">
        <ele>1440.853809</ele>
        <time>2021-11-16T06:21:54.183Z</time>
      </trkpt>
      <trkpt lat="38.6481" lon="35.93905">
        <ele>1440.934666</ele>
        <time>2021-11-16T06:21:59.990Z</time>
      </trkpt>
      <trkpt lat="38.64781" lon="35.93887">
        <ele>1441.043609</ele>
        <time>2021-11-16T06:22:07.467Z</time>
      </trkpt>
      <trkpt lat="38.64754" lon="35.9386">
        <ele>1441.162232</ele>
        <time>2021-11-16T06:22:15.641Z</time>
      </trkpt>
      <trkpt lat="38.64728" lon="35.93834">
        <ele>1441.274351</ele>
        <time>2021-11-16T06:22:23.414Z</time>
      </trkpt>
      <trkpt lat="38.64531" lon="35.93565">
        <ele>1442.202142</ele>
        <time>2021-11-16T06:23:31.391Z</time>
      </trkpt>
      <trkpt lat="38.64514" lon="35.9354">
        <ele>1442.284248</ele>
        <time>2021-11-16T06:23:37.465Z</time>
      </trkpt>
      <trkpt lat="38.64511" lon="35.93535">
        <ele>1442.29772</ele>
        <time>2021-11-16T06:23:38.487Z</time>
      </trkpt>
      <trkpt lat="38.64496" lon="35.93511">
        <ele>1442.374314</ele>
        <time>2021-11-16T06:23:44.240Z</time>
      </trkpt>
      <trkpt lat="38.64476" lon="35.93484">
        <ele>1442.464498</ele>
        <time>2021-11-16T06:23:50.938Z</time>
      </trkpt>
      <trkpt lat="38.64472" lon="35.93478">
        <ele>1442.483209</ele>
        <time>2021-11-16T06:23:52.399Z</time>
      </trkpt>
      <trkpt lat="38.64463" lon="35.93443">
        <ele>1442.573249</ele>
        <time>2021-11-16T06:23:59.099Z</time>
      </trkpt>
      <trkpt lat="38.6445" lon="35.93398">
        <ele>1442.638907</ele>
        <time>2021-11-16T06:24:07.761Z</time>
      </trkpt>
      <trkpt lat="38.64447" lon="35.93372">
        <ele>1442.664069</ele>
        <time>2021-11-16T06:24:12.613Z</time>
      </trkpt>
      <trkpt lat="38.64444" lon="35.93362">
        <ele>1442.674611</ele>
        <time>2021-11-16T06:24:14.581Z</time>
      </trkpt>
      <trkpt lat="38.64438" lon="35.93354">
        <ele>1442.685074</ele>
        <time>2021-11-16T06:24:16.616Z</time>
      </trkpt>
      <trkpt lat="38.6443" lon="35.93349">
        <ele>1442.695746</ele>
        <time>2021-11-16T06:24:18.692Z</time>
      </trkpt>
      <trkpt lat="38.64405" lon="35.9335">
        <ele>1442.726386</ele>
        <time>2021-11-16T06:24:24.389Z</time>
      </trkpt>
      <trkpt lat="38.6438" lon="35.93359">
        <ele>1442.75705</ele>
        <time>2021-11-16T06:24:30.111Z</time>
      </trkpt>
      <trkpt lat="38.64383" lon="35.93293">
        <ele>1442.819788</ele>
        <time>2021-11-16T06:24:41.926Z</time>
      </trkpt>
      <trkpt lat="38.64383" lon="35.93252">
        <ele>1442.829029</ele>
        <time>2021-11-16T06:24:49.227Z</time>
      </trkpt>
      <trkpt lat="38.64387" lon="35.93222">
        <ele>1442.832201</ele>
        <time>2021-11-16T06:24:54.951Z</time>
      </trkpt>
      <trkpt lat="38.64355" lon="35.93101">
        <ele>1442.845242</ele>
        <time>2021-11-16T06:25:18.417Z</time>
      </trkpt>
      <trkpt lat="38.64348" lon="35.93085">
        <ele>1442.847105</ele>
        <time>2021-11-16T06:25:21.552Z</time>
      </trkpt>
      <trkpt lat="38.64341" lon="35.9307">
        <ele>1442.84888</ele>
        <time>2021-11-16T06:25:24.842Z</time>
      </trkpt>
      <trkpt lat="38.64327" lon="35.93061">
        <ele>1442.825826</ele>
        <time>2021-11-16T06:25:28.380Z</time>
      </trkpt>
      <trkpt lat="38.64295" lon="35.93063">
        <ele>1442.77597</ele>
        <time>2021-11-16T06:25:35.814Z</time>
      </trkpt>
      <trkpt lat="38.64247" lon="35.9243">
        <ele>1442.132171</ele>
        <time>2021-11-16T06:27:23.213Z</time>
      </trkpt>
      <trkpt lat="38.64196" lon="35.91898">
        <ele>1443.316049</ele>
        <time>2021-11-16T06:29:02.741Z</time>
      </trkpt>
      <trkpt lat="38.64154" lon="35.91366">
        <ele>1443.096172</ele>
        <time>2021-11-16T06:30:33.100Z</time>
      </trkpt>
      <trkpt lat="38.64097" lon="35.90647">
        <ele>1443.606222</ele>
        <time>2021-11-16T06:32:40.537Z</time>
      </trkpt>
      <trkpt lat="38.64088" lon="35.90541">
        <ele>1443.957441</ele>
        <time>2021-11-16T06:33:00.291Z</time>
      </trkpt>
      <trkpt lat="38.64077" lon="35.90326">
        <ele>1445.007693</ele>
        <time>2021-11-16T06:33:42.562Z</time>
      </trkpt>
      <trkpt lat="38.64056" lon="35.90144">
        <ele>1446.045798</ele>
        <time>2021-11-16T06:34:19.203Z</time>
      </trkpt>
      <trkpt lat="38.64029" lon="35.89808">
        <ele>1447.590029</ele>
        <time>2021-11-16T06:35:23.229Z</time>
      </trkpt>
      <trkpt lat="38.64024" lon="35.89746">
        <ele>1447.900068</ele>
        <time>2021-11-16T06:35:35.459Z</time>
      </trkpt>
      <trkpt lat="38.64012" lon="35.89594">
        <ele>1448.638603</ele>
        <time>2021-11-16T06:36:05.749Z</time>
      </trkpt>
      <trkpt lat="38.63958" lon="35.88919">
        <ele>1451.906861</ele>
        <time>2021-11-16T06:38:15.162Z</time>
      </trkpt>
      <trkpt lat="38.63933" lon="35.88598">
        <ele>1454.256636</ele>
        <time>2021-11-16T06:39:21.862Z</time>
      </trkpt>
      <trkpt lat="38.63917" lon="35.88404">
        <ele>1455.542425</ele>
        <time>2021-11-16T06:40:01.354Z</time>
      </trkpt>
      <trkpt lat="38.63897" lon="35.88155">
        <ele>1456.836357</ele>
        <time>2021-11-16T06:40:49.265Z</time>
      </trkpt>
      <trkpt lat="38.63874" lon="35.87864">
        <ele>1458.221556</ele>
        <time>2021-11-16T06:41:45.814Z</time>
      </trkpt>
      <trkpt lat="38.63865" lon="35.87751">
        <ele>1458.518157</ele>
        <time>2021-11-16T06:42:07.113Z</time>
      </trkpt>
      <trkpt lat="38.63861" lon="35.877">
        <ele>1458.64185</ele>
        <time>2021-11-16T06:42:16.364Z</time>
      </trkpt>
      <trkpt lat="38.63845" lon="35.87496">
        <ele>1459.23931</ele>
        <time>2021-11-16T06:42:52.602Z</time>
      </trkpt>
      <trkpt lat="38.6387" lon="35.87473">
        <ele>1459.36603</ele>
        <time>2021-11-16T06:43:00.162Z</time>
      </trkpt>
      <trkpt lat="38.63887" lon="35.87452">
        <ele>1459.463214</ele>
        <time>2021-11-16T06:43:06.012Z</time>
      </trkpt>
      <trkpt lat="38.63892" lon="35.87445">
        <ele>1459.492639</ele>
        <time>2021-11-16T06:43:08.039Z</time>
      </trkpt>
      <trkpt lat="38.6392" lon="35.87423">
        <ele>1459.977754</ele>
        <time>2021-11-16T06:43:16.594Z</time>
      </trkpt>
      <trkpt lat="38.63995" lon="35.87405">
        <ele>1461.791247</ele>
        <time>2021-11-16T06:43:38.108Z</time>
      </trkpt>
      <trkpt lat="38.64036" lon="35.87384">
        <ele>1462.826152</ele>
        <time>2021-11-16T06:43:53.444Z</time>
      </trkpt>
      <trkpt lat="38.64141" lon="35.87301">
        <ele>1467.300812</ele>
        <time>2021-11-16T06:44:40.192Z</time>
      </trkpt>
      <trkpt lat="38.64146" lon="35.8729">
        <ele>1467.726026</ele>
        <time>2021-11-16T06:44:44.403Z</time>
      </trkpt>
      <trkpt lat="38.64148" lon="35.87278">
        <ele>1468.148305</ele>
        <time>2021-11-16T06:44:48.966Z</time>
      </trkpt>
      <trkpt lat="38.64109" lon="35.87048">
        <ele>1475.243916</ele>
        <time>2021-11-16T06:46:01.966Z</time>
      </trkpt>
      <trkpt lat="38.64111" lon="35.8702">
        <ele>1476.019454</ele>
        <time>2021-11-16T06:46:09.483Z</time>
      </trkpt>
      <trkpt lat="38.64116" lon="35.87008">
        <ele>1476.410338</ele>
        <time>2021-11-16T06:46:13.177Z</time>
      </trkpt>
      <trkpt lat="38.64132" lon="35.86993">
        <ele>1477.105794</ele>
        <time>2021-11-16T06:46:19.774Z</time>
      </trkpt>
      <trkpt lat="38.64145" lon="35.8698">
        <ele>1477.668116</ele>
        <time>2021-11-16T06:46:24.914Z</time>
      </trkpt>
      <trkpt lat="38.64376" lon="35.86811">
        <ele>1482.352514</ele>
        <time>2021-11-16T06:47:41.744Z</time>
      </trkpt>
      <trkpt lat="38.64599" lon="35.86661">
        <ele>1486.520541</ele>
        <time>2021-11-16T06:48:53.413Z</time>
      </trkpt>
      <trkpt lat="38.64614" lon="35.86644">
        <ele>1486.856859</ele>
        <time>2021-11-16T06:48:59.425Z</time>
      </trkpt>
      <trkpt lat="38.64628" lon="35.86614">
        <ele>1487.495103</ele>
        <time>2021-11-16T06:49:07.888Z</time>
      </trkpt>
      <trkpt lat="38.64666" lon="35.86526">
        <ele>1489.550678</ele>
        <time>2021-11-16T06:49:33.146Z</time>
      </trkpt>
      <trkpt lat="38.6495" lon="35.85905">
        <ele>1505.507562</ele>
        <time>2021-11-16T06:52:46.283Z</time>
      </trkpt>
      <trkpt lat="38.65153" lon="35.85304">
        <ele>1512.328836</ele>
        <time>2021-11-16T06:55:03.497Z</time>
      </trkpt>
      <trkpt lat="38.65269" lon="35.84944">
        <ele>1517.113861</ele>
        <time>2021-11-16T06:56:31.031Z</time>
      </trkpt>
      <trkpt lat="38.65288" lon="35.84903">
        <ele>1517.718963</ele>
        <time>2021-11-16T06:56:41.700Z</time>
      </trkpt>
      <trkpt lat="38.65293" lon="35.84896">
        <ele>1517.849527</ele>
        <time>2021-11-16T06:56:44.424Z</time>
      </trkpt>
      <trkpt lat="38.65313" lon="35.84869">
        <ele>1518.322655</ele>
        <time>2021-11-16T06:56:52.284Z</time>
      </trkpt>
      <trkpt lat="38.65374" lon="35.84787">
        <ele>1519.783443</ele>
        <time>2021-11-16T06:57:17.711Z</time>
      </trkpt>
      <trkpt lat="38.65451" lon="35.84691">
        <ele>1521.594636</ele>
        <time>2021-11-16T06:57:48.565Z</time>
      </trkpt>
      <trkpt lat="38.65518" lon="35.84595">
        <ele>1523.440801</ele>
        <time>2021-11-16T06:58:18.139Z</time>
      </trkpt>
      <trkpt lat="38.65585" lon="35.84499">
        <ele>1525.490583</ele>
        <time>2021-11-16T06:58:49.181Z</time>
      </trkpt>
      <trkpt lat="38.65633" lon="35.84412">
        <ele>1527.191048</ele>
        <time>2021-11-16T06:59:14.492Z</time>
      </trkpt>
      <trkpt lat="38.65745" lon="35.84185">
        <ele>1531.737148</ele>
        <time>2021-11-16T07:00:18.501Z</time>
      </trkpt>
      <trkpt lat="38.65784" lon="35.84131">
        <ele>1533.05673</ele>
        <time>2021-11-16T07:00:36.576Z</time>
      </trkpt>
      <trkpt lat="38.65798" lon="35.84118">
        <ele>1533.469741</ele>
        <time>2021-11-16T07:00:42.674Z</time>
      </trkpt>
      <trkpt lat="38.65828" lon="35.84087">
        <ele>1534.462144</ele>
        <time>2021-11-16T07:00:55.337Z</time>
      </trkpt>
      <trkpt lat="38.65867" lon="35.84046">
        <ele>1535.946847</ele>
        <time>2021-11-16T07:01:11.823Z</time>
      </trkpt>
      <trkpt lat="38.65875" lon="35.84038">
        <ele>1536.231874</ele>
        <time>2021-11-16T07:01:15.427Z</time>
      </trkpt>
      <trkpt lat="38.65946" lon="35.83934">
        <ele>1539.405835</ele>
        <time>2021-11-16T07:01:52.811Z</time>
      </trkpt>
      <trkpt lat="38.66045" lon="35.8382">
        <ele>1543.47006</ele>
        <time>2021-11-16T07:02:38.698Z</time>
      </trkpt>
      <trkpt lat="38.66095" lon="35.8377">
        <ele>1545.346067</ele>
        <time>2021-11-16T07:03:00.672Z</time>
      </trkpt>
      <trkpt lat="38.66194" lon="35.83698">
        <ele>1548.395423</ele>
        <time>2021-11-16T07:03:38.303Z</time>
      </trkpt>
      <trkpt lat="38.66248" lon="35.83653">
        <ele>1550.11847</ele>
        <time>2021-11-16T07:03:59.009Z</time>
      </trkpt>
      <trkpt lat="38.66338" lon="35.83573">
        <ele>1552.975743</ele>
        <time>2021-11-16T07:04:34.106Z</time>
      </trkpt>
      <trkpt lat="38.66617" lon="35.83312">
        <ele>1563.399326</ele>
        <time>2021-11-16T07:06:31.079Z</time>
      </trkpt>
      <trkpt lat="38.66669" lon="35.83252">
        <ele>1565.802328</ele>
        <time>2021-11-16T07:06:58.044Z</time>
      </trkpt>
      <trkpt lat="38.66711" lon="35.83197">
        <ele>1568.602973</ele>
        <time>2021-11-16T07:07:22.045Z</time>
      </trkpt>
      <trkpt lat="38.66757" lon="35.83135">
        <ele>1571.687057</ele>
        <time>2021-11-16T07:07:48.931Z</time>
      </trkpt>
      <trkpt lat="38.66882" lon="35.82984">
        <ele>1580.155504</ele>
        <time>2021-11-16T07:09:03.086Z</time>
      </trkpt>
      <trkpt lat="38.66895" lon="35.82973">
        <ele>1580.95843</ele>
        <time>2021-11-16T07:09:09.928Z</time>
      </trkpt>
      <trkpt lat="38.66925" lon="35.82946">
        <ele>1582.828519</ele>
        <time>2021-11-16T07:09:25.135Z</time>
      </trkpt>
      <trkpt lat="38.66971" lon="35.82929">
        <ele>1584.690617</ele>
        <time>2021-11-16T07:09:44.530Z</time>
      </trkpt>
      <trkpt lat="38.66988" lon="35.82916">
        <ele>1585.436751</ele>
        <time>2021-11-16T07:09:52.454Z</time>
      </trkpt>
      <trkpt lat="38.66993" lon="35.8291">
        <ele>1585.662877</ele>
        <time>2021-11-16T07:09:54.708Z</time>
      </trkpt>
      <trkpt lat="38.66998" lon="35.82903">
        <ele>1585.960208</ele>
        <time>2021-11-16T07:09:57.928Z</time>
      </trkpt>
      <trkpt lat="38.67006" lon="35.82892">
        <ele>1586.364914</ele>
        <time>2021-11-16T07:10:01.976Z</time>
      </trkpt>
      <trkpt lat="38.67052" lon="35.82843">
        <ele>1588.587193</ele>
        <time>2021-11-16T07:10:23.972Z</time>
      </trkpt>
      <trkpt lat="38.67095" lon="35.82822">
        <ele>1589.950694</ele>
        <time>2021-11-16T07:10:39.431Z</time>
      </trkpt>
      <trkpt lat="38.67173" lon="35.828">
        <ele>1590.971339</ele>
        <time>2021-11-16T07:11:02.783Z</time>
      </trkpt>
      <trkpt lat="38.67214" lon="35.82779">
        <ele>1591.537451</ele>
        <time>2021-11-16T07:11:14.450Z</time>
      </trkpt>
      <trkpt lat="38.67228" lon="35.82771">
        <ele>1591.741881</ele>
        <time>2021-11-16T07:11:18.233Z</time>
      </trkpt>
      <trkpt lat="38.67235" lon="35.82756">
        <ele>1591.912144</ele>
        <time>2021-11-16T07:11:21.296Z</time>
      </trkpt>
      <trkpt lat="38.67249" lon="35.82667">
        <ele>1590.934734</ele>
        <time>2021-11-16T07:11:35.481Z</time>
      </trkpt>
      <trkpt lat="38.67249" lon="35.82655">
        <ele>1590.748541</ele>
        <time>2021-11-16T07:11:37.319Z</time>
      </trkpt>
      <trkpt lat="38.67247" lon="35.82654">
        <ele>1590.705012</ele>
        <time>2021-11-16T07:11:37.674Z</time>
      </trkpt>
      <trkpt lat="38.67234" lon="35.82646">
        <ele>1590.430513</ele>
        <time>2021-11-16T07:11:40.240Z</time>
      </trkpt>
      <trkpt lat="38.67174" lon="35.82615">
        <ele>1589.144489</ele>
        <time>2021-11-16T07:11:51.135Z</time>
      </trkpt>
      <trkpt lat="38.67156" lon="35.82595">
        <ele>1588.674289</ele>
        <time>2021-11-16T07:11:54.960Z</time>
      </trkpt>
      <trkpt lat="38.67117" lon="35.82543">
        <ele>1586.843775</ele>
        <time>2021-11-16T07:12:03.865Z</time>
      </trkpt>
      <trkpt lat="38.67104" lon="35.82526">
        <ele>1586.183129</ele>
        <time>2021-11-16T07:12:06.814Z</time>
      </trkpt>
      <trkpt lat="38.67009" lon="35.82391">
        <ele>1581.632551</ele>
        <time>2021-11-16T07:12:29.510Z</time>
      </trkpt>
      <trkpt lat="38.66967" lon="35.82339">
        <ele>1580.368898</ele>
        <time>2021-11-16T07:12:39.607Z</time>
      </trkpt>
      <trkpt lat="38.66963" lon="35.82334">
        <ele>1580.245299</ele>
        <time>2021-11-16T07:12:40.604Z</time>
      </trkpt>
      <trkpt lat="38.66917" lon="35.82281">
        <ele>1578.916391</ele>
        <time>2021-11-16T07:12:51.616Z</time>
      </trkpt>
      <trkpt lat="38.66873" lon="35.82236">
        <ele>1578.208128</ele>
        <time>2021-11-16T07:13:02.180Z</time>
      </trkpt>
      <trkpt lat="38.66783" lon="35.82123">
        <ele>1577.534386</ele>
        <time>2021-11-16T07:13:28.938Z</time>
      </trkpt>
      <trkpt lat="38.66687" lon="35.81972">
        <ele>1577.039967</ele>
        <time>2021-11-16T07:14:02.280Z</time>
      </trkpt>
      <trkpt lat="38.66584" lon="35.81862">
        <ele>1575.93595</ele>
        <time>2021-11-16T07:14:28.701Z</time>
      </trkpt>
      <trkpt lat="38.66544" lon="35.81821">
        <ele>1575.340913</ele>
        <time>2021-11-16T07:14:38.285Z</time>
      </trkpt>
      <trkpt lat="38.66504" lon="35.8177">
        <ele>1574.601267</ele>
        <time>2021-11-16T07:14:48.570Z</time>
      </trkpt>
      <trkpt lat="38.66484" lon="35.81736">
        <ele>1573.973391</ele>
        <time>2021-11-16T07:14:54.451Z</time>
      </trkpt>
      <trkpt lat="38.66447" lon="35.81675">
        <ele>1572.823061</ele>
        <time>2021-11-16T07:15:05.116Z</time>
      </trkpt>
      <trkpt lat="38.66133" lon="35.81179">
        <ele>1563.179816</ele>
        <time>2021-11-16T07:16:32.811Z</time>
      </trkpt>
      <trkpt lat="38.65914" lon="35.8082">
        <ele>1558.367987</ele>
        <time>2021-11-16T07:17:38.935Z</time>
      </trkpt>
      <trkpt lat="38.65705" lon="35.80454">
        <ele>1555.470928</ele>
        <time>2021-11-16T07:18:49.780Z</time>
      </trkpt>
      <trkpt lat="38.6567" lon="35.80393">
        <ele>1554.929919</ele>
        <time>2021-11-16T07:19:00.998Z</time>
      </trkpt>
      <trkpt lat="38.65642" lon="35.80344">
        <ele>1554.490517</ele>
        <time>2021-11-16T07:19:10.128Z</time>
      </trkpt>
      <trkpt lat="38.65589" lon="35.80256">
        <ele>1553.901037</ele>
        <time>2021-11-16T07:19:26.991Z</time>
      </trkpt>
      <trkpt lat="38.65407" lon="35.79956">
        <ele>1552.545794</ele>
        <time>2021-11-16T07:20:29.208Z</time>
      </trkpt>
      <trkpt lat="38.65401" lon="35.79943">
        <ele>1552.487273</ele>
        <time>2021-11-16T07:20:31.616Z</time>
      </trkpt>
      <trkpt lat="38.65352" lon="35.79854">
        <ele>1552.064447</ele>
        <time>2021-11-16T07:20:49.049Z</time>
      </trkpt>
      <trkpt lat="38.653" lon="35.79733">
        <ele>1551.561622</ele>
        <time>2021-11-16T07:21:11.105Z</time>
      </trkpt>
      <trkpt lat="38.65281" lon="35.79685">
        <ele>1551.400015</ele>
        <time>2021-11-16T07:21:19.768Z</time>
      </trkpt>
      <trkpt lat="38.65278" lon="35.79676">
        <ele>1551.368855</ele>
        <time>2021-11-16T07:21:21.429Z</time>
      </trkpt>
      <trkpt lat="38.65263" lon="35.79622">
        <ele>1551.195939</ele>
        <time>2021-11-16T07:21:30.789Z</time>
      </trkpt>
      <trkpt lat="38.65242" lon="35.79524">
        <ele>1550.946543</ele>
        <time>2021-11-16T07:21:47.602Z</time>
      </trkpt>
      <trkpt lat="38.65199" lon="35.79314">
        <ele>1550.649247</ele>
        <time>2021-11-16T07:22:24.775Z</time>
      </trkpt>
      <trkpt lat="38.65172" lon="35.79182">
        <ele>1550.222514</ele>
        <time>2021-11-16T07:22:47.458Z</time>
      </trkpt>
      <trkpt lat="38.65117" lon="35.78885">
        <ele>1548.444473</ele>
        <time>2021-11-16T07:23:34.508Z</time>
      </trkpt>
      <trkpt lat="38.65116" lon="35.78843">
        <ele>1548.207495</ele>
        <time>2021-11-16T07:23:40.677Z</time>
      </trkpt>
      <trkpt lat="38.65122" lon="35.78799">
        <ele>1547.951594</ele>
        <time>2021-11-16T07:23:47.436Z</time>
      </trkpt>
      <trkpt lat="38.65132" lon="35.78734">
        <ele>1547.578356</ele>
        <time>2021-11-16T07:23:57.423Z</time>
      </trkpt>
      <trkpt lat="38.65149" lon="35.78588">
        <ele>1547.529467</ele>
        <time>2021-11-16T07:24:21.627Z</time>
      </trkpt>
      <trkpt lat="38.65148" lon="35.78541">
        <ele>1547.801102</ele>
        <time>2021-11-16T07:24:30.781Z</time>
      </trkpt>
      <trkpt lat="38.65139" lon="35.78496">
        <ele>1548.072708</ele>
        <time>2021-11-16T07:24:40.456Z</time>
      </trkpt>
      <trkpt lat="38.65058" lon="35.78281">
        <ele>1551.291001</ele>
        <time>2021-11-16T07:25:35.052Z</time>
      </trkpt>
      <trkpt lat="38.64928" lon="35.77969">
        <ele>1560.116603</ele>
        <time>2021-11-16T07:27:10.065Z</time>
      </trkpt>
      <trkpt lat="38.64891" lon="35.77854">
        <ele>1564.64469</ele>
        <time>2021-11-16T07:27:51.024Z</time>
      </trkpt>
      <trkpt lat="38.6487" lon="35.77815">
        <ele>1566.425528</ele>
        <time>2021-11-16T07:28:07.970Z</time>
      </trkpt>
      <trkpt lat="38.64796" lon="35.77713">
        <ele>1573.093104</ele>
        <time>2021-11-16T07:29:01.084Z</time>
      </trkpt>
      <trkpt lat="38.64762" lon="35.77693">
        <ele>1575.374254</ele>
        <time>2021-11-16T07:29:19.715Z</time>
      </trkpt>
      <trkpt lat="38.64692" lon="35.77694">
        <ele>1577.563851</ele>
        <time>2021-11-16T07:29:50.222Z</time>
      </trkpt>
      <trkpt lat="38.64641" lon="35.77666">
        <ele>1578.073027</ele>
        <time>2021-11-16T07:30:07.375Z</time>
      </trkpt>
      <trkpt lat="38.64565" lon="35.77625">
        <ele>1578.831439</ele>
        <time>2021-11-16T07:30:23.474Z</time>
      </trkpt>
      <trkpt lat="38.64555" lon="35.7762">
        <ele>1578.201026</ele>
        <time>2021-11-16T07:30:25.019Z</time>
      </trkpt>
      <trkpt lat="38.6446" lon="35.77548">
        <ele>1570.420406</ele>
        <time>2021-11-16T07:30:40.942Z</time>
      </trkpt>
      <trkpt lat="38.64437" lon="35.7752">
        <ele>1568.178296</ele>
        <time>2021-11-16T07:30:45.289Z</time>
      </trkpt>
      <trkpt lat="38.64409" lon="35.77466">
        <ele>1564.004815</ele>
        <time>2021-11-16T07:30:52.228Z</time>
      </trkpt>
      <trkpt lat="38.64339" lon="35.77323">
        <ele>1551.333484</ele>
        <time>2021-11-16T07:31:10.051Z</time>
      </trkpt>
      <trkpt lat="38.64324" lon="35.77292">
        <ele>1548.659122</ele>
        <time>2021-11-16T07:31:14.001Z</time>
      </trkpt>
      <trkpt lat="38.64297" lon="35.77236">
        <ele>1545.624162</ele>
        <time>2021-11-16T07:31:21.211Z</time>
      </trkpt>
      <trkpt lat="38.64166" lon="35.77012">
        <ele>1534.75744</ele>
        <time>2021-11-16T07:31:54.700Z</time>
      </trkpt>
      <trkpt lat="38.64136" lon="35.76962">
        <ele>1532.943581</ele>
        <time>2021-11-16T07:32:02.844Z</time>
      </trkpt>
      <trkpt lat="38.64102" lon="35.76886">
        <ele>1531.153762</ele>
        <time>2021-11-16T07:32:14.840Z</time>
      </trkpt>
      <trkpt lat="38.64079" lon="35.76831">
        <ele>1530.531375</ele>
        <time>2021-11-16T07:32:23.951Z</time>
      </trkpt>
      <trkpt lat="38.64074" lon="35.7682">
        <ele>1530.411976</ele>
        <time>2021-11-16T07:32:25.625Z</time>
      </trkpt>
      <trkpt lat="38.64049" lon="35.7676">
        <ele>1529.738036</ele>
        <time>2021-11-16T07:32:36.724Z</time>
      </trkpt>
      <trkpt lat="38.6404" lon="35.76719">
        <ele>1529.311164</ele>
        <time>2021-11-16T07:32:44.668Z</time>
      </trkpt>
      <trkpt lat="38.64036" lon="35.76691">
        <ele>1529.30199</ele>
        <time>2021-11-16T07:32:50.024Z</time>
      </trkpt>
      <trkpt lat="38.64037" lon="35.76665">
        <ele>1529.347745</ele>
        <time>2021-11-16T07:32:55.624Z</time>
      </trkpt>
      <trkpt lat="38.64028" lon="35.76662">
        <ele>1529.369271</ele>
        <time>2021-11-16T07:32:57.799Z</time>
      </trkpt>
      <trkpt lat="38.6402" lon="35.76635">
        <ele>1529.422188</ele>
        <time>2021-11-16T07:33:03.970Z</time>
      </trkpt>
      <trkpt lat="38.64035" lon="35.76612">
        <ele>1529.47555</ele>
        <time>2021-11-16T07:33:09.756Z</time>
      </trkpt>
      <trkpt lat="38.64042" lon="35.76575">
        <ele>1529.544014</ele>
        <time>2021-11-16T07:33:17.164Z</time>
      </trkpt>
      <trkpt lat="38.6405" lon="35.76537">
        <ele>1529.614602</ele>
        <time>2021-11-16T07:33:24.344Z</time>
      </trkpt>
      <trkpt lat="38.64053" lon="35.76506">
        <ele>1529.670259</ele>
        <time>2021-11-16T07:33:30.101Z</time>
      </trkpt>
      <trkpt lat="38.64053" lon="35.76475">
        <ele>1529.361408</ele>
        <time>2021-11-16T07:33:35.255Z</time>
      </trkpt>
      <trkpt lat="38.64047" lon="35.76454">
        <ele>1529.137227</ele>
        <time>2021-11-16T07:33:39.282Z</time>
      </trkpt>
      <trkpt lat="38.64046" lon="35.76448">
        <ele>1529.06818</ele>
        <time>2021-11-16T07:33:40.278Z</time>
      </trkpt>
      <trkpt lat="38.64044" lon="35.76433">
        <ele>1528.914573</ele>
        <time>2021-11-16T07:33:42.549Z</time>
      </trkpt>
      <trkpt lat="38.64038" lon="35.76419">
        <ele>1528.742315</ele>
        <time>2021-11-16T07:33:45.164Z</time>
      </trkpt>
      <trkpt lat="38.6403" lon="35.76395">
        <ele>1528.469502</ele>
        <time>2021-11-16T07:33:49.303Z</time>
      </trkpt>
      <trkpt lat="38.64027" lon="35.76364">
        <ele>1528.153613</ele>
        <time>2021-11-16T07:33:54.073Z</time>
      </trkpt>
      <trkpt lat="38.64022" lon="35.76358">
        <ele>1528.06178</ele>
        <time>2021-11-16T07:33:55.209Z</time>
      </trkpt>
      <trkpt lat="38.64033" lon="35.76325">
        <ele>1527.696062</ele>
        <time>2021-11-16T07:34:00.343Z</time>
      </trkpt>
      <trkpt lat="38.64032" lon="35.7628">
        <ele>1527.190106</ele>
        <time>2021-11-16T07:34:06.630Z</time>
      </trkpt>
      <trkpt lat="38.64031" lon="35.76248">
        <ele>1526.641486</ele>
        <time>2021-11-16T07:34:10.955Z</time>
      </trkpt>
      <trkpt lat="38.64028" lon="35.76198">
        <ele>1525.76612</ele>
        <time>2021-11-16T07:34:18.240Z</time>
      </trkpt>
      <trkpt lat="38.64028" lon="35.7608">
        <ele>1523.729645</ele>
        <time>2021-11-16T07:34:35.317Z</time>
      </trkpt>
      <trkpt lat="38.64055" lon="35.75967">
        <ele>1521.207656</ele>
        <time>2021-11-16T07:34:51.552Z</time>
      </trkpt>
      <trkpt lat="38.64083" lon="35.75897">
        <ele>1519.446105</ele>
        <time>2021-11-16T07:35:02.151Z</time>
      </trkpt>
      <trkpt lat="38.64097" lon="35.75864">
        <ele>1518.606797</ele>
        <time>2021-11-16T07:35:07.124Z</time>
      </trkpt>
      <trkpt lat="38.64127" lon="35.75801">
        <ele>1516.889623</ele>
        <time>2021-11-16T07:35:16.980Z</time>
      </trkpt>
      <trkpt lat="38.64131" lon="35.75746">
        <ele>1515.573698</ele>
        <time>2021-11-16T07:35:24.394Z</time>
      </trkpt>
      <trkpt lat="38.64123" lon="35.75691">
        <ele>1514.256625</ele>
        <time>2021-11-16T07:35:31.881Z</time>
      </trkpt>
      <trkpt lat="38.64082" lon="35.75551">
        <ele>1511.299294</ele>
        <time>2021-11-16T07:35:52.505Z</time>
      </trkpt>
      <trkpt lat="38.64061" lon="35.75506">
        <ele>1510.416815</ele>
        <time>2021-11-16T07:35:59.881Z</time>
      </trkpt>
      <trkpt lat="38.64064" lon="35.75488">
        <ele>1510.105458</ele>
        <time>2021-11-16T07:36:02.512Z</time>
      </trkpt>
      <trkpt lat="38.64095" lon="35.75442">
        <ele>1509.062667</ele>
        <time>2021-11-16T07:36:11.519Z</time>
      </trkpt>
      <trkpt lat="38.64104" lon="35.75418">
        <ele>1508.68777</ele>
        <time>2021-11-16T07:36:15.467Z</time>
      </trkpt>
      <trkpt lat="38.64104" lon="35.75405">
        <ele>1508.541981</ele>
        <time>2021-11-16T07:36:17.471Z</time>
      </trkpt>
      <trkpt lat="38.64079" lon="35.75331">
        <ele>1507.665108</ele>
        <time>2021-11-16T07:36:29.678Z</time>
      </trkpt>
      <trkpt lat="38.64082" lon="35.75258">
        <ele>1506.872925</ele>
        <time>2021-11-16T07:36:40.907Z</time>
      </trkpt>
      <trkpt lat="38.64084" lon="35.75237">
        <ele>1506.638284</ele>
        <time>2021-11-16T07:36:44.235Z</time>
      </trkpt>
      <trkpt lat="38.64097" lon="35.75077">
        <ele>1504.558636</ele>
        <time>2021-11-16T07:37:08.441Z</time>
      </trkpt>
      <trkpt lat="38.64107" lon="35.74925">
        <ele>1502.482105</ele>
        <time>2021-11-16T07:37:30.256Z</time>
      </trkpt>
      <trkpt lat="38.64132" lon="35.74779">
        <ele>1500.348683</ele>
        <time>2021-11-16T07:37:51.837Z</time>
      </trkpt>
      <trkpt lat="38.64173" lon="35.74623">
        <ele>1499.063294</ele>
        <time>2021-11-16T07:38:17.187Z</time>
      </trkpt>
      <trkpt lat="38.6427" lon="35.74341">
        <ele>1498.230542</ele>
        <time>2021-11-16T07:39:11.153Z</time>
      </trkpt>
      <trkpt lat="38.64301" lon="35.74204">
        <ele>1498.348758</ele>
        <time>2021-11-16T07:39:38.178Z</time>
      </trkpt>
      <trkpt lat="38.64326" lon="35.74139">
        <ele>1498.425676</ele>
        <time>2021-11-16T07:39:51.620Z</time>
      </trkpt>
      <trkpt lat="38.64363" lon="35.74086">
        <ele>1498.415134</ele>
        <time>2021-11-16T07:40:04.823Z</time>
      </trkpt>
      <trkpt lat="38.64522" lon="35.73927">
        <ele>1498.087666</ele>
        <time>2021-11-16T07:40:49.816Z</time>
      </trkpt>
      <trkpt lat="38.64576" lon="35.73846">
        <ele>1497.903238</ele>
        <time>2021-11-16T07:41:08.497Z</time>
      </trkpt>
      <trkpt lat="38.64656" lon="35.73764">
        <ele>1497.518598</ele>
        <time>2021-11-16T07:41:31.272Z</time>
      </trkpt>
      <trkpt lat="38.6474" lon="35.73715">
        <ele>1497.058252</ele>
        <time>2021-11-16T07:41:51.340Z</time>
      </trkpt>
      <trkpt lat="38.64938" lon="35.73637">
        <ele>1495.362538</ele>
        <time>2021-11-16T07:42:33.561Z</time>
      </trkpt>
      <trkpt lat="38.65175" lon="35.73496">
        <ele>1492.313999</ele>
        <time>2021-11-16T07:43:26.200Z</time>
      </trkpt>
      <trkpt lat="38.6531" lon="35.73437">
        <ele>1490.017719</ele>
        <time>2021-11-16T07:43:52.746Z</time>
      </trkpt>
      <trkpt lat="38.65427" lon="35.73374">
        <ele>1487.676461</ele>
        <time>2021-11-16T07:44:16.253Z</time>
      </trkpt>
      <trkpt lat="38.65465" lon="35.73349">
        <ele>1487.134331</ele>
        <time>2021-11-16T07:44:24.302Z</time>
      </trkpt>
      <trkpt lat="38.65606" lon="35.73222">
        <ele>1485.205254</ele>
        <time>2021-11-16T07:44:59.341Z</time>
      </trkpt>
      <trkpt lat="38.6571" lon="35.73138">
        <ele>1483.921867</ele>
        <time>2021-11-16T07:45:24.504Z</time>
      </trkpt>
      <trkpt lat="38.65906" lon="35.73004">
        <ele>1480.48393</ele>
        <time>2021-11-16T07:46:06.640Z</time>
      </trkpt>
      <trkpt lat="38.65951" lon="35.72972">
        <ele>1479.748614</ele>
        <time>2021-11-16T07:46:16.248Z</time>
      </trkpt>
      <trkpt lat="38.66013" lon="35.72937">
        <ele>1478.785552</ele>
        <time>2021-11-16T07:46:29.206Z</time>
      </trkpt>
      <trkpt lat="38.66054" lon="35.72906">
        <ele>1478.107271</ele>
        <time>2021-11-16T07:46:38.564Z</time>
      </trkpt>
      <trkpt lat="38.66213" lon="35.72702">
        <ele>1478.169851</ele>
        <time>2021-11-16T07:47:30.214Z</time>
      </trkpt>
      <trkpt lat="38.66288" lon="35.72618">
        <ele>1479.076097</ele>
        <time>2021-11-16T07:47:57.334Z</time>
      </trkpt>
      <trkpt lat="38.6631" lon="35.72586">
        <ele>1479.376566</ele>
        <time>2021-11-16T07:48:06.907Z</time>
      </trkpt>
      <trkpt lat="38.66383" lon="35.72444">
        <ele>1481.791733</ele>
        <time>2021-11-16T07:48:48.091Z</time>
      </trkpt>
      <trkpt lat="38.66427" lon="35.72387">
        <ele>1482.920008</ele>
        <time>2021-11-16T07:49:07.282Z</time>
      </trkpt>
      <trkpt lat="38.66474" lon="35.72343">
        <ele>1483.878429</ele>
        <time>2021-11-16T07:49:24.983Z</time>
      </trkpt>
      <trkpt lat="38.66477" lon="35.72341">
        <ele>1483.92637</ele>
        <time>2021-11-16T07:49:25.855Z</time>
      </trkpt>
      <trkpt lat="38.66538" lon="35.72302">
        <ele>1485.039428</ele>
        <time>2021-11-16T07:49:46.045Z</time>
      </trkpt>
      <trkpt lat="38.66594" lon="35.72277">
        <ele>1486.049165</ele>
        <time>2021-11-16T07:50:03.219Z</time>
      </trkpt>
      <trkpt lat="38.66644" lon="35.7226">
        <ele>1487.030542</ele>
        <time>2021-11-16T07:50:18.082Z</time>
      </trkpt>
      <trkpt lat="38.667" lon="35.72246">
        <ele>1488.113896</ele>
        <time>2021-11-16T07:50:35.436Z</time>
      </trkpt>
      <trkpt lat="38.66738" lon="35.72236">
        <ele>1488.850866</ele>
        <time>2021-11-16T07:50:48.138Z</time>
      </trkpt>
      <trkpt lat="38.66763" lon="35.72224">
        <ele>1489.472261</ele>
        <time>2021-11-16T07:50:57.069Z</time>
      </trkpt>
      <trkpt lat="38.6682" lon="35.72195">
        <ele>1491.092069</ele>
        <time>2021-11-16T07:51:17.940Z</time>
      </trkpt>
      <trkpt lat="38.66876" lon="35.72167">
        <ele>1492.673722</ele>
        <time>2021-11-16T07:51:38.538Z</time>
      </trkpt>
      <trkpt lat="38.6696" lon="35.72125">
        <ele>1494.497865</ele>
        <time>2021-11-16T07:52:08.929Z</time>
      </trkpt>
      <trkpt lat="38.67008" lon="35.72118">
        <ele>1495.209633</ele>
        <time>2021-11-16T07:52:24.160Z</time>
      </trkpt>
      <trkpt lat="38.67103" lon="35.72138">
        <ele>1496.365797</ele>
        <time>2021-11-16T07:52:48.478Z</time>
      </trkpt>
      <trkpt lat="38.67122" lon="35.72133">
        <ele>1496.204216</ele>
        <time>2021-11-16T07:52:53.664Z</time>
      </trkpt>
      <trkpt lat="38.6714" lon="35.72122">
        <ele>1496.042844</ele>
        <time>2021-11-16T07:52:57.628Z</time>
      </trkpt>
      <trkpt lat="38.67175" lon="35.72084">
        <ele>1495.661649</ele>
        <time>2021-11-16T07:53:07.888Z</time>
      </trkpt>
      <trkpt lat="38.67183" lon="35.72066">
        <ele>1495.531039</ele>
        <time>2021-11-16T07:53:11.094Z</time>
      </trkpt>
      <trkpt lat="38.67185" lon="35.72053">
        <ele>1495.443974</ele>
        <time>2021-11-16T07:53:12.926Z</time>
      </trkpt>
      <trkpt lat="38.67187" lon="35.72046">
        <ele>1495.400233</ele>
        <time>2021-11-16T07:53:14.140Z</time>
      </trkpt>
      <trkpt lat="38.67187" lon="35.72026">
        <ele>1495.269773</ele>
        <time>2021-11-16T07:53:17.404Z</time>
      </trkpt>
      <trkpt lat="38.67184" lon="35.71992">
        <ele>1495.048795</ele>
        <time>2021-11-16T07:53:22.373Z</time>
      </trkpt>
      <trkpt lat="38.67183" lon="35.71982">
        <ele>1494.982832</ele>
        <time>2021-11-16T07:53:23.902Z</time>
      </trkpt>
      <trkpt lat="38.67173" lon="35.71936">
        <ele>1493.997014</ele>
        <time>2021-11-16T07:53:30.603Z</time>
      </trkpt>
      <trkpt lat="38.6715" lon="35.71871">
        <ele>1492.50636</ele>
        <time>2021-11-16T07:53:40.378Z</time>
      </trkpt>
      <trkpt lat="38.67144" lon="35.71843">
        <ele>1491.895848</ele>
        <time>2021-11-16T07:53:44.442Z</time>
      </trkpt>
      <trkpt lat="38.67149" lon="35.71782">
        <ele>1490.590116</ele>
        <time>2021-11-16T07:53:52.871Z</time>
      </trkpt>
      <trkpt lat="38.67171" lon="35.71739">
        <ele>1489.205865</ele>
        <time>2021-11-16T07:53:59.596Z</time>
      </trkpt>
      <trkpt lat="38.67192" lon="35.71695">
        <ele>1487.622694</ele>
        <time>2021-11-16T07:54:05.994Z</time>
      </trkpt>
      <trkpt lat="38.67208" lon="35.71668">
        <ele>1486.573603</ele>
        <time>2021-11-16T07:54:10.229Z</time>
      </trkpt>
      <trkpt lat="38.6723" lon="35.71654">
        <ele>1485.56612</ele>
        <time>2021-11-16T07:54:14.374Z</time>
      </trkpt>
      <trkpt lat="38.67245" lon="35.71625">
        <ele>1484.500569</ele>
        <time>2021-11-16T07:54:18.746Z</time>
      </trkpt>
      <trkpt lat="38.67252" lon="35.71586">
        <ele>1483.266764</ele>
        <time>2021-11-16T07:54:23.847Z</time>
      </trkpt>
      <trkpt lat="38.67258" lon="35.71565">
        <ele>1482.702059</ele>
        <time>2021-11-16T07:54:26.821Z</time>
      </trkpt>
      <trkpt lat="38.6726" lon="35.71555">
        <ele>1482.51481</ele>
        <time>2021-11-16T07:54:28.077Z</time>
      </trkpt>
      <trkpt lat="38.67274" lon="35.71539">
        <ele>1482.046626</ele>
        <time>2021-11-16T07:54:31.332Z</time>
      </trkpt>
      <trkpt lat="38.67316" lon="35.71516">
        <ele>1480.900613</ele>
        <time>2021-11-16T07:54:39.207Z</time>
      </trkpt>
      <trkpt lat="38.67336" lon="35.7149">
        <ele>1480.181644</ele>
        <time>2021-11-16T07:54:44.222Z</time>
      </trkpt>
      <trkpt lat="38.67347" lon="35.71476">
        <ele>1479.790063</ele>
        <time>2021-11-16T07:54:46.928Z</time>
      </trkpt>
      <trkpt lat="38.67386" lon="35.71427">
        <ele>1478.453682</ele>
        <time>2021-11-16T07:54:57.350Z</time>
      </trkpt>
      <trkpt lat="38.67456" lon="35.71342">
        <ele>1478.842097</ele>
        <time>2021-11-16T07:55:18.270Z</time>
      </trkpt>
      <trkpt lat="38.6746" lon="35.71337">
        <ele>1478.864822</ele>
        <time>2021-11-16T07:55:19.607Z</time>
      </trkpt>
      <trkpt lat="38.67615" lon="35.7114">
        <ele>1482.846144</ele>
        <time>2021-11-16T07:56:22.581Z</time>
      </trkpt>
      <trkpt lat="38.67725" lon="35.70979">
        <ele>1490.069215</ele>
        <time>2021-11-16T07:57:35.707Z</time>
      </trkpt>
      <trkpt lat="38.67785" lon="35.70905">
        <ele>1492.911053</ele>
        <time>2021-11-16T07:58:09.087Z</time>
      </trkpt>
      <trkpt lat="38.67809" lon="35.70875">
        <ele>1493.301051</ele>
        <time>2021-11-16T07:58:20.533Z</time>
      </trkpt>
      <trkpt lat="38.67996" lon="35.7065">
        <ele>1493.273051</ele>
        <time>2021-11-16T07:59:12.991Z</time>
      </trkpt>
      <trkpt lat="38.68075" lon="35.70535">
        <ele>1490.81249</ele>
        <time>2021-11-16T07:59:33.655Z</time>
      </trkpt>
      <trkpt lat="38.68104" lon="35.70481">
        <ele>1489.497976</ele>
        <time>2021-11-16T07:59:42.212Z</time>
      </trkpt>
      <trkpt lat="38.68153" lon="35.70336">
        <ele>1485.752688</ele>
        <time>2021-11-16T08:00:02.373Z</time>
      </trkpt>
      <trkpt lat="38.68171" lon="35.70259">
        <ele>1483.674068</ele>
        <time>2021-11-16T08:00:12.535Z</time>
      </trkpt>
      <trkpt lat="38.68181" lon="35.70199">
        <ele>1481.964868</ele>
        <time>2021-11-16T08:00:20.372Z</time>
      </trkpt>
      <trkpt lat="38.68181" lon="35.70059">
        <ele>1477.11072</ele>
        <time>2021-11-16T08:00:37.240Z</time>
      </trkpt>
      <trkpt lat="38.68179" lon="35.70008">
        <ele>1475.301469</ele>
        <time>2021-11-16T08:00:43.388Z</time>
      </trkpt>
      <trkpt lat="38.68178" lon="35.69974">
        <ele>1474.05243</ele>
        <time>2021-11-16T08:00:47.379Z</time>
      </trkpt>
      <trkpt lat="38.68173" lon="35.6984">
        <ele>1467.695504</ele>
        <time>2021-11-16T08:01:02.738Z</time>
      </trkpt>
      <trkpt lat="38.68172" lon="35.69766">
        <ele>1464.199123</ele>
        <time>2021-11-16T08:01:11.073Z</time>
      </trkpt>
      <trkpt lat="38.68162" lon="35.69669">
        <ele>1458.969466</ele>
        <time>2021-11-16T08:01:22.134Z</time>
      </trkpt>
      <trkpt lat="38.68148" lon="35.69589">
        <ele>1454.498251</ele>
        <time>2021-11-16T08:01:31.294Z</time>
      </trkpt>
      <trkpt lat="38.68127" lon="35.69511">
        <ele>1449.895089</ele>
        <time>2021-11-16T08:01:40.412Z</time>
      </trkpt>
      <trkpt lat="38.68099" lon="35.69423">
        <ele>1444.132694</ele>
        <time>2021-11-16T08:01:50.903Z</time>
      </trkpt>
      <trkpt lat="38.68085" lon="35.69389">
        <ele>1441.783304</ele>
        <time>2021-11-16T08:01:55.088Z</time>
      </trkpt>
      <trkpt lat="38.68077" lon="35.69351">
        <ele>1439.372749</ele>
        <time>2021-11-16T08:01:59.361Z</time>
      </trkpt>
      <trkpt lat="38.68078" lon="35.69313">
        <ele>1437.06397</ele>
        <time>2021-11-16T08:02:03.450Z</time>
      </trkpt>
      <trkpt lat="38.68087" lon="35.69283">
        <ele>1435.701775</ele>
        <time>2021-11-16T08:02:07.045Z</time>
      </trkpt>
      <trkpt lat="38.68103" lon="35.69258">
        <ele>1434.498989</ele>
        <time>2021-11-16T08:02:10.598Z</time>
      </trkpt>
      <trkpt lat="38.68117" lon="35.69233">
        <ele>1433.334166</ele>
        <time>2021-11-16T08:02:14.032Z</time>
      </trkpt>
      <trkpt lat="38.68127" lon="35.69198">
        <ele>1431.915919</ele>
        <time>2021-11-16T08:02:18.470Z</time>
      </trkpt>
      <trkpt lat="38.68133" lon="35.69157">
        <ele>1430.330346</ele>
        <time>2021-11-16T08:02:23.608Z</time>
      </trkpt>
      <trkpt lat="38.68135" lon="35.6914">
        <ele>1429.701888</ele>
        <time>2021-11-16T08:02:25.681Z</time>
      </trkpt>
      <trkpt lat="38.68138" lon="35.69113">
        <ele>1428.660683</ele>
        <time>2021-11-16T08:02:29.526Z</time>
      </trkpt>
      <trkpt lat="38.68138" lon="35.69085">
        <ele>1428.134095</ele>
        <time>2021-11-16T08:02:33.695Z</time>
      </trkpt>
      <trkpt lat="38.68131" lon="35.69071">
        <ele>1428.340758</ele>
        <time>2021-11-16T08:02:35.973Z</time>
      </trkpt>
      <trkpt lat="38.68104" lon="35.69045">
        <ele>1428.873493</ele>
        <time>2021-11-16T08:02:43.423Z</time>
      </trkpt>
      <trkpt lat="38.68097" lon="35.69029">
        <ele>1429.097889</ele>
        <time>2021-11-16T08:02:46.917Z</time>
      </trkpt>
      <trkpt lat="38.68102" lon="35.68987">
        <ele>1429.628431</ele>
        <time>2021-11-16T08:02:56.985Z</time>
      </trkpt>
      <trkpt lat="38.68108" lon="35.68968">
        <ele>1429.884045</ele>
        <time>2021-11-16T08:03:03.112Z</time>
      </trkpt>
      <trkpt lat="38.6812" lon="35.68924">
        <ele>1430.468843</ele>
        <time>2021-11-16T08:03:16.447Z</time>
      </trkpt>
      <trkpt lat="38.68129" lon="35.68893">
        <ele>1430.888346</ele>
        <time>2021-11-16T08:03:25.236Z</time>
      </trkpt>
      <trkpt lat="38.68134" lon="35.68853">
        <ele>1432.299137</ele>
        <time>2021-11-16T08:03:37.369Z</time>
      </trkpt>
      <trkpt lat="38.68126" lon="35.68815">
        <ele>1433.662304</ele>
        <time>2021-11-16T08:03:49.650Z</time>
      </trkpt>
      <trkpt lat="38.68102" lon="35.68715">
        <ele>1437.238477</ele>
        <time>2021-11-16T08:04:22.717Z</time>
      </trkpt>
      <trkpt lat="38.68064" lon="35.68554">
        <ele>1443.461585</ele>
        <time>2021-11-16T08:05:17.522Z</time>
      </trkpt>
      <trkpt lat="38.6804" lon="35.68476">
        <ele>1446.608756</ele>
        <time>2021-11-16T08:05:45.575Z</time>
      </trkpt>
      <trkpt lat="38.68031" lon="35.68446">
        <ele>1447.714796</ele>
        <time>2021-11-16T08:05:55.853Z</time>
      </trkpt>
      <trkpt lat="38.68005" lon="35.68373">
        <ele>1449.900401</ele>
        <time>2021-11-16T08:06:20.045Z</time>
      </trkpt>
      <trkpt lat="38.67994" lon="35.68342">
        <ele>1450.844614</ele>
        <time>2021-11-16T08:06:30.252Z</time>
      </trkpt>
      <trkpt lat="38.67988" lon="35.68327">
        <ele>1451.292084</ele>
        <time>2021-11-16T08:06:34.740Z</time>
      </trkpt>
      <trkpt lat="38.67975" lon="35.68296">
        <ele>1452.238168</ele>
        <time>2021-11-16T08:06:44.060Z</time>
      </trkpt>
      <trkpt lat="38.67933" lon="35.68211">
        <ele>1454.423714</ele>
        <time>2021-11-16T08:07:08.814Z</time>
      </trkpt>
      <trkpt lat="38.6792" lon="35.68181">
        <ele>1454.935646</ele>
        <time>2021-11-16T08:07:17.292Z</time>
      </trkpt>
      <trkpt lat="38.67916" lon="35.68169">
        <ele>1455.130657</ele>
        <time>2021-11-16T08:07:20.151Z</time>
      </trkpt>
      <trkpt lat="38.67896" lon="35.68128">
        <ele>1455.849054</ele>
        <time>2021-11-16T08:07:30.896Z</time>
      </trkpt>
      <trkpt lat="38.67671" lon="35.67668">
        <ele>1463.243937</ele>
        <time>2021-11-16T08:09:33.985Z</time>
      </trkpt>
      <trkpt lat="38.67654" lon="35.67634">
        <ele>1463.50985</ele>
        <time>2021-11-16T08:09:43.871Z</time>
      </trkpt>
      <trkpt lat="38.6763" lon="35.67583">
        <ele>1463.802193</ele>
        <time>2021-11-16T08:09:56.937Z</time>
      </trkpt>
      <trkpt lat="38.67603" lon="35.67531">
        <ele>1464.110524</ele>
        <time>2021-11-16T08:10:09.848Z</time>
      </trkpt>
      <trkpt lat="38.67572" lon="35.67468">
        <ele>1464.478226</ele>
        <time>2021-11-16T08:10:22.776Z</time>
      </trkpt>
      <trkpt lat="38.67294" lon="35.66896">
        <ele>1452.14354</ele>
        <time>2021-11-16T08:11:51.432Z</time>
      </trkpt>
      <trkpt lat="38.67209" lon="35.667">
        <ele>1451.093442</ele>
        <time>2021-11-16T08:12:28.798Z</time>
      </trkpt>
      <trkpt lat="38.67196" lon="35.66666">
        <ele>1450.945517</ele>
        <time>2021-11-16T08:12:35.528Z</time>
      </trkpt>
      <trkpt lat="38.67187" lon="35.66645">
        <ele>1450.84043</ele>
        <time>2021-11-16T08:12:39.652Z</time>
      </trkpt>
      <trkpt lat="38.67178" lon="35.66621">
        <ele>1450.719478</ele>
        <time>2021-11-16T08:12:44.136Z</time>
      </trkpt>
      <trkpt lat="38.67115" lon="35.66466">
        <ele>1449.910718</ele>
        <time>2021-11-16T08:13:11.267Z</time>
      </trkpt>
      <trkpt lat="38.66954" lon="35.66112">
        <ele>1447.102843</ele>
        <time>2021-11-16T08:14:12.438Z</time>
      </trkpt>
      <trkpt lat="38.6694" lon="35.66058">
        <ele>1446.978282</ele>
        <time>2021-11-16T08:14:22.963Z</time>
      </trkpt>
      <trkpt lat="38.66944" lon="35.66027">
        <ele>1447.20323</ele>
        <time>2021-11-16T08:14:29.058Z</time>
      </trkpt>
      <trkpt lat="38.66951" lon="35.66013">
        <ele>1447.323839</ele>
        <time>2021-11-16T08:14:32.447Z</time>
      </trkpt>
      <trkpt lat="38.67039" lon="35.6586">
        <ele>1448.493475</ele>
        <time>2021-11-16T08:15:13.453Z</time>
      </trkpt>
      <trkpt lat="38.67119" lon="35.65687">
        <ele>1448.041938</ele>
        <time>2021-11-16T08:15:47.240Z</time>
      </trkpt>
      <trkpt lat="38.67142" lon="35.65649">
        <ele>1447.115932</ele>
        <time>2021-11-16T08:15:53.474Z</time>
      </trkpt>
      <trkpt lat="38.67159" lon="35.65624">
        <ele>1446.389188</ele>
        <time>2021-11-16T08:15:57.877Z</time>
      </trkpt>
      <trkpt lat="38.67176" lon="35.65585">
        <ele>1445.397905</ele>
        <time>2021-11-16T08:16:03.577Z</time>
      </trkpt>
      <trkpt lat="38.67176" lon="35.65573">
        <ele>1445.130778</ele>
        <time>2021-11-16T08:16:05.023Z</time>
      </trkpt>
      <trkpt lat="38.67176" lon="35.6557">
        <ele>1445.057413</ele>
        <time>2021-11-16T08:16:05.384Z</time>
      </trkpt>
      <trkpt lat="38.67171" lon="35.6554">
        <ele>1444.369147</ele>
        <time>2021-11-16T08:16:09.452Z</time>
      </trkpt>
      <trkpt lat="38.67168" lon="35.65522">
        <ele>1443.976998</ele>
        <time>2021-11-16T08:16:11.535Z</time>
      </trkpt>
      <trkpt lat="38.67181" lon="35.65482">
        <ele>1443.007351</ele>
        <time>2021-11-16T08:16:16.912Z</time>
      </trkpt>
      <trkpt lat="38.67244" lon="35.65261">
        <ele>1438.978986</ele>
        <time>2021-11-16T08:16:48.783Z</time>
      </trkpt>
      <trkpt lat="38.67281" lon="35.65142">
        <ele>1438.10475</ele>
        <time>2021-11-16T08:17:09.280Z</time>
      </trkpt>
      <trkpt lat="38.6739" lon="35.64799">
        <ele>1434.96845</ele>
        <time>2021-11-16T08:18:05.823Z</time>
      </trkpt>
      <trkpt lat="38.67511" lon="35.64422">
        <ele>1426.346977</ele>
        <time>2021-11-16T08:18:59.060Z</time>
      </trkpt>
      <trkpt lat="38.67536" lon="35.64346">
        <ele>1424.137755</ele>
        <time>2021-11-16T08:19:08.920Z</time>
      </trkpt>
      <trkpt lat="38.67548" lon="35.64307">
        <ele>1422.987432</ele>
        <time>2021-11-16T08:19:13.975Z</time>
      </trkpt>
      <trkpt lat="38.67579" lon="35.64213">
        <ele>1420.142914</ele>
        <time>2021-11-16T08:19:26.598Z</time>
      </trkpt>
      <trkpt lat="38.67652" lon="35.63988">
        <ele>1417.246201</ele>
        <time>2021-11-16T08:20:01.966Z</time>
      </trkpt>
      <trkpt lat="38.67705" lon="35.6382">
        <ele>1417.121597</ele>
        <time>2021-11-16T08:20:33.933Z</time>
      </trkpt>
      <trkpt lat="38.67758" lon="35.63655">
        <ele>1416.814118</ele>
        <time>2021-11-16T08:21:06.029Z</time>
      </trkpt>
      <trkpt lat="38.67835" lon="35.63412">
        <ele>1414.959645</ele>
        <time>2021-11-16T08:21:46.248Z</time>
      </trkpt>
      <trkpt lat="38.67995" lon="35.62919">
        <ele>1407.091466</ele>
        <time>2021-11-16T08:22:58.472Z</time>
      </trkpt>
      <trkpt lat="38.68046" lon="35.62757">
        <ele>1407.682749</ele>
        <time>2021-11-16T08:23:33.098Z</time>
      </trkpt>
      <trkpt lat="38.68084" lon="35.62636">
        <ele>1407.681674</ele>
        <time>2021-11-16T08:23:59.775Z</time>
      </trkpt>
      <trkpt lat="38.68161" lon="35.62395">
        <ele>1406.041203</ele>
        <time>2021-11-16T08:24:38.952Z</time>
      </trkpt>
      <trkpt lat="38.68189" lon="35.62321">
        <ele>1405.096417</ele>
        <time>2021-11-16T08:24:50.341Z</time>
      </trkpt>
      <trkpt lat="38.68263" lon="35.62169">
        <ele>1402.6675</ele>
        <time>2021-11-16T08:25:15.295Z</time>
      </trkpt>
      <trkpt lat="38.68309" lon="35.62094">
        <ele>1401.305522</ele>
        <time>2021-11-16T08:25:28.562Z</time>
      </trkpt>
      <trkpt lat="38.6837" lon="35.62015">
        <ele>1399.909348</ele>
        <time>2021-11-16T08:25:44.063Z</time>
      </trkpt>
      <trkpt lat="38.68414" lon="35.61967">
        <ele>1398.976331</ele>
        <time>2021-11-16T08:25:54.554Z</time>
      </trkpt>
      <trkpt lat="38.68507" lon="35.6188">
        <ele>1397.904224</ele>
        <time>2021-11-16T08:26:16.442Z</time>
      </trkpt>
      <trkpt lat="38.6866" lon="35.61768">
        <ele>1397.370101</ele>
        <time>2021-11-16T08:26:54.530Z</time>
      </trkpt>
      <trkpt lat="38.68665" lon="35.61758">
        <ele>1397.380364</ele>
        <time>2021-11-16T08:26:56.668Z</time>
      </trkpt>
      <trkpt lat="38.68668" lon="35.61759">
        <ele>1397.384201</ele>
        <time>2021-11-16T08:26:57.434Z</time>
      </trkpt>
      <trkpt lat="38.68678" lon="35.61757">
        <ele>1397.395633</ele>
        <time>2021-11-16T08:26:59.860Z</time>
      </trkpt>
      <trkpt lat="38.68684" lon="35.61746">
        <ele>1397.406986</ele>
        <time>2021-11-16T08:27:02.312Z</time>
      </trkpt>
      <trkpt lat="38.68685" lon="35.61742">
        <ele>1397.410861</ele>
        <time>2021-11-16T08:27:03.115Z</time>
      </trkpt>
      <trkpt lat="38.68689" lon="35.61747">
        <ele>1397.41734</ele>
        <time>2021-11-16T08:27:04.433Z</time>
      </trkpt>
      <trkpt lat="38.68788" lon="35.61666">
        <ele>1397.133071</ele>
        <time>2021-11-16T08:27:32.190Z</time>
      </trkpt>
      <trkpt lat="38.6887" lon="35.61601">
        <ele>1396.511039</ele>
        <time>2021-11-16T08:27:52.482Z</time>
      </trkpt>
      <trkpt lat="38.69833" lon="35.60869">
        <ele>1367.382648</ele>
        <time>2021-11-16T08:31:00.992Z</time>
      </trkpt>
      <trkpt lat="38.70064" lon="35.60691">
        <ele>1356.281546</ele>
        <time>2021-11-16T08:31:42.442Z</time>
      </trkpt>
      <trkpt lat="38.70101" lon="35.60662">
        <ele>1354.572473</ele>
        <time>2021-11-16T08:31:49.271Z</time>
      </trkpt>
      <trkpt lat="38.70229" lon="35.60563">
        <ele>1350.364444</ele>
        <time>2021-11-16T08:32:14.074Z</time>
      </trkpt>
      <trkpt lat="38.70292" lon="35.60517">
        <ele>1348.591848</ele>
        <time>2021-11-16T08:32:27.109Z</time>
      </trkpt>
      <trkpt lat="38.70457" lon="35.60409">
        <ele>1344.788146</ele>
        <time>2021-11-16T08:33:00.202Z</time>
      </trkpt>
      <trkpt lat="38.70703" lon="35.60243">
        <ele>1334.574276</ele>
        <time>2021-11-16T08:33:45.235Z</time>
      </trkpt>
      <trkpt lat="38.71145" lon="35.59945">
        <ele>1303.556312</ele>
        <time>2021-11-16T08:34:57.630Z</time>
      </trkpt>
      <trkpt lat="38.71154" lon="35.59939">
        <ele>1302.876936</ele>
        <time>2021-11-16T08:34:58.985Z</time>
      </trkpt>
      <trkpt lat="38.71446" lon="35.59748">
        <ele>1278.897657</ele>
        <time>2021-11-16T08:35:45.895Z</time>
      </trkpt>
      <trkpt lat="38.71645" lon="35.59627">
        <ele>1260.528735</ele>
        <time>2021-11-16T08:36:15.847Z</time>
      </trkpt>
      <trkpt lat="38.7206" lon="35.59374">
        <ele>1230.230972</ele>
        <time>2021-11-16T08:37:22.940Z</time>
      </trkpt>
      <trkpt lat="38.72172" lon="35.59304">
        <ele>1225.018241</ele>
        <time>2021-11-16T08:37:42.854Z</time>
      </trkpt>
      <trkpt lat="38.72171" lon="35.59298">
        <ele>1224.828146</ele>
        <time>2021-11-16T08:37:43.499Z</time>
      </trkpt>
      <trkpt lat="38.72173" lon="35.59299">
        <ele>1224.752355</ele>
        <time>2021-11-16T08:37:43.768Z</time>
      </trkpt>
      <trkpt lat="38.72186" lon="35.5929">
        <ele>1224.162585</ele>
        <time>2021-11-16T08:37:46.015Z</time>
      </trkpt>
      <trkpt lat="38.72187" lon="35.59285">
        <ele>1224.010797</ele>
        <time>2021-11-16T08:37:46.590Z</time>
      </trkpt>
      <trkpt lat="38.72196" lon="35.59287">
        <ele>1223.609817</ele>
        <time>2021-11-16T08:37:48.397Z</time>
      </trkpt>
      <trkpt lat="38.72224" lon="35.59272">
        <ele>1222.269201</ele>
        <time>2021-11-16T08:37:53.087Z</time>
      </trkpt>
      <trkpt lat="38.72405" lon="35.59148">
        <ele>1212.509462</ele>
        <time>2021-11-16T08:38:24.294Z</time>
      </trkpt>
      <trkpt lat="38.72466" lon="35.59098">
        <ele>1208.761961</ele>
        <time>2021-11-16T08:38:35.123Z</time>
      </trkpt>
      <trkpt lat="38.72505" lon="35.59058">
        <ele>1206.168737</ele>
        <time>2021-11-16T08:38:42.624Z</time>
      </trkpt>
      <trkpt lat="38.72563" lon="35.58994">
        <ele>1202.679186</ele>
        <time>2021-11-16T08:38:54.102Z</time>
      </trkpt>
      <trkpt lat="38.72586" lon="35.58966">
        <ele>1201.292049</ele>
        <time>2021-11-16T08:38:58.859Z</time>
      </trkpt>
      <trkpt lat="38.72618" lon="35.58915">
        <ele>1199.046484</ele>
        <time>2021-11-16T08:39:06.698Z</time>
      </trkpt>
      <trkpt lat="38.72688" lon="35.58806">
        <ele>1195.951045</ele>
        <time>2021-11-16T08:39:25.190Z</time>
      </trkpt>
      <trkpt lat="38.72701" lon="35.58811">
        <ele>1195.667906</ele>
        <time>2021-11-16T08:39:27.857Z</time>
      </trkpt>
      <trkpt lat="38.72726" lon="35.58811">
        <ele>1195.152912</ele>
        <time>2021-11-16T08:39:32.505Z</time>
      </trkpt>
      <trkpt lat="38.72771" lon="35.58812">
        <ele>1194.211844</ele>
        <time>2021-11-16T08:39:41.476Z</time>
      </trkpt>
      <trkpt lat="38.72815" lon="35.58813">
        <ele>1193.308781</ele>
        <time>2021-11-16T08:39:50.089Z</time>
      </trkpt>
      <trkpt lat="38.72814" lon="35.58777">
        <ele>1192.725362</ele>
        <time>2021-11-16T08:39:55.227Z</time>
      </trkpt>
      <trkpt lat="38.72814" lon="35.5872">
        <ele>1191.784693</ele>
        <time>2021-11-16T08:40:03.715Z</time>
      </trkpt>
      <trkpt lat="38.72813" lon="35.58666">
        <ele>1190.909565</ele>
        <time>2021-11-16T08:40:11.218Z</time>
      </trkpt>
      <trkpt lat="38.72808" lon="35.58624">
        <ele>1190.209421</ele>
        <time>2021-11-16T08:40:17.064Z</time>
      </trkpt>
      <trkpt lat="38.72806" lon="35.58606">
        <ele>1189.887971</ele>
        <time>2021-11-16T08:40:19.571Z</time>
      </trkpt>
      <trkpt lat="38.72812" lon="35.58596">
        <ele>1189.654013</ele>
        <time>2021-11-16T08:40:21.060Z</time>
      </trkpt>
      <trkpt lat="38.72877" lon="35.58488">
        <ele>1187.039726</ele>
        <time>2021-11-16T08:40:38.632Z</time>
      </trkpt>
      <trkpt lat="38.72953" lon="35.58373">
        <ele>1184.97307</ele>
        <time>2021-11-16T08:41:00.138Z</time>
      </trkpt>
      <trkpt lat="38.72972" lon="35.58345">
        <ele>1184.654602</ele>
        <time>2021-11-16T08:41:05.891Z</time>
      </trkpt>
      <trkpt lat="38.72976" lon="35.58341">
        <ele>1184.605035</ele>
        <time>2021-11-16T08:41:06.894Z</time>
      </trkpt>
      <trkpt lat="38.72981" lon="35.58328">
        <ele>1184.477683</ele>
        <time>2021-11-16T08:41:09.179Z</time>
      </trkpt>
      <trkpt lat="38.72981" lon="35.58324">
        <ele>1184.44482</ele>
        <time>2021-11-16T08:41:09.863Z</time>
      </trkpt>
      <trkpt lat="38.73036" lon="35.58231">
        <ele>1183.351929</ele>
        <time>2021-11-16T08:41:28.206Z</time>
      </trkpt>
      <trkpt lat="38.73163" lon="35.58014">
        <ele>1178.471627</ele>
        <time>2021-11-16T08:42:05.894Z</time>
      </trkpt>
      <trkpt lat="38.7318" lon="35.5803">
        <ele>1177.538728</ele>
        <time>2021-11-16T08:42:09.362Z</time>
      </trkpt>
      <trkpt lat="38.73265" lon="35.57889">
        <ele>1171.018733</ele>
        <time>2021-11-16T08:42:30.891Z</time>
      </trkpt>
      <trkpt lat="38.73346" lon="35.57747">
        <ele>1163.12968</ele>
        <time>2021-11-16T08:42:51.787Z</time>
      </trkpt>
      <trkpt lat="38.73388" lon="35.5767">
        <ele>1160.227966</ele>
        <time>2021-11-16T08:43:03.935Z</time>
      </trkpt>
      <trkpt lat="38.73408" lon="35.57647">
        <ele>1159.267565</ele>
        <time>2021-11-16T08:43:08.472Z</time>
      </trkpt>
      <trkpt lat="38.73434" lon="35.57603">
        <ele>1157.738603</ele>
        <time>2021-11-16T08:43:15.843Z</time>
      </trkpt>
      <trkpt lat="38.73425" lon="35.57576">
        <ele>1156.928661</ele>
        <time>2021-11-16T08:43:19.759Z</time>
      </trkpt>
      <trkpt lat="38.73429" lon="35.57573">
        <ele>1156.77151</ele>
        <time>2021-11-16T08:43:20.508Z</time>
      </trkpt>
      <trkpt lat="38.73432" lon="35.57564">
        <ele>1156.481452</ele>
        <time>2021-11-16T08:43:21.913Z</time>
      </trkpt>
      <trkpt lat="38.73432" lon="35.57558">
        <ele>1156.334605</ele>
        <time>2021-11-16T08:43:22.611Z</time>
      </trkpt>
      <trkpt lat="38.73431" lon="35.57553">
        <ele>1156.187458</ele>
        <time>2021-11-16T08:43:23.312Z</time>
      </trkpt>
      <trkpt lat="38.73421" lon="35.57545">
        <ele>1155.816773</ele>
        <time>2021-11-16T08:43:25.323Z</time>
      </trkpt>
      <trkpt lat="38.73416" lon="35.57545">
        <ele>1155.700946</ele>
        <time>2021-11-16T08:43:26.037Z</time>
      </trkpt>
      <trkpt lat="38.73386" lon="35.57417">
        <ele>1152.838024</ele>
        <time>2021-11-16T08:43:44.916Z</time>
      </trkpt>
      <trkpt lat="38.73394" lon="35.57416">
        <ele>1152.618522</ele>
        <time>2021-11-16T08:43:46.265Z</time>
      </trkpt>
      <trkpt lat="38.73402" lon="35.57415">
        <ele>1152.39738</ele>
        <time>2021-11-16T08:43:47.590Z</time>
      </trkpt>
      <trkpt lat="38.7342" lon="35.57414">
        <ele>1151.911125</ele>
        <time>2021-11-16T08:43:50.497Z</time>
      </trkpt>
      <trkpt lat="38.73422" lon="35.57375">
        <ele>1151.066621</ele>
        <time>2021-11-16T08:43:55.674Z</time>
      </trkpt>
      <trkpt lat="38.73424" lon="35.57304">
        <ele>1148.554748</ele>
        <time>2021-11-16T08:44:04.659Z</time>
      </trkpt>
      <trkpt lat="38.73424" lon="35.57279">
        <ele>1147.663448</ele>
        <time>2021-11-16T08:44:07.807Z</time>
      </trkpt>
      <trkpt lat="38.73423" lon="35.57231">
        <ele>1145.922988</ele>
        <time>2021-11-16T08:44:13.915Z</time>
      </trkpt>
      <trkpt lat="38.73427" lon="35.57152">
        <ele>1143.099343</ele>
        <time>2021-11-16T08:44:23.711Z</time>
      </trkpt>
      <trkpt lat="38.73427" lon="35.57115">
        <ele>1141.333553</ele>
        <time>2021-11-16T08:44:28.120Z</time>
      </trkpt>
      <trkpt lat="38.7342" lon="35.5697">
        <ele>1133.751321</ele>
        <time>2021-11-16T08:44:45.283Z</time>
      </trkpt>
      <trkpt lat="38.73415" lon="35.56921">
        <ele>1131.187028</ele>
        <time>2021-11-16T08:44:50.983Z</time>
      </trkpt>
      <trkpt lat="38.73408" lon="35.56915">
        <ele>1130.567564</ele>
        <time>2021-11-16T08:44:52.307Z</time>
      </trkpt>
      <trkpt lat="38.73401" lon="35.5691">
        <ele>1129.931592</ele>
        <time>2021-11-16T08:44:53.596Z</time>
      </trkpt>
      <trkpt lat="38.73396" lon="35.56908">
        <ele>1129.555425</ele>
        <time>2021-11-16T08:44:54.324Z</time>
      </trkpt>
      <trkpt lat="38.73393" lon="35.56906">
        <ele>1129.297504</ele>
        <time>2021-11-16T08:44:54.775Z</time>
      </trkpt>
      <trkpt lat="38.73382" lon="35.56904">
        <ele>1128.440683</ele>
        <time>2021-11-16T08:44:56.428Z</time>
      </trkpt>
      <trkpt lat="38.73382" lon="35.56896">
        <ele>1127.952473</ele>
        <time>2021-11-16T08:44:57.359Z</time>
      </trkpt>
      <trkpt lat="38.73434" lon="35.56829">
        <ele>1122.248997</ele>
        <time>2021-11-16T08:45:08.199Z</time>
      </trkpt>
      <trkpt lat="38.73447" lon="35.56803">
        <ele>1120.405728</ele>
        <time>2021-11-16T08:45:11.636Z</time>
      </trkpt>
      <trkpt lat="38.73448" lon="35.56794">
        <ele>1119.837915</ele>
        <time>2021-11-16T08:45:12.694Z</time>
      </trkpt>
      <trkpt lat="38.73457" lon="35.56754">
        <ele>1117.340969</ele>
        <time>2021-11-16T08:45:17.500Z</time>
      </trkpt>
      <trkpt lat="38.73485" lon="35.56709">
        <ele>1115.05382</ele>
        <time>2021-11-16T08:45:24.461Z</time>
      </trkpt>
      <trkpt lat="38.73487" lon="35.56695">
        <ele>1114.553924</ele>
        <time>2021-11-16T08:45:26.224Z</time>
      </trkpt>
      <trkpt lat="38.7349" lon="35.56689">
        <ele>1114.301997</ele>
        <time>2021-11-16T08:45:26.978Z</time>
      </trkpt>
      <trkpt lat="38.73492" lon="35.56683">
        <ele>1114.051702</ele>
        <time>2021-11-16T08:45:27.822Z</time>
      </trkpt>
      <trkpt lat="38.73581" lon="35.56609">
        <ele>1109.071225</ele>
        <time>2021-11-16T08:45:45.084Z</time>
      </trkpt>
      <trkpt lat="38.73705" lon="35.56536">
        <ele>1105.51382</ele>
        <time>2021-11-16T08:46:09.917Z</time>
      </trkpt>
      <trkpt lat="38.73719" lon="35.56521">
        <ele>1105.096587</ele>
        <time>2021-11-16T08:46:13.221Z</time>
      </trkpt>
      <trkpt lat="38.73732" lon="35.56507">
        <ele>1104.680685</ele>
        <time>2021-11-16T08:46:16.423Z</time>
      </trkpt>
      <trkpt lat="38.73755" lon="35.56476">
        <ele>1103.841313</ele>
        <time>2021-11-16T08:46:22.587Z</time>
      </trkpt>
      <trkpt lat="38.73781" lon="35.56446">
        <ele>1102.877899</ele>
        <time>2021-11-16T08:46:28.757Z</time>
      </trkpt>
      <trkpt lat="38.73828" lon="35.5638">
        <ele>1100.974372</ele>
        <time>2021-11-16T08:46:40.693Z</time>
      </trkpt>
      <trkpt lat="38.73836" lon="35.56365">
        <ele>1100.573902</ele>
        <time>2021-11-16T08:46:43.212Z</time>
      </trkpt>
      <trkpt lat="38.73847" lon="35.56344">
        <ele>1100.032145</ele>
        <time>2021-11-16T08:46:46.574Z</time>
      </trkpt>
      <trkpt lat="38.73862" lon="35.56327">
        <ele>1099.473253</ele>
        <time>2021-11-16T08:46:50.128Z</time>
      </trkpt>
      <trkpt lat="38.73856" lon="35.563">
        <ele>1098.988288</ele>
        <time>2021-11-16T08:46:53.736Z</time>
      </trkpt>
      <trkpt lat="38.73868" lon="35.56268">
        <ele>1098.45491</ele>
        <time>2021-11-16T08:46:58.747Z</time>
      </trkpt>
      <trkpt lat="38.73885" lon="35.56228">
        <ele>1097.769644</ele>
        <time>2021-11-16T08:47:05.127Z</time>
      </trkpt>
      <trkpt lat="38.73861" lon="35.56217">
        <ele>1097.291012</ele>
        <time>2021-11-16T08:47:09.614Z</time>
      </trkpt>
      <trkpt lat="38.73846" lon="35.56185">
        <ele>1096.736116</ele>
        <time>2021-11-16T08:47:14.789Z</time>
      </trkpt>
      <trkpt lat="38.73847" lon="35.56179">
        <ele>1096.638255</ele>
        <time>2021-11-16T08:47:15.756Z</time>
      </trkpt>
      <trkpt lat="38.73851" lon="35.56073">
        <ele>1096.388021</ele>
        <time>2021-11-16T08:47:33.293Z</time>
      </trkpt>
      <trkpt lat="38.73861" lon="35.56044">
        <ele>1096.791666</ele>
        <time>2021-11-16T08:47:40.394Z</time>
      </trkpt>
      <trkpt lat="38.73884" lon="35.5601">
        <ele>1097.360908</ele>
        <time>2021-11-16T08:47:50.819Z</time>
      </trkpt>
      <trkpt lat="38.73886" lon="35.56007">
        <ele>1097.409185</ele>
        <time>2021-11-16T08:47:51.488Z</time>
      </trkpt>
      <trkpt lat="38.73888" lon="35.56004">
        <ele>1097.465507</ele>
        <time>2021-11-16T08:47:52.596Z</time>
      </trkpt>
      <trkpt lat="38.73894" lon="35.55987">
        <ele>1097.696105</ele>
        <time>2021-11-16T08:47:57.226Z</time>
      </trkpt>
      <trkpt lat="38.73897" lon="35.55978">
        <ele>1097.822262</ele>
        <time>2021-11-16T08:47:59.789Z</time>
      </trkpt>
      <trkpt lat="38.73898" lon="35.55968">
        <ele>1097.948198</ele>
        <time>2021-11-16T08:48:03.729Z</time>
      </trkpt>
      <trkpt lat="38.739" lon="35.55824">
        <ele>1100.161202</ele>
        <time>2021-11-16T08:48:43.060Z</time>
      </trkpt>
      <trkpt lat="38.73901" lon="35.55781">
        <ele>1100.906874</ele>
        <time>2021-11-16T08:48:55.172Z</time>
      </trkpt>
      <trkpt lat="38.73904" lon="35.55781">
        <ele>1100.984899</ele>
        <time>2021-11-16T08:48:56.005Z</time>
      </trkpt>
      <trkpt lat="38.73907" lon="35.55781">
        <ele>1101.060749</ele>
        <time>2021-11-16T08:48:57.358Z</time>
      </trkpt>
      <trkpt lat="38.73911" lon="35.55779">
        <ele>1101.137977</ele>
        <time>2021-11-16T08:48:58.054Z</time>
      </trkpt>
      <trkpt lat="38.73913" lon="35.55775">
        <ele>1101.214585</ele>
        <time>2021-11-16T08:48:59.324Z</time>
      </trkpt>
      <trkpt lat="38.73915" lon="35.55763">
        <ele>1101.439001</ele>
        <time>2021-11-16T08:49:02.084Z</time>
      </trkpt>
      <trkpt lat="38.73907" lon="35.55753">
        <ele>1101.662908</ele>
        <time>2021-11-16T08:49:05.110Z</time>
      </trkpt>
      <trkpt lat="38.73904" lon="35.55753">
        <ele>1101.738758</ele>
        <time>2021-11-16T08:49:06.175Z</time>
      </trkpt>
      <trkpt lat="38.73901" lon="35.55753">
        <ele>1101.816783</ele>
        <time>2021-11-16T08:49:07.224Z</time>
      </trkpt>
      <trkpt lat="38.73897" lon="35.55755">
        <ele>1101.893223</ele>
        <time>2021-11-16T08:49:08.255Z</time>
      </trkpt>
      <trkpt lat="38.73897" lon="35.55732">
        <ele>1102.293631</ele>
        <time>2021-11-16T08:49:13.097Z</time>
      </trkpt>
      <trkpt lat="38.739" lon="35.55657">
        <ele>1102.69266</ele>
        <time>2021-11-16T08:49:28.577Z</time>
      </trkpt>
      <trkpt lat="38.73915" lon="35.55527">
        <ele>1102.741053</ele>
        <time>2021-11-16T08:49:50.907Z</time>
      </trkpt>
      <trkpt lat="38.73911" lon="35.5543">
        <ele>1102.2938</ele>
        <time>2021-11-16T08:50:08.375Z</time>
      </trkpt>
      <trkpt lat="38.73909" lon="35.5541">
        <ele>1102.10807</ele>
        <time>2021-11-16T08:50:11.615Z</time>
      </trkpt>
      <trkpt lat="38.73906" lon="35.55389">
        <ele>1101.906505</ele>
        <time>2021-11-16T08:50:15.180Z</time>
      </trkpt>
      <trkpt lat="38.73894" lon="35.55301">
        <ele>1101.087375</ele>
        <time>2021-11-16T08:50:28.724Z</time>
      </trkpt>
      <trkpt lat="38.73893" lon="35.55294">
        <ele>1101.023801</ele>
        <time>2021-11-16T08:50:29.941Z</time>
      </trkpt>
      <trkpt lat="38.73888" lon="35.55259">
        <ele>1100.695093</ele>
        <time>2021-11-16T08:50:34.945Z</time>
      </trkpt>
      <trkpt lat="38.73874" lon="35.55158">
        <ele>1098.309288</ele>
        <time>2021-11-16T08:50:49.290Z</time>
      </trkpt>
      <trkpt lat="38.7386" lon="35.55073">
        <ele>1096.220584</ele>
        <time>2021-11-16T08:51:00.734Z</time>
      </trkpt>
      <trkpt lat="38.73858" lon="35.55056">
        <ele>1095.821616</ele>
        <time>2021-11-16T08:51:02.846Z</time>
      </trkpt>
      <trkpt lat="38.73852" lon="35.5502">
        <ele>1094.911811</ele>
        <time>2021-11-16T08:51:07.607Z</time>
      </trkpt>
      <trkpt lat="38.73847" lon="35.54987">
        <ele>1094.017346</ele>
        <time>2021-11-16T08:51:11.923Z</time>
      </trkpt>
      <trkpt lat="38.73836" lon="35.54908">
        <ele>1091.875052</ele>
        <time>2021-11-16T08:51:22.441Z</time>
      </trkpt>
      <trkpt lat="38.73829" lon="35.54863">
        <ele>1090.666427</ele>
        <time>2021-11-16T08:51:28.559Z</time>
      </trkpt>
      <trkpt lat="38.73822" lon="35.54811">
        <ele>1089.264992</ele>
        <time>2021-11-16T08:51:35.735Z</time>
      </trkpt>
      <trkpt lat="38.7382" lon="35.54795">
        <ele>1088.825871</ele>
        <time>2021-11-16T08:51:37.893Z</time>
      </trkpt>
      <trkpt lat="38.73811" lon="35.54724">
        <ele>1086.882165</ele>
        <time>2021-11-16T08:51:47.478Z</time>
      </trkpt>
      <trkpt lat="38.73805" lon="35.54675">
        <ele>1085.554839</ele>
        <time>2021-11-16T08:51:53.839Z</time>
      </trkpt>
      <trkpt lat="38.73796" lon="35.54602">
        <ele>1083.556396</ele>
        <time>2021-11-16T08:52:03.564Z</time>
      </trkpt>
      <trkpt lat="38.73788" lon="35.54533">
        <ele>1081.758112</ele>
        <time>2021-11-16T08:52:12.718Z</time>
      </trkpt>
      <trkpt lat="38.73782" lon="35.54481">
        <ele>1080.420292</ele>
        <time>2021-11-16T08:52:19.694Z</time>
      </trkpt>
      <trkpt lat="38.73778" lon="35.5445">
        <ele>1079.638341</ele>
        <time>2021-11-16T08:52:23.586Z</time>
      </trkpt>
      <trkpt lat="38.73766" lon="35.54368">
        <ele>1077.528857</ele>
        <time>2021-11-16T08:52:34.067Z</time>
      </trkpt>
      <trkpt lat="38.73749" lon="35.54248">
        <ele>1075.823797</ele>
        <time>2021-11-16T08:52:50.492Z</time>
      </trkpt>
      <trkpt lat="38.73742" lon="35.54195">
        <ele>1075.221164</ele>
        <time>2021-11-16T08:52:58.291Z</time>
      </trkpt>
      <trkpt lat="38.73736" lon="35.54146">
        <ele>1074.665114</ele>
        <time>2021-11-16T08:53:06.150Z</time>
      </trkpt>
      <trkpt lat="38.73726" lon="35.54074">
        <ele>1074.353828</ele>
        <time>2021-11-16T08:53:18.563Z</time>
      </trkpt>
      <trkpt lat="38.73725" lon="35.54068">
        <ele>1074.356108</ele>
        <time>2021-11-16T08:53:19.544Z</time>
      </trkpt>
      <trkpt lat="38.73719" lon="35.54021">
        <ele>1074.374363</ele>
        <time>2021-11-16T08:53:28.027Z</time>
      </trkpt>
      <trkpt lat="38.73716" lon="35.54004">
        <ele>1074.381085</ele>
        <time>2021-11-16T08:53:31.360Z</time>
      </trkpt>
      <trkpt lat="38.73714" lon="35.53987">
        <ele>1074.38759</ele>
        <time>2021-11-16T08:53:34.699Z</time>
      </trkpt>
      <trkpt lat="38.73708" lon="35.53944">
        <ele>1074.404106</ele>
        <time>2021-11-16T08:53:42.919Z</time>
      </trkpt>
      <trkpt lat="38.73702" lon="35.53902">
        <ele>1074.420464</ele>
        <time>2021-11-16T08:53:50.675Z</time>
      </trkpt>
      <trkpt lat="38.73701" lon="35.53891">
        <ele>1074.424717</ele>
        <time>2021-11-16T08:53:52.545Z</time>
      </trkpt>
      <trkpt lat="38.73684" lon="35.5377">
        <ele>1073.717294</ele>
        <time>2021-11-16T08:54:12.103Z</time>
      </trkpt>
      <trkpt lat="38.73679" lon="35.53732">
        <ele>1073.491395</ele>
        <time>2021-11-16T08:54:17.877Z</time>
      </trkpt>
      <trkpt lat="38.73677" lon="35.53722">
        <ele>1073.43001</ele>
        <time>2021-11-16T08:54:19.517Z</time>
      </trkpt>
      <trkpt lat="38.73605" lon="35.53731">
        <ele>1072.725211</ele>
        <time>2021-11-16T08:54:34.018Z</time>
      </trkpt>
      <trkpt lat="38.73551" lon="35.53738">
        <ele>1072.000107</ele>
        <time>2021-11-16T08:54:43.921Z</time>
      </trkpt>
      <trkpt lat="38.73539" lon="35.53663">
        <ele>1071.192064</ele>
        <time>2021-11-16T08:54:55.504Z</time>
      </trkpt>
      <trkpt lat="38.73527" lon="35.5368">
        <ele>1070.937155</ele>
        <time>2021-11-16T08:54:59.017Z</time>
      </trkpt>
      <trkpt lat="38.73494" lon="35.53697">
        <ele>1070.627715</ele>
        <time>2021-11-16T08:55:06.272Z</time>
      </trkpt>
      <trkpt lat="38.73457" lon="35.53626">
        <ele>1070.51479</ele>
        <time>2021-11-16T08:55:21.038Z</time>
      </trkpt>
      <trkpt lat="38.73435" lon="35.53606">
        <ele>1070.470097</ele>
        <time>2021-11-16T08:55:27.355Z</time>
      </trkpt>
      <trkpt lat="38.73432" lon="35.53609">
        <ele>1070.46399</ele>
        <time>2021-11-16T08:55:27.983Z</time>
      </trkpt>
      <trkpt lat="38.7339" lon="35.53541">
        <ele>1070.350501</ele>
        <time>2021-11-16T08:55:44.461Z</time>
      </trkpt>
      <trkpt lat="38.73387" lon="35.53546">
        <ele>1070.353433</ele>
        <time>2021-11-16T08:55:45.442Z</time>
      </trkpt>
      <trkpt lat="38.73375" lon="35.53558">
        <ele>1070.37829</ele>
        <time>2021-11-16T08:55:49.433Z</time>
      </trkpt>
      <trkpt lat="38.73373" lon="35.53559">
        <ele>1070.383607</ele>
        <time>2021-11-16T08:55:50.030Z</time>
      </trkpt>
      <trkpt lat="38.73365" lon="35.53544">
        <ele>1070.407193</ele>
        <time>2021-11-16T08:55:53.912Z</time>
      </trkpt>
      <trkpt lat="38.73362" lon="35.53533">
        <ele>1070.422315</ele>
        <time>2021-11-16T08:55:55.974Z</time>
      </trkpt>
      <trkpt lat="38.73364" lon="35.53521">
        <ele>1070.438929</ele>
        <time>2021-11-16T08:55:58.494Z</time>
      </trkpt>
      <trkpt lat="38.73357" lon="35.53486">
        <ele>1070.48627</ele>
        <time>2021-11-16T08:56:05.156Z</time>
      </trkpt>
      <trkpt lat="38.73337" lon="35.53389">
        <ele>1070.618843</ele>
        <time>2021-11-16T08:56:23.828Z</time>
      </trkpt>
      <trkpt lat="38.7333" lon="35.53391">
        <ele>1070.630397</ele>
        <time>2021-11-16T08:56:25.195Z</time>
      </trkpt>
      <trkpt lat="38.73282" lon="35.53404">
        <ele>1070.378201</ele>
        <time>2021-11-16T08:56:36.690Z</time>
      </trkpt>
      <trkpt lat="38.73273" lon="35.53407">
        <ele>1070.305662</ele>
        <time>2021-11-16T08:56:38.966Z</time>
      </trkpt>
      <trkpt lat="38.73265" lon="35.53405">
        <ele>1070.246164</ele>
        <time>2021-11-16T08:56:40.764Z</time>
      </trkpt>
      <trkpt lat="38.73263" lon="35.53403">
        <ele>1070.22599</ele>
        <time>2021-11-16T08:56:41.249Z</time>
      </trkpt>
      <trkpt lat="38.73261" lon="35.534">
        <ele>1070.206196</ele>
        <time>2021-11-16T08:56:41.894Z</time>
      </trkpt>
      <trkpt lat="38.73222" lon="35.53242">
        <ele>1069.192502</ele>
        <time>2021-11-16T08:57:07.661Z</time>
      </trkpt>
      <trkpt lat="38.73218" lon="35.53228">
        <ele>1069.056115</ele>
        <time>2021-11-16T08:57:09.902Z</time>
      </trkpt>
      <trkpt lat="38.73213" lon="35.53209">
        <ele>1068.85969</ele>
        <time>2021-11-16T08:57:13.156Z</time>
      </trkpt>
      <trkpt lat="38.73204" lon="35.53176">
        <ele>1068.527459</ele>
        <time>2021-11-16T08:57:18.579Z</time>
      </trkpt>
      <trkpt lat="38.73206" lon="35.53173">
        <ele>1068.489673</ele>
        <time>2021-11-16T08:57:19.154Z</time>
      </trkpt>
      <trkpt lat="38.73208" lon="35.5317">
        <ele>1068.452069</ele>
        <time>2021-11-16T08:57:19.751Z</time>
      </trkpt>
      <trkpt lat="38.73209" lon="35.53166">
        <ele>1068.413436</ele>
        <time>2021-11-16T08:57:20.328Z</time>
      </trkpt>
      <trkpt lat="38.73209" lon="35.53162">
        <ele>1068.37529</ele>
        <time>2021-11-16T08:57:20.871Z</time>
      </trkpt>
      <trkpt lat="38.73202" lon="35.5315">
        <ele>1068.230994</ele>
        <time>2021-11-16T08:57:23.237Z</time>
      </trkpt>
      <trkpt lat="38.73199" lon="35.5315">
        <ele>1068.192356</ele>
        <time>2021-11-16T08:57:23.796Z</time>
      </trkpt>
      <trkpt lat="38.7319" lon="35.53121">
        <ele>1067.901057</ele>
        <time>2021-11-16T08:57:28.196Z</time>
      </trkpt>
      <trkpt lat="38.73154" lon="35.53002">
        <ele>1066.903832</ele>
        <time>2021-11-16T08:57:46.673Z</time>
      </trkpt>
      <trkpt lat="38.73129" lon="35.52918">
        <ele>1066.483108</ele>
        <time>2021-11-16T08:58:00.757Z</time>
      </trkpt>
      <trkpt lat="38.73095" lon="35.52807">
        <ele>1066.054014</ele>
        <time>2021-11-16T08:58:21.095Z</time>
      </trkpt>
      <trkpt lat="38.73064" lon="35.52706">
        <ele>1066.123917</ele>
        <time>2021-11-16T08:58:40.147Z</time>
      </trkpt>
      <trkpt lat="38.73052" lon="35.52665">
        <ele>1066.152797</ele>
        <time>2021-11-16T08:58:47.884Z</time>
      </trkpt>
      <trkpt lat="38.73025" lon="35.52576">
        <ele>1066.280539</ele>
        <time>2021-11-16T08:59:04.807Z</time>
      </trkpt>
      <trkpt lat="38.72997" lon="35.52489">
        <ele>1066.497717</ele>
        <time>2021-11-16T08:59:23.164Z</time>
      </trkpt>
      <trkpt lat="38.72994" lon="35.52479">
        <ele>1066.522547</ele>
        <time>2021-11-16T08:59:25.217Z</time>
      </trkpt>
      <trkpt lat="38.72993" lon="35.52474">
        <ele>1066.533667</ele>
        <time>2021-11-16T08:59:26.114Z</time>
      </trkpt>
      <trkpt lat="38.72989" lon="35.52463">
        <ele>1066.560954</ele>
        <time>2021-11-16T08:59:28.176Z</time>
      </trkpt>
      <trkpt lat="38.72976" lon="35.52421">
        <ele>1066.665327</ele>
        <time>2021-11-16T08:59:36.516Z</time>
      </trkpt>
      <trkpt lat="38.72971" lon="35.52406">
        <ele>1066.702543</ele>
        <time>2021-11-16T08:59:39.585Z</time>
      </trkpt>
      <trkpt lat="38.72941" lon="35.52307">
        <ele>1066.174089</ele>
        <time>2021-11-16T08:59:57.010Z</time>
      </trkpt>
      <trkpt lat="38.72905" lon="35.52186">
        <ele>1065.459397</ele>
        <time>2021-11-16T09:00:16.659Z</time>
      </trkpt>
      <trkpt lat="38.72892" lon="35.52144">
        <ele>1065.028865</ele>
        <time>2021-11-16T09:00:22.989Z</time>
      </trkpt>
      <trkpt lat="38.72846" lon="35.51997">
        <ele>1063.495635</ele>
        <time>2021-11-16T09:00:45.765Z</time>
      </trkpt>
      <trkpt lat="38.72815" lon="35.51885">
        <ele>1063.091234</ele>
        <time>2021-11-16T09:01:04.401Z</time>
      </trkpt>
      <trkpt lat="38.72807" lon="35.51867">
        <ele>1063.062113</ele>
        <time>2021-11-16T09:01:07.969Z</time>
      </trkpt>
      <trkpt lat="38.72795" lon="35.5184">
        <ele>1063.018352</ele>
        <time>2021-11-16T09:01:13.721Z</time>
      </trkpt>
      <trkpt lat="38.72771" lon="35.51782">
        <ele>1062.924507</ele>
        <time>2021-11-16T09:01:26.511Z</time>
      </trkpt>
      <trkpt lat="38.72893" lon="35.51725">
        <ele>1062.789468</ele>
        <time>2021-11-16T09:01:55.153Z</time>
      </trkpt>
      <trkpt lat="38.72872" lon="35.51646">
        <ele>1062.729087</ele>
        <time>2021-11-16T09:02:10.518Z</time>
      </trkpt>
      <trkpt lat="38.72836" lon="35.51524">
        <ele>1063.04447</ele>
        <time>2021-11-16T09:02:34.238Z</time>
      </trkpt>
      <trkpt lat="38.72795" lon="35.51374">
        <ele>1063.428457</ele>
        <time>2021-11-16T09:03:06.315Z</time>
      </trkpt>
      <trkpt lat="38.72752" lon="35.51224">
        <ele>1063.795067</ele>
        <time>2021-11-16T09:03:36.974Z</time>
      </trkpt>
      <trkpt lat="38.72732" lon="35.51147">
        <ele>1063.485173</ele>
        <time>2021-11-16T09:03:50.912Z</time>
      </trkpt>
      <trkpt lat="38.72688" lon="35.51004">
        <ele>1062.696316</ele>
        <time>2021-11-16T09:04:15.171Z</time>
      </trkpt>
      <trkpt lat="38.7264" lon="35.50874">
        <ele>1062.062143</ele>
        <time>2021-11-16T09:04:38.979Z</time>
      </trkpt>
      <trkpt lat="38.72594" lon="35.50749">
        <ele>1061.616531</ele>
        <time>2021-11-16T09:05:02.033Z</time>
      </trkpt>
      <trkpt lat="38.72615" lon="35.50738">
        <ele>1061.602138</ele>
        <time>2021-11-16T09:05:07.075Z</time>
      </trkpt>
      <trkpt lat="38.72662" lon="35.50715">
        <ele>1061.570155</ele>
        <time>2021-11-16T09:05:18.744Z</time>
      </trkpt>
      <trkpt lat="38.72702" lon="35.50698">
        <ele>1061.543469</ele>
        <time>2021-11-16T09:05:28.257Z</time>
      </trkpt>
      <trkpt lat="38.72706" lon="35.50701">
        <ele>1061.541063</ele>
        <time>2021-11-16T09:05:29.128Z</time>
      </trkpt>
      <trkpt lat="38.7272" lon="35.50699">
        <ele>1061.531749</ele>
        <time>2021-11-16T09:05:32.327Z</time>
      </trkpt>
      <trkpt lat="38.72729" lon="35.50684">
        <ele>1061.523595</ele>
        <time>2021-11-16T09:05:35.525Z</time>
      </trkpt>
      <trkpt lat="38.7273" lon="35.50679">
        <ele>1061.524702</ele>
        <time>2021-11-16T09:05:36.363Z</time>
      </trkpt>
      <trkpt lat="38.72729" lon="35.50674">
        <ele>1061.525878</ele>
        <time>2021-11-16T09:05:37.235Z</time>
      </trkpt>
      <trkpt lat="38.72726" lon="35.50665">
        <ele>1061.528214</ele>
        <time>2021-11-16T09:05:38.887Z</time>
      </trkpt>
      <trkpt lat="38.72723" lon="35.50661">
        <ele>1061.529396</ele>
        <time>2021-11-16T09:05:39.752Z</time>
      </trkpt>
      <trkpt lat="38.72653" lon="35.50421">
        <ele>1061.585285</ele>
        <time>2021-11-16T09:06:24.670Z</time>
      </trkpt>
      <trkpt lat="38.72624" lon="35.50345">
        <ele>1061.600047</ele>
        <time>2021-11-16T09:06:39.437Z</time>
      </trkpt>
      <trkpt lat="38.72606" lon="35.50279">
        <ele>1061.612211</ele>
        <time>2021-11-16T09:06:51.820Z</time>
      </trkpt>
      <trkpt lat="38.72588" lon="35.50212">
        <ele>1061.512889</ele>
        <time>2021-11-16T09:07:03.990Z</time>
      </trkpt>
      <trkpt lat="38.7257" lon="35.50147">
        <ele>1061.364887</ele>
        <time>2021-11-16T09:07:15.613Z</time>
      </trkpt>
      <trkpt lat="38.72552" lon="35.50102">
        <ele>1061.255533</ele>
        <time>2021-11-16T09:07:24.179Z</time>
      </trkpt>
      <trkpt lat="38.72486" lon="35.49843">
        <ele>1059.957421</ele>
        <time>2021-11-16T09:08:06.573Z</time>
      </trkpt>
      <trkpt lat="38.72459" lon="35.49747">
        <ele>1059.510773</ele>
        <time>2021-11-16T09:08:22.219Z</time>
      </trkpt>
      <trkpt lat="38.7239" lon="35.49498">
        <ele>1058.716826</ele>
        <time>2021-11-16T09:09:05.607Z</time>
      </trkpt>
      <trkpt lat="38.72375" lon="35.49439">
        <ele>1058.614559</ele>
        <time>2021-11-16T09:09:16.384Z</time>
      </trkpt>
      <trkpt lat="38.7236" lon="35.49385">
        <ele>1058.523891</ele>
        <time>2021-11-16T09:09:26.051Z</time>
      </trkpt>
      <trkpt lat="38.72345" lon="35.49341">
        <ele>1058.473254</ele>
        <time>2021-11-16T09:09:34.130Z</time>
      </trkpt>
      <trkpt lat="38.72286" lon="35.49129">
        <ele>1058.277517</ele>
        <time>2021-11-16T09:10:12.388Z</time>
      </trkpt>
      <trkpt lat="38.72258" lon="35.49027">
        <ele>1058.260422</ele>
        <time>2021-11-16T09:10:31.431Z</time>
      </trkpt>
      <trkpt lat="38.72254" lon="35.49015">
        <ele>1058.258508</ele>
        <time>2021-11-16T09:10:33.521Z</time>
      </trkpt>
      <trkpt lat="38.72237" lon="35.48919">
        <ele>1058.199419</ele>
        <time>2021-11-16T09:10:50.482Z</time>
      </trkpt>
      <trkpt lat="38.72237" lon="35.48914">
        <ele>1058.191724</ele>
        <time>2021-11-16T09:10:51.431Z</time>
      </trkpt>
      <trkpt lat="38.72237" lon="35.48903">
        <ele>1058.176316</ele>
        <time>2021-11-16T09:10:53.239Z</time>
      </trkpt>
      <trkpt lat="38.72235" lon="35.48898">
        <ele>1058.168578</ele>
        <time>2021-11-16T09:10:54.117Z</time>
      </trkpt>
      <trkpt lat="38.72234" lon="35.48891">
        <ele>1058.15763</ele>
        <time>2021-11-16T09:10:55.268Z</time>
      </trkpt>
      <trkpt lat="38.72238" lon="35.4886">
        <ele>1058.114173</ele>
        <time>2021-11-16T09:11:00.317Z</time>
      </trkpt>
      <trkpt lat="38.72265" lon="35.48798">
        <ele>1058.014229</ele>
        <time>2021-11-16T09:11:11.892Z</time>
      </trkpt>
      <trkpt lat="38.72284" lon="35.48736">
        <ele>1057.92601</ele>
        <time>2021-11-16T09:11:23.568Z</time>
      </trkpt>
      <trkpt lat="38.72286" lon="35.48703">
        <ele>1058.035638</ele>
        <time>2021-11-16T09:11:28.986Z</time>
      </trkpt>
      <trkpt lat="38.72287" lon="35.48699">
        <ele>1058.050279</ele>
        <time>2021-11-16T09:11:29.910Z</time>
      </trkpt>
      <trkpt lat="38.72284" lon="35.48683">
        <ele>1058.106885</ele>
        <time>2021-11-16T09:11:32.911Z</time>
      </trkpt>
      <trkpt lat="38.72276" lon="35.48675">
        <ele>1058.150211</ele>
        <time>2021-11-16T09:11:35.086Z</time>
      </trkpt>
      <trkpt lat="38.72273" lon="35.48675">
        <ele>1058.164968</ele>
        <time>2021-11-16T09:11:35.941Z</time>
      </trkpt>
      <trkpt lat="38.72214" lon="35.48641">
        <ele>1058.441769</ele>
        <time>2021-11-16T09:11:51.645Z</time>
      </trkpt>
      <trkpt lat="38.72183" lon="35.48581">
        <ele>1058.681254</ele>
        <time>2021-11-16T09:12:05.732Z</time>
      </trkpt>
      <trkpt lat="38.72178" lon="35.48567">
        <ele>1058.702553</ele>
        <time>2021-11-16T09:12:08.930Z</time>
      </trkpt>
      <trkpt lat="38.72175" lon="35.48555">
        <ele>1058.713155</ele>
        <time>2021-11-16T09:12:11.552Z</time>
      </trkpt>
      <trkpt lat="38.7215" lon="35.48473">
        <ele>1058.786856</ele>
        <time>2021-11-16T09:12:28.374Z</time>
      </trkpt>
      <trkpt lat="38.72175" lon="35.48462">
        <ele>1058.815613</ele>
        <time>2021-11-16T09:12:34.518Z</time>
      </trkpt>
      <trkpt lat="38.72168" lon="35.48436">
        <ele>1058.838892</ele>
        <time>2021-11-16T09:12:39.327Z</time>
      </trkpt>
      <trkpt lat="38.72161" lon="35.48411">
        <ele>1058.861272</ele>
        <time>2021-11-16T09:12:43.814Z</time>
      </trkpt>
      <trkpt lat="38.72153" lon="35.48386">
        <ele>1058.883536</ele>
        <time>2021-11-16T09:12:48.189Z</time>
      </trkpt>
      <trkpt lat="38.72146" lon="35.48361">
        <ele>1058.699536</ele>
        <time>2021-11-16T09:12:52.591Z</time>
      </trkpt>
      <trkpt lat="38.72122" lon="35.48372">
        <ele>1058.450756</ele>
        <time>2021-11-16T09:12:57.849Z</time>
      </trkpt>
      <trkpt lat="38.72086" lon="35.48275">
        <ele>1057.637037</ele>
        <time>2021-11-16T09:13:14.001Z</time>
      </trkpt>
      <trkpt lat="38.72087" lon="35.48269">
        <ele>1057.591604</ele>
        <time>2021-11-16T09:13:14.859Z</time>
      </trkpt>
      <trkpt lat="38.72087" lon="35.48257">
        <ele>1057.50207</ele>
        <time>2021-11-16T09:13:16.652Z</time>
      </trkpt>
      <trkpt lat="38.72085" lon="35.48252">
        <ele>1057.457277</ele>
        <time>2021-11-16T09:13:17.502Z</time>
      </trkpt>
      <trkpt lat="38.7207" lon="35.48198">
        <ele>1057.000719</ele>
        <time>2021-11-16T09:13:25.896Z</time>
      </trkpt>
      <trkpt lat="38.72073" lon="35.48163">
        <ele>1056.679282</ele>
        <time>2021-11-16T09:13:31.097Z</time>
      </trkpt>
      <trkpt lat="38.72087" lon="35.48118">
        <ele>1056.242053</ele>
        <time>2021-11-16T09:13:38.148Z</time>
      </trkpt>
      <trkpt lat="38.72129" lon="35.48139">
        <ele>1055.710365</ele>
        <time>2021-11-16T09:13:47.153Z</time>
      </trkpt>
      <trkpt lat="38.72182" lon="35.48096">
        <ele>1055.002559</ele>
        <time>2021-11-16T09:13:59.499Z</time>
      </trkpt>
      <trkpt lat="38.72199" lon="35.48076">
        <ele>1054.8112</ele>
        <time>2021-11-16T09:14:04.092Z</time>
      </trkpt>
      <trkpt lat="38.72249" lon="35.48046">
        <ele>1054.358487</ele>
        <time>2021-11-16T09:14:15.058Z</time>
      </trkpt>
      <trkpt lat="38.72268" lon="35.47976">
        <ele>1053.880246</ele>
        <time>2021-11-16T09:14:27.025Z</time>
      </trkpt>
      <trkpt lat="38.72291" lon="35.47986">
        <ele>1053.681253</ele>
        <time>2021-11-16T09:14:32.102Z</time>
      </trkpt>
      <trkpt lat="38.72355" lon="35.47723">
        <ele>1053.682521</ele>
        <time>2021-11-16T09:15:22.669Z</time>
      </trkpt>
      <trkpt lat="38.72336" lon="35.47714">
        <ele>1053.736021</ele>
        <time>2021-11-16T09:15:27.937Z</time>
      </trkpt>
      <trkpt lat="38.72272" lon="35.47687">
        <ele>1053.90604</ele>
        <time>2021-11-16T09:15:44.600Z</time>
      </trkpt>
      <trkpt lat="38.72315" lon="35.47523">
        <ele>1053.86565</ele>
        <time>2021-11-16T09:16:16.560Z</time>
      </trkpt>
      <trkpt lat="38.72342" lon="35.47421">
        <ele>1053.568421</ele>
        <time>2021-11-16T09:16:34.423Z</time>
      </trkpt>
      <trkpt lat="38.72369" lon="35.47319">
        <ele>1053.135628</ele>
        <time>2021-11-16T09:16:51.781Z</time>
      </trkpt>
      <trkpt lat="38.72389" lon="35.4724">
        <ele>1052.733719</ele>
        <time>2021-11-16T09:17:05.442Z</time>
      </trkpt>
      <trkpt lat="38.72411" lon="35.47157">
        <ele>1052.327446</ele>
        <time>2021-11-16T09:17:20.132Z</time>
      </trkpt>
      <trkpt lat="38.72418" lon="35.47119">
        <ele>1052.252887</ele>
        <time>2021-11-16T09:17:26.783Z</time>
      </trkpt>
      <trkpt lat="38.72424" lon="35.47091">
        <ele>1052.198435</ele>
        <time>2021-11-16T09:17:31.638Z</time>
      </trkpt>
      <trkpt lat="38.72429" lon="35.47064">
        <ele>1052.146122</ele>
        <time>2021-11-16T09:17:36.334Z</time>
      </trkpt>
      <trkpt lat="38.72434" lon="35.47038">
        <ele>1052.096006</ele>
        <time>2021-11-16T09:17:40.956Z</time>
      </trkpt>
      <trkpt lat="38.72441" lon="35.47012">
        <ele>1052.043493</ele>
        <time>2021-11-16T09:17:45.890Z</time>
      </trkpt>
      <trkpt lat="38.72446" lon="35.46987">
        <ele>1051.994727</ele>
        <time>2021-11-16T09:17:50.453Z</time>
      </trkpt>
      <trkpt lat="38.72451" lon="35.46959">
        <ele>1051.940644</ele>
        <time>2021-11-16T09:17:55.665Z</time>
      </trkpt>
      <trkpt lat="38.72463" lon="35.46904">
        <ele>1051.925174</ele>
        <time>2021-11-16T09:18:06.082Z</time>
      </trkpt>
      <trkpt lat="38.72409" lon="35.46885">
        <ele>1051.971179</ele>
        <time>2021-11-16T09:18:19.065Z</time>
      </trkpt>
      <trkpt lat="38.72475" lon="35.4657">
        <ele>1052.157226</ele>
        <time>2021-11-16T09:19:17.010Z</time>
      </trkpt>
      <trkpt lat="38.72481" lon="35.46563">
        <ele>1052.162672</ele>
        <time>2021-11-16T09:19:18.861Z</time>
      </trkpt>
      <trkpt lat="38.72488" lon="35.46554">
        <ele>1052.169312</ele>
        <time>2021-11-16T09:19:20.995Z</time>
      </trkpt>
      <trkpt lat="38.72495" lon="35.46546">
        <ele>1052.136722</ele>
        <time>2021-11-16T09:19:22.971Z</time>
      </trkpt>
      <trkpt lat="38.72502" lon="35.46539">
        <ele>1052.093866</ele>
        <time>2021-11-16T09:19:24.849Z</time>
      </trkpt>
      <trkpt lat="38.72509" lon="35.46533">
        <ele>1052.051273</ele>
        <time>2021-11-16T09:19:26.718Z</time>
      </trkpt>
      <trkpt lat="38.72517" lon="35.46528">
        <ele>1052.008516</ele>
        <time>2021-11-16T09:19:28.539Z</time>
      </trkpt>
      <trkpt lat="38.72522" lon="35.46524">
        <ele>1051.979276</ele>
        <time>2021-11-16T09:19:29.727Z</time>
      </trkpt>
      <trkpt lat="38.72522" lon="35.46523">
        <ele>1051.974602</ele>
        <time>2021-11-16T09:19:29.911Z</time>
      </trkpt>
      <trkpt lat="38.72526" lon="35.46519">
        <ele>1051.950339</ele>
        <time>2021-11-16T09:19:30.838Z</time>
      </trkpt>
      <trkpt lat="38.72537" lon="35.46499">
        <ele>1051.855885</ele>
        <time>2021-11-16T09:19:34.913Z</time>
      </trkpt>
      <trkpt lat="38.7254" lon="35.46491">
        <ele>1051.819253</ele>
        <time>2021-11-16T09:19:36.406Z</time>
      </trkpt>
      <trkpt lat="38.72542" lon="35.46482">
        <ele>1051.782427</ele>
        <time>2021-11-16T09:19:37.828Z</time>
      </trkpt>
      <trkpt lat="38.72544" lon="35.46465">
        <ele>1051.716103</ele>
        <time>2021-11-16T09:19:40.633Z</time>
      </trkpt>
      <trkpt lat="38.72544" lon="35.46457">
        <ele>1051.686095</ele>
        <time>2021-11-16T09:19:41.817Z</time>
      </trkpt>
      <trkpt lat="38.72538" lon="35.46403">
        <ele>1051.471933</ele>
        <time>2021-11-16T09:19:50.386Z</time>
      </trkpt>
      <trkpt lat="38.72538" lon="35.46346">
        <ele>1051.268588</ele>
        <time>2021-11-16T09:19:59.037Z</time>
      </trkpt>
      <trkpt lat="38.72552" lon="35.46207">
        <ele>1051.122052</ele>
        <time>2021-11-16T09:20:22.391Z</time>
      </trkpt>
      <trkpt lat="38.72595" lon="35.46016">
        <ele>1051.354353</ele>
        <time>2021-11-16T09:20:58.012Z</time>
      </trkpt>
      <trkpt lat="38.7269" lon="35.45541">
        <ele>1052.877761</ele>
        <time>2021-11-16T09:22:29.682Z</time>
      </trkpt>
      <trkpt lat="38.72691" lon="35.45537">
        <ele>1052.893014</ele>
        <time>2021-11-16T09:22:30.529Z</time>
      </trkpt>
      <trkpt lat="38.72716" lon="35.45444">
        <ele>1053.240109</ele>
        <time>2021-11-16T09:22:49.594Z</time>
      </trkpt>
      <trkpt lat="38.72742" lon="35.45356">
        <ele>1053.428224</ele>
        <time>2021-11-16T09:23:07.096Z</time>
      </trkpt>
      <trkpt lat="38.72759" lon="35.45337">
        <ele>1053.48596</ele>
        <time>2021-11-16T09:23:12.490Z</time>
      </trkpt>
      <trkpt lat="38.72778" lon="35.45274">
        <ele>1053.622058</ele>
        <time>2021-11-16T09:23:24.846Z</time>
      </trkpt>
      <trkpt lat="38.72787" lon="35.45247">
        <ele>1053.664974</ele>
        <time>2021-11-16T09:23:30.171Z</time>
      </trkpt>
      <trkpt lat="38.72797" lon="35.4522">
        <ele>1053.626482</ele>
        <time>2021-11-16T09:23:35.485Z</time>
      </trkpt>
      <trkpt lat="38.7282" lon="35.45162">
        <ele>1053.543737</ele>
        <time>2021-11-16T09:23:46.725Z</time>
      </trkpt>
      <trkpt lat="38.72825" lon="35.45153">
        <ele>1053.529397</ele>
        <time>2021-11-16T09:23:48.552Z</time>
      </trkpt>
      <trkpt lat="38.72868" lon="35.45063">
        <ele>1053.395586</ele>
        <time>2021-11-16T09:24:06.795Z</time>
      </trkpt>
      <trkpt lat="38.72909" lon="35.4498">
        <ele>1053.335767</ele>
        <time>2021-11-16T09:24:24.890Z</time>
      </trkpt>
      <trkpt lat="38.7296" lon="35.45001">
        <ele>1053.301623</ele>
        <time>2021-11-16T09:24:37.592Z</time>
      </trkpt>
      <trkpt lat="38.73039" lon="35.45029">
        <ele>1053.152132</ele>
        <time>2021-11-16T09:24:55.956Z</time>
      </trkpt>
      <trkpt lat="38.73173" lon="35.45078">
        <ele>1052.423497</ele>
        <time>2021-11-16T09:25:25.583Z</time>
      </trkpt>
      <trkpt lat="38.7326" lon="35.45108">
        <ele>1051.821664</ele>
        <time>2021-11-16T09:25:44.241Z</time>
      </trkpt>
      <trkpt lat="38.73309" lon="35.45124">
        <ele>1051.46325</ele>
        <time>2021-11-16T09:25:54.858Z</time>
      </trkpt>
      <trkpt lat="38.73345" lon="35.45136">
        <ele>1051.203786</ele>
        <time>2021-11-16T09:26:02.609Z</time>
      </trkpt>
      <trkpt lat="38.73357" lon="35.45135">
        <ele>1051.11593</ele>
        <time>2021-11-16T09:26:05.250Z</time>
      </trkpt>
      <trkpt lat="38.73408" lon="35.4498">
        <ele>1050.387363</ele>
        <time>2021-11-16T09:26:32.819Z</time>
      </trkpt>
      <trkpt lat="38.73459" lon="35.44803">
        <ele>1049.925619</ele>
        <time>2021-11-16T09:27:04.829Z</time>
      </trkpt>
      <trkpt lat="38.7348" lon="35.44742">
        <ele>1049.84238</ele>
        <time>2021-11-16T09:27:16.982Z</time>
      </trkpt>
      <trkpt lat="38.73501" lon="35.44675">
        <ele>1049.782848</ele>
        <time>2021-11-16T09:27:30.502Z</time>
      </trkpt>
      <trkpt lat="38.73523" lon="35.44609">
        <ele>1049.790571</ele>
        <time>2021-11-16T09:27:43.767Z</time>
      </trkpt>
      <trkpt lat="38.73545" lon="35.44541">
        <ele>1049.798374</ele>
        <time>2021-11-16T09:27:56.954Z</time>
      </trkpt>
      <trkpt lat="38.73568" lon="35.44475">
        <ele>1049.791998</ele>
        <time>2021-11-16T09:28:09.726Z</time>
      </trkpt>
      <trkpt lat="38.73591" lon="35.44403">
        <ele>1049.687142</ele>
        <time>2021-11-16T09:28:23.491Z</time>
      </trkpt>
      <trkpt lat="38.73616" lon="35.44327">
        <ele>1049.575001</ele>
        <time>2021-11-16T09:28:37.646Z</time>
      </trkpt>
      <trkpt lat="38.73636" lon="35.44266">
        <ele>1049.49978</ele>
        <time>2021-11-16T09:28:49.215Z</time>
      </trkpt>
      <trkpt lat="38.73657" lon="35.44204">
        <ele>1049.605547</ele>
        <time>2021-11-16T09:29:01.637Z</time>
      </trkpt>
      <trkpt lat="38.73679" lon="35.44136">
        <ele>1049.722755</ele>
        <time>2021-11-16T09:29:15.633Z</time>
      </trkpt>
      <trkpt lat="38.73701" lon="35.4407">
        <ele>1049.835185</ele>
        <time>2021-11-16T09:29:29.271Z</time>
      </trkpt>
      <trkpt lat="38.73722" lon="35.44004">
        <ele>1050.044722</ele>
        <time>2021-11-16T09:29:43.229Z</time>
      </trkpt>
      <trkpt lat="38.73745" lon="35.43935">
        <ele>1050.284125</ele>
        <time>2021-11-16T09:29:58.172Z</time>
      </trkpt>
      <trkpt lat="38.73766" lon="35.43868">
        <ele>1050.516065</ele>
        <time>2021-11-16T09:30:11.913Z</time>
      </trkpt>
      <trkpt lat="38.73788" lon="35.438">
        <ele>1050.551328</ele>
        <time>2021-11-16T09:30:25.589Z</time>
      </trkpt>
      <trkpt lat="38.7381" lon="35.43732">
        <ele>1050.490316</ele>
        <time>2021-11-16T09:30:38.947Z</time>
      </trkpt>
      <trkpt lat="38.73832" lon="35.43665">
        <ele>1050.429382</ele>
        <time>2021-11-16T09:30:51.693Z</time>
      </trkpt>
      <trkpt lat="38.73855" lon="35.43597">
        <ele>1050.365137</ele>
        <time>2021-11-16T09:31:03.960Z</time>
      </trkpt>
      <trkpt lat="38.73869" lon="35.43552">
        <ele>1050.321573</ele>
        <time>2021-11-16T09:31:12.138Z</time>
      </trkpt>
      <trkpt lat="38.73884" lon="35.43508">
        <ele>1050.277622</ele>
        <time>2021-11-16T09:31:20.794Z</time>
      </trkpt>
      <trkpt lat="38.73888" lon="35.43496">
        <ele>1050.265821</ele>
        <time>2021-11-16T09:31:23.138Z</time>
      </trkpt>
      <trkpt lat="38.73892" lon="35.43468">
        <ele>1050.240339</ele>
        <time>2021-11-16T09:31:28.280Z</time>
      </trkpt>
      <trkpt lat="38.73918" lon="35.43383">
        <ele>1050.285586</ele>
        <time>2021-11-16T09:31:45.232Z</time>
      </trkpt>
      <trkpt lat="38.73972" lon="35.43224">
        <ele>1050.721117</ele>
        <time>2021-11-16T09:32:18.481Z</time>
      </trkpt>
      <trkpt lat="38.73994" lon="35.43161">
        <ele>1050.90322</ele>
        <time>2021-11-16T09:32:31.910Z</time>
      </trkpt>
      <trkpt lat="38.74016" lon="35.43097">
        <ele>1051.090133</ele>
        <time>2021-11-16T09:32:45.391Z</time>
      </trkpt>
      <trkpt lat="38.74037" lon="35.43035">
        <ele>1051.273649</ele>
        <time>2021-11-16T09:32:58.290Z</time>
      </trkpt>
      <trkpt lat="38.74059" lon="35.42972">
        <ele>1051.456423</ele>
        <time>2021-11-16T09:33:11.353Z</time>
      </trkpt>
      <trkpt lat="38.74079" lon="35.42911">
        <ele>1051.628764</ele>
        <time>2021-11-16T09:33:23.936Z</time>
      </trkpt>
      <trkpt lat="38.741" lon="35.42845">
        <ele>1051.81508</ele>
        <time>2021-11-16T09:33:37.679Z</time>
      </trkpt>
      <trkpt lat="38.74122" lon="35.42778">
        <ele>1051.996943</ele>
        <time>2021-11-16T09:33:51.551Z</time>
      </trkpt>
      <trkpt lat="38.74141" lon="35.42719">
        <ele>1052.076413</ele>
        <time>2021-11-16T09:34:03.841Z</time>
      </trkpt>
      <trkpt lat="38.74168" lon="35.42626">
        <ele>1052.199755</ele>
        <time>2021-11-16T09:34:22.513Z</time>
      </trkpt>
      <trkpt lat="38.74191" lon="35.42567">
        <ele>1052.26892</ele>
        <time>2021-11-16T09:34:34.368Z</time>
      </trkpt>
      <trkpt lat="38.74213" lon="35.42511">
        <ele>1052.13194</ele>
        <time>2021-11-16T09:34:45.121Z</time>
      </trkpt>
      <trkpt lat="38.74242" lon="35.42437">
        <ele>1051.949082</ele>
        <time>2021-11-16T09:34:59.297Z</time>
      </trkpt>
      <trkpt lat="38.74179" lon="35.42398">
        <ele>1051.792845</ele>
        <time>2021-11-16T09:35:14.589Z</time>
      </trkpt>
      <trkpt lat="38.74156" lon="35.42383">
        <ele>1051.879363</ele>
        <time>2021-11-16T09:35:20.243Z</time>
      </trkpt>
      <trkpt lat="38.74188" lon="35.42303">
        <ele>1052.116583</ele>
        <time>2021-11-16T09:35:36.512Z</time>
      </trkpt>
      <trkpt lat="38.74194" lon="35.42275">
        <ele>1052.190755</ele>
        <time>2021-11-16T09:35:42.369Z</time>
      </trkpt>
      <trkpt lat="38.7419" lon="35.42244">
        <ele>1052.274828</ele>
        <time>2021-11-16T09:35:49.278Z</time>
      </trkpt>
      <trkpt lat="38.74163" lon="35.42203">
        <ele>1052.472529</ele>
        <time>2021-11-16T09:36:00.688Z</time>
      </trkpt>
      <trkpt lat="38.74154" lon="35.42192">
        <ele>1052.573095</ele>
        <time>2021-11-16T09:36:03.879Z</time>
      </trkpt>
      <trkpt lat="38.7412" lon="35.42171">
        <ele>1052.891311</ele>
        <time>2021-11-16T09:36:13.860Z</time>
      </trkpt>
      <trkpt lat="38.7411" lon="35.42164">
        <ele>1052.983625</ele>
        <time>2021-11-16T09:36:16.923Z</time>
      </trkpt>
      <trkpt lat="38.74097" lon="35.42149">
        <ele>1053.129601</ele>
        <time>2021-11-16T09:36:21.407Z</time>
      </trkpt>
      <trkpt lat="38.7408" lon="35.42134">
        <ele>1053.294954</ele>
        <time>2021-11-16T09:36:26.611Z</time>
      </trkpt>
      <trkpt lat="38.74152" lon="35.41949">
        <ele>1054.03125</ele>
        <time>2021-11-16T09:37:06.478Z</time>
      </trkpt>
      <trkpt lat="38.74224" lon="35.41753">
        <ele>1053.884077</ele>
        <time>2021-11-16T09:37:42.091Z</time>
      </trkpt>
      <trkpt lat="38.74285" lon="35.41593">
        <ele>1053.297167</ele>
        <time>2021-11-16T09:38:11.255Z</time>
      </trkpt>
      <trkpt lat="38.74255" lon="35.41566">
        <ele>1053.09971</ele>
        <time>2021-11-16T09:38:18.511Z</time>
      </trkpt>
      <trkpt lat="38.74312" lon="35.41417">
        <ele>1052.369811</ele>
        <time>2021-11-16T09:38:44.757Z</time>
      </trkpt>
      <trkpt lat="38.74361" lon="35.41284">
        <ele>1051.60345</ele>
        <time>2021-11-16T09:39:08.209Z</time>
      </trkpt>
      <trkpt lat="38.7442" lon="35.41121">
        <ele>1050.432433</ele>
        <time>2021-11-16T09:39:35.162Z</time>
      </trkpt>
      <trkpt lat="38.74449" lon="35.41039">
        <ele>1049.797262</ele>
        <time>2021-11-16T09:39:49.135Z</time>
      </trkpt>
      <trkpt lat="38.74469" lon="35.4098">
        <ele>1049.446976</ele>
        <time>2021-11-16T09:39:59.081Z</time>
      </trkpt>
      <trkpt lat="38.74487" lon="35.40952">
        <ele>1049.25581</ele>
        <time>2021-11-16T09:40:04.850Z</time>
      </trkpt>
      <trkpt lat="38.74514" lon="35.40877">
        <ele>1048.830938</ele>
        <time>2021-11-16T09:40:17.373Z</time>
      </trkpt>
      <trkpt lat="38.74548" lon="35.40769">
        <ele>1048.424841</ele>
        <time>2021-11-16T09:40:36.203Z</time>
      </trkpt>
      <trkpt lat="38.7452" lon="35.40748">
        <ele>1048.353032</ele>
        <time>2021-11-16T09:40:43.421Z</time>
      </trkpt>
      <trkpt lat="38.74537" lon="35.40691">
        <ele>1048.246623</ele>
        <time>2021-11-16T09:40:54.361Z</time>
      </trkpt>
      <trkpt lat="38.7455" lon="35.40649">
        <ele>1048.167948</ele>
        <time>2021-11-16T09:41:02.588Z</time>
      </trkpt>
      <trkpt lat="38.74552" lon="35.40642">
        <ele>1048.156224</ele>
        <time>2021-11-16T09:41:03.790Z</time>
      </trkpt>
      <trkpt lat="38.74565" lon="35.40562">
        <ele>1048.091848</ele>
        <time>2021-11-16T09:41:17.944Z</time>
      </trkpt>
      <trkpt lat="38.74601" lon="35.40453">
        <ele>1048.031133</ele>
        <time>2021-11-16T09:41:39.738Z</time>
      </trkpt>
      <trkpt lat="38.74607" lon="35.40435">
        <ele>1048.020562</ele>
        <time>2021-11-16T09:41:43.614Z</time>
      </trkpt>
      <trkpt lat="38.74624" lon="35.40383">
        <ele>1047.847184</ele>
        <time>2021-11-16T09:41:53.532Z</time>
      </trkpt>
      <trkpt lat="38.74638" lon="35.40341">
        <ele>1047.585451</ele>
        <time>2021-11-16T09:42:00.847Z</time>
      </trkpt>
      <trkpt lat="38.74642" lon="35.40329">
        <ele>1047.50779</ele>
        <time>2021-11-16T09:42:03.107Z</time>
      </trkpt>
      <trkpt lat="38.74708" lon="35.40365">
        <ele>1046.979322</ele>
        <time>2021-11-16T09:42:16.530Z</time>
      </trkpt>
      <trkpt lat="38.74736" lon="35.40381">
        <ele>1046.753381</ele>
        <time>2021-11-16T09:42:22.365Z</time>
      </trkpt>
      <trkpt lat="38.74736" lon="35.40388">
        <ele>1046.713831</ele>
        <time>2021-11-16T09:42:23.486Z</time>
      </trkpt>
      <trkpt lat="38.74738" lon="35.40394">
        <ele>1046.675245</ele>
        <time>2021-11-16T09:42:24.780Z</time>
      </trkpt>
      <trkpt lat="38.7474" lon="35.40401">
        <ele>1046.657928</ele>
        <time>2021-11-16T09:42:25.752Z</time>
      </trkpt>
      <trkpt lat="38.74757" lon="35.40416">
        <ele>1046.590013</ele>
        <time>2021-11-16T09:42:30.150Z</time>
      </trkpt>
      <trkpt lat="38.74778" lon="35.40413">
        <ele>1046.521929</ele>
        <time>2021-11-16T09:42:34.833Z</time>
      </trkpt>
      <trkpt lat="38.74783" lon="35.4041">
        <ele>1046.504567</ele>
        <time>2021-11-16T09:42:35.793Z</time>
      </trkpt>
      <trkpt lat="38.74786" lon="35.40406">
        <ele>1046.490513</ele>
        <time>2021-11-16T09:42:36.781Z</time>
      </trkpt>
      <trkpt lat="38.74794" lon="35.40384">
        <ele>1046.43138</ele>
        <time>2021-11-16T09:42:40.789Z</time>
      </trkpt>
      <trkpt lat="38.74794" lon="35.40379">
        <ele>1046.418297</ele>
        <time>2021-11-16T09:42:41.672Z</time>
      </trkpt>
      <trkpt lat="38.74794" lon="35.40372">
        <ele>1046.40085</ele>
        <time>2021-11-16T09:42:42.976Z</time>
      </trkpt>
      <trkpt lat="38.74789" lon="35.4036">
        <ele>1046.366184</ele>
        <time>2021-11-16T09:42:45.165Z</time>
      </trkpt>
      <trkpt lat="38.74777" lon="35.40346">
        <ele>1046.314337</ele>
        <time>2021-11-16T09:42:48.656Z</time>
      </trkpt>
      <trkpt lat="38.74761" lon="35.40343">
        <ele>1046.262756</ele>
        <time>2021-11-16T09:42:51.933Z</time>
      </trkpt>
      <trkpt lat="38.74751" lon="35.40347">
        <ele>1046.227929</ele>
        <time>2021-11-16T09:42:54.303Z</time>
      </trkpt>
      <trkpt lat="38.74747" lon="35.40351">
        <ele>1046.210298</ele>
        <time>2021-11-16T09:42:55.665Z</time>
      </trkpt>
      <trkpt lat="38.74743" lon="35.40356">
        <ele>1046.192879</ele>
        <time>2021-11-16T09:42:56.653Z</time>
      </trkpt>
      <trkpt lat="38.7474" lon="35.40361">
        <ele>1046.175621</ele>
        <time>2021-11-16T09:42:58.021Z</time>
      </trkpt>
      <trkpt lat="38.74693" lon="35.40335">
        <ele>1046.093425</ele>
        <time>2021-11-16T09:43:08.931Z</time>
      </trkpt>
      <trkpt lat="38.7467" lon="35.40322">
        <ele>1046.090328</ele>
        <time>2021-11-16T09:43:14.988Z</time>
      </trkpt>
      <trkpt lat="38.74652" lon="35.40312">
        <ele>1046.088006</ele>
        <time>2021-11-16T09:43:19.364Z</time>
      </trkpt>
      <trkpt lat="38.74659" lon="35.4029">
        <ele>1046.085782</ele>
        <time>2021-11-16T09:43:23.581Z</time>
      </trkpt>
      <trkpt lat="38.74687" lon="35.40203">
        <ele>1046.076832</ele>
        <time>2021-11-16T09:43:40.368Z</time>
      </trkpt>
      <trkpt lat="38.74736" lon="35.40053">
        <ele>1046.256863</ele>
        <time>2021-11-16T09:44:09.379Z</time>
      </trkpt>
      <trkpt lat="38.74752" lon="35.40003">
        <ele>1046.327381</ele>
        <time>2021-11-16T09:44:19.911Z</time>
      </trkpt>
      <trkpt lat="38.74792" lon="35.39877">
        <ele>1046.506155</ele>
        <time>2021-11-16T09:44:46.846Z</time>
      </trkpt>
      <trkpt lat="38.74823" lon="35.39795">
        <ele>1046.627666</ele>
        <time>2021-11-16T09:45:04.506Z</time>
      </trkpt>
      <trkpt lat="38.74868" lon="35.39628">
        <ele>1045.961181</ele>
        <time>2021-11-16T09:45:33.107Z</time>
      </trkpt>
      <trkpt lat="38.74874" lon="35.39608">
        <ele>1045.846601</ele>
        <time>2021-11-16T09:45:36.509Z</time>
      </trkpt>
      <trkpt lat="38.7489" lon="35.3956">
        <ele>1045.576178</ele>
        <time>2021-11-16T09:45:44.571Z</time>
      </trkpt>
      <trkpt lat="38.74899" lon="35.39532">
        <ele>1045.481339</ele>
        <time>2021-11-16T09:45:49.573Z</time>
      </trkpt>
      <trkpt lat="38.74909" lon="35.39498">
        <ele>1045.521112</ele>
        <time>2021-11-16T09:45:55.878Z</time>
      </trkpt>
      <trkpt lat="38.74917" lon="35.39464">
        <ele>1045.56156</ele>
        <time>2021-11-16T09:46:02.627Z</time>
      </trkpt>
      <trkpt lat="38.74926" lon="35.39427">
        <ele>1045.603182</ele>
        <time>2021-11-16T09:46:09.879Z</time>
      </trkpt>
      <trkpt lat="38.7493" lon="35.39428">
        <ele>1045.608005</ele>
        <time>2021-11-16T09:46:10.602Z</time>
      </trkpt>
      <trkpt lat="38.74933" lon="35.39427">
        <ele>1045.612852</ele>
        <time>2021-11-16T09:46:11.431Z</time>
      </trkpt>
      <trkpt lat="38.74941" lon="35.39419">
        <ele>1045.626851</ele>
        <time>2021-11-16T09:46:13.707Z</time>
      </trkpt>
      <trkpt lat="38.7494" lon="35.39403">
        <ele>1045.645142</ele>
        <time>2021-11-16T09:46:16.786Z</time>
      </trkpt>
      <trkpt lat="38.74938" lon="35.39399">
        <ele>1045.649919</ele>
        <time>2021-11-16T09:46:17.660Z</time>
      </trkpt>
      <trkpt lat="38.74946" lon="35.39355">
        <ele>1045.699701</ele>
        <time>2021-11-16T09:46:26.352Z</time>
      </trkpt>
      <trkpt lat="38.74956" lon="35.39307">
        <ele>1045.588738</ele>
        <time>2021-11-16T09:46:35.996Z</time>
      </trkpt>
      <trkpt lat="38.74967" lon="35.39262">
        <ele>1045.351418</ele>
        <time>2021-11-16T09:46:45.016Z</time>
      </trkpt>
      <trkpt lat="38.75017" lon="35.39088">
        <ele>1044.141355</ele>
        <time>2021-11-16T09:47:12.731Z</time>
      </trkpt>
      <trkpt lat="38.75019" lon="35.3908">
        <ele>1044.015197</ele>
        <time>2021-11-16T09:47:13.739Z</time>
      </trkpt>
      <trkpt lat="38.75022" lon="35.3903">
        <ele>1043.287656</ele>
        <time>2021-11-16T09:47:20.275Z</time>
      </trkpt>
      <trkpt lat="38.75008" lon="35.38919">
        <ele>1041.644937</ele>
        <time>2021-11-16T09:47:35.666Z</time>
      </trkpt>
      <trkpt lat="38.75004" lon="35.38887">
        <ele>1041.188943</ele>
        <time>2021-11-16T09:47:40.153Z</time>
      </trkpt>
      <trkpt lat="38.75004" lon="35.38882">
        <ele>1041.172184</ele>
        <time>2021-11-16T09:47:40.810Z</time>
      </trkpt>
      <trkpt lat="38.75004" lon="35.38878">
        <ele>1041.155319</ele>
        <time>2021-11-16T09:47:41.473Z</time>
      </trkpt>
      <trkpt lat="38.75003" lon="35.38856">
        <ele>1041.06701</ele>
        <time>2021-11-16T09:47:44.866Z</time>
      </trkpt>
      <trkpt lat="38.75002" lon="35.38812">
        <ele>1040.889833</ele>
        <time>2021-11-16T09:47:51.752Z</time>
      </trkpt>
      <trkpt lat="38.75003" lon="35.38792">
        <ele>1040.808748</ele>
        <time>2021-11-16T09:47:54.877Z</time>
      </trkpt>
      <trkpt lat="38.75004" lon="35.38771">
        <ele>1040.728344</ele>
        <time>2021-11-16T09:47:58.251Z</time>
      </trkpt>
      <trkpt lat="38.75013" lon="35.387">
        <ele>1040.440913</ele>
        <time>2021-11-16T09:48:10.160Z</time>
      </trkpt>
      <trkpt lat="38.7502" lon="35.38649">
        <ele>1040.288881</ele>
        <time>2021-11-16T09:48:19.839Z</time>
      </trkpt>
      <trkpt lat="38.75058" lon="35.38659">
        <ele>1040.333954</ele>
        <time>2021-11-16T09:48:29.151Z</time>
      </trkpt>
      <trkpt lat="38.75082" lon="35.38665">
        <ele>1040.362421</ele>
        <time>2021-11-16T09:48:34.846Z</time>
      </trkpt>
      <trkpt lat="38.75126" lon="35.38682">
        <ele>1040.416441</ele>
        <time>2021-11-16T09:48:45.405Z</time>
      </trkpt>
      <trkpt lat="38.75163" lon="35.38679">
        <ele>1040.459504</ele>
        <time>2021-11-16T09:48:54.016Z</time>
      </trkpt>
      <trkpt lat="38.75169" lon="35.38676">
        <ele>1040.467656</ele>
        <time>2021-11-16T09:48:55.665Z</time>
      </trkpt>
      <trkpt lat="38.75166" lon="35.38625">
        <ele>1040.567581</ele>
        <time>2021-11-16T09:49:05.397Z</time>
      </trkpt>
      <trkpt lat="38.75188" lon="35.38551">
        <ele>1040.782611</ele>
        <time>2021-11-16T09:49:21.193Z</time>
      </trkpt>
      <trkpt lat="38.75206" lon="35.38491">
        <ele>1040.957394</ele>
        <time>2021-11-16T09:49:33.307Z</time>
      </trkpt>
      <trkpt lat="38.75219" lon="35.3845">
        <ele>1041.076489</ele>
        <time>2021-11-16T09:49:41.589Z</time>
      </trkpt>
      <trkpt lat="38.75225" lon="35.38429">
        <ele>1041.119999</ele>
        <time>2021-11-16T09:49:46.104Z</time>
      </trkpt>
      <trkpt lat="38.75228" lon="35.38387">
        <ele>1041.14501</ele>
        <time>2021-11-16T09:49:54.208Z</time>
      </trkpt>
      <trkpt lat="38.7525" lon="35.38393">
        <ele>1041.161718</ele>
        <time>2021-11-16T09:49:59.237Z</time>
      </trkpt>
      <trkpt lat="38.7526" lon="35.38373">
        <ele>1041.175959</ele>
        <time>2021-11-16T09:50:03.929Z</time>
      </trkpt>
      <trkpt lat="38.7529" lon="35.38298">
        <ele>1041.226506</ele>
        <time>2021-11-16T09:50:19.361Z</time>
      </trkpt>
      <trkpt lat="38.7531" lon="35.38216">
        <ele>1041.14655</ele>
        <time>2021-11-16T09:50:33.678Z</time>
      </trkpt>
      <trkpt lat="38.75317" lon="35.38175">
        <ele>1041.041144</ele>
        <time>2021-11-16T09:50:40.640Z</time>
      </trkpt>
      <trkpt lat="38.75326" lon="35.38127">
        <ele>1040.915018</ele>
        <time>2021-11-16T09:50:49.171Z</time>
      </trkpt>
      <trkpt lat="38.75334" lon="35.38082">
        <ele>1040.796892</ele>
        <time>2021-11-16T09:50:57.252Z</time>
      </trkpt>
      <trkpt lat="38.75336" lon="35.38071">
        <ele>1040.768183</ele>
        <time>2021-11-16T09:50:59.201Z</time>
      </trkpt>
      <trkpt lat="38.75356" lon="35.37981">
        <ele>1040.583602</ele>
        <time>2021-11-16T09:51:15.717Z</time>
      </trkpt>
      <trkpt lat="38.75375" lon="35.37854">
        <ele>1040.380025</ele>
        <time>2021-11-16T09:51:38.650Z</time>
      </trkpt>
      <trkpt lat="38.75379" lon="35.37817">
        <ele>1040.322405</ele>
        <time>2021-11-16T09:51:44.883Z</time>
      </trkpt>
      <trkpt lat="38.75397" lon="35.3772">
        <ele>1039.895848</ele>
        <time>2021-11-16T09:52:01.605Z</time>
      </trkpt>
      <trkpt lat="38.75415" lon="35.37627">
        <ele>1039.460601</ele>
        <time>2021-11-16T09:52:17.258Z</time>
      </trkpt>
      <trkpt lat="38.75418" lon="35.37629">
        <ele>1039.436534</ele>
        <time>2021-11-16T09:52:18.136Z</time>
      </trkpt>
      <trkpt lat="38.75433" lon="35.37542">
        <ele>1038.955141</ele>
        <time>2021-11-16T09:52:32.528Z</time>
      </trkpt>
      <trkpt lat="38.75438" lon="35.37496">
        <ele>1038.67122</ele>
        <time>2021-11-16T09:52:40.048Z</time>
      </trkpt>
      <trkpt lat="38.75447" lon="35.37419">
        <ele>1038.194354</ele>
        <time>2021-11-16T09:52:52.604Z</time>
      </trkpt>
      <trkpt lat="38.75457" lon="35.37388">
        <ele>1037.989547</ele>
        <time>2021-11-16T09:52:57.928Z</time>
      </trkpt>
      <trkpt lat="38.75457" lon="35.37313">
        <ele>1037.567878</ele>
        <time>2021-11-16T09:53:09.968Z</time>
      </trkpt>
      <trkpt lat="38.75461" lon="35.37292">
        <ele>1037.450595</ele>
        <time>2021-11-16T09:53:13.550Z</time>
      </trkpt>
      <trkpt lat="38.75474" lon="35.37265">
        <ele>1037.282205</ele>
        <time>2021-11-16T09:53:18.592Z</time>
      </trkpt>
      <trkpt lat="38.75482" lon="35.37249">
        <ele>1037.179326</ele>
        <time>2021-11-16T09:53:21.739Z</time>
      </trkpt>
      <trkpt lat="38.75501" lon="35.37161">
        <ele>1036.68958</ele>
        <time>2021-11-16T09:53:36.741Z</time>
      </trkpt>
      <trkpt lat="38.75505" lon="35.37101">
        <ele>1036.529838</ele>
        <time>2021-11-16T09:53:46.811Z</time>
      </trkpt>
      <trkpt lat="38.75504" lon="35.37085">
        <ele>1036.504816</ele>
        <time>2021-11-16T09:53:49.492Z</time>
      </trkpt>
      <trkpt lat="38.7555" lon="35.37077">
        <ele>1036.411939</ele>
        <time>2021-11-16T09:53:59.432Z</time>
      </trkpt>
      <trkpt lat="38.75589" lon="35.37078">
        <ele>1036.33134</ele>
        <time>2021-11-16T09:54:08.175Z</time>
      </trkpt>
      <trkpt lat="38.75597" lon="35.37078">
        <ele>1036.31536</ele>
        <time>2021-11-16T09:54:09.886Z</time>
      </trkpt>
      <trkpt lat="38.75602" lon="35.3708">
        <ele>1036.305117</ele>
        <time>2021-11-16T09:54:10.981Z</time>
      </trkpt>
      <trkpt lat="38.75611" lon="35.37076">
        <ele>1036.284859</ele>
        <time>2021-11-16T09:54:13.239Z</time>
      </trkpt>
      <trkpt lat="38.75617" lon="35.37066">
        <ele>1036.264733</ele>
        <time>2021-11-16T09:54:15.433Z</time>
      </trkpt>
      <trkpt lat="38.75617" lon="35.37059">
        <ele>1036.254517</ele>
        <time>2021-11-16T09:54:16.505Z</time>
      </trkpt>
      <trkpt lat="38.75616" lon="35.37053">
        <ele>1036.244815</ele>
        <time>2021-11-16T09:54:17.534Z</time>
      </trkpt>
      <trkpt lat="38.75605" lon="35.37042">
        <ele>1036.224991</ele>
        <time>2021-11-16T09:54:20.575Z</time>
      </trkpt>
      <trkpt lat="38.75596" lon="35.37044">
        <ele>1036.215553</ele>
        <time>2021-11-16T09:54:22.653Z</time>
      </trkpt>
      <trkpt lat="38.75592" lon="35.37047">
        <ele>1036.210833</ele>
        <time>2021-11-16T09:54:23.662Z</time>
      </trkpt>
      <trkpt lat="38.75586" lon="35.3705">
        <ele>1036.204396</ele>
        <time>2021-11-16T09:54:25.028Z</time>
      </trkpt>
      <trkpt lat="38.7554" lon="35.37063">
        <ele>1036.155746</ele>
        <time>2021-11-16T09:54:35.388Z</time>
      </trkpt>
      <trkpt lat="38.75513" lon="35.37067">
        <ele>1036.128615</ele>
        <time>2021-11-16T09:54:41.117Z</time>
      </trkpt>
      <trkpt lat="38.75508" lon="35.36878">
        <ele>1036.011042</ele>
        <time>2021-11-16T09:55:13.691Z</time>
      </trkpt>
      <trkpt lat="38.75505" lon="35.36807">
        <ele>1035.98064</ele>
        <time>2021-11-16T09:55:25.992Z</time>
      </trkpt>
      <trkpt lat="38.75501" lon="35.36659">
        <ele>1035.888691</ele>
        <time>2021-11-16T09:55:51.179Z</time>
      </trkpt>
      <trkpt lat="38.75503" lon="35.36657">
        <ele>1035.885735</ele>
        <time>2021-11-16T09:55:51.795Z</time>
      </trkpt>
      <trkpt lat="38.75504" lon="35.36653">
        <ele>1035.882837</ele>
        <time>2021-11-16T09:55:52.405Z</time>
      </trkpt>
      <trkpt lat="38.75503" lon="35.36646">
        <ele>1035.877072</ele>
        <time>2021-11-16T09:55:53.657Z</time>
      </trkpt>
      <trkpt lat="38.75502" lon="35.36643">
        <ele>1035.874108</ele>
        <time>2021-11-16T09:55:54.274Z</time>
      </trkpt>
      <trkpt lat="38.75485" lon="35.3647">
        <ele>1035.777091</ele>
        <time>2021-11-16T09:56:23.835Z</time>
      </trkpt>
      <trkpt lat="38.75468" lon="35.36298">
        <ele>1035.820244</ele>
        <time>2021-11-16T09:56:54.065Z</time>
      </trkpt>
      <trkpt lat="38.75459" lon="35.36202">
        <ele>1035.805619</ele>
        <time>2021-11-16T09:57:11.342Z</time>
      </trkpt>
      <trkpt lat="38.75451" lon="35.36123">
        <ele>1035.786467</ele>
        <time>2021-11-16T09:57:25.338Z</time>
      </trkpt>
      <trkpt lat="38.75442" lon="35.36026">
        <ele>1035.665784</ele>
        <time>2021-11-16T09:57:41.775Z</time>
      </trkpt>
      <trkpt lat="38.75426" lon="35.35855">
        <ele>1034.971406</ele>
        <time>2021-11-16T09:58:09.326Z</time>
      </trkpt>
      <trkpt lat="38.75408" lon="35.35679">
        <ele>1034.039771</ele>
        <time>2021-11-16T09:58:36.499Z</time>
      </trkpt>
      <trkpt lat="38.75427" lon="35.35677">
        <ele>1033.910368</ele>
        <time>2021-11-16T09:58:40.123Z</time>
      </trkpt>
      <trkpt lat="38.75473" lon="35.3567">
        <ele>1033.5791</ele>
        <time>2021-11-16T09:58:49.580Z</time>
      </trkpt>
      <trkpt lat="38.75491" lon="35.35667">
        <ele>1033.551133</ele>
        <time>2021-11-16T09:58:53.209Z</time>
      </trkpt>
      <trkpt lat="38.75491" lon="35.35513">
        <ele>1033.423513</ele>
        <time>2021-11-16T09:59:19.220Z</time>
      </trkpt>
      <trkpt lat="38.75494" lon="35.35446">
        <ele>1033.395663</ele>
        <time>2021-11-16T09:59:31.463Z</time>
      </trkpt>
      <trkpt lat="38.75498" lon="35.35349">
        <ele>1033.549844</ele>
        <time>2021-11-16T09:59:49.307Z</time>
      </trkpt>
      <trkpt lat="38.75499" lon="35.35327">
        <ele>1033.583949</ele>
        <time>2021-11-16T09:59:53.247Z</time>
      </trkpt>
      <trkpt lat="38.7549" lon="35.35158">
        <ele>1033.725181</ele>
        <time>2021-11-16T10:00:23.155Z</time>
      </trkpt>
      <trkpt lat="38.75486" lon="35.3512">
        <ele>1033.715661</ele>
        <time>2021-11-16T10:00:29.486Z</time>
      </trkpt>
      <trkpt lat="38.75485" lon="35.35105">
        <ele>1033.711845</ele>
        <time>2021-11-16T10:00:32.028Z</time>
      </trkpt>
      <trkpt lat="38.75479" lon="35.35083">
        <ele>1033.705933</ele>
        <time>2021-11-16T10:00:35.993Z</time>
      </trkpt>
      <trkpt lat="38.75464" lon="35.35032">
        <ele>1033.692082</ele>
        <time>2021-11-16T10:00:45.631Z</time>
      </trkpt>
      <trkpt lat="38.75441" lon="35.34955">
        <ele>1033.63364</ele>
        <time>2021-11-16T10:00:59.726Z</time>
      </trkpt>
      <trkpt lat="38.75427" lon="35.34903">
        <ele>1033.579055</ele>
        <time>2021-11-16T10:01:09.190Z</time>
      </trkpt>
      <trkpt lat="38.75426" lon="35.34892">
        <ele>1033.568758</ele>
        <time>2021-11-16T10:01:11.039Z</time>
      </trkpt>
      <trkpt lat="38.75418" lon="35.34826">
        <ele>1033.503067</ele>
        <time>2021-11-16T10:01:22.165Z</time>
      </trkpt>
      <trkpt lat="38.75397" lon="35.34632">
        <ele>1033.211382</ele>
        <time>2021-11-16T10:01:55.219Z</time>
      </trkpt>
      <trkpt lat="38.75389" lon="35.34561">
        <ele>1033.092601</ele>
        <time>2021-11-16T10:02:07.057Z</time>
      </trkpt>
      <trkpt lat="38.75377" lon="35.34406">
        <ele>1032.729721</ele>
        <time>2021-11-16T10:02:32.582Z</time>
      </trkpt>
      <trkpt lat="38.75367" lon="35.34276">
        <ele>1032.50507</ele>
        <time>2021-11-16T10:02:54.363Z</time>
      </trkpt>
      <trkpt lat="38.75336" lon="35.33939">
        <ele>1032.405772</ele>
        <time>2021-11-16T10:03:53.009Z</time>
      </trkpt>
      <trkpt lat="38.75256" lon="35.33027">
        <ele>1032.47989</ele>
        <time>2021-11-16T10:06:32.892Z</time>
      </trkpt>
      <trkpt lat="38.75221" lon="35.32651">
        <ele>1032.460867</ele>
        <time>2021-11-16T10:07:38.130Z</time>
      </trkpt>
      <trkpt lat="38.75163" lon="35.31953">
        <ele>1033.023373</ele>
        <time>2021-11-16T10:09:41.639Z</time>
      </trkpt>
      <trkpt lat="38.75158" lon="35.31888">
        <ele>1033.166605</ele>
        <time>2021-11-16T10:09:53.695Z</time>
      </trkpt>
      <trkpt lat="38.75156" lon="35.31863">
        <ele>1033.221531</ele>
        <time>2021-11-16T10:09:58.327Z</time>
      </trkpt>
      <trkpt lat="38.75146" lon="35.31783">
        <ele>1033.418756</ele>
        <time>2021-11-16T10:10:13.553Z</time>
      </trkpt>
      <trkpt lat="38.75111" lon="35.31532">
        <ele>1034.225226</ele>
        <time>2021-11-16T10:11:00.774Z</time>
      </trkpt>
      <trkpt lat="38.75103" lon="35.31406">
        <ele>1034.671386</ele>
        <time>2021-11-16T10:11:24.581Z</time>
      </trkpt>
      <trkpt lat="38.75104" lon="35.31348">
        <ele>1034.876816</ele>
        <time>2021-11-16T10:11:35.147Z</time>
      </trkpt>
      <trkpt lat="38.75113" lon="35.31314">
        <ele>1035.094117</ele>
        <time>2021-11-16T10:11:41.848Z</time>
      </trkpt>
      <trkpt lat="38.75131" lon="35.31233">
        <ele>1035.616478</ele>
        <time>2021-11-16T10:11:58.981Z</time>
      </trkpt>
      <trkpt lat="38.75145" lon="35.31177">
        <ele>1035.986267</ele>
        <time>2021-11-16T10:12:10.904Z</time>
      </trkpt>
      <trkpt lat="38.75149" lon="35.31166">
        <ele>1036.059423</ele>
        <time>2021-11-16T10:12:13.891Z</time>
      </trkpt>
      <trkpt lat="38.75167" lon="35.31129">
        <ele>1036.329052</ele>
        <time>2021-11-16T10:12:22.469Z</time>
      </trkpt>
      <trkpt lat="38.75172" lon="35.31122">
        <ele>1036.383367</ele>
        <time>2021-11-16T10:12:24.505Z</time>
      </trkpt>
      <trkpt lat="38.75178" lon="35.31118">
        <ele>1036.432377</ele>
        <time>2021-11-16T10:12:26.162Z</time>
      </trkpt>
      <trkpt lat="38.75184" lon="35.31112">
        <ele>1036.481756</ele>
        <time>2021-11-16T10:12:27.573Z</time>
      </trkpt>
      <trkpt lat="38.75189" lon="35.31105">
        <ele>1036.530727</ele>
        <time>2021-11-16T10:12:29.140Z</time>
      </trkpt>
      <trkpt lat="38.75191" lon="35.31099">
        <ele>1036.567449</ele>
        <time>2021-11-16T10:12:31.000Z</time>
      </trkpt>
      <trkpt lat="38.75193" lon="35.31079">
        <ele>1036.677457</ele>
        <time>2021-11-16T10:12:34.939Z</time>
      </trkpt>
      <trkpt lat="38.75187" lon="35.3106">
        <ele>1036.787377</ele>
        <time>2021-11-16T10:12:38.360Z</time>
      </trkpt>
      <trkpt lat="38.75184" lon="35.31055">
        <ele>1036.82451</ele>
        <time>2021-11-16T10:12:40.249Z</time>
      </trkpt>
      <trkpt lat="38.7518" lon="35.31052">
        <ele>1036.8526</ele>
        <time>2021-11-16T10:12:41.318Z</time>
      </trkpt>
      <trkpt lat="38.75173" lon="35.31047">
        <ele>1036.908525</ele>
        <time>2021-11-16T10:12:43.322Z</time>
      </trkpt>
      <trkpt lat="38.75169" lon="35.31046">
        <ele>1036.936418</ele>
        <time>2021-11-16T10:12:44.224Z</time>
      </trkpt>
      <trkpt lat="38.75157" lon="35.31043">
        <ele>1037.020581</ele>
        <time>2021-11-16T10:12:46.764Z</time>
      </trkpt>
      <trkpt lat="38.75128" lon="35.31015">
        <ele>1037.272513</ele>
        <time>2021-11-16T10:12:56.430Z</time>
      </trkpt>
      <trkpt lat="38.75103" lon="35.30968">
        <ele>1037.572379</ele>
        <time>2021-11-16T10:13:08.149Z</time>
      </trkpt>
      <trkpt lat="38.75091" lon="35.30941">
        <ele>1037.649622</ele>
        <time>2021-11-16T10:13:13.541Z</time>
      </trkpt>
      <trkpt lat="38.7508" lon="35.30919">
        <ele>1037.714902</ele>
        <time>2021-11-16T10:13:18.387Z</time>
      </trkpt>
      <trkpt lat="38.75076" lon="35.30911">
        <ele>1037.73735</ele>
        <time>2021-11-16T10:13:20.124Z</time>
      </trkpt>
      <trkpt lat="38.75065" lon="35.30888">
        <ele>1037.805029</ele>
        <time>2021-11-16T10:13:24.582Z</time>
      </trkpt>
      <trkpt lat="38.75062" lon="35.30882">
        <ele>1037.823459</ele>
        <time>2021-11-16T10:13:25.890Z</time>
      </trkpt>
      <trkpt lat="38.75058" lon="35.30872">
        <ele>1037.850036</ele>
        <time>2021-11-16T10:13:28.024Z</time>
      </trkpt>
      <trkpt lat="38.7504" lon="35.30833">
        <ele>1037.963959</ele>
        <time>2021-11-16T10:13:36.255Z</time>
      </trkpt>
      <trkpt lat="38.7504" lon="35.30832">
        <ele>1037.96653</ele>
        <time>2021-11-16T10:13:36.481Z</time>
      </trkpt>
      <trkpt lat="38.75015" lon="35.30795">
        <ele>1038.087036</ele>
        <time>2021-11-16T10:13:45.226Z</time>
      </trkpt>
      <trkpt lat="38.74961" lon="35.30737">
        <ele>1038.138048</ele>
        <time>2021-11-16T10:14:01.702Z</time>
      </trkpt>
      <trkpt lat="38.74876" lon="35.30657">
        <ele>1038.134766</ele>
        <time>2021-11-16T10:14:24.985Z</time>
      </trkpt>
      <trkpt lat="38.74866" lon="35.30646">
        <ele>1038.134358</ele>
        <time>2021-11-16T10:14:27.543Z</time>
      </trkpt>
      <trkpt lat="38.7485" lon="35.30629">
        <ele>1038.10608</ele>
        <time>2021-11-16T10:14:32.215Z</time>
      </trkpt>
      <trkpt lat="38.74836" lon="35.30613">
        <ele>1038.067593</ele>
        <time>2021-11-16T10:14:35.882Z</time>
      </trkpt>
      <trkpt lat="38.74823" lon="35.30597">
        <ele>1038.029087</ele>
        <time>2021-11-16T10:14:39.983Z</time>
      </trkpt>
      <trkpt lat="38.7475" lon="35.30498">
        <ele>1037.805704</ele>
        <time>2021-11-16T10:15:02.465Z</time>
      </trkpt>
      <trkpt lat="38.74521" lon="35.30184">
        <ele>1038.062972</ele>
        <time>2021-11-16T10:16:17.724Z</time>
      </trkpt>
      <trkpt lat="38.7422" lon="35.29777">
        <ele>1039.809965</ele>
        <time>2021-11-16T10:18:03.681Z</time>
      </trkpt>
      <trkpt lat="38.73876" lon="35.29314">
        <ele>1039.925128</ele>
        <time>2021-11-16T10:19:53.752Z</time>
      </trkpt>
      <trkpt lat="38.73828" lon="35.29249">
        <ele>1040.231558</ele>
        <time>2021-11-16T10:20:10.288Z</time>
      </trkpt>
      <trkpt lat="38.73798" lon="35.29206">
        <ele>1040.462841</ele>
        <time>2021-11-16T10:20:21.364Z</time>
      </trkpt>
      <trkpt lat="38.7375" lon="35.2914">
        <ele>1040.823478</ele>
        <time>2021-11-16T10:20:38.976Z</time>
      </trkpt>
      <trkpt lat="38.73737" lon="35.2912">
        <ele>1040.938134</ele>
        <time>2021-11-16T10:20:44.140Z</time>
      </trkpt>
      <trkpt lat="38.73736" lon="35.29117">
        <ele>1040.950341</ele>
        <time>2021-11-16T10:20:44.700Z</time>
      </trkpt>
      <trkpt lat="38.73735" lon="35.29115">
        <ele>1040.962734</ele>
        <time>2021-11-16T10:20:45.256Z</time>
      </trkpt>
      <trkpt lat="38.73733" lon="35.29113">
        <ele>1040.975277</ele>
        <time>2021-11-16T10:20:45.792Z</time>
      </trkpt>
      <trkpt lat="38.73731" lon="35.29112">
        <ele>1040.987624</ele>
        <time>2021-11-16T10:20:46.333Z</time>
      </trkpt>
      <trkpt lat="38.73716" lon="35.29093">
        <ele>1041.109309</ele>
        <time>2021-11-16T10:20:51.672Z</time>
      </trkpt>
      <trkpt lat="38.73624" lon="35.28972">
        <ele>1041.868636</ele>
        <time>2021-11-16T10:21:24.060Z</time>
      </trkpt>
      <trkpt lat="38.73505" lon="35.28815">
        <ele>1042.008827</ele>
        <time>2021-11-16T10:22:02.615Z</time>
      </trkpt>
      <trkpt lat="38.73447" lon="35.28738">
        <ele>1041.744462</ele>
        <time>2021-11-16T10:22:20.493Z</time>
      </trkpt>
      <trkpt lat="38.73382" lon="35.28658">
        <ele>1041.394834</ele>
        <time>2021-11-16T10:22:39.107Z</time>
      </trkpt>
      <trkpt lat="38.73328" lon="35.28599">
        <ele>1040.857489</ele>
        <time>2021-11-16T10:22:53.281Z</time>
      </trkpt>
      <trkpt lat="38.73263" lon="35.28529">
        <ele>1040.10472</ele>
        <time>2021-11-16T10:23:09.729Z</time>
      </trkpt>
      <trkpt lat="38.73135" lon="35.28394">
        <ele>1038.462891</ele>
        <time>2021-11-16T10:23:41.356Z</time>
      </trkpt>
      <trkpt lat="38.73018" lon="35.28271">
        <ele>1037.147996</ele>
        <time>2021-11-16T10:24:10.764Z</time>
      </trkpt>
      <trkpt lat="38.72955" lon="35.28205">
        <ele>1036.512026</ele>
        <time>2021-11-16T10:24:27.225Z</time>
      </trkpt>
      <trkpt lat="38.72906" lon="35.28152">
        <ele>1036.306297</ele>
        <time>2021-11-16T10:24:40.424Z</time>
      </trkpt>
      <trkpt lat="38.72854" lon="35.28096">
        <ele>1036.110738</ele>
        <time>2021-11-16T10:24:54.700Z</time>
      </trkpt>
      <trkpt lat="38.72589" lon="35.27817">
        <ele>1036.240285</ele>
        <time>2021-11-16T10:26:12.167Z</time>
      </trkpt>
      <trkpt lat="38.72513" lon="35.27737">
        <ele>1036.347584</ele>
        <time>2021-11-16T10:26:34.853Z</time>
      </trkpt>
      <trkpt lat="38.72334" lon="35.27538">
        <ele>1036.282211</ele>
        <time>2021-11-16T10:27:27.959Z</time>
      </trkpt>
      <trkpt lat="38.72172" lon="35.27381">
        <ele>1035.909827</ele>
        <time>2021-11-16T10:28:10.066Z</time>
      </trkpt>
      <trkpt lat="38.71887" lon="35.27079">
        <ele>1036.724156</ele>
        <time>2021-11-16T10:29:36.019Z</time>
      </trkpt>
      <trkpt lat="38.71743" lon="35.26913">
        <ele>1037.517519</ele>
        <time>2021-11-16T10:30:23.422Z</time>
      </trkpt>
      <trkpt lat="38.71559" lon="35.26738">
        <ele>1037.912925</ele>
        <time>2021-11-16T10:31:15.477Z</time>
      </trkpt>
      <trkpt lat="38.71116" lon="35.26288">
        <ele>1038.578075</ele>
        <time>2021-11-16T10:33:24.182Z</time>
      </trkpt>
      <trkpt lat="38.70908" lon="35.26083">
        <ele>1038.071964</ele>
        <time>2021-11-16T10:34:20.438Z</time>
      </trkpt>
      <trkpt lat="38.70773" lon="35.2595">
        <ele>1037.809788</ele>
        <time>2021-11-16T10:34:56.570Z</time>
      </trkpt>
      <trkpt lat="38.70741" lon="35.2592">
        <ele>1037.775693</ele>
        <time>2021-11-16T10:35:05.241Z</time>
      </trkpt>
      <trkpt lat="38.70611" lon="35.25793">
        <ele>1038.239756</ele>
        <time>2021-11-16T10:35:43.709Z</time>
      </trkpt>
      <trkpt lat="38.7036" lon="35.25547">
        <ele>1040.188158</ele>
        <time>2021-11-16T10:37:01.823Z</time>
      </trkpt>
      <trkpt lat="38.70309" lon="35.25497">
        <ele>1040.667344</ele>
        <time>2021-11-16T10:37:18.240Z</time>
      </trkpt>
      <trkpt lat="38.70089" lon="35.25283">
        <ele>1043.287064</ele>
        <time>2021-11-16T10:38:29.835Z</time>
      </trkpt>
      <trkpt lat="38.70054" lon="35.25248">
        <ele>1043.815215</ele>
        <time>2021-11-16T10:38:41.778Z</time>
      </trkpt>
      <trkpt lat="38.7001" lon="35.25203">
        <ele>1044.478281</ele>
        <time>2021-11-16T10:38:57.056Z</time>
      </trkpt>
      <trkpt lat="38.69834" lon="35.25024">
        <ele>1047.604472</ele>
        <time>2021-11-16T10:40:00.485Z</time>
      </trkpt>
      <trkpt lat="38.6975" lon="35.24931">
        <ele>1048.937801</ele>
        <time>2021-11-16T10:40:30.689Z</time>
      </trkpt>
      <trkpt lat="38.697" lon="35.24877">
        <ele>1049.594496</ele>
        <time>2021-11-16T10:40:47.647Z</time>
      </trkpt>
      <trkpt lat="38.69677" lon="35.24854">
        <ele>1049.787596</ele>
        <time>2021-11-16T10:40:54.951Z</time>
      </trkpt>
      <trkpt lat="38.69657" lon="35.24837">
        <ele>1049.951349</ele>
        <time>2021-11-16T10:41:01.076Z</time>
      </trkpt>
      <trkpt lat="38.69657" lon="35.24837">
        <ele>1049.951349</ele>
        <time>2021-11-16T10:41:01.095Z</time>
      </trkpt>
      <trkpt lat="38.69657" lon="35.24837">
        <ele>1049.951349</ele>
        <time>2021-11-16T10:41:01.115Z</time>
      </trkpt>
      <trkpt lat="38.6955" lon="35.24747">
        <ele>1050.741451</ele>
        <time>2021-11-16T10:41:32.204Z</time>
      </trkpt>
      <trkpt lat="38.6935" lon="35.24559">
        <ele>1051.671969</ele>
        <time>2021-11-16T10:42:31.023Z</time>
      </trkpt>
      <trkpt lat="38.69287" lon="35.24499">
        <ele>1051.933193</ele>
        <time>2021-11-16T10:42:49.471Z</time>
      </trkpt>
      <trkpt lat="38.69256" lon="35.24468">
        <ele>1051.982476</ele>
        <time>2021-11-16T10:42:58.823Z</time>
      </trkpt>
      <trkpt lat="38.69184" lon="35.24398">
        <ele>1052.045611</ele>
        <time>2021-11-16T10:43:19.798Z</time>
      </trkpt>
      <trkpt lat="38.6913" lon="35.24344">
        <ele>1052.026039</ele>
        <time>2021-11-16T10:43:34.452Z</time>
      </trkpt>
      <trkpt lat="38.69078" lon="35.24293">
        <ele>1051.66082</ele>
        <time>2021-11-16T10:43:47.893Z</time>
      </trkpt>
      <trkpt lat="38.69067" lon="35.24284">
        <ele>1051.586525</ele>
        <time>2021-11-16T10:43:50.607Z</time>
      </trkpt>
      <trkpt lat="38.68995" lon="35.24216">
        <ele>1051.088225</ele>
        <time>2021-11-16T10:44:08.488Z</time>
      </trkpt>
      <trkpt lat="38.68986" lon="35.24209">
        <ele>1051.03768</ele>
        <time>2021-11-16T10:44:10.562Z</time>
      </trkpt>
      <trkpt lat="38.68884" lon="35.24121">
        <ele>1050.458224</ele>
        <time>2021-11-16T10:44:35.075Z</time>
      </trkpt>
      <trkpt lat="38.68639" lon="35.23911">
        <ele>1050.383591</ele>
        <time>2021-11-16T10:45:40.650Z</time>
      </trkpt>
      <trkpt lat="38.68579" lon="35.23861">
        <ele>1050.571691</ele>
        <time>2021-11-16T10:45:57.929Z</time>
      </trkpt>
      <trkpt lat="38.68564" lon="35.23809">
        <ele>1050.685507</ele>
        <time>2021-11-16T10:46:08.347Z</time>
      </trkpt>
      <trkpt lat="38.68554" lon="35.23801">
        <ele>1050.709915</ele>
        <time>2021-11-16T10:46:11.322Z</time>
      </trkpt>
      <trkpt lat="38.68544" lon="35.23792">
        <ele>1050.735821</ele>
        <time>2021-11-16T10:46:14.277Z</time>
      </trkpt>
      <trkpt lat="38.68534" lon="35.23785">
        <ele>1050.759965</ele>
        <time>2021-11-16T10:46:16.887Z</time>
      </trkpt>
      <trkpt lat="38.68504" lon="35.23799">
        <ele>1050.826478</ele>
        <time>2021-11-16T10:46:24.535Z</time>
      </trkpt>
      <trkpt lat="38.68438" lon="35.23739">
        <ele>1050.997145</ele>
        <time>2021-11-16T10:46:43.364Z</time>
      </trkpt>
      <trkpt lat="38.6833" lon="35.23652">
        <ele>1051.194675</ele>
        <time>2021-11-16T10:47:11.066Z</time>
      </trkpt>
      <trkpt lat="38.68308" lon="35.23634">
        <ele>1051.231868</ele>
        <time>2021-11-16T10:47:17.051Z</time>
      </trkpt>
      <trkpt lat="38.68235" lon="35.23568">
        <ele>1051.832231</ele>
        <time>2021-11-16T10:47:38.368Z</time>
      </trkpt>
      <trkpt lat="38.68214" lon="35.2354">
        <ele>1052.295802</ele>
        <time>2021-11-16T10:47:46.347Z</time>
      </trkpt>
      <trkpt lat="38.68189" lon="35.23494">
        <ele>1052.952826</ele>
        <time>2021-11-16T10:47:58.247Z</time>
      </trkpt>
      <trkpt lat="38.68171" lon="35.23447">
        <ele>1053.56681</ele>
        <time>2021-11-16T10:48:10.055Z</time>
      </trkpt>
      <trkpt lat="38.68112" lon="35.23254">
        <ele>1058.75204</ele>
        <time>2021-11-16T10:49:06.788Z</time>
      </trkpt>
      <trkpt lat="38.68099" lon="35.23186">
        <ele>1060.749242</ele>
        <time>2021-11-16T10:49:29.466Z</time>
      </trkpt>
      <trkpt lat="38.68098" lon="35.23151">
        <ele>1061.93995</ele>
        <time>2021-11-16T10:49:40.363Z</time>
      </trkpt>
      <trkpt lat="38.68096" lon="35.23091">
        <ele>1064.007858</ele>
        <time>2021-11-16T10:49:59.747Z</time>
      </trkpt>
      <trkpt lat="38.68097" lon="35.23046">
        <ele>1065.583955</ele>
        <time>2021-11-16T10:50:14.245Z</time>
      </trkpt>
      <trkpt lat="38.68096" lon="35.2283">
        <ele>1072.369709</ele>
        <time>2021-11-16T10:51:19.199Z</time>
      </trkpt>
      <trkpt lat="38.68096" lon="35.22777">
        <ele>1073.931955</ele>
        <time>2021-11-16T10:51:33.739Z</time>
      </trkpt>
      <trkpt lat="38.68094" lon="35.22445">
        <ele>1083.356392</ele>
        <time>2021-11-16T10:53:07.873Z</time>
      </trkpt>
      <trkpt lat="38.68105" lon="35.20387">
        <ele>1148.066138</ele>
        <time>2021-11-16T11:03:23.916Z</time>
      </trkpt>
      <trkpt lat="38.68119" lon="35.20275">
        <ele>1152.19266</ele>
        <time>2021-11-16T11:03:59.502Z</time>
      </trkpt>
      <trkpt lat="38.68146" lon="35.20175">
        <ele>1156.351806</ele>
        <time>2021-11-16T11:04:35.173Z</time>
      </trkpt>
      <trkpt lat="38.6816" lon="35.20139">
        <ele>1158.204307</ele>
        <time>2021-11-16T11:04:49.306Z</time>
      </trkpt>
      <trkpt lat="38.68164" lon="35.2012">
        <ele>1159.124369</ele>
        <time>2021-11-16T11:04:56.373Z</time>
      </trkpt>
      <trkpt lat="38.68302" lon="35.1971">
        <ele>1179.77958</ele>
        <time>2021-11-16T11:07:40.372Z</time>
      </trkpt>
      <trkpt lat="38.68383" lon="35.19464">
        <ele>1189.96245</ele>
        <time>2021-11-16T11:09:05.830Z</time>
      </trkpt>
      <trkpt lat="38.68448" lon="35.1927">
        <ele>1196.629208</ele>
        <time>2021-11-16T11:10:10.081Z</time>
      </trkpt>
      <trkpt lat="38.68571" lon="35.18895">
        <ele>1206.464375</ele>
        <time>2021-11-16T11:12:00.821Z</time>
      </trkpt>
      <trkpt lat="38.68632" lon="35.18711">
        <ele>1209.291847</ele>
        <time>2021-11-16T11:12:45.177Z</time>
      </trkpt>
      <trkpt lat="38.68665" lon="35.18638">
        <ele>1209.905626</ele>
        <time>2021-11-16T11:13:01.844Z</time>
      </trkpt>
      <trkpt lat="38.68694" lon="35.18579">
        <ele>1210.418806</ele>
        <time>2021-11-16T11:13:15.648Z</time>
      </trkpt>
      <trkpt lat="38.68725" lon="35.18531">
        <ele>1210.877614</ele>
        <time>2021-11-16T11:13:27.969Z</time>
      </trkpt>
      <trkpt lat="38.68741" lon="35.18506">
        <ele>1211.210196</ele>
        <time>2021-11-16T11:13:34.179Z</time>
      </trkpt>
      <trkpt lat="38.68839" lon="35.18353">
        <ele>1213.405882</ele>
        <time>2021-11-16T11:14:17.541Z</time>
      </trkpt>
      <trkpt lat="38.6884" lon="35.18352">
        <ele>1213.418165</ele>
        <time>2021-11-16T11:14:18.429Z</time>
      </trkpt>
      <trkpt lat="38.68904" lon="35.18252">
        <ele>1215.647087</ele>
        <time>2021-11-16T11:14:48.892Z</time>
      </trkpt>
      <trkpt lat="38.6898" lon="35.18133">
        <ele>1218.551179</ele>
        <time>2021-11-16T11:15:27.757Z</time>
      </trkpt>
      <trkpt lat="38.6913" lon="35.17902">
        <ele>1225.326262</ele>
        <time>2021-11-16T11:16:48.509Z</time>
      </trkpt>
      <trkpt lat="38.69462" lon="35.1739">
        <ele>1238.336665</ele>
        <time>2021-11-16T11:19:38.669Z</time>
      </trkpt>
      <trkpt lat="38.69501" lon="35.17318">
        <ele>1239.332338</ele>
        <time>2021-11-16T11:19:56.575Z</time>
      </trkpt>
      <trkpt lat="38.69544" lon="35.17217">
        <ele>1239.787266</ele>
        <time>2021-11-16T11:20:17.458Z</time>
      </trkpt>
      <trkpt lat="38.69558" lon="35.17173">
        <ele>1239.698544</ele>
        <time>2021-11-16T11:20:25.336Z</time>
      </trkpt>
      <trkpt lat="38.69576" lon="35.17106">
        <ele>1239.565875</ele>
        <time>2021-11-16T11:20:36.808Z</time>
      </trkpt>
      <trkpt lat="38.69593" lon="35.17001">
        <ele>1239.203538</ele>
        <time>2021-11-16T11:20:53.710Z</time>
      </trkpt>
      <trkpt lat="38.696" lon="35.16886">
        <ele>1238.675311</ele>
        <time>2021-11-16T11:21:11.861Z</time>
      </trkpt>
      <trkpt lat="38.69599" lon="35.16819">
        <ele>1238.382275</ele>
        <time>2021-11-16T11:21:22.490Z</time>
      </trkpt>
      <trkpt lat="38.69553" lon="35.14251">
        <ele>1230.423134</ele>
        <time>2021-11-16T11:28:19.414Z</time>
      </trkpt>
      <trkpt lat="38.69552" lon="35.14159">
        <ele>1230.796058</ele>
        <time>2021-11-16T11:28:37.129Z</time>
      </trkpt>
      <trkpt lat="38.69546" lon="35.13771">
        <ele>1232.935105</ele>
        <time>2021-11-16T11:29:55.894Z</time>
      </trkpt>
      <trkpt lat="38.6954" lon="35.13445">
        <ele>1233.156096</ele>
        <time>2021-11-16T11:30:52.531Z</time>
      </trkpt>
      <trkpt lat="38.69538" lon="35.13354">
        <ele>1233.028406</ele>
        <time>2021-11-16T11:31:07.324Z</time>
      </trkpt>
      <trkpt lat="38.69537" lon="35.13264">
        <ele>1232.749168</ele>
        <time>2021-11-16T11:31:21.738Z</time>
      </trkpt>
      <trkpt lat="38.69533" lon="35.13042">
        <ele>1232.384472</ele>
        <time>2021-11-16T11:31:58.260Z</time>
      </trkpt>
      <trkpt lat="38.69529" lon="35.12819">
        <ele>1232.917068</ele>
        <time>2021-11-16T11:32:39.080Z</time>
      </trkpt>
      <trkpt lat="38.69528" lon="35.1265">
        <ele>1233.965338</ele>
        <time>2021-11-16T11:33:13.442Z</time>
      </trkpt>
      <trkpt lat="38.69524" lon="35.12436">
        <ele>1235.867508</ele>
        <time>2021-11-16T11:33:58.520Z</time>
      </trkpt>
      <trkpt lat="38.69526" lon="35.12262">
        <ele>1237.30275</ele>
        <time>2021-11-16T11:34:34.842Z</time>
      </trkpt>
      <trkpt lat="38.69535" lon="35.12126">
        <ele>1237.935591</ele>
        <time>2021-11-16T11:35:02.369Z</time>
      </trkpt>
      <trkpt lat="38.6955" lon="35.1199">
        <ele>1238.335238</ele>
        <time>2021-11-16T11:35:26.896Z</time>
      </trkpt>
      <trkpt lat="38.69584" lon="35.11788">
        <ele>1237.607975</ele>
        <time>2021-11-16T11:35:59.841Z</time>
      </trkpt>
      <trkpt lat="38.69833" lon="35.10642">
        <ele>1230.868844</ele>
        <time>2021-11-16T11:39:04.059Z</time>
      </trkpt>
      <trkpt lat="38.69884" lon="35.10499">
        <ele>1231.344904</ele>
        <time>2021-11-16T11:39:33.320Z</time>
      </trkpt>
      <trkpt lat="38.69914" lon="35.10436">
        <ele>1231.606557</ele>
        <time>2021-11-16T11:39:48.307Z</time>
      </trkpt>
      <trkpt lat="38.69957" lon="35.10362">
        <ele>1232.071025</ele>
        <time>2021-11-16T11:40:07.298Z</time>
      </trkpt>
      <trkpt lat="38.70031" lon="35.10262">
        <ele>1232.425907</ele>
        <time>2021-11-16T11:40:33.447Z</time>
      </trkpt>
      <trkpt lat="38.7007" lon="35.10221">
        <ele>1231.60178</ele>
        <time>2021-11-16T11:40:44.184Z</time>
      </trkpt>
      <trkpt lat="38.70759" lon="35.09607">
        <ele>1216.5694</ele>
        <time>2021-11-16T11:43:13.816Z</time>
      </trkpt>
      <trkpt lat="38.70802" lon="35.09569">
        <ele>1213.30112</ele>
        <time>2021-11-16T11:43:21.778Z</time>
      </trkpt>
      <trkpt lat="38.71231" lon="35.09188">
        <ele>1179.837941</ele>
        <time>2021-11-16T11:44:36.701Z</time>
      </trkpt>
      <trkpt lat="38.71997" lon="35.08501">
        <ele>1136.156086</ele>
        <time>2021-11-16T11:46:59.830Z</time>
      </trkpt>
      <trkpt lat="38.72051" lon="35.08432">
        <ele>1132.896016</ele>
        <time>2021-11-16T11:47:11.807Z</time>
      </trkpt>
      <trkpt lat="38.72119" lon="35.08317">
        <ele>1129.009232</ele>
        <time>2021-11-16T11:47:29.659Z</time>
      </trkpt>
      <trkpt lat="38.72275" lon="35.08004">
        <ele>1121.316215</ele>
        <time>2021-11-16T11:48:18.497Z</time>
      </trkpt>
      <trkpt lat="38.7234" lon="35.07875">
        <ele>1119.834749</ele>
        <time>2021-11-16T11:48:42.225Z</time>
      </trkpt>
      <trkpt lat="38.73104" lon="35.06337">
        <ele>1097.455073</ele>
        <time>2021-11-16T11:53:03.183Z</time>
      </trkpt>
      <trkpt lat="38.7316" lon="35.06223">
        <ele>1093.839884</ele>
        <time>2021-11-16T11:53:19.524Z</time>
      </trkpt>
      <trkpt lat="38.73263" lon="35.0601">
        <ele>1085.261949</ele>
        <time>2021-11-16T11:53:48.794Z</time>
      </trkpt>
      <trkpt lat="38.73632" lon="35.05262">
        <ele>1064.310816</ele>
        <time>2021-11-16T11:55:42.916Z</time>
      </trkpt>
      <trkpt lat="38.73802" lon="35.04936">
        <ele>1060.231794</ele>
        <time>2021-11-16T11:56:41.444Z</time>
      </trkpt>
      <trkpt lat="38.73834" lon="35.04862">
        <ele>1059.031034</ele>
        <time>2021-11-16T11:56:53.559Z</time>
      </trkpt>
      <trkpt lat="38.73843" lon="35.04834">
        <ele>1058.501916</ele>
        <time>2021-11-16T11:56:57.774Z</time>
      </trkpt>
      <trkpt lat="38.73847" lon="35.04819">
        <ele>1058.235725</ele>
        <time>2021-11-16T11:56:59.895Z</time>
      </trkpt>
      <trkpt lat="38.73851" lon="35.04806">
        <ele>1057.987956</ele>
        <time>2021-11-16T11:57:01.820Z</time>
      </trkpt>
      <trkpt lat="38.73864" lon="35.04751">
        <ele>1056.998721</ele>
        <time>2021-11-16T11:57:09.484Z</time>
      </trkpt>
      <trkpt lat="38.73874" lon="35.04674">
        <ele>1055.567836</ele>
        <time>2021-11-16T11:57:19.650Z</time>
      </trkpt>
      <trkpt lat="38.73878" lon="35.0456">
        <ele>1053.097636</ele>
        <time>2021-11-16T11:57:34.124Z</time>
      </trkpt>
      <trkpt lat="38.73858" lon="35.04264">
        <ele>1047.584636</ele>
        <time>2021-11-16T11:58:13.464Z</time>
      </trkpt>
      <trkpt lat="38.73853" lon="35.04115">
        <ele>1046.736931</ele>
        <time>2021-11-16T11:58:36.707Z</time>
      </trkpt>
      <trkpt lat="38.73859" lon="35.03986">
        <ele>1046.385898</ele>
        <time>2021-11-16T11:59:00.646Z</time>
      </trkpt>
      <trkpt lat="38.73869" lon="35.03912">
        <ele>1046.14797</ele>
        <time>2021-11-16T11:59:13.713Z</time>
      </trkpt>
      <trkpt lat="38.73884" lon="35.03845">
        <ele>1045.926396</ele>
        <time>2021-11-16T11:59:25.060Z</time>
      </trkpt>
      <trkpt lat="38.73898" lon="35.03778">
        <ele>1045.705307</ele>
        <time>2021-11-16T11:59:35.560Z</time>
      </trkpt>
      <trkpt lat="38.73943" lon="35.03555">
        <ele>1043.493801</ele>
        <time>2021-11-16T12:00:08.688Z</time>
      </trkpt>
      <trkpt lat="38.7398" lon="35.03373">
        <ele>1042.775986</ele>
        <time>2021-11-16T12:00:38.918Z</time>
      </trkpt>
      <trkpt lat="38.74007" lon="35.03211">
        <ele>1042.62056</ele>
        <time>2021-11-16T12:01:08.236Z</time>
      </trkpt>
      <trkpt lat="38.74074" lon="35.02475">
        <ele>1041.588383</ele>
        <time>2021-11-16T12:03:14.784Z</time>
      </trkpt>
      <trkpt lat="38.74116" lon="35.0196">
        <ele>1035.733085</ele>
        <time>2021-11-16T12:04:27.687Z</time>
      </trkpt>
      <trkpt lat="38.74163" lon="35.0145">
        <ele>1032.296281</ele>
        <time>2021-11-16T12:05:53.261Z</time>
      </trkpt>
      <trkpt lat="38.74184" lon="35.01195">
        <ele>1022.79165</ele>
        <time>2021-11-16T12:06:22.500Z</time>
      </trkpt>
      <trkpt lat="38.74195" lon="35.00992">
        <ele>1016.913674</ele>
        <time>2021-11-16T12:06:46.418Z</time>
      </trkpt>
      <trkpt lat="38.74234" lon="35.00567">
        <ele>1023.43811</ele>
        <time>2021-11-16T12:08:40.232Z</time>
      </trkpt>
      <trkpt lat="38.74232" lon="35.00488">
        <ele>1023.695087</ele>
        <time>2021-11-16T12:08:59.456Z</time>
      </trkpt>
      <trkpt lat="38.7422" lon="35.00403">
        <ele>1023.978325</ele>
        <time>2021-11-16T12:09:14.799Z</time>
      </trkpt>
      <trkpt lat="38.74198" lon="35.00315">
        <ele>1022.85546</ele>
        <time>2021-11-16T12:09:27.270Z</time>
      </trkpt>
      <trkpt lat="38.74169" lon="35.00233">
        <ele>1020.091356</ele>
        <time>2021-11-16T12:09:38.301Z</time>
      </trkpt>
      <trkpt lat="38.73938" lon="34.99777">
        <ele>1000.708554</ele>
        <time>2021-11-16T12:10:42.524Z</time>
      </trkpt>
      <trkpt lat="38.73919" lon="34.99735">
        <ele>1000.244284</ele>
        <time>2021-11-16T12:10:49.110Z</time>
      </trkpt>
      <trkpt lat="38.73905" lon="34.99687">
        <ele>1000.330885</ele>
        <time>2021-11-16T12:10:56.824Z</time>
      </trkpt>
      <trkpt lat="38.7389" lon="34.996">
        <ele>1000.482164</ele>
        <time>2021-11-16T12:11:13.921Z</time>
      </trkpt>
      <trkpt lat="38.7386" lon="34.99151">
        <ele>1009.355133</ele>
        <time>2021-11-16T12:13:16.996Z</time>
      </trkpt>
      <trkpt lat="38.73849" lon="34.99068">
        <ele>1010.603678</ele>
        <time>2021-11-16T12:13:34.973Z</time>
      </trkpt>
      <trkpt lat="38.73833" lon="34.98986">
        <ele>1010.316302</ele>
        <time>2021-11-16T12:13:49.475Z</time>
      </trkpt>
      <trkpt lat="38.73794" lon="34.98841">
        <ele>1009.598236</ele>
        <time>2021-11-16T12:14:12.244Z</time>
      </trkpt>
      <trkpt lat="38.73728" lon="34.98547">
        <ele>1005.137676</ele>
        <time>2021-11-16T12:14:56.042Z</time>
      </trkpt>
      <trkpt lat="38.73502" lon="34.97657">
        <ele>986.315235</ele>
        <time>2021-11-16T12:16:56.621Z</time>
      </trkpt>
      <trkpt lat="38.73473" lon="34.9756">
        <ele>985.505884</ele>
        <time>2021-11-16T12:17:15.805Z</time>
      </trkpt>
      <trkpt lat="38.73411" lon="34.97414">
        <ele>987.633259</ele>
        <time>2021-11-16T12:17:55.115Z</time>
      </trkpt>
      <trkpt lat="38.73347" lon="34.97279">
        <ele>989.625209</ele>
        <time>2021-11-16T12:18:32.574Z</time>
      </trkpt>
      <trkpt lat="38.73341" lon="34.97267">
        <ele>989.780418</ele>
        <time>2021-11-16T12:18:35.964Z</time>
      </trkpt>
      <trkpt lat="38.73264" lon="34.97104">
        <ele>991.253901</ele>
        <time>2021-11-16T12:19:14.833Z</time>
      </trkpt>
      <trkpt lat="38.73003" lon="34.96561">
        <ele>991.157553</ele>
        <time>2021-11-16T12:21:03.269Z</time>
      </trkpt>
      <trkpt lat="38.72931" lon="34.96409">
        <ele>990.730906</ele>
        <time>2021-11-16T12:21:32.651Z</time>
      </trkpt>
      <trkpt lat="38.72861" lon="34.96263">
        <ele>990.22045</ele>
        <time>2021-11-16T12:22:00.327Z</time>
      </trkpt>
      <trkpt lat="38.72782" lon="34.96098">
        <ele>989.686388</ele>
        <time>2021-11-16T12:22:31.945Z</time>
      </trkpt>
      <trkpt lat="38.72592" lon="34.95701">
        <ele>988.892435</ele>
        <time>2021-11-16T12:23:50.019Z</time>
      </trkpt>
      <trkpt lat="38.72514" lon="34.95536">
        <ele>988.871348</ele>
        <time>2021-11-16T12:24:22.282Z</time>
      </trkpt>
      <trkpt lat="38.71861" lon="34.94187">
        <ele>995.854498</ele>
        <time>2021-11-16T12:29:26.331Z</time>
      </trkpt>
      <trkpt lat="38.71749" lon="34.93954">
        <ele>997.985047</ele>
        <time>2021-11-16T12:30:23.501Z</time>
      </trkpt>
      <trkpt lat="38.71703" lon="34.93859">
        <ele>998.783169</ele>
        <time>2021-11-16T12:30:46.117Z</time>
      </trkpt>
      <trkpt lat="38.71625" lon="34.93695">
        <ele>999.618837</ele>
        <time>2021-11-16T12:31:23.235Z</time>
      </trkpt>
      <trkpt lat="38.71497" lon="34.93427">
        <ele>999.69218</ele>
        <time>2021-11-16T12:32:18.208Z</time>
      </trkpt>
      <trkpt lat="38.71477" lon="34.93386">
        <ele>999.106542</ele>
        <time>2021-11-16T12:32:25.430Z</time>
      </trkpt>
      <trkpt lat="38.71445" lon="34.93317">
        <ele>997.971629</ele>
        <time>2021-11-16T12:32:36.935Z</time>
      </trkpt>
      <trkpt lat="38.71422" lon="34.93254">
        <ele>996.97744</ele>
        <time>2021-11-16T12:32:46.316Z</time>
      </trkpt>
      <trkpt lat="38.71395" lon="34.93137">
        <ele>994.076211</ele>
        <time>2021-11-16T12:33:01.972Z</time>
      </trkpt>
      <trkpt lat="38.71388" lon="34.93104">
        <ele>993.101056</ele>
        <time>2021-11-16T12:33:06.219Z</time>
      </trkpt>
      <trkpt lat="38.71388" lon="34.931">
        <ele>992.969594</ele>
        <time>2021-11-16T12:33:06.807Z</time>
      </trkpt>
      <trkpt lat="38.71387" lon="34.93095">
        <ele>992.835929</ele>
        <time>2021-11-16T12:33:07.395Z</time>
      </trkpt>
      <trkpt lat="38.71337" lon="34.92859">
        <ele>985.182982</ele>
        <time>2021-11-16T12:33:36.970Z</time>
      </trkpt>
      <trkpt lat="38.71279" lon="34.92553">
        <ele>975.139186</ele>
        <time>2021-11-16T12:34:15.304Z</time>
      </trkpt>
      <trkpt lat="38.7126" lon="34.92344">
        <ele>969.851116</ele>
        <time>2021-11-16T12:34:42.081Z</time>
      </trkpt>
      <trkpt lat="38.71245" lon="34.92112">
        <ele>964.78731</ele>
        <time>2021-11-16T12:35:12.535Z</time>
      </trkpt>
      <trkpt lat="38.71233" lon="34.9192">
        <ele>961.129661</ele>
        <time>2021-11-16T12:35:37.902Z</time>
      </trkpt>
      <trkpt lat="38.71218" lon="34.91697">
        <ele>957.340823</ele>
        <time>2021-11-16T12:36:08.352Z</time>
      </trkpt>
      <trkpt lat="38.71208" lon="34.91529">
        <ele>955.264057</ele>
        <time>2021-11-16T12:36:31.727Z</time>
      </trkpt>
      <trkpt lat="38.71202" lon="34.91449">
        <ele>954.476881</ele>
        <time>2021-11-16T12:36:43.632Z</time>
      </trkpt>
      <trkpt lat="38.712" lon="34.91388">
        <ele>954.009399</ele>
        <time>2021-11-16T12:36:53.253Z</time>
      </trkpt>
      <trkpt lat="38.71205" lon="34.91288">
        <ele>954.345536</ele>
        <time>2021-11-16T12:37:10.546Z</time>
      </trkpt>
      <trkpt lat="38.71209" lon="34.91257">
        <ele>954.452341</ele>
        <time>2021-11-16T12:37:16.619Z</time>
      </trkpt>
      <trkpt lat="38.71222" lon="34.91165">
        <ele>954.822376</ele>
        <time>2021-11-16T12:37:35.845Z</time>
      </trkpt>
      <trkpt lat="38.71239" lon="34.91015">
        <ele>956.986135</ele>
        <time>2021-11-16T12:38:10.738Z</time>
      </trkpt>
      <trkpt lat="38.71238" lon="34.90966">
        <ele>957.68783</ele>
        <time>2021-11-16T12:38:22.553Z</time>
      </trkpt>
      <trkpt lat="38.71235" lon="34.90916">
        <ele>958.486911</ele>
        <time>2021-11-16T12:38:34.523Z</time>
      </trkpt>
      <trkpt lat="38.7123" lon="34.90872">
        <ele>959.29215</ele>
        <time>2021-11-16T12:38:45.331Z</time>
      </trkpt>
      <trkpt lat="38.71171" lon="34.90555">
        <ele>965.757107</ele>
        <time>2021-11-16T12:40:06.212Z</time>
      </trkpt>
      <trkpt lat="38.71131" lon="34.90311">
        <ele>972.489321</ele>
        <time>2021-11-16T12:41:17.117Z</time>
      </trkpt>
      <trkpt lat="38.71052" lon="34.89675">
        <ele>993.080087</ele>
        <time>2021-11-16T12:44:36.460Z</time>
      </trkpt>
      <trkpt lat="38.70983" lon="34.89185">
        <ele>1002.337595</ele>
        <time>2021-11-16T12:46:37.335Z</time>
      </trkpt>
      <trkpt lat="38.7095" lon="34.8904">
        <ele>1004.640341</ele>
        <time>2021-11-16T12:47:09.839Z</time>
      </trkpt>
      <trkpt lat="38.70837" lon="34.88611">
        <ele>1012.733226</ele>
        <time>2021-11-16T12:49:01.462Z</time>
      </trkpt>
      <trkpt lat="38.7082" lon="34.88539">
        <ele>1014.312237</ele>
        <time>2021-11-16T12:49:21.634Z</time>
      </trkpt>
      <trkpt lat="38.7081" lon="34.88467">
        <ele>1015.824183</ele>
        <time>2021-11-16T12:49:41.299Z</time>
      </trkpt>
      <trkpt lat="38.70796" lon="34.88162">
        <ele>1019.404232</ele>
        <time>2021-11-16T12:50:55.769Z</time>
      </trkpt>
      <trkpt lat="38.70792" lon="34.87732">
        <ele>1012.632573</ele>
        <time>2021-11-16T12:51:52.813Z</time>
      </trkpt>
      <trkpt lat="38.70786" lon="34.87685">
        <ele>1011.439974</ele>
        <time>2021-11-16T12:51:58.629Z</time>
      </trkpt>
      <trkpt lat="38.70892" lon="34.87209">
        <ele>999.413885</ele>
        <time>2021-11-16T12:53:04.360Z</time>
      </trkpt>
      <trkpt lat="38.70895" lon="34.87183">
        <ele>998.844257</ele>
        <time>2021-11-16T12:53:07.973Z</time>
      </trkpt>
      <trkpt lat="38.70913" lon="34.87051">
        <ele>996.429673</ele>
        <time>2021-11-16T12:53:27.136Z</time>
      </trkpt>
      <trkpt lat="38.70926" lon="34.86928">
        <ele>994.767556</ele>
        <time>2021-11-16T12:53:45.862Z</time>
      </trkpt>
      <trkpt lat="38.70938" lon="34.86558">
        <ele>988.953033</ele>
        <time>2021-11-16T12:54:40.242Z</time>
      </trkpt>
      <trkpt lat="38.70951" lon="34.86473">
        <ele>987.008612</ele>
        <time>2021-11-16T12:54:51.913Z</time>
      </trkpt>
      <trkpt lat="38.7096" lon="34.86445">
        <ele>986.32253</ele>
        <time>2021-11-16T12:54:55.933Z</time>
      </trkpt>
      <trkpt lat="38.7098" lon="34.86429">
        <ele>985.425751</ele>
        <time>2021-11-16T12:54:59.793Z</time>
      </trkpt>
      <trkpt lat="38.71095" lon="34.86396">
        <ele>978.139246</ele>
        <time>2021-11-16T12:55:17.935Z</time>
      </trkpt>
      <trkpt lat="38.71149" lon="34.86364">
        <ele>974.336022</ele>
        <time>2021-11-16T12:55:26.908Z</time>
      </trkpt>
      <trkpt lat="38.71172" lon="34.86353">
        <ele>972.349574</ele>
        <time>2021-11-16T12:55:30.457Z</time>
      </trkpt>
      <trkpt lat="38.71191" lon="34.86336">
        <ele>970.45224</ele>
        <time>2021-11-16T12:55:33.791Z</time>
      </trkpt>
      <trkpt lat="38.71208" lon="34.86295">
        <ele>967.459804</ele>
        <time>2021-11-16T12:55:39.018Z</time>
      </trkpt>
      <trkpt lat="38.71205" lon="34.86255">
        <ele>964.844238</ele>
        <time>2021-11-16T12:55:43.624Z</time>
      </trkpt>
      <trkpt lat="38.71192" lon="34.86211">
        <ele>961.815799</ele>
        <time>2021-11-16T12:55:48.995Z</time>
      </trkpt>
      <trkpt lat="38.71188" lon="34.86169">
        <ele>959.37522</ele>
        <time>2021-11-16T12:55:53.846Z</time>
      </trkpt>
      <trkpt lat="38.71186" lon="34.86149">
        <ele>958.456834</ele>
        <time>2021-11-16T12:55:56.261Z</time>
      </trkpt>
      <trkpt lat="38.71186" lon="34.86117">
        <ele>957.038609</ele>
        <time>2021-11-16T12:56:00.082Z</time>
      </trkpt>
      <trkpt lat="38.71186" lon="34.86109">
        <ele>956.663967</ele>
        <time>2021-11-16T12:56:01.086Z</time>
      </trkpt>
      <trkpt lat="38.71192" lon="34.85985">
        <ele>951.133503</ele>
        <time>2021-11-16T12:56:16.119Z</time>
      </trkpt>
      <trkpt lat="38.71192" lon="34.85959">
        <ele>949.982257</ele>
        <time>2021-11-16T12:56:19.380Z</time>
      </trkpt>
      <trkpt lat="38.71199" lon="34.85854">
        <ele>946.910379</ele>
        <time>2021-11-16T12:56:33.279Z</time>
      </trkpt>
      <trkpt lat="38.71201" lon="34.85832">
        <ele>946.2963</ele>
        <time>2021-11-16T12:56:36.195Z</time>
      </trkpt>
      <trkpt lat="38.71201" lon="34.85817">
        <ele>945.87337</ele>
        <time>2021-11-16T12:56:38.104Z</time>
      </trkpt>
      <trkpt lat="38.71214" lon="34.85565">
        <ele>939.25573</ele>
        <time>2021-11-16T12:57:09.907Z</time>
      </trkpt>
      <trkpt lat="38.71248" lon="34.85562">
        <ele>938.160332</ele>
        <time>2021-11-16T12:57:15.771Z</time>
      </trkpt>
      <trkpt lat="38.71259" lon="34.85555">
        <ele>937.762642</ele>
        <time>2021-11-16T12:57:17.914Z</time>
      </trkpt>
      <trkpt lat="38.71286" lon="34.85516">
        <ele>936.692644</ele>
        <time>2021-11-16T12:57:24.947Z</time>
      </trkpt>
      <trkpt lat="38.71313" lon="34.85468">
        <ele>935.571422</ele>
        <time>2021-11-16T12:57:33.142Z</time>
      </trkpt>
      <trkpt lat="38.71345" lon="34.85416">
        <ele>934.335221</ele>
        <time>2021-11-16T12:57:42.396Z</time>
      </trkpt>
      <trkpt lat="38.71371" lon="34.85365">
        <ele>933.191561</ele>
        <time>2021-11-16T12:57:51.242Z</time>
      </trkpt>
      <trkpt lat="38.71393" lon="34.85321">
        <ele>932.489691</ele>
        <time>2021-11-16T12:57:58.972Z</time>
      </trkpt>
      <trkpt lat="38.71409" lon="34.85297">
        <ele>932.101307</ele>
        <time>2021-11-16T12:58:03.557Z</time>
      </trkpt>
      <trkpt lat="38.71438" lon="34.85303">
        <ele>931.624618</ele>
        <time>2021-11-16T12:58:13.123Z</time>
      </trkpt>
      <trkpt lat="38.71444" lon="34.85295">
        <ele>931.490351</ele>
        <time>2021-11-16T12:58:14.701Z</time>
      </trkpt>
      <trkpt lat="38.71445" lon="34.85284">
        <ele>931.357168</ele>
        <time>2021-11-16T12:58:16.281Z</time>
      </trkpt>
      <trkpt lat="38.71453" lon="34.8523">
        <ele>930.66743</ele>
        <time>2021-11-16T12:58:24.487Z</time>
      </trkpt>
      <trkpt lat="38.71454" lon="34.8521">
        <ele>930.406263</ele>
        <time>2021-11-16T12:58:27.631Z</time>
      </trkpt>
      <trkpt lat="38.71457" lon="34.85183">
        <ele>930.083158</ele>
        <time>2021-11-16T12:58:31.637Z</time>
      </trkpt>
      <trkpt lat="38.71459" lon="34.85145">
        <ele>929.667627</ele>
        <time>2021-11-16T12:58:37.370Z</time>
      </trkpt>
      <trkpt lat="38.71536" lon="34.85128">
        <ele>928.59782</ele>
        <time>2021-11-16T12:58:52.488Z</time>
      </trkpt>
      <trkpt lat="38.7156" lon="34.85125">
        <ele>928.264269</ele>
        <time>2021-11-16T12:58:57.290Z</time>
      </trkpt>
      <trkpt lat="38.71583" lon="34.85126">
        <ele>927.94392</ele>
        <time>2021-11-16T12:59:01.783Z</time>
      </trkpt>
      <trkpt lat="38.71607" lon="34.85119">
        <ele>927.638802</ele>
        <time>2021-11-16T12:59:06.560Z</time>
      </trkpt>
      <trkpt lat="38.71606" lon="34.85099">
        <ele>927.502482</ele>
        <time>2021-11-16T12:59:09.694Z</time>
      </trkpt>
      <trkpt lat="38.71605" lon="34.85052">
        <ele>927.186463</ele>
        <time>2021-11-16T12:59:16.941Z</time>
      </trkpt>
      <trkpt lat="38.71605" lon="34.8504">
        <ele>927.11163</ele>
        <time>2021-11-16T12:59:18.730Z</time>
      </trkpt>
      <trkpt lat="38.71662" lon="34.8503">
        <ele>926.615869</ele>
        <time>2021-11-16T12:59:30.651Z</time>
      </trkpt>
      <trkpt lat="38.71666" lon="34.85029">
        <ele>926.58573</ele>
        <time>2021-11-16T12:59:31.399Z</time>
      </trkpt>
      <trkpt lat="38.71679" lon="34.85025">
        <ele>926.472298</ele>
        <time>2021-11-16T12:59:35.074Z</time>
      </trkpt>
      <trkpt lat="38.7168" lon="34.85035">
        <ele>926.407865</ele>
        <time>2021-11-16T12:59:40.354Z</time>
      </trkpt>
      <trkpt lat="38.71744" lon="34.85018">
        <ele>926.154047</ele>
        <time>2021-11-16T13:00:25.464Z</time>
      </trkpt>
      <trkpt lat="38.71744" lon="34.84978">
        <ele>926.154047</ele>
        <time>2021-11-16T13:00:47.231Z</time>
      </trkpt>
      <trkpt lat="38.71759" lon="34.84942">
        <ele>926.154047</ele>
        <time>2021-11-16T13:01:09.762Z</time>
      </trkpt>
      <trkpt lat="38.71755" lon="34.8489">
        <ele>926.154047</ele>
        <time>2021-11-16T13:01:37.791Z</time>
      </trkpt>
      <trkpt lat="38.71744" lon="34.84863">
        <ele>926.154047</ele>
        <time>2021-11-16T13:01:54.394Z</time>
      </trkpt>
      <trkpt lat="38.71724" lon="34.84823">
        <ele>926.154047</ele>
        <time>2021-11-16T13:02:20.235Z</time>
      </trkpt>
      <trkpt lat="38.71723" lon="34.8482">
        <ele>926.154047</ele>
        <time>2021-11-16T13:02:22.127Z</time>
      </trkpt>
    </trkseg>
  </trk>
  <trk>
    <name><![CDATA[3_De Avanos à Yalova]]></name>
    <extensions>
      <line xmlns="http://www.topografix.com/GPX/gpx_style/0/2">
        <color>FF0000</color>
        <width>4</width>
      </line>
    </extensions>
    <trkseg>
      <trkpt lat="38.71723" lon="34.8482">
        <ele>926.034697</ele>
        <time>2021-11-15T11:53:25.844Z</time>
      </trkpt>
      <trkpt lat="38.71724" lon="34.84823">
        <ele>926.034697</ele>
        <time>2021-11-15T11:53:27.737Z</time>
      </trkpt>
      <trkpt lat="38.71744" lon="34.84863">
        <ele>926.034697</ele>
        <time>2021-11-15T11:53:53.577Z</time>
      </trkpt>
      <trkpt lat="38.71725" lon="34.84873">
        <ele>926.034697</ele>
        <time>2021-11-15T11:54:07.266Z</time>
      </trkpt>
      <trkpt lat="38.71713" lon="34.84836">
        <ele>926.040635</ele>
        <time>2021-11-15T11:54:29.215Z</time>
      </trkpt>
      <trkpt lat="38.7171" lon="34.84822">
        <ele>926.093383</ele>
        <time>2021-11-15T11:54:37.025Z</time>
      </trkpt>
      <trkpt lat="38.71709" lon="34.84818">
        <ele>926.107402</ele>
        <time>2021-11-15T11:54:39.055Z</time>
      </trkpt>
      <trkpt lat="38.71709" lon="34.84815">
        <ele>926.11798</ele>
        <time>2021-11-15T11:54:40.634Z</time>
      </trkpt>
      <trkpt lat="38.71707" lon="34.84812">
        <ele>926.133681</ele>
        <time>2021-11-15T11:54:42.915Z</time>
      </trkpt>
      <trkpt lat="38.71697" lon="34.84794">
        <ele>926.215079</ele>
        <time>2021-11-15T11:54:54.891Z</time>
      </trkpt>
      <trkpt lat="38.71671" lon="34.84737">
        <ele>926.459566</ele>
        <time>2021-11-15T11:55:30.916Z</time>
      </trkpt>
      <trkpt lat="38.71654" lon="34.8472">
        <ele>926.557815</ele>
        <time>2021-11-15T11:55:45.412Z</time>
      </trkpt>
      <trkpt lat="38.71649" lon="34.84723">
        <ele>926.58479</ele>
        <time>2021-11-15T11:55:49.359Z</time>
      </trkpt>
      <trkpt lat="38.71625" lon="34.84733">
        <ele>926.704009</ele>
        <time>2021-11-15T11:56:06.908Z</time>
      </trkpt>
      <trkpt lat="38.71612" lon="34.8474">
        <ele>926.772007</ele>
        <time>2021-11-15T11:56:16.951Z</time>
      </trkpt>
      <trkpt lat="38.71601" lon="34.84745">
        <ele>926.825605</ele>
        <time>2021-11-15T11:56:24.798Z</time>
      </trkpt>
      <trkpt lat="38.71559" lon="34.84756">
        <ele>927.195302</ele>
        <time>2021-11-15T11:56:35.169Z</time>
      </trkpt>
      <trkpt lat="38.71557" lon="34.84748">
        <ele>927.266824</ele>
        <time>2021-11-15T11:56:36.877Z</time>
      </trkpt>
      <trkpt lat="38.71541" lon="34.84661">
        <ele>927.993593</ele>
        <time>2021-11-15T11:56:55.677Z</time>
      </trkpt>
      <trkpt lat="38.71522" lon="34.84572">
        <ele>928.739482</ele>
        <time>2021-11-15T11:57:16.424Z</time>
      </trkpt>
      <trkpt lat="38.71484" lon="34.84583">
        <ele>929.389418</ele>
        <time>2021-11-15T11:57:27.711Z</time>
      </trkpt>
      <trkpt lat="38.71415" lon="34.84606">
        <ele>930.613773</ele>
        <time>2021-11-15T11:57:49.370Z</time>
      </trkpt>
      <trkpt lat="38.71384" lon="34.84617">
        <ele>931.173507</ele>
        <time>2021-11-15T11:57:59.428Z</time>
      </trkpt>
      <trkpt lat="38.71349" lon="34.84631">
        <ele>931.795956</ele>
        <time>2021-11-15T11:58:10.511Z</time>
      </trkpt>
      <trkpt lat="38.71329" lon="34.84636">
        <ele>932.065176</ele>
        <time>2021-11-15T11:58:16.612Z</time>
      </trkpt>
      <trkpt lat="38.71252" lon="34.8463">
        <ele>933.040168</ele>
        <time>2021-11-15T11:58:38.688Z</time>
      </trkpt>
      <trkpt lat="38.71218" lon="34.8463">
        <ele>933.468047</ele>
        <time>2021-11-15T11:58:48.108Z</time>
      </trkpt>
      <trkpt lat="38.71207" lon="34.84629">
        <ele>933.614041</ele>
        <time>2021-11-15T11:58:51.195Z</time>
      </trkpt>
      <trkpt lat="38.71176" lon="34.84611">
        <ele>934.036609</ele>
        <time>2021-11-15T11:59:00.196Z</time>
      </trkpt>
      <trkpt lat="38.7117" lon="34.84606">
        <ele>934.131562</ele>
        <time>2021-11-15T11:59:02.321Z</time>
      </trkpt>
      <trkpt lat="38.71164" lon="34.84614">
        <ele>934.223167</ele>
        <time>2021-11-15T11:59:04.511Z</time>
      </trkpt>
      <trkpt lat="38.71144" lon="34.84599">
        <ele>934.479721</ele>
        <time>2021-11-15T11:59:10.924Z</time>
      </trkpt>
      <trkpt lat="38.71117" lon="34.84572">
        <ele>934.856419</ele>
        <time>2021-11-15T11:59:20.379Z</time>
      </trkpt>
      <trkpt lat="38.71075" lon="34.84496">
        <ele>935.641213</ele>
        <time>2021-11-15T11:59:40.516Z</time>
      </trkpt>
      <trkpt lat="38.71028" lon="34.84511">
        <ele>936.141636</ele>
        <time>2021-11-15T11:59:54.083Z</time>
      </trkpt>
      <trkpt lat="38.70975" lon="34.84521">
        <ele>936.570282</ele>
        <time>2021-11-15T12:00:08.058Z</time>
      </trkpt>
      <trkpt lat="38.70916" lon="34.84541">
        <ele>937.064093</ele>
        <time>2021-11-15T12:00:23.908Z</time>
      </trkpt>
      <trkpt lat="38.70895" lon="34.84486">
        <ele>937.446426</ele>
        <time>2021-11-15T12:00:35.908Z</time>
      </trkpt>
      <trkpt lat="38.70891" lon="34.84474">
        <ele>937.531646</ele>
        <time>2021-11-15T12:00:38.508Z</time>
      </trkpt>
      <trkpt lat="38.70889" lon="34.84466">
        <ele>937.590235</ele>
        <time>2021-11-15T12:00:40.160Z</time>
      </trkpt>
      <trkpt lat="38.70874" lon="34.84427">
        <ele>937.899754</ele>
        <time>2021-11-15T12:00:48.789Z</time>
      </trkpt>
      <trkpt lat="38.70825" lon="34.84455">
        <ele>938.38464</ele>
        <time>2021-11-15T12:01:02.849Z</time>
      </trkpt>
      <trkpt lat="38.70806" lon="34.84463">
        <ele>938.563655</ele>
        <time>2021-11-15T12:01:08.188Z</time>
      </trkpt>
      <trkpt lat="38.70784" lon="34.84409">
        <ele>938.990002</ele>
        <time>2021-11-15T12:01:21.055Z</time>
      </trkpt>
      <trkpt lat="38.70764" lon="34.84407">
        <ele>939.168319</ele>
        <time>2021-11-15T12:01:29.206Z</time>
      </trkpt>
      <trkpt lat="38.70757" lon="34.84402">
        <ele>939.252985</ele>
        <time>2021-11-15T12:01:31.530Z</time>
      </trkpt>
      <trkpt lat="38.70711" lon="34.84401">
        <ele>939.738061</ele>
        <time>2021-11-15T12:01:44.481Z</time>
      </trkpt>
      <trkpt lat="38.70716" lon="34.84342">
        <ele>940.222963</ele>
        <time>2021-11-15T12:01:57.191Z</time>
      </trkpt>
      <trkpt lat="38.70658" lon="34.84342">
        <ele>940.824337</ele>
        <time>2021-11-15T12:02:12.602Z</time>
      </trkpt>
      <trkpt lat="38.70598" lon="34.84348">
        <ele>941.447158</ele>
        <time>2021-11-15T12:02:28.932Z</time>
      </trkpt>
      <trkpt lat="38.70599" lon="34.84336">
        <ele>941.542323</ele>
        <time>2021-11-15T12:02:31.264Z</time>
      </trkpt>
      <trkpt lat="38.70542" lon="34.84333">
        <ele>942.114758</ele>
        <time>2021-11-15T12:02:46.118Z</time>
      </trkpt>
      <trkpt lat="38.70487" lon="34.84332">
        <ele>942.674769</ele>
        <time>2021-11-15T12:03:01.262Z</time>
      </trkpt>
      <trkpt lat="38.70489" lon="34.84269">
        <ele>943.478997</ele>
        <time>2021-11-15T12:03:15.085Z</time>
      </trkpt>
      <trkpt lat="38.70488" lon="34.84258">
        <ele>943.637189</ele>
        <time>2021-11-15T12:03:17.700Z</time>
      </trkpt>
      <trkpt lat="38.70454" lon="34.84258">
        <ele>944.302115</ele>
        <time>2021-11-15T12:03:27.761Z</time>
      </trkpt>
      <trkpt lat="38.70413" lon="34.84254">
        <ele>945.122536</ele>
        <time>2021-11-15T12:03:40.509Z</time>
      </trkpt>
      <trkpt lat="38.70395" lon="34.8425">
        <ele>945.481952</ele>
        <time>2021-11-15T12:03:45.960Z</time>
      </trkpt>
      <trkpt lat="38.70391" lon="34.84249">
        <ele>945.544296</ele>
        <time>2021-11-15T12:03:46.819Z</time>
      </trkpt>
      <trkpt lat="38.70372" lon="34.84248">
        <ele>945.934639</ele>
        <time>2021-11-15T12:03:53.347Z</time>
      </trkpt>
      <trkpt lat="38.70368" lon="34.84271">
        <ele>946.293408</ele>
        <time>2021-11-15T12:03:58.668Z</time>
      </trkpt>
      <trkpt lat="38.70353" lon="34.8427">
        <ele>946.645013</ele>
        <time>2021-11-15T12:04:04.296Z</time>
      </trkpt>
      <trkpt lat="38.7024" lon="34.84259">
        <ele>949.349095</ele>
        <time>2021-11-15T12:04:41.824Z</time>
      </trkpt>
      <trkpt lat="38.70191" lon="34.84255">
        <ele>950.520834</ele>
        <time>2021-11-15T12:04:57.639Z</time>
      </trkpt>
      <trkpt lat="38.70143" lon="34.84251">
        <ele>951.498918</ele>
        <time>2021-11-15T12:05:12.900Z</time>
      </trkpt>
      <trkpt lat="38.70134" lon="34.8425">
        <ele>951.662264</ele>
        <time>2021-11-15T12:05:15.463Z</time>
      </trkpt>
      <trkpt lat="38.70108" lon="34.84248">
        <ele>952.164122</ele>
        <time>2021-11-15T12:05:23.756Z</time>
      </trkpt>
      <trkpt lat="38.69349" lon="34.84181">
        <ele>967.063415</ele>
        <time>2021-11-15T12:09:18.295Z</time>
      </trkpt>
      <trkpt lat="38.68546" lon="34.84048">
        <ele>985.573957</ele>
        <time>2021-11-15T12:13:40.903Z</time>
      </trkpt>
      <trkpt lat="38.68229" lon="34.83998">
        <ele>992.552262</ele>
        <time>2021-11-15T12:15:23.264Z</time>
      </trkpt>
      <trkpt lat="38.68187" lon="34.83991">
        <ele>993.438742</ele>
        <time>2021-11-15T12:15:36.092Z</time>
      </trkpt>
      <trkpt lat="38.68159" lon="34.83983">
        <ele>994.016581</ele>
        <time>2021-11-15T12:15:44.626Z</time>
      </trkpt>
      <trkpt lat="38.68138" lon="34.83976">
        <ele>994.464291</ele>
        <time>2021-11-15T12:15:51.032Z</time>
      </trkpt>
      <trkpt lat="38.68096" lon="34.83962">
        <ele>995.343861</ele>
        <time>2021-11-15T12:16:04.120Z</time>
      </trkpt>
      <trkpt lat="38.67811" lon="34.83907">
        <ele>1002.830836</ele>
        <time>2021-11-15T12:17:40.908Z</time>
      </trkpt>
      <trkpt lat="38.67742" lon="34.83899">
        <ele>1005.022744</ele>
        <time>2021-11-15T12:18:06.014Z</time>
      </trkpt>
      <trkpt lat="38.67455" lon="34.83927">
        <ele>1014.778882</ele>
        <time>2021-11-15T12:19:53.388Z</time>
      </trkpt>
      <trkpt lat="38.67386" lon="34.83922">
        <ele>1016.958952</ele>
        <time>2021-11-15T12:20:18.413Z</time>
      </trkpt>
      <trkpt lat="38.67357" lon="34.83917">
        <ele>1017.885018</ele>
        <time>2021-11-15T12:20:28.996Z</time>
      </trkpt>
      <trkpt lat="38.67354" lon="34.83916">
        <ele>1017.975522</ele>
        <time>2021-11-15T12:20:29.930Z</time>
      </trkpt>
      <trkpt lat="38.6733" lon="34.83908">
        <ele>1018.754889</ele>
        <time>2021-11-15T12:20:38.825Z</time>
      </trkpt>
      <trkpt lat="38.6716" lon="34.83826">
        <ele>1022.555081</ele>
        <time>2021-11-15T12:21:36.606Z</time>
      </trkpt>
      <trkpt lat="38.67117" lon="34.83797">
        <ele>1022.807825</ele>
        <time>2021-11-15T12:21:49.370Z</time>
      </trkpt>
      <trkpt lat="38.67105" lon="34.83788">
        <ele>1022.870148</ele>
        <time>2021-11-15T12:21:52.790Z</time>
      </trkpt>
      <trkpt lat="38.67076" lon="34.83762">
        <ele>1023.033678</ele>
        <time>2021-11-15T12:22:01.356Z</time>
      </trkpt>
      <trkpt lat="38.67053" lon="34.83744">
        <ele>1023.158093</ele>
        <time>2021-11-15T12:22:07.531Z</time>
      </trkpt>
      <trkpt lat="38.67013" lon="34.83695">
        <ele>1023.410436</ele>
        <time>2021-11-15T12:22:19.853Z</time>
      </trkpt>
      <trkpt lat="38.66945" lon="34.83629">
        <ele>1024.415692</ele>
        <time>2021-11-15T12:22:40.776Z</time>
      </trkpt>
      <trkpt lat="38.66921" lon="34.83597">
        <ele>1024.838822</ele>
        <time>2021-11-15T12:22:50.631Z</time>
      </trkpt>
      <trkpt lat="38.66919" lon="34.83596">
        <ele>1024.859015</ele>
        <time>2021-11-15T12:22:51.193Z</time>
      </trkpt>
      <trkpt lat="38.66757" lon="34.83472">
        <ele>1029.114133</ele>
        <time>2021-11-15T12:23:53.411Z</time>
      </trkpt>
      <trkpt lat="38.66605" lon="34.83345">
        <ele>1035.035955</ele>
        <time>2021-11-15T12:25:00.579Z</time>
      </trkpt>
      <trkpt lat="38.66565" lon="34.83314">
        <ele>1036.679034</ele>
        <time>2021-11-15T12:25:18.121Z</time>
      </trkpt>
      <trkpt lat="38.665" lon="34.83283">
        <ele>1039.263622</ele>
        <time>2021-11-15T12:25:44.780Z</time>
      </trkpt>
      <trkpt lat="38.66404" lon="34.8326">
        <ele>1042.895027</ele>
        <time>2021-11-15T12:26:21.971Z</time>
      </trkpt>
      <trkpt lat="38.66394" lon="34.83258">
        <ele>1043.25112</ele>
        <time>2021-11-15T12:26:26.056Z</time>
      </trkpt>
      <trkpt lat="38.66321" lon="34.83246">
        <ele>1045.878495</ele>
        <time>2021-11-15T12:26:53.953Z</time>
      </trkpt>
      <trkpt lat="38.66211" lon="34.83273">
        <ele>1049.838787</ele>
        <time>2021-11-15T12:27:35.626Z</time>
      </trkpt>
      <trkpt lat="38.66157" lon="34.83302">
        <ele>1051.401052</ele>
        <time>2021-11-15T12:27:55.931Z</time>
      </trkpt>
      <trkpt lat="38.65816" lon="34.83425">
        <ele>1059.704554</ele>
        <time>2021-11-15T12:29:52.985Z</time>
      </trkpt>
      <trkpt lat="38.65662" lon="34.83536">
        <ele>1061.598769</ele>
        <time>2021-11-15T12:30:38.948Z</time>
      </trkpt>
      <trkpt lat="38.65551" lon="34.83604">
        <ele>1062.299557</ele>
        <time>2021-11-15T12:31:09.630Z</time>
      </trkpt>
      <trkpt lat="38.6549" lon="34.83634">
        <ele>1063.067198</ele>
        <time>2021-11-15T12:31:26.729Z</time>
      </trkpt>
      <trkpt lat="38.65439" lon="34.83651">
        <ele>1063.737486</ele>
        <time>2021-11-15T12:31:41.703Z</time>
      </trkpt>
      <trkpt lat="38.65376" lon="34.83659">
        <ele>1064.522343</ele>
        <time>2021-11-15T12:32:00.046Z</time>
      </trkpt>
      <trkpt lat="38.65275" lon="34.83656">
        <ele>1066.841405</ele>
        <time>2021-11-15T12:32:32.381Z</time>
      </trkpt>
      <trkpt lat="38.6524" lon="34.83648">
        <ele>1067.691026</ele>
        <time>2021-11-15T12:32:44.462Z</time>
      </trkpt>
      <trkpt lat="38.65206" lon="34.83636">
        <ele>1068.509715</ele>
        <time>2021-11-15T12:32:56.228Z</time>
      </trkpt>
      <trkpt lat="38.65166" lon="34.83625">
        <ele>1069.598288</ele>
        <time>2021-11-15T12:33:10.594Z</time>
      </trkpt>
      <trkpt lat="38.65038" lon="34.8355">
        <ele>1073.402018</ele>
        <time>2021-11-15T12:33:58.530Z</time>
      </trkpt>
      <trkpt lat="38.65008" lon="34.83529">
        <ele>1074.296958</ele>
        <time>2021-11-15T12:34:10.068Z</time>
      </trkpt>
      <trkpt lat="38.65039" lon="34.83548">
        <ele>1075.169375</ele>
        <time>2021-11-15T12:34:21.213Z</time>
      </trkpt>
      <trkpt lat="38.6492" lon="34.83469">
        <ele>1078.603294</ele>
        <time>2021-11-15T12:35:04.463Z</time>
      </trkpt>
      <trkpt lat="38.64922" lon="34.83453">
        <ele>1078.972929</ele>
        <time>2021-11-15T12:35:08.136Z</time>
      </trkpt>
      <trkpt lat="38.64915" lon="34.8345">
        <ele>1079.184308</ele>
        <time>2021-11-15T12:35:10.953Z</time>
      </trkpt>
      <trkpt lat="38.64858" lon="34.83413">
        <ele>1081.113143</ele>
        <time>2021-11-15T12:35:32.837Z</time>
      </trkpt>
      <trkpt lat="38.64817" lon="34.83393">
        <ele>1082.433438</ele>
        <time>2021-11-15T12:35:48.509Z</time>
      </trkpt>
      <trkpt lat="38.64827" lon="34.83352">
        <ele>1083.43011</ele>
        <time>2021-11-15T12:36:00.363Z</time>
      </trkpt>
      <trkpt lat="38.64837" lon="34.83296">
        <ele>1085.294945</ele>
        <time>2021-11-15T12:36:17.914Z</time>
      </trkpt>
      <trkpt lat="38.64851" lon="34.83249">
        <ele>1087.004195</ele>
        <time>2021-11-15T12:36:33.722Z</time>
      </trkpt>
      <trkpt lat="38.64851" lon="34.83225">
        <ele>1087.815165</ele>
        <time>2021-11-15T12:36:41.249Z</time>
      </trkpt>
      <trkpt lat="38.64832" lon="34.83209">
        <ele>1088.803272</ele>
        <time>2021-11-15T12:36:50.627Z</time>
      </trkpt>
      <trkpt lat="38.64817" lon="34.83201">
        <ele>1089.483642</ele>
        <time>2021-11-15T12:36:57.394Z</time>
      </trkpt>
      <trkpt lat="38.6482" lon="34.83169">
        <ele>1090.57648</ele>
        <time>2021-11-15T12:37:08.183Z</time>
      </trkpt>
      <trkpt lat="38.64814" lon="34.83134">
        <ele>1091.803504</ele>
        <time>2021-11-15T12:37:20.208Z</time>
      </trkpt>
      <trkpt lat="38.64803" lon="34.83133">
        <ele>1092.313806</ele>
        <time>2021-11-15T12:37:24.620Z</time>
      </trkpt>
      <trkpt lat="38.64769" lon="34.83129">
        <ele>1093.952972</ele>
        <time>2021-11-15T12:37:39.188Z</time>
      </trkpt>
      <trkpt lat="38.64767" lon="34.83089">
        <ele>1095.419148</ele>
        <time>2021-11-15T12:37:51.977Z</time>
      </trkpt>
      <trkpt lat="38.64766" lon="34.8307">
        <ele>1096.119093</ele>
        <time>2021-11-15T12:37:58.555Z</time>
      </trkpt>
      <trkpt lat="38.6476" lon="34.83049">
        <ele>1096.93309</ele>
        <time>2021-11-15T12:38:06.169Z</time>
      </trkpt>
      <trkpt lat="38.64747" lon="34.83022">
        <ele>1098.098737</ele>
        <time>2021-11-15T12:38:16.754Z</time>
      </trkpt>
      <trkpt lat="38.64734" lon="34.82999">
        <ele>1099.163502</ele>
        <time>2021-11-15T12:38:26.246Z</time>
      </trkpt>
      <trkpt lat="38.6473" lon="34.82992">
        <ele>1099.475186</ele>
        <time>2021-11-15T12:38:29.043Z</time>
      </trkpt>
      <trkpt lat="38.64719" lon="34.82973">
        <ele>1100.223287</ele>
        <time>2021-11-15T12:38:36.401Z</time>
      </trkpt>
      <trkpt lat="38.64696" lon="34.82937">
        <ele>1101.619374</ele>
        <time>2021-11-15T12:38:51.493Z</time>
      </trkpt>
      <trkpt lat="38.64623" lon="34.8286">
        <ele>1105.195891</ele>
        <time>2021-11-15T12:39:26.146Z</time>
      </trkpt>
      <trkpt lat="38.64611" lon="34.82849">
        <ele>1105.770679</ele>
        <time>2021-11-15T12:39:31.543Z</time>
      </trkpt>
      <trkpt lat="38.64603" lon="34.82837">
        <ele>1106.216854</ele>
        <time>2021-11-15T12:39:36.025Z</time>
      </trkpt>
      <trkpt lat="38.64596" lon="34.82828">
        <ele>1106.597484</ele>
        <time>2021-11-15T12:39:39.960Z</time>
      </trkpt>
      <trkpt lat="38.64565" lon="34.82819">
        <ele>1107.911571</ele>
        <time>2021-11-15T12:39:52.388Z</time>
      </trkpt>
      <trkpt lat="38.64552" lon="34.82812">
        <ele>1108.488092</ele>
        <time>2021-11-15T12:39:57.829Z</time>
      </trkpt>
      <trkpt lat="38.6451" lon="34.82789">
        <ele>1110.359155</ele>
        <time>2021-11-15T12:40:15.033Z</time>
      </trkpt>
      <trkpt lat="38.64595" lon="34.82608">
        <ele>1118.897902</ele>
        <time>2021-11-15T12:41:21.127Z</time>
      </trkpt>
      <trkpt lat="38.646" lon="34.82594">
        <ele>1119.681908</ele>
        <time>2021-11-15T12:41:27.732Z</time>
      </trkpt>
      <trkpt lat="38.64623" lon="34.82494">
        <ele>1124.925327</ele>
        <time>2021-11-15T12:42:10.065Z</time>
      </trkpt>
      <trkpt lat="38.64629" lon="34.82464">
        <ele>1126.868925</ele>
        <time>2021-11-15T12:42:23.641Z</time>
      </trkpt>
      <trkpt lat="38.6464" lon="34.82428">
        <ele>1129.746578</ele>
        <time>2021-11-15T12:42:40.846Z</time>
      </trkpt>
      <trkpt lat="38.64696" lon="34.82318">
        <ele>1139.431119</ele>
        <time>2021-11-15T12:43:43.380Z</time>
      </trkpt>
      <trkpt lat="38.64707" lon="34.82287">
        <ele>1141.960082</ele>
        <time>2021-11-15T12:44:01.030Z</time>
      </trkpt>
      <trkpt lat="38.64707" lon="34.82238">
        <ele>1145.783467</ele>
        <time>2021-11-15T12:44:25.356Z</time>
      </trkpt>
      <trkpt lat="38.64687" lon="34.82154">
        <ele>1152.813052</ele>
        <time>2021-11-15T12:45:08.588Z</time>
      </trkpt>
      <trkpt lat="38.64659" lon="34.82069">
        <ele>1160.063256</ele>
        <time>2021-11-15T12:45:55.091Z</time>
      </trkpt>
      <trkpt lat="38.64623" lon="34.81997">
        <ele>1165.562454</ele>
        <time>2021-11-15T12:46:34.896Z</time>
      </trkpt>
      <trkpt lat="38.64604" lon="34.81974">
        <ele>1167.588888</ele>
        <time>2021-11-15T12:46:49.429Z</time>
      </trkpt>
      <trkpt lat="38.6456" lon="34.81944">
        <ele>1171.457755</ele>
        <time>2021-11-15T12:47:13.885Z</time>
      </trkpt>
      <trkpt lat="38.645" lon="34.81906">
        <ele>1176.192754</ele>
        <time>2021-11-15T12:47:46.959Z</time>
      </trkpt>
      <trkpt lat="38.64408" lon="34.81861">
        <ele>1181.346197</ele>
        <time>2021-11-15T12:48:29.441Z</time>
      </trkpt>
      <trkpt lat="38.6439" lon="34.81853">
        <ele>1182.340142</ele>
        <time>2021-11-15T12:48:37.040Z</time>
      </trkpt>
      <trkpt lat="38.64388" lon="34.81853">
        <ele>1182.444902</ele>
        <time>2021-11-15T12:48:38.592Z</time>
      </trkpt>
      <trkpt lat="38.64265" lon="34.81803">
        <ele>1188.352817</ele>
        <time>2021-11-15T12:49:28.503Z</time>
      </trkpt>
      <trkpt lat="38.64174" lon="34.81745">
        <ele>1192.593822</ele>
        <time>2021-11-15T12:50:09.862Z</time>
      </trkpt>
      <trkpt lat="38.64113" lon="34.81693">
        <ele>1194.867844</ele>
        <time>2021-11-15T12:50:36.059Z</time>
      </trkpt>
      <trkpt lat="38.64047" lon="34.81637">
        <ele>1197.279305</ele>
        <time>2021-11-15T12:50:59.938Z</time>
      </trkpt>
      <trkpt lat="38.63998" lon="34.81585">
        <ele>1199.963603</ele>
        <time>2021-11-15T12:51:22.935Z</time>
      </trkpt>
      <trkpt lat="38.63949" lon="34.81539">
        <ele>1202.722085</ele>
        <time>2021-11-15T12:51:45.617Z</time>
      </trkpt>
      <trkpt lat="38.63931" lon="34.81508">
        <ele>1204.094925</ele>
        <time>2021-11-15T12:51:58.778Z</time>
      </trkpt>
      <trkpt lat="38.63908" lon="34.81483">
        <ele>1205.483654</ele>
        <time>2021-11-15T12:52:12.316Z</time>
      </trkpt>
      <trkpt lat="38.63847" lon="34.81442">
        <ele>1210.584611</ele>
        <time>2021-11-15T12:52:47.824Z</time>
      </trkpt>
      <trkpt lat="38.63819" lon="34.81422">
        <ele>1213.115292</ele>
        <time>2021-11-15T12:53:06.726Z</time>
      </trkpt>
      <trkpt lat="38.63775" lon="34.81392">
        <ele>1217.078981</ele>
        <time>2021-11-15T12:53:35.437Z</time>
      </trkpt>
      <trkpt lat="38.63702" lon="34.81327">
        <ele>1224.005819</ele>
        <time>2021-11-15T12:54:23.000Z</time>
      </trkpt>
      <trkpt lat="38.63685" lon="34.81316">
        <ele>1225.517837</ele>
        <time>2021-11-15T12:54:33.633Z</time>
      </trkpt>
      <trkpt lat="38.63644" lon="34.81303">
        <ele>1228.767468</ele>
        <time>2021-11-15T12:54:55.822Z</time>
      </trkpt>
      <trkpt lat="38.63609" lon="34.81293">
        <ele>1231.522249</ele>
        <time>2021-11-15T12:55:14.490Z</time>
      </trkpt>
      <trkpt lat="38.63597" lon="34.81284">
        <ele>1232.644505</ele>
        <time>2021-11-15T12:55:21.964Z</time>
      </trkpt>
      <trkpt lat="38.63587" lon="34.81269">
        <ele>1233.814965</ele>
        <time>2021-11-15T12:55:29.913Z</time>
      </trkpt>
      <trkpt lat="38.63557" lon="34.81218">
        <ele>1237.286028</ele>
        <time>2021-11-15T12:55:55.965Z</time>
      </trkpt>
      <trkpt lat="38.63471" lon="34.8109">
        <ele>1246.462634</ele>
        <time>2021-11-15T12:57:04.034Z</time>
      </trkpt>
      <trkpt lat="38.6345" lon="34.81053">
        <ele>1247.810943</ele>
        <time>2021-11-15T12:57:18.927Z</time>
      </trkpt>
      <trkpt lat="38.63438" lon="34.81017">
        <ele>1248.812169</ele>
        <time>2021-11-15T12:57:29.786Z</time>
      </trkpt>
      <trkpt lat="38.63427" lon="34.80973">
        <ele>1250.01762</ele>
        <time>2021-11-15T12:57:41.934Z</time>
      </trkpt>
      <trkpt lat="38.63425" lon="34.80929">
        <ele>1251.179656</ele>
        <time>2021-11-15T12:57:53.178Z</time>
      </trkpt>
      <trkpt lat="38.63426" lon="34.8088">
        <ele>1252.449555</ele>
        <time>2021-11-15T12:58:05.076Z</time>
      </trkpt>
      <trkpt lat="38.6343" lon="34.8082">
        <ele>1253.807165</ele>
        <time>2021-11-15T12:58:18.433Z</time>
      </trkpt>
      <trkpt lat="38.63431" lon="34.80818">
        <ele>1253.849022</ele>
        <time>2021-11-15T12:58:18.698Z</time>
      </trkpt>
      <trkpt lat="38.63438" lon="34.80784">
        <ele>1254.610116</ele>
        <time>2021-11-15T12:58:26.824Z</time>
      </trkpt>
      <trkpt lat="38.63509" lon="34.80663">
        <ele>1258.252834</ele>
        <time>2021-11-15T12:59:06.172Z</time>
      </trkpt>
      <trkpt lat="38.63511" lon="34.80641">
        <ele>1259.625982</ele>
        <time>2021-11-15T12:59:14.013Z</time>
      </trkpt>
      <trkpt lat="38.6351" lon="34.80618">
        <ele>1261.071839</ele>
        <time>2021-11-15T12:59:22.166Z</time>
      </trkpt>
      <trkpt lat="38.63498" lon="34.80565">
        <ele>1264.532542</ele>
        <time>2021-11-15T12:59:45.806Z</time>
      </trkpt>
      <trkpt lat="38.63454" lon="34.80509">
        <ele>1269.481082</ele>
        <time>2021-11-15T13:00:20.298Z</time>
      </trkpt>
      <trkpt lat="38.63433" lon="34.80485">
        <ele>1271.736998</ele>
        <time>2021-11-15T13:00:40.811Z</time>
      </trkpt>
      <trkpt lat="38.63395" lon="34.80448">
        <ele>1276.848391</ele>
        <time>2021-11-15T13:01:11.736Z</time>
      </trkpt>
      <trkpt lat="38.63388" lon="34.80454">
        <ele>1277.753961</ele>
        <time>2021-11-15T13:01:19.082Z</time>
      </trkpt>
      <trkpt lat="38.6334" lon="34.8046">
        <ele>1283.1288</ele>
        <time>2021-11-15T13:01:53.072Z</time>
      </trkpt>
      <trkpt lat="38.63323" lon="34.80474">
        <ele>1285.423079</ele>
        <time>2021-11-15T13:02:05.247Z</time>
      </trkpt>
      <trkpt lat="38.63316" lon="34.80494">
        <ele>1287.372664</ele>
        <time>2021-11-15T13:02:20.223Z</time>
      </trkpt>
      <trkpt lat="38.63317" lon="34.80507">
        <ele>1288.4615</ele>
        <time>2021-11-15T13:02:26.264Z</time>
      </trkpt>
      <trkpt lat="38.63334" lon="34.80546">
        <ele>1292.288215</ele>
        <time>2021-11-15T13:02:50.004Z</time>
      </trkpt>
      <trkpt lat="38.63335" lon="34.8056">
        <ele>1293.015197</ele>
        <time>2021-11-15T13:02:55.998Z</time>
      </trkpt>
      <trkpt lat="38.63334" lon="34.80574">
        <ele>1293.765052</ele>
        <time>2021-11-15T13:03:04.469Z</time>
      </trkpt>
      <trkpt lat="38.63342" lon="34.80582">
        <ele>1294.431937</ele>
        <time>2021-11-15T13:03:09.904Z</time>
      </trkpt>
      <trkpt lat="38.63347" lon="34.80593">
        <ele>1295.123446</ele>
        <time>2021-11-15T13:03:13.685Z</time>
      </trkpt>
      <trkpt lat="38.63341" lon="34.80612">
        <ele>1296.237418</ele>
        <time>2021-11-15T13:03:24.007Z</time>
      </trkpt>
      <trkpt lat="38.63319" lon="34.80641">
        <ele>1298.371644</ele>
        <time>2021-11-15T13:03:39.002Z</time>
      </trkpt>
      <trkpt lat="38.63315" lon="34.80647">
        <ele>1298.831842</ele>
        <time>2021-11-15T13:03:43.818Z</time>
      </trkpt>
      <trkpt lat="38.63313" lon="34.8064">
        <ele>1299.228345</ele>
        <time>2021-11-15T13:03:46.804Z</time>
      </trkpt>
      <trkpt lat="38.63307" lon="34.80637">
        <ele>1299.661229</ele>
        <time>2021-11-15T13:03:49.785Z</time>
      </trkpt>
      <trkpt lat="38.63302" lon="34.8064">
        <ele>1300.028898</ele>
        <time>2021-11-15T13:03:50.915Z</time>
      </trkpt>
      <trkpt lat="38.63294" lon="34.80674">
        <ele>1301.948703</ele>
        <time>2021-11-15T13:04:02.626Z</time>
      </trkpt>
      <trkpt lat="38.63286" lon="34.80684">
        <ele>1302.733074</ele>
        <time>2021-11-15T13:04:06.249Z</time>
      </trkpt>
      <trkpt lat="38.63257" lon="34.807">
        <ele>1304.694462</ele>
        <time>2021-11-15T13:04:19.371Z</time>
      </trkpt>
      <trkpt lat="38.63235" lon="34.80708">
        <ele>1305.539589</ele>
        <time>2021-11-15T13:04:28.650Z</time>
      </trkpt>
      <trkpt lat="38.63215" lon="34.80721">
        <ele>1306.402998</ele>
        <time>2021-11-15T13:04:36.876Z</time>
      </trkpt>
      <trkpt lat="38.63176" lon="34.80738">
        <ele>1307.981248</ele>
        <time>2021-11-15T13:04:51.834Z</time>
      </trkpt>
      <trkpt lat="38.63164" lon="34.80735">
        <ele>1308.436507</ele>
        <time>2021-11-15T13:04:55.341Z</time>
      </trkpt>
      <trkpt lat="38.6315" lon="34.80729">
        <ele>1308.979947</ele>
        <time>2021-11-15T13:05:00.086Z</time>
      </trkpt>
      <trkpt lat="38.63138" lon="34.80723">
        <ele>1309.487291</ele>
        <time>2021-11-15T13:05:03.888Z</time>
      </trkpt>
      <trkpt lat="38.63124" lon="34.80719">
        <ele>1310.007329</ele>
        <time>2021-11-15T13:05:08.384Z</time>
      </trkpt>
      <trkpt lat="38.63104" lon="34.80705">
        <ele>1310.899987</ele>
        <time>2021-11-15T13:05:17.474Z</time>
      </trkpt>
      <trkpt lat="38.63073" lon="34.80696">
        <ele>1313.021326</ele>
        <time>2021-11-15T13:05:30.464Z</time>
      </trkpt>
      <trkpt lat="38.63018" lon="34.80696">
        <ele>1317.290256</ele>
        <time>2021-11-15T13:05:58.923Z</time>
      </trkpt>
      <trkpt lat="38.62998" lon="34.80671">
        <ele>1319.423453</ele>
        <time>2021-11-15T13:06:17.203Z</time>
      </trkpt>
      <trkpt lat="38.62985" lon="34.80654">
        <ele>1320.879974</ele>
        <time>2021-11-15T13:06:25.786Z</time>
      </trkpt>
      <trkpt lat="38.62984" lon="34.80648">
        <ele>1321.271813</ele>
        <time>2021-11-15T13:06:29.511Z</time>
      </trkpt>
      <trkpt lat="38.62982" lon="34.80633">
        <ele>1322.184836</ele>
        <time>2021-11-15T13:06:37.901Z</time>
      </trkpt>
      <trkpt lat="38.62974" lon="34.80606">
        <ele>1323.933002</ele>
        <time>2021-11-15T13:06:49.439Z</time>
      </trkpt>
      <trkpt lat="38.62973" lon="34.80596">
        <ele>1324.531615</ele>
        <time>2021-11-15T13:06:56.550Z</time>
      </trkpt>
      <trkpt lat="38.62967" lon="34.80589">
        <ele>1325.195353</ele>
        <time>2021-11-15T13:07:00.958Z</time>
      </trkpt>
      <trkpt lat="38.62959" lon="34.80575">
        <ele>1326.037817</ele>
        <time>2021-11-15T13:07:06.867Z</time>
      </trkpt>
      <trkpt lat="38.62958" lon="34.80571">
        <ele>1326.268272</ele>
        <time>2021-11-15T13:07:09.161Z</time>
      </trkpt>
      <trkpt lat="38.62954" lon="34.80557">
        <ele>1326.989733</ele>
        <time>2021-11-15T13:07:18.569Z</time>
      </trkpt>
      <trkpt lat="38.62958" lon="34.80538">
        <ele>1327.979184</ele>
        <time>2021-11-15T13:07:24.846Z</time>
      </trkpt>
      <trkpt lat="38.62961" lon="34.8053">
        <ele>1328.448707</ele>
        <time>2021-11-15T13:07:28.970Z</time>
      </trkpt>
      <trkpt lat="38.62965" lon="34.80524">
        <ele>1328.846139</ele>
        <time>2021-11-15T13:07:33.056Z</time>
      </trkpt>
      <trkpt lat="38.62945" lon="34.80514">
        <ele>1330.185223</ele>
        <time>2021-11-15T13:07:44.845Z</time>
      </trkpt>
      <trkpt lat="38.62922" lon="34.80486">
        <ele>1332.245254</ele>
        <time>2021-11-15T13:08:03.347Z</time>
      </trkpt>
      <trkpt lat="38.62913" lon="34.80477">
        <ele>1332.971336</ele>
        <time>2021-11-15T13:08:07.475Z</time>
      </trkpt>
      <trkpt lat="38.62908" lon="34.80463">
        <ele>1333.768866</ele>
        <time>2021-11-15T13:08:14.620Z</time>
      </trkpt>
      <trkpt lat="38.62906" lon="34.80455">
        <ele>1334.209688</ele>
        <time>2021-11-15T13:08:17.980Z</time>
      </trkpt>
      <trkpt lat="38.62905" lon="34.8043">
        <ele>1335.460344</ele>
        <time>2021-11-15T13:08:24.518Z</time>
      </trkpt>
      <trkpt lat="38.62906" lon="34.80418">
        <ele>1336.084052</ele>
        <time>2021-11-15T13:08:28.789Z</time>
      </trkpt>
      <trkpt lat="38.62885" lon="34.80406">
        <ele>1336.730698</ele>
        <time>2021-11-15T13:08:35.228Z</time>
      </trkpt>
      <trkpt lat="38.6286" lon="34.80383">
        <ele>1336.372072</ele>
        <time>2021-11-15T13:08:42.658Z</time>
      </trkpt>
      <trkpt lat="38.62823" lon="34.80363">
        <ele>1335.9085</ele>
        <time>2021-11-15T13:08:50.305Z</time>
      </trkpt>
      <trkpt lat="38.6279" lon="34.80364">
        <ele>1335.523687</ele>
        <time>2021-11-15T13:08:56.102Z</time>
      </trkpt>
      <trkpt lat="38.62758" lon="34.80342">
        <ele>1335.095943</ele>
        <time>2021-11-15T13:09:02.095Z</time>
      </trkpt>
      <trkpt lat="38.62748" lon="34.80329">
        <ele>1334.929295</ele>
        <time>2021-11-15T13:09:04.394Z</time>
      </trkpt>
      <trkpt lat="38.62717" lon="34.80287">
        <ele>1334.035436</ele>
        <time>2021-11-15T13:09:11.905Z</time>
      </trkpt>
      <trkpt lat="38.62698" lon="34.80267">
        <ele>1333.453289</ele>
        <time>2021-11-15T13:09:16.033Z</time>
      </trkpt>
      <trkpt lat="38.62684" lon="34.80247">
        <ele>1332.940674</ele>
        <time>2021-11-15T13:09:19.676Z</time>
      </trkpt>
      <trkpt lat="38.626" lon="34.80128">
        <ele>1330.264594</ele>
        <time>2021-11-15T13:09:41.231Z</time>
      </trkpt>
      <trkpt lat="38.62589" lon="34.80111">
        <ele>1330.08358</ele>
        <time>2021-11-15T13:09:44.384Z</time>
      </trkpt>
      <trkpt lat="38.62585" lon="34.80105">
        <ele>1330.021341</ele>
        <time>2021-11-15T13:09:45.512Z</time>
      </trkpt>
      <trkpt lat="38.6255" lon="34.80068">
        <ele>1329.552389</ele>
        <time>2021-11-15T13:09:54.062Z</time>
      </trkpt>
      <trkpt lat="38.6251" lon="34.80025">
        <ele>1329.012827</ele>
        <time>2021-11-15T13:10:04.309Z</time>
      </trkpt>
      <trkpt lat="38.62475" lon="34.79982">
        <ele>1328.752073</ele>
        <time>2021-11-15T13:10:14.684Z</time>
      </trkpt>
      <trkpt lat="38.62429" lon="34.79925">
        <ele>1329.447942</ele>
        <time>2021-11-15T13:10:30.651Z</time>
      </trkpt>
      <trkpt lat="38.62419" lon="34.79912">
        <ele>1329.606397</ele>
        <time>2021-11-15T13:10:34.547Z</time>
      </trkpt>
      <trkpt lat="38.62387" lon="34.79873">
        <ele>1330.089225</ele>
        <time>2021-11-15T13:10:46.969Z</time>
      </trkpt>
      <trkpt lat="38.62364" lon="34.79845">
        <ele>1330.426361</ele>
        <time>2021-11-15T13:10:56.017Z</time>
      </trkpt>
      <trkpt lat="38.62352" lon="34.79824">
        <ele>1330.743782</ele>
        <time>2021-11-15T13:11:02.307Z</time>
      </trkpt>
      <trkpt lat="38.62304" lon="34.7973">
        <ele>1333.089495</ele>
        <time>2021-11-15T13:11:29.951Z</time>
      </trkpt>
      <trkpt lat="38.62296" lon="34.79708">
        <ele>1333.609726</ele>
        <time>2021-11-15T13:11:37.091Z</time>
      </trkpt>
      <trkpt lat="38.62263" lon="34.79622">
        <ele>1335.586319</ele>
        <time>2021-11-15T13:12:02.861Z</time>
      </trkpt>
      <trkpt lat="38.6224" lon="34.7956">
        <ele>1336.825087</ele>
        <time>2021-11-15T13:12:22.029Z</time>
      </trkpt>
      <trkpt lat="38.62237" lon="34.79554">
        <ele>1336.940988</ele>
        <time>2021-11-15T13:12:24.391Z</time>
      </trkpt>
      <trkpt lat="38.62182" lon="34.79449">
        <ele>1339.219512</ele>
        <time>2021-11-15T13:12:54.907Z</time>
      </trkpt>
      <trkpt lat="38.62166" lon="34.79425">
        <ele>1339.46201</ele>
        <time>2021-11-15T13:13:01.859Z</time>
      </trkpt>
      <trkpt lat="38.62155" lon="34.79413">
        <ele>1339.340576</ele>
        <time>2021-11-15T13:13:05.109Z</time>
      </trkpt>
      <trkpt lat="38.62031" lon="34.79272">
        <ele>1337.784899</ele>
        <time>2021-11-15T13:13:36.029Z</time>
      </trkpt>
      <trkpt lat="38.61969" lon="34.79202">
        <ele>1335.796639</ele>
        <time>2021-11-15T13:13:50.186Z</time>
      </trkpt>
      <trkpt lat="38.61819" lon="34.79039">
        <ele>1330.392248</ele>
        <time>2021-11-15T13:14:23.049Z</time>
      </trkpt>
      <trkpt lat="38.61754" lon="34.78909">
        <ele>1326.723859</ele>
        <time>2021-11-15T13:14:42.514Z</time>
      </trkpt>
      <trkpt lat="38.61732" lon="34.78886">
        <ele>1325.869434</ele>
        <time>2021-11-15T13:14:47.083Z</time>
      </trkpt>
      <trkpt lat="38.61707" lon="34.7887">
        <ele>1325.033067</ele>
        <time>2021-11-15T13:14:51.558Z</time>
      </trkpt>
      <trkpt lat="38.61676" lon="34.78849">
        <ele>1323.953902</ele>
        <time>2021-11-15T13:14:57.420Z</time>
      </trkpt>
      <trkpt lat="38.61622" lon="34.7881">
        <ele>1322.308026</ele>
        <time>2021-11-15T13:15:08.091Z</time>
      </trkpt>
      <trkpt lat="38.61497" lon="34.78661">
        <ele>1318.87723</ele>
        <time>2021-11-15T13:15:38.333Z</time>
      </trkpt>
      <trkpt lat="38.6145" lon="34.7861">
        <ele>1317.777445</ele>
        <time>2021-11-15T13:15:49.061Z</time>
      </trkpt>
      <trkpt lat="38.61396" lon="34.78562">
        <ele>1316.581502</ele>
        <time>2021-11-15T13:16:00.941Z</time>
      </trkpt>
      <trkpt lat="38.61352" lon="34.78531">
        <ele>1315.814553</ele>
        <time>2021-11-15T13:16:09.932Z</time>
      </trkpt>
      <trkpt lat="38.61202" lon="34.78457">
        <ele>1314.416071</ele>
        <time>2021-11-15T13:16:41.000Z</time>
      </trkpt>
      <trkpt lat="38.61175" lon="34.78441">
        <ele>1314.787955</ele>
        <time>2021-11-15T13:16:47.964Z</time>
      </trkpt>
      <trkpt lat="38.61114" lon="34.78404">
        <ele>1315.973374</ele>
        <time>2021-11-15T13:17:05.702Z</time>
      </trkpt>
      <trkpt lat="38.60683" lon="34.78175">
        <ele>1329.464535</ele>
        <time>2021-11-15T13:19:47.340Z</time>
      </trkpt>
      <trkpt lat="38.60573" lon="34.78108">
        <ele>1334.136535</ele>
        <time>2021-11-15T13:20:33.623Z</time>
      </trkpt>
      <trkpt lat="38.60377" lon="34.77969">
        <ele>1343.298187</ele>
        <time>2021-11-15T13:22:00.725Z</time>
      </trkpt>
      <trkpt lat="38.60202" lon="34.77898">
        <ele>1351.060562</ele>
        <time>2021-11-15T13:23:11.820Z</time>
      </trkpt>
      <trkpt lat="38.60034" lon="34.77822">
        <ele>1359.59783</ele>
        <time>2021-11-15T13:24:25.125Z</time>
      </trkpt>
      <trkpt lat="38.59786" lon="34.77684">
        <ele>1375.832464</ele>
        <time>2021-11-15T13:26:29.536Z</time>
      </trkpt>
      <trkpt lat="38.59741" lon="34.77659">
        <ele>1379.0078</ele>
        <time>2021-11-15T13:26:54.285Z</time>
      </trkpt>
      <trkpt lat="38.59636" lon="34.77598">
        <ele>1385.580815</ele>
        <time>2021-11-15T13:27:53.011Z</time>
      </trkpt>
      <trkpt lat="38.59547" lon="34.77546">
        <ele>1390.79559</ele>
        <time>2021-11-15T13:28:33.058Z</time>
      </trkpt>
      <trkpt lat="38.59518" lon="34.77537">
        <ele>1390.755942</ele>
        <time>2021-11-15T13:28:42.817Z</time>
      </trkpt>
      <trkpt lat="38.59505" lon="34.77537">
        <ele>1390.729022</ele>
        <time>2021-11-15T13:28:46.154Z</time>
      </trkpt>
      <trkpt lat="38.59336" lon="34.77527">
        <ele>1390.051779</ele>
        <time>2021-11-15T13:29:17.299Z</time>
      </trkpt>
      <trkpt lat="38.59288" lon="34.77517">
        <ele>1389.452164</ele>
        <time>2021-11-15T13:29:25.586Z</time>
      </trkpt>
      <trkpt lat="38.59237" lon="34.775">
        <ele>1388.81617</ele>
        <time>2021-11-15T13:29:35.157Z</time>
      </trkpt>
      <trkpt lat="38.59228" lon="34.77495">
        <ele>1388.69583</ele>
        <time>2021-11-15T13:29:36.861Z</time>
      </trkpt>
      <trkpt lat="38.59095" lon="34.77429">
        <ele>1390.295121</ele>
        <time>2021-11-15T13:30:12.884Z</time>
      </trkpt>
      <trkpt lat="38.58924" lon="34.77345">
        <ele>1396.610346</ele>
        <time>2021-11-15T13:31:22.194Z</time>
      </trkpt>
      <trkpt lat="38.58833" lon="34.773">
        <ele>1401.184069</ele>
        <time>2021-11-15T13:32:04.491Z</time>
      </trkpt>
      <trkpt lat="38.58608" lon="34.77211">
        <ele>1413.357001</ele>
        <time>2021-11-15T13:33:48.929Z</time>
      </trkpt>
      <trkpt lat="38.58254" lon="34.77112">
        <ele>1427.794112</ele>
        <time>2021-11-15T13:36:05.103Z</time>
      </trkpt>
      <trkpt lat="38.58134" lon="34.77064">
        <ele>1431.992321</ele>
        <time>2021-11-15T13:36:50.474Z</time>
      </trkpt>
      <trkpt lat="38.57921" lon="34.76923">
        <ele>1436.307604</ele>
        <time>2021-11-15T13:38:06.165Z</time>
      </trkpt>
      <trkpt lat="38.57826" lon="34.76875">
        <ele>1436.33477</ele>
        <time>2021-11-15T13:38:26.177Z</time>
      </trkpt>
      <trkpt lat="38.57738" lon="34.76846">
        <ele>1433.202306</ele>
        <time>2021-11-15T13:38:40.896Z</time>
      </trkpt>
      <trkpt lat="38.57627" lon="34.76835">
        <ele>1428.929028</ele>
        <time>2021-11-15T13:38:58.083Z</time>
      </trkpt>
      <trkpt lat="38.57096" lon="34.76833">
        <ele>1405.250233</ele>
        <time>2021-11-15T13:40:19.451Z</time>
      </trkpt>
      <trkpt lat="38.56927" lon="34.76794">
        <ele>1399.391583</ele>
        <time>2021-11-15T13:40:47.487Z</time>
      </trkpt>
      <trkpt lat="38.56506" lon="34.76512">
        <ele>1384.241921</ele>
        <time>2021-11-15T13:42:05.156Z</time>
      </trkpt>
      <trkpt lat="38.56162" lon="34.76374">
        <ele>1372.850814</ele>
        <time>2021-11-15T13:43:03.552Z</time>
      </trkpt>
      <trkpt lat="38.56044" lon="34.76329">
        <ele>1370.437628</ele>
        <time>2021-11-15T13:43:25.463Z</time>
      </trkpt>
      <trkpt lat="38.55982" lon="34.76305">
        <ele>1369.517692</ele>
        <time>2021-11-15T13:43:37.765Z</time>
      </trkpt>
      <trkpt lat="38.5595" lon="34.76293">
        <ele>1369.043414</ele>
        <time>2021-11-15T13:43:44.249Z</time>
      </trkpt>
      <trkpt lat="38.55931" lon="34.76286">
        <ele>1368.844164</ele>
        <time>2021-11-15T13:43:48.123Z</time>
      </trkpt>
      <trkpt lat="38.55818" lon="34.76251">
        <ele>1367.798794</ele>
        <time>2021-11-15T13:44:11.201Z</time>
      </trkpt>
      <trkpt lat="38.55764" lon="34.76253">
        <ele>1367.298673</ele>
        <time>2021-11-15T13:44:21.325Z</time>
      </trkpt>
      <trkpt lat="38.55647" lon="34.76278">
        <ele>1365.889854</ele>
        <time>2021-11-15T13:44:44.270Z</time>
      </trkpt>
      <trkpt lat="38.55536" lon="34.76298">
        <ele>1364.175687</ele>
        <time>2021-11-15T13:45:04.856Z</time>
      </trkpt>
      <trkpt lat="38.55469" lon="34.76306">
        <ele>1362.918819</ele>
        <time>2021-11-15T13:45:16.802Z</time>
      </trkpt>
      <trkpt lat="38.55418" lon="34.76301">
        <ele>1361.958803</ele>
        <time>2021-11-15T13:45:25.777Z</time>
      </trkpt>
      <trkpt lat="38.55387" lon="34.76305">
        <ele>1361.416396</ele>
        <time>2021-11-15T13:45:31.044Z</time>
      </trkpt>
      <trkpt lat="38.55339" lon="34.76323">
        <ele>1360.512948</ele>
        <time>2021-11-15T13:45:39.773Z</time>
      </trkpt>
      <trkpt lat="38.5514" lon="34.76488">
        <ele>1356.92444</ele>
        <time>2021-11-15T13:46:23.359Z</time>
      </trkpt>
      <trkpt lat="38.551" lon="34.76513">
        <ele>1356.336068</ele>
        <time>2021-11-15T13:46:32.254Z</time>
      </trkpt>
      <trkpt lat="38.5509" lon="34.76516">
        <ele>1356.256086</ele>
        <time>2021-11-15T13:46:34.185Z</time>
      </trkpt>
      <trkpt lat="38.55074" lon="34.7652">
        <ele>1356.127648</ele>
        <time>2021-11-15T13:46:37.382Z</time>
      </trkpt>
      <trkpt lat="38.54994" lon="34.76498">
        <ele>1355.480367</ele>
        <time>2021-11-15T13:46:53.157Z</time>
      </trkpt>
      <trkpt lat="38.54964" lon="34.7648">
        <ele>1355.217976</ele>
        <time>2021-11-15T13:46:59.827Z</time>
      </trkpt>
      <trkpt lat="38.54955" lon="34.76475">
        <ele>1355.142892</ele>
        <time>2021-11-15T13:47:01.665Z</time>
      </trkpt>
      <trkpt lat="38.54983" lon="34.76417">
        <ele>1354.996073</ele>
        <time>2021-11-15T13:47:12.549Z</time>
      </trkpt>
      <trkpt lat="38.54992" lon="34.76388">
        <ele>1355.084421</ele>
        <time>2021-11-15T13:47:17.785Z</time>
      </trkpt>
      <trkpt lat="38.5499" lon="34.7634">
        <ele>1355.219126</ele>
        <time>2021-11-15T13:47:26.055Z</time>
      </trkpt>
      <trkpt lat="38.54979" lon="34.76288">
        <ele>1355.369357</ele>
        <time>2021-11-15T13:47:35.818Z</time>
      </trkpt>
      <trkpt lat="38.54919" lon="34.76164">
        <ele>1356.970275</ele>
        <time>2021-11-15T13:48:07.859Z</time>
      </trkpt>
      <trkpt lat="38.54761" lon="34.75944">
        <ele>1363.023458</ele>
        <time>2021-11-15T13:49:25.668Z</time>
      </trkpt>
      <trkpt lat="38.54631" lon="34.7578">
        <ele>1368.253543</ele>
        <time>2021-11-15T13:50:28.911Z</time>
      </trkpt>
      <trkpt lat="38.54482" lon="34.75563">
        <ele>1373.753194</ele>
        <time>2021-11-15T13:51:41.464Z</time>
      </trkpt>
      <trkpt lat="38.54391" lon="34.75368">
        <ele>1375.733903</ele>
        <time>2021-11-15T13:52:29.711Z</time>
      </trkpt>
      <trkpt lat="38.5432" lon="34.75197">
        <ele>1374.935208</ele>
        <time>2021-11-15T13:53:00.222Z</time>
      </trkpt>
      <trkpt lat="38.54308" lon="34.75169">
        <ele>1374.753136</ele>
        <time>2021-11-15T13:53:04.850Z</time>
      </trkpt>
      <trkpt lat="38.54291" lon="34.75154">
        <ele>1374.605535</ele>
        <time>2021-11-15T13:53:08.508Z</time>
      </trkpt>
      <trkpt lat="38.54277" lon="34.75159">
        <ele>1374.475168</ele>
        <time>2021-11-15T13:53:11.310Z</time>
      </trkpt>
      <trkpt lat="38.5419" lon="34.75188">
        <ele>1373.676138</ele>
        <time>2021-11-15T13:53:27.950Z</time>
      </trkpt>
      <trkpt lat="38.54129" lon="34.75219">
        <ele>1373.09403</ele>
        <time>2021-11-15T13:53:40.967Z</time>
      </trkpt>
      <trkpt lat="38.53862" lon="34.75388">
        <ele>1374.599093</ele>
        <time>2021-11-15T13:54:54.686Z</time>
      </trkpt>
      <trkpt lat="38.53781" lon="34.75421">
        <ele>1375.137395</ele>
        <time>2021-11-15T13:55:16.551Z</time>
      </trkpt>
      <trkpt lat="38.5367" lon="34.75447">
        <ele>1375.488515</ele>
        <time>2021-11-15T13:55:43.627Z</time>
      </trkpt>
      <trkpt lat="38.53265" lon="34.75419">
        <ele>1375.248573</ele>
        <time>2021-11-15T13:57:10.591Z</time>
      </trkpt>
      <trkpt lat="38.53128" lon="34.75392">
        <ele>1376.875149</ele>
        <time>2021-11-15T13:57:47.754Z</time>
      </trkpt>
      <trkpt lat="38.52793" lon="34.75283">
        <ele>1382.469941</ele>
        <time>2021-11-15T13:59:31.825Z</time>
      </trkpt>
      <trkpt lat="38.52403" lon="34.75284">
        <ele>1384.406466</ele>
        <time>2021-11-15T14:01:01.349Z</time>
      </trkpt>
      <trkpt lat="38.52127" lon="34.75223">
        <ele>1387.82553</ele>
        <time>2021-11-15T14:02:19.669Z</time>
      </trkpt>
      <trkpt lat="38.51763" lon="34.75072">
        <ele>1392.895262</ele>
        <time>2021-11-15T14:04:03.672Z</time>
      </trkpt>
      <trkpt lat="38.51475" lon="34.74986">
        <ele>1397.85001</ele>
        <time>2021-11-15T14:05:29.440Z</time>
      </trkpt>
      <trkpt lat="38.51404" lon="34.74978">
        <ele>1399.332755</ele>
        <time>2021-11-15T14:05:51.059Z</time>
      </trkpt>
      <trkpt lat="38.50941" lon="34.74999">
        <ele>1409.485212</ele>
        <time>2021-11-15T14:08:15.696Z</time>
      </trkpt>
      <trkpt lat="38.5087" lon="34.75012">
        <ele>1410.856503</ele>
        <time>2021-11-15T14:08:37.502Z</time>
      </trkpt>
      <trkpt lat="38.50821" lon="34.75029">
        <ele>1411.803409</ele>
        <time>2021-11-15T14:08:52.297Z</time>
      </trkpt>
      <trkpt lat="38.50497" lon="34.75233">
        <ele>1417.776684</ele>
        <time>2021-11-15T14:10:36.647Z</time>
      </trkpt>
      <trkpt lat="38.50441" lon="34.75261">
        <ele>1418.657884</ele>
        <time>2021-11-15T14:10:53.141Z</time>
      </trkpt>
      <trkpt lat="38.50409" lon="34.75267">
        <ele>1419.104028</ele>
        <time>2021-11-15T14:11:02.239Z</time>
      </trkpt>
      <trkpt lat="38.50343" lon="34.75266">
        <ele>1419.979047</ele>
        <time>2021-11-15T14:11:20.119Z</time>
      </trkpt>
      <trkpt lat="38.50266" lon="34.75277">
        <ele>1421.084589</ele>
        <time>2021-11-15T14:11:41.632Z</time>
      </trkpt>
      <trkpt lat="38.4971" lon="34.75413">
        <ele>1430.14759</ele>
        <time>2021-11-15T14:14:25.314Z</time>
      </trkpt>
      <trkpt lat="38.49638" lon="34.75423">
        <ele>1430.992813</ele>
        <time>2021-11-15T14:14:44.741Z</time>
      </trkpt>
      <trkpt lat="38.49595" lon="34.75423">
        <ele>1431.50611</ele>
        <time>2021-11-15T14:14:56.156Z</time>
      </trkpt>
      <trkpt lat="38.49079" lon="34.75309">
        <ele>1433.902484</ele>
        <time>2021-11-15T14:17:02.262Z</time>
      </trkpt>
      <trkpt lat="38.49004" lon="34.75305">
        <ele>1433.761765</ele>
        <time>2021-11-15T14:17:18.712Z</time>
      </trkpt>
      <trkpt lat="38.48747" lon="34.75313">
        <ele>1431.835764</ele>
        <time>2021-11-15T14:18:09.428Z</time>
      </trkpt>
      <trkpt lat="38.48736" lon="34.75314">
        <ele>1431.731455</ele>
        <time>2021-11-15T14:18:11.419Z</time>
      </trkpt>
      <trkpt lat="38.48671" lon="34.7531">
        <ele>1431.08003</ele>
        <time>2021-11-15T14:18:23.805Z</time>
      </trkpt>
      <trkpt lat="38.48622" lon="34.75308">
        <ele>1430.542254</ele>
        <time>2021-11-15T14:18:32.952Z</time>
      </trkpt>
      <trkpt lat="38.48438" lon="34.75285">
        <ele>1429.136903</ele>
        <time>2021-11-15T14:19:08.615Z</time>
      </trkpt>
      <trkpt lat="38.48385" lon="34.75288">
        <ele>1429.019487</ele>
        <time>2021-11-15T14:19:20.083Z</time>
      </trkpt>
      <trkpt lat="38.48018" lon="34.75337">
        <ele>1430.978534</ele>
        <time>2021-11-15T14:20:51.845Z</time>
      </trkpt>
      <trkpt lat="38.47947" lon="34.75329">
        <ele>1431.479934</ele>
        <time>2021-11-15T14:21:09.913Z</time>
      </trkpt>
      <trkpt lat="38.47903" lon="34.75325">
        <ele>1431.790884</ele>
        <time>2021-11-15T14:21:21.131Z</time>
      </trkpt>
      <trkpt lat="38.47628" lon="34.75259">
        <ele>1433.388423</ele>
        <time>2021-11-15T14:22:30.114Z</time>
      </trkpt>
      <trkpt lat="38.47455" lon="34.75228">
        <ele>1433.127572</ele>
        <time>2021-11-15T14:23:08.198Z</time>
      </trkpt>
      <trkpt lat="38.47388" lon="34.75224">
        <ele>1432.507312</ele>
        <time>2021-11-15T14:23:21.503Z</time>
      </trkpt>
      <trkpt lat="38.47219" lon="34.75221">
        <ele>1430.287427</ele>
        <time>2021-11-15T14:23:52.644Z</time>
      </trkpt>
      <trkpt lat="38.47148" lon="34.75219">
        <ele>1429.057021</ele>
        <time>2021-11-15T14:24:05.466Z</time>
      </trkpt>
      <trkpt lat="38.47074" lon="34.75216">
        <ele>1427.783938</ele>
        <time>2021-11-15T14:24:18.640Z</time>
      </trkpt>
      <trkpt lat="38.47068" lon="34.75216">
        <ele>1427.690529</ele>
        <time>2021-11-15T14:24:19.697Z</time>
      </trkpt>
      <trkpt lat="38.46997" lon="34.75208">
        <ele>1426.584092</ele>
        <time>2021-11-15T14:24:32.351Z</time>
      </trkpt>
      <trkpt lat="38.46907" lon="34.75193">
        <ele>1425.173366</ele>
        <time>2021-11-15T14:24:49.160Z</time>
      </trkpt>
      <trkpt lat="38.46543" lon="34.75134">
        <ele>1420.969737</ele>
        <time>2021-11-15T14:25:59.114Z</time>
      </trkpt>
      <trkpt lat="38.46352" lon="34.75107">
        <ele>1418.695011</ele>
        <time>2021-11-15T14:26:35.274Z</time>
      </trkpt>
      <trkpt lat="38.4634" lon="34.75105">
        <ele>1418.616343</ele>
        <time>2021-11-15T14:26:37.397Z</time>
      </trkpt>
      <trkpt lat="38.46247" lon="34.75086">
        <ele>1417.975701</ele>
        <time>2021-11-15T14:26:55.719Z</time>
      </trkpt>
      <trkpt lat="38.46201" lon="34.75075">
        <ele>1417.651769</ele>
        <time>2021-11-15T14:27:05.282Z</time>
      </trkpt>
      <trkpt lat="38.46199" lon="34.75082">
        <ele>1417.612261</ele>
        <time>2021-11-15T14:27:06.805Z</time>
      </trkpt>
      <trkpt lat="38.46195" lon="34.75109">
        <ele>1417.639625</ele>
        <time>2021-11-15T14:27:12.129Z</time>
      </trkpt>
      <trkpt lat="38.46184" lon="34.75109">
        <ele>1417.713029</ele>
        <time>2021-11-15T14:27:14.474Z</time>
      </trkpt>
      <trkpt lat="38.46185" lon="34.75101">
        <ele>1417.757303</ele>
        <time>2021-11-15T14:27:16.320Z</time>
      </trkpt>
      <trkpt lat="38.46162" lon="34.75088">
        <ele>1417.933031</ele>
        <time>2021-11-15T14:27:23.143Z</time>
      </trkpt>
      <trkpt lat="38.46142" lon="34.75125">
        <ele>1418.172738</ele>
        <time>2021-11-15T14:27:32.603Z</time>
      </trkpt>
      <trkpt lat="38.4612" lon="34.75165">
        <ele>1418.43205</ele>
        <time>2021-11-15T14:27:42.538Z</time>
      </trkpt>
      <trkpt lat="38.46108" lon="34.75184">
        <ele>1418.562392</ele>
        <time>2021-11-15T14:27:47.841Z</time>
      </trkpt>
      <trkpt lat="38.46086" lon="34.75205">
        <ele>1418.748748</ele>
        <time>2021-11-15T14:27:54.054Z</time>
      </trkpt>
      <trkpt lat="38.46082" lon="34.75215">
        <ele>1418.79428</ele>
        <time>2021-11-15T14:27:57.178Z</time>
      </trkpt>
      <trkpt lat="38.46075" lon="34.7521">
        <ele>1418.823579</ele>
        <time>2021-11-15T14:27:58.741Z</time>
      </trkpt>
      <trkpt lat="38.46067" lon="34.75203">
        <ele>1418.862207</ele>
        <time>2021-11-15T14:28:00.791Z</time>
      </trkpt>
      <trkpt lat="38.46056" lon="34.75193">
        <ele>1418.915284</ele>
        <time>2021-11-15T14:28:06.045Z</time>
      </trkpt>
      <trkpt lat="38.4602" lon="34.75182">
        <ele>1419.055679</ele>
        <time>2021-11-15T14:28:17.100Z</time>
      </trkpt>
      <trkpt lat="38.46007" lon="34.75178">
        <ele>1419.107924</ele>
        <time>2021-11-15T14:28:20.632Z</time>
      </trkpt>
      <trkpt lat="38.46002" lon="34.7515">
        <ele>1419.195718</ele>
        <time>2021-11-15T14:28:26.917Z</time>
      </trkpt>
      <trkpt lat="38.45997" lon="34.75123">
        <ele>1419.281082</ele>
        <time>2021-11-15T14:28:31.610Z</time>
      </trkpt>
      <trkpt lat="38.45991" lon="34.75142">
        <ele>1419.343584</ele>
        <time>2021-11-15T14:28:36.420Z</time>
      </trkpt>
      <trkpt lat="38.45986" lon="34.75162">
        <ele>1419.406856</ele>
        <time>2021-11-15T14:28:39.266Z</time>
      </trkpt>
      <trkpt lat="38.4598" lon="34.75195">
        <ele>1419.321056</ele>
        <time>2021-11-15T14:28:44.904Z</time>
      </trkpt>
      <trkpt lat="38.45976" lon="34.752">
        <ele>1419.238755</ele>
        <time>2021-11-15T14:28:45.753Z</time>
      </trkpt>
      <trkpt lat="38.45973" lon="34.75202">
        <ele>1419.176314</ele>
        <time>2021-11-15T14:28:46.416Z</time>
      </trkpt>
      <trkpt lat="38.45965" lon="34.75203">
        <ele>1419.055445</ele>
        <time>2021-11-15T14:28:48.058Z</time>
      </trkpt>
      <trkpt lat="38.45934" lon="34.752">
        <ele>1418.552451</ele>
        <time>2021-11-15T14:28:53.781Z</time>
      </trkpt>
      <trkpt lat="38.4591" lon="34.75197">
        <ele>1418.1662</ele>
        <time>2021-11-15T14:28:58.581Z</time>
      </trkpt>
      <trkpt lat="38.45882" lon="34.75182">
        <ele>1417.672226</ele>
        <time>2021-11-15T14:29:04.888Z</time>
      </trkpt>
      <trkpt lat="38.45873" lon="34.75172">
        <ele>1417.486454</ele>
        <time>2021-11-15T14:29:06.858Z</time>
      </trkpt>
      <trkpt lat="38.45866" lon="34.75166">
        <ele>1417.347131</ele>
        <time>2021-11-15T14:29:08.679Z</time>
      </trkpt>
      <trkpt lat="38.45869" lon="34.75125">
        <ele>1416.831049</ele>
        <time>2021-11-15T14:29:14.589Z</time>
      </trkpt>
      <trkpt lat="38.4587" lon="34.75117">
        <ele>1416.729734</ele>
        <time>2021-11-15T14:29:15.815Z</time>
      </trkpt>
      <trkpt lat="38.45874" lon="34.75038">
        <ele>1415.816765</ele>
        <time>2021-11-15T14:29:26.717Z</time>
      </trkpt>
      <trkpt lat="38.45874" lon="34.75031">
        <ele>1415.738813</ele>
        <time>2021-11-15T14:29:27.759Z</time>
      </trkpt>
      <trkpt lat="38.45789" lon="34.7503">
        <ele>1414.495191</ele>
        <time>2021-11-15T14:29:43.743Z</time>
      </trkpt>
      <trkpt lat="38.45769" lon="34.7503">
        <ele>1414.217231</ele>
        <time>2021-11-15T14:29:47.566Z</time>
      </trkpt>
      <trkpt lat="38.45693" lon="34.75029">
        <ele>1413.97388</ele>
        <time>2021-11-15T14:30:04.092Z</time>
      </trkpt>
      <trkpt lat="38.45589" lon="34.7503">
        <ele>1413.965068</ele>
        <time>2021-11-15T14:30:27.918Z</time>
      </trkpt>
      <trkpt lat="38.45547" lon="34.7503">
        <ele>1414.027276</ele>
        <time>2021-11-15T14:30:37.749Z</time>
      </trkpt>
      <trkpt lat="38.45526" lon="34.75024">
        <ele>1414.078842</ele>
        <time>2021-11-15T14:30:42.757Z</time>
      </trkpt>
      <trkpt lat="38.45514" lon="34.75019">
        <ele>1414.108325</ele>
        <time>2021-11-15T14:30:45.701Z</time>
      </trkpt>
      <trkpt lat="38.45507" lon="34.75016">
        <ele>1414.124837</ele>
        <time>2021-11-15T14:30:47.340Z</time>
      </trkpt>
      <trkpt lat="38.45299" lon="34.74889">
        <ele>1414.463039</ele>
        <time>2021-11-15T14:31:40.350Z</time>
      </trkpt>
      <trkpt lat="38.45188" lon="34.74839">
        <ele>1414.575142</ele>
        <time>2021-11-15T14:32:05.879Z</time>
      </trkpt>
      <trkpt lat="38.44321" lon="34.74458">
        <ele>1415.816477</ele>
        <time>2021-11-15T14:35:35.850Z</time>
      </trkpt>
      <trkpt lat="38.43578" lon="34.74164">
        <ele>1416.645874</ele>
        <time>2021-11-15T14:38:30.115Z</time>
      </trkpt>
      <trkpt lat="38.4319" lon="34.74024">
        <ele>1420.902814</ele>
        <time>2021-11-15T14:40:18.629Z</time>
      </trkpt>
      <trkpt lat="38.42802" lon="34.73872">
        <ele>1423.017829</ele>
        <time>2021-11-15T14:42:01.836Z</time>
      </trkpt>
      <trkpt lat="38.41853" lon="34.73611">
        <ele>1406.198861</ele>
        <time>2021-11-15T14:44:55.508Z</time>
      </trkpt>
      <trkpt lat="38.41765" lon="34.73593">
        <ele>1404.056063</ele>
        <time>2021-11-15T14:45:10.016Z</time>
      </trkpt>
      <trkpt lat="38.41616" lon="34.73594">
        <ele>1400.123912</ele>
        <time>2021-11-15T14:45:34.709Z</time>
      </trkpt>
      <trkpt lat="38.40073" lon="34.73764">
        <ele>1391.378431</ele>
        <time>2021-11-15T14:50:52.572Z</time>
      </trkpt>
      <trkpt lat="38.39968" lon="34.73771">
        <ele>1390.293915</ele>
        <time>2021-11-15T14:51:12.485Z</time>
      </trkpt>
      <trkpt lat="38.39764" lon="34.73762">
        <ele>1386.689645</ele>
        <time>2021-11-15T14:51:49.087Z</time>
      </trkpt>
      <trkpt lat="38.39656" lon="34.7375">
        <ele>1384.366104</ele>
        <time>2021-11-15T14:52:07.932Z</time>
      </trkpt>
      <trkpt lat="38.39509" lon="34.73723">
        <ele>1380.741496</ele>
        <time>2021-11-15T14:52:32.937Z</time>
      </trkpt>
      <trkpt lat="38.39459" lon="34.73713">
        <ele>1379.468335</ele>
        <time>2021-11-15T14:52:41.579Z</time>
      </trkpt>
      <trkpt lat="38.39375" lon="34.73702">
        <ele>1377.604831</ele>
        <time>2021-11-15T14:52:56.158Z</time>
      </trkpt>
      <trkpt lat="38.39331" lon="34.73697">
        <ele>1376.640863</ele>
        <time>2021-11-15T14:53:03.734Z</time>
      </trkpt>
      <trkpt lat="38.38775" lon="34.73604">
        <ele>1365.481179</ele>
        <time>2021-11-15T14:54:42.702Z</time>
      </trkpt>
      <trkpt lat="38.38779" lon="34.73549">
        <ele>1364.644789</ele>
        <time>2021-11-15T14:54:50.673Z</time>
      </trkpt>
      <trkpt lat="38.38722" lon="34.73549">
        <ele>1363.574862</ele>
        <time>2021-11-15T14:55:01.248Z</time>
      </trkpt>
      <trkpt lat="38.38644" lon="34.73546">
        <ele>1362.119948</ele>
        <time>2021-11-15T14:55:15.826Z</time>
      </trkpt>
      <trkpt lat="38.38545" lon="34.73545">
        <ele>1360.536172</ele>
        <time>2021-11-15T14:55:34.372Z</time>
      </trkpt>
      <trkpt lat="38.38489" lon="34.73551">
        <ele>1359.708496</ele>
        <time>2021-11-15T14:55:45.272Z</time>
      </trkpt>
      <trkpt lat="38.38464" lon="34.73552">
        <ele>1359.345178</ele>
        <time>2021-11-15T14:55:50.123Z</time>
      </trkpt>
      <trkpt lat="38.38354" lon="34.73537">
        <ele>1358.145261</ele>
        <time>2021-11-15T14:56:11.334Z</time>
      </trkpt>
      <trkpt lat="38.38235" lon="34.73515">
        <ele>1357.161033</ele>
        <time>2021-11-15T14:56:35.064Z</time>
      </trkpt>
      <trkpt lat="38.38165" lon="34.7351">
        <ele>1356.96031</ele>
        <time>2021-11-15T14:56:49.614Z</time>
      </trkpt>
      <trkpt lat="38.38088" lon="34.73502">
        <ele>1356.738499</ele>
        <time>2021-11-15T14:57:06.545Z</time>
      </trkpt>
      <trkpt lat="38.3807" lon="34.73499">
        <ele>1356.707991</ele>
        <time>2021-11-15T14:57:10.704Z</time>
      </trkpt>
      <trkpt lat="38.37995" lon="34.73483">
        <ele>1356.837926</ele>
        <time>2021-11-15T14:57:28.044Z</time>
      </trkpt>
      <trkpt lat="38.37985" lon="34.73479">
        <ele>1356.855612</ele>
        <time>2021-11-15T14:57:30.463Z</time>
      </trkpt>
      <trkpt lat="38.3791" lon="34.7345">
        <ele>1356.990495</ele>
        <time>2021-11-15T14:57:48.938Z</time>
      </trkpt>
      <trkpt lat="38.37811" lon="34.73403">
        <ele>1356.920728</ele>
        <time>2021-11-15T14:58:13.109Z</time>
      </trkpt>
      <trkpt lat="38.37759" lon="34.7338">
        <ele>1356.870716</ele>
        <time>2021-11-15T14:58:24.949Z</time>
      </trkpt>
      <trkpt lat="38.37744" lon="34.73367">
        <ele>1356.854339</ele>
        <time>2021-11-15T14:58:28.556Z</time>
      </trkpt>
      <trkpt lat="38.37729" lon="34.73353">
        <ele>1356.760107</ele>
        <time>2021-11-15T14:58:32.484Z</time>
      </trkpt>
      <trkpt lat="38.37707" lon="34.73341">
        <ele>1356.502399</ele>
        <time>2021-11-15T14:58:37.116Z</time>
      </trkpt>
      <trkpt lat="38.37699" lon="34.73341">
        <ele>1356.41526</ele>
        <time>2021-11-15T14:58:38.733Z</time>
      </trkpt>
      <trkpt lat="38.37681" lon="34.73341">
        <ele>1356.220293</ele>
        <time>2021-11-15T14:58:42.218Z</time>
      </trkpt>
      <trkpt lat="38.37661" lon="34.73341">
        <ele>1355.998092</ele>
        <time>2021-11-15T14:58:46.124Z</time>
      </trkpt>
      <trkpt lat="38.37621" lon="34.73345">
        <ele>1355.565489</ele>
        <time>2021-11-15T14:58:53.644Z</time>
      </trkpt>
      <trkpt lat="38.37611" lon="34.73346">
        <ele>1355.456235</ele>
        <time>2021-11-15T14:58:55.513Z</time>
      </trkpt>
      <trkpt lat="38.37606" lon="34.73347">
        <ele>1355.396111</ele>
        <time>2021-11-15T14:58:56.465Z</time>
      </trkpt>
      <trkpt lat="38.37582" lon="34.7335">
        <ele>1355.135942</ele>
        <time>2021-11-15T14:59:00.928Z</time>
      </trkpt>
      <trkpt lat="38.37555" lon="34.73349">
        <ele>1354.844494</ele>
        <time>2021-11-15T14:59:05.781Z</time>
      </trkpt>
      <trkpt lat="38.37551" lon="34.73349">
        <ele>1354.796039</ele>
        <time>2021-11-15T14:59:06.596Z</time>
      </trkpt>
      <trkpt lat="38.37545" lon="34.73348">
        <ele>1354.72781</ele>
        <time>2021-11-15T14:59:07.766Z</time>
      </trkpt>
      <trkpt lat="38.37505" lon="34.73346">
        <ele>1354.29416</ele>
        <time>2021-11-15T14:59:15.085Z</time>
      </trkpt>
      <trkpt lat="38.37478" lon="34.73346">
        <ele>1353.998302</ele>
        <time>2021-11-15T14:59:20.162Z</time>
      </trkpt>
      <trkpt lat="38.37448" lon="34.73348">
        <ele>1353.665324</ele>
        <time>2021-11-15T14:59:25.842Z</time>
      </trkpt>
      <trkpt lat="38.37438" lon="34.73352">
        <ele>1353.547678</ele>
        <time>2021-11-15T14:59:27.932Z</time>
      </trkpt>
      <trkpt lat="38.37419" lon="34.73363">
        <ele>1353.320863</ele>
        <time>2021-11-15T14:59:31.860Z</time>
      </trkpt>
      <trkpt lat="38.37418" lon="34.73371">
        <ele>1353.245556</ele>
        <time>2021-11-15T14:59:33.233Z</time>
      </trkpt>
      <trkpt lat="38.37418" lon="34.73382">
        <ele>1353.157592</ele>
        <time>2021-11-15T14:59:34.879Z</time>
      </trkpt>
      <trkpt lat="38.37416" lon="34.73402">
        <ele>1352.976553</ele>
        <time>2021-11-15T14:59:38.346Z</time>
      </trkpt>
      <trkpt lat="38.37414" lon="34.73446">
        <ele>1352.816054</ele>
        <time>2021-11-15T14:59:45.797Z</time>
      </trkpt>
      <trkpt lat="38.37411" lon="34.73477">
        <ele>1352.737623</ele>
        <time>2021-11-15T14:59:51.128Z</time>
      </trkpt>
      <trkpt lat="38.37355" lon="34.73464">
        <ele>1352.552649</ele>
        <time>2021-11-15T15:00:30.855Z</time>
      </trkpt>
      <trkpt lat="38.37352" lon="34.73472">
        <ele>1352.531486</ele>
        <time>2021-11-15T15:00:35.448Z</time>
      </trkpt>
      <trkpt lat="38.37355" lon="34.73464">
        <ele>1352.510322</ele>
        <time>2021-11-15T15:00:40.042Z</time>
      </trkpt>
      <trkpt lat="38.37411" lon="34.73477">
        <ele>1352.32532</ele>
        <time>2021-11-15T15:01:19.769Z</time>
      </trkpt>
      <trkpt lat="38.37414" lon="34.73446">
        <ele>1352.179813</ele>
        <time>2021-11-15T15:01:25.019Z</time>
      </trkpt>
      <trkpt lat="38.37416" lon="34.73402">
        <ele>1351.972736</ele>
        <time>2021-11-15T15:01:32.384Z</time>
      </trkpt>
      <trkpt lat="38.37418" lon="34.73382">
        <ele>1351.873921</ele>
        <time>2021-11-15T15:01:35.860Z</time>
      </trkpt>
      <trkpt lat="38.37418" lon="34.73371">
        <ele>1351.825909</ele>
        <time>2021-11-15T15:01:37.536Z</time>
      </trkpt>
      <trkpt lat="38.37402" lon="34.73365">
        <ele>1351.728693</ele>
        <time>2021-11-15T15:01:40.892Z</time>
      </trkpt>
      <trkpt lat="38.37376" lon="34.73346">
        <ele>1351.547563</ele>
        <time>2021-11-15T15:01:47.244Z</time>
      </trkpt>
      <trkpt lat="38.37356" lon="34.7332">
        <ele>1351.374278</ele>
        <time>2021-11-15T15:01:53.216Z</time>
      </trkpt>
      <trkpt lat="38.37347" lon="34.73283">
        <ele>1351.177547</ele>
        <time>2021-11-15T15:01:59.324Z</time>
      </trkpt>
      <trkpt lat="38.3734" lon="34.73261">
        <ele>1351.029876</ele>
        <time>2021-11-15T15:02:03.147Z</time>
      </trkpt>
      <trkpt lat="38.37289" lon="34.73246">
        <ele>1350.614655</ele>
        <time>2021-11-15T15:02:13.803Z</time>
      </trkpt>
      <trkpt lat="38.37291" lon="34.73223">
        <ele>1350.472409</ele>
        <time>2021-11-15T15:02:17.545Z</time>
      </trkpt>
      <trkpt lat="38.373" lon="34.73207">
        <ele>1350.347877</ele>
        <time>2021-11-15T15:02:20.876Z</time>
      </trkpt>
      <trkpt lat="38.37308" lon="34.73192">
        <ele>1350.236877</ele>
        <time>2021-11-15T15:02:23.751Z</time>
      </trkpt>
      <trkpt lat="38.37309" lon="34.7317">
        <ele>1350.10421</ele>
        <time>2021-11-15T15:02:27.283Z</time>
      </trkpt>
      <trkpt lat="38.37304" lon="34.73122">
        <ele>1349.804398</ele>
        <time>2021-11-15T15:02:35.224Z</time>
      </trkpt>
      <trkpt lat="38.37302" lon="34.73081">
        <ele>1349.53838</ele>
        <time>2021-11-15T15:02:41.935Z</time>
      </trkpt>
      <trkpt lat="38.37309" lon="34.73043">
        <ele>1349.282176</ele>
        <time>2021-11-15T15:02:48.439Z</time>
      </trkpt>
      <trkpt lat="38.37318" lon="34.73038">
        <ele>1349.201231</ele>
        <time>2021-11-15T15:02:50.494Z</time>
      </trkpt>
      <trkpt lat="38.37298" lon="34.72985">
        <ele>1348.823451</ele>
        <time>2021-11-15T15:02:59.449Z</time>
      </trkpt>
      <trkpt lat="38.37278" lon="34.72939">
        <ele>1348.483015</ele>
        <time>2021-11-15T15:03:07.511Z</time>
      </trkpt>
      <trkpt lat="38.37256" lon="34.72889">
        <ele>1348.085142</ele>
        <time>2021-11-15T15:03:16.259Z</time>
      </trkpt>
      <trkpt lat="38.37239" lon="34.72831">
        <ele>1347.64266</ele>
        <time>2021-11-15T15:03:25.552Z</time>
      </trkpt>
      <trkpt lat="38.37221" lon="34.72748">
        <ele>1347.016078</ele>
        <time>2021-11-15T15:03:38.815Z</time>
      </trkpt>
      <trkpt lat="38.37194" lon="34.72576">
        <ele>1345.696348</ele>
        <time>2021-11-15T15:04:05.647Z</time>
      </trkpt>
      <trkpt lat="38.37187" lon="34.72535">
        <ele>1345.372679</ele>
        <time>2021-11-15T15:04:12.137Z</time>
      </trkpt>
      <trkpt lat="38.37168" lon="34.7241">
        <ele>1344.275564</ele>
        <time>2021-11-15T15:04:30.870Z</time>
      </trkpt>
      <trkpt lat="38.3716" lon="34.72338">
        <ele>1343.576707</ele>
        <time>2021-11-15T15:04:41.634Z</time>
      </trkpt>
      <trkpt lat="38.37158" lon="34.72321">
        <ele>1343.417335</ele>
        <time>2021-11-15T15:04:44.051Z</time>
      </trkpt>
      <trkpt lat="38.37154" lon="34.72246">
        <ele>1342.723535</ele>
        <time>2021-11-15T15:04:55.184Z</time>
      </trkpt>
      <trkpt lat="38.37152" lon="34.72221">
        <ele>1342.577272</ele>
        <time>2021-11-15T15:04:58.874Z</time>
      </trkpt>
      <trkpt lat="38.37144" lon="34.71439">
        <ele>1337.878058</ele>
        <time>2021-11-15T15:07:01.544Z</time>
      </trkpt>
      <trkpt lat="38.37147" lon="34.7139">
        <ele>1337.521459</ele>
        <time>2021-11-15T15:07:08.853Z</time>
      </trkpt>
      <trkpt lat="38.37172" lon="34.71216">
        <ele>1335.950045</ele>
        <time>2021-11-15T15:07:34.799Z</time>
      </trkpt>
      <trkpt lat="38.37175" lon="34.71162">
        <ele>1335.434753</ele>
        <time>2021-11-15T15:07:42.616Z</time>
      </trkpt>
      <trkpt lat="38.37165" lon="34.70903">
        <ele>1333.402526</ele>
        <time>2021-11-15T15:08:22.052Z</time>
      </trkpt>
      <trkpt lat="38.37158" lon="34.70784">
        <ele>1332.624382</ele>
        <time>2021-11-15T15:08:40.811Z</time>
      </trkpt>
      <trkpt lat="38.3715" lon="34.70722">
        <ele>1332.227418</ele>
        <time>2021-11-15T15:08:50.604Z</time>
      </trkpt>
      <trkpt lat="38.37136" lon="34.70645">
        <ele>1331.707085</ele>
        <time>2021-11-15T15:09:02.691Z</time>
      </trkpt>
      <trkpt lat="38.37121" lon="34.7059">
        <ele>1331.137098</ele>
        <time>2021-11-15T15:09:11.371Z</time>
      </trkpt>
      <trkpt lat="38.37048" lon="34.7039">
        <ele>1328.941547</ele>
        <time>2021-11-15T15:09:43.530Z</time>
      </trkpt>
      <trkpt lat="38.37001" lon="34.70238">
        <ele>1327.281235</ele>
        <time>2021-11-15T15:10:07.479Z</time>
      </trkpt>
      <trkpt lat="38.36924" lon="34.69912">
        <ele>1324.478534</ele>
        <time>2021-11-15T15:10:58.935Z</time>
      </trkpt>
      <trkpt lat="38.3691" lon="34.69849">
        <ele>1323.944652</ele>
        <time>2021-11-15T15:11:08.767Z</time>
      </trkpt>
      <trkpt lat="38.36885" lon="34.69525">
        <ele>1321.19412</ele>
        <time>2021-11-15T15:11:57.403Z</time>
      </trkpt>
      <trkpt lat="38.36871" lon="34.69428">
        <ele>1320.522933</ele>
        <time>2021-11-15T15:12:12.308Z</time>
      </trkpt>
      <trkpt lat="38.36614" lon="34.68486">
        <ele>1314.928435</ele>
        <time>2021-11-15T15:14:48.535Z</time>
      </trkpt>
      <trkpt lat="38.36422" lon="34.67611">
        <ele>1312.83863</ele>
        <time>2021-11-15T15:17:20.428Z</time>
      </trkpt>
      <trkpt lat="38.36409" lon="34.67548">
        <ele>1312.54396</ele>
        <time>2021-11-15T15:17:30.613Z</time>
      </trkpt>
      <trkpt lat="38.36388" lon="34.67456">
        <ele>1311.997577</ele>
        <time>2021-11-15T15:17:45.311Z</time>
      </trkpt>
      <trkpt lat="38.36204" lon="34.66619">
        <ele>1307.120153</ele>
        <time>2021-11-15T15:20:01.049Z</time>
      </trkpt>
      <trkpt lat="38.36153" lon="34.66433">
        <ele>1306.294339</ele>
        <time>2021-11-15T15:20:32.972Z</time>
      </trkpt>
      <trkpt lat="38.36131" lon="34.66358">
        <ele>1306.003391</ele>
        <time>2021-11-15T15:20:46.018Z</time>
      </trkpt>
      <trkpt lat="38.361" lon="34.66254">
        <ele>1305.601988</ele>
        <time>2021-11-15T15:21:04.064Z</time>
      </trkpt>
      <trkpt lat="38.36029" lon="34.66051">
        <ele>1304.855981</ele>
        <time>2021-11-15T15:21:40.012Z</time>
      </trkpt>
      <trkpt lat="38.36006" lon="34.65963">
        <ele>1304.742239</ele>
        <time>2021-11-15T15:21:55.407Z</time>
      </trkpt>
      <trkpt lat="38.35988" lon="34.659">
        <ele>1304.659731</ele>
        <time>2021-11-15T15:22:06.803Z</time>
      </trkpt>
      <trkpt lat="38.35948" lon="34.65728">
        <ele>1304.623776</ele>
        <time>2021-11-15T15:22:38.745Z</time>
      </trkpt>
      <trkpt lat="38.35931" lon="34.65649">
        <ele>1304.650906</ele>
        <time>2021-11-15T15:22:53.224Z</time>
      </trkpt>
      <trkpt lat="38.35925" lon="34.65621">
        <ele>1304.660426</ele>
        <time>2021-11-15T15:22:58.382Z</time>
      </trkpt>
      <trkpt lat="38.3591" lon="34.65536">
        <ele>1304.368626</ele>
        <time>2021-11-15T15:23:13.194Z</time>
      </trkpt>
      <trkpt lat="38.35866" lon="34.65302">
        <ele>1303.49665</ele>
        <time>2021-11-15T15:23:51.168Z</time>
      </trkpt>
      <trkpt lat="38.35827" lon="34.651">
        <ele>1302.951773</ele>
        <time>2021-11-15T15:24:24.848Z</time>
      </trkpt>
      <trkpt lat="38.35803" lon="34.64972">
        <ele>1302.918199</ele>
        <time>2021-11-15T15:24:48.470Z</time>
      </trkpt>
      <trkpt lat="38.35784" lon="34.64886">
        <ele>1302.980446</ele>
        <time>2021-11-15T15:25:05.045Z</time>
      </trkpt>
      <trkpt lat="38.35753" lon="34.6478">
        <ele>1303.093368</ele>
        <time>2021-11-15T15:25:25.522Z</time>
      </trkpt>
      <trkpt lat="38.35712" lon="34.64666">
        <ele>1302.896527</ele>
        <time>2021-11-15T15:25:46.446Z</time>
      </trkpt>
      <trkpt lat="38.35677" lon="34.64573">
        <ele>1302.569177</ele>
        <time>2021-11-15T15:26:03.206Z</time>
      </trkpt>
      <trkpt lat="38.35671" lon="34.64558">
        <ele>1302.518807</ele>
        <time>2021-11-15T15:26:05.755Z</time>
      </trkpt>
      <trkpt lat="38.35669" lon="34.64549">
        <ele>1302.489576</ele>
        <time>2021-11-15T15:26:07.236Z</time>
      </trkpt>
      <trkpt lat="38.35665" lon="34.64535">
        <ele>1302.440373</ele>
        <time>2021-11-15T15:26:09.761Z</time>
      </trkpt>
      <trkpt lat="38.35657" lon="34.64491">
        <ele>1302.306359</ele>
        <time>2021-11-15T15:26:16.912Z</time>
      </trkpt>
      <trkpt lat="38.3565" lon="34.64391">
        <ele>1302.005684</ele>
        <time>2021-11-15T15:26:33.163Z</time>
      </trkpt>
      <trkpt lat="38.35622" lon="34.64018">
        <ele>1301.102141</ele>
        <time>2021-11-15T15:27:35.898Z</time>
      </trkpt>
      <trkpt lat="38.35604" lon="34.63837">
        <ele>1300.472154</ele>
        <time>2021-11-15T15:28:05.426Z</time>
      </trkpt>
      <trkpt lat="38.35541" lon="34.63485">
        <ele>1299.026019</ele>
        <time>2021-11-15T15:29:02.700Z</time>
      </trkpt>
      <trkpt lat="38.35443" lon="34.63041">
        <ele>1298.512293</ele>
        <time>2021-11-15T15:30:21.892Z</time>
      </trkpt>
      <trkpt lat="38.35386" lon="34.62819">
        <ele>1298.274868</ele>
        <time>2021-11-15T15:31:02.246Z</time>
      </trkpt>
      <trkpt lat="38.3538" lon="34.62794">
        <ele>1298.240662</ele>
        <time>2021-11-15T15:31:06.768Z</time>
      </trkpt>
      <trkpt lat="38.35365" lon="34.6274">
        <ele>1298.166462</ele>
        <time>2021-11-15T15:31:16.211Z</time>
      </trkpt>
      <trkpt lat="38.35263" lon="34.62351">
        <ele>1297.027083</ele>
        <time>2021-11-15T15:32:23.350Z</time>
      </trkpt>
      <trkpt lat="38.35192" lon="34.62114">
        <ele>1296.807572</ele>
        <time>2021-11-15T15:33:07.022Z</time>
      </trkpt>
      <trkpt lat="38.34932" lon="34.61452">
        <ele>1296.584028</ele>
        <time>2021-11-15T15:35:15.292Z</time>
      </trkpt>
      <trkpt lat="38.3484" lon="34.61218">
        <ele>1296.603743</ele>
        <time>2021-11-15T15:36:00.240Z</time>
      </trkpt>
      <trkpt lat="38.34756" lon="34.61007">
        <ele>1297.168582</ele>
        <time>2021-11-15T15:36:44.555Z</time>
      </trkpt>
      <trkpt lat="38.34429" lon="34.60177">
        <ele>1299.850397</ele>
        <time>2021-11-15T15:39:37.643Z</time>
      </trkpt>
      <trkpt lat="38.34369" lon="34.59987">
        <ele>1300.32835</ele>
        <time>2021-11-15T15:40:15.043Z</time>
      </trkpt>
      <trkpt lat="38.34343" lon="34.5987">
        <ele>1300.620724</ele>
        <time>2021-11-15T15:40:37.365Z</time>
      </trkpt>
      <trkpt lat="38.34322" lon="34.5976">
        <ele>1300.952705</ele>
        <time>2021-11-15T15:40:58.231Z</time>
      </trkpt>
      <trkpt lat="38.34303" lon="34.59617">
        <ele>1301.452354</ele>
        <time>2021-11-15T15:41:25.752Z</time>
      </trkpt>
      <trkpt lat="38.34232" lon="34.58659">
        <ele>1305.804887</ele>
        <time>2021-11-15T15:44:31.453Z</time>
      </trkpt>
      <trkpt lat="38.34233" lon="34.58475">
        <ele>1306.242993</ele>
        <time>2021-11-15T15:45:04.930Z</time>
      </trkpt>
      <trkpt lat="38.34244" lon="34.58361">
        <ele>1306.603972</ele>
        <time>2021-11-15T15:45:25.559Z</time>
      </trkpt>
      <trkpt lat="38.34247" lon="34.58333">
        <ele>1306.700915</ele>
        <time>2021-11-15T15:45:30.894Z</time>
      </trkpt>
      <trkpt lat="38.34252" lon="34.58239">
        <ele>1307.018028</ele>
        <time>2021-11-15T15:45:48.877Z</time>
      </trkpt>
      <trkpt lat="38.3424" lon="34.5815">
        <ele>1307.694768</ele>
        <time>2021-11-15T15:46:06.909Z</time>
      </trkpt>
      <trkpt lat="38.34224" lon="34.58081">
        <ele>1308.313261</ele>
        <time>2021-11-15T15:46:22.230Z</time>
      </trkpt>
      <trkpt lat="38.34147" lon="34.57847">
        <ele>1310.55791</ele>
        <time>2021-11-15T15:47:16.681Z</time>
      </trkpt>
      <trkpt lat="38.34083" lon="34.57679">
        <ele>1312.265746</ele>
        <time>2021-11-15T15:47:54.602Z</time>
      </trkpt>
      <trkpt lat="38.34051" lon="34.57585">
        <ele>1313.205079</ele>
        <time>2021-11-15T15:48:16.155Z</time>
      </trkpt>
      <trkpt lat="38.33952" lon="34.57278">
        <ele>1318.576677</ele>
        <time>2021-11-15T15:49:36.631Z</time>
      </trkpt>
      <trkpt lat="38.33922" lon="34.57184">
        <ele>1320.271384</ele>
        <time>2021-11-15T15:50:01.514Z</time>
      </trkpt>
      <trkpt lat="38.33893" lon="34.57102">
        <ele>1321.421642</ele>
        <time>2021-11-15T15:50:22.438Z</time>
      </trkpt>
      <trkpt lat="38.33867" lon="34.5702">
        <ele>1322.417092</ele>
        <time>2021-11-15T15:50:41.809Z</time>
      </trkpt>
      <trkpt lat="38.33775" lon="34.56732">
        <ele>1325.128828</ele>
        <time>2021-11-15T15:51:45.744Z</time>
      </trkpt>
      <trkpt lat="38.33763" lon="34.56707">
        <ele>1325.395885</ele>
        <time>2021-11-15T15:51:52.184Z</time>
      </trkpt>
      <trkpt lat="38.33758" lon="34.56689">
        <ele>1325.564438</ele>
        <time>2021-11-15T15:51:55.982Z</time>
      </trkpt>
      <trkpt lat="38.33732" lon="34.56607">
        <ele>1326.335033</ele>
        <time>2021-11-15T15:52:14.203Z</time>
      </trkpt>
      <trkpt lat="38.3343" lon="34.55613">
        <ele>1336.188586</ele>
        <time>2021-11-15T15:55:59.391Z</time>
      </trkpt>
      <trkpt lat="38.33394" lon="34.55466">
        <ele>1337.805999</ele>
        <time>2021-11-15T15:56:32.795Z</time>
      </trkpt>
      <trkpt lat="38.33382" lon="34.55378">
        <ele>1338.918589</ele>
        <time>2021-11-15T15:56:53.061Z</time>
      </trkpt>
      <trkpt lat="38.33378" lon="34.55324">
        <ele>1339.61758</ele>
        <time>2021-11-15T15:57:05.548Z</time>
      </trkpt>
      <trkpt lat="38.33375" lon="34.55268">
        <ele>1340.337623</ele>
        <time>2021-11-15T15:57:18.487Z</time>
      </trkpt>
      <trkpt lat="38.33351" lon="34.53135">
        <ele>1365.852648</ele>
        <time>2021-11-15T16:05:12.572Z</time>
      </trkpt>
      <trkpt lat="38.33362" lon="34.5295">
        <ele>1367.872229</ele>
        <time>2021-11-15T16:05:52.954Z</time>
      </trkpt>
      <trkpt lat="38.33389" lon="34.52756">
        <ele>1369.901379</ele>
        <time>2021-11-15T16:06:35.519Z</time>
      </trkpt>
      <trkpt lat="38.33423" lon="34.52545">
        <ele>1371.93995</ele>
        <time>2021-11-15T16:07:21.634Z</time>
      </trkpt>
      <trkpt lat="38.33425" lon="34.52532">
        <ele>1372.061188</ele>
        <time>2021-11-15T16:07:24.421Z</time>
      </trkpt>
      <trkpt lat="38.335" lon="34.52063">
        <ele>1375.482647</ele>
        <time>2021-11-15T16:09:00.977Z</time>
      </trkpt>
      <trkpt lat="38.33536" lon="34.51835">
        <ele>1377.250473</ele>
        <time>2021-11-15T16:09:47.864Z</time>
      </trkpt>
      <trkpt lat="38.33539" lon="34.51818">
        <ele>1377.386909</ele>
        <time>2021-11-15T16:09:51.606Z</time>
      </trkpt>
      <trkpt lat="38.3357" lon="34.5163">
        <ele>1379.9478</ele>
        <time>2021-11-15T16:10:35.616Z</time>
      </trkpt>
      <trkpt lat="38.33577" lon="34.5159">
        <ele>1380.49983</ele>
        <time>2021-11-15T16:10:45.322Z</time>
      </trkpt>
      <trkpt lat="38.33609" lon="34.51426">
        <ele>1383.024708</ele>
        <time>2021-11-15T16:11:25.369Z</time>
      </trkpt>
      <trkpt lat="38.33676" lon="34.511">
        <ele>1387.803478</ele>
        <time>2021-11-15T16:12:42.947Z</time>
      </trkpt>
      <trkpt lat="38.33747" lon="34.5069">
        <ele>1393.791448</ele>
        <time>2021-11-15T16:14:19.847Z</time>
      </trkpt>
      <trkpt lat="38.33764" lon="34.50556">
        <ele>1396.165676</ele>
        <time>2021-11-15T16:14:52.693Z</time>
      </trkpt>
      <trkpt lat="38.33769" lon="34.50533">
        <ele>1396.575303</ele>
        <time>2021-11-15T16:14:58.631Z</time>
      </trkpt>
      <trkpt lat="38.33806" lon="34.50303">
        <ele>1400.909556</ele>
        <time>2021-11-15T16:15:57.504Z</time>
      </trkpt>
      <trkpt lat="38.33832" lon="34.50204">
        <ele>1402.804126</ele>
        <time>2021-11-15T16:16:23.679Z</time>
      </trkpt>
      <trkpt lat="38.33815" lon="34.50188">
        <ele>1403.254394</ele>
        <time>2021-11-15T16:16:30.342Z</time>
      </trkpt>
      <trkpt lat="38.33837" lon="34.50045">
        <ele>1405.731831</ele>
        <time>2021-11-15T16:17:06.561Z</time>
      </trkpt>
      <trkpt lat="38.33865" lon="34.49849">
        <ele>1408.23764</ele>
        <time>2021-11-15T16:17:53.067Z</time>
      </trkpt>
      <trkpt lat="38.33895" lon="34.49702">
        <ele>1409.773147</ele>
        <time>2021-11-15T16:18:26.340Z</time>
      </trkpt>
      <trkpt lat="38.33926" lon="34.49639">
        <ele>1410.469827</ele>
        <time>2021-11-15T16:18:42.666Z</time>
      </trkpt>
      <trkpt lat="38.3396" lon="34.49597">
        <ele>1411.008104</ele>
        <time>2021-11-15T16:18:55.653Z</time>
      </trkpt>
      <trkpt lat="38.34028" lon="34.49525">
        <ele>1411.856317</ele>
        <time>2021-11-15T16:19:19.701Z</time>
      </trkpt>
      <trkpt lat="38.34017" lon="34.49511">
        <ele>1411.997981</ele>
        <time>2021-11-15T16:19:23.730Z</time>
      </trkpt>
      <trkpt lat="38.34076" lon="34.49491">
        <ele>1412.585554</ele>
        <time>2021-11-15T16:19:40.325Z</time>
      </trkpt>
      <trkpt lat="38.34256" lon="34.49359">
        <ele>1413.159522</ele>
        <time>2021-11-15T16:20:30.911Z</time>
      </trkpt>
      <trkpt lat="38.34267" lon="34.49352">
        <ele>1412.98787</ele>
        <time>2021-11-15T16:20:33.699Z</time>
      </trkpt>
      <trkpt lat="38.34677" lon="34.49051">
        <ele>1405.018204</ele>
        <time>2021-11-15T16:21:59.388Z</time>
      </trkpt>
      <trkpt lat="38.34764" lon="34.49021">
        <ele>1400.920554</ele>
        <time>2021-11-15T16:22:13.232Z</time>
      </trkpt>
      <trkpt lat="38.34833" lon="34.48981">
        <ele>1396.630282</ele>
        <time>2021-11-15T16:22:24.296Z</time>
      </trkpt>
      <trkpt lat="38.34919" lon="34.48913">
        <ele>1391.112434</ele>
        <time>2021-11-15T16:22:38.856Z</time>
      </trkpt>
      <trkpt lat="38.34979" lon="34.48847">
        <ele>1386.926449</ele>
        <time>2021-11-15T16:22:50.588Z</time>
      </trkpt>
      <trkpt lat="38.3502" lon="34.48782">
        <ele>1384.097144</ele>
        <time>2021-11-15T16:23:00.847Z</time>
      </trkpt>
      <trkpt lat="38.35198" lon="34.48385">
        <ele>1376.652741</ele>
        <time>2021-11-15T16:24:05.419Z</time>
      </trkpt>
      <trkpt lat="38.35254" lon="34.4829">
        <ele>1373.419606</ele>
        <time>2021-11-15T16:24:20.705Z</time>
      </trkpt>
      <trkpt lat="38.35298" lon="34.48248">
        <ele>1371.51448</ele>
        <time>2021-11-15T16:24:29.225Z</time>
      </trkpt>
      <trkpt lat="38.35418" lon="34.48182">
        <ele>1364.518751</ele>
        <time>2021-11-15T16:24:48.585Z</time>
      </trkpt>
      <trkpt lat="38.35497" lon="34.48112">
        <ele>1359.289166</ele>
        <time>2021-11-15T16:25:02.784Z</time>
      </trkpt>
      <trkpt lat="38.35542" lon="34.48043">
        <ele>1355.682147</ele>
        <time>2021-11-15T16:25:13.294Z</time>
      </trkpt>
      <trkpt lat="38.35568" lon="34.47991">
        <ele>1353.21752</ele>
        <time>2021-11-15T16:25:20.590Z</time>
      </trkpt>
      <trkpt lat="38.35882" lon="34.47153">
        <ele>1326.058384</ele>
        <time>2021-11-15T16:27:16.417Z</time>
      </trkpt>
      <trkpt lat="38.35959" lon="34.46946">
        <ele>1321.347367</ele>
        <time>2021-11-15T16:27:46.325Z</time>
      </trkpt>
      <trkpt lat="38.36069" lon="34.4664">
        <ele>1319.087456</ele>
        <time>2021-11-15T16:28:37.566Z</time>
      </trkpt>
      <trkpt lat="38.36127" lon="34.46486">
        <ele>1319.762733</ele>
        <time>2021-11-15T16:29:11.290Z</time>
      </trkpt>
      <trkpt lat="38.36156" lon="34.4639">
        <ele>1321.529405</ele>
        <time>2021-11-15T16:29:36.039Z</time>
      </trkpt>
      <trkpt lat="38.3617" lon="34.46312">
        <ele>1322.892149</ele>
        <time>2021-11-15T16:29:56.924Z</time>
      </trkpt>
      <trkpt lat="38.36174" lon="34.46256">
        <ele>1324.021572</ele>
        <time>2021-11-15T16:30:12.374Z</time>
      </trkpt>
      <trkpt lat="38.36163" lon="34.46151">
        <ele>1326.294912</ele>
        <time>2021-11-15T16:30:41.417Z</time>
      </trkpt>
      <trkpt lat="38.36091" lon="34.45662">
        <ele>1333.89915</ele>
        <time>2021-11-15T16:32:41.645Z</time>
      </trkpt>
      <trkpt lat="38.36109" lon="34.45537">
        <ele>1332.560112</ele>
        <time>2021-11-15T16:33:00.726Z</time>
      </trkpt>
      <trkpt lat="38.36155" lon="34.45422">
        <ele>1329.618411</ele>
        <time>2021-11-15T16:33:16.874Z</time>
      </trkpt>
      <trkpt lat="38.36362" lon="34.45143">
        <ele>1312.780507</ele>
        <time>2021-11-15T16:34:01.374Z</time>
      </trkpt>
      <trkpt lat="38.36422" lon="34.4503">
        <ele>1306.326017</ele>
        <time>2021-11-15T16:34:16.830Z</time>
      </trkpt>
      <trkpt lat="38.36435" lon="34.44967">
        <ele>1303.351952</ele>
        <time>2021-11-15T16:34:24.276Z</time>
      </trkpt>
      <trkpt lat="38.36455" lon="34.44869">
        <ele>1298.75034</ele>
        <time>2021-11-15T16:34:35.971Z</time>
      </trkpt>
      <trkpt lat="38.36508" lon="34.44715">
        <ele>1292.578875</ele>
        <time>2021-11-15T16:34:56.269Z</time>
      </trkpt>
      <trkpt lat="38.36676" lon="34.44492">
        <ele>1282.555936</ele>
        <time>2021-11-15T16:35:34.235Z</time>
      </trkpt>
      <trkpt lat="38.36966" lon="34.44148">
        <ele>1269.049317</ele>
        <time>2021-11-15T16:36:37.952Z</time>
      </trkpt>
      <trkpt lat="38.37038" lon="34.44063">
        <ele>1266.028124</ele>
        <time>2021-11-15T16:36:54.181Z</time>
      </trkpt>
      <trkpt lat="38.37127" lon="34.43958">
        <ele>1262.498781</ele>
        <time>2021-11-15T16:37:14.228Z</time>
      </trkpt>
      <trkpt lat="38.37239" lon="34.43821">
        <ele>1258.015086</ele>
        <time>2021-11-15T16:37:40.104Z</time>
      </trkpt>
      <trkpt lat="38.37419" lon="34.43571">
        <ele>1250.215956</ele>
        <time>2021-11-15T16:38:23.870Z</time>
      </trkpt>
      <trkpt lat="38.37698" lon="34.43144">
        <ele>1239.504912</ele>
        <time>2021-11-15T16:39:37.931Z</time>
      </trkpt>
      <trkpt lat="38.37887" lon="34.4287">
        <ele>1234.697338</ele>
        <time>2021-11-15T16:40:30.241Z</time>
      </trkpt>
      <trkpt lat="38.37915" lon="34.4284">
        <ele>1234.12086</ele>
        <time>2021-11-15T16:40:36.928Z</time>
      </trkpt>
      <trkpt lat="38.37922" lon="34.42833">
        <ele>1233.986139</ele>
        <time>2021-11-15T16:40:38.407Z</time>
      </trkpt>
      <trkpt lat="38.37962" lon="34.42806">
        <ele>1233.141519</ele>
        <time>2021-11-15T16:40:46.625Z</time>
      </trkpt>
      <trkpt lat="38.38004" lon="34.42416">
        <ele>1227.539238</ele>
        <time>2021-11-15T16:41:41.009Z</time>
      </trkpt>
      <trkpt lat="38.38046" lon="34.41971">
        <ele>1225.234402</ele>
        <time>2021-11-15T16:42:52.707Z</time>
      </trkpt>
      <trkpt lat="38.3817" lon="34.40697">
        <ele>1217.183877</ele>
        <time>2021-11-15T16:46:12.047Z</time>
      </trkpt>
      <trkpt lat="38.38288" lon="34.39579">
        <ele>1205.918289</ele>
        <time>2021-11-15T16:48:57.787Z</time>
      </trkpt>
      <trkpt lat="38.38362" lon="34.38902">
        <ele>1197.477573</ele>
        <time>2021-11-15T16:50:34.299Z</time>
      </trkpt>
      <trkpt lat="38.38625" lon="34.36315">
        <ele>1175.135083</ele>
        <time>2021-11-15T16:57:05.871Z</time>
      </trkpt>
      <trkpt lat="38.38639" lon="34.36253">
        <ele>1174.606782</ele>
        <time>2021-11-15T16:57:15.643Z</time>
      </trkpt>
      <trkpt lat="38.38669" lon="34.36166">
        <ele>1173.837328</ele>
        <time>2021-11-15T16:57:29.978Z</time>
      </trkpt>
      <trkpt lat="38.38675" lon="34.36146">
        <ele>1173.659303</ele>
        <time>2021-11-15T16:57:33.316Z</time>
      </trkpt>
      <trkpt lat="38.38703" lon="34.36063">
        <ele>1172.930143</ele>
        <time>2021-11-15T16:57:46.788Z</time>
      </trkpt>
      <trkpt lat="38.38791" lon="34.35674">
        <ele>1168.998745</ele>
        <time>2021-11-15T16:58:46.374Z</time>
      </trkpt>
      <trkpt lat="38.38799" lon="34.35489">
        <ele>1167.296239</ele>
        <time>2021-11-15T16:59:14.188Z</time>
      </trkpt>
      <trkpt lat="38.3881" lon="34.35429">
        <ele>1166.749066</ele>
        <time>2021-11-15T16:59:23.231Z</time>
      </trkpt>
      <trkpt lat="38.38824" lon="34.35383">
        <ele>1166.315553</ele>
        <time>2021-11-15T16:59:30.480Z</time>
      </trkpt>
      <trkpt lat="38.38868" lon="34.35236">
        <ele>1165.137644</ele>
        <time>2021-11-15T16:59:53.670Z</time>
      </trkpt>
      <trkpt lat="38.38881" lon="34.35194">
        <ele>1164.802879</ele>
        <time>2021-11-15T17:00:00.782Z</time>
      </trkpt>
      <trkpt lat="38.389" lon="34.35152">
        <ele>1164.841352</ele>
        <time>2021-11-15T17:00:09.018Z</time>
      </trkpt>
      <trkpt lat="38.38907" lon="34.35132">
        <ele>1164.988404</ele>
        <time>2021-11-15T17:00:13.034Z</time>
      </trkpt>
      <trkpt lat="38.38914" lon="34.35084">
        <ele>1165.305657</ele>
        <time>2021-11-15T17:00:22.709Z</time>
      </trkpt>
      <trkpt lat="38.38927" lon="34.35079">
        <ele>1165.414425</ele>
        <time>2021-11-15T17:00:26.211Z</time>
      </trkpt>
      <trkpt lat="38.38968" lon="34.3501">
        <ele>1165.982978</ele>
        <time>2021-11-15T17:00:45.796Z</time>
      </trkpt>
      <trkpt lat="38.39002" lon="34.34947">
        <ele>1166.562665</ele>
        <time>2021-11-15T17:01:03.722Z</time>
      </trkpt>
      <trkpt lat="38.39011" lon="34.34916">
        <ele>1166.826567</ele>
        <time>2021-11-15T17:01:11.176Z</time>
      </trkpt>
      <trkpt lat="38.39018" lon="34.34829">
        <ele>1167.538177</ele>
        <time>2021-11-15T17:01:29.845Z</time>
      </trkpt>
      <trkpt lat="38.39025" lon="34.3476">
        <ele>1168.055076</ele>
        <time>2021-11-15T17:01:43.327Z</time>
      </trkpt>
      <trkpt lat="38.39032" lon="34.34669">
        <ele>1168.365618</ele>
        <time>2021-11-15T17:02:00.973Z</time>
      </trkpt>
      <trkpt lat="38.39029" lon="34.34654">
        <ele>1168.416365</ele>
        <time>2021-11-15T17:02:04.054Z</time>
      </trkpt>
      <trkpt lat="38.39028" lon="34.34632">
        <ele>1168.49092</ele>
        <time>2021-11-15T17:02:08.002Z</time>
      </trkpt>
      <trkpt lat="38.39028" lon="34.3462">
        <ele>1168.531309</ele>
        <time>2021-11-15T17:02:10.291Z</time>
      </trkpt>
      <trkpt lat="38.39033" lon="34.34584">
        <ele>1168.65452</ele>
        <time>2021-11-15T17:02:17.240Z</time>
      </trkpt>
      <trkpt lat="38.39036" lon="34.34565">
        <ele>1168.717543</ele>
        <time>2021-11-15T17:02:21.134Z</time>
      </trkpt>
      <trkpt lat="38.39043" lon="34.34533">
        <ele>1168.871981</ele>
        <time>2021-11-15T17:02:27.943Z</time>
      </trkpt>
      <trkpt lat="38.39051" lon="34.34516">
        <ele>1168.99774</ele>
        <time>2021-11-15T17:02:31.997Z</time>
      </trkpt>
      <trkpt lat="38.39124" lon="34.34428">
        <ele>1169.851002</ele>
        <time>2021-11-15T17:02:59.298Z</time>
      </trkpt>
      <trkpt lat="38.39163" lon="34.34392">
        <ele>1170.256404</ele>
        <time>2021-11-15T17:03:12.122Z</time>
      </trkpt>
      <trkpt lat="38.39239" lon="34.34343">
        <ele>1170.577161</ele>
        <time>2021-11-15T17:03:34.322Z</time>
      </trkpt>
      <trkpt lat="38.39225" lon="34.34275">
        <ele>1170.759673</ele>
        <time>2021-11-15T17:03:47.508Z</time>
      </trkpt>
      <trkpt lat="38.39207" lon="34.34187">
        <ele>1170.955008</ele>
        <time>2021-11-15T17:04:03.678Z</time>
      </trkpt>
      <trkpt lat="38.39206" lon="34.34174">
        <ele>1170.971571</ele>
        <time>2021-11-15T17:04:05.930Z</time>
      </trkpt>
      <trkpt lat="38.39206" lon="34.34165">
        <ele>1170.98403</ele>
        <time>2021-11-15T17:04:07.691Z</time>
      </trkpt>
      <trkpt lat="38.39206" lon="34.3416">
        <ele>1170.990389</ele>
        <time>2021-11-15T17:04:08.458Z</time>
      </trkpt>
      <trkpt lat="38.39208" lon="34.34147">
        <ele>1171.007776</ele>
        <time>2021-11-15T17:04:10.820Z</time>
      </trkpt>
      <trkpt lat="38.39218" lon="34.341">
        <ele>1171.070311</ele>
        <time>2021-11-15T17:04:19.370Z</time>
      </trkpt>
      <trkpt lat="38.39237" lon="34.34002">
        <ele>1171.201947</ele>
        <time>2021-11-15T17:04:38.633Z</time>
      </trkpt>
      <trkpt lat="38.39254" lon="34.33914">
        <ele>1172.225895</ele>
        <time>2021-11-15T17:04:57.611Z</time>
      </trkpt>
      <trkpt lat="38.39259" lon="34.33881">
        <ele>1172.639753</ele>
        <time>2021-11-15T17:05:05.383Z</time>
      </trkpt>
      <trkpt lat="38.39274" lon="34.33884">
        <ele>1172.877589</ele>
        <time>2021-11-15T17:05:09.952Z</time>
      </trkpt>
      <trkpt lat="38.3931" lon="34.33886">
        <ele>1173.447276</ele>
        <time>2021-11-15T17:05:21.505Z</time>
      </trkpt>
      <trkpt lat="38.39319" lon="34.33836">
        <ele>1174.075084</ele>
        <time>2021-11-15T17:05:34.579Z</time>
      </trkpt>
      <trkpt lat="38.39331" lon="34.33798">
        <ele>1174.622256</ele>
        <time>2021-11-15T17:05:45.330Z</time>
      </trkpt>
      <trkpt lat="38.39357" lon="34.33743">
        <ele>1175.473489</ele>
        <time>2021-11-15T17:06:01.641Z</time>
      </trkpt>
      <trkpt lat="38.39362" lon="34.33721">
        <ele>1175.77388</ele>
        <time>2021-11-15T17:06:07.107Z</time>
      </trkpt>
      <trkpt lat="38.39378" lon="34.33684">
        <ele>1176.337971</ele>
        <time>2021-11-15T17:06:16.980Z</time>
      </trkpt>
      <trkpt lat="38.39386" lon="34.33662">
        <ele>1176.655989</ele>
        <time>2021-11-15T17:06:22.235Z</time>
      </trkpt>
      <trkpt lat="38.3939" lon="34.33645">
        <ele>1176.887353</ele>
        <time>2021-11-15T17:06:25.870Z</time>
      </trkpt>
      <trkpt lat="38.394" lon="34.33642">
        <ele>1177.06172</ele>
        <time>2021-11-15T17:06:28.565Z</time>
      </trkpt>
      <trkpt lat="38.39408" lon="34.33638">
        <ele>1176.997587</ele>
        <time>2021-11-15T17:06:30.634Z</time>
      </trkpt>
      <trkpt lat="38.39422" lon="34.33621">
        <ele>1176.842982</ele>
        <time>2021-11-15T17:06:35.519Z</time>
      </trkpt>
      <trkpt lat="38.3942" lon="34.33567">
        <ele>1176.512905</ele>
        <time>2021-11-15T17:06:44.910Z</time>
      </trkpt>
      <trkpt lat="38.39447" lon="34.33568">
        <ele>1176.305356</ele>
        <time>2021-11-15T17:06:50.292Z</time>
      </trkpt>
      <trkpt lat="38.39478" lon="34.33566">
        <ele>1176.063303</ele>
        <time>2021-11-15T17:06:56.445Z</time>
      </trkpt>
      <trkpt lat="38.39474" lon="34.33461">
        <ele>1175.094394</ele>
        <time>2021-11-15T17:07:11.103Z</time>
      </trkpt>
      <trkpt lat="38.39471" lon="34.33405">
        <ele>1174.293972</ele>
        <time>2021-11-15T17:07:18.735Z</time>
      </trkpt>
      <trkpt lat="38.3947" lon="34.33333">
        <ele>1173.264556</ele>
        <time>2021-11-15T17:07:28.580Z</time>
      </trkpt>
      <trkpt lat="38.39469" lon="34.33224">
        <ele>1172.061733</ele>
        <time>2021-11-15T17:07:44.222Z</time>
      </trkpt>
      <trkpt lat="38.39468" lon="34.33175">
        <ele>1171.745594</ele>
        <time>2021-11-15T17:07:51.680Z</time>
      </trkpt>
      <trkpt lat="38.39466" lon="34.3306">
        <ele>1171.006453</ele>
        <time>2021-11-15T17:08:10.093Z</time>
      </trkpt>
      <trkpt lat="38.39466" lon="34.33037">
        <ele>1170.881627</ele>
        <time>2021-11-15T17:08:14.005Z</time>
      </trkpt>
      <trkpt lat="38.39465" lon="34.32928">
        <ele>1170.728836</ele>
        <time>2021-11-15T17:08:32.774Z</time>
      </trkpt>
      <trkpt lat="38.39464" lon="34.3287">
        <ele>1170.64731</ele>
        <time>2021-11-15T17:08:42.587Z</time>
      </trkpt>
      <trkpt lat="38.39463" lon="34.32822">
        <ele>1170.579139</ele>
        <time>2021-11-15T17:08:50.863Z</time>
      </trkpt>
      <trkpt lat="38.39462" lon="34.32733">
        <ele>1170.216274</ele>
        <time>2021-11-15T17:09:05.649Z</time>
      </trkpt>
      <trkpt lat="38.39461" lon="34.32641">
        <ele>1169.810748</ele>
        <time>2021-11-15T17:09:20.220Z</time>
      </trkpt>
      <trkpt lat="38.39461" lon="34.32533">
        <ele>1169.235088</ele>
        <time>2021-11-15T17:09:36.496Z</time>
      </trkpt>
      <trkpt lat="38.39462" lon="34.32349">
        <ele>1168.049929</ele>
        <time>2021-11-15T17:10:05.077Z</time>
      </trkpt>
      <trkpt lat="38.39448" lon="34.32061">
        <ele>1166.221227</ele>
        <time>2021-11-15T17:10:50.854Z</time>
      </trkpt>
      <trkpt lat="38.39343" lon="34.31449">
        <ele>1159.525814</ele>
        <time>2021-11-15T17:12:21.310Z</time>
      </trkpt>
      <trkpt lat="38.39302" lon="34.3126">
        <ele>1156.829745</ele>
        <time>2021-11-15T17:12:49.023Z</time>
      </trkpt>
      <trkpt lat="38.39261" lon="34.31125">
        <ele>1154.639842</ele>
        <time>2021-11-15T17:13:08.924Z</time>
      </trkpt>
      <trkpt lat="38.39182" lon="34.30825">
        <ele>1149.905337</ele>
        <time>2021-11-15T17:13:52.547Z</time>
      </trkpt>
      <trkpt lat="38.39165" lon="34.30709">
        <ele>1148.866786</ele>
        <time>2021-11-15T17:14:10.222Z</time>
      </trkpt>
      <trkpt lat="38.3915" lon="34.30535">
        <ele>1147.527167</ele>
        <time>2021-11-15T17:14:37.968Z</time>
      </trkpt>
      <trkpt lat="38.39134" lon="34.30427">
        <ele>1146.340921</ele>
        <time>2021-11-15T17:14:54.321Z</time>
      </trkpt>
      <trkpt lat="38.39052" lon="34.30092">
        <ele>1141.692899</ele>
        <time>2021-11-15T17:15:42.629Z</time>
      </trkpt>
      <trkpt lat="38.38927" lon="34.2963">
        <ele>1139.154017</ele>
        <time>2021-11-15T17:17:00.999Z</time>
      </trkpt>
      <trkpt lat="38.38898" lon="34.29539">
        <ele>1138.680726</ele>
        <time>2021-11-15T17:17:16.777Z</time>
      </trkpt>
      <trkpt lat="38.38853" lon="34.29467">
        <ele>1138.141228</ele>
        <time>2021-11-15T17:17:31.054Z</time>
      </trkpt>
      <trkpt lat="38.38717" lon="34.29299">
        <ele>1136.057477</ele>
        <time>2021-11-15T17:18:07.031Z</time>
      </trkpt>
      <trkpt lat="38.38653" lon="34.29181">
        <ele>1134.862564</ele>
        <time>2021-11-15T17:18:28.372Z</time>
      </trkpt>
      <trkpt lat="38.38549" lon="34.28956">
        <ele>1133.081396</ele>
        <time>2021-11-15T17:19:08.275Z</time>
      </trkpt>
      <trkpt lat="38.38496" lon="34.28913">
        <ele>1133.229627</ele>
        <time>2021-11-15T17:19:21.512Z</time>
      </trkpt>
      <trkpt lat="38.38472" lon="34.28885">
        <ele>1133.394188</ele>
        <time>2021-11-15T17:19:28.787Z</time>
      </trkpt>
      <trkpt lat="38.38446" lon="34.28872">
        <ele>1133.538367</ele>
        <time>2021-11-15T17:19:35.610Z</time>
      </trkpt>
      <trkpt lat="38.38419" lon="34.28867">
        <ele>1133.673377</ele>
        <time>2021-11-15T17:19:42.370Z</time>
      </trkpt>
      <trkpt lat="38.38323" lon="34.28805">
        <ele>1135.773529</ele>
        <time>2021-11-15T17:20:14.657Z</time>
      </trkpt>
      <trkpt lat="38.38289" lon="34.28795">
        <ele>1136.769649</ele>
        <time>2021-11-15T17:20:27.345Z</time>
      </trkpt>
      <trkpt lat="38.38269" lon="34.28789">
        <ele>1137.364908</ele>
        <time>2021-11-15T17:20:35.282Z</time>
      </trkpt>
      <trkpt lat="38.38244" lon="34.28793">
        <ele>1138.061718</ele>
        <time>2021-11-15T17:20:44.024Z</time>
      </trkpt>
      <trkpt lat="38.38234" lon="34.28792">
        <ele>1138.366592</ele>
        <time>2021-11-15T17:20:48.255Z</time>
      </trkpt>
      <trkpt lat="38.3822" lon="34.28791">
        <ele>1138.754756</ele>
        <time>2021-11-15T17:20:53.460Z</time>
      </trkpt>
      <trkpt lat="38.38191" lon="34.28761">
        <ele>1140.119097</ele>
        <time>2021-11-15T17:21:08.164Z</time>
      </trkpt>
      <trkpt lat="38.38168" lon="34.28746">
        <ele>1141.172029</ele>
        <time>2021-11-15T17:21:18.705Z</time>
      </trkpt>
      <trkpt lat="38.38158" lon="34.28746">
        <ele>1141.555222</ele>
        <time>2021-11-15T17:21:22.248Z</time>
      </trkpt>
      <trkpt lat="38.38111" lon="34.28708">
        <ele>1143.779494</ele>
        <time>2021-11-15T17:21:44.159Z</time>
      </trkpt>
      <trkpt lat="38.38097" lon="34.28682">
        <ele>1144.755209</ele>
        <time>2021-11-15T17:21:54.306Z</time>
      </trkpt>
      <trkpt lat="38.38069" lon="34.28664">
        <ele>1146.006119</ele>
        <time>2021-11-15T17:22:06.775Z</time>
      </trkpt>
      <trkpt lat="38.38046" lon="34.28649">
        <ele>1147.006512</ele>
        <time>2021-11-15T17:22:16.346Z</time>
      </trkpt>
      <trkpt lat="38.38017" lon="34.2862">
        <ele>1148.433313</ele>
        <time>2021-11-15T17:22:29.617Z</time>
      </trkpt>
      <trkpt lat="38.3801" lon="34.28608">
        <ele>1148.908305</ele>
        <time>2021-11-15T17:22:34.179Z</time>
      </trkpt>
      <trkpt lat="38.37986" lon="34.28588">
        <ele>1149.995704</ele>
        <time>2021-11-15T17:22:45.422Z</time>
      </trkpt>
      <trkpt lat="38.37972" lon="34.28565">
        <ele>1150.866908</ele>
        <time>2021-11-15T17:22:54.094Z</time>
      </trkpt>
      <trkpt lat="38.37954" lon="34.28547">
        <ele>1151.768567</ele>
        <time>2021-11-15T17:23:02.755Z</time>
      </trkpt>
      <trkpt lat="38.37936" lon="34.28521">
        <ele>1152.819218</ele>
        <time>2021-11-15T17:23:13.444Z</time>
      </trkpt>
      <trkpt lat="38.37934" lon="34.28508">
        <ele>1153.254124</ele>
        <time>2021-11-15T17:23:17.178Z</time>
      </trkpt>
      <trkpt lat="38.37926" lon="34.28498">
        <ele>1153.855453</ele>
        <time>2021-11-15T17:23:21.922Z</time>
      </trkpt>
      <trkpt lat="38.37904" lon="34.28482">
        <ele>1155.16317</ele>
        <time>2021-11-15T17:23:31.999Z</time>
      </trkpt>
      <trkpt lat="38.379" lon="34.28479">
        <ele>1155.431693</ele>
        <time>2021-11-15T17:23:34.232Z</time>
      </trkpt>
      <trkpt lat="38.37882" lon="34.28467">
        <ele>1156.502044</ele>
        <time>2021-11-15T17:23:43.445Z</time>
      </trkpt>
      <trkpt lat="38.37782" lon="34.2842">
        <ele>1162.178955</ele>
        <time>2021-11-15T17:24:32.858Z</time>
      </trkpt>
      <trkpt lat="38.37758" lon="34.2841">
        <ele>1163.333066</ele>
        <time>2021-11-15T17:24:44.683Z</time>
      </trkpt>
      <trkpt lat="38.37719" lon="34.28412">
        <ele>1164.886227</ele>
        <time>2021-11-15T17:25:02.236Z</time>
      </trkpt>
      <trkpt lat="38.3769" lon="34.28403">
        <ele>1166.092864</ele>
        <time>2021-11-15T17:25:14.659Z</time>
      </trkpt>
      <trkpt lat="38.37604" lon="34.28379">
        <ele>1169.633397</ele>
        <time>2021-11-15T17:25:46.530Z</time>
      </trkpt>
      <trkpt lat="38.37584" lon="34.28377">
        <ele>1170.054849</ele>
        <time>2021-11-15T17:25:52.701Z</time>
      </trkpt>
      <trkpt lat="38.37538" lon="34.28371">
        <ele>1170.319887</ele>
        <time>2021-11-15T17:26:04.338Z</time>
      </trkpt>
      <trkpt lat="38.37517" lon="34.28361">
        <ele>1170.45257</ele>
        <time>2021-11-15T17:26:09.768Z</time>
      </trkpt>
      <trkpt lat="38.37498" lon="34.28342">
        <ele>1170.592356</ele>
        <time>2021-11-15T17:26:15.206Z</time>
      </trkpt>
      <trkpt lat="38.37491" lon="34.28334">
        <ele>1170.645821</ele>
        <time>2021-11-15T17:26:17.320Z</time>
      </trkpt>
      <trkpt lat="38.37473" lon="34.28309">
        <ele>1170.796952</ele>
        <time>2021-11-15T17:26:22.984Z</time>
      </trkpt>
      <trkpt lat="38.37396" lon="34.28164">
        <ele>1171.18558</ele>
        <time>2021-11-15T17:26:52.160Z</time>
      </trkpt>
      <trkpt lat="38.37343" lon="34.28047">
        <ele>1171.585792</ele>
        <time>2021-11-15T17:27:18.104Z</time>
      </trkpt>
      <trkpt lat="38.3731" lon="34.27964">
        <ele>1172.43273</ele>
        <time>2021-11-15T17:27:37.993Z</time>
      </trkpt>
      <trkpt lat="38.37253" lon="34.27818">
        <ele>1173.721684</ele>
        <time>2021-11-15T17:28:13.410Z</time>
      </trkpt>
      <trkpt lat="38.37235" lon="34.27754">
        <ele>1174.108118</ele>
        <time>2021-11-15T17:28:27.400Z</time>
      </trkpt>
      <trkpt lat="38.37137" lon="34.27396">
        <ele>1174.780816</ele>
        <time>2021-11-15T17:29:35.223Z</time>
      </trkpt>
      <trkpt lat="38.37094" lon="34.27281">
        <ele>1174.417716</ele>
        <time>2021-11-15T17:29:56.272Z</time>
      </trkpt>
      <trkpt lat="38.36975" lon="34.26966">
        <ele>1172.84902</ele>
        <time>2021-11-15T17:30:50.898Z</time>
      </trkpt>
      <trkpt lat="38.36863" lon="34.26739">
        <ele>1172.243508</ele>
        <time>2021-11-15T17:31:36.693Z</time>
      </trkpt>
      <trkpt lat="38.36749" lon="34.26492">
        <ele>1171.044676</ele>
        <time>2021-11-15T17:32:23.058Z</time>
      </trkpt>
      <trkpt lat="38.36555" lon="34.26148">
        <ele>1167.181832</ele>
        <time>2021-11-15T17:33:25.202Z</time>
      </trkpt>
      <trkpt lat="38.36504" lon="34.26037">
        <ele>1166.153231</ele>
        <time>2021-11-15T17:33:44.663Z</time>
      </trkpt>
      <trkpt lat="38.36455" lon="34.2591">
        <ele>1165.574894</ele>
        <time>2021-11-15T17:34:07.307Z</time>
      </trkpt>
      <trkpt lat="38.36404" lon="34.25729">
        <ele>1165.3443</ele>
        <time>2021-11-15T17:34:39.752Z</time>
      </trkpt>
      <trkpt lat="38.3623" lon="34.25243">
        <ele>1166.680281</ele>
        <time>2021-11-15T17:36:18.540Z</time>
      </trkpt>
      <trkpt lat="38.36157" lon="34.25108">
        <ele>1167.743687</ele>
        <time>2021-11-15T17:36:51.862Z</time>
      </trkpt>
      <trkpt lat="38.3612" lon="34.25019">
        <ele>1168.437453</ele>
        <time>2021-11-15T17:37:12.604Z</time>
      </trkpt>
      <trkpt lat="38.36102" lon="34.24968">
        <ele>1168.717325</ele>
        <time>2021-11-15T17:37:23.853Z</time>
      </trkpt>
      <trkpt lat="38.36018" lon="34.24625">
        <ele>1169.84506</ele>
        <time>2021-11-15T17:38:32.112Z</time>
      </trkpt>
      <trkpt lat="38.35984" lon="34.24555">
        <ele>1169.12254</ele>
        <time>2021-11-15T17:38:45.165Z</time>
      </trkpt>
      <trkpt lat="38.35922" lon="34.24449">
        <ele>1166.99819</ele>
        <time>2021-11-15T17:39:03.364Z</time>
      </trkpt>
      <trkpt lat="38.35902" lon="34.24407">
        <ele>1166.199509</ele>
        <time>2021-11-15T17:39:09.626Z</time>
      </trkpt>
      <trkpt lat="38.35882" lon="34.24349">
        <ele>1164.271034</ele>
        <time>2021-11-15T17:39:17.356Z</time>
      </trkpt>
      <trkpt lat="38.35867" lon="34.24283">
        <ele>1162.136722</ele>
        <time>2021-11-15T17:39:25.769Z</time>
      </trkpt>
      <trkpt lat="38.35796" lon="34.24101">
        <ele>1156.540333</ele>
        <time>2021-11-15T17:39:50.744Z</time>
      </trkpt>
      <trkpt lat="38.35776" lon="34.23993">
        <ele>1153.814843</ele>
        <time>2021-11-15T17:40:05.407Z</time>
      </trkpt>
      <trkpt lat="38.35779" lon="34.23922">
        <ele>1152.523078</ele>
        <time>2021-11-15T17:40:15.470Z</time>
      </trkpt>
      <trkpt lat="38.35783" lon="34.23895">
        <ele>1152.069656</ele>
        <time>2021-11-15T17:40:19.245Z</time>
      </trkpt>
      <trkpt lat="38.35815" lon="34.23807">
        <ele>1150.431851</ele>
        <time>2021-11-15T17:40:32.711Z</time>
      </trkpt>
      <trkpt lat="38.35823" lon="34.23768">
        <ele>1149.762388</ele>
        <time>2021-11-15T17:40:38.112Z</time>
      </trkpt>
      <trkpt lat="38.35823" lon="34.23764">
        <ele>1149.7003</ele>
        <time>2021-11-15T17:40:38.613Z</time>
      </trkpt>
      <trkpt lat="38.35824" lon="34.23752">
        <ele>1149.393013</ele>
        <time>2021-11-15T17:40:40.241Z</time>
      </trkpt>
      <trkpt lat="38.35789" lon="34.23748">
        <ele>1148.211017</ele>
        <time>2021-11-15T17:40:46.468Z</time>
      </trkpt>
      <trkpt lat="38.35776" lon="34.23738">
        <ele>1147.678841</ele>
        <time>2021-11-15T17:40:49.182Z</time>
      </trkpt>
      <trkpt lat="38.35752" lon="34.23703">
        <ele>1146.455707</ele>
        <time>2021-11-15T17:40:55.245Z</time>
      </trkpt>
      <trkpt lat="38.35738" lon="34.23646">
        <ele>1144.876671</ele>
        <time>2021-11-15T17:41:02.965Z</time>
      </trkpt>
      <trkpt lat="38.35738" lon="34.23628">
        <ele>1144.392333</ele>
        <time>2021-11-15T17:41:05.389Z</time>
      </trkpt>
      <trkpt lat="38.35725" lon="34.23602">
        <ele>1143.571459</ele>
        <time>2021-11-15T17:41:09.265Z</time>
      </trkpt>
      <trkpt lat="38.35725" lon="34.23578">
        <ele>1142.783843</ele>
        <time>2021-11-15T17:41:12.530Z</time>
      </trkpt>
      <trkpt lat="38.35726" lon="34.23557">
        <ele>1142.069137</ele>
        <time>2021-11-15T17:41:15.200Z</time>
      </trkpt>
      <trkpt lat="38.35706" lon="34.23578">
        <ele>1140.980976</ele>
        <time>2021-11-15T17:41:19.495Z</time>
      </trkpt>
      <trkpt lat="38.35693" lon="34.23582">
        <ele>1140.385519</ele>
        <time>2021-11-15T17:41:21.758Z</time>
      </trkpt>
      <trkpt lat="38.35677" lon="34.23579">
        <ele>1139.739317</ele>
        <time>2021-11-15T17:41:24.411Z</time>
      </trkpt>
      <trkpt lat="38.35634" lon="34.23519">
        <ele>1137.037619</ele>
        <time>2021-11-15T17:41:34.692Z</time>
      </trkpt>
      <trkpt lat="38.35626" lon="34.23527">
        <ele>1136.579608</ele>
        <time>2021-11-15T17:41:36.528Z</time>
      </trkpt>
      <trkpt lat="38.35594" lon="34.23486">
        <ele>1134.228258</ele>
        <time>2021-11-15T17:41:43.593Z</time>
      </trkpt>
      <trkpt lat="38.35551" lon="34.23423">
        <ele>1130.491769</ele>
        <time>2021-11-15T17:41:54.063Z</time>
      </trkpt>
      <trkpt lat="38.35542" lon="34.23411">
        <ele>1129.756658</ele>
        <time>2021-11-15T17:41:56.013Z</time>
      </trkpt>
      <trkpt lat="38.35502" lon="34.23355">
        <ele>1126.391689</ele>
        <time>2021-11-15T17:42:05.107Z</time>
      </trkpt>
      <trkpt lat="38.35476" lon="34.23314">
        <ele>1123.945916</ele>
        <time>2021-11-15T17:42:11.320Z</time>
      </trkpt>
      <trkpt lat="38.35457" lon="34.23279">
        <ele>1121.9396</ele>
        <time>2021-11-15T17:42:16.331Z</time>
      </trkpt>
      <trkpt lat="38.3544" lon="34.2325">
        <ele>1120.220853</ele>
        <time>2021-11-15T17:42:20.580Z</time>
      </trkpt>
      <trkpt lat="38.35439" lon="34.2324">
        <ele>1119.728558</ele>
        <time>2021-11-15T17:42:21.861Z</time>
      </trkpt>
      <trkpt lat="38.35444" lon="34.23228">
        <ele>1119.078233</ele>
        <time>2021-11-15T17:42:23.493Z</time>
      </trkpt>
      <trkpt lat="38.35447" lon="34.2321">
        <ele>1118.231046</ele>
        <time>2021-11-15T17:42:25.647Z</time>
      </trkpt>
      <trkpt lat="38.35442" lon="34.23173">
        <ele>1116.420327</ele>
        <time>2021-11-15T17:42:30.334Z</time>
      </trkpt>
      <trkpt lat="38.35444" lon="34.23138">
        <ele>1114.835374</ele>
        <time>2021-11-15T17:42:34.675Z</time>
      </trkpt>
      <trkpt lat="38.35446" lon="34.23119">
        <ele>1114.377365</ele>
        <time>2021-11-15T17:42:36.963Z</time>
      </trkpt>
      <trkpt lat="38.3545" lon="34.23102">
        <ele>1113.92195</ele>
        <time>2021-11-15T17:42:39.300Z</time>
      </trkpt>
      <trkpt lat="38.3546" lon="34.23081">
        <ele>1113.317341</ele>
        <time>2021-11-15T17:42:42.379Z</time>
      </trkpt>
      <trkpt lat="38.3546" lon="34.23056">
        <ele>1112.686571</ele>
        <time>2021-11-15T17:42:45.558Z</time>
      </trkpt>
      <trkpt lat="38.35472" lon="34.22969">
        <ele>1110.507853</ele>
        <time>2021-11-15T17:42:57.039Z</time>
      </trkpt>
      <trkpt lat="38.35477" lon="34.22934">
        <ele>1109.614048</ele>
        <time>2021-11-15T17:43:02.072Z</time>
      </trkpt>
      <trkpt lat="38.35475" lon="34.22921">
        <ele>1109.291114</ele>
        <time>2021-11-15T17:43:03.946Z</time>
      </trkpt>
      <trkpt lat="38.35495" lon="34.22844">
        <ele>1108.640652</ele>
        <time>2021-11-15T17:43:15.971Z</time>
      </trkpt>
      <trkpt lat="38.35544" lon="34.22706">
        <ele>1107.502916</ele>
        <time>2021-11-15T17:43:39.936Z</time>
      </trkpt>
      <trkpt lat="38.35723" lon="34.22257">
        <ele>1105.127873</ele>
        <time>2021-11-15T17:44:59.377Z</time>
      </trkpt>
      <trkpt lat="38.35748" lon="34.22211">
        <ele>1105.074057</ele>
        <time>2021-11-15T17:45:08.619Z</time>
      </trkpt>
      <trkpt lat="38.35791" lon="34.22157">
        <ele>1104.999714</ele>
        <time>2021-11-15T17:45:21.844Z</time>
      </trkpt>
      <trkpt lat="38.35936" lon="34.22009">
        <ele>1105.458814</ele>
        <time>2021-11-15T17:46:05.660Z</time>
      </trkpt>
      <trkpt lat="38.35997" lon="34.21946">
        <ele>1105.740859</ele>
        <time>2021-11-15T17:46:24.672Z</time>
      </trkpt>
      <trkpt lat="38.36078" lon="34.21864">
        <ele>1106.125072</ele>
        <time>2021-11-15T17:46:49.263Z</time>
      </trkpt>
      <trkpt lat="38.36113" lon="34.21827">
        <ele>1106.297127</ele>
        <time>2021-11-15T17:46:59.852Z</time>
      </trkpt>
      <trkpt lat="38.36177" lon="34.2176">
        <ele>1106.642158</ele>
        <time>2021-11-15T17:47:19.386Z</time>
      </trkpt>
      <trkpt lat="38.36228" lon="34.21708">
        <ele>1106.911242</ele>
        <time>2021-11-15T17:47:34.617Z</time>
      </trkpt>
      <trkpt lat="38.36254" lon="34.21694">
        <ele>1107.196946</ele>
        <time>2021-11-15T17:47:41.387Z</time>
      </trkpt>
      <trkpt lat="38.36311" lon="34.21686">
        <ele>1108.341749</ele>
        <time>2021-11-15T17:47:57.158Z</time>
      </trkpt>
      <trkpt lat="38.36402" lon="34.21688">
        <ele>1110.183089</ele>
        <time>2021-11-15T17:48:24.816Z</time>
      </trkpt>
      <trkpt lat="38.36401" lon="34.21669">
        <ele>1110.485269</ele>
        <time>2021-11-15T17:48:30.683Z</time>
      </trkpt>
      <trkpt lat="38.36378" lon="34.21566">
        <ele>1113.298668</ele>
        <time>2021-11-15T17:49:03.776Z</time>
      </trkpt>
      <trkpt lat="38.36357" lon="34.2151">
        <ele>1114.981309</ele>
        <time>2021-11-15T17:49:22.517Z</time>
      </trkpt>
      <trkpt lat="38.36325" lon="34.21463">
        <ele>1116.679027</ele>
        <time>2021-11-15T17:49:40.643Z</time>
      </trkpt>
      <trkpt lat="38.36342" lon="34.21451">
        <ele>1117.211544</ele>
        <time>2021-11-15T17:49:46.948Z</time>
      </trkpt>
      <trkpt lat="38.36366" lon="34.21443">
        <ele>1117.81205</ele>
        <time>2021-11-15T17:49:55.066Z</time>
      </trkpt>
      <trkpt lat="38.36407" lon="34.21429">
        <ele>1118.856035</ele>
        <time>2021-11-15T17:50:08.306Z</time>
      </trkpt>
      <trkpt lat="38.36439" lon="34.21419">
        <ele>1119.667338</ele>
        <time>2021-11-15T17:50:18.802Z</time>
      </trkpt>
      <trkpt lat="38.36476" lon="34.21422">
        <ele>1120.575727</ele>
        <time>2021-11-15T17:50:30.969Z</time>
      </trkpt>
      <trkpt lat="38.36487" lon="34.21419">
        <ele>1120.838869</ele>
        <time>2021-11-15T17:50:34.030Z</time>
      </trkpt>
      <trkpt lat="38.36555" lon="34.21377">
        <ele>1123.980088</ele>
        <time>2021-11-15T17:51:00.220Z</time>
      </trkpt>
      <trkpt lat="38.3656" lon="34.21358">
        <ele>1124.673561</ele>
        <time>2021-11-15T17:51:06.291Z</time>
      </trkpt>
      <trkpt lat="38.36538" lon="34.21318">
        <ele>1126.443373</ele>
        <time>2021-11-15T17:51:22.329Z</time>
      </trkpt>
      <trkpt lat="38.36518" lon="34.21274">
        <ele>1128.249756</ele>
        <time>2021-11-15T17:51:40.023Z</time>
      </trkpt>
      <trkpt lat="38.36502" lon="34.21217">
        <ele>1130.879314</ele>
        <time>2021-11-15T17:52:02.868Z</time>
      </trkpt>
      <trkpt lat="38.36475" lon="34.21177">
        <ele>1133.645803</ele>
        <time>2021-11-15T17:52:24.954Z</time>
      </trkpt>
      <trkpt lat="38.36437" lon="34.21138">
        <ele>1136.938453</ele>
        <time>2021-11-15T17:52:49.922Z</time>
      </trkpt>
      <trkpt lat="38.36405" lon="34.21082">
        <ele>1140.562783</ele>
        <time>2021-11-15T17:53:15.284Z</time>
      </trkpt>
      <trkpt lat="38.36392" lon="34.21065">
        <ele>1141.750468</ele>
        <time>2021-11-15T17:53:24.637Z</time>
      </trkpt>
      <trkpt lat="38.36364" lon="34.21032">
        <ele>1143.941603</ele>
        <time>2021-11-15T17:53:42.499Z</time>
      </trkpt>
      <trkpt lat="38.36315" lon="34.20966">
        <ele>1147.98985</ele>
        <time>2021-11-15T17:54:14.736Z</time>
      </trkpt>
      <trkpt lat="38.36305" lon="34.20935">
        <ele>1149.486403</ele>
        <time>2021-11-15T17:54:26.528Z</time>
      </trkpt>
      <trkpt lat="38.36271" lon="34.20863">
        <ele>1153.03727</ele>
        <time>2021-11-15T17:54:54.560Z</time>
      </trkpt>
      <trkpt lat="38.3626" lon="34.2075">
        <ele>1157.382349</ele>
        <time>2021-11-15T17:55:32.551Z</time>
      </trkpt>
      <trkpt lat="38.36259" lon="34.20608">
        <ele>1162.270382</ele>
        <time>2021-11-15T17:56:17.526Z</time>
      </trkpt>
      <trkpt lat="38.36253" lon="34.20491">
        <ele>1165.661017</ele>
        <time>2021-11-15T17:56:51.215Z</time>
      </trkpt>
      <trkpt lat="38.36256" lon="34.2043">
        <ele>1167.393874</ele>
        <time>2021-11-15T17:57:07.569Z</time>
      </trkpt>
      <trkpt lat="38.36274" lon="34.20299">
        <ele>1170.855605</ele>
        <time>2021-11-15T17:57:42.110Z</time>
      </trkpt>
      <trkpt lat="38.36284" lon="34.20222">
        <ele>1172.876232</ele>
        <time>2021-11-15T17:58:05.574Z</time>
      </trkpt>
      <trkpt lat="38.36295" lon="34.20136">
        <ele>1175.939234</ele>
        <time>2021-11-15T17:58:32.165Z</time>
      </trkpt>
      <trkpt lat="38.36298" lon="34.20099">
        <ele>1177.323151</ele>
        <time>2021-11-15T17:58:43.759Z</time>
      </trkpt>
      <trkpt lat="38.36303" lon="34.20089">
        <ele>1177.73465</ele>
        <time>2021-11-15T17:58:48.331Z</time>
      </trkpt>
      <trkpt lat="38.36362" lon="34.19957">
        <ele>1182.874556</ele>
        <time>2021-11-15T17:59:39.107Z</time>
      </trkpt>
      <trkpt lat="38.36384" lon="34.19892">
        <ele>1184.870803</ele>
        <time>2021-11-15T18:00:00.516Z</time>
      </trkpt>
      <trkpt lat="38.36393" lon="34.19843">
        <ele>1186.296156</ele>
        <time>2021-11-15T18:00:14.008Z</time>
      </trkpt>
      <trkpt lat="38.36414" lon="34.19761">
        <ele>1188.127778</ele>
        <time>2021-11-15T18:00:35.455Z</time>
      </trkpt>
      <trkpt lat="38.36429" lon="34.19679">
        <ele>1188.705435</ele>
        <time>2021-11-15T18:00:53.962Z</time>
      </trkpt>
      <trkpt lat="38.36439" lon="34.19624">
        <ele>1189.095389</ele>
        <time>2021-11-15T18:01:04.448Z</time>
      </trkpt>
      <trkpt lat="38.36446" lon="34.19575">
        <ele>1189.444036</ele>
        <time>2021-11-15T18:01:13.280Z</time>
      </trkpt>
      <trkpt lat="38.36497" lon="34.19252">
        <ele>1187.706169</ele>
        <time>2021-11-15T18:02:05.212Z</time>
      </trkpt>
      <trkpt lat="38.36507" lon="34.19197">
        <ele>1187.184884</ele>
        <time>2021-11-15T18:02:13.373Z</time>
      </trkpt>
      <trkpt lat="38.36508" lon="34.19184">
        <ele>1187.064758</ele>
        <time>2021-11-15T18:02:15.241Z</time>
      </trkpt>
      <trkpt lat="38.36494" lon="34.19151">
        <ele>1186.719876</ele>
        <time>2021-11-15T18:02:20.863Z</time>
      </trkpt>
      <trkpt lat="38.36491" lon="34.19102">
        <ele>1186.37082</ele>
        <time>2021-11-15T18:02:28.268Z</time>
      </trkpt>
      <trkpt lat="38.36494" lon="34.19019">
        <ele>1186.157801</ele>
        <time>2021-11-15T18:02:41.136Z</time>
      </trkpt>
      <trkpt lat="38.36496" lon="34.18973">
        <ele>1186.036477</ele>
        <time>2021-11-15T18:02:49.026Z</time>
      </trkpt>
      <trkpt lat="38.36521" lon="34.1891">
        <ele>1185.855342</ele>
        <time>2021-11-15T18:03:02.548Z</time>
      </trkpt>
      <trkpt lat="38.36515" lon="34.18843">
        <ele>1186.734257</ele>
        <time>2021-11-15T18:03:16.837Z</time>
      </trkpt>
      <trkpt lat="38.36491" lon="34.18603">
        <ele>1191.144175</ele>
        <time>2021-11-15T18:04:19.651Z</time>
      </trkpt>
      <trkpt lat="38.36458" lon="34.18279">
        <ele>1197.143941</ele>
        <time>2021-11-15T18:05:42.575Z</time>
      </trkpt>
      <trkpt lat="38.36448" lon="34.18066">
        <ele>1199.250128</ele>
        <time>2021-11-15T18:06:27.420Z</time>
      </trkpt>
      <trkpt lat="38.36452" lon="34.1797">
        <ele>1199.807583</ele>
        <time>2021-11-15T18:06:45.644Z</time>
      </trkpt>
      <trkpt lat="38.36467" lon="34.17738">
        <ele>1199.454651</ele>
        <time>2021-11-15T18:07:25.529Z</time>
      </trkpt>
      <trkpt lat="38.3651" lon="34.1721">
        <ele>1194.770151</ele>
        <time>2021-11-15T18:08:42.833Z</time>
      </trkpt>
      <trkpt lat="38.36525" lon="34.17106">
        <ele>1194.409994</ele>
        <time>2021-11-15T18:09:01.205Z</time>
      </trkpt>
      <trkpt lat="38.36546" lon="34.16987">
        <ele>1194.486821</ele>
        <time>2021-11-15T18:09:24.404Z</time>
      </trkpt>
      <trkpt lat="38.36698" lon="34.16383">
        <ele>1195.35029</ele>
        <time>2021-11-15T18:11:19.813Z</time>
      </trkpt>
      <trkpt lat="38.36739" lon="34.16231">
        <ele>1194.20297</ele>
        <time>2021-11-15T18:11:44.123Z</time>
      </trkpt>
      <trkpt lat="38.36778" lon="34.16115">
        <ele>1192.557041</ele>
        <time>2021-11-15T18:12:01.942Z</time>
      </trkpt>
      <trkpt lat="38.36813" lon="34.16034">
        <ele>1191.151722</ele>
        <time>2021-11-15T18:12:14.586Z</time>
      </trkpt>
      <trkpt lat="38.36989" lon="34.15673">
        <ele>1183.277229</ele>
        <time>2021-11-15T18:13:12.045Z</time>
      </trkpt>
      <trkpt lat="38.37162" lon="34.15263">
        <ele>1172.894553</ele>
        <time>2021-11-15T18:14:11.779Z</time>
      </trkpt>
      <trkpt lat="38.3722" lon="34.1516">
        <ele>1170.902326</ele>
        <time>2021-11-15T18:14:29.471Z</time>
      </trkpt>
      <trkpt lat="38.37404" lon="34.14872">
        <ele>1168.25814</ele>
        <time>2021-11-15T18:15:27.553Z</time>
      </trkpt>
      <trkpt lat="38.37462" lon="34.14758">
        <ele>1166.820324</ele>
        <time>2021-11-15T18:15:48.421Z</time>
      </trkpt>
      <trkpt lat="38.375" lon="34.14662">
        <ele>1165.520705</ele>
        <time>2021-11-15T18:16:03.647Z</time>
      </trkpt>
      <trkpt lat="38.37658" lon="34.1415">
        <ele>1152.194216</ele>
        <time>2021-11-15T18:17:14.005Z</time>
      </trkpt>
      <trkpt lat="38.37776" lon="34.13766">
        <ele>1141.754951</ele>
        <time>2021-11-15T18:18:06.118Z</time>
      </trkpt>
      <trkpt lat="38.37856" lon="34.13497">
        <ele>1138.550616</ele>
        <time>2021-11-15T18:18:47.145Z</time>
      </trkpt>
      <trkpt lat="38.37905" lon="34.13338">
        <ele>1138.585539</ele>
        <time>2021-11-15T18:19:19.469Z</time>
      </trkpt>
      <trkpt lat="38.37932" lon="34.13273">
        <ele>1139.377134</ele>
        <time>2021-11-15T18:19:35.662Z</time>
      </trkpt>
      <trkpt lat="38.37957" lon="34.13214">
        <ele>1140.096889</ele>
        <time>2021-11-15T18:19:50.802Z</time>
      </trkpt>
      <trkpt lat="38.37963" lon="34.13201">
        <ele>1140.255411</ele>
        <time>2021-11-15T18:19:54.090Z</time>
      </trkpt>
      <trkpt lat="38.38034" lon="34.13073">
        <ele>1141.665295</ele>
        <time>2021-11-15T18:20:29.250Z</time>
      </trkpt>
      <trkpt lat="38.38107" lon="34.12974">
        <ele>1142.770833</ele>
        <time>2021-11-15T18:20:56.004Z</time>
      </trkpt>
      <trkpt lat="38.38139" lon="34.12938">
        <ele>1143.164278</ele>
        <time>2021-11-15T18:21:05.381Z</time>
      </trkpt>
      <trkpt lat="38.38166" lon="34.12908">
        <ele>1143.486819</ele>
        <time>2021-11-15T18:21:13.521Z</time>
      </trkpt>
      <trkpt lat="38.38205" lon="34.12886">
        <ele>1143.878462</ele>
        <time>2021-11-15T18:21:24.814Z</time>
      </trkpt>
      <trkpt lat="38.38243" lon="34.1286">
        <ele>1144.273331</ele>
        <time>2021-11-15T18:21:37.967Z</time>
      </trkpt>
      <trkpt lat="38.3825" lon="34.12855">
        <ele>1144.395021</ele>
        <time>2021-11-15T18:21:39.875Z</time>
      </trkpt>
      <trkpt lat="38.38269" lon="34.12842">
        <ele>1144.818738</ele>
        <time>2021-11-15T18:21:47.139Z</time>
      </trkpt>
      <trkpt lat="38.38266" lon="34.1283">
        <ele>1145.016353</ele>
        <time>2021-11-15T18:21:50.137Z</time>
      </trkpt>
      <trkpt lat="38.38263" lon="34.12824">
        <ele>1145.124937</ele>
        <time>2021-11-15T18:21:51.327Z</time>
      </trkpt>
      <trkpt lat="38.38258" lon="34.12814">
        <ele>1145.307689</ele>
        <time>2021-11-15T18:21:53.959Z</time>
      </trkpt>
      <trkpt lat="38.38248" lon="34.12799">
        <ele>1145.616212</ele>
        <time>2021-11-15T18:21:59.675Z</time>
      </trkpt>
      <trkpt lat="38.38235" lon="34.1278">
        <ele>1145.997856</ele>
        <time>2021-11-15T18:22:04.408Z</time>
      </trkpt>
      <trkpt lat="38.38214" lon="34.12749">
        <ele>1146.619783</ele>
        <time>2021-11-15T18:22:14.195Z</time>
      </trkpt>
      <trkpt lat="38.38207" lon="34.12733">
        <ele>1146.901142</ele>
        <time>2021-11-15T18:22:19.297Z</time>
      </trkpt>
      <trkpt lat="38.38198" lon="34.12697">
        <ele>1147.492153</ele>
        <time>2021-11-15T18:22:27.968Z</time>
      </trkpt>
      <trkpt lat="38.38198" lon="34.12686">
        <ele>1147.654991</ele>
        <time>2021-11-15T18:22:31.337Z</time>
      </trkpt>
      <trkpt lat="38.38206" lon="34.12614">
        <ele>1147.97972</ele>
        <time>2021-11-15T18:22:48.434Z</time>
      </trkpt>
      <trkpt lat="38.38222" lon="34.12414">
        <ele>1148.552061</ele>
        <time>2021-11-15T18:23:21.359Z</time>
      </trkpt>
      <trkpt lat="38.38223" lon="34.12399">
        <ele>1148.626755</ele>
        <time>2021-11-15T18:23:23.447Z</time>
      </trkpt>
      <trkpt lat="38.38228" lon="34.12348">
        <ele>1148.89031</ele>
        <time>2021-11-15T18:23:31.533Z</time>
      </trkpt>
      <trkpt lat="38.38246" lon="34.12259">
        <ele>1149.358748</ele>
        <time>2021-11-15T18:23:49.862Z</time>
      </trkpt>
      <trkpt lat="38.38266" lon="34.12193">
        <ele>1150.746785</ele>
        <time>2021-11-15T18:24:07.521Z</time>
      </trkpt>
      <trkpt lat="38.3829" lon="34.12111">
        <ele>1153.893551</ele>
        <time>2021-11-15T18:24:33.825Z</time>
      </trkpt>
      <trkpt lat="38.38302" lon="34.12004">
        <ele>1157.82058</ele>
        <time>2021-11-15T18:25:13.950Z</time>
      </trkpt>
      <trkpt lat="38.383" lon="34.11941">
        <ele>1160.110587</ele>
        <time>2021-11-15T18:25:37.052Z</time>
      </trkpt>
      <trkpt lat="38.38292" lon="34.11898">
        <ele>1161.665083</ele>
        <time>2021-11-15T18:25:51.617Z</time>
      </trkpt>
      <trkpt lat="38.38289" lon="34.11879">
        <ele>1162.370117</ele>
        <time>2021-11-15T18:25:59.127Z</time>
      </trkpt>
      <trkpt lat="38.38277" lon="34.11816">
        <ele>1164.722469</ele>
        <time>2021-11-15T18:26:17.908Z</time>
      </trkpt>
      <trkpt lat="38.38263" lon="34.11695">
        <ele>1166.086904</ele>
        <time>2021-11-15T18:26:49.365Z</time>
      </trkpt>
      <trkpt lat="38.38276" lon="34.11506">
        <ele>1164.232407</ele>
        <time>2021-11-15T18:27:17.053Z</time>
      </trkpt>
      <trkpt lat="38.38254" lon="34.11302">
        <ele>1155.290195</ele>
        <time>2021-11-15T18:27:40.574Z</time>
      </trkpt>
      <trkpt lat="38.38243" lon="34.11234">
        <ele>1151.030629</ele>
        <time>2021-11-15T18:27:48.093Z</time>
      </trkpt>
      <trkpt lat="38.38241" lon="34.1121">
        <ele>1149.541281</ele>
        <time>2021-11-15T18:27:50.684Z</time>
      </trkpt>
      <trkpt lat="38.38262" lon="34.10876">
        <ele>1129.771915</ele>
        <time>2021-11-15T18:28:27.695Z</time>
      </trkpt>
      <trkpt lat="38.38266" lon="34.10679">
        <ele>1123.235289</ele>
        <time>2021-11-15T18:28:51.447Z</time>
      </trkpt>
      <trkpt lat="38.38306" lon="34.10453">
        <ele>1119.487327</ele>
        <time>2021-11-15T18:29:24.931Z</time>
      </trkpt>
      <trkpt lat="38.3832" lon="34.10326">
        <ele>1116.806846</ele>
        <time>2021-11-15T18:29:43.666Z</time>
      </trkpt>
      <trkpt lat="38.38318" lon="34.10204">
        <ele>1113.76173</ele>
        <time>2021-11-15T18:29:59.135Z</time>
      </trkpt>
      <trkpt lat="38.38326" lon="34.09821">
        <ele>1093.885602</ele>
        <time>2021-11-15T18:30:42.200Z</time>
      </trkpt>
      <trkpt lat="38.383" lon="34.09747">
        <ele>1089.340661</ele>
        <time>2021-11-15T18:30:51.273Z</time>
      </trkpt>
      <trkpt lat="38.38244" lon="34.09662">
        <ele>1081.482293</ele>
        <time>2021-11-15T18:31:03.534Z</time>
      </trkpt>
      <trkpt lat="38.38193" lon="34.09561">
        <ele>1072.72363</ele>
        <time>2021-11-15T18:31:16.395Z</time>
      </trkpt>
      <trkpt lat="38.38137" lon="34.0931">
        <ele>1047.46224</ele>
        <time>2021-11-15T18:31:43.298Z</time>
      </trkpt>
      <trkpt lat="38.38132" lon="34.09195">
        <ele>1038.879069</ele>
        <time>2021-11-15T18:31:55.448Z</time>
      </trkpt>
      <trkpt lat="38.38132" lon="34.09184">
        <ele>1038.078884</ele>
        <time>2021-11-15T18:31:56.615Z</time>
      </trkpt>
      <trkpt lat="38.3813" lon="34.09138">
        <ele>1034.594927</ele>
        <time>2021-11-15T18:32:01.744Z</time>
      </trkpt>
      <trkpt lat="38.38121" lon="34.09063">
        <ele>1030.61222</ele>
        <time>2021-11-15T18:32:10.324Z</time>
      </trkpt>
      <trkpt lat="38.38107" lon="34.08981">
        <ele>1028.069247</ele>
        <time>2021-11-15T18:32:21.050Z</time>
      </trkpt>
      <trkpt lat="38.38073" lon="34.08853">
        <ele>1024.29578</ele>
        <time>2021-11-15T18:32:38.675Z</time>
      </trkpt>
      <trkpt lat="38.38018" lon="34.08695">
        <ele>1021.042205</ele>
        <time>2021-11-15T18:33:01.287Z</time>
      </trkpt>
      <trkpt lat="38.38006" lon="34.08645">
        <ele>1020.587513</ele>
        <time>2021-11-15T18:33:08.923Z</time>
      </trkpt>
      <trkpt lat="38.37994" lon="34.08539">
        <ele>1021.038041</ele>
        <time>2021-11-15T18:33:27.788Z</time>
      </trkpt>
      <trkpt lat="38.37982" lon="34.08237">
        <ele>1024.05325</ele>
        <time>2021-11-15T18:34:39.314Z</time>
      </trkpt>
      <trkpt lat="38.38007" lon="34.08021">
        <ele>1024.204338</ele>
        <time>2021-11-15T18:35:18.475Z</time>
      </trkpt>
      <trkpt lat="38.38022" lon="34.07954">
        <ele>1023.636736</ele>
        <time>2021-11-15T18:35:28.433Z</time>
      </trkpt>
      <trkpt lat="38.38039" lon="34.07906">
        <ele>1022.782904</ele>
        <time>2021-11-15T18:35:35.581Z</time>
      </trkpt>
      <trkpt lat="38.3806" lon="34.0787">
        <ele>1022.042331</ele>
        <time>2021-11-15T18:35:41.669Z</time>
      </trkpt>
      <trkpt lat="38.38144" lon="34.07755">
        <ele>1019.559688</ele>
        <time>2021-11-15T18:36:02.561Z</time>
      </trkpt>
      <trkpt lat="38.38163" lon="34.07712">
        <ele>1018.824094</ele>
        <time>2021-11-15T18:36:09.348Z</time>
      </trkpt>
      <trkpt lat="38.38183" lon="34.0763">
        <ele>1017.531055</ele>
        <time>2021-11-15T18:36:21.558Z</time>
      </trkpt>
      <trkpt lat="38.3818" lon="34.0753">
        <ele>1016.329164</ele>
        <time>2021-11-15T18:36:36.068Z</time>
      </trkpt>
      <trkpt lat="38.38183" lon="34.07412">
        <ele>1015.096395</ele>
        <time>2021-11-15T18:36:53.502Z</time>
      </trkpt>
      <trkpt lat="38.38168" lon="34.07172">
        <ele>1012.79444</ele>
        <time>2021-11-15T18:37:28.640Z</time>
      </trkpt>
      <trkpt lat="38.38169" lon="34.07123">
        <ele>1012.471409</ele>
        <time>2021-11-15T18:37:36.073Z</time>
      </trkpt>
      <trkpt lat="38.38177" lon="34.0707">
        <ele>1012.574592</ele>
        <time>2021-11-15T18:37:44.656Z</time>
      </trkpt>
      <trkpt lat="38.38191" lon="34.07008">
        <ele>1012.69702</ele>
        <time>2021-11-15T18:37:55.944Z</time>
      </trkpt>
      <trkpt lat="38.38218" lon="34.06905">
        <ele>1013.025606</ele>
        <time>2021-11-15T18:38:17.703Z</time>
      </trkpt>
      <trkpt lat="38.38301" lon="34.06667">
        <ele>1016.968826</ele>
        <time>2021-11-15T18:39:20.495Z</time>
      </trkpt>
      <trkpt lat="38.38343" lon="34.0652">
        <ele>1019.506771</ele>
        <time>2021-11-15T18:39:56.858Z</time>
      </trkpt>
      <trkpt lat="38.38367" lon="34.06459">
        <ele>1020.561779</ele>
        <time>2021-11-15T18:40:14.634Z</time>
      </trkpt>
      <trkpt lat="38.38377" lon="34.06416">
        <ele>1021.22187</ele>
        <time>2021-11-15T18:40:25.575Z</time>
      </trkpt>
      <trkpt lat="38.3838" lon="34.0639">
        <ele>1021.608779</ele>
        <time>2021-11-15T18:40:30.739Z</time>
      </trkpt>
      <trkpt lat="38.38381" lon="34.06377">
        <ele>1021.800418</ele>
        <time>2021-11-15T18:40:35.098Z</time>
      </trkpt>
      <trkpt lat="38.38384" lon="34.06318">
        <ele>1022.684063</ele>
        <time>2021-11-15T18:40:48.734Z</time>
      </trkpt>
      <trkpt lat="38.38378" lon="34.06211">
        <ele>1023.417892</ele>
        <time>2021-11-15T18:41:11.274Z</time>
      </trkpt>
      <trkpt lat="38.38366" lon="34.06165">
        <ele>1023.417583</ele>
        <time>2021-11-15T18:41:21.183Z</time>
      </trkpt>
      <trkpt lat="38.38325" lon="34.06073">
        <ele>1023.416913</ele>
        <time>2021-11-15T18:41:37.477Z</time>
      </trkpt>
      <trkpt lat="38.38278" lon="34.05981">
        <ele>1022.635941</ele>
        <time>2021-11-15T18:41:53.534Z</time>
      </trkpt>
      <trkpt lat="38.38169" lon="34.05769">
        <ele>1020.956885</ele>
        <time>2021-11-15T18:42:31.999Z</time>
      </trkpt>
      <trkpt lat="38.38101" lon="34.05669">
        <ele>1020.169999</ele>
        <time>2021-11-15T18:42:53.916Z</time>
      </trkpt>
      <trkpt lat="38.38063" lon="34.05599">
        <ele>1018.842372</ele>
        <time>2021-11-15T18:43:10.304Z</time>
      </trkpt>
      <trkpt lat="38.38043" lon="34.05562">
        <ele>1018.138803</ele>
        <time>2021-11-15T18:43:16.616Z</time>
      </trkpt>
      <trkpt lat="38.38021" lon="34.05471">
        <ele>1016.122991</ele>
        <time>2021-11-15T18:43:28.302Z</time>
      </trkpt>
      <trkpt lat="38.38007" lon="34.05423">
        <ele>1013.331798</ele>
        <time>2021-11-15T18:43:34.204Z</time>
      </trkpt>
      <trkpt lat="38.38004" lon="34.0542">
        <ele>1013.094897</ele>
        <time>2021-11-15T18:43:34.982Z</time>
      </trkpt>
      <trkpt lat="38.38042" lon="34.05438">
        <ele>1010.331675</ele>
        <time>2021-11-15T18:43:45.469Z</time>
      </trkpt>
      <trkpt lat="38.38062" lon="34.05429">
        <ele>1008.88937</ele>
        <time>2021-11-15T18:43:51.070Z</time>
      </trkpt>
      <trkpt lat="38.38079" lon="34.05409">
        <ele>1007.313921</ele>
        <time>2021-11-15T18:43:56.889Z</time>
      </trkpt>
      <trkpt lat="38.38088" lon="34.05392">
        <ele>1006.162507</ele>
        <time>2021-11-15T18:44:01.195Z</time>
      </trkpt>
      <trkpt lat="38.38093" lon="34.05383">
        <ele>1005.618173</ele>
        <time>2021-11-15T18:44:03.029Z</time>
      </trkpt>
      <trkpt lat="38.38104" lon="34.05365">
        <ele>1004.451247</ele>
        <time>2021-11-15T18:44:07.971Z</time>
      </trkpt>
      <trkpt lat="38.38123" lon="34.05344">
        <ele>1003.50027</ele>
        <time>2021-11-15T18:44:14.052Z</time>
      </trkpt>
      <trkpt lat="38.38236" lon="34.05253">
        <ele>998.305599</ele>
        <time>2021-11-15T18:44:52.119Z</time>
      </trkpt>
      <trkpt lat="38.38358" lon="34.05139">
        <ele>1000.533522</ele>
        <time>2021-11-15T18:46:01.258Z</time>
      </trkpt>
      <trkpt lat="38.384" lon="34.05166">
        <ele>1001.57368</ele>
        <time>2021-11-15T18:46:26.408Z</time>
      </trkpt>
      <trkpt lat="38.38431" lon="34.05173">
        <ele>1002.47584</ele>
        <time>2021-11-15T18:46:42.846Z</time>
      </trkpt>
      <trkpt lat="38.38455" lon="34.05189">
        <ele>1003.271703</ele>
        <time>2021-11-15T18:46:57.309Z</time>
      </trkpt>
      <trkpt lat="38.38467" lon="34.05181">
        <ele>1003.645177</ele>
        <time>2021-11-15T18:47:04.653Z</time>
      </trkpt>
      <trkpt lat="38.38448" lon="34.05138">
        <ele>1004.761618</ele>
        <time>2021-11-15T18:47:18.833Z</time>
      </trkpt>
      <trkpt lat="38.38444" lon="34.05007">
        <ele>1006.428356</ele>
        <time>2021-11-15T18:47:48.284Z</time>
      </trkpt>
      <trkpt lat="38.38448" lon="34.04994">
        <ele>1006.3129</ele>
        <time>2021-11-15T18:47:51.692Z</time>
      </trkpt>
      <trkpt lat="38.38466" lon="34.04927">
        <ele>1005.732693</ele>
        <time>2021-11-15T18:48:02.286Z</time>
      </trkpt>
      <trkpt lat="38.38476" lon="34.0487">
        <ele>1005.254212</ele>
        <time>2021-11-15T18:48:10.244Z</time>
      </trkpt>
      <trkpt lat="38.38522" lon="34.0479">
        <ele>1003.777865</ele>
        <time>2021-11-15T18:48:22.874Z</time>
      </trkpt>
      <trkpt lat="38.38527" lon="34.04757">
        <ele>1003.094283</ele>
        <time>2021-11-15T18:48:27.164Z</time>
      </trkpt>
      <trkpt lat="38.38522" lon="34.04736">
        <ele>1002.649778</ele>
        <time>2021-11-15T18:48:30.049Z</time>
      </trkpt>
      <trkpt lat="38.38503" lon="34.0471">
        <ele>1001.931951</ele>
        <time>2021-11-15T18:48:34.724Z</time>
      </trkpt>
      <trkpt lat="38.38477" lon="34.04689">
        <ele>1001.141436</ele>
        <time>2021-11-15T18:48:39.966Z</time>
      </trkpt>
      <trkpt lat="38.38395" lon="34.0464">
        <ele>999.678576</ele>
        <time>2021-11-15T18:48:56.333Z</time>
      </trkpt>
      <trkpt lat="38.38379" lon="34.04628">
        <ele>999.492609</ele>
        <time>2021-11-15T18:48:59.742Z</time>
      </trkpt>
      <trkpt lat="38.38372" lon="34.04616">
        <ele>999.376389</ele>
        <time>2021-11-15T18:49:01.963Z</time>
      </trkpt>
      <trkpt lat="38.38366" lon="34.04579">
        <ele>999.072591</ele>
        <time>2021-11-15T18:49:07.861Z</time>
      </trkpt>
      <trkpt lat="38.3837" lon="34.04524">
        <ele>998.637114</ele>
        <time>2021-11-15T18:49:16.723Z</time>
      </trkpt>
      <trkpt lat="38.38359" lon="34.04444">
        <ele>998.501788</ele>
        <time>2021-11-15T18:49:31.086Z</time>
      </trkpt>
      <trkpt lat="38.38368" lon="34.0439">
        <ele>998.572252</ele>
        <time>2021-11-15T18:49:41.080Z</time>
      </trkpt>
      <trkpt lat="38.38374" lon="34.04324">
        <ele>998.657651</ele>
        <time>2021-11-15T18:49:53.184Z</time>
      </trkpt>
      <trkpt lat="38.38375" lon="34.0431">
        <ele>998.675512</ele>
        <time>2021-11-15T18:49:55.817Z</time>
      </trkpt>
      <trkpt lat="38.38382" lon="34.04289">
        <ele>998.705124</ele>
        <time>2021-11-15T18:49:59.909Z</time>
      </trkpt>
      <trkpt lat="38.38403" lon="34.04251">
        <ele>998.74717</ele>
        <time>2021-11-15T18:50:08.369Z</time>
      </trkpt>
      <trkpt lat="38.38403" lon="34.04239">
        <ele>998.756391</ele>
        <time>2021-11-15T18:50:10.716Z</time>
      </trkpt>
      <trkpt lat="38.3838" lon="34.04203">
        <ele>998.789629</ele>
        <time>2021-11-15T18:50:19.084Z</time>
      </trkpt>
      <trkpt lat="38.38372" lon="34.04182">
        <ele>998.806378</ele>
        <time>2021-11-15T18:50:23.225Z</time>
      </trkpt>
      <trkpt lat="38.3837" lon="34.04178">
        <ele>998.809848</ele>
        <time>2021-11-15T18:50:24.093Z</time>
      </trkpt>
      <trkpt lat="38.38361" lon="34.04144">
        <ele>998.835722</ele>
        <time>2021-11-15T18:50:30.343Z</time>
      </trkpt>
      <trkpt lat="38.3834" lon="34.04059">
        <ele>999.133177</ele>
        <time>2021-11-15T18:50:44.339Z</time>
      </trkpt>
      <trkpt lat="38.38339" lon="34.04055">
        <ele>999.218585</ele>
        <time>2021-11-15T18:50:45.059Z</time>
      </trkpt>
      <trkpt lat="38.38328" lon="34.03963">
        <ele>1001.016238</ele>
        <time>2021-11-15T18:51:05.974Z</time>
      </trkpt>
      <trkpt lat="38.38316" lon="34.03964">
        <ele>1001.329314</ele>
        <time>2021-11-15T18:51:10.310Z</time>
      </trkpt>
      <trkpt lat="38.38305" lon="34.03958">
        <ele>1001.623749</ele>
        <time>2021-11-15T18:51:14.978Z</time>
      </trkpt>
      <trkpt lat="38.38301" lon="34.03955">
        <ele>1001.739097</ele>
        <time>2021-11-15T18:51:16.764Z</time>
      </trkpt>
      <trkpt lat="38.3829" lon="34.03953">
        <ele>1002.008287</ele>
        <time>2021-11-15T18:51:21.896Z</time>
      </trkpt>
      <trkpt lat="38.38291" lon="34.0385">
        <ele>1003.762354</ele>
        <time>2021-11-15T18:51:53.812Z</time>
      </trkpt>
      <trkpt lat="38.38294" lon="34.03803">
        <ele>1004.352122</ele>
        <time>2021-11-15T18:52:07.677Z</time>
      </trkpt>
      <trkpt lat="38.38299" lon="34.0379">
        <ele>1004.538295</ele>
        <time>2021-11-15T18:52:11.414Z</time>
      </trkpt>
      <trkpt lat="38.38308" lon="34.03773">
        <ele>1004.789791</ele>
        <time>2021-11-15T18:52:17.934Z</time>
      </trkpt>
      <trkpt lat="38.38267" lon="34.03611">
        <ele>1004.728818</ele>
        <time>2021-11-15T18:52:45.579Z</time>
      </trkpt>
      <trkpt lat="38.3825" lon="34.03542">
        <ele>1002.957653</ele>
        <time>2021-11-15T18:52:54.170Z</time>
      </trkpt>
      <trkpt lat="38.38244" lon="34.03515">
        <ele>1002.263521</ele>
        <time>2021-11-15T18:52:57.521Z</time>
      </trkpt>
      <trkpt lat="38.38237" lon="34.03473">
        <ele>1001.190524</ele>
        <time>2021-11-15T18:53:02.777Z</time>
      </trkpt>
      <trkpt lat="38.38237" lon="34.03454">
        <ele>1000.733123</ele>
        <time>2021-11-15T18:53:05.024Z</time>
      </trkpt>
      <trkpt lat="38.38243" lon="34.03418">
        <ele>1000.257052</ele>
        <time>2021-11-15T18:53:09.716Z</time>
      </trkpt>
      <trkpt lat="38.38254" lon="34.03393">
        <ele>999.993302</ele>
        <time>2021-11-15T18:53:13.383Z</time>
      </trkpt>
      <trkpt lat="38.38281" lon="34.03353">
        <ele>999.510865</ele>
        <time>2021-11-15T18:53:20.766Z</time>
      </trkpt>
      <trkpt lat="38.38295" lon="34.03335">
        <ele>999.279193</ele>
        <time>2021-11-15T18:53:24.588Z</time>
      </trkpt>
      <trkpt lat="38.38301" lon="34.03336">
        <ele>999.210252</ele>
        <time>2021-11-15T18:53:25.931Z</time>
      </trkpt>
      <trkpt lat="38.38307" lon="34.03342">
        <ele>999.124987</ele>
        <time>2021-11-15T18:53:27.652Z</time>
      </trkpt>
      <trkpt lat="38.38317" lon="34.03335">
        <ele>998.992679</ele>
        <time>2021-11-15T18:53:30.395Z</time>
      </trkpt>
      <trkpt lat="38.38329" lon="34.03329">
        <ele>998.842406</ele>
        <time>2021-11-15T18:53:33.342Z</time>
      </trkpt>
      <trkpt lat="38.38483" lon="34.03181">
        <ele>999.970507</ele>
        <time>2021-11-15T18:54:25.623Z</time>
      </trkpt>
      <trkpt lat="38.38498" lon="34.03167">
        <ele>1000.159111</ele>
        <time>2021-11-15T18:54:30.263Z</time>
      </trkpt>
      <trkpt lat="38.38538" lon="34.0313">
        <ele>1000.211368</ele>
        <time>2021-11-15T18:54:41.847Z</time>
      </trkpt>
      <trkpt lat="38.3857" lon="34.03101">
        <ele>1000.21905</ele>
        <time>2021-11-15T18:54:50.854Z</time>
      </trkpt>
      <trkpt lat="38.38597" lon="34.03086">
        <ele>1000.224894</ele>
        <time>2021-11-15T18:54:57.660Z</time>
      </trkpt>
      <trkpt lat="38.38666" lon="34.03057">
        <ele>1000.186473</ele>
        <time>2021-11-15T18:55:12.785Z</time>
      </trkpt>
      <trkpt lat="38.38781" lon="34.03009">
        <ele>999.151487</ele>
        <time>2021-11-15T18:55:36.417Z</time>
      </trkpt>
      <trkpt lat="38.38779" lon="34.03001">
        <ele>999.098492</ele>
        <time>2021-11-15T18:55:37.586Z</time>
      </trkpt>
      <trkpt lat="38.38777" lon="34.02989">
        <ele>999.019127</ele>
        <time>2021-11-15T18:55:39.346Z</time>
      </trkpt>
      <trkpt lat="38.38776" lon="34.02983">
        <ele>998.978656</ele>
        <time>2021-11-15T18:55:40.239Z</time>
      </trkpt>
      <trkpt lat="38.38786" lon="34.02971">
        <ele>998.864438</ele>
        <time>2021-11-15T18:55:43.203Z</time>
      </trkpt>
      <trkpt lat="38.38791" lon="34.02965">
        <ele>998.803379</ele>
        <time>2021-11-15T18:55:44.658Z</time>
      </trkpt>
      <trkpt lat="38.38841" lon="34.02909">
        <ele>998.203577</ele>
        <time>2021-11-15T18:55:58.201Z</time>
      </trkpt>
      <trkpt lat="38.38853" lon="34.02895">
        <ele>998.061468</ele>
        <time>2021-11-15T18:56:01.160Z</time>
      </trkpt>
      <trkpt lat="38.38868" lon="34.02879">
        <ele>997.878182</ele>
        <time>2021-11-15T18:56:05.408Z</time>
      </trkpt>
      <trkpt lat="38.38877" lon="34.0287">
        <ele>997.775834</ele>
        <time>2021-11-15T18:56:07.530Z</time>
      </trkpt>
      <trkpt lat="38.38964" lon="34.02744">
        <ele>996.572137</ele>
        <time>2021-11-15T18:56:35.281Z</time>
      </trkpt>
      <trkpt lat="38.39006" lon="34.0269">
        <ele>996.013857</ele>
        <time>2021-11-15T18:56:47.710Z</time>
      </trkpt>
      <trkpt lat="38.3903" lon="34.02657">
        <ele>995.682289</ele>
        <time>2021-11-15T18:56:54.705Z</time>
      </trkpt>
      <trkpt lat="38.39038" lon="34.02647">
        <ele>995.577954</ele>
        <time>2021-11-15T18:56:56.823Z</time>
      </trkpt>
      <trkpt lat="38.3908" lon="34.02585">
        <ele>994.758646</ele>
        <time>2021-11-15T18:57:09.322Z</time>
      </trkpt>
      <trkpt lat="38.39086" lon="34.02577">
        <ele>994.636996</ele>
        <time>2021-11-15T18:57:10.904Z</time>
      </trkpt>
      <trkpt lat="38.39104" lon="34.02553">
        <ele>994.272796</ele>
        <time>2021-11-15T18:57:15.897Z</time>
      </trkpt>
      <trkpt lat="38.39123" lon="34.02523">
        <ele>993.836046</ele>
        <time>2021-11-15T18:57:21.749Z</time>
      </trkpt>
      <trkpt lat="38.3916" lon="34.02458">
        <ele>992.933175</ele>
        <time>2021-11-15T18:57:33.694Z</time>
      </trkpt>
      <trkpt lat="38.3921" lon="34.02388">
        <ele>992.679626</ele>
        <time>2021-11-15T18:57:48.874Z</time>
      </trkpt>
      <trkpt lat="38.39213" lon="34.02373">
        <ele>992.653166</ele>
        <time>2021-11-15T18:57:51.676Z</time>
      </trkpt>
      <trkpt lat="38.39213" lon="34.02298">
        <ele>992.525821</ele>
        <time>2021-11-15T18:58:05.120Z</time>
      </trkpt>
      <trkpt lat="38.39236" lon="34.02297">
        <ele>992.47513</ele>
        <time>2021-11-15T18:58:11.193Z</time>
      </trkpt>
      <trkpt lat="38.39269" lon="34.02284">
        <ele>992.570136</ele>
        <time>2021-11-15T18:58:20.121Z</time>
      </trkpt>
      <trkpt lat="38.39281" lon="34.02273">
        <ele>992.700726</ele>
        <time>2021-11-15T18:58:23.611Z</time>
      </trkpt>
      <trkpt lat="38.39316" lon="34.02203">
        <ele>993.301865</ele>
        <time>2021-11-15T18:58:40.981Z</time>
      </trkpt>
      <trkpt lat="38.39335" lon="34.02186">
        <ele>993.512112</ele>
        <time>2021-11-15T18:58:47.476Z</time>
      </trkpt>
      <trkpt lat="38.39354" lon="34.02171">
        <ele>993.72024</ele>
        <time>2021-11-15T18:58:54.019Z</time>
      </trkpt>
      <trkpt lat="38.39361" lon="34.02165">
        <ele>993.800618</ele>
        <time>2021-11-15T18:58:56.339Z</time>
      </trkpt>
      <trkpt lat="38.3937" lon="34.02155">
        <ele>993.907501</ele>
        <time>2021-11-15T18:58:59.494Z</time>
      </trkpt>
      <trkpt lat="38.39388" lon="34.02139">
        <ele>994.105944</ele>
        <time>2021-11-15T18:59:05.412Z</time>
      </trkpt>
      <trkpt lat="38.39458" lon="34.02084">
        <ele>994.65784</ele>
        <time>2021-11-15T18:59:26.645Z</time>
      </trkpt>
      <trkpt lat="38.39524" lon="34.0203">
        <ele>995.193167</ele>
        <time>2021-11-15T18:59:45.987Z</time>
      </trkpt>
      <trkpt lat="38.39577" lon="34.01987">
        <ele>995.344735</ele>
        <time>2021-11-15T19:00:00.107Z</time>
      </trkpt>
      <trkpt lat="38.39589" lon="34.01978">
        <ele>995.356021</ele>
        <time>2021-11-15T19:00:03.017Z</time>
      </trkpt>
      <trkpt lat="38.39616" lon="34.01955">
        <ele>995.383486</ele>
        <time>2021-11-15T19:00:10.137Z</time>
      </trkpt>
      <trkpt lat="38.39639" lon="34.01936">
        <ele>995.407237</ele>
        <time>2021-11-15T19:00:16.451Z</time>
      </trkpt>
      <trkpt lat="38.39678" lon="34.01904">
        <ele>995.446703</ele>
        <time>2021-11-15T19:00:26.987Z</time>
      </trkpt>
      <trkpt lat="38.39708" lon="34.01879">
        <ele>995.459616</ele>
        <time>2021-11-15T19:00:34.974Z</time>
      </trkpt>
      <trkpt lat="38.39739" lon="34.01852">
        <ele>995.46242</ele>
        <time>2021-11-15T19:00:43.538Z</time>
      </trkpt>
      <trkpt lat="38.39759" lon="34.01835">
        <ele>995.464211</ele>
        <time>2021-11-15T19:00:49.156Z</time>
      </trkpt>
      <trkpt lat="38.39784" lon="34.01802">
        <ele>995.466885</ele>
        <time>2021-11-15T19:00:57.239Z</time>
      </trkpt>
      <trkpt lat="38.39787" lon="34.01798">
        <ele>995.467223</ele>
        <time>2021-11-15T19:00:58.355Z</time>
      </trkpt>
      <trkpt lat="38.39841" lon="34.01688">
        <ele>995.143012</ele>
        <time>2021-11-15T19:01:19.999Z</time>
      </trkpt>
      <trkpt lat="38.39847" lon="34.01679">
        <ele>995.080001</ele>
        <time>2021-11-15T19:01:21.866Z</time>
      </trkpt>
      <trkpt lat="38.39916" lon="34.01549">
        <ele>994.200129</ele>
        <time>2021-11-15T19:01:45.935Z</time>
      </trkpt>
      <trkpt lat="38.39924" lon="34.01532">
        <ele>994.06806</ele>
        <time>2021-11-15T19:01:48.812Z</time>
      </trkpt>
      <trkpt lat="38.39989" lon="34.01399">
        <ele>992.957777</ele>
        <time>2021-11-15T19:02:12.769Z</time>
      </trkpt>
      <trkpt lat="38.40008" lon="34.0136">
        <ele>992.63477</ele>
        <time>2021-11-15T19:02:19.992Z</time>
      </trkpt>
      <trkpt lat="38.40052" lon="34.01273">
        <ele>991.787144</ele>
        <time>2021-11-15T19:02:35.889Z</time>
      </trkpt>
      <trkpt lat="38.40071" lon="34.01241">
        <ele>991.448513</ele>
        <time>2021-11-15T19:02:42.059Z</time>
      </trkpt>
      <trkpt lat="38.40073" lon="34.01239">
        <ele>991.416954</ele>
        <time>2021-11-15T19:02:42.567Z</time>
      </trkpt>
      <trkpt lat="38.40128" lon="34.0107">
        <ele>989.722349</ele>
        <time>2021-11-15T19:03:10.418Z</time>
      </trkpt>
      <trkpt lat="38.40181" lon="34.00905">
        <ele>987.945842</ele>
        <time>2021-11-15T19:03:37.837Z</time>
      </trkpt>
      <trkpt lat="38.40241" lon="34.00738">
        <ele>986.248761</ele>
        <time>2021-11-15T19:04:06.299Z</time>
      </trkpt>
      <trkpt lat="38.40237" lon="34.00736">
        <ele>986.195913</ele>
        <time>2021-11-15T19:04:07.106Z</time>
      </trkpt>
      <trkpt lat="38.40195" lon="34.00707">
        <ele>985.850201</ele>
        <time>2021-11-15T19:04:16.529Z</time>
      </trkpt>
      <trkpt lat="38.40189" lon="34.00703">
        <ele>985.807153</ele>
        <time>2021-11-15T19:04:17.665Z</time>
      </trkpt>
      <trkpt lat="38.4015" lon="34.00677">
        <ele>985.490993</ele>
        <time>2021-11-15T19:04:26.483Z</time>
      </trkpt>
      <trkpt lat="38.40089" lon="34.00635">
        <ele>984.992037</ele>
        <time>2021-11-15T19:04:40.518Z</time>
      </trkpt>
      <trkpt lat="38.40097" lon="34.00621">
        <ele>984.900022</ele>
        <time>2021-11-15T19:04:43.359Z</time>
      </trkpt>
      <trkpt lat="38.40114" lon="34.00594">
        <ele>984.830599</ele>
        <time>2021-11-15T19:04:48.931Z</time>
      </trkpt>
      <trkpt lat="38.40126" lon="34.00574">
        <ele>984.778492</ele>
        <time>2021-11-15T19:04:53.295Z</time>
      </trkpt>
      <trkpt lat="38.40305" lon="34.00262">
        <ele>984.065087</ele>
        <time>2021-11-15T19:05:58.591Z</time>
      </trkpt>
      <trkpt lat="38.40347" lon="34.00194">
        <ele>983.708784</ele>
        <time>2021-11-15T19:06:12.733Z</time>
      </trkpt>
      <trkpt lat="38.40375" lon="34.00149">
        <ele>983.452088</ele>
        <time>2021-11-15T19:06:21.701Z</time>
      </trkpt>
      <trkpt lat="38.404" lon="34.00102">
        <ele>983.193594</ele>
        <time>2021-11-15T19:06:30.640Z</time>
      </trkpt>
      <trkpt lat="38.40412" lon="34.00072">
        <ele>983.041999</ele>
        <time>2021-11-15T19:06:35.878Z</time>
      </trkpt>
      <trkpt lat="38.40439" lon="34">
        <ele>982.838931</ele>
        <time>2021-11-15T19:06:48.424Z</time>
      </trkpt>
      <trkpt lat="38.40483" lon="33.99882">
        <ele>982.530597</ele>
        <time>2021-11-15T19:07:09.829Z</time>
      </trkpt>
      <trkpt lat="38.40498" lon="33.99855">
        <ele>982.512768</ele>
        <time>2021-11-15T19:07:15.998Z</time>
      </trkpt>
      <trkpt lat="38.40566" lon="33.99779">
        <ele>983.170079</ele>
        <time>2021-11-15T19:07:38.583Z</time>
      </trkpt>
      <trkpt lat="38.40583" lon="33.99765">
        <ele>983.312773</ele>
        <time>2021-11-15T19:07:43.907Z</time>
      </trkpt>
      <trkpt lat="38.40589" lon="33.99766">
        <ele>983.354108</ele>
        <time>2021-11-15T19:07:45.396Z</time>
      </trkpt>
      <trkpt lat="38.40599" lon="33.99757">
        <ele>983.444861</ele>
        <time>2021-11-15T19:07:48.469Z</time>
      </trkpt>
      <trkpt lat="38.40601" lon="33.99749">
        <ele>983.490884</ele>
        <time>2021-11-15T19:07:50.300Z</time>
      </trkpt>
      <trkpt lat="38.40647" lon="33.99696">
        <ele>983.958051</ele>
        <time>2021-11-15T19:08:06.554Z</time>
      </trkpt>
      <trkpt lat="38.40652" lon="33.99691">
        <ele>984.005751</ele>
        <time>2021-11-15T19:08:08.229Z</time>
      </trkpt>
      <trkpt lat="38.40721" lon="33.99612">
        <ele>984.746592</ele>
        <time>2021-11-15T19:08:32.193Z</time>
      </trkpt>
      <trkpt lat="38.40796" lon="33.99526">
        <ele>985.743095</ele>
        <time>2021-11-15T19:08:56.590Z</time>
      </trkpt>
      <trkpt lat="38.40807" lon="33.99512">
        <ele>985.932066</ele>
        <time>2021-11-15T19:09:00.442Z</time>
      </trkpt>
      <trkpt lat="38.40856" lon="33.99444">
        <ele>986.834394</ele>
        <time>2021-11-15T19:09:20.674Z</time>
      </trkpt>
      <trkpt lat="38.40867" lon="33.99428">
        <ele>987.037726</ele>
        <time>2021-11-15T19:09:25.527Z</time>
      </trkpt>
      <trkpt lat="38.40893" lon="33.99388">
        <ele>987.589676</ele>
        <time>2021-11-15T19:09:37.673Z</time>
      </trkpt>
      <trkpt lat="38.40908" lon="33.99357">
        <ele>988.089013</ele>
        <time>2021-11-15T19:09:46.157Z</time>
      </trkpt>
      <trkpt lat="38.40965" lon="33.99365">
        <ele>989.076822</ele>
        <time>2021-11-15T19:10:03.655Z</time>
      </trkpt>
      <trkpt lat="38.40974" lon="33.99364">
        <ele>989.242184</ele>
        <time>2021-11-15T19:10:06.699Z</time>
      </trkpt>
      <trkpt lat="38.40985" lon="33.99304">
        <ele>990.088781</ele>
        <time>2021-11-15T19:10:21.159Z</time>
      </trkpt>
      <trkpt lat="38.41007" lon="33.99217">
        <ele>990.700045</ele>
        <time>2021-11-15T19:10:40.782Z</time>
      </trkpt>
      <trkpt lat="38.41036" lon="33.99166">
        <ele>990.853237</ele>
        <time>2021-11-15T19:10:52.435Z</time>
      </trkpt>
      <trkpt lat="38.41039" lon="33.9916">
        <ele>990.869219</ele>
        <time>2021-11-15T19:10:53.679Z</time>
      </trkpt>
      <trkpt lat="38.41044" lon="33.99148">
        <ele>990.905314</ele>
        <time>2021-11-15T19:10:56.160Z</time>
      </trkpt>
      <trkpt lat="38.41147" lon="33.98965">
        <ele>990.762379</ele>
        <time>2021-11-15T19:11:32.885Z</time>
      </trkpt>
      <trkpt lat="38.41238" lon="33.98804">
        <ele>990.554738</ele>
        <time>2021-11-15T19:12:05.930Z</time>
      </trkpt>
      <trkpt lat="38.41259" lon="33.98749">
        <ele>990.579787</ele>
        <time>2021-11-15T19:12:17.003Z</time>
      </trkpt>
      <trkpt lat="38.41303" lon="33.98636">
        <ele>990.637151</ele>
        <time>2021-11-15T19:12:40.567Z</time>
      </trkpt>
      <trkpt lat="38.41334" lon="33.98558">
        <ele>990.680197</ele>
        <time>2021-11-15T19:12:56.512Z</time>
      </trkpt>
      <trkpt lat="38.41364" lon="33.98483">
        <ele>990.688615</ele>
        <time>2021-11-15T19:13:10.865Z</time>
      </trkpt>
      <trkpt lat="38.41405" lon="33.9838">
        <ele>989.78162</ele>
        <time>2021-11-15T19:13:28.432Z</time>
      </trkpt>
      <trkpt lat="38.41429" lon="33.98324">
        <ele>989.280321</ele>
        <time>2021-11-15T19:13:37.732Z</time>
      </trkpt>
      <trkpt lat="38.41481" lon="33.98192">
        <ele>988.467488</ele>
        <time>2021-11-15T19:13:59.738Z</time>
      </trkpt>
      <trkpt lat="38.41482" lon="33.98189">
        <ele>988.453099</ele>
        <time>2021-11-15T19:14:00.290Z</time>
      </trkpt>
      <trkpt lat="38.41565" lon="33.9797">
        <ele>988.078963</ele>
        <time>2021-11-15T19:14:41.785Z</time>
      </trkpt>
      <trkpt lat="38.41642" lon="33.9777">
        <ele>988.528929</ele>
        <time>2021-11-15T19:15:24.041Z</time>
      </trkpt>
      <trkpt lat="38.41668" lon="33.97723">
        <ele>988.672388</ele>
        <time>2021-11-15T19:15:34.266Z</time>
      </trkpt>
      <trkpt lat="38.41688" lon="33.97703">
        <ele>988.757468</ele>
        <time>2021-11-15T19:15:40.442Z</time>
      </trkpt>
      <trkpt lat="38.41746" lon="33.97654">
        <ele>988.922496</ele>
        <time>2021-11-15T19:15:56.172Z</time>
      </trkpt>
      <trkpt lat="38.41781" lon="33.97639">
        <ele>988.998502</ele>
        <time>2021-11-15T19:16:04.770Z</time>
      </trkpt>
      <trkpt lat="38.41786" lon="33.97634">
        <ele>989.011287</ele>
        <time>2021-11-15T19:16:06.040Z</time>
      </trkpt>
      <trkpt lat="38.41797" lon="33.97628">
        <ele>989.035649</ele>
        <time>2021-11-15T19:16:08.799Z</time>
      </trkpt>
      <trkpt lat="38.4183" lon="33.97611">
        <ele>989.108485</ele>
        <time>2021-11-15T19:16:17.079Z</time>
      </trkpt>
      <trkpt lat="38.41865" lon="33.97595">
        <ele>989.184446</ele>
        <time>2021-11-15T19:16:25.730Z</time>
      </trkpt>
      <trkpt lat="38.41917" lon="33.97566">
        <ele>989.280992</ele>
        <time>2021-11-15T19:16:38.950Z</time>
      </trkpt>
      <trkpt lat="38.41979" lon="33.97533">
        <ele>989.391281</ele>
        <time>2021-11-15T19:16:54.498Z</time>
      </trkpt>
      <trkpt lat="38.4199" lon="33.97525">
        <ele>989.4125</ele>
        <time>2021-11-15T19:16:57.477Z</time>
      </trkpt>
      <trkpt lat="38.42012" lon="33.9751">
        <ele>989.453735</ele>
        <time>2021-11-15T19:17:03.105Z</time>
      </trkpt>
      <trkpt lat="38.42036" lon="33.97484">
        <ele>989.485624</ele>
        <time>2021-11-15T19:17:09.976Z</time>
      </trkpt>
      <trkpt lat="38.42056" lon="33.97433">
        <ele>989.464066</ele>
        <time>2021-11-15T19:17:19.860Z</time>
      </trkpt>
      <trkpt lat="38.42062" lon="33.97415">
        <ele>989.456786</ele>
        <time>2021-11-15T19:17:23.161Z</time>
      </trkpt>
      <trkpt lat="38.4208" lon="33.97361">
        <ele>989.434629</ele>
        <time>2021-11-15T19:17:33.281Z</time>
      </trkpt>
      <trkpt lat="38.42126" lon="33.97226">
        <ele>989.401407</ele>
        <time>2021-11-15T19:17:58.962Z</time>
      </trkpt>
      <trkpt lat="38.42131" lon="33.97211">
        <ele>989.400767</ele>
        <time>2021-11-15T19:18:01.844Z</time>
      </trkpt>
      <trkpt lat="38.42156" lon="33.97137">
        <ele>989.397593</ele>
        <time>2021-11-15T19:18:15.815Z</time>
      </trkpt>
      <trkpt lat="38.42159" lon="33.9713">
        <ele>989.397272</ele>
        <time>2021-11-15T19:18:17.261Z</time>
      </trkpt>
      <trkpt lat="38.42175" lon="33.97086">
        <ele>989.395334</ele>
        <time>2021-11-15T19:18:25.686Z</time>
      </trkpt>
      <trkpt lat="38.42191" lon="33.97056">
        <ele>989.335398</ele>
        <time>2021-11-15T19:18:31.799Z</time>
      </trkpt>
      <trkpt lat="38.4221" lon="33.97038">
        <ele>989.260428</ele>
        <time>2021-11-15T19:18:37.072Z</time>
      </trkpt>
      <trkpt lat="38.42242" lon="33.97018">
        <ele>989.151098</ele>
        <time>2021-11-15T19:18:44.563Z</time>
      </trkpt>
      <trkpt lat="38.42371" lon="33.96965">
        <ele>988.731397</ele>
        <time>2021-11-15T19:19:12.634Z</time>
      </trkpt>
      <trkpt lat="38.4239" lon="33.96946">
        <ele>988.655947</ele>
        <time>2021-11-15T19:19:17.642Z</time>
      </trkpt>
      <trkpt lat="38.424" lon="33.96929">
        <ele>988.605308</ele>
        <time>2021-11-15T19:19:21.002Z</time>
      </trkpt>
      <trkpt lat="38.42401" lon="33.96909">
        <ele>988.556995</ele>
        <time>2021-11-15T19:19:24.200Z</time>
      </trkpt>
      <trkpt lat="38.42397" lon="33.9689">
        <ele>988.508057</ele>
        <time>2021-11-15T19:19:27.393Z</time>
      </trkpt>
      <trkpt lat="38.4234" lon="33.96817">
        <ele>988.292592</ele>
        <time>2021-11-15T19:19:45.028Z</time>
      </trkpt>
      <trkpt lat="38.42323" lon="33.96796">
        <ele>988.333672</ele>
        <time>2021-11-15T19:19:50.375Z</time>
      </trkpt>
      <trkpt lat="38.42317" lon="33.96759">
        <ele>988.385467</ele>
        <time>2021-11-15T19:19:57.137Z</time>
      </trkpt>
      <trkpt lat="38.42321" lon="33.96739">
        <ele>988.41384</ele>
        <time>2021-11-15T19:20:00.646Z</time>
      </trkpt>
      <trkpt lat="38.42328" lon="33.96726">
        <ele>988.436302</ele>
        <time>2021-11-15T19:20:03.792Z</time>
      </trkpt>
      <trkpt lat="38.42367" lon="33.96683">
        <ele>988.525975</ele>
        <time>2021-11-15T19:20:15.461Z</time>
      </trkpt>
      <trkpt lat="38.42368" lon="33.96682">
        <ele>988.529058</ele>
        <time>2021-11-15T19:20:15.831Z</time>
      </trkpt>
      <trkpt lat="38.42389" lon="33.96661">
        <ele>988.576201</ele>
        <time>2021-11-15T19:20:22.119Z</time>
      </trkpt>
      <trkpt lat="38.42427" lon="33.96621">
        <ele>988.669799</ele>
        <time>2021-11-15T19:20:33.510Z</time>
      </trkpt>
      <trkpt lat="38.42429" lon="33.96618">
        <ele>988.675836</ele>
        <time>2021-11-15T19:20:34.235Z</time>
      </trkpt>
      <trkpt lat="38.42473" lon="33.96576">
        <ele>988.782989</ele>
        <time>2021-11-15T19:20:47.315Z</time>
      </trkpt>
      <trkpt lat="38.42492" lon="33.96566">
        <ele>988.822095</ele>
        <time>2021-11-15T19:20:51.857Z</time>
      </trkpt>
      <trkpt lat="38.42514" lon="33.96561">
        <ele>988.865907</ele>
        <time>2021-11-15T19:20:56.893Z</time>
      </trkpt>
      <trkpt lat="38.42519" lon="33.96561">
        <ele>988.875848</ele>
        <time>2021-11-15T19:20:57.988Z</time>
      </trkpt>
      <trkpt lat="38.42525" lon="33.96562">
        <ele>988.887742</ele>
        <time>2021-11-15T19:20:59.410Z</time>
      </trkpt>
      <trkpt lat="38.42556" lon="33.96566">
        <ele>988.947591</ele>
        <time>2021-11-15T19:21:06.353Z</time>
      </trkpt>
      <trkpt lat="38.42579" lon="33.96561">
        <ele>988.977244</ele>
        <time>2021-11-15T19:21:11.848Z</time>
      </trkpt>
      <trkpt lat="38.42599" lon="33.96547">
        <ele>989.005056</ele>
        <time>2021-11-15T19:21:16.971Z</time>
      </trkpt>
      <trkpt lat="38.4261" lon="33.96534">
        <ele>989.023463</ele>
        <time>2021-11-15T19:21:20.375Z</time>
      </trkpt>
      <trkpt lat="38.42637" lon="33.96478">
        <ele>989.087248</ele>
        <time>2021-11-15T19:21:32.220Z</time>
      </trkpt>
      <trkpt lat="38.42642" lon="33.96471">
        <ele>989.096809</ele>
        <time>2021-11-15T19:21:34.053Z</time>
      </trkpt>
      <trkpt lat="38.42649" lon="33.96462">
        <ele>989.108218</ele>
        <time>2021-11-15T19:21:36.189Z</time>
      </trkpt>
      <trkpt lat="38.42684" lon="33.96436">
        <ele>989.159253</ele>
        <time>2021-11-15T19:21:45.436Z</time>
      </trkpt>
      <trkpt lat="38.42732" lon="33.96419">
        <ele>989.054743</ele>
        <time>2021-11-15T19:21:56.541Z</time>
      </trkpt>
      <trkpt lat="38.42742" lon="33.96415">
        <ele>989.028366</ele>
        <time>2021-11-15T19:21:58.702Z</time>
      </trkpt>
      <trkpt lat="38.42746" lon="33.96413">
        <ele>989.015569</ele>
        <time>2021-11-15T19:21:59.738Z</time>
      </trkpt>
      <trkpt lat="38.42753" lon="33.96411">
        <ele>988.995491</ele>
        <time>2021-11-15T19:22:01.216Z</time>
      </trkpt>
      <trkpt lat="38.42829" lon="33.96387">
        <ele>988.780663</ele>
        <time>2021-11-15T19:22:17.558Z</time>
      </trkpt>
      <trkpt lat="38.42867" lon="33.96366">
        <ele>988.659804</ele>
        <time>2021-11-15T19:22:26.158Z</time>
      </trkpt>
      <trkpt lat="38.42889" lon="33.9635">
        <ele>988.539604</ele>
        <time>2021-11-15T19:22:31.287Z</time>
      </trkpt>
      <trkpt lat="38.42904" lon="33.96333">
        <ele>988.444476</ele>
        <time>2021-11-15T19:22:35.380Z</time>
      </trkpt>
      <trkpt lat="38.4291" lon="33.96322">
        <ele>988.394393</ele>
        <time>2021-11-15T19:22:37.454Z</time>
      </trkpt>
      <trkpt lat="38.42915" lon="33.963">
        <ele>988.306628</ele>
        <time>2021-11-15T19:22:41.237Z</time>
      </trkpt>
      <trkpt lat="38.42924" lon="33.9615">
        <ele>987.794349</ele>
        <time>2021-11-15T19:23:05.428Z</time>
      </trkpt>
      <trkpt lat="38.4293" lon="33.96129">
        <ele>987.769533</ele>
        <time>2021-11-15T19:23:09.106Z</time>
      </trkpt>
      <trkpt lat="38.42947" lon="33.96093">
        <ele>987.723071</ele>
        <time>2021-11-15T19:23:16.180Z</time>
      </trkpt>
      <trkpt lat="38.42989" lon="33.96047">
        <ele>987.642862</ele>
        <time>2021-11-15T19:23:28.526Z</time>
      </trkpt>
      <trkpt lat="38.43009" lon="33.96026">
        <ele>987.606601</ele>
        <time>2021-11-15T19:23:34.148Z</time>
      </trkpt>
      <trkpt lat="38.43069" lon="33.9596">
        <ele>987.616548</ele>
        <time>2021-11-15T19:23:51.977Z</time>
      </trkpt>
      <trkpt lat="38.43235" lon="33.95781">
        <ele>987.892507</ele>
        <time>2021-11-15T19:24:41.586Z</time>
      </trkpt>
      <trkpt lat="38.43249" lon="33.95767">
        <ele>987.915449</ele>
        <time>2021-11-15T19:24:45.733Z</time>
      </trkpt>
      <trkpt lat="38.43345" lon="33.95666">
        <ele>987.947774</ele>
        <time>2021-11-15T19:25:14.082Z</time>
      </trkpt>
      <trkpt lat="38.43369" lon="33.95639">
        <ele>987.899794</ele>
        <time>2021-11-15T19:25:21.196Z</time>
      </trkpt>
      <trkpt lat="38.43432" lon="33.95569">
        <ele>987.77484</ele>
        <time>2021-11-15T19:25:38.809Z</time>
      </trkpt>
      <trkpt lat="38.43473" lon="33.95523">
        <ele>987.563644</ele>
        <time>2021-11-15T19:25:49.949Z</time>
      </trkpt>
      <trkpt lat="38.43548" lon="33.95447">
        <ele>987.069663</ele>
        <time>2021-11-15T19:26:09.501Z</time>
      </trkpt>
      <trkpt lat="38.43559" lon="33.95407">
        <ele>986.896481</ele>
        <time>2021-11-15T19:26:16.533Z</time>
      </trkpt>
      <trkpt lat="38.43562" lon="33.95403">
        <ele>986.873815</ele>
        <time>2021-11-15T19:26:17.317Z</time>
      </trkpt>
      <trkpt lat="38.43566" lon="33.95398">
        <ele>986.845391</ele>
        <time>2021-11-15T19:26:18.614Z</time>
      </trkpt>
      <trkpt lat="38.43585" lon="33.95388">
        <ele>986.793717</ele>
        <time>2021-11-15T19:26:22.856Z</time>
      </trkpt>
      <trkpt lat="38.43621" lon="33.95348">
        <ele>986.708582</ele>
        <time>2021-11-15T19:26:32.697Z</time>
      </trkpt>
      <trkpt lat="38.4373" lon="33.95132">
        <ele>986.449442</ele>
        <time>2021-11-15T19:27:17.186Z</time>
      </trkpt>
      <trkpt lat="38.43745" lon="33.95114">
        <ele>986.437659</ele>
        <time>2021-11-15T19:27:21.578Z</time>
      </trkpt>
      <trkpt lat="38.43782" lon="33.95094">
        <ele>986.413638</ele>
        <time>2021-11-15T19:27:30.468Z</time>
      </trkpt>
      <trkpt lat="38.4381" lon="33.9509">
        <ele>986.39671</ele>
        <time>2021-11-15T19:27:36.681Z</time>
      </trkpt>
      <trkpt lat="38.43848" lon="33.95084">
        <ele>986.336081</ele>
        <time>2021-11-15T19:27:45.055Z</time>
      </trkpt>
      <trkpt lat="38.43868" lon="33.95076">
        <ele>986.299449</ele>
        <time>2021-11-15T19:27:49.499Z</time>
      </trkpt>
      <trkpt lat="38.43902" lon="33.95043">
        <ele>986.222958</ele>
        <time>2021-11-15T19:27:58.737Z</time>
      </trkpt>
      <trkpt lat="38.44068" lon="33.94728">
        <ele>985.540681</ele>
        <time>2021-11-15T19:29:02.096Z</time>
      </trkpt>
      <trkpt lat="38.44079" lon="33.9472">
        <ele>985.518214</ele>
        <time>2021-11-15T19:29:04.900Z</time>
      </trkpt>
      <trkpt lat="38.44084" lon="33.9471">
        <ele>985.501399</ele>
        <time>2021-11-15T19:29:06.891Z</time>
      </trkpt>
      <trkpt lat="38.44095" lon="33.94683">
        <ele>985.458967</ele>
        <time>2021-11-15T19:29:12.029Z</time>
      </trkpt>
      <trkpt lat="38.44227" lon="33.94549">
        <ele>985.177253</ele>
        <time>2021-11-15T19:29:48.517Z</time>
      </trkpt>
      <trkpt lat="38.44243" lon="33.94506">
        <ele>985.12104</ele>
        <time>2021-11-15T19:29:56.725Z</time>
      </trkpt>
      <trkpt lat="38.44256" lon="33.94421">
        <ele>985.019563</ele>
        <time>2021-11-15T19:30:11.526Z</time>
      </trkpt>
      <trkpt lat="38.44269" lon="33.94383">
        <ele>984.935465</ele>
        <time>2021-11-15T19:30:18.501Z</time>
      </trkpt>
      <trkpt lat="38.44284" lon="33.94362">
        <ele>984.870678</ele>
        <time>2021-11-15T19:30:23.328Z</time>
      </trkpt>
      <trkpt lat="38.44462" lon="33.94175">
        <ele>984.015218</ele>
        <time>2021-11-15T19:31:11.491Z</time>
      </trkpt>
      <trkpt lat="38.4449" lon="33.94124">
        <ele>983.783162</ele>
        <time>2021-11-15T19:31:21.205Z</time>
      </trkpt>
      <trkpt lat="38.44535" lon="33.93999">
        <ele>983.50717</ele>
        <time>2021-11-15T19:31:43.260Z</time>
      </trkpt>
      <trkpt lat="38.44612" lon="33.93901">
        <ele>983.346103</ele>
        <time>2021-11-15T19:32:07.852Z</time>
      </trkpt>
      <trkpt lat="38.44655" lon="33.93851">
        <ele>983.410943</ele>
        <time>2021-11-15T19:32:21.532Z</time>
      </trkpt>
      <trkpt lat="38.44671" lon="33.93839">
        <ele>983.432419</ele>
        <time>2021-11-15T19:32:25.889Z</time>
      </trkpt>
      <trkpt lat="38.44713" lon="33.93811">
        <ele>983.485166</ele>
        <time>2021-11-15T19:32:36.648Z</time>
      </trkpt>
      <trkpt lat="38.44734" lon="33.93797">
        <ele>983.510958</ele>
        <time>2021-11-15T19:32:41.625Z</time>
      </trkpt>
      <trkpt lat="38.44788" lon="33.93758">
        <ele>983.763946</ele>
        <time>2021-11-15T19:32:55.523Z</time>
      </trkpt>
      <trkpt lat="38.44803" lon="33.93738">
        <ele>983.905713</ele>
        <time>2021-11-15T19:33:00.227Z</time>
      </trkpt>
      <trkpt lat="38.44838" lon="33.93662">
        <ele>984.362629</ele>
        <time>2021-11-15T19:33:17.726Z</time>
      </trkpt>
      <trkpt lat="38.44843" lon="33.93655">
        <ele>984.410688</ele>
        <time>2021-11-15T19:33:19.076Z</time>
      </trkpt>
      <trkpt lat="38.4485" lon="33.93647">
        <ele>984.473141</ele>
        <time>2021-11-15T19:33:22.253Z</time>
      </trkpt>
      <trkpt lat="38.4489" lon="33.93624">
        <ele>984.784863</ele>
        <time>2021-11-15T19:33:34.328Z</time>
      </trkpt>
      <trkpt lat="38.4491" lon="33.93622">
        <ele>984.99618</ele>
        <time>2021-11-15T19:33:39.148Z</time>
      </trkpt>
      <trkpt lat="38.44946" lon="33.93625">
        <ele>985.385392</ele>
        <time>2021-11-15T19:33:49.668Z</time>
      </trkpt>
      <trkpt lat="38.44965" lon="33.93626">
        <ele>985.586949</ele>
        <time>2021-11-15T19:33:55.940Z</time>
      </trkpt>
      <trkpt lat="38.45148" lon="33.93638">
        <ele>986.467178</ele>
        <time>2021-11-15T19:34:41.435Z</time>
      </trkpt>
      <trkpt lat="38.45154" lon="33.93635">
        <ele>986.451496</ele>
        <time>2021-11-15T19:34:42.959Z</time>
      </trkpt>
      <trkpt lat="38.45158" lon="33.93633">
        <ele>986.442757</ele>
        <time>2021-11-15T19:34:43.532Z</time>
      </trkpt>
      <trkpt lat="38.45171" lon="33.93593">
        <ele>986.365098</ele>
        <time>2021-11-15T19:34:50.489Z</time>
      </trkpt>
      <trkpt lat="38.45222" lon="33.93543">
        <ele>986.018462</ele>
        <time>2021-11-15T19:35:03.326Z</time>
      </trkpt>
      <trkpt lat="38.45242" lon="33.93523">
        <ele>985.57166</ele>
        <time>2021-11-15T19:35:07.906Z</time>
      </trkpt>
      <trkpt lat="38.45271" lon="33.93497">
        <ele>984.945109</ele>
        <time>2021-11-15T19:35:14.540Z</time>
      </trkpt>
      <trkpt lat="38.45328" lon="33.93448">
        <ele>983.714399</ele>
        <time>2021-11-15T19:35:27.474Z</time>
      </trkpt>
      <trkpt lat="38.45363" lon="33.93418">
        <ele>982.907718</ele>
        <time>2021-11-15T19:35:35.055Z</time>
      </trkpt>
      <trkpt lat="38.45303" lon="33.93313">
        <ele>979.834774</ele>
        <time>2021-11-15T19:35:52.749Z</time>
      </trkpt>
      <trkpt lat="38.45253" lon="33.93223">
        <ele>977.339912</ele>
        <time>2021-11-15T19:36:07.284Z</time>
      </trkpt>
      <trkpt lat="38.45291" lon="33.93188">
        <ele>976.388124</ele>
        <time>2021-11-15T19:36:15.436Z</time>
      </trkpt>
      <trkpt lat="38.45324" lon="33.93156">
        <ele>975.53756</ele>
        <time>2021-11-15T19:36:23.049Z</time>
      </trkpt>
      <trkpt lat="38.45358" lon="33.93123">
        <ele>974.668224</ele>
        <time>2021-11-15T19:36:31.286Z</time>
      </trkpt>
      <trkpt lat="38.45389" lon="33.93061">
        <ele>973.791311</ele>
        <time>2021-11-15T19:36:43.525Z</time>
      </trkpt>
      <trkpt lat="38.45402" lon="33.93036">
        <ele>973.634488</ele>
        <time>2021-11-15T19:36:48.141Z</time>
      </trkpt>
      <trkpt lat="38.45454" lon="33.92973">
        <ele>973.145286</ele>
        <time>2021-11-15T19:37:03.108Z</time>
      </trkpt>
      <trkpt lat="38.45464" lon="33.92963">
        <ele>973.060396</ele>
        <time>2021-11-15T19:37:05.927Z</time>
      </trkpt>
      <trkpt lat="38.45457" lon="33.92952">
        <ele>972.988183</ele>
        <time>2021-11-15T19:37:08.051Z</time>
      </trkpt>
      <trkpt lat="38.45569" lon="33.92829">
        <ele>972.652234</ele>
        <time>2021-11-15T19:37:40.059Z</time>
      </trkpt>
      <trkpt lat="38.45617" lon="33.9277">
        <ele>972.611579</ele>
        <time>2021-11-15T19:37:56.269Z</time>
      </trkpt>
      <trkpt lat="38.4567" lon="33.92704">
        <ele>972.961853</ele>
        <time>2021-11-15T19:38:16.539Z</time>
      </trkpt>
      <trkpt lat="38.45783" lon="33.9258">
        <ele>973.0041</ele>
        <time>2021-11-15T19:38:53.570Z</time>
      </trkpt>
      <trkpt lat="38.45779" lon="33.92571">
        <ele>972.890558</ele>
        <time>2021-11-15T19:38:55.148Z</time>
      </trkpt>
      <trkpt lat="38.45755" lon="33.9253">
        <ele>972.343668</ele>
        <time>2021-11-15T19:39:03.026Z</time>
      </trkpt>
      <trkpt lat="38.45683" lon="33.92407">
        <ele>970.622787</ele>
        <time>2021-11-15T19:39:24.627Z</time>
      </trkpt>
      <trkpt lat="38.45653" lon="33.92359">
        <ele>969.798263</ele>
        <time>2021-11-15T19:39:33.285Z</time>
      </trkpt>
      <trkpt lat="38.45607" lon="33.92297">
        <ele>968.65752</ele>
        <time>2021-11-15T19:39:45.709Z</time>
      </trkpt>
      <trkpt lat="38.4594" lon="33.91906">
        <ele>966.366736</ele>
        <time>2021-11-15T19:41:21.135Z</time>
      </trkpt>
      <trkpt lat="38.46045" lon="33.91784">
        <ele>965.340838</ele>
        <time>2021-11-15T19:41:49.058Z</time>
      </trkpt>
      <trkpt lat="38.46104" lon="33.91706">
        <ele>964.559522</ele>
        <time>2021-11-15T19:42:05.096Z</time>
      </trkpt>
      <trkpt lat="38.4611" lon="33.91699">
        <ele>964.485829</ele>
        <time>2021-11-15T19:42:06.633Z</time>
      </trkpt>
      <trkpt lat="38.46167" lon="33.91624">
        <ele>963.878606</ele>
        <time>2021-11-15T19:42:22.630Z</time>
      </trkpt>
      <trkpt lat="38.47066" lon="33.90446">
        <ele>968.059154</ele>
        <time>2021-11-15T19:47:26.846Z</time>
      </trkpt>
      <trkpt lat="38.4715" lon="33.90337">
        <ele>968.621494</ele>
        <time>2021-11-15T19:47:56.028Z</time>
      </trkpt>
      <trkpt lat="38.47212" lon="33.90255">
        <ele>968.959725</ele>
        <time>2021-11-15T19:48:17.810Z</time>
      </trkpt>
      <trkpt lat="38.47399" lon="33.9001">
        <ele>969.652234</ele>
        <time>2021-11-15T19:49:19.957Z</time>
      </trkpt>
      <trkpt lat="38.47504" lon="33.89879">
        <ele>969.781937</ele>
        <time>2021-11-15T19:49:52.582Z</time>
      </trkpt>
      <trkpt lat="38.47512" lon="33.89869">
        <ele>969.789707</ele>
        <time>2021-11-15T19:49:55.165Z</time>
      </trkpt>
      <trkpt lat="38.47546" lon="33.8983">
        <ele>969.820642</ele>
        <time>2021-11-15T19:50:05.615Z</time>
      </trkpt>
      <trkpt lat="38.47557" lon="33.89814">
        <ele>969.820706</ele>
        <time>2021-11-15T19:50:09.394Z</time>
      </trkpt>
      <trkpt lat="38.47639" lon="33.89693">
        <ele>969.821181</ele>
        <time>2021-11-15T19:50:37.647Z</time>
      </trkpt>
      <trkpt lat="38.47661" lon="33.89661">
        <ele>969.82131</ele>
        <time>2021-11-15T19:50:45.025Z</time>
      </trkpt>
      <trkpt lat="38.47788" lon="33.89495">
        <ele>969.17267</ele>
        <time>2021-11-15T19:51:22.724Z</time>
      </trkpt>
      <trkpt lat="38.4808" lon="33.89119">
        <ele>968.468265</ele>
        <time>2021-11-15T19:52:52.950Z</time>
      </trkpt>
      <trkpt lat="38.48101" lon="33.8909">
        <ele>968.360051</ele>
        <time>2021-11-15T19:52:59.291Z</time>
      </trkpt>
      <trkpt lat="38.48121" lon="33.89063">
        <ele>968.257949</ele>
        <time>2021-11-15T19:53:05.281Z</time>
      </trkpt>
      <trkpt lat="38.48192" lon="33.88969">
        <ele>967.87347</ele>
        <time>2021-11-15T19:53:26.243Z</time>
      </trkpt>
      <trkpt lat="38.48547" lon="33.88498">
        <ele>965.760477</ele>
        <time>2021-11-15T19:55:12.904Z</time>
      </trkpt>
      <trkpt lat="38.48796" lon="33.88186">
        <ele>963.98324</ele>
        <time>2021-11-15T19:56:24.242Z</time>
      </trkpt>
      <trkpt lat="38.49109" lon="33.87839">
        <ele>963.437365</ele>
        <time>2021-11-15T19:57:53.431Z</time>
      </trkpt>
      <trkpt lat="38.495" lon="33.87417">
        <ele>965.693373</ele>
        <time>2021-11-15T19:59:57.569Z</time>
      </trkpt>
      <trkpt lat="38.49657" lon="33.87252">
        <ele>966.608631</ele>
        <time>2021-11-15T20:00:46.879Z</time>
      </trkpt>
      <trkpt lat="38.49673" lon="33.87233">
        <ele>966.674537</ele>
        <time>2021-11-15T20:00:51.873Z</time>
      </trkpt>
      <trkpt lat="38.49789" lon="33.87097">
        <ele>967.136667</ele>
        <time>2021-11-15T20:01:28.288Z</time>
      </trkpt>
      <trkpt lat="38.50357" lon="33.8648">
        <ele>968.962818</ele>
        <time>2021-11-15T20:04:21.905Z</time>
      </trkpt>
      <trkpt lat="38.50527" lon="33.86296">
        <ele>969.050683</ele>
        <time>2021-11-15T20:05:11.251Z</time>
      </trkpt>
      <trkpt lat="38.50629" lon="33.86186">
        <ele>969.09185</ele>
        <time>2021-11-15T20:05:41.210Z</time>
      </trkpt>
      <trkpt lat="38.50769" lon="33.86033">
        <ele>969.084879</ele>
        <time>2021-11-15T20:06:22.775Z</time>
      </trkpt>
      <trkpt lat="38.51725" lon="33.84991">
        <ele>967.623998</ele>
        <time>2021-11-15T20:10:56.647Z</time>
      </trkpt>
      <trkpt lat="38.51825" lon="33.84882">
        <ele>967.034929</ele>
        <time>2021-11-15T20:11:23.747Z</time>
      </trkpt>
      <trkpt lat="38.51933" lon="33.84763">
        <ele>965.772224</ele>
        <time>2021-11-15T20:11:51.422Z</time>
      </trkpt>
      <trkpt lat="38.52161" lon="33.84513">
        <ele>963.086253</ele>
        <time>2021-11-15T20:12:49.301Z</time>
      </trkpt>
      <trkpt lat="38.52368" lon="33.84292">
        <ele>962.148855</ele>
        <time>2021-11-15T20:13:47.648Z</time>
      </trkpt>
      <trkpt lat="38.52463" lon="33.84195">
        <ele>961.310241</ele>
        <time>2021-11-15T20:14:12.234Z</time>
      </trkpt>
      <trkpt lat="38.52484" lon="33.84174">
        <ele>961.127897</ele>
        <time>2021-11-15T20:14:17.311Z</time>
      </trkpt>
      <trkpt lat="38.52583" lon="33.8406">
        <ele>959.686993</ele>
        <time>2021-11-15T20:14:42.200Z</time>
      </trkpt>
      <trkpt lat="38.53154" lon="33.83431">
        <ele>953.466279</ele>
        <time>2021-11-15T20:17:10.065Z</time>
      </trkpt>
      <trkpt lat="38.53265" lon="33.83309">
        <ele>953.730351</ele>
        <time>2021-11-15T20:17:44.544Z</time>
      </trkpt>
      <trkpt lat="38.5338" lon="33.83183">
        <ele>954.699161</ele>
        <time>2021-11-15T20:18:22.676Z</time>
      </trkpt>
      <trkpt lat="38.53739" lon="33.82911">
        <ele>957.856486</ele>
        <time>2021-11-15T20:20:11.207Z</time>
      </trkpt>
      <trkpt lat="38.54357" lon="33.82449">
        <ele>951.575428</ele>
        <time>2021-11-15T20:22:29.705Z</time>
      </trkpt>
      <trkpt lat="38.54381" lon="33.82444">
        <ele>951.334911</ele>
        <time>2021-11-15T20:22:36.033Z</time>
      </trkpt>
      <trkpt lat="38.54455" lon="33.82389">
        <ele>950.547735</ele>
        <time>2021-11-15T20:22:58.589Z</time>
      </trkpt>
      <trkpt lat="38.54481" lon="33.82355">
        <ele>950.210924</ele>
        <time>2021-11-15T20:23:08.408Z</time>
      </trkpt>
      <trkpt lat="38.55473" lon="33.81601">
        <ele>941.797001</ele>
        <time>2021-11-15T20:26:57.749Z</time>
      </trkpt>
      <trkpt lat="38.56466" lon="33.80853">
        <ele>947.007736</ele>
        <time>2021-11-15T20:31:32.943Z</time>
      </trkpt>
      <trkpt lat="38.57007" lon="33.80436">
        <ele>955.485592</ele>
        <time>2021-11-15T20:34:30.458Z</time>
      </trkpt>
      <trkpt lat="38.57034" lon="33.80416">
        <ele>955.929715</ele>
        <time>2021-11-15T20:34:39.092Z</time>
      </trkpt>
      <trkpt lat="38.57179" lon="33.80314">
        <ele>958.256192</ele>
        <time>2021-11-15T20:35:25.543Z</time>
      </trkpt>
      <trkpt lat="38.57236" lon="33.80274">
        <ele>958.780091</ele>
        <time>2021-11-15T20:35:42.995Z</time>
      </trkpt>
      <trkpt lat="38.57256" lon="33.80256">
        <ele>958.980288</ele>
        <time>2021-11-15T20:35:49.480Z</time>
      </trkpt>
      <trkpt lat="38.57284" lon="33.8023">
        <ele>959.256724</ele>
        <time>2021-11-15T20:35:58.110Z</time>
      </trkpt>
      <trkpt lat="38.57363" lon="33.80158">
        <ele>959.433503</ele>
        <time>2021-11-15T20:36:20.797Z</time>
      </trkpt>
      <trkpt lat="38.57428" lon="33.80096">
        <ele>959.116805</ele>
        <time>2021-11-15T20:36:37.296Z</time>
      </trkpt>
      <trkpt lat="38.58237" lon="33.79304">
        <ele>950.037814</ele>
        <time>2021-11-15T20:39:55.328Z</time>
      </trkpt>
      <trkpt lat="38.58242" lon="33.79299">
        <ele>949.99205</ele>
        <time>2021-11-15T20:39:56.518Z</time>
      </trkpt>
      <trkpt lat="38.58252" lon="33.7929">
        <ele>949.902334</ele>
        <time>2021-11-15T20:39:58.897Z</time>
      </trkpt>
      <trkpt lat="38.58972" lon="33.78562">
        <ele>943.190062</ele>
        <time>2021-11-15T20:43:02.295Z</time>
      </trkpt>
      <trkpt lat="38.6016" lon="33.77381">
        <ele>932.119455</ele>
        <time>2021-11-15T20:48:02.033Z</time>
      </trkpt>
      <trkpt lat="38.60464" lon="33.7707">
        <ele>928.132952</ele>
        <time>2021-11-15T20:49:16.629Z</time>
      </trkpt>
      <trkpt lat="38.61503" lon="33.76037">
        <ele>915.875576</ele>
        <time>2021-11-15T20:53:31.885Z</time>
      </trkpt>
      <trkpt lat="38.61646" lon="33.7591">
        <ele>915.423671</ele>
        <time>2021-11-15T20:54:09.548Z</time>
      </trkpt>
      <trkpt lat="38.61685" lon="33.75876">
        <ele>915.448686</ele>
        <time>2021-11-15T20:54:20.426Z</time>
      </trkpt>
      <trkpt lat="38.61702" lon="33.75856">
        <ele>915.460831</ele>
        <time>2021-11-15T20:54:25.807Z</time>
      </trkpt>
      <trkpt lat="38.61744" lon="33.7581">
        <ele>915.545267</ele>
        <time>2021-11-15T20:54:38.600Z</time>
      </trkpt>
      <trkpt lat="38.61851" lon="33.75691">
        <ele>916.026755</ele>
        <time>2021-11-15T20:55:12.032Z</time>
      </trkpt>
      <trkpt lat="38.64052" lon="33.73496">
        <ele>927.92231</ele>
        <time>2021-11-15T21:06:20.047Z</time>
      </trkpt>
      <trkpt lat="38.64216" lon="33.7333">
        <ele>928.478703</ele>
        <time>2021-11-15T21:07:10.880Z</time>
      </trkpt>
      <trkpt lat="38.64226" lon="33.7332">
        <ele>928.487461</ele>
        <time>2021-11-15T21:07:13.757Z</time>
      </trkpt>
      <trkpt lat="38.65129" lon="33.72404">
        <ele>922.634455</ele>
        <time>2021-11-15T21:11:08.219Z</time>
      </trkpt>
      <trkpt lat="38.6589" lon="33.71801">
        <ele>922.3438</ele>
        <time>2021-11-15T21:14:25.847Z</time>
      </trkpt>
      <trkpt lat="38.66243" lon="33.71521">
        <ele>925.923597</ele>
        <time>2021-11-15T21:16:14.265Z</time>
      </trkpt>
      <trkpt lat="38.6627" lon="33.71499">
        <ele>926.143011</ele>
        <time>2021-11-15T21:16:22.243Z</time>
      </trkpt>
      <trkpt lat="38.6628" lon="33.71492">
        <ele>926.218639</ele>
        <time>2021-11-15T21:16:24.984Z</time>
      </trkpt>
      <trkpt lat="38.66285" lon="33.71487">
        <ele>926.262634</ele>
        <time>2021-11-15T21:16:26.529Z</time>
      </trkpt>
      <trkpt lat="38.66314" lon="33.71464">
        <ele>926.493818</ele>
        <time>2021-11-15T21:16:34.819Z</time>
      </trkpt>
      <trkpt lat="38.67124" lon="33.70788">
        <ele>930.611773</ele>
        <time>2021-11-15T21:20:26.347Z</time>
      </trkpt>
      <trkpt lat="38.6749" lon="33.70496">
        <ele>931.429047</ele>
        <time>2021-11-15T21:22:05.449Z</time>
      </trkpt>
      <trkpt lat="38.69177" lon="33.69139">
        <ele>931.817536</ele>
        <time>2021-11-15T21:29:30.352Z</time>
      </trkpt>
      <trkpt lat="38.70051" lon="33.6842">
        <ele>928.529513</ele>
        <time>2021-11-15T21:33:06.721Z</time>
      </trkpt>
      <trkpt lat="38.70271" lon="33.68252">
        <ele>931.223892</ele>
        <time>2021-11-15T21:34:16.691Z</time>
      </trkpt>
      <trkpt lat="38.70511" lon="33.68111">
        <ele>935.21225</ele>
        <time>2021-11-15T21:35:35.687Z</time>
      </trkpt>
      <trkpt lat="38.73858" lon="33.66603">
        <ele>950.374209</ele>
        <time>2021-11-15T21:49:42.159Z</time>
      </trkpt>
      <trkpt lat="38.73982" lon="33.66559">
        <ele>950.251728</ele>
        <time>2021-11-15T21:50:10.374Z</time>
      </trkpt>
      <trkpt lat="38.74001" lon="33.66548">
        <ele>950.231397</ele>
        <time>2021-11-15T21:50:14.788Z</time>
      </trkpt>
      <trkpt lat="38.74107" lon="33.66493">
        <ele>949.762009</ele>
        <time>2021-11-15T21:50:38.491Z</time>
      </trkpt>
      <trkpt lat="38.74157" lon="33.66472">
        <ele>949.497215</ele>
        <time>2021-11-15T21:50:49.313Z</time>
      </trkpt>
      <trkpt lat="38.74236" lon="33.66437">
        <ele>948.836974</ele>
        <time>2021-11-15T21:51:06.187Z</time>
      </trkpt>
      <trkpt lat="38.76527" lon="33.6541">
        <ele>923.651295</ele>
        <time>2021-11-15T21:58:52.560Z</time>
      </trkpt>
      <trkpt lat="38.76743" lon="33.65309">
        <ele>920.664648</ele>
        <time>2021-11-15T21:59:34.991Z</time>
      </trkpt>
      <trkpt lat="38.7692" lon="33.65182">
        <ele>919.536195</ele>
        <time>2021-11-15T22:00:14.964Z</time>
      </trkpt>
      <trkpt lat="38.77554" lon="33.64517">
        <ele>926.170315</ele>
        <time>2021-11-15T22:03:47.210Z</time>
      </trkpt>
      <trkpt lat="38.78401" lon="33.6363">
        <ele>929.516592</ele>
        <time>2021-11-15T22:08:04.940Z</time>
      </trkpt>
      <trkpt lat="38.79278" lon="33.6271">
        <ele>915.963923</ele>
        <time>2021-11-15T22:11:37.041Z</time>
      </trkpt>
      <trkpt lat="38.81152" lon="33.60754">
        <ele>921.414771</ele>
        <time>2021-11-15T22:20:55.074Z</time>
      </trkpt>
      <trkpt lat="38.81395" lon="33.6057">
        <ele>925.110612</ele>
        <time>2021-11-15T22:22:18.154Z</time>
      </trkpt>
      <trkpt lat="38.81928" lon="33.60218">
        <ele>923.224983</ele>
        <time>2021-11-15T22:24:21.324Z</time>
      </trkpt>
      <trkpt lat="38.83346" lon="33.59303">
        <ele>924.230861</ele>
        <time>2021-11-15T22:30:19.921Z</time>
      </trkpt>
      <trkpt lat="38.83489" lon="33.59222">
        <ele>924.421294</ele>
        <time>2021-11-15T22:30:55.830Z</time>
      </trkpt>
      <trkpt lat="38.83667" lon="33.59144">
        <ele>924.246124</ele>
        <time>2021-11-15T22:31:37.346Z</time>
      </trkpt>
      <trkpt lat="38.83893" lon="33.59086">
        <ele>923.158326</ele>
        <time>2021-11-15T22:32:24.519Z</time>
      </trkpt>
      <trkpt lat="38.84015" lon="33.5907">
        <ele>922.50102</ele>
        <time>2021-11-15T22:32:49.243Z</time>
      </trkpt>
      <trkpt lat="38.85138" lon="33.58983">
        <ele>918.758995</ele>
        <time>2021-11-15T22:36:45.177Z</time>
      </trkpt>
      <trkpt lat="38.86423" lon="33.58885">
        <ele>920.682727</ele>
        <time>2021-11-15T22:41:41.254Z</time>
      </trkpt>
      <trkpt lat="38.86424" lon="33.58866">
        <ele>920.677651</ele>
        <time>2021-11-15T22:41:44.552Z</time>
      </trkpt>
      <trkpt lat="38.85139" lon="33.58962">
        <ele>918.12958</ele>
        <time>2021-11-15T22:46:20.149Z</time>
      </trkpt>
      <trkpt lat="38.84247" lon="33.5903">
        <ele>919.528611</ele>
        <time>2021-11-15T22:49:43.811Z</time>
      </trkpt>
      <trkpt lat="38.83934" lon="33.59062">
        <ele>922.224532</ele>
        <time>2021-11-15T22:51:05.967Z</time>
      </trkpt>
      <trkpt lat="38.83838" lon="33.59079">
        <ele>923.080005</ele>
        <time>2021-11-15T22:51:30.964Z</time>
      </trkpt>
      <trkpt lat="38.83636" lon="33.59138">
        <ele>923.928237</ele>
        <time>2021-11-15T22:52:20.990Z</time>
      </trkpt>
      <trkpt lat="38.83376" lon="33.59258">
        <ele>923.955528</ele>
        <time>2021-11-15T22:53:21.343Z</time>
      </trkpt>
      <trkpt lat="38.81391" lon="33.60548">
        <ele>924.840974</ele>
        <time>2021-11-15T23:01:42.318Z</time>
      </trkpt>
      <trkpt lat="38.81143" lon="33.60738">
        <ele>920.541879</ele>
        <time>2021-11-15T23:02:33.422Z</time>
      </trkpt>
      <trkpt lat="38.771" lon="33.64967">
        <ele>914.173048</ele>
        <time>2021-11-15T23:21:30.103Z</time>
      </trkpt>
      <trkpt lat="38.76901" lon="33.65157">
        <ele>916.440073</ele>
        <time>2021-11-15T23:22:35.840Z</time>
      </trkpt>
      <trkpt lat="38.76755" lon="33.65265">
        <ele>918.935356</ele>
        <time>2021-11-15T23:23:23.364Z</time>
      </trkpt>
      <trkpt lat="38.76735" lon="33.6528">
        <ele>919.334354</ele>
        <time>2021-11-15T23:23:30.176Z</time>
      </trkpt>
      <trkpt lat="38.76525" lon="33.65392">
        <ele>923.293568</ele>
        <time>2021-11-15T23:24:36.699Z</time>
      </trkpt>
      <trkpt lat="38.759" lon="33.65671">
        <ele>935.154358</ele>
        <time>2021-11-15T23:27:52.962Z</time>
      </trkpt>
      <trkpt lat="38.74104" lon="33.66475">
        <ele>948.842549</ele>
        <time>2021-11-15T23:35:49.458Z</time>
      </trkpt>
      <trkpt lat="38.73987" lon="33.66518">
        <ele>949.408362</ele>
        <time>2021-11-15T23:36:19.303Z</time>
      </trkpt>
      <trkpt lat="38.73978" lon="33.66521">
        <ele>949.433636</ele>
        <time>2021-11-15T23:36:21.549Z</time>
      </trkpt>
      <trkpt lat="38.73973" lon="33.66533">
        <ele>949.461363</ele>
        <time>2021-11-15T23:36:24.035Z</time>
      </trkpt>
      <trkpt lat="38.73974" lon="33.66545">
        <ele>949.486517</ele>
        <time>2021-11-15T23:36:26.027Z</time>
      </trkpt>
      <trkpt lat="38.73982" lon="33.66559">
        <ele>949.52225</ele>
        <time>2021-11-15T23:36:29.259Z</time>
      </trkpt>
      <trkpt lat="38.74001" lon="33.66548">
        <ele>949.579773</ele>
        <time>2021-11-15T23:36:33.951Z</time>
      </trkpt>
      <trkpt lat="38.74107" lon="33.66493">
        <ele>949.524405</ele>
        <time>2021-11-15T23:36:59.540Z</time>
      </trkpt>
      <trkpt lat="38.74157" lon="33.66472">
        <ele>949.329374</ele>
        <time>2021-11-15T23:37:10.519Z</time>
      </trkpt>
      <trkpt lat="38.74236" lon="33.66437">
        <ele>948.935239</ele>
        <time>2021-11-15T23:37:27.393Z</time>
      </trkpt>
      <trkpt lat="38.76527" lon="33.6541">
        <ele>923.625331</ele>
        <time>2021-11-15T23:45:13.766Z</time>
      </trkpt>
      <trkpt lat="38.76743" lon="33.65309">
        <ele>920.708996</ele>
        <time>2021-11-15T23:45:56.197Z</time>
      </trkpt>
      <trkpt lat="38.7692" lon="33.65182">
        <ele>919.315242</ele>
        <time>2021-11-15T23:46:36.170Z</time>
      </trkpt>
      <trkpt lat="38.77554" lon="33.64517">
        <ele>926.141105</ele>
        <time>2021-11-15T23:50:08.416Z</time>
      </trkpt>
      <trkpt lat="38.78401" lon="33.6363">
        <ele>929.3914</ele>
        <time>2021-11-15T23:54:26.146Z</time>
      </trkpt>
      <trkpt lat="38.79278" lon="33.6271">
        <ele>915.933666</ele>
        <time>2021-11-15T23:57:58.247Z</time>
      </trkpt>
      <trkpt lat="38.81152" lon="33.60754">
        <ele>921.365063</ele>
        <time>2021-11-16T00:07:16.280Z</time>
      </trkpt>
      <trkpt lat="38.81395" lon="33.6057">
        <ele>925.137939</ele>
        <time>2021-11-16T00:08:39.360Z</time>
      </trkpt>
      <trkpt lat="38.81928" lon="33.60218">
        <ele>923.07941</ele>
        <time>2021-11-16T00:10:42.530Z</time>
      </trkpt>
      <trkpt lat="38.83346" lon="33.59303">
        <ele>924.223159</ele>
        <time>2021-11-16T00:16:41.127Z</time>
      </trkpt>
      <trkpt lat="38.83489" lon="33.59222">
        <ele>924.435468</ele>
        <time>2021-11-16T00:17:17.036Z</time>
      </trkpt>
      <trkpt lat="38.83667" lon="33.59144">
        <ele>924.2867</ele>
        <time>2021-11-16T00:17:58.552Z</time>
      </trkpt>
      <trkpt lat="38.83893" lon="33.59086">
        <ele>923.171271</ele>
        <time>2021-11-16T00:18:45.725Z</time>
      </trkpt>
      <trkpt lat="38.84015" lon="33.5907">
        <ele>922.474317</ele>
        <time>2021-11-16T00:19:10.449Z</time>
      </trkpt>
      <trkpt lat="38.85138" lon="33.58983">
        <ele>918.633072</ele>
        <time>2021-11-16T00:23:06.382Z</time>
      </trkpt>
      <trkpt lat="38.86423" lon="33.58885">
        <ele>920.815829</ele>
        <time>2021-11-16T00:28:03.163Z</time>
      </trkpt>
      <trkpt lat="38.89105" lon="33.58692">
        <ele>918.691464</ele>
        <time>2021-11-16T00:37:50.977Z</time>
      </trkpt>
      <trkpt lat="38.89265" lon="33.58673">
        <ele>918.90756</ele>
        <time>2021-11-16T00:38:27.660Z</time>
      </trkpt>
      <trkpt lat="38.89368" lon="33.58653">
        <ele>919.308467</ele>
        <time>2021-11-16T00:38:52.574Z</time>
      </trkpt>
      <trkpt lat="38.89444" lon="33.58632">
        <ele>919.639797</ele>
        <time>2021-11-16T00:39:11.774Z</time>
      </trkpt>
      <trkpt lat="38.89689" lon="33.58537">
        <ele>920.515683</ele>
        <time>2021-11-16T00:40:13.034Z</time>
      </trkpt>
      <trkpt lat="38.89851" lon="33.58442">
        <ele>920.370065</ele>
        <time>2021-11-16T00:40:51.099Z</time>
      </trkpt>
      <trkpt lat="38.89968" lon="33.58353">
        <ele>920.147579</ele>
        <time>2021-11-16T00:41:20.132Z</time>
      </trkpt>
      <trkpt lat="38.90047" lon="33.58286">
        <ele>920.078376</ele>
        <time>2021-11-16T00:41:41.130Z</time>
      </trkpt>
      <trkpt lat="38.9013" lon="33.58201">
        <ele>920.249026</ele>
        <time>2021-11-16T00:42:05.439Z</time>
      </trkpt>
      <trkpt lat="38.90213" lon="33.58116">
        <ele>920.479119</ele>
        <time>2021-11-16T00:42:30.286Z</time>
      </trkpt>
      <trkpt lat="38.91009" lon="33.57134">
        <ele>922.800379</ele>
        <time>2021-11-16T00:46:44.880Z</time>
      </trkpt>
      <trkpt lat="38.9109" lon="33.57034">
        <ele>923.043067</ele>
        <time>2021-11-16T00:47:10.516Z</time>
      </trkpt>
      <trkpt lat="38.91619" lon="33.56376">
        <ele>925.332008</ele>
        <time>2021-11-16T00:50:03.605Z</time>
      </trkpt>
      <trkpt lat="38.9171" lon="33.56281">
        <ele>925.809194</ele>
        <time>2021-11-16T00:50:31.668Z</time>
      </trkpt>
      <trkpt lat="38.91849" lon="33.5608">
        <ele>926.736606</ele>
        <time>2021-11-16T00:51:21.677Z</time>
      </trkpt>
      <trkpt lat="38.92225" lon="33.55628">
        <ele>928.86319</ele>
        <time>2021-11-16T00:53:27.128Z</time>
      </trkpt>
      <trkpt lat="38.92229" lon="33.55625">
        <ele>928.864335</ele>
        <time>2021-11-16T00:53:28.163Z</time>
      </trkpt>
      <trkpt lat="38.92233" lon="33.55621">
        <ele>928.865453</ele>
        <time>2021-11-16T00:53:29.158Z</time>
      </trkpt>
      <trkpt lat="38.92236" lon="33.55616">
        <ele>928.866586</ele>
        <time>2021-11-16T00:53:30.151Z</time>
      </trkpt>
      <trkpt lat="38.92237" lon="33.5561">
        <ele>928.867725</ele>
        <time>2021-11-16T00:53:31.135Z</time>
      </trkpt>
      <trkpt lat="38.92236" lon="33.55604">
        <ele>928.868867</ele>
        <time>2021-11-16T00:53:32.061Z</time>
      </trkpt>
      <trkpt lat="38.9223" lon="33.55594">
        <ele>928.87112</ele>
        <time>2021-11-16T00:53:33.956Z</time>
      </trkpt>
      <trkpt lat="38.92221" lon="33.5559">
        <ele>928.873357</ele>
        <time>2021-11-16T00:53:35.862Z</time>
      </trkpt>
      <trkpt lat="38.92216" lon="33.55591">
        <ele>928.87451</ele>
        <time>2021-11-16T00:53:36.799Z</time>
      </trkpt>
      <trkpt lat="38.92212" lon="33.55595">
        <ele>928.875686</ele>
        <time>2021-11-16T00:53:37.788Z</time>
      </trkpt>
      <trkpt lat="38.92151" lon="33.55525">
        <ele>928.587894</ele>
        <time>2021-11-16T00:53:54.493Z</time>
      </trkpt>
      <trkpt lat="38.92143" lon="33.55491">
        <ele>928.457413</ele>
        <time>2021-11-16T00:54:00.217Z</time>
      </trkpt>
      <trkpt lat="38.92135" lon="33.55446">
        <ele>928.287084</ele>
        <time>2021-11-16T00:54:07.789Z</time>
      </trkpt>
      <trkpt lat="38.92093" lon="33.55301">
        <ele>928.489176</ele>
        <time>2021-11-16T00:54:36.627Z</time>
      </trkpt>
      <trkpt lat="38.92184" lon="33.55266">
        <ele>929.142671</ele>
        <time>2021-11-16T00:55:02.640Z</time>
      </trkpt>
      <trkpt lat="38.92178" lon="33.5526">
        <ele>929.194463</ele>
        <time>2021-11-16T00:55:04.765Z</time>
      </trkpt>
      <trkpt lat="38.92191" lon="33.55138">
        <ele>929.501017</ele>
        <time>2021-11-16T00:55:29.710Z</time>
      </trkpt>
      <trkpt lat="38.922" lon="33.5506">
        <ele>929.664874</ele>
        <time>2021-11-16T00:55:43.917Z</time>
      </trkpt>
      <trkpt lat="38.92212" lon="33.54984">
        <ele>929.697268</ele>
        <time>2021-11-16T00:55:56.981Z</time>
      </trkpt>
      <trkpt lat="38.92238" lon="33.54835">
        <ele>929.421173</ele>
        <time>2021-11-16T00:56:23.203Z</time>
      </trkpt>
      <trkpt lat="38.92273" lon="33.5473">
        <ele>929.42076</ele>
        <time>2021-11-16T00:56:43.721Z</time>
      </trkpt>
      <trkpt lat="38.92306" lon="33.54623">
        <ele>929.555815</ele>
        <time>2021-11-16T00:57:05.531Z</time>
      </trkpt>
      <trkpt lat="38.92317" lon="33.54594">
        <ele>929.593397</ele>
        <time>2021-11-16T00:57:11.570Z</time>
      </trkpt>
      <trkpt lat="38.92348" lon="33.54513">
        <ele>929.780904</ele>
        <time>2021-11-16T00:57:28.191Z</time>
      </trkpt>
      <trkpt lat="38.92363" lon="33.5448">
        <ele>929.865781</ele>
        <time>2021-11-16T00:57:34.977Z</time>
      </trkpt>
      <trkpt lat="38.92375" lon="33.54447">
        <ele>929.948766</ele>
        <time>2021-11-16T00:57:41.647Z</time>
      </trkpt>
      <trkpt lat="38.92394" lon="33.54394">
        <ele>930.080776</ele>
        <time>2021-11-16T00:57:52.993Z</time>
      </trkpt>
      <trkpt lat="38.92408" lon="33.54356">
        <ele>930.242475</ele>
        <time>2021-11-16T00:58:01.497Z</time>
      </trkpt>
      <trkpt lat="38.92412" lon="33.54345">
        <ele>930.314444</ele>
        <time>2021-11-16T00:58:04.117Z</time>
      </trkpt>
      <trkpt lat="38.92433" lon="33.54286">
        <ele>930.698706</ele>
        <time>2021-11-16T00:58:17.581Z</time>
      </trkpt>
      <trkpt lat="38.92452" lon="33.54234">
        <ele>931.033281</ele>
        <time>2021-11-16T00:58:29.324Z</time>
      </trkpt>
      <trkpt lat="38.92473" lon="33.54176">
        <ele>931.410838</ele>
        <time>2021-11-16T00:58:42.597Z</time>
      </trkpt>
      <trkpt lat="38.92476" lon="33.54177">
        <ele>931.437213</ele>
        <time>2021-11-16T00:58:43.448Z</time>
      </trkpt>
      <trkpt lat="38.9258" lon="33.53964">
        <ele>932.416609</ele>
        <time>2021-11-16T00:59:32.866Z</time>
      </trkpt>
      <trkpt lat="38.92533" lon="33.53921">
        <ele>932.567391</ele>
        <time>2021-11-16T00:59:46.540Z</time>
      </trkpt>
      <trkpt lat="38.92447" lon="33.53851">
        <ele>932.835166</ele>
        <time>2021-11-16T01:00:10.983Z</time>
      </trkpt>
      <trkpt lat="38.92458" lon="33.53828">
        <ele>932.893807</ele>
        <time>2021-11-16T01:00:16.000Z</time>
      </trkpt>
      <trkpt lat="38.92491" lon="33.53793">
        <ele>933.016069</ele>
        <time>2021-11-16T01:00:26.208Z</time>
      </trkpt>
      <trkpt lat="38.9251" lon="33.5378">
        <ele>933.077009</ele>
        <time>2021-11-16T01:00:31.178Z</time>
      </trkpt>
      <trkpt lat="38.92506" lon="33.53771">
        <ele>933.101093</ele>
        <time>2021-11-16T01:00:33.236Z</time>
      </trkpt>
      <trkpt lat="38.92556" lon="33.53664">
        <ele>933.377865</ele>
        <time>2021-11-16T01:00:56.786Z</time>
      </trkpt>
      <trkpt lat="38.92587" lon="33.53612">
        <ele>933.541859</ele>
        <time>2021-11-16T01:01:08.924Z</time>
      </trkpt>
      <trkpt lat="38.92561" lon="33.53585">
        <ele>933.649814</ele>
        <time>2021-11-16T01:01:17.157Z</time>
      </trkpt>
      <trkpt lat="38.92607" lon="33.53497">
        <ele>933.912253</ele>
        <time>2021-11-16T01:01:37.294Z</time>
      </trkpt>
      <trkpt lat="38.92625" lon="33.53507">
        <ele>933.986434</ele>
        <time>2021-11-16T01:01:41.784Z</time>
      </trkpt>
      <trkpt lat="38.92677" lon="33.5342">
        <ele>934.451498</ele>
        <time>2021-11-16T01:02:03.495Z</time>
      </trkpt>
      <trkpt lat="38.927" lon="33.53385">
        <ele>934.64317</ele>
        <time>2021-11-16T01:02:12.432Z</time>
      </trkpt>
      <trkpt lat="38.92755" lon="33.53293">
        <ele>935.089404</ele>
        <time>2021-11-16T01:02:35.739Z</time>
      </trkpt>
      <trkpt lat="38.92771" lon="33.53259">
        <ele>935.22003</ele>
        <time>2021-11-16T01:02:43.403Z</time>
      </trkpt>
      <trkpt lat="38.92815" lon="33.53103">
        <ele>935.735673</ele>
        <time>2021-11-16T01:03:15.384Z</time>
      </trkpt>
      <trkpt lat="38.92837" lon="33.53011">
        <ele>935.907027</ele>
        <time>2021-11-16T01:03:33.092Z</time>
      </trkpt>
      <trkpt lat="38.92844" lon="33.52983">
        <ele>935.959032</ele>
        <time>2021-11-16T01:03:38.474Z</time>
      </trkpt>
      <trkpt lat="38.92854" lon="33.52942">
        <ele>936.036801</ele>
        <time>2021-11-16T01:03:46.618Z</time>
      </trkpt>
      <trkpt lat="38.92864" lon="33.52927">
        <ele>936.072689</ele>
        <time>2021-11-16T01:03:50.423Z</time>
      </trkpt>
      <trkpt lat="38.92892" lon="33.52889">
        <ele>936.190457</ele>
        <time>2021-11-16T01:04:00.278Z</time>
      </trkpt>
      <trkpt lat="38.92936" lon="33.52843">
        <ele>936.380908</ele>
        <time>2021-11-16T01:04:14.087Z</time>
      </trkpt>
      <trkpt lat="38.92953" lon="33.5283">
        <ele>936.446534</ele>
        <time>2021-11-16T01:04:18.798Z</time>
      </trkpt>
      <trkpt lat="38.93121" lon="33.52681">
        <ele>937.21692</ele>
        <time>2021-11-16T01:05:09.305Z</time>
      </trkpt>
      <trkpt lat="38.93252" lon="33.52562">
        <ele>937.846</ele>
        <time>2021-11-16T01:05:49.495Z</time>
      </trkpt>
      <trkpt lat="38.93386" lon="33.52446">
        <ele>938.183489</ele>
        <time>2021-11-16T01:06:28.615Z</time>
      </trkpt>
      <trkpt lat="38.93441" lon="33.52405">
        <ele>938.225527</ele>
        <time>2021-11-16T01:06:43.037Z</time>
      </trkpt>
      <trkpt lat="38.93437" lon="33.52398">
        <ele>938.229694</ele>
        <time>2021-11-16T01:06:44.398Z</time>
      </trkpt>
      <trkpt lat="38.93489" lon="33.5237">
        <ele>938.209711</ele>
        <time>2021-11-16T01:06:56.828Z</time>
      </trkpt>
      <trkpt lat="38.93506" lon="33.52364">
        <ele>938.191105</ele>
        <time>2021-11-16T01:07:00.916Z</time>
      </trkpt>
      <trkpt lat="38.93544" lon="33.52342">
        <ele>938.148693</ele>
        <time>2021-11-16T01:07:10.460Z</time>
      </trkpt>
      <trkpt lat="38.93554" lon="33.52339">
        <ele>938.13878</ele>
        <time>2021-11-16T01:07:12.801Z</time>
      </trkpt>
      <trkpt lat="38.93596" lon="33.52326">
        <ele>938.094505</ele>
        <time>2021-11-16T01:07:23.365Z</time>
      </trkpt>
      <trkpt lat="38.93659" lon="33.5232">
        <ele>937.952501</ele>
        <time>2021-11-16T01:07:37.298Z</time>
      </trkpt>
      <trkpt lat="38.9367" lon="33.52322">
        <ele>937.91009</ele>
        <time>2021-11-16T01:07:39.843Z</time>
      </trkpt>
      <trkpt lat="38.93676" lon="33.52364">
        <ele>937.789312</ele>
        <time>2021-11-16T01:07:47.162Z</time>
      </trkpt>
      <trkpt lat="38.93686" lon="33.52385">
        <ele>937.722178</ele>
        <time>2021-11-16T01:07:51.439Z</time>
      </trkpt>
      <trkpt lat="38.93691" lon="33.52303">
        <ele>937.492586</ele>
        <time>2021-11-16T01:08:04.678Z</time>
      </trkpt>
      <trkpt lat="38.93692" lon="33.52288">
        <ele>937.44967</ele>
        <time>2021-11-16T01:08:07.123Z</time>
      </trkpt>
      <trkpt lat="38.93714" lon="33.52086">
        <ele>936.320792</ele>
        <time>2021-11-16T01:08:38.255Z</time>
      </trkpt>
      <trkpt lat="38.94807" lon="33.45886">
        <ele>912.828016</ele>
        <time>2021-11-16T01:25:37.196Z</time>
      </trkpt>
      <trkpt lat="38.95038" lon="33.44571">
        <ele>911.871313</ele>
        <time>2021-11-16T01:29:27.805Z</time>
      </trkpt>
      <trkpt lat="38.95173" lon="33.43807">
        <ele>911.059563</ele>
        <time>2021-11-16T01:31:39.920Z</time>
      </trkpt>
      <trkpt lat="38.95312" lon="33.4297">
        <ele>910.905568</ele>
        <time>2021-11-16T01:34:07.326Z</time>
      </trkpt>
      <trkpt lat="38.95249" lon="33.42676">
        <ele>910.817211</ele>
        <time>2021-11-16T01:35:00.107Z</time>
      </trkpt>
      <trkpt lat="38.95245" lon="33.42662">
        <ele>910.807565</ele>
        <time>2021-11-16T01:35:02.650Z</time>
      </trkpt>
      <trkpt lat="38.95254" lon="33.42619">
        <ele>910.778379</ele>
        <time>2021-11-16T01:35:10.211Z</time>
      </trkpt>
      <trkpt lat="38.95512" lon="33.41957">
        <ele>908.702728</ele>
        <time>2021-11-16T01:37:11.256Z</time>
      </trkpt>
      <trkpt lat="38.9553" lon="33.41865">
        <ele>907.912165</ele>
        <time>2021-11-16T01:37:25.294Z</time>
      </trkpt>
      <trkpt lat="38.95558" lon="33.41717">
        <ele>906.711831</ele>
        <time>2021-11-16T01:37:48.597Z</time>
      </trkpt>
      <trkpt lat="38.95616" lon="33.4139">
        <ele>905.375906</ele>
        <time>2021-11-16T01:38:44.300Z</time>
      </trkpt>
      <trkpt lat="38.95626" lon="33.41343">
        <ele>905.256661</ele>
        <time>2021-11-16T01:38:52.880Z</time>
      </trkpt>
      <trkpt lat="38.95893" lon="33.39853">
        <ele>905.004953</ele>
        <time>2021-11-16T01:43:27.819Z</time>
      </trkpt>
      <trkpt lat="38.96099" lon="33.38748">
        <ele>905.000024</ele>
        <time>2021-11-16T01:46:52.503Z</time>
      </trkpt>
      <trkpt lat="38.96561" lon="33.36269">
        <ele>905.010161</ele>
        <time>2021-11-16T01:54:31.847Z</time>
      </trkpt>
      <trkpt lat="38.96585" lon="33.3618">
        <ele>905.024752</ele>
        <time>2021-11-16T01:54:48.672Z</time>
      </trkpt>
      <trkpt lat="38.96652" lon="33.35986">
        <ele>905.195431</ele>
        <time>2021-11-16T01:55:27.473Z</time>
      </trkpt>
      <trkpt lat="38.97004" lon="33.34869">
        <ele>907.70625</ele>
        <time>2021-11-16T01:59:14.599Z</time>
      </trkpt>
      <trkpt lat="38.97218" lon="33.3423">
        <ele>909.416267</ele>
        <time>2021-11-16T02:01:26.669Z</time>
      </trkpt>
      <trkpt lat="38.97305" lon="33.33948">
        <ele>911.065627</ele>
        <time>2021-11-16T02:02:27.196Z</time>
      </trkpt>
      <trkpt lat="38.97411" lon="33.33697">
        <ele>914.642189</ele>
        <time>2021-11-16T02:03:31.964Z</time>
      </trkpt>
      <trkpt lat="38.97574" lon="33.3329">
        <ele>924.3018</ele>
        <time>2021-11-16T02:05:33.568Z</time>
      </trkpt>
      <trkpt lat="38.97606" lon="33.33232">
        <ele>926.151748</ele>
        <time>2021-11-16T02:05:54.408Z</time>
      </trkpt>
      <trkpt lat="38.97654" lon="33.33182">
        <ele>928.238849</ele>
        <time>2021-11-16T02:06:18.486Z</time>
      </trkpt>
      <trkpt lat="38.97741" lon="33.33115">
        <ele>931.174674</ele>
        <time>2021-11-16T02:06:56.294Z</time>
      </trkpt>
      <trkpt lat="38.97754" lon="33.33101">
        <ele>931.672416</ele>
        <time>2021-11-16T02:07:02.506Z</time>
      </trkpt>
      <trkpt lat="38.9788" lon="33.32779">
        <ele>936.622248</ele>
        <time>2021-11-16T02:08:25.557Z</time>
      </trkpt>
      <trkpt lat="38.97946" lon="33.32655">
        <ele>937.390694</ele>
        <time>2021-11-16T02:08:53.825Z</time>
      </trkpt>
      <trkpt lat="38.9812" lon="33.32255">
        <ele>939.030925</ele>
        <time>2021-11-16T02:10:23.627Z</time>
      </trkpt>
      <trkpt lat="38.98152" lon="33.322">
        <ele>938.977972</ele>
        <time>2021-11-16T02:10:36.363Z</time>
      </trkpt>
      <trkpt lat="38.9816" lon="33.32177">
        <ele>938.850951</ele>
        <time>2021-11-16T02:10:40.807Z</time>
      </trkpt>
      <trkpt lat="38.98154" lon="33.32089">
        <ele>938.401915</ele>
        <time>2021-11-16T02:10:55.689Z</time>
      </trkpt>
      <trkpt lat="38.98157" lon="33.32057">
        <ele>938.238168</ele>
        <time>2021-11-16T02:11:00.865Z</time>
      </trkpt>
      <trkpt lat="38.98291" lon="33.31791">
        <ele>934.532979</ele>
        <time>2021-11-16T02:11:47.680Z</time>
      </trkpt>
      <trkpt lat="38.98311" lon="33.31744">
        <ele>933.670618</ele>
        <time>2021-11-16T02:11:55.357Z</time>
      </trkpt>
      <trkpt lat="38.98332" lon="33.31676">
        <ele>932.514303</ele>
        <time>2021-11-16T02:12:05.575Z</time>
      </trkpt>
      <trkpt lat="38.98355" lon="33.31638">
        <ele>931.740016</ele>
        <time>2021-11-16T02:12:12.408Z</time>
      </trkpt>
      <trkpt lat="38.9842" lon="33.31554">
        <ele>930.27816</ele>
        <time>2021-11-16T02:12:29.304Z</time>
      </trkpt>
      <trkpt lat="38.98434" lon="33.31523">
        <ele>929.8704</ele>
        <time>2021-11-16T02:12:34.574Z</time>
      </trkpt>
      <trkpt lat="38.98457" lon="33.31443">
        <ele>928.897416</ele>
        <time>2021-11-16T02:12:47.772Z</time>
      </trkpt>
      <trkpt lat="38.98468" lon="33.3143">
        <ele>928.717375</ele>
        <time>2021-11-16T02:12:50.978Z</time>
      </trkpt>
      <trkpt lat="38.98514" lon="33.3141">
        <ele>928.76653</ele>
        <time>2021-11-16T02:13:01.508Z</time>
      </trkpt>
      <trkpt lat="38.98555" lon="33.31374">
        <ele>928.817338</ele>
        <time>2021-11-16T02:13:13.226Z</time>
      </trkpt>
      <trkpt lat="38.98614" lon="33.31309">
        <ele>928.896608</ele>
        <time>2021-11-16T02:13:32.928Z</time>
      </trkpt>
      <trkpt lat="38.9869" lon="33.31117">
        <ele>930.364725</ele>
        <time>2021-11-16T02:14:17.678Z</time>
      </trkpt>
      <trkpt lat="38.987" lon="33.31026">
        <ele>931.061283</ele>
        <time>2021-11-16T02:14:37.345Z</time>
      </trkpt>
      <trkpt lat="38.98692" lon="33.30878">
        <ele>932.199525</ele>
        <time>2021-11-16T02:15:08.816Z</time>
      </trkpt>
      <trkpt lat="38.98737" lon="33.30797">
        <ele>932.61558</ele>
        <time>2021-11-16T02:15:29.057Z</time>
      </trkpt>
      <trkpt lat="38.98787" lon="33.30775">
        <ele>932.8744</ele>
        <time>2021-11-16T02:15:42.120Z</time>
      </trkpt>
      <trkpt lat="38.98814" lon="33.30746">
        <ele>933.050808</ele>
        <time>2021-11-16T02:15:50.759Z</time>
      </trkpt>
      <trkpt lat="38.98866" lon="33.30681">
        <ele>933.183655</ele>
        <time>2021-11-16T02:16:07.705Z</time>
      </trkpt>
      <trkpt lat="38.98945" lon="33.30555">
        <ele>933.256395</ele>
        <time>2021-11-16T02:16:36.810Z</time>
      </trkpt>
      <trkpt lat="38.99001" lon="33.30477">
        <ele>933.477156</ele>
        <time>2021-11-16T02:16:56.556Z</time>
      </trkpt>
      <trkpt lat="38.99063" lon="33.30413">
        <ele>933.696184</ele>
        <time>2021-11-16T02:17:16.055Z</time>
      </trkpt>
      <trkpt lat="38.99115" lon="33.30374">
        <ele>934.027135</ele>
        <time>2021-11-16T02:17:31.261Z</time>
      </trkpt>
      <trkpt lat="38.99144" lon="33.30339">
        <ele>934.298826</ele>
        <time>2021-11-16T02:17:41.387Z</time>
      </trkpt>
      <trkpt lat="38.99176" lon="33.30286">
        <ele>934.654449</ele>
        <time>2021-11-16T02:17:54.853Z</time>
      </trkpt>
      <trkpt lat="38.99349" lon="33.30167">
        <ele>936.402487</ele>
        <time>2021-11-16T02:18:47.705Z</time>
      </trkpt>
      <trkpt lat="38.99875" lon="33.29693">
        <ele>942.168186</ele>
        <time>2021-11-16T02:21:41.603Z</time>
      </trkpt>
      <trkpt lat="38.99941" lon="33.29637">
        <ele>942.457232</ele>
        <time>2021-11-16T02:22:00.279Z</time>
      </trkpt>
      <trkpt lat="39.0008" lon="33.29516">
        <ele>942.272195</ele>
        <time>2021-11-16T02:22:37.148Z</time>
      </trkpt>
      <trkpt lat="39.00181" lon="33.29411">
        <ele>942.062538</ele>
        <time>2021-11-16T02:23:06.767Z</time>
      </trkpt>
      <trkpt lat="39.00201" lon="33.29385">
        <ele>942.023526</ele>
        <time>2021-11-16T02:23:13.529Z</time>
      </trkpt>
      <trkpt lat="39.00228" lon="33.29348">
        <ele>941.97024</ele>
        <time>2021-11-16T02:23:22.609Z</time>
      </trkpt>
      <trkpt lat="39.00443" lon="33.29143">
        <ele>941.018016</ele>
        <time>2021-11-16T02:24:20.457Z</time>
      </trkpt>
      <trkpt lat="39.005" lon="33.29095">
        <ele>940.841284</ele>
        <time>2021-11-16T02:24:35.183Z</time>
      </trkpt>
      <trkpt lat="39.00529" lon="33.29087">
        <ele>940.761977</ele>
        <time>2021-11-16T02:24:42.130Z</time>
      </trkpt>
      <trkpt lat="39.00603" lon="33.29092">
        <ele>941.006984</ele>
        <time>2021-11-16T02:24:59.869Z</time>
      </trkpt>
      <trkpt lat="39.00653" lon="33.29112">
        <ele>941.283107</ele>
        <time>2021-11-16T02:25:12.910Z</time>
      </trkpt>
      <trkpt lat="39.00671" lon="33.29125">
        <ele>941.394187</ele>
        <time>2021-11-16T02:25:18.393Z</time>
      </trkpt>
      <trkpt lat="39.0092" lon="33.28653">
        <ele>945.159492</ele>
        <time>2021-11-16T02:27:13.094Z</time>
      </trkpt>
      <trkpt lat="39.01125" lon="33.28256">
        <ele>948.221408</ele>
        <time>2021-11-16T02:28:47.085Z</time>
      </trkpt>
      <trkpt lat="39.01435" lon="33.2768">
        <ele>954.174156</ele>
        <time>2021-11-16T02:31:11.370Z</time>
      </trkpt>
      <trkpt lat="39.01478" lon="33.27483">
        <ele>956.958934</ele>
        <time>2021-11-16T02:31:57.808Z</time>
      </trkpt>
      <trkpt lat="39.01771" lon="33.25908">
        <ele>990.2437</ele>
        <time>2021-11-16T02:38:51.442Z</time>
      </trkpt>
      <trkpt lat="39.01809" lon="33.25731">
        <ele>994.465423</ele>
        <time>2021-11-16T02:39:41.570Z</time>
      </trkpt>
      <trkpt lat="39.01833" lon="33.25657">
        <ele>995.390832</ele>
        <time>2021-11-16T02:40:02.010Z</time>
      </trkpt>
      <trkpt lat="39.02062" lon="33.25162">
        <ele>999.908091</ele>
        <time>2021-11-16T02:41:56.906Z</time>
      </trkpt>
      <trkpt lat="39.02376" lon="33.24622">
        <ele>1001.665909</ele>
        <time>2021-11-16T02:43:59.979Z</time>
      </trkpt>
      <trkpt lat="39.02462" lon="33.24481">
        <ele>1001.055944</ele>
        <time>2021-11-16T02:44:30.874Z</time>
      </trkpt>
      <trkpt lat="39.02534" lon="33.24373">
        <ele>999.872662</ele>
        <time>2021-11-16T02:44:51.348Z</time>
      </trkpt>
      <trkpt lat="39.02618" lon="33.24262">
        <ele>996.989718</ele>
        <time>2021-11-16T02:45:11.502Z</time>
      </trkpt>
      <trkpt lat="39.02668" lon="33.24222">
        <ele>995.60816</ele>
        <time>2021-11-16T02:45:21.553Z</time>
      </trkpt>
      <trkpt lat="39.02706" lon="33.24198">
        <ele>994.731913</ele>
        <time>2021-11-16T02:45:28.805Z</time>
      </trkpt>
      <trkpt lat="39.0315" lon="33.23971">
        <ele>985.252548</ele>
        <time>2021-11-16T02:46:52.881Z</time>
      </trkpt>
      <trkpt lat="39.03322" lon="33.23882">
        <ele>983.519183</ele>
        <time>2021-11-16T02:47:28.845Z</time>
      </trkpt>
      <trkpt lat="39.03344" lon="33.23872">
        <ele>983.802743</ele>
        <time>2021-11-16T02:47:34.178Z</time>
      </trkpt>
      <trkpt lat="39.03356" lon="33.23869">
        <ele>983.960115</ele>
        <time>2021-11-16T02:47:37.051Z</time>
      </trkpt>
      <trkpt lat="39.03369" lon="33.23869">
        <ele>984.131942</ele>
        <time>2021-11-16T02:47:40.176Z</time>
      </trkpt>
      <trkpt lat="39.03375" lon="33.2385">
        <ele>984.33214</ele>
        <time>2021-11-16T02:47:44.234Z</time>
      </trkpt>
      <trkpt lat="39.03388" lon="33.23775">
        <ele>985.107738</ele>
        <time>2021-11-16T02:48:00.929Z</time>
      </trkpt>
      <trkpt lat="39.03378" lon="33.23712">
        <ele>985.750992</ele>
        <time>2021-11-16T02:48:17.318Z</time>
      </trkpt>
      <trkpt lat="39.03386" lon="33.23639">
        <ele>987.206532</ele>
        <time>2021-11-16T02:48:35.709Z</time>
      </trkpt>
      <trkpt lat="39.03391" lon="33.23626">
        <ele>987.511294</ele>
        <time>2021-11-16T02:48:39.863Z</time>
      </trkpt>
      <trkpt lat="39.03412" lon="33.23596">
        <ele>988.374453</ele>
        <time>2021-11-16T02:48:50.262Z</time>
      </trkpt>
      <trkpt lat="39.03418" lon="33.23587">
        <ele>988.613303</ele>
        <time>2021-11-16T02:48:53.177Z</time>
      </trkpt>
      <trkpt lat="39.03418" lon="33.2358">
        <ele>988.759122</ele>
        <time>2021-11-16T02:48:55.063Z</time>
      </trkpt>
      <trkpt lat="39.03417" lon="33.23575">
        <ele>988.884343</ele>
        <time>2021-11-16T02:48:56.567Z</time>
      </trkpt>
      <trkpt lat="39.03408" lon="33.23566">
        <ele>989.198447</ele>
        <time>2021-11-16T02:49:00.093Z</time>
      </trkpt>
      <trkpt lat="39.03399" lon="33.23559">
        <ele>989.480099</ele>
        <time>2021-11-16T02:49:03.973Z</time>
      </trkpt>
      <trkpt lat="39.03371" lon="33.23537">
        <ele>990.362537</ele>
        <time>2021-11-16T02:49:14.706Z</time>
      </trkpt>
      <trkpt lat="39.03355" lon="33.23524">
        <ele>990.84696</ele>
        <time>2021-11-16T02:49:20.915Z</time>
      </trkpt>
      <trkpt lat="39.03342" lon="33.23511">
        <ele>991.22974</ele>
        <time>2021-11-16T02:49:26.608Z</time>
      </trkpt>
      <trkpt lat="39.03316" lon="33.23475">
        <ele>992.115713</ele>
        <time>2021-11-16T02:49:39.157Z</time>
      </trkpt>
      <trkpt lat="39.03278" lon="33.23429">
        <ele>993.313384</ele>
        <time>2021-11-16T02:49:55.517Z</time>
      </trkpt>
      <trkpt lat="39.03192" lon="33.23316">
        <ele>996.030855</ele>
        <time>2021-11-16T02:50:32.650Z</time>
      </trkpt>
      <trkpt lat="39.03172" lon="33.23282">
        <ele>996.723673</ele>
        <time>2021-11-16T02:50:42.639Z</time>
      </trkpt>
      <trkpt lat="39.03156" lon="33.23246">
        <ele>997.386039</ele>
        <time>2021-11-16T02:50:52.318Z</time>
      </trkpt>
      <trkpt lat="39.03139" lon="33.23208">
        <ele>998.105805</ele>
        <time>2021-11-16T02:51:02.930Z</time>
      </trkpt>
      <trkpt lat="39.03135" lon="33.23199">
        <ele>998.271799</ele>
        <time>2021-11-16T02:51:05.415Z</time>
      </trkpt>
      <trkpt lat="39.03091" lon="33.23091">
        <ele>1000.489382</ele>
        <time>2021-11-16T02:51:35.226Z</time>
      </trkpt>
      <trkpt lat="39.0305" lon="33.22977">
        <ele>1002.816836</ele>
        <time>2021-11-16T02:52:06.675Z</time>
      </trkpt>
      <trkpt lat="39.03014" lon="33.22876">
        <ele>1004.405258</ele>
        <time>2021-11-16T02:52:33.638Z</time>
      </trkpt>
      <trkpt lat="39.02919" lon="33.22621">
        <ele>1007.127111</ele>
        <time>2021-11-16T02:53:35.017Z</time>
      </trkpt>
      <trkpt lat="39.02897" lon="33.22546">
        <ele>1007.474829</ele>
        <time>2021-11-16T02:53:48.644Z</time>
      </trkpt>
      <trkpt lat="39.02878" lon="33.22476">
        <ele>1006.071853</ele>
        <time>2021-11-16T02:53:59.689Z</time>
      </trkpt>
      <trkpt lat="39.02597" lon="33.21432">
        <ele>985.193552</ele>
        <time>2021-11-16T02:56:24.272Z</time>
      </trkpt>
      <trkpt lat="39.02071" lon="33.19513">
        <ele>966.460105</ele>
        <time>2021-11-16T03:01:24.058Z</time>
      </trkpt>
      <trkpt lat="39.01935" lon="33.19012">
        <ele>963.264844</ele>
        <time>2021-11-16T03:02:47.288Z</time>
      </trkpt>
      <trkpt lat="39.01841" lon="33.18666">
        <ele>958.553996</ele>
        <time>2021-11-16T03:03:37.040Z</time>
      </trkpt>
      <trkpt lat="39.01351" lon="33.16892">
        <ele>960.77478</ele>
        <time>2021-11-16T03:09:14.843Z</time>
      </trkpt>
      <trkpt lat="39.01235" lon="33.16454">
        <ele>959.948278</ele>
        <time>2021-11-16T03:10:32.157Z</time>
      </trkpt>
      <trkpt lat="39.01197" lon="33.16309">
        <ele>958.293841</ele>
        <time>2021-11-16T03:10:55.747Z</time>
      </trkpt>
      <trkpt lat="39.01157" lon="33.16093">
        <ele>953.9489</ele>
        <time>2021-11-16T03:11:24.565Z</time>
      </trkpt>
      <trkpt lat="39.01146" lon="33.16022">
        <ele>952.097555</ele>
        <time>2021-11-16T03:11:33.386Z</time>
      </trkpt>
      <trkpt lat="39.0114" lon="33.15995">
        <ele>951.367447</ele>
        <time>2021-11-16T03:11:36.835Z</time>
      </trkpt>
      <trkpt lat="39.01125" lon="33.15948">
        <ele>950.250367</ele>
        <time>2021-11-16T03:11:43.136Z</time>
      </trkpt>
      <trkpt lat="39.01094" lon="33.1589">
        <ele>948.76695</ele>
        <time>2021-11-16T03:11:51.883Z</time>
      </trkpt>
      <trkpt lat="39.01" lon="33.15744">
        <ele>945.986809</ele>
        <time>2021-11-16T03:12:18.002Z</time>
      </trkpt>
      <trkpt lat="39.00979" lon="33.15706">
        <ele>945.816772</ele>
        <time>2021-11-16T03:12:25.572Z</time>
      </trkpt>
      <trkpt lat="39.00978" lon="33.1567">
        <ele>945.683318</ele>
        <time>2021-11-16T03:12:31.688Z</time>
      </trkpt>
      <trkpt lat="39.00977" lon="33.15631">
        <ele>945.540636</ele>
        <time>2021-11-16T03:12:38.616Z</time>
      </trkpt>
      <trkpt lat="39.00977" lon="33.15613">
        <ele>945.473692</ele>
        <time>2021-11-16T03:12:41.974Z</time>
      </trkpt>
      <trkpt lat="39.00979" lon="33.15483">
        <ele>946.40287</ele>
        <time>2021-11-16T03:13:08.835Z</time>
      </trkpt>
      <trkpt lat="39.00982" lon="33.15461">
        <ele>946.608217</ele>
        <time>2021-11-16T03:13:13.763Z</time>
      </trkpt>
      <trkpt lat="39.00987" lon="33.15426">
        <ele>946.932173</ele>
        <time>2021-11-16T03:13:21.372Z</time>
      </trkpt>
      <trkpt lat="39.00987" lon="33.15404">
        <ele>947.129565</ele>
        <time>2021-11-16T03:13:26.060Z</time>
      </trkpt>
      <trkpt lat="39.00986" lon="33.15364">
        <ele>947.498965</ele>
        <time>2021-11-16T03:13:34.711Z</time>
      </trkpt>
      <trkpt lat="39.00994" lon="33.15348">
        <ele>947.681676</ele>
        <time>2021-11-16T03:13:38.924Z</time>
      </trkpt>
      <trkpt lat="39.01003" lon="33.15329">
        <ele>947.891732</ele>
        <time>2021-11-16T03:13:43.576Z</time>
      </trkpt>
      <trkpt lat="39.01021" lon="33.15308">
        <ele>948.196753</ele>
        <time>2021-11-16T03:13:50.530Z</time>
      </trkpt>
      <trkpt lat="39.01051" lon="33.15266">
        <ele>948.739013</ele>
        <time>2021-11-16T03:14:02.629Z</time>
      </trkpt>
      <trkpt lat="39.01063" lon="33.15258">
        <ele>948.900875</ele>
        <time>2021-11-16T03:14:06.279Z</time>
      </trkpt>
      <trkpt lat="39.01067" lon="33.15255">
        <ele>948.964108</ele>
        <time>2021-11-16T03:14:07.763Z</time>
      </trkpt>
      <trkpt lat="39.01157" lon="33.15123">
        <ele>950.462197</ele>
        <time>2021-11-16T03:14:43.296Z</time>
      </trkpt>
      <trkpt lat="39.01178" lon="33.15093">
        <ele>950.77767</ele>
        <time>2021-11-16T03:14:51.582Z</time>
      </trkpt>
      <trkpt lat="39.01227" lon="33.15025">
        <ele>951.500229</ele>
        <time>2021-11-16T03:15:10.378Z</time>
      </trkpt>
      <trkpt lat="39.01304" lon="33.14918">
        <ele>952.557925</ele>
        <time>2021-11-16T03:15:40.036Z</time>
      </trkpt>
      <trkpt lat="39.01556" lon="33.14595">
        <ele>956.142564</ele>
        <time>2021-11-16T03:17:11.745Z</time>
      </trkpt>
      <trkpt lat="39.03509" lon="33.12419">
        <ele>1003.643898</ele>
        <time>2021-11-16T03:30:00.871Z</time>
      </trkpt>
      <trkpt lat="39.03558" lon="33.12381">
        <ele>1003.03993</ele>
        <time>2021-11-16T03:30:12.447Z</time>
      </trkpt>
      <trkpt lat="39.03616" lon="33.1235">
        <ele>1002.135678</ele>
        <time>2021-11-16T03:30:23.816Z</time>
      </trkpt>
      <trkpt lat="39.03706" lon="33.12318">
        <ele>1000.502731</ele>
        <time>2021-11-16T03:30:39.544Z</time>
      </trkpt>
      <trkpt lat="39.03786" lon="33.1227">
        <ele>998.274352</ele>
        <time>2021-11-16T03:30:54.179Z</time>
      </trkpt>
      <trkpt lat="39.03836" lon="33.12231">
        <ele>996.802166</ele>
        <time>2021-11-16T03:31:04.092Z</time>
      </trkpt>
      <trkpt lat="39.03899" lon="33.12202">
        <ele>996.014089</ele>
        <time>2021-11-16T03:31:16.122Z</time>
      </trkpt>
      <trkpt lat="39.03924" lon="33.12181">
        <ele>995.721287</ele>
        <time>2021-11-16T03:31:21.732Z</time>
      </trkpt>
      <trkpt lat="39.03956" lon="33.12133">
        <ele>995.230274</ele>
        <time>2021-11-16T03:31:31.665Z</time>
      </trkpt>
      <trkpt lat="39.04006" lon="33.12031">
        <ele>995.102522</ele>
        <time>2021-11-16T03:31:52.660Z</time>
      </trkpt>
      <trkpt lat="39.04023" lon="33.12007">
        <ele>995.240649</ele>
        <time>2021-11-16T03:31:58.835Z</time>
      </trkpt>
      <trkpt lat="39.04326" lon="33.11806">
        <ele>997.710599</ele>
        <time>2021-11-16T03:33:26.442Z</time>
      </trkpt>
      <trkpt lat="39.0483" lon="33.11428">
        <ele>1001.433857</ele>
        <time>2021-11-16T03:35:48.374Z</time>
      </trkpt>
      <trkpt lat="39.05304" lon="33.11123">
        <ele>1009.477983</ele>
        <time>2021-11-16T03:38:18.487Z</time>
      </trkpt>
      <trkpt lat="39.05703" lon="33.10801">
        <ele>1020.903734</ele>
        <time>2021-11-16T03:40:51.456Z</time>
      </trkpt>
      <trkpt lat="39.06012" lon="33.10575">
        <ele>1027.282409</ele>
        <time>2021-11-16T03:42:38.362Z</time>
      </trkpt>
      <trkpt lat="39.06086" lon="33.10527">
        <ele>1026.906153</ele>
        <time>2021-11-16T03:42:56.928Z</time>
      </trkpt>
      <trkpt lat="39.06666" lon="33.10249">
        <ele>1015.790044</ele>
        <time>2021-11-16T03:44:46.080Z</time>
      </trkpt>
      <trkpt lat="39.06774" lon="33.10188">
        <ele>1012.961014</ele>
        <time>2021-11-16T03:45:06.160Z</time>
      </trkpt>
      <trkpt lat="39.07111" lon="33.09946">
        <ele>1003.712613</ele>
        <time>2021-11-16T03:46:11.966Z</time>
      </trkpt>
      <trkpt lat="39.07347" lon="33.09788">
        <ele>998.76537</ele>
        <time>2021-11-16T03:46:59.188Z</time>
      </trkpt>
      <trkpt lat="39.07447" lon="33.09701">
        <ele>996.881586</ele>
        <time>2021-11-16T03:47:21.515Z</time>
      </trkpt>
      <trkpt lat="39.08091" lon="33.09077">
        <ele>987.981869</ele>
        <time>2021-11-16T03:49:53.678Z</time>
      </trkpt>
      <trkpt lat="39.08341" lon="33.08826">
        <ele>989.418546</ele>
        <time>2021-11-16T03:51:11.376Z</time>
      </trkpt>
      <trkpt lat="39.08395" lon="33.08766">
        <ele>990.47363</ele>
        <time>2021-11-16T03:51:32.207Z</time>
      </trkpt>
      <trkpt lat="39.08405" lon="33.08756">
        <ele>990.657951</ele>
        <time>2021-11-16T03:51:35.964Z</time>
      </trkpt>
      <trkpt lat="39.08521" lon="33.08627">
        <ele>992.525021</ele>
        <time>2021-11-16T03:52:21.080Z</time>
      </trkpt>
      <trkpt lat="39.0853" lon="33.08626">
        <ele>992.61387</ele>
        <time>2021-11-16T03:52:23.352Z</time>
      </trkpt>
      <trkpt lat="39.08576" lon="33.08601">
        <ele>993.138995</ele>
        <time>2021-11-16T03:52:35.823Z</time>
      </trkpt>
      <trkpt lat="39.08657" lon="33.08565">
        <ele>992.951755</ele>
        <time>2021-11-16T03:52:54.129Z</time>
      </trkpt>
      <trkpt lat="39.08649" lon="33.08531">
        <ele>992.722871</ele>
        <time>2021-11-16T03:52:59.758Z</time>
      </trkpt>
      <trkpt lat="39.08634" lon="33.08505">
        <ele>992.516331</ele>
        <time>2021-11-16T03:53:04.695Z</time>
      </trkpt>
      <trkpt lat="39.08692" lon="33.08468">
        <ele>991.982321</ele>
        <time>2021-11-16T03:53:17.292Z</time>
      </trkpt>
      <trkpt lat="39.0872" lon="33.08424">
        <ele>991.684717</ele>
        <time>2021-11-16T03:53:25.867Z</time>
      </trkpt>
      <trkpt lat="39.08738" lon="33.08394">
        <ele>991.490882</ele>
        <time>2021-11-16T03:53:31.634Z</time>
      </trkpt>
      <trkpt lat="39.08756" lon="33.08357">
        <ele>991.268231</ele>
        <time>2021-11-16T03:53:38.339Z</time>
      </trkpt>
      <trkpt lat="39.0877" lon="33.08347">
        <ele>991.160803</ele>
        <time>2021-11-16T03:53:41.793Z</time>
      </trkpt>
      <trkpt lat="39.08775" lon="33.08344">
        <ele>991.120685</ele>
        <time>2021-11-16T03:53:43.121Z</time>
      </trkpt>
      <trkpt lat="39.08775" lon="33.08337">
        <ele>991.088619</ele>
        <time>2021-11-16T03:53:44.155Z</time>
      </trkpt>
      <trkpt lat="39.08754" lon="33.08239">
        <ele>991.034529</ele>
        <time>2021-11-16T03:54:03.503Z</time>
      </trkpt>
      <trkpt lat="39.08762" lon="33.08184">
        <ele>991.450238</ele>
        <time>2021-11-16T03:54:15.081Z</time>
      </trkpt>
      <trkpt lat="39.08784" lon="33.08109">
        <ele>992.044826</ele>
        <time>2021-11-16T03:54:32.430Z</time>
      </trkpt>
      <trkpt lat="39.08793" lon="33.0808">
        <ele>992.270075</ele>
        <time>2021-11-16T03:54:39.035Z</time>
      </trkpt>
      <trkpt lat="39.08809" lon="33.08043">
        <ele>992.629281</ele>
        <time>2021-11-16T03:54:48.636Z</time>
      </trkpt>
      <trkpt lat="39.08832" lon="33.07997">
        <ele>993.166334</ele>
        <time>2021-11-16T03:55:01.176Z</time>
      </trkpt>
      <trkpt lat="39.08839" lon="33.07979">
        <ele>993.368876</ele>
        <time>2021-11-16T03:55:05.864Z</time>
      </trkpt>
      <trkpt lat="39.08843" lon="33.0793">
        <ele>993.858428</ele>
        <time>2021-11-16T03:55:16.825Z</time>
      </trkpt>
      <trkpt lat="39.08848" lon="33.07899">
        <ele>994.170617</ele>
        <time>2021-11-16T03:55:23.571Z</time>
      </trkpt>
      <trkpt lat="39.08862" lon="33.07847">
        <ele>994.711059</ele>
        <time>2021-11-16T03:55:35.065Z</time>
      </trkpt>
      <trkpt lat="39.08864" lon="33.07805">
        <ele>994.987692</ele>
        <time>2021-11-16T03:55:43.808Z</time>
      </trkpt>
      <trkpt lat="39.08924" lon="33.07766">
        <ele>995.513223</ele>
        <time>2021-11-16T03:56:01.936Z</time>
      </trkpt>
      <trkpt lat="39.08923" lon="33.07737">
        <ele>995.688675</ele>
        <time>2021-11-16T03:56:07.730Z</time>
      </trkpt>
      <trkpt lat="39.08966" lon="33.07693">
        <ele>996.119847</ele>
        <time>2021-11-16T03:56:21.916Z</time>
      </trkpt>
      <trkpt lat="39.09008" lon="33.07625">
        <ele>996.472742</ele>
        <time>2021-11-16T03:56:38.429Z</time>
      </trkpt>
      <trkpt lat="39.09068" lon="33.07527">
        <ele>996.955292</ele>
        <time>2021-11-16T03:57:02.649Z</time>
      </trkpt>
      <trkpt lat="39.09144" lon="33.07406">
        <ele>997.391726</ele>
        <time>2021-11-16T03:57:33.932Z</time>
      </trkpt>
      <trkpt lat="39.09171" lon="33.07351">
        <ele>997.561168</ele>
        <time>2021-11-16T03:57:46.609Z</time>
      </trkpt>
      <trkpt lat="39.09184" lon="33.07332">
        <ele>997.624313</ele>
        <time>2021-11-16T03:57:50.980Z</time>
      </trkpt>
      <trkpt lat="39.09195" lon="33.07319">
        <ele>997.630827</ele>
        <time>2021-11-16T03:57:54.093Z</time>
      </trkpt>
      <trkpt lat="39.09226" lon="33.0722">
        <ele>996.936867</ele>
        <time>2021-11-16T03:58:10.250Z</time>
      </trkpt>
      <trkpt lat="39.09236" lon="33.07187">
        <ele>996.708773</ele>
        <time>2021-11-16T03:58:15.380Z</time>
      </trkpt>
      <trkpt lat="39.09258" lon="33.07117">
        <ele>996.21932</ele>
        <time>2021-11-16T03:58:26.561Z</time>
      </trkpt>
      <trkpt lat="39.09265" lon="33.07094">
        <ele>996.139506</ele>
        <time>2021-11-16T03:58:30.395Z</time>
      </trkpt>
      <trkpt lat="39.09266" lon="33.0709">
        <ele>996.134132</ele>
        <time>2021-11-16T03:58:31.052Z</time>
      </trkpt>
      <trkpt lat="39.09283" lon="33.07046">
        <ele>996.074785</ele>
        <time>2021-11-16T03:58:38.759Z</time>
      </trkpt>
      <trkpt lat="39.09293" lon="33.07017">
        <ele>996.036229</ele>
        <time>2021-11-16T03:58:43.817Z</time>
      </trkpt>
      <trkpt lat="39.09313" lon="33.06982">
        <ele>995.984322</ele>
        <time>2021-11-16T03:58:51.071Z</time>
      </trkpt>
      <trkpt lat="39.0934" lon="33.06927">
        <ele>995.90457</ele>
        <time>2021-11-16T03:59:03.719Z</time>
      </trkpt>
      <trkpt lat="39.09346" lon="33.06915">
        <ele>995.887591</ele>
        <time>2021-11-16T03:59:06.444Z</time>
      </trkpt>
      <trkpt lat="39.09359" lon="33.06888">
        <ele>995.853063</ele>
        <time>2021-11-16T03:59:12.416Z</time>
      </trkpt>
      <trkpt lat="39.09389" lon="33.06828">
        <ele>995.77601</ele>
        <time>2021-11-16T03:59:25.136Z</time>
      </trkpt>
      <trkpt lat="39.094" lon="33.06798">
        <ele>995.740267</ele>
        <time>2021-11-16T03:59:31.061Z</time>
      </trkpt>
      <trkpt lat="39.09445" lon="33.06671">
        <ele>995.487187</ele>
        <time>2021-11-16T03:59:52.842Z</time>
      </trkpt>
      <trkpt lat="39.09446" lon="33.06666">
        <ele>995.467885</ele>
        <time>2021-11-16T03:59:53.421Z</time>
      </trkpt>
      <trkpt lat="39.09477" lon="33.06579">
        <ele>995.084352</ele>
        <time>2021-11-16T04:00:08.665Z</time>
      </trkpt>
      <trkpt lat="39.0952" lon="33.06457">
        <ele>994.816917</ele>
        <time>2021-11-16T04:00:30.255Z</time>
      </trkpt>
      <trkpt lat="39.09551" lon="33.06369">
        <ele>995.090617</ele>
        <time>2021-11-16T04:00:48.417Z</time>
      </trkpt>
      <trkpt lat="39.09585" lon="33.06274">
        <ele>995.416208</ele>
        <time>2021-11-16T04:01:08.566Z</time>
      </trkpt>
      <trkpt lat="39.09602" lon="33.06226">
        <ele>995.760691</ele>
        <time>2021-11-16T04:01:18.589Z</time>
      </trkpt>
      <trkpt lat="39.09638" lon="33.0612">
        <ele>996.514313</ele>
        <time>2021-11-16T04:01:42.010Z</time>
      </trkpt>
      <trkpt lat="39.09692" lon="33.05961">
        <ele>997.782635</ele>
        <time>2021-11-16T04:02:16.861Z</time>
      </trkpt>
      <trkpt lat="39.09728" lon="33.05855">
        <ele>998.669837</ele>
        <time>2021-11-16T04:02:40.266Z</time>
      </trkpt>
      <trkpt lat="39.09749" lon="33.05794">
        <ele>999.347781</ele>
        <time>2021-11-16T04:02:54.523Z</time>
      </trkpt>
      <trkpt lat="39.09763" lon="33.05751">
        <ele>999.817135</ele>
        <time>2021-11-16T04:03:04.484Z</time>
      </trkpt>
      <trkpt lat="39.09799" lon="33.05651">
        <ele>1000.937578</ele>
        <time>2021-11-16T04:03:29.106Z</time>
      </trkpt>
      <trkpt lat="39.0984" lon="33.05536">
        <ele>1001.564683</ele>
        <time>2021-11-16T04:03:54.619Z</time>
      </trkpt>
      <trkpt lat="39.09856" lon="33.05491">
        <ele>1001.79549</ele>
        <time>2021-11-16T04:04:03.622Z</time>
      </trkpt>
      <trkpt lat="39.09894" lon="33.05392">
        <ele>1001.97362</ele>
        <time>2021-11-16T04:04:22.444Z</time>
      </trkpt>
      <trkpt lat="39.09929" lon="33.05299">
        <ele>1001.741969</ele>
        <time>2021-11-16T04:04:38.925Z</time>
      </trkpt>
      <trkpt lat="39.09947" lon="33.05252">
        <ele>1001.62578</ele>
        <time>2021-11-16T04:04:47.455Z</time>
      </trkpt>
      <trkpt lat="39.09972" lon="33.05184">
        <ele>1001.59958</ele>
        <time>2021-11-16T04:05:00.403Z</time>
      </trkpt>
      <trkpt lat="39.09997" lon="33.05117">
        <ele>1001.650511</ele>
        <time>2021-11-16T04:05:13.204Z</time>
      </trkpt>
      <trkpt lat="39.10015" lon="33.05068">
        <ele>1001.68727</ele>
        <time>2021-11-16T04:05:22.534Z</time>
      </trkpt>
      <trkpt lat="39.10026" lon="33.05037">
        <ele>1001.711037</ele>
        <time>2021-11-16T04:05:28.802Z</time>
      </trkpt>
      <trkpt lat="39.1004" lon="33.04998">
        <ele>1001.774257</ele>
        <time>2021-11-16T04:05:36.723Z</time>
      </trkpt>
      <trkpt lat="39.10072" lon="33.04912">
        <ele>1001.987015</ele>
        <time>2021-11-16T04:05:54.768Z</time>
      </trkpt>
      <trkpt lat="39.10078" lon="33.04897">
        <ele>1002.022823</ele>
        <time>2021-11-16T04:05:57.781Z</time>
      </trkpt>
      <trkpt lat="39.10105" lon="33.04826">
        <ele>1002.2003</ele>
        <time>2021-11-16T04:06:11.885Z</time>
      </trkpt>
      <trkpt lat="39.10124" lon="33.04777">
        <ele>1002.118531</ele>
        <time>2021-11-16T04:06:21.276Z</time>
      </trkpt>
      <trkpt lat="39.1014" lon="33.0474">
        <ele>1001.980105</ele>
        <time>2021-11-16T04:06:28.363Z</time>
      </trkpt>
      <trkpt lat="39.10161" lon="33.04694">
        <ele>1001.803349</ele>
        <time>2021-11-16T04:06:37.299Z</time>
      </trkpt>
      <trkpt lat="39.1017" lon="33.04675">
        <ele>1001.731676</ele>
        <time>2021-11-16T04:06:40.723Z</time>
      </trkpt>
      <trkpt lat="39.10245" lon="33.04523">
        <ele>1000.97741</ele>
        <time>2021-11-16T04:07:08.096Z</time>
      </trkpt>
      <trkpt lat="39.1025" lon="33.04497">
        <ele>1000.846144</ele>
        <time>2021-11-16T04:07:12.226Z</time>
      </trkpt>
      <trkpt lat="39.10259" lon="33.04479">
        <ele>1000.741681</ele>
        <time>2021-11-16T04:07:15.505Z</time>
      </trkpt>
      <trkpt lat="39.10423" lon="33.0416">
        <ele>1000.16849</ele>
        <time>2021-11-16T04:08:18.688Z</time>
      </trkpt>
      <trkpt lat="39.10941" lon="33.03101">
        <ele>1005.328479</ele>
        <time>2021-11-16T04:12:17.505Z</time>
      </trkpt>
      <trkpt lat="39.1123" lon="33.02516">
        <ele>1007.740234</ele>
        <time>2021-11-16T04:14:25.902Z</time>
      </trkpt>
      <trkpt lat="39.11244" lon="33.02488">
        <ele>1007.875435</ele>
        <time>2021-11-16T04:14:32.480Z</time>
      </trkpt>
      <trkpt lat="39.11265" lon="33.0245">
        <ele>1008.077862</ele>
        <time>2021-11-16T04:14:41.673Z</time>
      </trkpt>
      <trkpt lat="39.11291" lon="33.02402">
        <ele>1008.392638</ele>
        <time>2021-11-16T04:14:53.154Z</time>
      </trkpt>
      <trkpt lat="39.11396" lon="33.02249">
        <ele>1009.518004</ele>
        <time>2021-11-16T04:15:32.752Z</time>
      </trkpt>
      <trkpt lat="39.11421" lon="33.02212">
        <ele>1009.818886</ele>
        <time>2021-11-16T04:15:42.138Z</time>
      </trkpt>
      <trkpt lat="39.11472" lon="33.02141">
        <ele>1010.410805</ele>
        <time>2021-11-16T04:16:01.120Z</time>
      </trkpt>
      <trkpt lat="39.11478" lon="33.02131">
        <ele>1010.487498</ele>
        <time>2021-11-16T04:16:03.706Z</time>
      </trkpt>
      <trkpt lat="39.11491" lon="33.02106">
        <ele>1010.673907</ele>
        <time>2021-11-16T04:16:09.842Z</time>
      </trkpt>
      <trkpt lat="39.11496" lon="33.02091">
        <ele>1010.785665</ele>
        <time>2021-11-16T04:16:13.116Z</time>
      </trkpt>
      <trkpt lat="39.11498" lon="33.02084">
        <ele>1010.841016</ele>
        <time>2021-11-16T04:16:14.582Z</time>
      </trkpt>
      <trkpt lat="39.11501" lon="33.02073">
        <ele>1010.925366</ele>
        <time>2021-11-16T04:16:17.116Z</time>
      </trkpt>
      <trkpt lat="39.11501" lon="33.02037">
        <ele>1011.188879</ele>
        <time>2021-11-16T04:16:24.356Z</time>
      </trkpt>
      <trkpt lat="39.11496" lon="33.01943">
        <ele>1011.868787</ele>
        <time>2021-11-16T04:16:43.255Z</time>
      </trkpt>
      <trkpt lat="39.11493" lon="33.01891">
        <ele>1012.249665</ele>
        <time>2021-11-16T04:16:53.947Z</time>
      </trkpt>
      <trkpt lat="39.11493" lon="33.01879">
        <ele>1012.33532</ele>
        <time>2021-11-16T04:16:56.358Z</time>
      </trkpt>
      <trkpt lat="39.11489" lon="33.01834">
        <ele>1012.413151</ele>
        <time>2021-11-16T04:17:05.435Z</time>
      </trkpt>
      <trkpt lat="39.11483" lon="33.0176">
        <ele>1012.491741</ele>
        <time>2021-11-16T04:17:19.540Z</time>
      </trkpt>
      <trkpt lat="39.11464" lon="33.01666">
        <ele>1012.593914</ele>
        <time>2021-11-16T04:17:35.248Z</time>
      </trkpt>
      <trkpt lat="39.11458" lon="33.01632">
        <ele>1012.557606</ele>
        <time>2021-11-16T04:17:40.948Z</time>
      </trkpt>
      <trkpt lat="39.11454" lon="33.01597">
        <ele>1012.416413</ele>
        <time>2021-11-16T04:17:46.537Z</time>
      </trkpt>
      <trkpt lat="39.11454" lon="33.01577">
        <ele>1012.334222</ele>
        <time>2021-11-16T04:17:49.656Z</time>
      </trkpt>
      <trkpt lat="39.11455" lon="33.01557">
        <ele>1012.255089</ele>
        <time>2021-11-16T04:17:52.775Z</time>
      </trkpt>
      <trkpt lat="39.11461" lon="33.01545">
        <ele>1012.197941</ele>
        <time>2021-11-16T04:17:55.094Z</time>
      </trkpt>
      <trkpt lat="39.11467" lon="33.01534">
        <ele>1012.145537</ele>
        <time>2021-11-16T04:17:57.083Z</time>
      </trkpt>
      <trkpt lat="39.11525" lon="33.01498">
        <ele>1011.814272</ele>
        <time>2021-11-16T04:18:10.149Z</time>
      </trkpt>
      <trkpt lat="39.11565" lon="33.01458">
        <ele>1011.852214</ele>
        <time>2021-11-16T04:18:20.520Z</time>
      </trkpt>
      <trkpt lat="39.11574" lon="33.01449">
        <ele>1011.922466</ele>
        <time>2021-11-16T04:18:22.948Z</time>
      </trkpt>
      <trkpt lat="39.11587" lon="33.01438">
        <ele>1012.017927</ele>
        <time>2021-11-16T04:18:26.503Z</time>
      </trkpt>
      <trkpt lat="39.1162" lon="33.01427">
        <ele>1012.225179</ele>
        <time>2021-11-16T04:18:34.772Z</time>
      </trkpt>
      <trkpt lat="39.11828" lon="33.01334">
        <ele>1014.313797</ele>
        <time>2021-11-16T04:19:34.407Z</time>
      </trkpt>
      <trkpt lat="39.11887" lon="33.01285">
        <ele>1015.127969</ele>
        <time>2021-11-16T04:19:53.545Z</time>
      </trkpt>
      <trkpt lat="39.12031" lon="33.01061">
        <ele>1017.502507</ele>
        <time>2021-11-16T04:20:53.051Z</time>
      </trkpt>
      <trkpt lat="39.12081" lon="33.00991">
        <ele>1018.25814</ele>
        <time>2021-11-16T04:21:12.466Z</time>
      </trkpt>
      <trkpt lat="39.12256" lon="33.00793">
        <ele>1020.380706</ele>
        <time>2021-11-16T04:22:13.040Z</time>
      </trkpt>
      <trkpt lat="39.12445" lon="33.00597">
        <ele>1021.801408</ele>
        <time>2021-11-16T04:23:12.002Z</time>
      </trkpt>
      <trkpt lat="39.12512" lon="33.00529">
        <ele>1022.339117</ele>
        <time>2021-11-16T04:23:33.130Z</time>
      </trkpt>
      <trkpt lat="39.1258" lon="33.00474">
        <ele>1023.080119</ele>
        <time>2021-11-16T04:23:53.596Z</time>
      </trkpt>
      <trkpt lat="39.13215" lon="33.00029">
        <ele>1030.403879</ele>
        <time>2021-11-16T04:27:04.926Z</time>
      </trkpt>
      <trkpt lat="39.13628" lon="32.99819">
        <ele>1033.769413</ele>
        <time>2021-11-16T04:28:55.995Z</time>
      </trkpt>
      <trkpt lat="39.13893" lon="32.99672">
        <ele>1036.474318</ele>
        <time>2021-11-16T04:30:10.635Z</time>
      </trkpt>
      <trkpt lat="39.1401" lon="32.99587">
        <ele>1038.108459</ele>
        <time>2021-11-16T04:30:47.336Z</time>
      </trkpt>
      <trkpt lat="39.14317" lon="32.99333">
        <ele>1044.003106</ele>
        <time>2021-11-16T04:32:31.661Z</time>
      </trkpt>
      <trkpt lat="39.1436" lon="32.99271">
        <ele>1045.320169</ele>
        <time>2021-11-16T04:32:51.766Z</time>
      </trkpt>
      <trkpt lat="39.14385" lon="32.99195">
        <ele>1046.612182</ele>
        <time>2021-11-16T04:33:11.619Z</time>
      </trkpt>
      <trkpt lat="39.14399" lon="32.99115">
        <ele>1047.86095</ele>
        <time>2021-11-16T04:33:31.520Z</time>
      </trkpt>
      <trkpt lat="39.14414" lon="32.98945">
        <ele>1050.437518</ele>
        <time>2021-11-16T04:34:10.956Z</time>
      </trkpt>
      <trkpt lat="39.14417" lon="32.98883">
        <ele>1051.07701</ele>
        <time>2021-11-16T04:34:24.575Z</time>
      </trkpt>
      <trkpt lat="39.14431" lon="32.98842">
        <ele>1051.547985</ele>
        <time>2021-11-16T04:34:34.403Z</time>
      </trkpt>
      <trkpt lat="39.14595" lon="32.98549">
        <ele>1054.849149</ele>
        <time>2021-11-16T04:35:48.751Z</time>
      </trkpt>
      <trkpt lat="39.14975" lon="32.97869">
        <ele>1063.583564</ele>
        <time>2021-11-16T04:38:46.443Z</time>
      </trkpt>
      <trkpt lat="39.15934" lon="32.96154">
        <ele>1102.375108</ele>
        <time>2021-11-16T04:47:29.312Z</time>
      </trkpt>
      <trkpt lat="39.16331" lon="32.95242">
        <ele>1117.022655</ele>
        <time>2021-11-16T04:51:28.563Z</time>
      </trkpt>
      <trkpt lat="39.16497" lon="32.94795">
        <ele>1121.498846</ele>
        <time>2021-11-16T04:53:10.937Z</time>
      </trkpt>
      <trkpt lat="39.16711" lon="32.94231">
        <ele>1126.987374</ele>
        <time>2021-11-16T04:55:20.323Z</time>
      </trkpt>
      <trkpt lat="39.1673" lon="32.9421">
        <ele>1127.392505</ele>
        <time>2021-11-16T04:55:27.415Z</time>
      </trkpt>
      <trkpt lat="39.16982" lon="32.93849">
        <ele>1133.877729</ele>
        <time>2021-11-16T04:57:18.041Z</time>
      </trkpt>
      <trkpt lat="39.17032" lon="32.93794">
        <ele>1135.03128</ele>
        <time>2021-11-16T04:57:37.323Z</time>
      </trkpt>
      <trkpt lat="39.17111" lon="32.93721">
        <ele>1136.649049</ele>
        <time>2021-11-16T04:58:05.257Z</time>
      </trkpt>
      <trkpt lat="39.17227" lon="32.93626">
        <ele>1138.80058</ele>
        <time>2021-11-16T04:58:44.049Z</time>
      </trkpt>
      <trkpt lat="39.17264" lon="32.93603">
        <ele>1139.645685</ele>
        <time>2021-11-16T04:58:56.223Z</time>
      </trkpt>
      <trkpt lat="39.17307" lon="32.93595">
        <ele>1140.522707</ele>
        <time>2021-11-16T04:59:09.144Z</time>
      </trkpt>
      <trkpt lat="39.17332" lon="32.93592">
        <ele>1141.026271</ele>
        <time>2021-11-16T04:59:16.765Z</time>
      </trkpt>
      <trkpt lat="39.17523" lon="32.93573">
        <ele>1145.239604</ele>
        <time>2021-11-16T05:00:17.435Z</time>
      </trkpt>
      <trkpt lat="39.17566" lon="32.93564">
        <ele>1146.240159</ele>
        <time>2021-11-16T05:00:31.100Z</time>
      </trkpt>
      <trkpt lat="39.17685" lon="32.93518">
        <ele>1149.023392</ele>
        <time>2021-11-16T05:01:09.249Z</time>
      </trkpt>
      <trkpt lat="39.17762" lon="32.93481">
        <ele>1150.950288</ele>
        <time>2021-11-16T05:01:34.859Z</time>
      </trkpt>
      <trkpt lat="39.17806" lon="32.9345">
        <ele>1152.476946</ele>
        <time>2021-11-16T05:01:51.078Z</time>
      </trkpt>
      <trkpt lat="39.18177" lon="32.9311">
        <ele>1166.713782</ele>
        <time>2021-11-16T05:04:30.690Z</time>
      </trkpt>
      <trkpt lat="39.18547" lon="32.92786">
        <ele>1182.417325</ele>
        <time>2021-11-16T05:07:13.591Z</time>
      </trkpt>
      <trkpt lat="39.18717" lon="32.92606">
        <ele>1190.622973</ele>
        <time>2021-11-16T05:08:32.186Z</time>
      </trkpt>
      <trkpt lat="39.19045" lon="32.92285">
        <ele>1210.7585</ele>
        <time>2021-11-16T05:11:26.003Z</time>
      </trkpt>
      <trkpt lat="39.19136" lon="32.92182">
        <ele>1217.83271</ele>
        <time>2021-11-16T05:12:21.588Z</time>
      </trkpt>
      <trkpt lat="39.19232" lon="32.9206">
        <ele>1225.466489</ele>
        <time>2021-11-16T05:13:25.507Z</time>
      </trkpt>
      <trkpt lat="39.19259" lon="32.92019">
        <ele>1227.617542</ele>
        <time>2021-11-16T05:13:43.770Z</time>
      </trkpt>
      <trkpt lat="39.19298" lon="32.91959">
        <ele>1230.765401</ele>
        <time>2021-11-16T05:14:09.116Z</time>
      </trkpt>
      <trkpt lat="39.1936" lon="32.91898">
        <ele>1233.468154</ele>
        <time>2021-11-16T05:14:38.120Z</time>
      </trkpt>
      <trkpt lat="39.19406" lon="32.91864">
        <ele>1234.889022</ele>
        <time>2021-11-16T05:14:55.747Z</time>
      </trkpt>
      <trkpt lat="39.19412" lon="32.9186">
        <ele>1235.075315</ele>
        <time>2021-11-16T05:14:58.060Z</time>
      </trkpt>
      <trkpt lat="39.19505" lon="32.91814">
        <ele>1237.274958</ele>
        <time>2021-11-16T05:15:26.484Z</time>
      </trkpt>
      <trkpt lat="39.1957" lon="32.91772">
        <ele>1238.166787</ele>
        <time>2021-11-16T05:15:46.475Z</time>
      </trkpt>
      <trkpt lat="39.19689" lon="32.91648">
        <ele>1239.580056</ele>
        <time>2021-11-16T05:16:26.034Z</time>
      </trkpt>
      <trkpt lat="39.19775" lon="32.9159">
        <ele>1240.206476</ele>
        <time>2021-11-16T05:16:49.611Z</time>
      </trkpt>
      <trkpt lat="39.19808" lon="32.91578">
        <ele>1240.211581</ele>
        <time>2021-11-16T05:16:57.823Z</time>
      </trkpt>
      <trkpt lat="39.1996" lon="32.91565">
        <ele>1240.095318</ele>
        <time>2021-11-16T05:17:31.239Z</time>
      </trkpt>
      <trkpt lat="39.20034" lon="32.91539">
        <ele>1239.356383</ele>
        <time>2021-11-16T05:17:46.416Z</time>
      </trkpt>
      <trkpt lat="39.20062" lon="32.91518">
        <ele>1239.05294</ele>
        <time>2021-11-16T05:17:52.476Z</time>
      </trkpt>
      <trkpt lat="39.20141" lon="32.91441">
        <ele>1238.135612</ele>
        <time>2021-11-16T05:18:11.013Z</time>
      </trkpt>
      <trkpt lat="39.20198" lon="32.91376">
        <ele>1237.472799</ele>
        <time>2021-11-16T05:18:25.301Z</time>
      </trkpt>
      <trkpt lat="39.20227" lon="32.91328">
        <ele>1237.064603</ele>
        <time>2021-11-16T05:18:34.729Z</time>
      </trkpt>
      <trkpt lat="39.20254" lon="32.91266">
        <ele>1237.145501</ele>
        <time>2021-11-16T05:18:46.565Z</time>
      </trkpt>
      <trkpt lat="39.20392" lon="32.90713">
        <ele>1242.003891</ele>
        <time>2021-11-16T05:20:47.496Z</time>
      </trkpt>
      <trkpt lat="39.20513" lon="32.90261">
        <ele>1247.850827</ele>
        <time>2021-11-16T05:22:34.329Z</time>
      </trkpt>
      <trkpt lat="39.2054" lon="32.90174">
        <ele>1249.034969</ele>
        <time>2021-11-16T05:22:54.695Z</time>
      </trkpt>
      <trkpt lat="39.20597" lon="32.90024">
        <ele>1251.203595</ele>
        <time>2021-11-16T05:23:31.736Z</time>
      </trkpt>
      <trkpt lat="39.20765" lon="32.89656">
        <ele>1258.421457</ele>
        <time>2021-11-16T05:25:13.894Z</time>
      </trkpt>
      <trkpt lat="39.20891" lon="32.89378">
        <ele>1265.305301</ele>
        <time>2021-11-16T05:26:36.964Z</time>
      </trkpt>
      <trkpt lat="39.21018" lon="32.89097">
        <ele>1273.917899</ele>
        <time>2021-11-16T05:28:11.403Z</time>
      </trkpt>
      <trkpt lat="39.21169" lon="32.88768">
        <ele>1279.818108</ele>
        <time>2021-11-16T05:29:44.312Z</time>
      </trkpt>
      <trkpt lat="39.21217" lon="32.88711">
        <ele>1278.371121</ele>
        <time>2021-11-16T05:29:55.898Z</time>
      </trkpt>
      <trkpt lat="39.21254" lon="32.8863">
        <ele>1276.72855</ele>
        <time>2021-11-16T05:30:07.581Z</time>
      </trkpt>
      <trkpt lat="39.21321" lon="32.88553">
        <ele>1273.014299</ele>
        <time>2021-11-16T05:30:20.956Z</time>
      </trkpt>
      <trkpt lat="39.21351" lon="32.88507">
        <ele>1270.846094</ele>
        <time>2021-11-16T05:30:27.970Z</time>
      </trkpt>
      <trkpt lat="39.21381" lon="32.88451">
        <ele>1268.399381</ele>
        <time>2021-11-16T05:30:36.080Z</time>
      </trkpt>
      <trkpt lat="39.21393" lon="32.88413">
        <ele>1267.358721</ele>
        <time>2021-11-16T05:30:41.029Z</time>
      </trkpt>
      <trkpt lat="39.21475" lon="32.88151">
        <ele>1261.549615</ele>
        <time>2021-11-16T05:31:18.467Z</time>
      </trkpt>
      <trkpt lat="39.21483" lon="32.88112">
        <ele>1260.81198</ele>
        <time>2021-11-16T05:31:23.982Z</time>
      </trkpt>
      <trkpt lat="39.21487" lon="32.88091">
        <ele>1260.421363</ele>
        <time>2021-11-16T05:31:26.814Z</time>
      </trkpt>
      <trkpt lat="39.21488" lon="32.87958">
        <ele>1257.910818</ele>
        <time>2021-11-16T05:31:44.417Z</time>
      </trkpt>
      <trkpt lat="39.21649" lon="32.8749">
        <ele>1246.989432</ele>
        <time>2021-11-16T05:32:51.000Z</time>
      </trkpt>
      <trkpt lat="39.21696" lon="32.87309">
        <ele>1241.97656</ele>
        <time>2021-11-16T05:33:14.858Z</time>
      </trkpt>
      <trkpt lat="39.21704" lon="32.87255">
        <ele>1240.208343</ele>
        <time>2021-11-16T05:33:21.569Z</time>
      </trkpt>
      <trkpt lat="39.21706" lon="32.87219">
        <ele>1239.041061</ele>
        <time>2021-11-16T05:33:25.884Z</time>
      </trkpt>
      <trkpt lat="39.21706" lon="32.87089">
        <ele>1234.833181</ele>
        <time>2021-11-16T05:33:41.196Z</time>
      </trkpt>
      <trkpt lat="39.21699" lon="32.8698">
        <ele>1231.162639</ele>
        <time>2021-11-16T05:33:54.337Z</time>
      </trkpt>
      <trkpt lat="39.21705" lon="32.86933">
        <ele>1229.58405</ele>
        <time>2021-11-16T05:34:00.092Z</time>
      </trkpt>
      <trkpt lat="39.21733" lon="32.86792">
        <ele>1224.661784</ele>
        <time>2021-11-16T05:34:17.749Z</time>
      </trkpt>
      <trkpt lat="39.21795" lon="32.86601">
        <ele>1217.179355</ele>
        <time>2021-11-16T05:34:42.274Z</time>
      </trkpt>
      <trkpt lat="39.21818" lon="32.86417">
        <ele>1210.319093</ele>
        <time>2021-11-16T05:35:03.847Z</time>
      </trkpt>
      <trkpt lat="39.21815" lon="32.86335">
        <ele>1208.08179</ele>
        <time>2021-11-16T05:35:13.728Z</time>
      </trkpt>
      <trkpt lat="39.21804" lon="32.86289">
        <ele>1206.770033</ele>
        <time>2021-11-16T05:35:19.786Z</time>
      </trkpt>
      <trkpt lat="39.21753" lon="32.85966">
        <ele>1201.219343</ele>
        <time>2021-11-16T05:36:06.443Z</time>
      </trkpt>
      <trkpt lat="39.21755" lon="32.85899">
        <ele>1199.463661</ele>
        <time>2021-11-16T05:36:15.336Z</time>
      </trkpt>
      <trkpt lat="39.21774" lon="32.85825">
        <ele>1197.442364</ele>
        <time>2021-11-16T05:36:24.962Z</time>
      </trkpt>
      <trkpt lat="39.2178" lon="32.85772">
        <ele>1196.041736</ele>
        <time>2021-11-16T05:36:31.331Z</time>
      </trkpt>
      <trkpt lat="39.21778" lon="32.85701">
        <ele>1192.588838</ele>
        <time>2021-11-16T05:36:39.423Z</time>
      </trkpt>
      <trkpt lat="39.21766" lon="32.85533">
        <ele>1184.307053</ele>
        <time>2021-11-16T05:36:58.148Z</time>
      </trkpt>
      <trkpt lat="39.21748" lon="32.8537">
        <ele>1176.129431</ele>
        <time>2021-11-16T05:37:16.416Z</time>
      </trkpt>
      <trkpt lat="39.21743" lon="32.85287">
        <ele>1172.452632</ele>
        <time>2021-11-16T05:37:26.092Z</time>
      </trkpt>
      <trkpt lat="39.21736" lon="32.85253">
        <ele>1171.446986</ele>
        <time>2021-11-16T05:37:30.264Z</time>
      </trkpt>
      <trkpt lat="39.21724" lon="32.85214">
        <ele>1170.2312</ele>
        <time>2021-11-16T05:37:35.498Z</time>
      </trkpt>
      <trkpt lat="39.21728" lon="32.85126">
        <ele>1167.714494</ele>
        <time>2021-11-16T05:37:46.726Z</time>
      </trkpt>
      <trkpt lat="39.21724" lon="32.85101">
        <ele>1166.994734</ele>
        <time>2021-11-16T05:37:49.967Z</time>
      </trkpt>
      <trkpt lat="39.21704" lon="32.85071">
        <ele>1165.899516</ele>
        <time>2021-11-16T05:37:55.051Z</time>
      </trkpt>
      <trkpt lat="39.217" lon="32.85054">
        <ele>1165.433369</ele>
        <time>2021-11-16T05:37:57.371Z</time>
      </trkpt>
      <trkpt lat="39.21692" lon="32.8499">
        <ele>1163.717385</ele>
        <time>2021-11-16T05:38:05.797Z</time>
      </trkpt>
      <trkpt lat="39.21717" lon="32.84848">
        <ele>1159.797252</ele>
        <time>2021-11-16T05:38:23.741Z</time>
      </trkpt>
      <trkpt lat="39.21729" lon="32.84679">
        <ele>1154.583986</ele>
        <time>2021-11-16T05:38:44.004Z</time>
      </trkpt>
      <trkpt lat="39.2173" lon="32.84543">
        <ele>1151.03938</ele>
        <time>2021-11-16T05:39:01.057Z</time>
      </trkpt>
      <trkpt lat="39.21747" lon="32.84354">
        <ele>1147.063843</ele>
        <time>2021-11-16T05:39:25.679Z</time>
      </trkpt>
      <trkpt lat="39.21744" lon="32.84292">
        <ele>1146.255261</ele>
        <time>2021-11-16T05:39:34.076Z</time>
      </trkpt>
      <trkpt lat="39.21734" lon="32.84226">
        <ele>1145.375665</ele>
        <time>2021-11-16T05:39:43.537Z</time>
      </trkpt>
      <trkpt lat="39.21674" lon="32.83884">
        <ele>1143.723245</ele>
        <time>2021-11-16T05:40:39.705Z</time>
      </trkpt>
      <trkpt lat="39.2166" lon="32.83832">
        <ele>1143.683153</ele>
        <time>2021-11-16T05:40:49.243Z</time>
      </trkpt>
      <trkpt lat="39.21597" lon="32.8373">
        <ele>1143.592486</ele>
        <time>2021-11-16T05:41:11.982Z</time>
      </trkpt>
      <trkpt lat="39.21559" lon="32.83682">
        <ele>1143.562781</ele>
        <time>2021-11-16T05:41:23.843Z</time>
      </trkpt>
      <trkpt lat="39.21517" lon="32.83616">
        <ele>1143.5258</ele>
        <time>2021-11-16T05:41:38.305Z</time>
      </trkpt>
      <trkpt lat="39.21448" lon="32.83526">
        <ele>1143.448355</ele>
        <time>2021-11-16T05:41:59.487Z</time>
      </trkpt>
      <trkpt lat="39.21341" lon="32.83408">
        <ele>1143.312644</ele>
        <time>2021-11-16T05:42:30.563Z</time>
      </trkpt>
      <trkpt lat="39.21322" lon="32.83368">
        <ele>1143.289057</ele>
        <time>2021-11-16T05:42:38.722Z</time>
      </trkpt>
      <trkpt lat="39.21243" lon="32.83242">
        <ele>1143.20751</ele>
        <time>2021-11-16T05:43:06.673Z</time>
      </trkpt>
      <trkpt lat="39.21165" lon="32.83151">
        <ele>1142.404075</ele>
        <time>2021-11-16T05:43:28.469Z</time>
      </trkpt>
      <trkpt lat="39.21011" lon="32.82867">
        <ele>1138.862386</ele>
        <time>2021-11-16T05:44:18.055Z</time>
      </trkpt>
      <trkpt lat="39.2095" lon="32.82668">
        <ele>1135.224821</ele>
        <time>2021-11-16T05:44:46.503Z</time>
      </trkpt>
      <trkpt lat="39.20838" lon="32.82416">
        <ele>1130.295592</ele>
        <time>2021-11-16T05:45:25.454Z</time>
      </trkpt>
      <trkpt lat="39.20749" lon="32.82277">
        <ele>1127.462285</ele>
        <time>2021-11-16T05:45:50.254Z</time>
      </trkpt>
      <trkpt lat="39.20668" lon="32.82133">
        <ele>1124.315176</ele>
        <time>2021-11-16T05:46:14.330Z</time>
      </trkpt>
      <trkpt lat="39.20509" lon="32.81811">
        <ele>1116.135312</ele>
        <time>2021-11-16T05:47:03.453Z</time>
      </trkpt>
      <trkpt lat="39.20431" lon="32.81682">
        <ele>1112.62834</ele>
        <time>2021-11-16T05:47:24.268Z</time>
      </trkpt>
      <trkpt lat="39.20387" lon="32.81592">
        <ele>1111.06769</ele>
        <time>2021-11-16T05:47:38.388Z</time>
      </trkpt>
      <trkpt lat="39.20205" lon="32.81282">
        <ele>1107.911305</ele>
        <time>2021-11-16T05:48:36.990Z</time>
      </trkpt>
      <trkpt lat="39.20139" lon="32.81182">
        <ele>1107.609425</ele>
        <time>2021-11-16T05:48:59.514Z</time>
      </trkpt>
      <trkpt lat="39.19989" lon="32.80928">
        <ele>1107.22236</ele>
        <time>2021-11-16T05:49:54.649Z</time>
      </trkpt>
      <trkpt lat="39.19765" lon="32.80542">
        <ele>1104.524386</ele>
        <time>2021-11-16T05:51:08.271Z</time>
      </trkpt>
      <trkpt lat="39.19618" lon="32.80249">
        <ele>1102.456602</ele>
        <time>2021-11-16T05:52:02.211Z</time>
      </trkpt>
      <trkpt lat="39.19614" lon="32.80233">
        <ele>1102.354669</ele>
        <time>2021-11-16T05:52:04.788Z</time>
      </trkpt>
      <trkpt lat="39.19637" lon="32.80182">
        <ele>1101.987247</ele>
        <time>2021-11-16T05:52:13.686Z</time>
      </trkpt>
      <trkpt lat="39.19726" lon="32.79946">
        <ele>1100.325111</ele>
        <time>2021-11-16T05:52:53.551Z</time>
      </trkpt>
      <trkpt lat="39.19738" lon="32.79886">
        <ele>1100.031369</ele>
        <time>2021-11-16T05:53:03.102Z</time>
      </trkpt>
      <trkpt lat="39.19802" lon="32.79434">
        <ele>1098.105048</ele>
        <time>2021-11-16T05:54:16.469Z</time>
      </trkpt>
      <trkpt lat="39.19822" lon="32.7921">
        <ele>1096.915293</ele>
        <time>2021-11-16T05:54:51.359Z</time>
      </trkpt>
      <trkpt lat="39.19905" lon="32.78844">
        <ele>1094.368589</ele>
        <time>2021-11-16T05:55:49.436Z</time>
      </trkpt>
      <trkpt lat="39.19929" lon="32.78762">
        <ele>1093.838817</ele>
        <time>2021-11-16T05:56:02.135Z</time>
      </trkpt>
      <trkpt lat="39.19984" lon="32.78612">
        <ele>1093.340544</ele>
        <time>2021-11-16T05:56:27.933Z</time>
      </trkpt>
      <trkpt lat="39.20157" lon="32.78025">
        <ele>1097.517763</ele>
        <time>2021-11-16T05:58:35.396Z</time>
      </trkpt>
      <trkpt lat="39.20218" lon="32.77753">
        <ele>1099.322052</ele>
        <time>2021-11-16T05:59:33.292Z</time>
      </trkpt>
      <trkpt lat="39.20228" lon="32.77635">
        <ele>1098.82005</ele>
        <time>2021-11-16T05:59:52.997Z</time>
      </trkpt>
      <trkpt lat="39.20229" lon="32.77416">
        <ele>1096.589715</ele>
        <time>2021-11-16T06:00:23.651Z</time>
      </trkpt>
      <trkpt lat="39.20267" lon="32.77015">
        <ele>1090.30335</ele>
        <time>2021-11-16T06:01:18.272Z</time>
      </trkpt>
      <trkpt lat="39.20325" lon="32.76718">
        <ele>1085.634292</ele>
        <time>2021-11-16T06:02:00.574Z</time>
      </trkpt>
      <trkpt lat="39.20338" lon="32.76534">
        <ele>1082.317197</ele>
        <time>2021-11-16T06:02:25.387Z</time>
      </trkpt>
      <trkpt lat="39.20328" lon="32.76017">
        <ele>1071.734375</ele>
        <time>2021-11-16T06:03:32.541Z</time>
      </trkpt>
      <trkpt lat="39.20267" lon="32.75752">
        <ele>1065.897263</ele>
        <time>2021-11-16T06:04:08.112Z</time>
      </trkpt>
      <trkpt lat="39.20232" lon="32.7554">
        <ele>1062.207084</ele>
        <time>2021-11-16T06:04:37.072Z</time>
      </trkpt>
      <trkpt lat="39.20228" lon="32.75462">
        <ele>1061.190882</ele>
        <time>2021-11-16T06:04:48.140Z</time>
      </trkpt>
      <trkpt lat="39.20236" lon="32.75373">
        <ele>1060.630488</ele>
        <time>2021-11-16T06:05:01.451Z</time>
      </trkpt>
      <trkpt lat="39.20272" lon="32.75248">
        <ele>1059.935553</ele>
        <time>2021-11-16T06:05:23.052Z</time>
      </trkpt>
      <trkpt lat="39.20275" lon="32.75197">
        <ele>1060.063633</ele>
        <time>2021-11-16T06:05:31.748Z</time>
      </trkpt>
      <trkpt lat="39.2027" lon="32.75127">
        <ele>1060.241539</ele>
        <time>2021-11-16T06:05:44.607Z</time>
      </trkpt>
      <trkpt lat="39.20303" lon="32.75044">
        <ele>1060.47736</ele>
        <time>2021-11-16T06:06:03.174Z</time>
      </trkpt>
      <trkpt lat="39.20327" lon="32.74969">
        <ele>1060.798773</ele>
        <time>2021-11-16T06:06:18.586Z</time>
      </trkpt>
      <trkpt lat="39.2034" lon="32.74963">
        <ele>1060.872735</ele>
        <time>2021-11-16T06:06:22.262Z</time>
      </trkpt>
      <trkpt lat="39.2035" lon="32.74901">
        <ele>1061.126272</ele>
        <time>2021-11-16T06:06:34.031Z</time>
      </trkpt>
      <trkpt lat="39.20352" lon="32.74822">
        <ele>1061.41775</ele>
        <time>2021-11-16T06:06:48.493Z</time>
      </trkpt>
      <trkpt lat="39.20368" lon="32.74706">
        <ele>1061.474935</ele>
        <time>2021-11-16T06:07:08.781Z</time>
      </trkpt>
      <trkpt lat="39.20403" lon="32.74612">
        <ele>1061.525889</ele>
        <time>2021-11-16T06:07:26.610Z</time>
      </trkpt>
      <trkpt lat="39.20412" lon="32.74564">
        <ele>1061.647707</ele>
        <time>2021-11-16T06:07:35.410Z</time>
      </trkpt>
      <trkpt lat="39.20414" lon="32.74488">
        <ele>1061.844782</ele>
        <time>2021-11-16T06:07:49.353Z</time>
      </trkpt>
      <trkpt lat="39.20423" lon="32.74435">
        <ele>1061.982811</ele>
        <time>2021-11-16T06:07:59.265Z</time>
      </trkpt>
      <trkpt lat="39.2044" lon="32.74369">
        <ele>1062.173783</ele>
        <time>2021-11-16T06:08:12.398Z</time>
      </trkpt>
      <trkpt lat="39.20448" lon="32.74315">
        <ele>1062.361649</ele>
        <time>2021-11-16T06:08:22.802Z</time>
      </trkpt>
      <trkpt lat="39.20544" lon="32.74336">
        <ele>1062.785523</ele>
        <time>2021-11-16T06:08:45.916Z</time>
      </trkpt>
      <trkpt lat="39.20645" lon="32.74359">
        <ele>1063.240171</ele>
        <time>2021-11-16T06:09:10.618Z</time>
      </trkpt>
      <trkpt lat="39.20869" lon="32.74401">
        <ele>1064.190445</ele>
        <time>2021-11-16T06:10:05.112Z</time>
      </trkpt>
      <trkpt lat="39.20913" lon="32.74409">
        <ele>1064.36567</ele>
        <time>2021-11-16T06:10:15.425Z</time>
      </trkpt>
      <trkpt lat="39.21371" lon="32.74464">
        <ele>1065.67301</ele>
        <time>2021-11-16T06:12:01.775Z</time>
      </trkpt>
      <trkpt lat="39.21683" lon="32.74511">
        <ele>1068.014973</ele>
        <time>2021-11-16T06:13:22.102Z</time>
      </trkpt>
      <trkpt lat="39.21854" lon="32.74526">
        <ele>1069.43028</ele>
        <time>2021-11-16T06:14:06.256Z</time>
      </trkpt>
      <trkpt lat="39.22027" lon="32.7453">
        <ele>1070.558448</ele>
        <time>2021-11-16T06:14:49.366Z</time>
      </trkpt>
      <trkpt lat="39.22082" lon="32.74528">
        <ele>1070.708164</ele>
        <time>2021-11-16T06:15:02.315Z</time>
      </trkpt>
      <trkpt lat="39.22157" lon="32.74526">
        <ele>1070.915022</ele>
        <time>2021-11-16T06:15:19.640Z</time>
      </trkpt>
      <trkpt lat="39.22169" lon="32.74525">
        <ele>1070.94771</ele>
        <time>2021-11-16T06:15:22.285Z</time>
      </trkpt>
      <trkpt lat="39.22256" lon="32.74513">
        <ele>1071.012232</ele>
        <time>2021-11-16T06:15:41.912Z</time>
      </trkpt>
      <trkpt lat="39.2232" lon="32.74505">
        <ele>1071.035944</ele>
        <time>2021-11-16T06:15:56.151Z</time>
      </trkpt>
      <trkpt lat="39.22338" lon="32.745">
        <ele>1071.042758</ele>
        <time>2021-11-16T06:16:00.160Z</time>
      </trkpt>
      <trkpt lat="39.22358" lon="32.74496">
        <ele>1071.050165</ele>
        <time>2021-11-16T06:16:04.728Z</time>
      </trkpt>
      <trkpt lat="39.22858" lon="32.74331">
        <ele>1071.982454</ele>
        <time>2021-11-16T06:18:03.599Z</time>
      </trkpt>
      <trkpt lat="39.22986" lon="32.74295">
        <ele>1072.23953</ele>
        <time>2021-11-16T06:18:32.314Z</time>
      </trkpt>
      <trkpt lat="39.23109" lon="32.74273">
        <ele>1073.166921</ele>
        <time>2021-11-16T06:19:02.597Z</time>
      </trkpt>
      <trkpt lat="39.23284" lon="32.74255">
        <ele>1076.323608</ele>
        <time>2021-11-16T06:19:55.447Z</time>
      </trkpt>
      <trkpt lat="39.23344" lon="32.74253">
        <ele>1077.751436</ele>
        <time>2021-11-16T06:20:15.060Z</time>
      </trkpt>
      <trkpt lat="39.2351" lon="32.74259">
        <ele>1081.221348</ele>
        <time>2021-11-16T06:21:08.482Z</time>
      </trkpt>
      <trkpt lat="39.23754" lon="32.74281">
        <ele>1084.682866</ele>
        <time>2021-11-16T06:22:14.872Z</time>
      </trkpt>
      <trkpt lat="39.23975" lon="32.74307">
        <ele>1087.884034</ele>
        <time>2021-11-16T06:23:13.828Z</time>
      </trkpt>
      <trkpt lat="39.23985" lon="32.74306">
        <ele>1088.239323</ele>
        <time>2021-11-16T06:23:16.942Z</time>
      </trkpt>
      <trkpt lat="39.23992" lon="32.74303">
        <ele>1088.495821</ele>
        <time>2021-11-16T06:23:19.238Z</time>
      </trkpt>
      <trkpt lat="39.23998" lon="32.74296">
        <ele>1088.757802</ele>
        <time>2021-11-16T06:23:22.811Z</time>
      </trkpt>
      <trkpt lat="39.24014" lon="32.74183">
        <ele>1091.768792</ele>
        <time>2021-11-16T06:23:55.173Z</time>
      </trkpt>
      <trkpt lat="39.24053" lon="32.7372">
        <ele>1107.649609</ele>
        <time>2021-11-16T06:26:22.726Z</time>
      </trkpt>
      <trkpt lat="39.24118" lon="32.73192">
        <ele>1124.174324</ele>
        <time>2021-11-16T06:29:01.110Z</time>
      </trkpt>
      <trkpt lat="39.24139" lon="32.72953">
        <ele>1129.432963</ele>
        <time>2021-11-16T06:30:02.993Z</time>
      </trkpt>
      <trkpt lat="39.24168" lon="32.72254">
        <ele>1141.07782</ele>
        <time>2021-11-16T06:32:50.582Z</time>
      </trkpt>
      <trkpt lat="39.2418" lon="32.72096">
        <ele>1142.762406</ele>
        <time>2021-11-16T06:33:25.321Z</time>
      </trkpt>
      <trkpt lat="39.24211" lon="32.7188">
        <ele>1143.328187</ele>
        <time>2021-11-16T06:34:06.442Z</time>
      </trkpt>
      <trkpt lat="39.2425" lon="32.71679">
        <ele>1141.513162</ele>
        <time>2021-11-16T06:34:36.757Z</time>
      </trkpt>
      <trkpt lat="39.2427" lon="32.71508">
        <ele>1138.774428</ele>
        <time>2021-11-16T06:34:59.521Z</time>
      </trkpt>
      <trkpt lat="39.24304" lon="32.71396">
        <ele>1136.457093</ele>
        <time>2021-11-16T06:35:15.269Z</time>
      </trkpt>
      <trkpt lat="39.24394" lon="32.71166">
        <ele>1132.240105</ele>
        <time>2021-11-16T06:35:50.205Z</time>
      </trkpt>
      <trkpt lat="39.24511" lon="32.70846">
        <ele>1128.45639</ele>
        <time>2021-11-16T06:36:40.262Z</time>
      </trkpt>
      <trkpt lat="39.24559" lon="32.70732">
        <ele>1127.574924</ele>
        <time>2021-11-16T06:37:00.659Z</time>
      </trkpt>
      <trkpt lat="39.24611" lon="32.70627">
        <ele>1127.581628</ele>
        <time>2021-11-16T06:37:22.328Z</time>
      </trkpt>
      <trkpt lat="39.24679" lon="32.70498">
        <ele>1127.793412</ele>
        <time>2021-11-16T06:37:50.568Z</time>
      </trkpt>
      <trkpt lat="39.24748" lon="32.70384">
        <ele>1128.253827</ele>
        <time>2021-11-16T06:38:17.283Z</time>
      </trkpt>
      <trkpt lat="39.24931" lon="32.70159">
        <ele>1129.850324</ele>
        <time>2021-11-16T06:39:19.370Z</time>
      </trkpt>
      <trkpt lat="39.24985" lon="32.70067">
        <ele>1130.616989</ele>
        <time>2021-11-16T06:39:42.531Z</time>
      </trkpt>
      <trkpt lat="39.25336" lon="32.69323">
        <ele>1138.111274</ele>
        <time>2021-11-16T06:42:42.786Z</time>
      </trkpt>
      <trkpt lat="39.25455" lon="32.69117">
        <ele>1140.293518</ele>
        <time>2021-11-16T06:43:36.587Z</time>
      </trkpt>
      <trkpt lat="39.25663" lon="32.68778">
        <ele>1143.346416</ele>
        <time>2021-11-16T06:45:02.949Z</time>
      </trkpt>
      <trkpt lat="39.25811" lon="32.68593">
        <ele>1145.070058</ele>
        <time>2021-11-16T06:45:55.171Z</time>
      </trkpt>
      <trkpt lat="39.25857" lon="32.6855">
        <ele>1145.546002</ele>
        <time>2021-11-16T06:46:09.723Z</time>
      </trkpt>
      <trkpt lat="39.25948" lon="32.68485">
        <ele>1146.720307</ele>
        <time>2021-11-16T06:46:37.160Z</time>
      </trkpt>
      <trkpt lat="39.26156" lon="32.68371">
        <ele>1149.464062</ele>
        <time>2021-11-16T06:47:38.957Z</time>
      </trkpt>
      <trkpt lat="39.26323" lon="32.68332">
        <ele>1151.515969</ele>
        <time>2021-11-16T06:48:24.971Z</time>
      </trkpt>
      <trkpt lat="39.26573" lon="32.68293">
        <ele>1154.669336</ele>
        <time>2021-11-16T06:49:33.307Z</time>
      </trkpt>
      <trkpt lat="39.26648" lon="32.68287">
        <ele>1155.71187</ele>
        <time>2021-11-16T06:49:54.278Z</time>
      </trkpt>
      <trkpt lat="39.26708" lon="32.68293">
        <ele>1156.533933</ele>
        <time>2021-11-16T06:50:10.995Z</time>
      </trkpt>
      <trkpt lat="39.26875" lon="32.68263">
        <ele>1159.079706</ele>
        <time>2021-11-16T06:50:58.572Z</time>
      </trkpt>
      <trkpt lat="39.27044" lon="32.68255">
        <ele>1162.007811</ele>
        <time>2021-11-16T06:51:47.666Z</time>
      </trkpt>
      <trkpt lat="39.2706" lon="32.68252">
        <ele>1162.291355</ele>
        <time>2021-11-16T06:51:52.547Z</time>
      </trkpt>
      <trkpt lat="39.27091" lon="32.6824">
        <ele>1162.914947</ele>
        <time>2021-11-16T06:52:02.250Z</time>
      </trkpt>
      <trkpt lat="39.27195" lon="32.68171">
        <ele>1165.501592</ele>
        <time>2021-11-16T06:52:38.280Z</time>
      </trkpt>
      <trkpt lat="39.27257" lon="32.68119">
        <ele>1167.085446</ele>
        <time>2021-11-16T06:53:02.153Z</time>
      </trkpt>
      <trkpt lat="39.27278" lon="32.68114">
        <ele>1167.498755</ele>
        <time>2021-11-16T06:53:08.920Z</time>
      </trkpt>
      <trkpt lat="39.27327" lon="32.6812">
        <ele>1168.445588</ele>
        <time>2021-11-16T06:53:24.041Z</time>
      </trkpt>
      <trkpt lat="39.27342" lon="32.68115">
        <ele>1168.748193</ele>
        <time>2021-11-16T06:53:28.499Z</time>
      </trkpt>
      <trkpt lat="39.2735" lon="32.68104">
        <ele>1168.971657</ele>
        <time>2021-11-16T06:53:32.490Z</time>
      </trkpt>
      <trkpt lat="39.27351" lon="32.68051">
        <ele>1169.769449</ele>
        <time>2021-11-16T06:53:44.678Z</time>
      </trkpt>
      <trkpt lat="39.27361" lon="32.6803">
        <ele>1170.14605</ele>
        <time>2021-11-16T06:53:49.524Z</time>
      </trkpt>
      <trkpt lat="39.27393" lon="32.67994">
        <ele>1170.243649</ele>
        <time>2021-11-16T06:54:00.832Z</time>
      </trkpt>
      <trkpt lat="39.27432" lon="32.67962">
        <ele>1170.343138</ele>
        <time>2021-11-16T06:54:11.840Z</time>
      </trkpt>
      <trkpt lat="39.27446" lon="32.67943">
        <ele>1170.387233</ele>
        <time>2021-11-16T06:54:16.012Z</time>
      </trkpt>
      <trkpt lat="39.27451" lon="32.67933">
        <ele>1170.405704</ele>
        <time>2021-11-16T06:54:18.025Z</time>
      </trkpt>
      <trkpt lat="39.27452" lon="32.6792">
        <ele>1170.42846</ele>
        <time>2021-11-16T06:54:20.103Z</time>
      </trkpt>
      <trkpt lat="39.27449" lon="32.67842">
        <ele>1170.557236</ele>
        <time>2021-11-16T06:54:32.675Z</time>
      </trkpt>
      <trkpt lat="39.27443" lon="32.67769">
        <ele>1170.669123</ele>
        <time>2021-11-16T06:54:44.187Z</time>
      </trkpt>
      <trkpt lat="39.27437" lon="32.67544">
        <ele>1171.983929</ele>
        <time>2021-11-16T06:55:26.824Z</time>
      </trkpt>
      <trkpt lat="39.27428" lon="32.67461">
        <ele>1173.174659</ele>
        <time>2021-11-16T06:55:46.488Z</time>
      </trkpt>
      <trkpt lat="39.27364" lon="32.67126">
        <ele>1180.580285</ele>
        <time>2021-11-16T06:57:18.174Z</time>
      </trkpt>
      <trkpt lat="39.2736" lon="32.67079">
        <ele>1181.714851</ele>
        <time>2021-11-16T06:57:30.883Z</time>
      </trkpt>
      <trkpt lat="39.27351" lon="32.66975">
        <ele>1184.273071</ele>
        <time>2021-11-16T06:57:59.397Z</time>
      </trkpt>
      <trkpt lat="39.27348" lon="32.66913">
        <ele>1185.803212</ele>
        <time>2021-11-16T06:58:16.241Z</time>
      </trkpt>
      <trkpt lat="39.27353" lon="32.66778">
        <ele>1189.150297</ele>
        <time>2021-11-16T06:58:52.359Z</time>
      </trkpt>
      <trkpt lat="39.27371" lon="32.6671">
        <ele>1190.93493</ele>
        <time>2021-11-16T06:59:12.016Z</time>
      </trkpt>
      <trkpt lat="39.27397" lon="32.66646">
        <ele>1193.332674</ele>
        <time>2021-11-16T06:59:32.890Z</time>
      </trkpt>
      <trkpt lat="39.27433" lon="32.66579">
        <ele>1196.033833</ele>
        <time>2021-11-16T06:59:57.363Z</time>
      </trkpt>
      <trkpt lat="39.27646" lon="32.66255">
        <ele>1212.509371</ele>
        <time>2021-11-16T07:02:17.424Z</time>
      </trkpt>
      <trkpt lat="39.27871" lon="32.65928">
        <ele>1231.708941</ele>
        <time>2021-11-16T07:04:48.388Z</time>
      </trkpt>
      <trkpt lat="39.28514" lon="32.64971">
        <ele>1291.760328</ele>
        <time>2021-11-16T07:12:38.507Z</time>
      </trkpt>
      <trkpt lat="39.28539" lon="32.64924">
        <ele>1293.051012</ele>
        <time>2021-11-16T07:12:51.401Z</time>
      </trkpt>
      <trkpt lat="39.28738" lon="32.64341">
        <ele>1279.775321</ele>
        <time>2021-11-16T07:14:12.456Z</time>
      </trkpt>
      <trkpt lat="39.28807" lon="32.64118">
        <ele>1274.061929</ele>
        <time>2021-11-16T07:14:42.604Z</time>
      </trkpt>
      <trkpt lat="39.28998" lon="32.63557">
        <ele>1264.293959</ele>
        <time>2021-11-16T07:16:06.217Z</time>
      </trkpt>
      <trkpt lat="39.29044" lon="32.63438">
        <ele>1262.193581</ele>
        <time>2021-11-16T07:16:24.593Z</time>
      </trkpt>
      <trkpt lat="39.29101" lon="32.63254">
        <ele>1258.069084</ele>
        <time>2021-11-16T07:16:50.463Z</time>
      </trkpt>
      <trkpt lat="39.29114" lon="32.63196">
        <ele>1256.070628</ele>
        <time>2021-11-16T07:16:57.988Z</time>
      </trkpt>
      <trkpt lat="39.29116" lon="32.63132">
        <ele>1253.537657</ele>
        <time>2021-11-16T07:17:05.620Z</time>
      </trkpt>
      <trkpt lat="39.29015" lon="32.62642">
        <ele>1233.042539</ele>
        <time>2021-11-16T07:18:03.919Z</time>
      </trkpt>
      <trkpt lat="39.2899" lon="32.62535">
        <ele>1228.440099</ele>
        <time>2021-11-16T07:18:16.934Z</time>
      </trkpt>
      <trkpt lat="39.28898" lon="32.6221">
        <ele>1215.324476</ele>
        <time>2021-11-16T07:18:57.541Z</time>
      </trkpt>
      <trkpt lat="39.28887" lon="32.62144">
        <ele>1212.741586</ele>
        <time>2021-11-16T07:19:05.523Z</time>
      </trkpt>
      <trkpt lat="39.28884" lon="32.62046">
        <ele>1208.861481</ele>
        <time>2021-11-16T07:19:16.878Z</time>
      </trkpt>
      <trkpt lat="39.28898" lon="32.61688">
        <ele>1194.060677</ele>
        <time>2021-11-16T07:19:58.412Z</time>
      </trkpt>
      <trkpt lat="39.28909" lon="32.61602">
        <ele>1190.383411</ele>
        <time>2021-11-16T07:20:08.474Z</time>
      </trkpt>
      <trkpt lat="39.28934" lon="32.61526">
        <ele>1186.890018</ele>
        <time>2021-11-16T07:20:17.935Z</time>
      </trkpt>
      <trkpt lat="39.2896" lon="32.61486">
        <ele>1184.689904</ele>
        <time>2021-11-16T07:20:23.894Z</time>
      </trkpt>
      <trkpt lat="39.29043" lon="32.61403">
        <ele>1179.039328</ele>
        <time>2021-11-16T07:20:39.518Z</time>
      </trkpt>
      <trkpt lat="39.29478" lon="32.6102">
        <ele>1151.757171</ele>
        <time>2021-11-16T07:21:58.321Z</time>
      </trkpt>
      <trkpt lat="39.29544" lon="32.60948">
        <ele>1148.011977</ele>
        <time>2021-11-16T07:22:11.789Z</time>
      </trkpt>
      <trkpt lat="39.29582" lon="32.60885">
        <ele>1146.065353</ele>
        <time>2021-11-16T07:22:21.815Z</time>
      </trkpt>
      <trkpt lat="39.29613" lon="32.60823">
        <ele>1145.33624</ele>
        <time>2021-11-16T07:22:31.417Z</time>
      </trkpt>
      <trkpt lat="39.30091" lon="32.59591">
        <ele>1130.760725</ele>
        <time>2021-11-16T07:25:54.925Z</time>
      </trkpt>
      <trkpt lat="39.30094" lon="32.59567">
        <ele>1130.199115</ele>
        <time>2021-11-16T07:25:57.964Z</time>
      </trkpt>
      <trkpt lat="39.30092" lon="32.59513">
        <ele>1128.915169</ele>
        <time>2021-11-16T07:26:04.715Z</time>
      </trkpt>
      <trkpt lat="39.30083" lon="32.5946">
        <ele>1127.648665</ele>
        <time>2021-11-16T07:26:11.149Z</time>
      </trkpt>
      <trkpt lat="39.30023" lon="32.59241">
        <ele>1117.773275</ele>
        <time>2021-11-16T07:26:37.626Z</time>
      </trkpt>
      <trkpt lat="39.29993" lon="32.59108">
        <ele>1112.638635</ele>
        <time>2021-11-16T07:26:53.564Z</time>
      </trkpt>
      <trkpt lat="39.29992" lon="32.59075">
        <ele>1111.427394</ele>
        <time>2021-11-16T07:26:57.566Z</time>
      </trkpt>
      <trkpt lat="39.29997" lon="32.59056">
        <ele>1110.720239</ele>
        <time>2021-11-16T07:26:59.834Z</time>
      </trkpt>
      <trkpt lat="39.30003" lon="32.59042">
        <ele>1110.121756</ele>
        <time>2021-11-16T07:27:01.888Z</time>
      </trkpt>
      <trkpt lat="39.30019" lon="32.59017">
        <ele>1108.956167</ele>
        <time>2021-11-16T07:27:05.754Z</time>
      </trkpt>
      <trkpt lat="39.30358" lon="32.58626">
        <ele>1097.983806</ele>
        <time>2021-11-16T07:28:23.579Z</time>
      </trkpt>
      <trkpt lat="39.30442" lon="32.58553">
        <ele>1095.963174</ele>
        <time>2021-11-16T07:28:41.726Z</time>
      </trkpt>
      <trkpt lat="39.30515" lon="32.58505">
        <ele>1094.694031</ele>
        <time>2021-11-16T07:28:56.684Z</time>
      </trkpt>
      <trkpt lat="39.31084" lon="32.5814">
        <ele>1086.087924</ele>
        <time>2021-11-16T07:30:53.870Z</time>
      </trkpt>
      <trkpt lat="39.31687" lon="32.57753">
        <ele>1090.801361</ele>
        <time>2021-11-16T07:33:42.585Z</time>
      </trkpt>
      <trkpt lat="39.31728" lon="32.57737">
        <ele>1091.333072</ele>
        <time>2021-11-16T07:33:55.475Z</time>
      </trkpt>
      <trkpt lat="39.31776" lon="32.57734">
        <ele>1092.451029</ele>
        <time>2021-11-16T07:34:10.848Z</time>
      </trkpt>
      <trkpt lat="39.31939" lon="32.57749">
        <ele>1095.724299</ele>
        <time>2021-11-16T07:35:03.237Z</time>
      </trkpt>
      <trkpt lat="39.31977" lon="32.57732">
        <ele>1096.172117</ele>
        <time>2021-11-16T07:35:15.033Z</time>
      </trkpt>
      <trkpt lat="39.32045" lon="32.5768">
        <ele>1097.037194</ele>
        <time>2021-11-16T07:35:34.953Z</time>
      </trkpt>
      <trkpt lat="39.32098" lon="32.57667">
        <ele>1096.711849</ele>
        <time>2021-11-16T07:35:46.225Z</time>
      </trkpt>
      <trkpt lat="39.32139" lon="32.57673">
        <ele>1095.9723</ele>
        <time>2021-11-16T07:35:53.977Z</time>
      </trkpt>
      <trkpt lat="39.32326" lon="32.57732">
        <ele>1091.965711</ele>
        <time>2021-11-16T07:36:26.277Z</time>
      </trkpt>
      <trkpt lat="39.32366" lon="32.57734">
        <ele>1090.958881</ele>
        <time>2021-11-16T07:36:33.044Z</time>
      </trkpt>
      <trkpt lat="39.33106" lon="32.57546">
        <ele>1075.898695</ele>
        <time>2021-11-16T07:38:45.335Z</time>
      </trkpt>
      <trkpt lat="39.33164" lon="32.57542">
        <ele>1075.705247</ele>
        <time>2021-11-16T07:38:57.322Z</time>
      </trkpt>
      <trkpt lat="39.33216" lon="32.5755">
        <ele>1075.913321</ele>
        <time>2021-11-16T07:39:09.458Z</time>
      </trkpt>
      <trkpt lat="39.33303" lon="32.57581">
        <ele>1076.281796</ele>
        <time>2021-11-16T07:39:33.103Z</time>
      </trkpt>
      <trkpt lat="39.33813" lon="32.57835">
        <ele>1085.507323</ele>
        <time>2021-11-16T07:42:13.893Z</time>
      </trkpt>
      <trkpt lat="39.34168" lon="32.58017">
        <ele>1087.105185</ele>
        <time>2021-11-16T07:43:42.532Z</time>
      </trkpt>
      <trkpt lat="39.35108" lon="32.58483">
        <ele>1094.842047</ele>
        <time>2021-11-16T07:47:58.239Z</time>
      </trkpt>
      <trkpt lat="39.35173" lon="32.58529">
        <ele>1095.179955</ele>
        <time>2021-11-16T07:48:17.397Z</time>
      </trkpt>
      <trkpt lat="39.35289" lon="32.58637">
        <ele>1095.259274</ele>
        <time>2021-11-16T07:48:48.605Z</time>
      </trkpt>
      <trkpt lat="39.35354" lon="32.58698">
        <ele>1095.19467</ele>
        <time>2021-11-16T07:49:05.130Z</time>
      </trkpt>
      <trkpt lat="39.35653" lon="32.58966">
        <ele>1096.074526</ele>
        <time>2021-11-16T07:50:28.633Z</time>
      </trkpt>
      <trkpt lat="39.35721" lon="32.59023">
        <ele>1096.712301</ele>
        <time>2021-11-16T07:50:50.277Z</time>
      </trkpt>
      <trkpt lat="39.35764" lon="32.59046">
        <ele>1097.301613</ele>
        <time>2021-11-16T07:51:03.236Z</time>
      </trkpt>
      <trkpt lat="39.36351" lon="32.59149">
        <ele>1106.611259</ele>
        <time>2021-11-16T07:53:54.514Z</time>
      </trkpt>
      <trkpt lat="39.36528" lon="32.59187">
        <ele>1108.242284</ele>
        <time>2021-11-16T07:54:39.821Z</time>
      </trkpt>
      <trkpt lat="39.3658" lon="32.59192">
        <ele>1108.550804</ele>
        <time>2021-11-16T07:54:52.177Z</time>
      </trkpt>
      <trkpt lat="39.36656" lon="32.5919">
        <ele>1109.160285</ele>
        <time>2021-11-16T07:55:10.450Z</time>
      </trkpt>
      <trkpt lat="39.36698" lon="32.59187">
        <ele>1109.668731</ele>
        <time>2021-11-16T07:55:20.983Z</time>
      </trkpt>
      <trkpt lat="39.36735" lon="32.59184">
        <ele>1110.117844</ele>
        <time>2021-11-16T07:55:30.608Z</time>
      </trkpt>
      <trkpt lat="39.37107" lon="32.59169">
        <ele>1117.193126</ele>
        <time>2021-11-16T07:57:21.972Z</time>
      </trkpt>
      <trkpt lat="39.37285" lon="32.59162">
        <ele>1121.905453</ele>
        <time>2021-11-16T07:58:23.449Z</time>
      </trkpt>
      <trkpt lat="39.37329" lon="32.59171">
        <ele>1123.164765</ele>
        <time>2021-11-16T07:58:38.371Z</time>
      </trkpt>
      <trkpt lat="39.37374" lon="32.59191">
        <ele>1124.168883</ele>
        <time>2021-11-16T07:58:53.497Z</time>
      </trkpt>
      <trkpt lat="39.37494" lon="32.59259">
        <ele>1126.394295</ele>
        <time>2021-11-16T07:59:30.174Z</time>
      </trkpt>
      <trkpt lat="39.37606" lon="32.59316">
        <ele>1128.73264</ele>
        <time>2021-11-16T08:00:04.428Z</time>
      </trkpt>
      <trkpt lat="39.37622" lon="32.59324">
        <ele>1129.065703</ele>
        <time>2021-11-16T08:00:09.791Z</time>
      </trkpt>
      <trkpt lat="39.38076" lon="32.59563">
        <ele>1139.761634</ele>
        <time>2021-11-16T08:02:49.332Z</time>
      </trkpt>
      <trkpt lat="39.38126" lon="32.59579">
        <ele>1139.962478</ele>
        <time>2021-11-16T08:03:00.408Z</time>
      </trkpt>
      <trkpt lat="39.38174" lon="32.59584">
        <ele>1140.146951</ele>
        <time>2021-11-16T08:03:09.396Z</time>
      </trkpt>
      <trkpt lat="39.3835" lon="32.59563">
        <ele>1137.466721</ele>
        <time>2021-11-16T08:03:40.338Z</time>
      </trkpt>
      <trkpt lat="39.38464" lon="32.59576">
        <ele>1138.15174</ele>
        <time>2021-11-16T08:04:05.499Z</time>
      </trkpt>
      <trkpt lat="39.38925" lon="32.59646">
        <ele>1147.719206</ele>
        <time>2021-11-16T08:06:34.963Z</time>
      </trkpt>
      <trkpt lat="39.39145" lon="32.59688">
        <ele>1149.150287</ele>
        <time>2021-11-16T08:07:27.023Z</time>
      </trkpt>
      <trkpt lat="39.39312" lon="32.5971">
        <ele>1149.964251</ele>
        <time>2021-11-16T08:08:07.244Z</time>
      </trkpt>
      <trkpt lat="39.39446" lon="32.59747">
        <ele>1150.860686</ele>
        <time>2021-11-16T08:08:42.249Z</time>
      </trkpt>
      <trkpt lat="39.39515" lon="32.59759">
        <ele>1151.112056</ele>
        <time>2021-11-16T08:08:59.202Z</time>
      </trkpt>
      <trkpt lat="39.39564" lon="32.59758">
        <ele>1151.284154</ele>
        <time>2021-11-16T08:09:10.291Z</time>
      </trkpt>
      <trkpt lat="39.39633" lon="32.59746">
        <ele>1151.601402</ele>
        <time>2021-11-16T08:09:25.999Z</time>
      </trkpt>
      <trkpt lat="39.39745" lon="32.59711">
        <ele>1152.390262</ele>
        <time>2021-11-16T08:09:53.871Z</time>
      </trkpt>
      <trkpt lat="39.39812" lon="32.59712">
        <ele>1153.185258</ele>
        <time>2021-11-16T08:10:12.592Z</time>
      </trkpt>
      <trkpt lat="39.3987" lon="32.59739">
        <ele>1154.475651</ele>
        <time>2021-11-16T08:10:30.662Z</time>
      </trkpt>
      <trkpt lat="39.40255" lon="32.60011">
        <ele>1164.155138</ele>
        <time>2021-11-16T08:12:48.263Z</time>
      </trkpt>
      <trkpt lat="39.40345" lon="32.60107">
        <ele>1167.457774</ele>
        <time>2021-11-16T08:13:27.291Z</time>
      </trkpt>
      <trkpt lat="39.4043" lon="32.60176">
        <ele>1170.181639</ele>
        <time>2021-11-16T08:14:01.933Z</time>
      </trkpt>
      <trkpt lat="39.40489" lon="32.60237">
        <ele>1171.753246</ele>
        <time>2021-11-16T08:14:28.042Z</time>
      </trkpt>
      <trkpt lat="39.40534" lon="32.60363">
        <ele>1173.438367</ele>
        <time>2021-11-16T08:14:56.697Z</time>
      </trkpt>
      <trkpt lat="39.40569" lon="32.60393">
        <ele>1173.340269</ele>
        <time>2021-11-16T08:15:06.105Z</time>
      </trkpt>
      <trkpt lat="39.40595" lon="32.60362">
        <ele>1173.258593</ele>
        <time>2021-11-16T08:15:13.420Z</time>
      </trkpt>
      <trkpt lat="39.40641" lon="32.60307">
        <ele>1173.114171</ele>
        <time>2021-11-16T08:15:25.621Z</time>
      </trkpt>
      <trkpt lat="39.40719" lon="32.60214">
        <ele>1173.026953</ele>
        <time>2021-11-16T08:15:46.589Z</time>
      </trkpt>
      <trkpt lat="39.40743" lon="32.60191">
        <ele>1173.010585</ele>
        <time>2021-11-16T08:15:53.611Z</time>
      </trkpt>
      <trkpt lat="39.4078" lon="32.60145">
        <ele>1172.982911</ele>
        <time>2021-11-16T08:16:06.633Z</time>
      </trkpt>
      <trkpt lat="39.40894" lon="32.60005">
        <ele>1174.699305</ele>
        <time>2021-11-16T08:16:48.530Z</time>
      </trkpt>
      <trkpt lat="39.40932" lon="32.59969">
        <ele>1175.326339</ele>
        <time>2021-11-16T08:17:01.605Z</time>
      </trkpt>
      <trkpt lat="39.41018" lon="32.59909">
        <ele>1176.911353</ele>
        <time>2021-11-16T08:17:29.467Z</time>
      </trkpt>
      <trkpt lat="39.41115" lon="32.59853">
        <ele>1178.711437</ele>
        <time>2021-11-16T08:18:00.919Z</time>
      </trkpt>
      <trkpt lat="39.41353" lon="32.5976">
        <ele>1183.170541</ele>
        <time>2021-11-16T08:19:13.923Z</time>
      </trkpt>
      <trkpt lat="39.41484" lon="32.59704">
        <ele>1185.645799</ele>
        <time>2021-11-16T08:19:54.415Z</time>
      </trkpt>
      <trkpt lat="39.41606" lon="32.59655">
        <ele>1187.772967</ele>
        <time>2021-11-16T08:20:33.206Z</time>
      </trkpt>
      <trkpt lat="39.41717" lon="32.59607">
        <ele>1188.411864</ele>
        <time>2021-11-16T08:21:02.394Z</time>
      </trkpt>
      <trkpt lat="39.41748" lon="32.59585">
        <ele>1188.605403</ele>
        <time>2021-11-16T08:21:09.838Z</time>
      </trkpt>
      <trkpt lat="39.41803" lon="32.59551">
        <ele>1188.718129</ele>
        <time>2021-11-16T08:21:21.947Z</time>
      </trkpt>
      <trkpt lat="39.41843" lon="32.59517">
        <ele>1188.758914</ele>
        <time>2021-11-16T08:21:31.881Z</time>
      </trkpt>
      <trkpt lat="39.41893" lon="32.59465">
        <ele>1188.812973</ele>
        <time>2021-11-16T08:21:46.113Z</time>
      </trkpt>
      <trkpt lat="39.41912" lon="32.59445">
        <ele>1188.96554</ele>
        <time>2021-11-16T08:21:52.708Z</time>
      </trkpt>
      <trkpt lat="39.41979" lon="32.59365">
        <ele>1191.710042</ele>
        <time>2021-11-16T08:22:21.459Z</time>
      </trkpt>
      <trkpt lat="39.42045" lon="32.5926">
        <ele>1195.024852</ele>
        <time>2021-11-16T08:23:02.907Z</time>
      </trkpt>
      <trkpt lat="39.42076" lon="32.59188">
        <ele>1197.53666</ele>
        <time>2021-11-16T08:23:28.393Z</time>
      </trkpt>
      <trkpt lat="39.42205" lon="32.58874">
        <ele>1207.517062</ele>
        <time>2021-11-16T08:25:08.221Z</time>
      </trkpt>
      <trkpt lat="39.42376" lon="32.58381">
        <ele>1220.955786</ele>
        <time>2021-11-16T08:27:33.661Z</time>
      </trkpt>
      <trkpt lat="39.42463" lon="32.58104">
        <ele>1228.436636</ele>
        <time>2021-11-16T08:28:57.911Z</time>
      </trkpt>
      <trkpt lat="39.42538" lon="32.5778">
        <ele>1234.954814</ele>
        <time>2021-11-16T08:30:19.823Z</time>
      </trkpt>
      <trkpt lat="39.42554" lon="32.57686">
        <ele>1237.002096</ele>
        <time>2021-11-16T08:30:43.185Z</time>
      </trkpt>
      <trkpt lat="39.42561" lon="32.57581">
        <ele>1239.252948</ele>
        <time>2021-11-16T08:31:10.441Z</time>
      </trkpt>
      <trkpt lat="39.42583" lon="32.56494">
        <ele>1272.657559</ele>
        <time>2021-11-16T08:36:30.287Z</time>
      </trkpt>
      <trkpt lat="39.42601" lon="32.56348">
        <ele>1278.527824</ele>
        <time>2021-11-16T08:37:18.914Z</time>
      </trkpt>
      <trkpt lat="39.4274" lon="32.55673">
        <ele>1313.991264</ele>
        <time>2021-11-16T08:41:40.584Z</time>
      </trkpt>
      <trkpt lat="39.42776" lon="32.55495">
        <ele>1325.331772</ele>
        <time>2021-11-16T08:43:01.209Z</time>
      </trkpt>
      <trkpt lat="39.4278" lon="32.55477">
        <ele>1326.317472</ele>
        <time>2021-11-16T08:43:09.869Z</time>
      </trkpt>
      <trkpt lat="39.42944" lon="32.54689">
        <ele>1368.442326</ele>
        <time>2021-11-16T08:48:27.502Z</time>
      </trkpt>
      <trkpt lat="39.42955" lon="32.54635">
        <ele>1370.363486</ele>
        <time>2021-11-16T08:48:40.986Z</time>
      </trkpt>
      <trkpt lat="39.42978" lon="32.54568">
        <ele>1370.803017</ele>
        <time>2021-11-16T08:48:54.456Z</time>
      </trkpt>
      <trkpt lat="39.4301" lon="32.54443">
        <ele>1367.670467</ele>
        <time>2021-11-16T08:49:10.940Z</time>
      </trkpt>
      <trkpt lat="39.43026" lon="32.54357">
        <ele>1365.137832</ele>
        <time>2021-11-16T08:49:21.079Z</time>
      </trkpt>
      <trkpt lat="39.43032" lon="32.54337">
        <ele>1364.231177</ele>
        <time>2021-11-16T08:49:23.459Z</time>
      </trkpt>
      <trkpt lat="39.43034" lon="32.54331">
        <ele>1363.953314</ele>
        <time>2021-11-16T08:49:24.222Z</time>
      </trkpt>
      <trkpt lat="39.43035" lon="32.54325">
        <ele>1363.6947</ele>
        <time>2021-11-16T08:49:24.948Z</time>
      </trkpt>
      <trkpt lat="39.43044" lon="32.54286">
        <ele>1361.957453</ele>
        <time>2021-11-16T08:49:29.625Z</time>
      </trkpt>
      <trkpt lat="39.43065" lon="32.54161">
        <ele>1356.505557</ele>
        <time>2021-11-16T08:49:44.133Z</time>
      </trkpt>
      <trkpt lat="39.43069" lon="32.54081">
        <ele>1354.240535</ele>
        <time>2021-11-16T08:49:53.730Z</time>
      </trkpt>
      <trkpt lat="39.43072" lon="32.54051">
        <ele>1353.44158</ele>
        <time>2021-11-16T08:49:57.397Z</time>
      </trkpt>
      <trkpt lat="39.43077" lon="32.54013">
        <ele>1352.423677</ele>
        <time>2021-11-16T08:50:02.222Z</time>
      </trkpt>
      <trkpt lat="39.4308" lon="32.53938">
        <ele>1350.412307</ele>
        <time>2021-11-16T08:50:12.092Z</time>
      </trkpt>
      <trkpt lat="39.43075" lon="32.53833">
        <ele>1349.111375</ele>
        <time>2021-11-16T08:50:26.650Z</time>
      </trkpt>
      <trkpt lat="39.43024" lon="32.53599">
        <ele>1345.882048</ele>
        <time>2021-11-16T08:51:03.574Z</time>
      </trkpt>
      <trkpt lat="39.43013" lon="32.53512">
        <ele>1344.247513</ele>
        <time>2021-11-16T08:51:15.226Z</time>
      </trkpt>
      <trkpt lat="39.4295" lon="32.52768">
        <ele>1316.084592</ele>
        <time>2021-11-16T08:52:42.409Z</time>
      </trkpt>
      <trkpt lat="39.42937" lon="32.52539">
        <ele>1307.135581</ele>
        <time>2021-11-16T08:53:09.002Z</time>
      </trkpt>
      <trkpt lat="39.42932" lon="32.52429">
        <ele>1303.369085</ele>
        <time>2021-11-16T08:53:22.115Z</time>
      </trkpt>
      <trkpt lat="39.42933" lon="32.52388">
        <ele>1301.988781</ele>
        <time>2021-11-16T08:53:26.977Z</time>
      </trkpt>
      <trkpt lat="39.42932" lon="32.52296">
        <ele>1299.02088</ele>
        <time>2021-11-16T08:53:38.111Z</time>
      </trkpt>
      <trkpt lat="39.42946" lon="32.52236">
        <ele>1297.726326</ele>
        <time>2021-11-16T08:53:45.622Z</time>
      </trkpt>
      <trkpt lat="39.42973" lon="32.52188">
        <ele>1296.483834</ele>
        <time>2021-11-16T08:53:53.272Z</time>
      </trkpt>
      <trkpt lat="39.43013" lon="32.52152">
        <ele>1295.185803</ele>
        <time>2021-11-16T08:54:01.722Z</time>
      </trkpt>
      <trkpt lat="39.4303" lon="32.52142">
        <ele>1294.681929</ele>
        <time>2021-11-16T08:54:05.104Z</time>
      </trkpt>
      <trkpt lat="39.43034" lon="32.52145">
        <ele>1294.571633</ele>
        <time>2021-11-16T08:54:05.960Z</time>
      </trkpt>
      <trkpt lat="39.43038" lon="32.52146">
        <ele>1294.46055</ele>
        <time>2021-11-16T08:54:06.883Z</time>
      </trkpt>
      <trkpt lat="39.43042" lon="32.52146">
        <ele>1294.452248</ele>
        <time>2021-11-16T08:54:07.652Z</time>
      </trkpt>
      <trkpt lat="39.43046" lon="32.52145">
        <ele>1294.481184</ele>
        <time>2021-11-16T08:54:08.534Z</time>
      </trkpt>
      <trkpt lat="39.43053" lon="32.52138">
        <ele>1294.538478</ele>
        <time>2021-11-16T08:54:10.230Z</time>
      </trkpt>
      <trkpt lat="39.43055" lon="32.52133">
        <ele>1294.567725</ele>
        <time>2021-11-16T08:54:11.098Z</time>
      </trkpt>
      <trkpt lat="39.43057" lon="32.52126">
        <ele>1294.603446</ele>
        <time>2021-11-16T08:54:12.294Z</time>
      </trkpt>
      <trkpt lat="39.43049" lon="32.52107">
        <ele>1294.706675</ele>
        <time>2021-11-16T08:54:15.919Z</time>
      </trkpt>
      <trkpt lat="39.43044" lon="32.52104">
        <ele>1294.742642</ele>
        <time>2021-11-16T08:54:17.094Z</time>
      </trkpt>
      <trkpt lat="39.43039" lon="32.52088">
        <ele>1294.827771</ele>
        <time>2021-11-16T08:54:20.437Z</time>
      </trkpt>
      <trkpt lat="39.4304" lon="32.5207">
        <ele>1294.916709</ele>
        <time>2021-11-16T08:54:23.847Z</time>
      </trkpt>
      <trkpt lat="39.43072" lon="32.5201">
        <ele>1295.27954</ele>
        <time>2021-11-16T08:54:38.721Z</time>
      </trkpt>
      <trkpt lat="39.43078" lon="32.51999">
        <ele>1295.342417</ele>
        <time>2021-11-16T08:54:41.674Z</time>
      </trkpt>
      <trkpt lat="39.43106" lon="32.51949">
        <ele>1295.70736</ele>
        <time>2021-11-16T08:54:56.327Z</time>
      </trkpt>
      <trkpt lat="39.43115" lon="32.51936">
        <ele>1295.867482</ele>
        <time>2021-11-16T08:55:01.023Z</time>
      </trkpt>
      <trkpt lat="39.43216" lon="32.51768">
        <ele>1297.551067</ele>
        <time>2021-11-16T08:55:46.036Z</time>
      </trkpt>
      <trkpt lat="39.43263" lon="32.51705">
        <ele>1296.469844</ele>
        <time>2021-11-16T08:55:58.446Z</time>
      </trkpt>
      <trkpt lat="39.43278" lon="32.51687">
        <ele>1296.134451</ele>
        <time>2021-11-16T08:56:02.088Z</time>
      </trkpt>
      <trkpt lat="39.43304" lon="32.51658">
        <ele>1295.583906</ele>
        <time>2021-11-16T08:56:07.980Z</time>
      </trkpt>
      <trkpt lat="39.43315" lon="32.51645">
        <ele>1295.340635</ele>
        <time>2021-11-16T08:56:10.559Z</time>
      </trkpt>
      <trkpt lat="39.43344" lon="32.51614">
        <ele>1294.687258</ele>
        <time>2021-11-16T08:56:16.763Z</time>
      </trkpt>
      <trkpt lat="39.43876" lon="32.51071">
        <ele>1273.958107</ele>
        <time>2021-11-16T08:58:08.326Z</time>
      </trkpt>
      <trkpt lat="39.4398" lon="32.50957">
        <ele>1268.553909</ele>
        <time>2021-11-16T08:58:29.697Z</time>
      </trkpt>
      <trkpt lat="39.44015" lon="32.50909">
        <ele>1266.373</ele>
        <time>2021-11-16T08:58:37.607Z</time>
      </trkpt>
      <trkpt lat="39.44026" lon="32.50893">
        <ele>1265.675474</ele>
        <time>2021-11-16T08:58:40.046Z</time>
      </trkpt>
      <trkpt lat="39.44048" lon="32.50863">
        <ele>1264.121504</ele>
        <time>2021-11-16T08:58:44.914Z</time>
      </trkpt>
      <trkpt lat="39.44107" lon="32.50774">
        <ele>1259.327794</ele>
        <time>2021-11-16T08:58:58.588Z</time>
      </trkpt>
      <trkpt lat="39.44112" lon="32.50766">
        <ele>1258.908656</ele>
        <time>2021-11-16T08:58:59.669Z</time>
      </trkpt>
      <trkpt lat="39.44135" lon="32.50731">
        <ele>1257.008001</ele>
        <time>2021-11-16T08:59:04.971Z</time>
      </trkpt>
      <trkpt lat="39.44167" lon="32.50681">
        <ele>1254.246542</ele>
        <time>2021-11-16T08:59:12.529Z</time>
      </trkpt>
      <trkpt lat="39.44183" lon="32.50659">
        <ele>1252.919384</ele>
        <time>2021-11-16T08:59:15.837Z</time>
      </trkpt>
      <trkpt lat="39.44192" lon="32.50641">
        <ele>1251.948912</ele>
        <time>2021-11-16T08:59:18.406Z</time>
      </trkpt>
      <trkpt lat="39.44195" lon="32.50618">
        <ele>1250.928426</ele>
        <time>2021-11-16T08:59:20.891Z</time>
      </trkpt>
      <trkpt lat="39.44207" lon="32.50591">
        <ele>1249.553475</ele>
        <time>2021-11-16T08:59:24.462Z</time>
      </trkpt>
      <trkpt lat="39.44261" lon="32.50485">
        <ele>1244.131566</ele>
        <time>2021-11-16T08:59:39.053Z</time>
      </trkpt>
      <trkpt lat="39.44251" lon="32.50466">
        <ele>1243.294027</ele>
        <time>2021-11-16T08:59:41.749Z</time>
      </trkpt>
      <trkpt lat="39.44075" lon="32.50278">
        <ele>1232.702584</ele>
        <time>2021-11-16T09:00:17.203Z</time>
      </trkpt>
      <trkpt lat="39.44035" lon="32.50221">
        <ele>1229.965772</ele>
        <time>2021-11-16T09:00:26.344Z</time>
      </trkpt>
      <trkpt lat="39.43943" lon="32.50071">
        <ele>1221.464977</ele>
        <time>2021-11-16T09:00:48.198Z</time>
      </trkpt>
      <trkpt lat="39.43913" lon="32.50007">
        <ele>1217.9586</ele>
        <time>2021-11-16T09:00:56.490Z</time>
      </trkpt>
      <trkpt lat="39.43896" lon="32.49952">
        <ele>1214.443939</ele>
        <time>2021-11-16T09:01:03.036Z</time>
      </trkpt>
      <trkpt lat="39.43883" lon="32.49886">
        <ele>1210.293763</ele>
        <time>2021-11-16T09:01:10.464Z</time>
      </trkpt>
      <trkpt lat="39.43879" lon="32.49828">
        <ele>1206.726604</ele>
        <time>2021-11-16T09:01:16.814Z</time>
      </trkpt>
      <trkpt lat="39.43887" lon="32.49577">
        <ele>1189.886297</ele>
        <time>2021-11-16T09:01:43.618Z</time>
      </trkpt>
      <trkpt lat="39.43881" lon="32.49534">
        <ele>1186.887544</ele>
        <time>2021-11-16T09:01:48.240Z</time>
      </trkpt>
      <trkpt lat="39.4387" lon="32.49469">
        <ele>1182.156501</ele>
        <time>2021-11-16T09:01:55.354Z</time>
      </trkpt>
      <trkpt lat="39.43861" lon="32.49426">
        <ele>1179.037364</ele>
        <time>2021-11-16T09:02:00.038Z</time>
      </trkpt>
      <trkpt lat="39.43832" lon="32.49338">
        <ele>1172.290362</ele>
        <time>2021-11-16T09:02:10.154Z</time>
      </trkpt>
      <trkpt lat="39.43781" lon="32.49227">
        <ele>1162.856742</ele>
        <time>2021-11-16T09:02:24.003Z</time>
      </trkpt>
      <trkpt lat="39.43574" lon="32.48884">
        <ele>1130.153862</ele>
        <time>2021-11-16T09:03:09.747Z</time>
      </trkpt>
      <trkpt lat="39.43535" lon="32.48806">
        <ele>1123.316742</ele>
        <time>2021-11-16T09:03:19.521Z</time>
      </trkpt>
      <trkpt lat="39.43521" lon="32.48747">
        <ele>1118.805153</ele>
        <time>2021-11-16T09:03:26.092Z</time>
      </trkpt>
      <trkpt lat="39.43523" lon="32.48669">
        <ele>1114.789005</ele>
        <time>2021-11-16T09:03:34.541Z</time>
      </trkpt>
      <trkpt lat="39.43552" lon="32.48588">
        <ele>1110.205104</ele>
        <time>2021-11-16T09:03:44.533Z</time>
      </trkpt>
      <trkpt lat="39.43574" lon="32.48547">
        <ele>1107.619546</ele>
        <time>2021-11-16T09:03:50.348Z</time>
      </trkpt>
      <trkpt lat="39.43592" lon="32.48524">
        <ele>1106.220906</ele>
        <time>2021-11-16T09:03:54.229Z</time>
      </trkpt>
      <trkpt lat="39.43642" lon="32.48496">
        <ele>1103.698313</ele>
        <time>2021-11-16T09:04:02.729Z</time>
      </trkpt>
      <trkpt lat="39.43806" lon="32.48463">
        <ele>1095.482774</ele>
        <time>2021-11-16T09:04:28.118Z</time>
      </trkpt>
      <trkpt lat="39.4385" lon="32.48439">
        <ele>1092.812292</ele>
        <time>2021-11-16T09:04:35.092Z</time>
      </trkpt>
      <trkpt lat="39.4388" lon="32.48406">
        <ele>1090.611467</ele>
        <time>2021-11-16T09:04:40.804Z</time>
      </trkpt>
      <trkpt lat="39.43904" lon="32.48375">
        <ele>1088.674272</ele>
        <time>2021-11-16T09:04:45.785Z</time>
      </trkpt>
      <trkpt lat="39.44019" lon="32.4815">
        <ele>1077.10807</ele>
        <time>2021-11-16T09:05:16.334Z</time>
      </trkpt>
      <trkpt lat="39.4406" lon="32.48085">
        <ele>1074.952379</ele>
        <time>2021-11-16T09:05:26.614Z</time>
      </trkpt>
      <trkpt lat="39.44107" lon="32.48022">
        <ele>1072.68481</ele>
        <time>2021-11-16T09:05:38.200Z</time>
      </trkpt>
      <trkpt lat="39.44153" lon="32.4798">
        <ele>1071.354023</ele>
        <time>2021-11-16T09:05:48.521Z</time>
      </trkpt>
      <trkpt lat="39.4419" lon="32.47961">
        <ele>1070.674774</ele>
        <time>2021-11-16T09:05:55.996Z</time>
      </trkpt>
      <trkpt lat="39.44237" lon="32.47946">
        <ele>1069.85718</ele>
        <time>2021-11-16T09:06:04.866Z</time>
      </trkpt>
      <trkpt lat="39.4432" lon="32.47933">
        <ele>1068.182379</ele>
        <time>2021-11-16T09:06:19.800Z</time>
      </trkpt>
      <trkpt lat="39.44509" lon="32.47912">
        <ele>1062.830211</ele>
        <time>2021-11-16T09:06:51.212Z</time>
      </trkpt>
      <trkpt lat="39.44601" lon="32.47896">
        <ele>1059.631756</ele>
        <time>2021-11-16T09:07:06.079Z</time>
      </trkpt>
      <trkpt lat="39.4469" lon="32.47871">
        <ele>1056.645717</ele>
        <time>2021-11-16T09:07:20.604Z</time>
      </trkpt>
      <trkpt lat="39.44772" lon="32.47831">
        <ele>1053.948522</ele>
        <time>2021-11-16T09:07:34.864Z</time>
      </trkpt>
      <trkpt lat="39.44832" lon="32.47794">
        <ele>1052.049213</ele>
        <time>2021-11-16T09:07:46.080Z</time>
      </trkpt>
      <trkpt lat="39.44991" lon="32.47683">
        <ele>1048.490793</ele>
        <time>2021-11-16T09:08:18.152Z</time>
      </trkpt>
      <trkpt lat="39.45043" lon="32.47659">
        <ele>1047.549343</ele>
        <time>2021-11-16T09:08:28.241Z</time>
      </trkpt>
      <trkpt lat="39.45068" lon="32.47647">
        <ele>1047.099672</ele>
        <time>2021-11-16T09:08:33.027Z</time>
      </trkpt>
      <trkpt lat="39.4515" lon="32.47622">
        <ele>1045.667674</ele>
        <time>2021-11-16T09:08:48.253Z</time>
      </trkpt>
      <trkpt lat="39.45646" lon="32.47506">
        <ele>1036.467142</ele>
        <time>2021-11-16T09:10:18.325Z</time>
      </trkpt>
      <trkpt lat="39.46012" lon="32.47399">
        <ele>1028.468221</ele>
        <time>2021-11-16T09:11:23.320Z</time>
      </trkpt>
      <trkpt lat="39.46703" lon="32.47133">
        <ele>1014.301513</ele>
        <time>2021-11-16T09:13:30.587Z</time>
      </trkpt>
      <trkpt lat="39.46816" lon="32.4707">
        <ele>1011.883476</ele>
        <time>2021-11-16T09:13:52.325Z</time>
      </trkpt>
      <trkpt lat="39.46889" lon="32.47011">
        <ele>1010.20098</ele>
        <time>2021-11-16T09:14:07.430Z</time>
      </trkpt>
      <trkpt lat="39.46923" lon="32.46976">
        <ele>1009.382629</ele>
        <time>2021-11-16T09:14:15.102Z</time>
      </trkpt>
      <trkpt lat="39.46985" lon="32.46894">
        <ele>1007.728821</ele>
        <time>2021-11-16T09:14:30.778Z</time>
      </trkpt>
      <trkpt lat="39.47022" lon="32.46831">
        <ele>1006.699355</ele>
        <time>2021-11-16T09:14:41.785Z</time>
      </trkpt>
      <trkpt lat="39.47049" lon="32.46782">
        <ele>1006.057587</ele>
        <time>2021-11-16T09:14:50.373Z</time>
      </trkpt>
      <trkpt lat="39.47119" lon="32.46597">
        <ele>1004.003518</ele>
        <time>2021-11-16T09:15:20.280Z</time>
      </trkpt>
      <trkpt lat="39.47222" lon="32.46313">
        <ele>1001.502495</ele>
        <time>2021-11-16T09:16:06.941Z</time>
      </trkpt>
      <trkpt lat="39.47376" lon="32.45943">
        <ele>998.182125</ele>
        <time>2021-11-16T09:17:09.820Z</time>
      </trkpt>
      <trkpt lat="39.47455" lon="32.45814">
        <ele>996.727956</ele>
        <time>2021-11-16T09:17:33.722Z</time>
      </trkpt>
      <trkpt lat="39.47556" lon="32.45705">
        <ele>995.220303</ele>
        <time>2021-11-16T09:17:58.309Z</time>
      </trkpt>
      <trkpt lat="39.47845" lon="32.45536">
        <ele>992.260807</ele>
        <time>2021-11-16T09:19:00.570Z</time>
      </trkpt>
      <trkpt lat="39.49119" lon="32.44822">
        <ele>975.748706</ele>
        <time>2021-11-16T09:23:23.578Z</time>
      </trkpt>
      <trkpt lat="39.4916" lon="32.44798">
        <ele>974.982968</ele>
        <time>2021-11-16T09:23:31.551Z</time>
      </trkpt>
      <trkpt lat="39.49207" lon="32.44761">
        <ele>974.040677</ele>
        <time>2021-11-16T09:23:41.295Z</time>
      </trkpt>
      <trkpt lat="39.49225" lon="32.44742">
        <ele>973.588692</ele>
        <time>2021-11-16T09:23:45.240Z</time>
      </trkpt>
      <trkpt lat="39.49278" lon="32.44688">
        <ele>971.680397</ele>
        <time>2021-11-16T09:23:56.711Z</time>
      </trkpt>
      <trkpt lat="39.49327" lon="32.44616">
        <ele>969.580658</ele>
        <time>2021-11-16T09:24:08.920Z</time>
      </trkpt>
      <trkpt lat="39.49381" lon="32.44501">
        <ele>966.287078</ele>
        <time>2021-11-16T09:24:25.698Z</time>
      </trkpt>
      <trkpt lat="39.4941" lon="32.44406">
        <ele>963.647171</ele>
        <time>2021-11-16T09:24:38.347Z</time>
      </trkpt>
      <trkpt lat="39.49428" lon="32.44286">
        <ele>961.309296</ele>
        <time>2021-11-16T09:24:53.790Z</time>
      </trkpt>
      <trkpt lat="39.49427" lon="32.4414">
        <ele>958.970589</ele>
        <time>2021-11-16T09:25:13.752Z</time>
      </trkpt>
      <trkpt lat="39.49392" lon="32.4396">
        <ele>960.219845</ele>
        <time>2021-11-16T09:25:47.768Z</time>
      </trkpt>
      <trkpt lat="39.49175" lon="32.43045">
        <ele>984.569705</ele>
        <time>2021-11-16T09:30:14.482Z</time>
      </trkpt>
      <trkpt lat="39.48944" lon="32.42073">
        <ele>1010.159923</ele>
        <time>2021-11-16T09:34:55.061Z</time>
      </trkpt>
      <trkpt lat="39.48834" lon="32.41695">
        <ele>1013.890198</ele>
        <time>2021-11-16T09:36:18.691Z</time>
      </trkpt>
      <trkpt lat="39.48732" lon="32.41383">
        <ele>1012.942001</ele>
        <time>2021-11-16T09:37:05.202Z</time>
      </trkpt>
      <trkpt lat="39.48418" lon="32.40491">
        <ele>1029.690389</ele>
        <time>2021-11-16T09:41:15.396Z</time>
      </trkpt>
      <trkpt lat="39.47742" lon="32.38568">
        <ele>1055.060588</ele>
        <time>2021-11-16T09:48:56.325Z</time>
      </trkpt>
      <trkpt lat="39.47676" lon="32.38357">
        <ele>1058.297833</ele>
        <time>2021-11-16T09:49:50.814Z</time>
      </trkpt>
      <trkpt lat="39.47618" lon="32.381">
        <ele>1060.989113</ele>
        <time>2021-11-16T09:50:48.295Z</time>
      </trkpt>
      <trkpt lat="39.47577" lon="32.37819">
        <ele>1060.616403</ele>
        <time>2021-11-16T09:51:36.274Z</time>
      </trkpt>
      <trkpt lat="39.47562" lon="32.37466">
        <ele>1055.386986</ele>
        <time>2021-11-16T09:52:23.187Z</time>
      </trkpt>
      <trkpt lat="39.47575" lon="32.37187">
        <ele>1052.450342</ele>
        <time>2021-11-16T09:53:04.003Z</time>
      </trkpt>
      <trkpt lat="39.47596" lon="32.36992">
        <ele>1050.741225</ele>
        <time>2021-11-16T09:53:33.928Z</time>
      </trkpt>
      <trkpt lat="39.47781" lon="32.35689">
        <ele>1033.373104</ele>
        <time>2021-11-16T09:56:39.031Z</time>
      </trkpt>
      <trkpt lat="39.47923" lon="32.34573">
        <ele>1007.057547</ele>
        <time>2021-11-16T09:59:01.612Z</time>
      </trkpt>
      <trkpt lat="39.47928" lon="32.34531">
        <ele>1006.398183</ele>
        <time>2021-11-16T09:59:07.284Z</time>
      </trkpt>
      <trkpt lat="39.47941" lon="32.34271">
        <ele>1002.895597</ele>
        <time>2021-11-16T09:59:43.819Z</time>
      </trkpt>
      <trkpt lat="39.47952" lon="32.33597">
        <ele>996.713968</ele>
        <time>2021-11-16T10:01:21.276Z</time>
      </trkpt>
      <trkpt lat="39.47971" lon="32.33432">
        <ele>996.635563</ele>
        <time>2021-11-16T10:01:51.310Z</time>
      </trkpt>
      <trkpt lat="39.47992" lon="32.33313">
        <ele>997.906848</ele>
        <time>2021-11-16T10:02:17.495Z</time>
      </trkpt>
      <trkpt lat="39.48018" lon="32.33204">
        <ele>999.13617</ele>
        <time>2021-11-16T10:02:43.551Z</time>
      </trkpt>
      <trkpt lat="39.48273" lon="32.32258">
        <ele>1011.483822</ele>
        <time>2021-11-16T10:06:24.726Z</time>
      </trkpt>
      <trkpt lat="39.48356" lon="32.32032">
        <ele>1014.804339</ele>
        <time>2021-11-16T10:07:19.484Z</time>
      </trkpt>
      <trkpt lat="39.48424" lon="32.31895">
        <ele>1017.527103</ele>
        <time>2021-11-16T10:07:58.228Z</time>
      </trkpt>
      <trkpt lat="39.48521" lon="32.31733">
        <ele>1022.307506</ele>
        <time>2021-11-16T10:08:52.119Z</time>
      </trkpt>
      <trkpt lat="39.48664" lon="32.31542">
        <ele>1031.696571</ele>
        <time>2021-11-16T10:10:15.663Z</time>
      </trkpt>
      <trkpt lat="39.48705" lon="32.31486">
        <ele>1034.929561</ele>
        <time>2021-11-16T10:10:42.779Z</time>
      </trkpt>
      <trkpt lat="39.48753" lon="32.31415">
        <ele>1038.846812</ele>
        <time>2021-11-16T10:11:15.540Z</time>
      </trkpt>
      <trkpt lat="39.48783" lon="32.31351">
        <ele>1041.613434</ele>
        <time>2021-11-16T10:11:41.416Z</time>
      </trkpt>
      <trkpt lat="39.48817" lon="32.31257">
        <ele>1045.22102</ele>
        <time>2021-11-16T10:12:12.796Z</time>
      </trkpt>
      <trkpt lat="39.48845" lon="32.31171">
        <ele>1048.436675</ele>
        <time>2021-11-16T10:12:39.898Z</time>
      </trkpt>
      <trkpt lat="39.4886" lon="32.31073">
        <ele>1051.796218</ele>
        <time>2021-11-16T10:13:09.557Z</time>
      </trkpt>
      <trkpt lat="39.48863" lon="32.30975">
        <ele>1055.08989</ele>
        <time>2021-11-16T10:13:40.122Z</time>
      </trkpt>
      <trkpt lat="39.48857" lon="32.30802">
        <ele>1061.465457</ele>
        <time>2021-11-16T10:14:37.202Z</time>
      </trkpt>
      <trkpt lat="39.48867" lon="32.307">
        <ele>1064.682336</ele>
        <time>2021-11-16T10:15:09.861Z</time>
      </trkpt>
      <trkpt lat="39.48902" lon="32.30583">
        <ele>1066.637125</ele>
        <time>2021-11-16T10:15:44.180Z</time>
      </trkpt>
      <trkpt lat="39.48965" lon="32.3046">
        <ele>1066.094002</ele>
        <time>2021-11-16T10:16:06.414Z</time>
      </trkpt>
      <trkpt lat="39.49014" lon="32.30408">
        <ele>1063.97985</ele>
        <time>2021-11-16T10:16:16.425Z</time>
      </trkpt>
      <trkpt lat="39.4908" lon="32.30355">
        <ele>1061.077073</ele>
        <time>2021-11-16T10:16:28.134Z</time>
      </trkpt>
      <trkpt lat="39.49194" lon="32.30233">
        <ele>1053.086193</ele>
        <time>2021-11-16T10:16:49.934Z</time>
      </trkpt>
      <trkpt lat="39.49494" lon="32.29927">
        <ele>1035.116073</ele>
        <time>2021-11-16T10:17:48.317Z</time>
      </trkpt>
      <trkpt lat="39.49594" lon="32.29831">
        <ele>1029.855167</ele>
        <time>2021-11-16T10:18:07.657Z</time>
      </trkpt>
      <trkpt lat="39.4979" lon="32.29657">
        <ele>1019.794229</ele>
        <time>2021-11-16T10:18:44.790Z</time>
      </trkpt>
      <trkpt lat="39.49869" lon="32.29548">
        <ele>1014.113383</ele>
        <time>2021-11-16T10:19:02.290Z</time>
      </trkpt>
      <trkpt lat="39.49907" lon="32.29496">
        <ele>1011.40271</ele>
        <time>2021-11-16T10:19:10.548Z</time>
      </trkpt>
      <trkpt lat="39.49942" lon="32.29459">
        <ele>1009.017118</ele>
        <time>2021-11-16T10:19:17.314Z</time>
      </trkpt>
      <trkpt lat="39.50209" lon="32.29277">
        <ele>993.265764</ele>
        <time>2021-11-16T10:20:02.394Z</time>
      </trkpt>
      <trkpt lat="39.50241" lon="32.29258">
        <ele>991.899526</ele>
        <time>2021-11-16T10:20:07.731Z</time>
      </trkpt>
      <trkpt lat="39.50353" lon="32.2919">
        <ele>988.40391</ele>
        <time>2021-11-16T10:20:27.964Z</time>
      </trkpt>
      <trkpt lat="39.50347" lon="32.29148">
        <ele>987.468794</ele>
        <time>2021-11-16T10:20:34.135Z</time>
      </trkpt>
      <trkpt lat="39.50347" lon="32.29119">
        <ele>987.39768</ele>
        <time>2021-11-16T10:20:38.698Z</time>
      </trkpt>
      <trkpt lat="39.50392" lon="32.28911">
        <ele>987.717241</ele>
        <time>2021-11-16T10:21:20.729Z</time>
      </trkpt>
      <trkpt lat="39.504" lon="32.2884">
        <ele>987.11805</ele>
        <time>2021-11-16T10:21:32.809Z</time>
      </trkpt>
      <trkpt lat="39.50407" lon="32.28803">
        <ele>986.798939</ele>
        <time>2021-11-16T10:21:38.727Z</time>
      </trkpt>
      <trkpt lat="39.50405" lon="32.28732">
        <ele>986.213006</ele>
        <time>2021-11-16T10:21:48.631Z</time>
      </trkpt>
      <trkpt lat="39.50408" lon="32.28696">
        <ele>985.907676</ele>
        <time>2021-11-16T10:21:53.559Z</time>
      </trkpt>
      <trkpt lat="39.50417" lon="32.28663">
        <ele>985.183452</ele>
        <time>2021-11-16T10:21:58.011Z</time>
      </trkpt>
      <trkpt lat="39.50453" lon="32.2861">
        <ele>983.366199</ele>
        <time>2021-11-16T10:22:06.854Z</time>
      </trkpt>
      <trkpt lat="39.50464" lon="32.28566">
        <ele>982.180478</ele>
        <time>2021-11-16T10:22:12.523Z</time>
      </trkpt>
      <trkpt lat="39.50464" lon="32.28528">
        <ele>981.201768</ele>
        <time>2021-11-16T10:22:17.241Z</time>
      </trkpt>
      <trkpt lat="39.50453" lon="32.28496">
        <ele>980.312852</ele>
        <time>2021-11-16T10:22:21.493Z</time>
      </trkpt>
      <trkpt lat="39.50434" lon="32.28473">
        <ele>979.375732</ele>
        <time>2021-11-16T10:22:25.644Z</time>
      </trkpt>
      <trkpt lat="39.50362" lon="32.28434">
        <ele>976.358103</ele>
        <time>2021-11-16T10:22:38.046Z</time>
      </trkpt>
      <trkpt lat="39.50286" lon="32.28345">
        <ele>972.310476</ele>
        <time>2021-11-16T10:22:54.124Z</time>
      </trkpt>
      <trkpt lat="39.50222" lon="32.28295">
        <ele>968.932901</ele>
        <time>2021-11-16T10:23:05.511Z</time>
      </trkpt>
      <trkpt lat="39.50182" lon="32.28237">
        <ele>966.194037</ele>
        <time>2021-11-16T10:23:14.741Z</time>
      </trkpt>
      <trkpt lat="39.50147" lon="32.28204">
        <ele>964.245388</ele>
        <time>2021-11-16T10:23:21.436Z</time>
      </trkpt>
      <trkpt lat="39.50096" lon="32.28133">
        <ele>961.129353</ele>
        <time>2021-11-16T10:23:32.828Z</time>
      </trkpt>
      <trkpt lat="39.49978" lon="32.28015">
        <ele>956.106696</ele>
        <time>2021-11-16T10:23:56.479Z</time>
      </trkpt>
      <trkpt lat="39.49959" lon="32.28">
        <ele>955.654339</ele>
        <time>2021-11-16T10:24:00.235Z</time>
      </trkpt>
      <trkpt lat="39.49925" lon="32.27995">
        <ele>954.965441</ele>
        <time>2021-11-16T10:24:06.275Z</time>
      </trkpt>
      <trkpt lat="39.49814" lon="32.27919">
        <ele>954.282156</ele>
        <time>2021-11-16T10:24:32.264Z</time>
      </trkpt>
      <trkpt lat="39.49784" lon="32.27913">
        <ele>954.631941</ele>
        <time>2021-11-16T10:24:40.618Z</time>
      </trkpt>
      <trkpt lat="39.49752" lon="32.27861">
        <ele>955.240062</ele>
        <time>2021-11-16T10:24:56.092Z</time>
      </trkpt>
      <trkpt lat="39.49694" lon="32.27824">
        <ele>956.333834</ele>
        <time>2021-11-16T10:25:16.449Z</time>
      </trkpt>
      <trkpt lat="39.49643" lon="32.27812">
        <ele>957.68945</ele>
        <time>2021-11-16T10:25:33.659Z</time>
      </trkpt>
      <trkpt lat="39.49619" lon="32.27792">
        <ele>958.43731</ele>
        <time>2021-11-16T10:25:43.182Z</time>
      </trkpt>
      <trkpt lat="39.49579" lon="32.27772">
        <ele>959.555193</ele>
        <time>2021-11-16T10:25:57.438Z</time>
      </trkpt>
      <trkpt lat="39.49538" lon="32.27739">
        <ele>960.704132</ele>
        <time>2021-11-16T10:26:13.146Z</time>
      </trkpt>
      <trkpt lat="39.49499" lon="32.27692">
        <ele>961.775456</ele>
        <time>2021-11-16T10:26:30.290Z</time>
      </trkpt>
      <trkpt lat="39.494" lon="32.27615">
        <ele>964.018286</ele>
        <time>2021-11-16T10:27:04.567Z</time>
      </trkpt>
      <trkpt lat="39.49359" lon="32.27536">
        <ele>964.155648</ele>
        <time>2021-11-16T10:27:23.564Z</time>
      </trkpt>
      <trkpt lat="39.49268" lon="32.27405">
        <ele>963.789973</ele>
        <time>2021-11-16T10:27:51.569Z</time>
      </trkpt>
      <trkpt lat="39.49209" lon="32.27299">
        <ele>962.168919</ele>
        <time>2021-11-16T10:28:09.698Z</time>
      </trkpt>
      <trkpt lat="39.49075" lon="32.27097">
        <ele>957.463958</ele>
        <time>2021-11-16T10:28:44.803Z</time>
      </trkpt>
      <trkpt lat="39.49042" lon="32.27018">
        <ele>955.862986</ele>
        <time>2021-11-16T10:28:56.328Z</time>
      </trkpt>
      <trkpt lat="39.49047" lon="32.26841">
        <ele>952.858442</ele>
        <time>2021-11-16T10:29:19.958Z</time>
      </trkpt>
      <trkpt lat="39.49018" lon="32.26802">
        <ele>952.583244</ele>
        <time>2021-11-16T10:29:27.760Z</time>
      </trkpt>
      <trkpt lat="39.48983" lon="32.2678">
        <ele>952.331338</ele>
        <time>2021-11-16T10:29:35.277Z</time>
      </trkpt>
      <trkpt lat="39.48957" lon="32.26748">
        <ele>952.095515</ele>
        <time>2021-11-16T10:29:42.747Z</time>
      </trkpt>
      <trkpt lat="39.48927" lon="32.26729">
        <ele>951.873583</ele>
        <time>2021-11-16T10:29:50.229Z</time>
      </trkpt>
      <trkpt lat="39.48907" lon="32.26701">
        <ele>951.791611</ele>
        <time>2021-11-16T10:29:57.126Z</time>
      </trkpt>
      <trkpt lat="39.48886" lon="32.26621">
        <ele>952.470321</ele>
        <time>2021-11-16T10:30:13.673Z</time>
      </trkpt>
      <trkpt lat="39.4888" lon="32.2657">
        <ele>952.885056</ele>
        <time>2021-11-16T10:30:24.319Z</time>
      </trkpt>
      <trkpt lat="39.48785" lon="32.26274">
        <ele>956.232142</ele>
        <time>2021-11-16T10:31:33.926Z</time>
      </trkpt>
      <trkpt lat="39.48788" lon="32.26216">
        <ele>956.803425</ele>
        <time>2021-11-16T10:31:46.757Z</time>
      </trkpt>
      <trkpt lat="39.48768" lon="32.2615">
        <ele>957.507018</ele>
        <time>2021-11-16T10:32:02.440Z</time>
      </trkpt>
      <trkpt lat="39.48734" lon="32.26111">
        <ele>958.094121</ele>
        <time>2021-11-16T10:32:15.062Z</time>
      </trkpt>
      <trkpt lat="39.48687" lon="32.26022">
        <ele>958.29372</ele>
        <time>2021-11-16T10:32:35.791Z</time>
      </trkpt>
      <trkpt lat="39.48661" lon="32.25929">
        <ele>957.877336</ele>
        <time>2021-11-16T10:32:51.505Z</time>
      </trkpt>
      <trkpt lat="39.48668" lon="32.25826">
        <ele>956.912301</ele>
        <time>2021-11-16T10:33:05.949Z</time>
      </trkpt>
      <trkpt lat="39.48656" lon="32.25752">
        <ele>955.30323</ele>
        <time>2021-11-16T10:33:15.744Z</time>
      </trkpt>
      <trkpt lat="39.48656" lon="32.25678">
        <ele>953.709851</ele>
        <time>2021-11-16T10:33:25.173Z</time>
      </trkpt>
      <trkpt lat="39.4864" lon="32.25574">
        <ele>951.193218</ele>
        <time>2021-11-16T10:33:38.327Z</time>
      </trkpt>
      <trkpt lat="39.48653" lon="32.25524">
        <ele>949.802812</ele>
        <time>2021-11-16T10:33:44.868Z</time>
      </trkpt>
      <trkpt lat="39.48651" lon="32.25445">
        <ele>947.729308</ele>
        <time>2021-11-16T10:33:54.643Z</time>
      </trkpt>
      <trkpt lat="39.48666" lon="32.2538">
        <ele>946.008916</ele>
        <time>2021-11-16T10:34:03.067Z</time>
      </trkpt>
      <trkpt lat="39.4867" lon="32.25269">
        <ele>943.430488</ele>
        <time>2021-11-16T10:34:17.005Z</time>
      </trkpt>
      <trkpt lat="39.48692" lon="32.2519">
        <ele>941.459498</ele>
        <time>2021-11-16T10:34:27.853Z</time>
      </trkpt>
      <trkpt lat="39.4866" lon="32.2508">
        <ele>939.214582</ele>
        <time>2021-11-16T10:34:43.257Z</time>
      </trkpt>
      <trkpt lat="39.48664" lon="32.2499">
        <ele>937.54154</ele>
        <time>2021-11-16T10:34:55.430Z</time>
      </trkpt>
      <trkpt lat="39.48691" lon="32.24723">
        <ele>932.86656</ele>
        <time>2021-11-16T10:35:31.125Z</time>
      </trkpt>
      <trkpt lat="39.48706" lon="32.24667">
        <ele>932.079732</ele>
        <time>2021-11-16T10:35:39.205Z</time>
      </trkpt>
      <trkpt lat="39.48712" lon="32.24565">
        <ele>930.790826</ele>
        <time>2021-11-16T10:35:53.623Z</time>
      </trkpt>
      <trkpt lat="39.48704" lon="32.24526">
        <ele>930.281331</ele>
        <time>2021-11-16T10:35:59.381Z</time>
      </trkpt>
      <trkpt lat="39.48699" lon="32.24473">
        <ele>929.554487</ele>
        <time>2021-11-16T10:36:07.511Z</time>
      </trkpt>
      <trkpt lat="39.48699" lon="32.24455">
        <ele>929.273694</ele>
        <time>2021-11-16T10:36:10.337Z</time>
      </trkpt>
      <trkpt lat="39.487" lon="32.24431">
        <ele>928.890314</ele>
        <time>2021-11-16T10:36:13.916Z</time>
      </trkpt>
      <trkpt lat="39.4871" lon="32.24387">
        <ele>928.144301</ele>
        <time>2021-11-16T10:36:20.841Z</time>
      </trkpt>
      <trkpt lat="39.4872" lon="32.2434">
        <ele>927.379455</ele>
        <time>2021-11-16T10:36:27.632Z</time>
      </trkpt>
      <trkpt lat="39.48739" lon="32.24269">
        <ele>926.156465</ele>
        <time>2021-11-16T10:36:37.915Z</time>
      </trkpt>
      <trkpt lat="39.48755" lon="32.24254">
        <ele>925.462825</ele>
        <time>2021-11-16T10:36:41.162Z</time>
      </trkpt>
      <trkpt lat="39.48769" lon="32.24231">
        <ele>924.561962</ele>
        <time>2021-11-16T10:36:45.176Z</time>
      </trkpt>
      <trkpt lat="39.48791" lon="32.24183">
        <ele>922.877473</ele>
        <time>2021-11-16T10:36:52.232Z</time>
      </trkpt>
      <trkpt lat="39.48794" lon="32.24176">
        <ele>922.63851</ele>
        <time>2021-11-16T10:36:53.155Z</time>
      </trkpt>
      <trkpt lat="39.48852" lon="32.24033">
        <ele>917.56496</ele>
        <time>2021-11-16T10:37:13.495Z</time>
      </trkpt>
      <trkpt lat="39.48857" lon="32.2402">
        <ele>917.087381</ele>
        <time>2021-11-16T10:37:15.203Z</time>
      </trkpt>
      <trkpt lat="39.48916" lon="32.23872">
        <ele>911.511693</ele>
        <time>2021-11-16T10:37:36.226Z</time>
      </trkpt>
      <trkpt lat="39.48933" lon="32.23853">
        <ele>910.620256</ele>
        <time>2021-11-16T10:37:39.559Z</time>
      </trkpt>
      <trkpt lat="39.49135" lon="32.2353">
        <ele>898.344312</ele>
        <time>2021-11-16T10:38:30.453Z</time>
      </trkpt>
      <trkpt lat="39.49303" lon="32.23281">
        <ele>888.637975</ele>
        <time>2021-11-16T10:39:10.586Z</time>
      </trkpt>
      <trkpt lat="39.4959" lon="32.22825">
        <ele>873.224394</ele>
        <time>2021-11-16T10:40:23.833Z</time>
      </trkpt>
      <trkpt lat="39.49893" lon="32.22344">
        <ele>861.910695</ele>
        <time>2021-11-16T10:41:45.301Z</time>
      </trkpt>
      <trkpt lat="39.50448" lon="32.21487">
        <ele>850.589048</ele>
        <time>2021-11-16T10:44:27.174Z</time>
      </trkpt>
      <trkpt lat="39.50562" lon="32.21311">
        <ele>850.55732</ele>
        <time>2021-11-16T10:45:06.464Z</time>
      </trkpt>
      <trkpt lat="39.50687" lon="32.21132">
        <ele>852.628799</ele>
        <time>2021-11-16T10:45:58.141Z</time>
      </trkpt>
      <trkpt lat="39.50739" lon="32.21034">
        <ele>853.949437</ele>
        <time>2021-11-16T10:46:24.650Z</time>
      </trkpt>
      <trkpt lat="39.50958" lon="32.20702">
        <ele>857.637708</ele>
        <time>2021-11-16T10:47:54.962Z</time>
      </trkpt>
      <trkpt lat="39.51038" lon="32.20594">
        <ele>858.053884</ele>
        <time>2021-11-16T10:48:22.964Z</time>
      </trkpt>
      <trkpt lat="39.51066" lon="32.20567">
        <ele>857.981281</ele>
        <time>2021-11-16T10:48:30.624Z</time>
      </trkpt>
      <trkpt lat="39.51105" lon="32.20552">
        <ele>857.895822</ele>
        <time>2021-11-16T10:48:39.243Z</time>
      </trkpt>
      <trkpt lat="39.51514" lon="32.204">
        <ele>854.640795</ele>
        <time>2021-11-16T10:50:01.134Z</time>
      </trkpt>
      <trkpt lat="39.51794" lon="32.20297">
        <ele>858.012443</ele>
        <time>2021-11-16T10:51:19.605Z</time>
      </trkpt>
      <trkpt lat="39.52818" lon="32.1992">
        <ele>886.847291</ele>
        <time>2021-11-16T10:57:12.355Z</time>
      </trkpt>
      <trkpt lat="39.52911" lon="32.19865">
        <ele>890.509815</ele>
        <time>2021-11-16T10:57:50.251Z</time>
      </trkpt>
      <trkpt lat="39.52997" lon="32.19829">
        <ele>894.422416</ele>
        <time>2021-11-16T10:58:25.825Z</time>
      </trkpt>
      <trkpt lat="39.53087" lon="32.19815">
        <ele>898.724449</ele>
        <time>2021-11-16T10:59:03.665Z</time>
      </trkpt>
      <trkpt lat="39.53415" lon="32.19807">
        <ele>916.103057</ele>
        <time>2021-11-16T11:01:27.790Z</time>
      </trkpt>
      <trkpt lat="39.53492" lon="32.19784">
        <ele>919.261125</ele>
        <time>2021-11-16T11:02:01.155Z</time>
      </trkpt>
      <trkpt lat="39.53516" lon="32.19767">
        <ele>920.337083</ele>
        <time>2021-11-16T11:02:11.572Z</time>
      </trkpt>
      <trkpt lat="39.5354" lon="32.19738">
        <ele>921.633985</ele>
        <time>2021-11-16T11:02:23.340Z</time>
      </trkpt>
      <trkpt lat="39.53571" lon="32.19688">
        <ele>923.047024</ele>
        <time>2021-11-16T11:02:39.615Z</time>
      </trkpt>
      <trkpt lat="39.53587" lon="32.19651">
        <ele>923.176008</ele>
        <time>2021-11-16T11:02:49.211Z</time>
      </trkpt>
      <trkpt lat="39.53651" lon="32.19321">
        <ele>922.577896</ele>
        <time>2021-11-16T11:03:43.506Z</time>
      </trkpt>
      <trkpt lat="39.53723" lon="32.19055">
        <ele>919.0137</ele>
        <time>2021-11-16T11:04:22.418Z</time>
      </trkpt>
      <trkpt lat="39.53739" lon="32.19014">
        <ele>918.227769</ele>
        <time>2021-11-16T11:04:28.437Z</time>
      </trkpt>
      <trkpt lat="39.53761" lon="32.18979">
        <ele>917.396716</ele>
        <time>2021-11-16T11:04:34.286Z</time>
      </trkpt>
      <trkpt lat="39.5388" lon="32.18823">
        <ele>914.040474</ele>
        <time>2021-11-16T11:05:03.145Z</time>
      </trkpt>
      <trkpt lat="39.53884" lon="32.18818">
        <ele>913.990155</ele>
        <time>2021-11-16T11:05:04.047Z</time>
      </trkpt>
      <trkpt lat="39.53937" lon="32.18762">
        <ele>913.332866</ele>
        <time>2021-11-16T11:05:17.080Z</time>
      </trkpt>
      <trkpt lat="39.54054" lon="32.18662">
        <ele>913.454234</ele>
        <time>2021-11-16T11:05:51.670Z</time>
      </trkpt>
      <trkpt lat="39.54072" lon="32.18637">
        <ele>913.668451</ele>
        <time>2021-11-16T11:05:58.870Z</time>
      </trkpt>
      <trkpt lat="39.54085" lon="32.18604">
        <ele>913.903733</ele>
        <time>2021-11-16T11:06:06.630Z</time>
      </trkpt>
      <trkpt lat="39.54096" lon="32.18565">
        <ele>914.165146</ele>
        <time>2021-11-16T11:06:15.138Z</time>
      </trkpt>
      <trkpt lat="39.54127" lon="32.18464">
        <ele>914.214262</ele>
        <time>2021-11-16T11:06:35.870Z</time>
      </trkpt>
      <trkpt lat="39.54152" lon="32.18388">
        <ele>914.180554</ele>
        <time>2021-11-16T11:06:50.015Z</time>
      </trkpt>
      <trkpt lat="39.54194" lon="32.18288">
        <ele>913.509142</ele>
        <time>2021-11-16T11:07:06.452Z</time>
      </trkpt>
      <trkpt lat="39.54268" lon="32.1815">
        <ele>911.621479</ele>
        <time>2021-11-16T11:07:29.947Z</time>
      </trkpt>
      <trkpt lat="39.54464" lon="32.17869">
        <ele>908.535559</ele>
        <time>2021-11-16T11:08:25.257Z</time>
      </trkpt>
      <trkpt lat="39.54623" lon="32.17641">
        <ele>907.651935</ele>
        <time>2021-11-16T11:09:16.681Z</time>
      </trkpt>
      <trkpt lat="39.54687" lon="32.17556">
        <ele>906.827369</ele>
        <time>2021-11-16T11:09:35.814Z</time>
      </trkpt>
      <trkpt lat="39.54756" lon="32.1749">
        <ele>905.941424</ele>
        <time>2021-11-16T11:09:52.061Z</time>
      </trkpt>
      <trkpt lat="39.5515" lon="32.17194">
        <ele>894.099386</ele>
        <time>2021-11-16T11:11:09.412Z</time>
      </trkpt>
      <trkpt lat="39.55235" lon="32.1712">
        <ele>890.343813</ele>
        <time>2021-11-16T11:11:25.290Z</time>
      </trkpt>
      <trkpt lat="39.5524" lon="32.17116">
        <ele>890.086232</ele>
        <time>2021-11-16T11:11:26.048Z</time>
      </trkpt>
      <trkpt lat="39.55274" lon="32.17089">
        <ele>888.04433</ele>
        <time>2021-11-16T11:11:32.098Z</time>
      </trkpt>
      <trkpt lat="39.55313" lon="32.17058">
        <ele>885.706434</ele>
        <time>2021-11-16T11:11:39.007Z</time>
      </trkpt>
      <trkpt lat="39.55391" lon="32.16997">
        <ele>881.109295</ele>
        <time>2021-11-16T11:11:52.599Z</time>
      </trkpt>
      <trkpt lat="39.55482" lon="32.16916">
        <ele>876.421554</ele>
        <time>2021-11-16T11:12:09.517Z</time>
      </trkpt>
      <trkpt lat="39.55607" lon="32.16786">
        <ele>870.945233</ele>
        <time>2021-11-16T11:12:35.265Z</time>
      </trkpt>
      <trkpt lat="39.56201" lon="32.16112">
        <ele>854.157217</ele>
        <time>2021-11-16T11:14:53.124Z</time>
      </trkpt>
      <trkpt lat="39.56388" lon="32.15926">
        <ele>851.187027</ele>
        <time>2021-11-16T11:15:37.878Z</time>
      </trkpt>
      <trkpt lat="39.56557" lon="32.1576">
        <ele>848.994982</ele>
        <time>2021-11-16T11:16:18.898Z</time>
      </trkpt>
      <trkpt lat="39.56692" lon="32.15634">
        <ele>847.310356</ele>
        <time>2021-11-16T11:16:50.483Z</time>
      </trkpt>
      <trkpt lat="39.56827" lon="32.15546">
        <ele>846.199697</ele>
        <time>2021-11-16T11:17:20.427Z</time>
      </trkpt>
      <trkpt lat="39.56923" lon="32.15522">
        <ele>845.981807</ele>
        <time>2021-11-16T11:17:41.676Z</time>
      </trkpt>
      <trkpt lat="39.57005" lon="32.15525">
        <ele>845.854536</ele>
        <time>2021-11-16T11:17:59.927Z</time>
      </trkpt>
      <trkpt lat="39.57038" lon="32.15536">
        <ele>845.842815</ele>
        <time>2021-11-16T11:18:07.538Z</time>
      </trkpt>
      <trkpt lat="39.57081" lon="32.15496">
        <ele>845.824565</ele>
        <time>2021-11-16T11:18:19.891Z</time>
      </trkpt>
      <trkpt lat="39.57109" lon="32.15469">
        <ele>845.812472</ele>
        <time>2021-11-16T11:18:28.033Z</time>
      </trkpt>
      <trkpt lat="39.57222" lon="32.1532">
        <ele>845.353732</ele>
        <time>2021-11-16T11:19:03.854Z</time>
      </trkpt>
      <trkpt lat="39.57293" lon="32.15081">
        <ele>844.532526</ele>
        <time>2021-11-16T11:19:43.988Z</time>
      </trkpt>
      <trkpt lat="39.573" lon="32.15037">
        <ele>844.41409</ele>
        <time>2021-11-16T11:19:51.667Z</time>
      </trkpt>
      <trkpt lat="39.57302" lon="32.1502">
        <ele>844.456801</ele>
        <time>2021-11-16T11:19:54.418Z</time>
      </trkpt>
      <trkpt lat="39.57319" lon="32.14876">
        <ele>844.820312</ele>
        <time>2021-11-16T11:20:20.618Z</time>
      </trkpt>
      <trkpt lat="39.57321" lon="32.1486">
        <ele>844.860456</ele>
        <time>2021-11-16T11:20:23.788Z</time>
      </trkpt>
      <trkpt lat="39.5733" lon="32.14827">
        <ele>844.946557</ele>
        <time>2021-11-16T11:20:30.218Z</time>
      </trkpt>
      <trkpt lat="39.57337" lon="32.1481">
        <ele>844.994486</ele>
        <time>2021-11-16T11:20:34.198Z</time>
      </trkpt>
      <trkpt lat="39.57354" lon="32.14769">
        <ele>845.108512</ele>
        <time>2021-11-16T11:20:43.553Z</time>
      </trkpt>
      <trkpt lat="39.57363" lon="32.14748">
        <ele>845.167117</ele>
        <time>2021-11-16T11:20:48.058Z</time>
      </trkpt>
      <trkpt lat="39.57366" lon="32.14735">
        <ele>845.200294</ele>
        <time>2021-11-16T11:20:50.748Z</time>
      </trkpt>
      <trkpt lat="39.57414" lon="32.14738">
        <ele>845.353596</ele>
        <time>2021-11-16T11:21:02.530Z</time>
      </trkpt>
      <trkpt lat="39.57417" lon="32.14734">
        <ele>845.366104</ele>
        <time>2021-11-16T11:21:03.486Z</time>
      </trkpt>
      <trkpt lat="39.57449" lon="32.14675">
        <ele>845.542</ele>
        <time>2021-11-16T11:21:16.325Z</time>
      </trkpt>
      <trkpt lat="39.57449" lon="32.14675">
        <ele>845.542</ele>
        <time>2021-11-16T11:21:16.382Z</time>
      </trkpt>
      <trkpt lat="39.57449" lon="32.14675">
        <ele>845.542</ele>
        <time>2021-11-16T11:21:16.388Z</time>
      </trkpt>
      <trkpt lat="39.57417" lon="32.14734">
        <ele>845.391037</ele>
        <time>2021-11-16T11:21:28.875Z</time>
      </trkpt>
      <trkpt lat="39.57414" lon="32.14738">
        <ele>845.379456</ele>
        <time>2021-11-16T11:21:29.720Z</time>
      </trkpt>
      <trkpt lat="39.57366" lon="32.14735">
        <ele>845.237508</ele>
        <time>2021-11-16T11:21:40.519Z</time>
      </trkpt>
      <trkpt lat="39.57363" lon="32.14748">
        <ele>845.206789</ele>
        <time>2021-11-16T11:21:42.745Z</time>
      </trkpt>
      <trkpt lat="39.57358" lon="32.14722">
        <ele>845.146627</ele>
        <time>2021-11-16T11:21:46.831Z</time>
      </trkpt>
      <trkpt lat="39.57281" lon="32.146">
        <ele>845.205412</ele>
        <time>2021-11-16T11:22:12.463Z</time>
      </trkpt>
      <trkpt lat="39.57272" lon="32.14581">
        <ele>845.24463</ele>
        <time>2021-11-16T11:22:16.144Z</time>
      </trkpt>
      <trkpt lat="39.5727" lon="32.14565">
        <ele>845.273748</ele>
        <time>2021-11-16T11:22:18.951Z</time>
      </trkpt>
      <trkpt lat="39.57253" lon="32.1457">
        <ele>845.313599</ele>
        <time>2021-11-16T11:22:22.931Z</time>
      </trkpt>
      <trkpt lat="39.571" lon="32.14622">
        <ele>847.17221</ele>
        <time>2021-11-16T11:23:05.401Z</time>
      </trkpt>
      <trkpt lat="39.57094" lon="32.14624">
        <ele>847.270037</ele>
        <time>2021-11-16T11:23:07.283Z</time>
      </trkpt>
      <trkpt lat="39.56993" lon="32.14644">
        <ele>849.191973</ele>
        <time>2021-11-16T11:23:40.051Z</time>
      </trkpt>
      <trkpt lat="39.56941" lon="32.14659">
        <ele>850.421015</ele>
        <time>2021-11-16T11:23:57.287Z</time>
      </trkpt>
      <trkpt lat="39.56941" lon="32.1465">
        <ele>850.589518</ele>
        <time>2021-11-16T11:23:59.829Z</time>
      </trkpt>
      <trkpt lat="39.56854" lon="32.1467">
        <ele>852.618087</ele>
        <time>2021-11-16T11:24:28.836Z</time>
      </trkpt>
      <trkpt lat="39.56805" lon="32.14673">
        <ele>853.174642</ele>
        <time>2021-11-16T11:24:42.418Z</time>
      </trkpt>
      <trkpt lat="39.56799" lon="32.14673">
        <ele>853.245299</ele>
        <time>2021-11-16T11:24:44.106Z</time>
      </trkpt>
      <trkpt lat="39.56797" lon="32.1465">
        <ele>853.445391</ele>
        <time>2021-11-16T11:24:48.943Z</time>
      </trkpt>
      <trkpt lat="39.56746" lon="32.14642">
        <ele>854.03392</ele>
        <time>2021-11-16T11:25:01.881Z</time>
      </trkpt>
      <trkpt lat="39.56641" lon="32.14619">
        <ele>855.534784</ele>
        <time>2021-11-16T11:25:31.251Z</time>
      </trkpt>
      <trkpt lat="39.56643" lon="32.14606">
        <ele>855.703581</ele>
        <time>2021-11-16T11:25:34.125Z</time>
      </trkpt>
      <trkpt lat="39.56521" lon="32.14584">
        <ele>857.810095</ele>
        <time>2021-11-16T11:26:11.802Z</time>
      </trkpt>
      <trkpt lat="39.5644" lon="32.14563">
        <ele>859.760936</ele>
        <time>2021-11-16T11:26:40.101Z</time>
      </trkpt>
      <trkpt lat="39.5644" lon="32.14552">
        <ele>859.956319</ele>
        <time>2021-11-16T11:26:42.843Z</time>
      </trkpt>
      <trkpt lat="39.56436" lon="32.14528">
        <ele>860.409677</ele>
        <time>2021-11-16T11:26:48.920Z</time>
      </trkpt>
      <trkpt lat="39.5642" lon="32.14532">
        <ele>860.793714</ele>
        <time>2021-11-16T11:26:54.447Z</time>
      </trkpt>
      <trkpt lat="39.56341" lon="32.14519">
        <ele>862.581934</ele>
        <time>2021-11-16T11:27:19.327Z</time>
      </trkpt>
      <trkpt lat="39.56291" lon="32.1451">
        <ele>863.637608</ele>
        <time>2021-11-16T11:27:34.976Z</time>
      </trkpt>
      <trkpt lat="39.56188" lon="32.14492">
        <ele>865.769035</ele>
        <time>2021-11-16T11:28:07.930Z</time>
      </trkpt>
      <trkpt lat="39.56128" lon="32.1448">
        <ele>866.851396</ele>
        <time>2021-11-16T11:28:27.120Z</time>
      </trkpt>
      <trkpt lat="39.56016" lon="32.1446">
        <ele>868.832213</ele>
        <time>2021-11-16T11:29:00.898Z</time>
      </trkpt>
      <trkpt lat="39.55955" lon="32.14449">
        <ele>869.340172</ele>
        <time>2021-11-16T11:29:17.642Z</time>
      </trkpt>
      <trkpt lat="39.55879" lon="32.14433">
        <ele>869.983064</ele>
        <time>2021-11-16T11:29:37.576Z</time>
      </trkpt>
      <trkpt lat="39.55824" lon="32.14421">
        <ele>870.512224</ele>
        <time>2021-11-16T11:29:51.078Z</time>
      </trkpt>
      <trkpt lat="39.55804" lon="32.14398">
        <ele>870.876794</ele>
        <time>2021-11-16T11:29:58.298Z</time>
      </trkpt>
      <trkpt lat="39.55763" lon="32.14393">
        <ele>871.429203</ele>
        <time>2021-11-16T11:30:09.585Z</time>
      </trkpt>
      <trkpt lat="39.55678" lon="32.14384">
        <ele>872.583582</ele>
        <time>2021-11-16T11:30:35.118Z</time>
      </trkpt>
      <trkpt lat="39.55655" lon="32.14368">
        <ele>872.946826</ele>
        <time>2021-11-16T11:30:43.584Z</time>
      </trkpt>
      <trkpt lat="39.55617" lon="32.14363">
        <ele>873.506288</ele>
        <time>2021-11-16T11:30:55.577Z</time>
      </trkpt>
      <trkpt lat="39.555" lon="32.14346">
        <ele>875.257372</ele>
        <time>2021-11-16T11:31:30.974Z</time>
      </trkpt>
      <trkpt lat="39.55499" lon="32.14373">
        <ele>875.339699</ele>
        <time>2021-11-16T11:31:36.392Z</time>
      </trkpt>
      <trkpt lat="39.55233" lon="32.1432">
        <ele>873.647388</ele>
        <time>2021-11-16T11:32:31.421Z</time>
      </trkpt>
      <trkpt lat="39.55108" lon="32.14299">
        <ele>872.874334</ele>
        <time>2021-11-16T11:32:57.522Z</time>
      </trkpt>
      <trkpt lat="39.54865" lon="32.14259">
        <ele>873.274865</ele>
        <time>2021-11-16T11:33:53.389Z</time>
      </trkpt>
      <trkpt lat="39.5473" lon="32.1424">
        <ele>875.75097</ele>
        <time>2021-11-16T11:34:35.518Z</time>
      </trkpt>
      <trkpt lat="39.54622" lon="32.14218">
        <ele>878.984212</ele>
        <time>2021-11-16T11:35:16.292Z</time>
      </trkpt>
      <trkpt lat="39.54594" lon="32.14213">
        <ele>879.847072</ele>
        <time>2021-11-16T11:35:27.383Z</time>
      </trkpt>
      <trkpt lat="39.5449" lon="32.14196">
        <ele>883.050478</ele>
        <time>2021-11-16T11:36:07.486Z</time>
      </trkpt>
      <trkpt lat="39.54284" lon="32.14164">
        <ele>885.433938</ele>
        <time>2021-11-16T11:37:06.753Z</time>
      </trkpt>
      <trkpt lat="39.54285" lon="32.1418">
        <ele>885.500982</ele>
        <time>2021-11-16T11:37:09.342Z</time>
      </trkpt>
      <trkpt lat="39.54278" lon="32.14179">
        <ele>885.542668</ele>
        <time>2021-11-16T11:37:10.694Z</time>
      </trkpt>
      <trkpt lat="39.53563" lon="32.1402">
        <ele>857.861033</ele>
        <time>2021-11-16T11:39:04.257Z</time>
      </trkpt>
      <trkpt lat="39.5331" lon="32.13963">
        <ele>852.39277</ele>
        <time>2021-11-16T11:39:49.287Z</time>
      </trkpt>
      <trkpt lat="39.53135" lon="32.13924">
        <ele>849.127405</ele>
        <time>2021-11-16T11:40:22.262Z</time>
      </trkpt>
      <trkpt lat="39.5297" lon="32.13887">
        <ele>844.945616</ele>
        <time>2021-11-16T11:40:50.728Z</time>
      </trkpt>
      <trkpt lat="39.52704" lon="32.13828">
        <ele>835.810031</ele>
        <time>2021-11-16T11:41:33.578Z</time>
      </trkpt>
      <trkpt lat="39.52202" lon="32.13724">
        <ele>823.226314</ele>
        <time>2021-11-16T11:43:00.159Z</time>
      </trkpt>
      <trkpt lat="39.5141" lon="32.1353">
        <ele>807.851921</ele>
        <time>2021-11-16T11:45:23.169Z</time>
      </trkpt>
      <trkpt lat="39.5134" lon="32.13503">
        <ele>806.589114</ele>
        <time>2021-11-16T11:45:36.171Z</time>
      </trkpt>
      <trkpt lat="39.5133" lon="32.13497">
        <ele>806.395296</ele>
        <time>2021-11-16T11:45:38.163Z</time>
      </trkpt>
      <trkpt lat="39.51275" lon="32.13466">
        <ele>805.350383</ele>
        <time>2021-11-16T11:45:49.035Z</time>
      </trkpt>
      <trkpt lat="39.50181" lon="32.12723">
        <ele>787.085404</ele>
        <time>2021-11-16T11:49:35.631Z</time>
      </trkpt>
      <trkpt lat="39.50099" lon="32.12675">
        <ele>786.515983</ele>
        <time>2021-11-16T11:49:53.869Z</time>
      </trkpt>
      <trkpt lat="39.5" lon="32.12629">
        <ele>786.190989</ele>
        <time>2021-11-16T11:50:16.877Z</time>
      </trkpt>
      <trkpt lat="39.49922" lon="32.12605">
        <ele>786.014023</ele>
        <time>2021-11-16T11:50:34.957Z</time>
      </trkpt>
      <trkpt lat="39.49826" lon="32.1258">
        <ele>785.817813</ele>
        <time>2021-11-16T11:50:55.963Z</time>
      </trkpt>
      <trkpt lat="39.4969" lon="32.12545">
        <ele>784.741921</ele>
        <time>2021-11-16T11:51:23.451Z</time>
      </trkpt>
      <trkpt lat="39.493" lon="32.12448">
        <ele>780.715659</ele>
        <time>2021-11-16T11:52:38.987Z</time>
      </trkpt>
      <trkpt lat="39.48918" lon="32.12356">
        <ele>779.059091</ele>
        <time>2021-11-16T11:54:00.137Z</time>
      </trkpt>
      <trkpt lat="39.48765" lon="32.12321">
        <ele>778.873812</ele>
        <time>2021-11-16T11:54:33.925Z</time>
      </trkpt>
      <trkpt lat="39.48432" lon="32.12242">
        <ele>780.091225</ele>
        <time>2021-11-16T11:55:54.784Z</time>
      </trkpt>
      <trkpt lat="39.48373" lon="32.12228">
        <ele>780.240038</ele>
        <time>2021-11-16T11:56:08.978Z</time>
      </trkpt>
      <trkpt lat="39.48346" lon="32.122">
        <ele>780.2427</ele>
        <time>2021-11-16T11:56:17.021Z</time>
      </trkpt>
      <trkpt lat="39.48335" lon="32.12172">
        <ele>780.244571</ele>
        <time>2021-11-16T11:56:22.608Z</time>
      </trkpt>
      <trkpt lat="39.48321" lon="32.12116">
        <ele>780.248054</ele>
        <time>2021-11-16T11:56:32.699Z</time>
      </trkpt>
      <trkpt lat="39.48275" lon="32.1195">
        <ele>779.745234</ele>
        <time>2021-11-16T11:57:00.827Z</time>
      </trkpt>
      <trkpt lat="39.47839" lon="32.1049">
        <ele>772.235524</ele>
        <time>2021-11-16T12:01:05.245Z</time>
      </trkpt>
      <trkpt lat="39.47812" lon="32.10418">
        <ele>771.603451</ele>
        <time>2021-11-16T12:01:17.264Z</time>
      </trkpt>
      <trkpt lat="39.47757" lon="32.10311">
        <ele>770.564047</ele>
        <time>2021-11-16T12:01:35.789Z</time>
      </trkpt>
      <trkpt lat="39.47706" lon="32.10222">
        <ele>769.476689</ele>
        <time>2021-11-16T12:01:51.663Z</time>
      </trkpt>
      <trkpt lat="39.47654" lon="32.10155">
        <ele>768.538137</ele>
        <time>2021-11-16T12:02:05.482Z</time>
      </trkpt>
      <trkpt lat="39.46368" lon="32.08772">
        <ele>755.336687</ele>
        <time>2021-11-16T12:07:35.817Z</time>
      </trkpt>
      <trkpt lat="39.46336" lon="32.0873">
        <ele>755.107324</ele>
        <time>2021-11-16T12:07:44.875Z</time>
      </trkpt>
      <trkpt lat="39.46317" lon="32.0868">
        <ele>754.885643</ele>
        <time>2021-11-16T12:07:53.877Z</time>
      </trkpt>
      <trkpt lat="39.46291" lon="32.08575">
        <ele>754.813844</ele>
        <time>2021-11-16T12:08:12.211Z</time>
      </trkpt>
      <trkpt lat="39.46172" lon="32.08013">
        <ele>756.477366</ele>
        <time>2021-11-16T12:10:00.767Z</time>
      </trkpt>
      <trkpt lat="39.46159" lon="32.07918">
        <ele>756.53463</ele>
        <time>2021-11-16T12:10:17.487Z</time>
      </trkpt>
      <trkpt lat="39.46151" lon="32.07809">
        <ele>756.18816</ele>
        <time>2021-11-16T12:10:35.197Z</time>
      </trkpt>
      <trkpt lat="39.46096" lon="32.07133">
        <ele>752.689943</ele>
        <time>2021-11-16T12:12:20.069Z</time>
      </trkpt>
      <trkpt lat="39.46089" lon="32.07051">
        <ele>752.230845</ele>
        <time>2021-11-16T12:12:33.125Z</time>
      </trkpt>
      <trkpt lat="39.46078" lon="32.06987">
        <ele>751.653669</ele>
        <time>2021-11-16T12:12:43.218Z</time>
      </trkpt>
      <trkpt lat="39.459" lon="32.06355">
        <ele>744.002298</ele>
        <time>2021-11-16T12:14:18.010Z</time>
      </trkpt>
      <trkpt lat="39.45887" lon="32.06291">
        <ele>743.392786</ele>
        <time>2021-11-16T12:14:27.595Z</time>
      </trkpt>
      <trkpt lat="39.45885" lon="32.06214">
        <ele>742.681639</ele>
        <time>2021-11-16T12:14:38.901Z</time>
      </trkpt>
      <trkpt lat="39.45891" lon="32.06162">
        <ele>742.197688</ele>
        <time>2021-11-16T12:14:46.680Z</time>
      </trkpt>
      <trkpt lat="39.4606" lon="32.05621">
        <ele>737.112115</ele>
        <time>2021-11-16T12:16:12.551Z</time>
      </trkpt>
      <trkpt lat="39.46086" lon="32.05525">
        <ele>736.240405</ele>
        <time>2021-11-16T12:16:27.439Z</time>
      </trkpt>
      <trkpt lat="39.4617" lon="32.04979">
        <ele>731.839133</ele>
        <time>2021-11-16T12:17:50.145Z</time>
      </trkpt>
      <trkpt lat="39.46193" lon="32.04875">
        <ele>731.079105</ele>
        <time>2021-11-16T12:18:06.173Z</time>
      </trkpt>
      <trkpt lat="39.46206" lon="32.04824">
        <ele>730.7015</ele>
        <time>2021-11-16T12:18:14.345Z</time>
      </trkpt>
      <trkpt lat="39.46266" lon="32.04644">
        <ele>729.773333</ele>
        <time>2021-11-16T12:18:45.385Z</time>
      </trkpt>
      <trkpt lat="39.46496" lon="32.04005">
        <ele>726.583389</ele>
        <time>2021-11-16T12:20:35.219Z</time>
      </trkpt>
      <trkpt lat="39.46518" lon="32.03931">
        <ele>726.481221</ele>
        <time>2021-11-16T12:20:48.475Z</time>
      </trkpt>
      <trkpt lat="39.46528" lon="32.03845">
        <ele>726.752618</ele>
        <time>2021-11-16T12:21:03.588Z</time>
      </trkpt>
      <trkpt lat="39.46533" lon="32.03188">
        <ele>729.575602</ele>
        <time>2021-11-16T12:23:07.735Z</time>
      </trkpt>
      <trkpt lat="39.46538" lon="32.03167">
        <ele>729.776906</ele>
        <time>2021-11-16T12:23:12.384Z</time>
      </trkpt>
      <trkpt lat="39.46553" lon="32.03137">
        <ele>730.106925</ele>
        <time>2021-11-16T12:23:20.066Z</time>
      </trkpt>
      <trkpt lat="39.46634" lon="32.03073">
        <ele>731.283554</ele>
        <time>2021-11-16T12:23:47.205Z</time>
      </trkpt>
      <trkpt lat="39.46648" lon="32.03055">
        <ele>731.566146</ele>
        <time>2021-11-16T12:23:52.927Z</time>
      </trkpt>
      <trkpt lat="39.46659" lon="32.03032">
        <ele>731.871748</ele>
        <time>2021-11-16T12:23:59.082Z</time>
      </trkpt>
      <trkpt lat="39.46668" lon="32.02986">
        <ele>732.390963</ele>
        <time>2021-11-16T12:24:09.417Z</time>
      </trkpt>
      <trkpt lat="39.46667" lon="32.02947">
        <ele>732.824087</ele>
        <time>2021-11-16T12:24:17.924Z</time>
      </trkpt>
      <trkpt lat="39.46629" lon="32.02751">
        <ele>734.713834</ele>
        <time>2021-11-16T12:24:59.891Z</time>
      </trkpt>
      <trkpt lat="39.4662" lon="32.02636">
        <ele>735.599595</ele>
        <time>2021-11-16T12:25:23.820Z</time>
      </trkpt>
      <trkpt lat="39.4662" lon="32.02602">
        <ele>735.648363</ele>
        <time>2021-11-16T12:25:30.245Z</time>
      </trkpt>
      <trkpt lat="39.46621" lon="32.02522">
        <ele>735.767054</ele>
        <time>2021-11-16T12:25:44.673Z</time>
      </trkpt>
      <trkpt lat="39.46621" lon="32.02512">
        <ele>735.780615</ele>
        <time>2021-11-16T12:25:46.164Z</time>
      </trkpt>
      <trkpt lat="39.46626" lon="32.02429">
        <ele>735.903295</ele>
        <time>2021-11-16T12:26:00.339Z</time>
      </trkpt>
      <trkpt lat="39.46628" lon="32.02325">
        <ele>735.615305</ele>
        <time>2021-11-16T12:26:16.686Z</time>
      </trkpt>
      <trkpt lat="39.46628" lon="32.0225">
        <ele>735.355222</ele>
        <time>2021-11-16T12:26:28.287Z</time>
      </trkpt>
      <trkpt lat="39.46626" lon="32.02212">
        <ele>735.227623</ele>
        <time>2021-11-16T12:26:34.181Z</time>
      </trkpt>
      <trkpt lat="39.46625" lon="32.0218">
        <ele>735.137093</ele>
        <time>2021-11-16T12:26:39.532Z</time>
      </trkpt>
      <trkpt lat="39.46617" lon="32.02153">
        <ele>735.274313</ele>
        <time>2021-11-16T12:26:44.501Z</time>
      </trkpt>
      <trkpt lat="39.46603" lon="32.0211">
        <ele>735.499575</ele>
        <time>2021-11-16T12:26:53.026Z</time>
      </trkpt>
      <trkpt lat="39.46565" lon="32.02053">
        <ele>735.859524</ele>
        <time>2021-11-16T12:27:07.124Z</time>
      </trkpt>
      <trkpt lat="39.4655" lon="32.0203">
        <ele>736.003755</ele>
        <time>2021-11-16T12:27:13.079Z</time>
      </trkpt>
      <trkpt lat="39.46455" lon="32.01913">
        <ele>738.227252</ele>
        <time>2021-11-16T12:27:50.288Z</time>
      </trkpt>
      <trkpt lat="39.46343" lon="32.01775">
        <ele>741.791509</ele>
        <time>2021-11-16T12:28:42.251Z</time>
      </trkpt>
      <trkpt lat="39.46293" lon="32.01732">
        <ele>743.329111</ele>
        <time>2021-11-16T12:29:02.961Z</time>
      </trkpt>
      <trkpt lat="39.46272" lon="32.01725">
        <ele>743.893801</ele>
        <time>2021-11-16T12:29:10.052Z</time>
      </trkpt>
      <trkpt lat="39.4622" lon="32.01715">
        <ele>744.660855</ele>
        <time>2021-11-16T12:29:26.080Z</time>
      </trkpt>
      <trkpt lat="39.4569" lon="32.01735">
        <ele>743.63349</ele>
        <time>2021-11-16T12:31:19.009Z</time>
      </trkpt>
      <trkpt lat="39.45629" lon="32.01729">
        <ele>742.431642</ele>
        <time>2021-11-16T12:31:29.950Z</time>
      </trkpt>
      <trkpt lat="39.45555" lon="32.01697">
        <ele>740.923053</ele>
        <time>2021-11-16T12:31:43.223Z</time>
      </trkpt>
      <trkpt lat="39.4539" lon="32.01578">
        <ele>736.434744</ele>
        <time>2021-11-16T12:32:15.201Z</time>
      </trkpt>
      <trkpt lat="39.45305" lon="32.01536">
        <ele>734.631374</ele>
        <time>2021-11-16T12:32:31.066Z</time>
      </trkpt>
      <trkpt lat="39.45012" lon="32.01472">
        <ele>729.442898</ele>
        <time>2021-11-16T12:33:24.766Z</time>
      </trkpt>
      <trkpt lat="39.44939" lon="32.01442">
        <ele>727.98986</ele>
        <time>2021-11-16T12:33:38.424Z</time>
      </trkpt>
      <trkpt lat="39.44918" lon="32.01427">
        <ele>727.528482</ele>
        <time>2021-11-16T12:33:42.723Z</time>
      </trkpt>
      <trkpt lat="39.44879" lon="32.01381">
        <ele>726.518945</ele>
        <time>2021-11-16T12:33:52.065Z</time>
      </trkpt>
      <trkpt lat="39.44447" lon="32.00745">
        <ele>713.009732</ele>
        <time>2021-11-16T12:35:45.758Z</time>
      </trkpt>
      <trkpt lat="39.44408" lon="32.00693">
        <ele>712.093269</ele>
        <time>2021-11-16T12:35:56.358Z</time>
      </trkpt>
      <trkpt lat="39.4436" lon="32.00655">
        <ele>711.54486</ele>
        <time>2021-11-16T12:36:07.199Z</time>
      </trkpt>
      <trkpt lat="39.43962" lon="32.00438">
        <ele>710.072865</ele>
        <time>2021-11-16T12:37:38.310Z</time>
      </trkpt>
      <trkpt lat="39.43899" lon="32.00418">
        <ele>709.97258</ele>
        <time>2021-11-16T12:37:52.627Z</time>
      </trkpt>
      <trkpt lat="39.43494" lon="32.00352">
        <ele>710.225781</ele>
        <time>2021-11-16T12:39:26.187Z</time>
      </trkpt>
      <trkpt lat="39.42721" lon="32.00244">
        <ele>705.062469</ele>
        <time>2021-11-16T12:42:01.145Z</time>
      </trkpt>
      <trkpt lat="39.4263" lon="32.00227">
        <ele>704.572984</ele>
        <time>2021-11-16T12:42:20.066Z</time>
      </trkpt>
      <trkpt lat="39.42503" lon="32.00211">
        <ele>704.458837</ele>
        <time>2021-11-16T12:42:47.730Z</time>
      </trkpt>
      <trkpt lat="39.42432" lon="32.00184">
        <ele>704.530184</ele>
        <time>2021-11-16T12:43:04.796Z</time>
      </trkpt>
      <trkpt lat="39.42389" lon="32.0018">
        <ele>704.713638</ele>
        <time>2021-11-16T12:43:14.990Z</time>
      </trkpt>
      <trkpt lat="39.4238" lon="32.00165">
        <ele>704.775428</ele>
        <time>2021-11-16T12:43:18.605Z</time>
      </trkpt>
      <trkpt lat="39.42375" lon="32.0013">
        <ele>704.890315</ele>
        <time>2021-11-16T12:43:25.212Z</time>
      </trkpt>
      <trkpt lat="39.42373" lon="32.00113">
        <ele>704.947052</ele>
        <time>2021-11-16T12:43:28.698Z</time>
      </trkpt>
      <trkpt lat="39.42364" lon="32.00098">
        <ele>705.007411</ele>
        <time>2021-11-16T12:43:32.025Z</time>
      </trkpt>
      <trkpt lat="39.42337" lon="32.0009">
        <ele>705.127842</ele>
        <time>2021-11-16T12:43:39.102Z</time>
      </trkpt>
      <trkpt lat="39.42319" lon="32.00076">
        <ele>705.236353</ele>
        <time>2021-11-16T12:43:44.118Z</time>
      </trkpt>
      <trkpt lat="39.42071" lon="31.99774">
        <ele>707.509832</ele>
        <time>2021-11-16T12:45:09.303Z</time>
      </trkpt>
      <trkpt lat="39.41658" lon="31.99261">
        <ele>709.683708</ele>
        <time>2021-11-16T12:47:24.944Z</time>
      </trkpt>
      <trkpt lat="39.41581" lon="31.99154">
        <ele>709.966736</ele>
        <time>2021-11-16T12:47:52.315Z</time>
      </trkpt>
      <trkpt lat="39.414" lon="31.986">
        <ele>708.774859</ele>
        <time>2021-11-16T12:49:32.334Z</time>
      </trkpt>
      <trkpt lat="39.41365" lon="31.98485">
        <ele>707.809815</ele>
        <time>2021-11-16T12:49:49.652Z</time>
      </trkpt>
      <trkpt lat="39.41258" lon="31.98135">
        <ele>704.757892</ele>
        <time>2021-11-16T12:50:44.724Z</time>
      </trkpt>
      <trkpt lat="39.41252" lon="31.98099">
        <ele>704.542481</ele>
        <time>2021-11-16T12:50:50.667Z</time>
      </trkpt>
      <trkpt lat="39.41252" lon="31.9804">
        <ele>704.197385</ele>
        <time>2021-11-16T12:51:00.210Z</time>
      </trkpt>
      <trkpt lat="39.41263" lon="31.97997">
        <ele>704.015787</ele>
        <time>2021-11-16T12:51:07.593Z</time>
      </trkpt>
      <trkpt lat="39.41295" lon="31.97945">
        <ele>703.895812</ele>
        <time>2021-11-16T12:51:18.541Z</time>
      </trkpt>
      <trkpt lat="39.41461" lon="31.97796">
        <ele>703.646383</ele>
        <time>2021-11-16T12:52:02.056Z</time>
      </trkpt>
      <trkpt lat="39.41498" lon="31.97751">
        <ele>703.654077</ele>
        <time>2021-11-16T12:52:13.543Z</time>
      </trkpt>
      <trkpt lat="39.41518" lon="31.97704">
        <ele>703.669109</ele>
        <time>2021-11-16T12:52:23.123Z</time>
      </trkpt>
      <trkpt lat="39.41523" lon="31.9767">
        <ele>703.804099</ele>
        <time>2021-11-16T12:52:29.421Z</time>
      </trkpt>
      <trkpt lat="39.4151" lon="31.97507">
        <ele>704.443224</ele>
        <time>2021-11-16T12:53:00.338Z</time>
      </trkpt>
      <trkpt lat="39.41515" lon="31.97459">
        <ele>704.660383</ele>
        <time>2021-11-16T12:53:09.657Z</time>
      </trkpt>
      <trkpt lat="39.41572" lon="31.97059">
        <ele>706.762932</ele>
        <time>2021-11-16T12:54:29.036Z</time>
      </trkpt>
      <trkpt lat="39.41648" lon="31.96525">
        <ele>707.553075</ele>
        <time>2021-11-16T12:56:03.355Z</time>
      </trkpt>
      <trkpt lat="39.41647" lon="31.9643">
        <ele>708.111718</ele>
        <time>2021-11-16T12:56:21.659Z</time>
      </trkpt>
      <trkpt lat="39.41635" lon="31.96387">
        <ele>708.380545</ele>
        <time>2021-11-16T12:56:30.856Z</time>
      </trkpt>
      <trkpt lat="39.41451" lon="31.95941">
        <ele>713.221223</ele>
        <time>2021-11-16T12:58:18.636Z</time>
      </trkpt>
      <trkpt lat="39.41399" lon="31.95837">
        <ele>714.148051</ele>
        <time>2021-11-16T12:58:43.837Z</time>
      </trkpt>
      <trkpt lat="39.40956" lon="31.95054">
        <ele>720.953492</ele>
        <time>2021-11-16T13:01:57.222Z</time>
      </trkpt>
      <trkpt lat="39.4092" lon="31.94969">
        <ele>721.565904</ele>
        <time>2021-11-16T13:02:16.587Z</time>
      </trkpt>
      <trkpt lat="39.40907" lon="31.94923">
        <ele>721.76235</ele>
        <time>2021-11-16T13:02:26.162Z</time>
      </trkpt>
      <trkpt lat="39.40897" lon="31.94862">
        <ele>722.012448</ele>
        <time>2021-11-16T13:02:38.140Z</time>
      </trkpt>
      <trkpt lat="39.40805" lon="31.94142">
        <ele>724.153098</ele>
        <time>2021-11-16T13:04:50.228Z</time>
      </trkpt>
      <trkpt lat="39.408" lon="31.94101">
        <ele>724.316475</ele>
        <time>2021-11-16T13:04:58.426Z</time>
      </trkpt>
      <trkpt lat="39.40794" lon="31.94028">
        <ele>724.67419</ele>
        <time>2021-11-16T13:05:12.955Z</time>
      </trkpt>
      <trkpt lat="39.40793" lon="31.93996">
        <ele>724.859496</ele>
        <time>2021-11-16T13:05:19.436Z</time>
      </trkpt>
      <trkpt lat="39.40783" lon="31.93975">
        <ele>725.00698</ele>
        <time>2021-11-16T13:05:24.558Z</time>
      </trkpt>
      <trkpt lat="39.40747" lon="31.93872">
        <ele>725.665728</ele>
        <time>2021-11-16T13:05:47.533Z</time>
      </trkpt>
      <trkpt lat="39.40702" lon="31.93753">
        <ele>726.145178</ele>
        <time>2021-11-16T13:06:12.857Z</time>
      </trkpt>
      <trkpt lat="39.40706" lon="31.93723">
        <ele>726.236241</ele>
        <time>2021-11-16T13:06:18.648Z</time>
      </trkpt>
      <trkpt lat="39.40708" lon="31.93704">
        <ele>726.294126</ele>
        <time>2021-11-16T13:06:22.223Z</time>
      </trkpt>
      <trkpt lat="39.40711" lon="31.93681">
        <ele>726.363623</ele>
        <time>2021-11-16T13:06:26.701Z</time>
      </trkpt>
      <trkpt lat="39.40747" lon="31.9348">
        <ele>726.949831</ele>
        <time>2021-11-16T13:07:05.792Z</time>
      </trkpt>
      <trkpt lat="39.40761" lon="31.93451">
        <ele>727.044293</ele>
        <time>2021-11-16T13:07:12.236Z</time>
      </trkpt>
      <trkpt lat="39.40772" lon="31.9344">
        <ele>727.093814</ele>
        <time>2021-11-16T13:07:15.595Z</time>
      </trkpt>
      <trkpt lat="39.40769" lon="31.93365">
        <ele>727.408422</ele>
        <time>2021-11-16T13:07:29.483Z</time>
      </trkpt>
      <trkpt lat="39.40767" lon="31.93316">
        <ele>727.655429</ele>
        <time>2021-11-16T13:07:38.597Z</time>
      </trkpt>
      <trkpt lat="39.40766" lon="31.93218">
        <ele>728.155523</ele>
        <time>2021-11-16T13:07:57.721Z</time>
      </trkpt>
      <trkpt lat="39.40766" lon="31.93209">
        <ele>728.202328</ele>
        <time>2021-11-16T13:07:59.479Z</time>
      </trkpt>
      <trkpt lat="39.40766" lon="31.93203">
        <ele>728.230307</ele>
        <time>2021-11-16T13:08:00.583Z</time>
      </trkpt>
      <trkpt lat="39.40903" lon="31.89842">
        <ele>755.599317</ele>
        <time>2021-11-16T13:19:30.108Z</time>
      </trkpt>
      <trkpt lat="39.40896" lon="31.89717">
        <ele>756.188778</ele>
        <time>2021-11-16T13:19:53.070Z</time>
      </trkpt>
      <trkpt lat="39.40799" lon="31.89164">
        <ele>757.230795</ele>
        <time>2021-11-16T13:21:34.110Z</time>
      </trkpt>
      <trkpt lat="39.40793" lon="31.89095">
        <ele>757.370125</ele>
        <time>2021-11-16T13:21:46.770Z</time>
      </trkpt>
      <trkpt lat="39.40793" lon="31.89039">
        <ele>757.482495</ele>
        <time>2021-11-16T13:21:56.953Z</time>
      </trkpt>
      <trkpt lat="39.40826" lon="31.88604">
        <ele>758.493786</ele>
        <time>2021-11-16T13:23:15.590Z</time>
      </trkpt>
      <trkpt lat="39.40845" lon="31.88453">
        <ele>759.016987</ele>
        <time>2021-11-16T13:23:44.398Z</time>
      </trkpt>
      <trkpt lat="39.40871" lon="31.88375">
        <ele>759.353608</ele>
        <time>2021-11-16T13:24:00.569Z</time>
      </trkpt>
      <trkpt lat="39.4117" lon="31.87594">
        <ele>762.460507</ele>
        <time>2021-11-16T13:26:41.943Z</time>
      </trkpt>
      <trkpt lat="39.41208" lon="31.87506">
        <ele>762.933964</ele>
        <time>2021-11-16T13:27:01.614Z</time>
      </trkpt>
      <trkpt lat="39.41233" lon="31.87465">
        <ele>763.229607</ele>
        <time>2021-11-16T13:27:11.955Z</time>
      </trkpt>
      <trkpt lat="39.41279" lon="31.87411">
        <ele>763.715208</ele>
        <time>2021-11-16T13:27:27.932Z</time>
      </trkpt>
      <trkpt lat="39.41325" lon="31.8738">
        <ele>764.120739</ele>
        <time>2021-11-16T13:27:41.226Z</time>
      </trkpt>
      <trkpt lat="39.4177" lon="31.87144">
        <ele>766.94457</ele>
        <time>2021-11-16T13:29:39.559Z</time>
      </trkpt>
      <trkpt lat="39.41852" lon="31.8708">
        <ele>767.345833</ele>
        <time>2021-11-16T13:30:01.855Z</time>
      </trkpt>
      <trkpt lat="39.41871" lon="31.87048">
        <ele>767.564968</ele>
        <time>2021-11-16T13:30:09.258Z</time>
      </trkpt>
      <trkpt lat="39.4189" lon="31.87004">
        <ele>767.838657</ele>
        <time>2021-11-16T13:30:18.645Z</time>
      </trkpt>
      <trkpt lat="39.41899" lon="31.86968">
        <ele>768.044101</ele>
        <time>2021-11-16T13:30:25.861Z</time>
      </trkpt>
      <trkpt lat="39.41904" lon="31.86911">
        <ele>768.355574</ele>
        <time>2021-11-16T13:30:37.043Z</time>
      </trkpt>
      <trkpt lat="39.41915" lon="31.86638">
        <ele>770.810821</ele>
        <time>2021-11-16T13:31:34.985Z</time>
      </trkpt>
      <trkpt lat="39.41918" lon="31.8655">
        <ele>771.610203</ele>
        <time>2021-11-16T13:31:53.655Z</time>
      </trkpt>
      <trkpt lat="39.41934" lon="31.8642">
        <ele>772.804468</ele>
        <time>2021-11-16T13:32:20.956Z</time>
      </trkpt>
      <trkpt lat="39.41975" lon="31.8628">
        <ele>773.811797</ele>
        <time>2021-11-16T13:32:50.784Z</time>
      </trkpt>
      <trkpt lat="39.42011" lon="31.86209">
        <ele>774.353703</ele>
        <time>2021-11-16T13:33:07.297Z</time>
      </trkpt>
      <trkpt lat="39.42121" lon="31.86094">
        <ele>775.401229</ele>
        <time>2021-11-16T13:33:42.335Z</time>
      </trkpt>
      <trkpt lat="39.42142" lon="31.86065">
        <ele>775.625957</ele>
        <time>2021-11-16T13:33:50.089Z</time>
      </trkpt>
      <trkpt lat="39.42155" lon="31.86037">
        <ele>775.827979</ele>
        <time>2021-11-16T13:33:56.557Z</time>
      </trkpt>
      <trkpt lat="39.42174" lon="31.85972">
        <ele>776.455875</ele>
        <time>2021-11-16T13:34:10.603Z</time>
      </trkpt>
      <trkpt lat="39.42233" lon="31.8557">
        <ele>780.116688</ele>
        <time>2021-11-16T13:35:37.235Z</time>
      </trkpt>
      <trkpt lat="39.42246" lon="31.85509">
        <ele>780.189441</ele>
        <time>2021-11-16T13:35:49.414Z</time>
      </trkpt>
      <trkpt lat="39.42389" lon="31.84982">
        <ele>780.779288</ele>
        <time>2021-11-16T13:37:24.899Z</time>
      </trkpt>
      <trkpt lat="39.42396" lon="31.84929">
        <ele>780.82496</ele>
        <time>2021-11-16T13:37:34.636Z</time>
      </trkpt>
      <trkpt lat="39.42398" lon="31.84867">
        <ele>781.30458</ele>
        <time>2021-11-16T13:37:46.343Z</time>
      </trkpt>
      <trkpt lat="39.42391" lon="31.84805">
        <ele>781.824744</ele>
        <time>2021-11-16T13:37:58.670Z</time>
      </trkpt>
      <trkpt lat="39.42244" lon="31.84248">
        <ele>788.618605</ele>
        <time>2021-11-16T13:40:08.284Z</time>
      </trkpt>
      <trkpt lat="39.4224" lon="31.84191">
        <ele>789.476865</ele>
        <time>2021-11-16T13:40:21.721Z</time>
      </trkpt>
      <trkpt lat="39.42243" lon="31.84134">
        <ele>790.333586</ele>
        <time>2021-11-16T13:40:35.148Z</time>
      </trkpt>
      <trkpt lat="39.4226" lon="31.8401">
        <ele>792.170144</ele>
        <time>2021-11-16T13:41:04.831Z</time>
      </trkpt>
      <trkpt lat="39.42293" lon="31.83845">
        <ele>794.220122</ele>
        <time>2021-11-16T13:41:43.105Z</time>
      </trkpt>
      <trkpt lat="39.42336" lon="31.83644">
        <ele>795.693575</ele>
        <time>2021-11-16T13:42:24.889Z</time>
      </trkpt>
      <trkpt lat="39.42514" lon="31.83021">
        <ele>797.152306</ele>
        <time>2021-11-16T13:44:23.237Z</time>
      </trkpt>
      <trkpt lat="39.42587" lon="31.82765">
        <ele>797.892691</ele>
        <time>2021-11-16T13:45:12.951Z</time>
      </trkpt>
      <trkpt lat="39.42616" lon="31.82677">
        <ele>798.248297</ele>
        <time>2021-11-16T13:45:30.820Z</time>
      </trkpt>
      <trkpt lat="39.42799" lon="31.82299">
        <ele>800.602605</ele>
        <time>2021-11-16T13:46:56.740Z</time>
      </trkpt>
      <trkpt lat="39.42864" lon="31.82145">
        <ele>802.025203</ele>
        <time>2021-11-16T13:47:32.725Z</time>
      </trkpt>
      <trkpt lat="39.43318" lon="31.80945">
        <ele>815.37367</ele>
        <time>2021-11-16T13:52:17.480Z</time>
      </trkpt>
      <trkpt lat="39.43391" lon="31.80753">
        <ele>816.67966</ele>
        <time>2021-11-16T13:52:58.216Z</time>
      </trkpt>
      <trkpt lat="39.43417" lon="31.80683">
        <ele>817.029777</ele>
        <time>2021-11-16T13:53:12.636Z</time>
      </trkpt>
      <trkpt lat="39.43493" lon="31.80482">
        <ele>818.272848</ele>
        <time>2021-11-16T13:53:55.550Z</time>
      </trkpt>
      <trkpt lat="39.43574" lon="31.80269">
        <ele>820.27553</ele>
        <time>2021-11-16T13:54:44.166Z</time>
      </trkpt>
      <trkpt lat="39.43586" lon="31.80167">
        <ele>821.50111</ele>
        <time>2021-11-16T13:55:06.783Z</time>
      </trkpt>
      <trkpt lat="39.43581" lon="31.80104">
        <ele>822.419858</ele>
        <time>2021-11-16T13:55:21.237Z</time>
      </trkpt>
      <trkpt lat="39.43561" lon="31.80018">
        <ele>823.722785</ele>
        <time>2021-11-16T13:55:42.445Z</time>
      </trkpt>
      <trkpt lat="39.43473" lon="31.79728">
        <ele>828.902769</ele>
        <time>2021-11-16T13:56:57.702Z</time>
      </trkpt>
      <trkpt lat="39.43445" lon="31.79594">
        <ele>830.895414</ele>
        <time>2021-11-16T13:57:29.502Z</time>
      </trkpt>
      <trkpt lat="39.43439" lon="31.79511">
        <ele>831.928955</ele>
        <time>2021-11-16T13:57:47.759Z</time>
      </trkpt>
      <trkpt lat="39.43462" lon="31.79295">
        <ele>834.138125</ele>
        <time>2021-11-16T13:58:33.719Z</time>
      </trkpt>
      <trkpt lat="39.43484" lon="31.7915">
        <ele>835.472405</ele>
        <time>2021-11-16T13:59:04.113Z</time>
      </trkpt>
      <trkpt lat="39.43529" lon="31.79001">
        <ele>837.197243</ele>
        <time>2021-11-16T13:59:37.702Z</time>
      </trkpt>
      <trkpt lat="39.4384" lon="31.78284">
        <ele>846.826107</ele>
        <time>2021-11-16T14:02:39.315Z</time>
      </trkpt>
      <trkpt lat="39.43857" lon="31.78205">
        <ele>847.173989</ele>
        <time>2021-11-16T14:02:55.539Z</time>
      </trkpt>
      <trkpt lat="39.43859" lon="31.78142">
        <ele>847.384696</ele>
        <time>2021-11-16T14:03:07.227Z</time>
      </trkpt>
      <trkpt lat="39.43848" lon="31.78058">
        <ele>847.669409</ele>
        <time>2021-11-16T14:03:21.921Z</time>
      </trkpt>
      <trkpt lat="39.43778" lon="31.77794">
        <ele>847.2857</ele>
        <time>2021-11-16T14:04:07.301Z</time>
      </trkpt>
      <trkpt lat="39.43764" lon="31.77703">
        <ele>847.455865</ele>
        <time>2021-11-16T14:04:23.302Z</time>
      </trkpt>
      <trkpt lat="39.43763" lon="31.77585">
        <ele>847.800567</ele>
        <time>2021-11-16T14:04:45.563Z</time>
      </trkpt>
      <trkpt lat="39.4377" lon="31.77502">
        <ele>848.822565</ele>
        <time>2021-11-16T14:05:02.506Z</time>
      </trkpt>
      <trkpt lat="39.44017" lon="31.76636">
        <ele>860.504806</ele>
        <time>2021-11-16T14:08:29.613Z</time>
      </trkpt>
      <trkpt lat="39.44056" lon="31.76516">
        <ele>862.361185</ele>
        <time>2021-11-16T14:08:59.922Z</time>
      </trkpt>
      <trkpt lat="39.44312" lon="31.759">
        <ele>871.869692</ele>
        <time>2021-11-16T14:11:39.129Z</time>
      </trkpt>
      <trkpt lat="39.44335" lon="31.75825">
        <ele>872.513964</ele>
        <time>2021-11-16T14:11:55.230Z</time>
      </trkpt>
      <trkpt lat="39.44351" lon="31.75759">
        <ele>872.993295</ele>
        <time>2021-11-16T14:12:08.711Z</time>
      </trkpt>
      <trkpt lat="39.44362" lon="31.75674">
        <ele>873.590488</ele>
        <time>2021-11-16T14:12:25.133Z</time>
      </trkpt>
      <trkpt lat="39.44376" lon="31.75186">
        <ele>877.564323</ele>
        <time>2021-11-16T14:14:04.684Z</time>
      </trkpt>
      <trkpt lat="39.44391" lon="31.74846">
        <ele>882.047875</ele>
        <time>2021-11-16T14:15:20.740Z</time>
      </trkpt>
      <trkpt lat="39.44405" lon="31.7476">
        <ele>883.366718</ele>
        <time>2021-11-16T14:15:41.679Z</time>
      </trkpt>
      <trkpt lat="39.44426" lon="31.74691">
        <ele>884.541452</ele>
        <time>2021-11-16T14:15:59.538Z</time>
      </trkpt>
      <trkpt lat="39.44456" lon="31.74624">
        <ele>885.803401</ele>
        <time>2021-11-16T14:16:18.335Z</time>
      </trkpt>
      <trkpt lat="39.44558" lon="31.74439">
        <ele>889.192592</ele>
        <time>2021-11-16T14:17:11.324Z</time>
      </trkpt>
      <trkpt lat="39.44574" lon="31.74396">
        <ele>889.844994</ele>
        <time>2021-11-16T14:17:21.913Z</time>
      </trkpt>
      <trkpt lat="39.44645" lon="31.74103">
        <ele>893.645106</ele>
        <time>2021-11-16T14:18:28.763Z</time>
      </trkpt>
      <trkpt lat="39.44709" lon="31.73786">
        <ele>899.074595</ele>
        <time>2021-11-16T14:19:45.788Z</time>
      </trkpt>
      <trkpt lat="39.44746" lon="31.73657">
        <ele>901.798699</ele>
        <time>2021-11-16T14:20:21.480Z</time>
      </trkpt>
      <trkpt lat="39.44781" lon="31.7358">
        <ele>904.028391</ele>
        <time>2021-11-16T14:20:45.685Z</time>
      </trkpt>
      <trkpt lat="39.44819" lon="31.7351">
        <ele>906.163667</ele>
        <time>2021-11-16T14:21:09.210Z</time>
      </trkpt>
      <trkpt lat="39.44868" lon="31.73438">
        <ele>908.426834</ele>
        <time>2021-11-16T14:21:35.462Z</time>
      </trkpt>
      <trkpt lat="39.44918" lon="31.73335">
        <ele>911.115944</ele>
        <time>2021-11-16T14:22:07.427Z</time>
      </trkpt>
      <trkpt lat="39.44924" lon="31.733">
        <ele>911.908385</ele>
        <time>2021-11-16T14:22:16.489Z</time>
      </trkpt>
      <trkpt lat="39.44896" lon="31.732">
        <ele>913.607684</ele>
        <time>2021-11-16T14:22:42.235Z</time>
      </trkpt>
      <trkpt lat="39.44891" lon="31.73166">
        <ele>914.080344</ele>
        <time>2021-11-16T14:22:50.141Z</time>
      </trkpt>
      <trkpt lat="39.44891" lon="31.73136">
        <ele>914.490033</ele>
        <time>2021-11-16T14:22:56.775Z</time>
      </trkpt>
      <trkpt lat="39.44906" lon="31.73077">
        <ele>915.338301</ele>
        <time>2021-11-16T14:23:10.126Z</time>
      </trkpt>
      <trkpt lat="39.44977" lon="31.72859">
        <ele>917.985169</ele>
        <time>2021-11-16T14:23:59.787Z</time>
      </trkpt>
      <trkpt lat="39.45148" lon="31.72339">
        <ele>927.748789</ele>
        <time>2021-11-16T14:26:14.730Z</time>
      </trkpt>
      <trkpt lat="39.45182" lon="31.72265">
        <ele>929.800858</ele>
        <time>2021-11-16T14:26:37.942Z</time>
      </trkpt>
      <trkpt lat="39.45529" lon="31.71631">
        <ele>952.654533</ele>
        <time>2021-11-16T14:30:25.694Z</time>
      </trkpt>
      <trkpt lat="39.45819" lon="31.70948">
        <ele>971.074578</ele>
        <time>2021-11-16T14:33:50.278Z</time>
      </trkpt>
      <trkpt lat="39.45851" lon="31.70825">
        <ele>974.842714</ele>
        <time>2021-11-16T14:34:29.250Z</time>
      </trkpt>
      <trkpt lat="39.45862" lon="31.70747">
        <ele>977.327663</ele>
        <time>2021-11-16T14:34:53.846Z</time>
      </trkpt>
      <trkpt lat="39.45885" lon="31.7027">
        <ele>992.307501</ele>
        <time>2021-11-16T14:37:15.395Z</time>
      </trkpt>
      <trkpt lat="39.45897" lon="31.70155">
        <ele>995.896888</ele>
        <time>2021-11-16T14:37:50.723Z</time>
      </trkpt>
      <trkpt lat="39.45907" lon="31.70112">
        <ele>997.259402</ele>
        <time>2021-11-16T14:38:03.640Z</time>
      </trkpt>
      <trkpt lat="39.4592" lon="31.70084">
        <ele>997.869303</ele>
        <time>2021-11-16T14:38:12.729Z</time>
      </trkpt>
      <trkpt lat="39.45928" lon="31.70068">
        <ele>998.224074</ele>
        <time>2021-11-16T14:38:18.324Z</time>
      </trkpt>
      <trkpt lat="39.46061" lon="31.69855">
        <ele>1002.064937</ele>
        <time>2021-11-16T14:39:21.752Z</time>
      </trkpt>
      <trkpt lat="39.46143" lon="31.697">
        <ele>1003.201568</ele>
        <time>2021-11-16T14:39:52.695Z</time>
      </trkpt>
      <trkpt lat="39.46164" lon="31.69633">
        <ele>1003.792261</ele>
        <time>2021-11-16T14:40:05.399Z</time>
      </trkpt>
      <trkpt lat="39.46298" lon="31.69059">
        <ele>1013.208459</ele>
        <time>2021-11-16T14:42:31.303Z</time>
      </trkpt>
      <trkpt lat="39.46343" lon="31.68949">
        <ele>1014.391153</ele>
        <time>2021-11-16T14:42:59.272Z</time>
      </trkpt>
      <trkpt lat="39.47378" lon="31.67276">
        <ele>1018.450134</ele>
        <time>2021-11-16T14:49:20.274Z</time>
      </trkpt>
      <trkpt lat="39.4751" lon="31.67106">
        <ele>1019.359011</ele>
        <time>2021-11-16T14:50:06.188Z</time>
      </trkpt>
      <trkpt lat="39.47813" lon="31.66756">
        <ele>1020.132033</ele>
        <time>2021-11-16T14:51:39.297Z</time>
      </trkpt>
      <trkpt lat="39.47852" lon="31.66718">
        <ele>1020.118581</ele>
        <time>2021-11-16T14:51:50.082Z</time>
      </trkpt>
      <trkpt lat="39.481" lon="31.66518">
        <ele>1020.003256</ele>
        <time>2021-11-16T14:52:54.210Z</time>
      </trkpt>
      <trkpt lat="39.48311" lon="31.6636">
        <ele>1020.883354</ele>
        <time>2021-11-16T14:53:51.537Z</time>
      </trkpt>
      <trkpt lat="39.48342" lon="31.66324">
        <ele>1021.129434</ele>
        <time>2021-11-16T14:54:01.915Z</time>
      </trkpt>
      <trkpt lat="39.48362" lon="31.66287">
        <ele>1021.335521</ele>
        <time>2021-11-16T14:54:10.671Z</time>
      </trkpt>
      <trkpt lat="39.48385" lon="31.66204">
        <ele>1021.763789</ele>
        <time>2021-11-16T14:54:27.939Z</time>
      </trkpt>
      <trkpt lat="39.485" lon="31.65675">
        <ele>1024.309557</ele>
        <time>2021-11-16T14:56:13.545Z</time>
      </trkpt>
      <trkpt lat="39.48531" lon="31.65564">
        <ele>1024.538076</ele>
        <time>2021-11-16T14:56:34.280Z</time>
      </trkpt>
      <trkpt lat="39.48556" lon="31.65514">
        <ele>1024.136073</ele>
        <time>2021-11-16T14:56:43.935Z</time>
      </trkpt>
      <trkpt lat="39.48597" lon="31.65477">
        <ele>1023.699231</ele>
        <time>2021-11-16T14:56:53.912Z</time>
      </trkpt>
      <trkpt lat="39.48638" lon="31.65453">
        <ele>1023.305882</ele>
        <time>2021-11-16T14:57:02.552Z</time>
      </trkpt>
      <trkpt lat="39.48808" lon="31.65406">
        <ele>1020.08772</ele>
        <time>2021-11-16T14:57:33.366Z</time>
      </trkpt>
      <trkpt lat="39.48828" lon="31.65391">
        <ele>1019.61115</ele>
        <time>2021-11-16T14:57:37.263Z</time>
      </trkpt>
      <trkpt lat="39.48846" lon="31.65359">
        <ele>1018.845221</ele>
        <time>2021-11-16T14:57:42.379Z</time>
      </trkpt>
      <trkpt lat="39.48858" lon="31.65318">
        <ele>1017.873441</ele>
        <time>2021-11-16T14:57:47.995Z</time>
      </trkpt>
      <trkpt lat="39.48882" lon="31.6519">
        <ele>1014.954225</ele>
        <time>2021-11-16T14:58:04.642Z</time>
      </trkpt>
      <trkpt lat="39.48921" lon="31.65077">
        <ele>1013.178086</ele>
        <time>2021-11-16T14:58:20.540Z</time>
      </trkpt>
      <trkpt lat="39.48958" lon="31.65017">
        <ele>1012.319877</ele>
        <time>2021-11-16T14:58:31.453Z</time>
      </trkpt>
      <trkpt lat="39.48998" lon="31.64985">
        <ele>1011.639217</ele>
        <time>2021-11-16T14:58:41.293Z</time>
      </trkpt>
      <trkpt lat="39.48998" lon="31.64985">
        <ele>1011.639217</ele>
        <time>2021-11-16T14:58:41.359Z</time>
      </trkpt>
      <trkpt lat="39.48998" lon="31.64985">
        <ele>1011.639217</ele>
        <time>2021-11-16T14:58:41.961Z</time>
      </trkpt>
      <trkpt lat="39.49033" lon="31.64972">
        <ele>1012.444167</ele>
        <time>2021-11-16T14:58:51.259Z</time>
      </trkpt>
      <trkpt lat="39.49069" lon="31.64976">
        <ele>1013.4859</ele>
        <time>2021-11-16T14:59:02.026Z</time>
      </trkpt>
      <trkpt lat="39.49104" lon="31.64997">
        <ele>1014.59792</ele>
        <time>2021-11-16T14:59:15.086Z</time>
      </trkpt>
      <trkpt lat="39.49148" lon="31.65038">
        <ele>1016.160436</ele>
        <time>2021-11-16T14:59:36.361Z</time>
      </trkpt>
      <trkpt lat="39.49176" lon="31.65056">
        <ele>1017.322094</ele>
        <time>2021-11-16T14:59:49.704Z</time>
      </trkpt>
      <trkpt lat="39.49206" lon="31.65062">
        <ele>1018.913074</ele>
        <time>2021-11-16T15:00:02.976Z</time>
      </trkpt>
      <trkpt lat="39.49245" lon="31.65054">
        <ele>1020.982597</ele>
        <time>2021-11-16T15:00:20.565Z</time>
      </trkpt>
      <trkpt lat="39.49275" lon="31.65035">
        <ele>1022.73271</ele>
        <time>2021-11-16T15:00:35.542Z</time>
      </trkpt>
      <trkpt lat="39.49289" lon="31.65007">
        <ele>1024.082148</ele>
        <time>2021-11-16T15:00:47.065Z</time>
      </trkpt>
      <trkpt lat="39.49296" lon="31.64963">
        <ele>1025.899221</ele>
        <time>2021-11-16T15:01:02.317Z</time>
      </trkpt>
      <trkpt lat="39.49288" lon="31.64668">
        <ele>1035.51801</ele>
        <time>2021-11-16T15:02:32.437Z</time>
      </trkpt>
      <trkpt lat="39.49274" lon="31.6458">
        <ele>1037.818223</ele>
        <time>2021-11-16T15:02:56.834Z</time>
      </trkpt>
      <trkpt lat="39.49256" lon="31.64529">
        <ele>1039.253918</ele>
        <time>2021-11-16T15:03:11.520Z</time>
      </trkpt>
      <trkpt lat="39.49212" lon="31.64437">
        <ele>1041.240358</ele>
        <time>2021-11-16T15:03:38.384Z</time>
      </trkpt>
      <trkpt lat="39.49194" lon="31.64373">
        <ele>1042.285743</ele>
        <time>2021-11-16T15:03:54.367Z</time>
      </trkpt>
      <trkpt lat="39.4919" lon="31.64316">
        <ele>1043.164116</ele>
        <time>2021-11-16T15:04:07.240Z</time>
      </trkpt>
      <trkpt lat="39.49192" lon="31.64274">
        <ele>1043.724007</ele>
        <time>2021-11-16T15:04:16.457Z</time>
      </trkpt>
      <trkpt lat="39.49344" lon="31.63712">
        <ele>1048.025259</ele>
        <time>2021-11-16T15:06:15.469Z</time>
      </trkpt>
      <trkpt lat="39.49373" lon="31.63621">
        <ele>1048.670358</ele>
        <time>2021-11-16T15:06:34.226Z</time>
      </trkpt>
      <trkpt lat="39.49573" lon="31.63147">
        <ele>1054.113586</ele>
        <time>2021-11-16T15:08:23.013Z</time>
      </trkpt>
      <trkpt lat="39.49623" lon="31.63004">
        <ele>1058.215023</ele>
        <time>2021-11-16T15:09:09.433Z</time>
      </trkpt>
      <trkpt lat="39.49699" lon="31.62742">
        <ele>1072.290248</ele>
        <time>2021-11-16T15:10:58.967Z</time>
      </trkpt>
      <trkpt lat="39.49708" lon="31.62686">
        <ele>1074.826959</ele>
        <time>2021-11-16T15:11:21.559Z</time>
      </trkpt>
      <trkpt lat="39.49711" lon="31.62604">
        <ele>1078.467477</ele>
        <time>2021-11-16T15:11:50.251Z</time>
      </trkpt>
      <trkpt lat="39.49707" lon="31.62524">
        <ele>1080.503692</ele>
        <time>2021-11-16T15:12:14.102Z</time>
      </trkpt>
      <trkpt lat="39.49665" lon="31.62207">
        <ele>1078.21267</ele>
        <time>2021-11-16T15:13:03.552Z</time>
      </trkpt>
      <trkpt lat="39.49654" lon="31.62135">
        <ele>1076.520894</ele>
        <time>2021-11-16T15:13:12.138Z</time>
      </trkpt>
      <trkpt lat="39.49621" lon="31.62027">
        <ele>1071.140523</ele>
        <time>2021-11-16T15:13:25.170Z</time>
      </trkpt>
      <trkpt lat="39.49616" lon="31.61998">
        <ele>1069.473669</ele>
        <time>2021-11-16T15:13:28.409Z</time>
      </trkpt>
      <trkpt lat="39.49616" lon="31.61966">
        <ele>1067.678641</ele>
        <time>2021-11-16T15:13:31.881Z</time>
      </trkpt>
      <trkpt lat="39.49637" lon="31.61896">
        <ele>1063.465723</ele>
        <time>2021-11-16T15:13:39.991Z</time>
      </trkpt>
      <trkpt lat="39.49638" lon="31.61865">
        <ele>1061.677184</ele>
        <time>2021-11-16T15:13:43.346Z</time>
      </trkpt>
      <trkpt lat="39.4963" lon="31.61838">
        <ele>1059.970815</ele>
        <time>2021-11-16T15:13:46.479Z</time>
      </trkpt>
      <trkpt lat="39.49583" lon="31.61733">
        <ele>1052.809095</ele>
        <time>2021-11-16T15:13:59.698Z</time>
      </trkpt>
      <trkpt lat="39.49583" lon="31.617">
        <ele>1050.86211</ele>
        <time>2021-11-16T15:14:03.304Z</time>
      </trkpt>
      <trkpt lat="39.49593" lon="31.61662">
        <ele>1048.537517</ele>
        <time>2021-11-16T15:14:07.698Z</time>
      </trkpt>
      <trkpt lat="39.49647" lon="31.61575">
        <ele>1042.661914</ele>
        <time>2021-11-16T15:14:20.034Z</time>
      </trkpt>
      <trkpt lat="39.49652" lon="31.61518">
        <ele>1039.643002</ele>
        <time>2021-11-16T15:14:26.453Z</time>
      </trkpt>
      <trkpt lat="39.49641" lon="31.6149">
        <ele>1037.989553</ele>
        <time>2021-11-16T15:14:29.971Z</time>
      </trkpt>
      <trkpt lat="39.49627" lon="31.6147">
        <ele>1036.571603</ele>
        <time>2021-11-16T15:14:32.994Z</time>
      </trkpt>
      <trkpt lat="39.49541" lon="31.61401">
        <ele>1029.986225</ele>
        <time>2021-11-16T15:14:47.595Z</time>
      </trkpt>
      <trkpt lat="39.49533" lon="31.61385">
        <ele>1029.028385</ele>
        <time>2021-11-16T15:14:49.715Z</time>
      </trkpt>
      <trkpt lat="39.49526" lon="31.61341">
        <ele>1026.771304</ele>
        <time>2021-11-16T15:14:54.722Z</time>
      </trkpt>
      <trkpt lat="39.49533" lon="31.61313">
        <ele>1025.292582</ele>
        <time>2021-11-16T15:14:58.013Z</time>
      </trkpt>
      <trkpt lat="39.49584" lon="31.61227">
        <ele>1020.848589</ele>
        <time>2021-11-16T15:15:10.252Z</time>
      </trkpt>
      <trkpt lat="39.4959" lon="31.61204">
        <ele>1019.870055</ele>
        <time>2021-11-16T15:15:13.047Z</time>
      </trkpt>
      <trkpt lat="39.4959" lon="31.61178">
        <ele>1018.822146</ele>
        <time>2021-11-16T15:15:16.055Z</time>
      </trkpt>
      <trkpt lat="39.49581" lon="31.61159">
        <ele>1017.923601</ele>
        <time>2021-11-16T15:15:18.683Z</time>
      </trkpt>
      <trkpt lat="39.49566" lon="31.61144">
        <ele>1016.934012</ele>
        <time>2021-11-16T15:15:21.589Z</time>
      </trkpt>
      <trkpt lat="39.49506" lon="31.61118">
        <ele>1014.3896</ele>
        <time>2021-11-16T15:15:31.677Z</time>
      </trkpt>
      <trkpt lat="39.49489" lon="31.61101">
        <ele>1013.71618</ele>
        <time>2021-11-16T15:15:35.251Z</time>
      </trkpt>
      <trkpt lat="39.4948" lon="31.61078">
        <ele>1013.092092</ele>
        <time>2021-11-16T15:15:38.566Z</time>
      </trkpt>
      <trkpt lat="39.4948" lon="31.61056">
        <ele>1012.559677</ele>
        <time>2021-11-16T15:15:41.447Z</time>
      </trkpt>
      <trkpt lat="39.4949" lon="31.61029">
        <ele>1011.834896</ele>
        <time>2021-11-16T15:15:45.307Z</time>
      </trkpt>
      <trkpt lat="39.49515" lon="31.60988">
        <ele>1010.570298</ele>
        <time>2021-11-16T15:15:52.039Z</time>
      </trkpt>
      <trkpt lat="39.49524" lon="31.6096">
        <ele>1009.820002</ele>
        <time>2021-11-16T15:15:55.877Z</time>
      </trkpt>
      <trkpt lat="39.49526" lon="31.60933">
        <ele>1008.968408</ele>
        <time>2021-11-16T15:15:59.315Z</time>
      </trkpt>
      <trkpt lat="39.49522" lon="31.60895">
        <ele>1007.764304</ele>
        <time>2021-11-16T15:16:04.087Z</time>
      </trkpt>
      <trkpt lat="39.49433" lon="31.60596">
        <ele>997.710571</ele>
        <time>2021-11-16T15:16:42.137Z</time>
      </trkpt>
      <trkpt lat="39.49277" lon="31.60292">
        <ele>988.757449</ele>
        <time>2021-11-16T15:17:27.942Z</time>
      </trkpt>
      <trkpt lat="39.49265" lon="31.60233">
        <ele>987.947471</ele>
        <time>2021-11-16T15:17:36.529Z</time>
      </trkpt>
      <trkpt lat="39.49276" lon="31.60187">
        <ele>987.299155</ele>
        <time>2021-11-16T15:17:43.438Z</time>
      </trkpt>
      <trkpt lat="39.49302" lon="31.60059">
        <ele>986.447825</ele>
        <time>2021-11-16T15:18:03.496Z</time>
      </trkpt>
      <trkpt lat="39.49277" lon="31.60058">
        <ele>986.486247</ele>
        <time>2021-11-16T15:18:08.735Z</time>
      </trkpt>
      <trkpt lat="39.4918" lon="31.60063">
        <ele>986.631252</ele>
        <time>2021-11-16T15:18:32.997Z</time>
      </trkpt>
      <trkpt lat="39.49112" lon="31.60061">
        <ele>987.748221</ele>
        <time>2021-11-16T15:18:50.694Z</time>
      </trkpt>
      <trkpt lat="39.49008" lon="31.60023">
        <ele>989.76662</ele>
        <time>2021-11-16T15:19:23.541Z</time>
      </trkpt>
      <trkpt lat="39.48611" lon="31.599">
        <ele>1002.409973</ele>
        <time>2021-11-16T15:21:48.003Z</time>
      </trkpt>
      <trkpt lat="39.48507" lon="31.59855">
        <ele>1005.220158</ele>
        <time>2021-11-16T15:22:23.818Z</time>
      </trkpt>
      <trkpt lat="39.48405" lon="31.59803">
        <ele>1007.239288</ele>
        <time>2021-11-16T15:22:55.897Z</time>
      </trkpt>
      <trkpt lat="39.48304" lon="31.5974">
        <ele>1008.955963</ele>
        <time>2021-11-16T15:23:25.935Z</time>
      </trkpt>
      <trkpt lat="39.48201" lon="31.59666">
        <ele>1011.397559</ele>
        <time>2021-11-16T15:23:59.753Z</time>
      </trkpt>
      <trkpt lat="39.47621" lon="31.59219">
        <ele>1031.616895</ele>
        <time>2021-11-16T15:27:57.501Z</time>
      </trkpt>
      <trkpt lat="39.47217" lon="31.58899">
        <ele>1040.470021</ele>
        <time>2021-11-16T15:30:14.439Z</time>
      </trkpt>
      <trkpt lat="39.47114" lon="31.58803">
        <ele>1042.5545</ele>
        <time>2021-11-16T15:30:49.952Z</time>
      </trkpt>
      <trkpt lat="39.47024" lon="31.58695">
        <ele>1045.548308</ele>
        <time>2021-11-16T15:31:27.015Z</time>
      </trkpt>
      <trkpt lat="39.46671" lon="31.58202">
        <ele>1060.974967</ele>
        <time>2021-11-16T15:34:26.351Z</time>
      </trkpt>
      <trkpt lat="39.46602" lon="31.58124">
        <ele>1064.044929</ele>
        <time>2021-11-16T15:34:59.513Z</time>
      </trkpt>
      <trkpt lat="39.46535" lon="31.58067">
        <ele>1066.661022</ele>
        <time>2021-11-16T15:35:28.700Z</time>
      </trkpt>
      <trkpt lat="39.46486" lon="31.58034">
        <ele>1068.469128</ele>
        <time>2021-11-16T15:35:49.075Z</time>
      </trkpt>
      <trkpt lat="39.46264" lon="31.57899">
        <ele>1075.12808</ele>
        <time>2021-11-16T15:37:10.812Z</time>
      </trkpt>
      <trkpt lat="39.46068" lon="31.57782">
        <ele>1077.811197</ele>
        <time>2021-11-16T15:38:06.095Z</time>
      </trkpt>
      <trkpt lat="39.45878" lon="31.57665">
        <ele>1081.99258</ele>
        <time>2021-11-16T15:39:09.856Z</time>
      </trkpt>
      <trkpt lat="39.45541" lon="31.57459">
        <ele>1091.602886</ele>
        <time>2021-11-16T15:41:13.564Z</time>
      </trkpt>
      <trkpt lat="39.45521" lon="31.57442">
        <ele>1092.171452</ele>
        <time>2021-11-16T15:41:21.294Z</time>
      </trkpt>
      <trkpt lat="39.4549" lon="31.57414">
        <ele>1093.049118</ele>
        <time>2021-11-16T15:41:32.887Z</time>
      </trkpt>
      <trkpt lat="39.45371" lon="31.57286">
        <ele>1095.891884</ele>
        <time>2021-11-16T15:42:18.450Z</time>
      </trkpt>
      <trkpt lat="39.45361" lon="31.57279">
        <ele>1096.077882</ele>
        <time>2021-11-16T15:42:21.808Z</time>
      </trkpt>
      <trkpt lat="39.45338" lon="31.57268">
        <ele>1096.485856</ele>
        <time>2021-11-16T15:42:28.424Z</time>
      </trkpt>
      <trkpt lat="39.45199" lon="31.57237">
        <ele>1098.696318</ele>
        <time>2021-11-16T15:43:07.970Z</time>
      </trkpt>
      <trkpt lat="39.45137" lon="31.5721">
        <ele>1099.7033</ele>
        <time>2021-11-16T15:43:26.571Z</time>
      </trkpt>
      <trkpt lat="39.45106" lon="31.57199">
        <ele>1100.269423</ele>
        <time>2021-11-16T15:43:36.086Z</time>
      </trkpt>
      <trkpt lat="39.44995" lon="31.57132">
        <ele>1102.471066</ele>
        <time>2021-11-16T15:44:13.237Z</time>
      </trkpt>
      <trkpt lat="39.44891" lon="31.57068">
        <ele>1102.635039</ele>
        <time>2021-11-16T15:44:44.755Z</time>
      </trkpt>
      <trkpt lat="39.44139" lon="31.56615">
        <ele>1098.02808</ele>
        <time>2021-11-16T15:47:30.238Z</time>
      </trkpt>
      <trkpt lat="39.44086" lon="31.56578">
        <ele>1097.266482</ele>
        <time>2021-11-16T15:47:41.619Z</time>
      </trkpt>
      <trkpt lat="39.44021" lon="31.56524">
        <ele>1096.300472</ele>
        <time>2021-11-16T15:47:55.838Z</time>
      </trkpt>
      <trkpt lat="39.43969" lon="31.56472">
        <ele>1095.341444</ele>
        <time>2021-11-16T15:48:07.926Z</time>
      </trkpt>
      <trkpt lat="39.43968" lon="31.56422">
        <ele>1094.712695</ele>
        <time>2021-11-16T15:48:17.669Z</time>
      </trkpt>
      <trkpt lat="39.43925" lon="31.5637">
        <ele>1093.766184</ele>
        <time>2021-11-16T15:48:32.037Z</time>
      </trkpt>
      <trkpt lat="39.4389" lon="31.56313">
        <ele>1092.954892</ele>
        <time>2021-11-16T15:48:45.854Z</time>
      </trkpt>
      <trkpt lat="39.43872" lon="31.563">
        <ele>1092.783314</ele>
        <time>2021-11-16T15:48:51.039Z</time>
      </trkpt>
      <trkpt lat="39.43832" lon="31.56285">
        <ele>1092.432362</ele>
        <time>2021-11-16T15:49:01.713Z</time>
      </trkpt>
      <trkpt lat="39.438" lon="31.56224">
        <ele>1091.952202</ele>
        <time>2021-11-16T15:49:12.966Z</time>
      </trkpt>
      <trkpt lat="39.43774" lon="31.56169">
        <ele>1091.543117</ele>
        <time>2021-11-16T15:49:23.496Z</time>
      </trkpt>
      <trkpt lat="39.43742" lon="31.56091">
        <ele>1091.70461</ele>
        <time>2021-11-16T15:49:39.444Z</time>
      </trkpt>
      <trkpt lat="39.43755" lon="31.56041">
        <ele>1091.80054</ele>
        <time>2021-11-16T15:49:51.916Z</time>
      </trkpt>
      <trkpt lat="39.43711" lon="31.55935">
        <ele>1092.044847</ele>
        <time>2021-11-16T15:50:20.705Z</time>
      </trkpt>
      <trkpt lat="39.43712" lon="31.55915">
        <ele>1092.099309</ele>
        <time>2021-11-16T15:50:25.407Z</time>
      </trkpt>
      <trkpt lat="39.43655" lon="31.55828">
        <ele>1092.397867</ele>
        <time>2021-11-16T15:50:51.680Z</time>
      </trkpt>
      <trkpt lat="39.43561" lon="31.55574">
        <ele>1093.690711</ele>
        <time>2021-11-16T15:51:59.665Z</time>
      </trkpt>
      <trkpt lat="39.43552" lon="31.55511">
        <ele>1094.499395</ele>
        <time>2021-11-16T15:52:17.016Z</time>
      </trkpt>
      <trkpt lat="39.43554" lon="31.55477">
        <ele>1095.056415</ele>
        <time>2021-11-16T15:52:26.560Z</time>
      </trkpt>
      <trkpt lat="39.43583" lon="31.55301">
        <ele>1098.149782</ele>
        <time>2021-11-16T15:53:20.875Z</time>
      </trkpt>
      <trkpt lat="39.43577" lon="31.55273">
        <ele>1098.860165</ele>
        <time>2021-11-16T15:53:30.041Z</time>
      </trkpt>
      <trkpt lat="39.43563" lon="31.55259">
        <ele>1099.394617</ele>
        <time>2021-11-16T15:53:37.517Z</time>
      </trkpt>
      <trkpt lat="39.43547" lon="31.55263">
        <ele>1099.913257</ele>
        <time>2021-11-16T15:53:44.015Z</time>
      </trkpt>
      <trkpt lat="39.43561" lon="31.55249">
        <ele>1100.463162</ele>
        <time>2021-11-16T15:53:50.821Z</time>
      </trkpt>
      <trkpt lat="39.43578" lon="31.55245">
        <ele>1100.977909</ele>
        <time>2021-11-16T15:53:55.900Z</time>
      </trkpt>
      <trkpt lat="39.43579" lon="31.55246">
        <ele>1101.037369</ele>
        <time>2021-11-16T15:53:56.790Z</time>
      </trkpt>
      <trkpt lat="39.43584" lon="31.5525">
        <ele>1101.211865</ele>
        <time>2021-11-16T15:53:59.611Z</time>
      </trkpt>
      <trkpt lat="39.43601" lon="31.55285">
        <ele>1102.192048</ele>
        <time>2021-11-16T15:54:10.261Z</time>
      </trkpt>
      <trkpt lat="39.43618" lon="31.55299">
        <ele>1102.794298</ele>
        <time>2021-11-16T15:54:17.312Z</time>
      </trkpt>
      <trkpt lat="39.43685" lon="31.55302">
        <ele>1105.040698</ele>
        <time>2021-11-16T15:54:41.869Z</time>
      </trkpt>
      <trkpt lat="39.4371" lon="31.55289">
        <ele>1105.94402</ele>
        <time>2021-11-16T15:54:51.941Z</time>
      </trkpt>
      <trkpt lat="39.43729" lon="31.5526">
        <ele>1106.929974</ele>
        <time>2021-11-16T15:55:01.839Z</time>
      </trkpt>
      <trkpt lat="39.43765" lon="31.55132">
        <ele>1110.810075</ele>
        <time>2021-11-16T15:55:39.143Z</time>
      </trkpt>
      <trkpt lat="39.43769" lon="31.55083">
        <ele>1112.402484</ele>
        <time>2021-11-16T15:55:53.494Z</time>
      </trkpt>
      <trkpt lat="39.43767" lon="31.54985">
        <ele>1115.617567</ele>
        <time>2021-11-16T15:56:24.224Z</time>
      </trkpt>
      <trkpt lat="39.43773" lon="31.54945">
        <ele>1116.923364</ele>
        <time>2021-11-16T15:56:37.427Z</time>
      </trkpt>
      <trkpt lat="39.43817" lon="31.54854">
        <ele>1119.950215</ele>
        <time>2021-11-16T15:57:13.403Z</time>
      </trkpt>
      <trkpt lat="39.43834" lon="31.54842">
        <ele>1120.655668</ele>
        <time>2021-11-16T15:57:20.084Z</time>
      </trkpt>
      <trkpt lat="39.43912" lon="31.54812">
        <ele>1123.223066</ele>
        <time>2021-11-16T15:57:46.808Z</time>
      </trkpt>
      <trkpt lat="39.43917" lon="31.54808">
        <ele>1123.155789</ele>
        <time>2021-11-16T15:57:49.269Z</time>
      </trkpt>
      <trkpt lat="39.43966" lon="31.54765">
        <ele>1122.482482</ele>
        <time>2021-11-16T15:58:01.418Z</time>
      </trkpt>
      <trkpt lat="39.44008" lon="31.54723">
        <ele>1121.880047</ele>
        <time>2021-11-16T15:58:11.319Z</time>
      </trkpt>
      <trkpt lat="39.4402" lon="31.54696">
        <ele>1121.612308</ele>
        <time>2021-11-16T15:58:15.141Z</time>
      </trkpt>
      <trkpt lat="39.44023" lon="31.54649">
        <ele>1120.991994</ele>
        <time>2021-11-16T15:58:21.131Z</time>
      </trkpt>
      <trkpt lat="39.44064" lon="31.5449">
        <ele>1115.724017</ele>
        <time>2021-11-16T15:58:41.283Z</time>
      </trkpt>
      <trkpt lat="39.44079" lon="31.54446">
        <ele>1114.241024</ele>
        <time>2021-11-16T15:58:46.924Z</time>
      </trkpt>
      <trkpt lat="39.44096" lon="31.54414">
        <ele>1113.047697</ele>
        <time>2021-11-16T15:58:51.616Z</time>
      </trkpt>
      <trkpt lat="39.44097" lon="31.54398">
        <ele>1112.557936</ele>
        <time>2021-11-16T15:58:53.546Z</time>
      </trkpt>
      <trkpt lat="39.44091" lon="31.5438">
        <ele>1111.980424</ele>
        <time>2021-11-16T15:58:55.821Z</time>
      </trkpt>
      <trkpt lat="39.44059" lon="31.54347">
        <ele>1110.372833</ele>
        <time>2021-11-16T15:59:02.181Z</time>
      </trkpt>
      <trkpt lat="39.44017" lon="31.54289">
        <ele>1107.971378</ele>
        <time>2021-11-16T15:59:11.797Z</time>
      </trkpt>
      <trkpt lat="39.43988" lon="31.5427">
        <ele>1106.849265</ele>
        <time>2021-11-16T15:59:17.107Z</time>
      </trkpt>
      <trkpt lat="39.4397" lon="31.54252">
        <ele>1106.562992</ele>
        <time>2021-11-16T15:59:20.907Z</time>
      </trkpt>
      <trkpt lat="39.43957" lon="31.54226">
        <ele>1106.265894</ele>
        <time>2021-11-16T15:59:25.136Z</time>
      </trkpt>
      <trkpt lat="39.43953" lon="31.54201">
        <ele>1106.015663</ele>
        <time>2021-11-16T15:59:29.378Z</time>
      </trkpt>
      <trkpt lat="39.43965" lon="31.54173">
        <ele>1105.709628</ele>
        <time>2021-11-16T15:59:34.150Z</time>
      </trkpt>
      <trkpt lat="39.44005" lon="31.54106">
        <ele>1104.889963</ele>
        <time>2021-11-16T15:59:47.656Z</time>
      </trkpt>
      <trkpt lat="39.4403" lon="31.5409">
        <ele>1104.572612</ele>
        <time>2021-11-16T15:59:53.516Z</time>
      </trkpt>
      <trkpt lat="39.44053" lon="31.54085">
        <ele>1104.351886</ele>
        <time>2021-11-16T15:59:59.096Z</time>
      </trkpt>
      <trkpt lat="39.44074" lon="31.54082">
        <ele>1104.159817</ele>
        <time>2021-11-16T16:00:02.952Z</time>
      </trkpt>
      <trkpt lat="39.44162" lon="31.5405">
        <ele>1103.301188</ele>
        <time>2021-11-16T16:00:20.985Z</time>
      </trkpt>
      <trkpt lat="39.44197" lon="31.5405">
        <ele>1102.962041</ele>
        <time>2021-11-16T16:00:27.599Z</time>
      </trkpt>
      <trkpt lat="39.44225" lon="31.54024">
        <ele>1102.464316</ele>
        <time>2021-11-16T16:00:33.414Z</time>
      </trkpt>
      <trkpt lat="39.44249" lon="31.53968">
        <ele>1101.758427</ele>
        <time>2021-11-16T16:00:42.019Z</time>
      </trkpt>
      <trkpt lat="39.44268" lon="31.53948">
        <ele>1101.410211</ele>
        <time>2021-11-16T16:00:46.409Z</time>
      </trkpt>
      <trkpt lat="39.44303" lon="31.53934">
        <ele>1100.882607</ele>
        <time>2021-11-16T16:00:53.366Z</time>
      </trkpt>
      <trkpt lat="39.44339" lon="31.53934">
        <ele>1100.410872</ele>
        <time>2021-11-16T16:01:00.505Z</time>
      </trkpt>
      <trkpt lat="39.44446" lon="31.53973">
        <ele>1100.437657</ele>
        <time>2021-11-16T16:01:25.939Z</time>
      </trkpt>
      <trkpt lat="39.44567" lon="31.54001">
        <ele>1100.192029</ele>
        <time>2021-11-16T16:01:54.460Z</time>
      </trkpt>
      <trkpt lat="39.44577" lon="31.54001">
        <ele>1100.145197</ele>
        <time>2021-11-16T16:01:56.556Z</time>
      </trkpt>
      <trkpt lat="39.44624" lon="31.54002">
        <ele>1099.926793</ele>
        <time>2021-11-16T16:02:06.804Z</time>
      </trkpt>
      <trkpt lat="39.4473" lon="31.53958">
        <ele>1098.392572</ele>
        <time>2021-11-16T16:02:27.727Z</time>
      </trkpt>
      <trkpt lat="39.44774" lon="31.53959">
        <ele>1097.182512</ele>
        <time>2021-11-16T16:02:35.141Z</time>
      </trkpt>
      <trkpt lat="39.4478" lon="31.53956">
        <ele>1096.994002</ele>
        <time>2021-11-16T16:02:36.276Z</time>
      </trkpt>
      <trkpt lat="39.44788" lon="31.53951">
        <ele>1096.770139</ele>
        <time>2021-11-16T16:02:37.613Z</time>
      </trkpt>
      <trkpt lat="39.44795" lon="31.53941">
        <ele>1096.470366</ele>
        <time>2021-11-16T16:02:39.384Z</time>
      </trkpt>
      <trkpt lat="39.44803" lon="31.53929">
        <ele>1096.141935</ele>
        <time>2021-11-16T16:02:41.305Z</time>
      </trkpt>
      <trkpt lat="39.44819" lon="31.53899">
        <ele>1095.347845</ele>
        <time>2021-11-16T16:02:45.937Z</time>
      </trkpt>
      <trkpt lat="39.44828" lon="31.53886">
        <ele>1094.982735</ele>
        <time>2021-11-16T16:02:48.052Z</time>
      </trkpt>
      <trkpt lat="39.44819" lon="31.53825">
        <ele>1092.76327</ele>
        <time>2021-11-16T16:02:55.452Z</time>
      </trkpt>
      <trkpt lat="39.44817" lon="31.5381">
        <ele>1092.148709</ele>
        <time>2021-11-16T16:02:57.276Z</time>
      </trkpt>
      <trkpt lat="39.44815" lon="31.53797">
        <ele>1091.599648</ele>
        <time>2021-11-16T16:02:58.867Z</time>
      </trkpt>
      <trkpt lat="39.44805" lon="31.53741">
        <ele>1089.278877</ele>
        <time>2021-11-16T16:03:05.461Z</time>
      </trkpt>
      <trkpt lat="39.44778" lon="31.53668">
        <ele>1085.994626</ele>
        <time>2021-11-16T16:03:14.680Z</time>
      </trkpt>
      <trkpt lat="39.44774" lon="31.5366">
        <ele>1085.602804</ele>
        <time>2021-11-16T16:03:15.643Z</time>
      </trkpt>
      <trkpt lat="39.44758" lon="31.53634">
        <ele>1084.205962</ele>
        <time>2021-11-16T16:03:19.669Z</time>
      </trkpt>
      <trkpt lat="39.4475" lon="31.5362">
        <ele>1083.459474</ele>
        <time>2021-11-16T16:03:21.497Z</time>
      </trkpt>
      <trkpt lat="39.44742" lon="31.53615">
        <ele>1082.96635</ele>
        <time>2021-11-16T16:03:22.955Z</time>
      </trkpt>
      <trkpt lat="39.44693" lon="31.53586">
        <ele>1079.96517</ele>
        <time>2021-11-16T16:03:31.128Z</time>
      </trkpt>
      <trkpt lat="39.44693" lon="31.53586">
        <ele>1079.96517</ele>
        <time>2021-11-16T16:03:31.202Z</time>
      </trkpt>
      <trkpt lat="39.44505" lon="31.53473">
        <ele>1069.953763</ele>
        <time>2021-11-16T16:04:02.919Z</time>
      </trkpt>
      <trkpt lat="39.44468" lon="31.53452">
        <ele>1068.232241</ele>
        <time>2021-11-16T16:04:09.303Z</time>
      </trkpt>
      <trkpt lat="39.44502" lon="31.53359">
        <ele>1065.653277</ele>
        <time>2021-11-16T16:04:22.476Z</time>
      </trkpt>
      <trkpt lat="39.44531" lon="31.53274">
        <ele>1063.515832</ele>
        <time>2021-11-16T16:04:34.710Z</time>
      </trkpt>
      <trkpt lat="39.44563" lon="31.53177">
        <ele>1062.063116</ele>
        <time>2021-11-16T16:04:49.736Z</time>
      </trkpt>
      <trkpt lat="39.44564" lon="31.53172">
        <ele>1062.057582</ele>
        <time>2021-11-16T16:04:50.412Z</time>
      </trkpt>
      <trkpt lat="39.44589" lon="31.53084">
        <ele>1061.944069</ele>
        <time>2021-11-16T16:05:06.668Z</time>
      </trkpt>
      <trkpt lat="39.4461" lon="31.53039">
        <ele>1061.880883</ele>
        <time>2021-11-16T16:05:17.866Z</time>
      </trkpt>
      <trkpt lat="39.44644" lon="31.52966">
        <ele>1061.763408</ele>
        <time>2021-11-16T16:05:37.184Z</time>
      </trkpt>
      <trkpt lat="39.44675" lon="31.529">
        <ele>1061.648297</ele>
        <time>2021-11-16T16:05:52.338Z</time>
      </trkpt>
      <trkpt lat="39.447" lon="31.52847">
        <ele>1061.555027</ele>
        <time>2021-11-16T16:06:02.563Z</time>
      </trkpt>
      <trkpt lat="39.44705" lon="31.52836">
        <ele>1061.535838</ele>
        <time>2021-11-16T16:06:04.486Z</time>
      </trkpt>
      <trkpt lat="39.44714" lon="31.52816">
        <ele>1061.499803</ele>
        <time>2021-11-16T16:06:07.984Z</time>
      </trkpt>
      <trkpt lat="39.44742" lon="31.52757">
        <ele>1059.991158</ele>
        <time>2021-11-16T16:06:17.245Z</time>
      </trkpt>
      <trkpt lat="39.44754" lon="31.52731">
        <ele>1059.241163</ele>
        <time>2021-11-16T16:06:21.120Z</time>
      </trkpt>
      <trkpt lat="39.44747" lon="31.52706">
        <ele>1058.587304</ele>
        <time>2021-11-16T16:06:24.296Z</time>
      </trkpt>
      <trkpt lat="39.44704" lon="31.52556">
        <ele>1055.278047</ele>
        <time>2021-11-16T16:06:44.115Z</time>
      </trkpt>
      <trkpt lat="39.44701" lon="31.52544">
        <ele>1055.153966</ele>
        <time>2021-11-16T16:06:45.786Z</time>
      </trkpt>
      <trkpt lat="39.44697" lon="31.52535">
        <ele>1055.046479</ele>
        <time>2021-11-16T16:06:47.233Z</time>
      </trkpt>
      <trkpt lat="39.44681" lon="31.52498">
        <ele>1054.621533</ele>
        <time>2021-11-16T16:06:53.232Z</time>
      </trkpt>
      <trkpt lat="39.44674" lon="31.52487">
        <ele>1054.486479</ele>
        <time>2021-11-16T16:06:55.227Z</time>
      </trkpt>
      <trkpt lat="39.44631" lon="31.52416">
        <ele>1053.582409</ele>
        <time>2021-11-16T16:07:09.936Z</time>
      </trkpt>
      <trkpt lat="39.44537" lon="31.52271">
        <ele>1054.21362</ele>
        <time>2021-11-16T16:07:45.545Z</time>
      </trkpt>
      <trkpt lat="39.44501" lon="31.52215">
        <ele>1054.65659</ele>
        <time>2021-11-16T16:08:00.714Z</time>
      </trkpt>
      <trkpt lat="39.44474" lon="31.52167">
        <ele>1055.397158</ele>
        <time>2021-11-16T16:08:13.591Z</time>
      </trkpt>
      <trkpt lat="39.44468" lon="31.52137">
        <ele>1055.793146</ele>
        <time>2021-11-16T16:08:20.082Z</time>
      </trkpt>
      <trkpt lat="39.4447" lon="31.52094">
        <ele>1056.323287</ele>
        <time>2021-11-16T16:08:29.206Z</time>
      </trkpt>
      <trkpt lat="39.44471" lon="31.52082">
        <ele>1056.478137</ele>
        <time>2021-11-16T16:08:32.723Z</time>
      </trkpt>
      <trkpt lat="39.44498" lon="31.51886">
        <ele>1058.497033</ele>
        <time>2021-11-16T16:09:18.773Z</time>
      </trkpt>
      <trkpt lat="39.44547" lon="31.51774">
        <ele>1059.405904</ele>
        <time>2021-11-16T16:09:42.055Z</time>
      </trkpt>
      <trkpt lat="39.44547" lon="31.51744">
        <ele>1059.348168</ele>
        <time>2021-11-16T16:09:46.964Z</time>
      </trkpt>
      <trkpt lat="39.44539" lon="31.51713">
        <ele>1059.284185</ele>
        <time>2021-11-16T16:09:52.210Z</time>
      </trkpt>
      <trkpt lat="39.44458" lon="31.51543">
        <ele>1058.971756</ele>
        <time>2021-11-16T16:10:24.392Z</time>
      </trkpt>
      <trkpt lat="39.4444" lon="31.51483">
        <ele>1058.946782</ele>
        <time>2021-11-16T16:10:36.028Z</time>
      </trkpt>
      <trkpt lat="39.44434" lon="31.5142">
        <ele>1058.92241</ele>
        <time>2021-11-16T16:10:47.220Z</time>
      </trkpt>
      <trkpt lat="39.44442" lon="31.51267">
        <ele>1058.498134</ele>
        <time>2021-11-16T16:11:12.839Z</time>
      </trkpt>
      <trkpt lat="39.44437" lon="31.51198">
        <ele>1058.211927</ele>
        <time>2021-11-16T16:11:23.562Z</time>
      </trkpt>
      <trkpt lat="39.4439" lon="31.51049">
        <ele>1057.091652</ele>
        <time>2021-11-16T16:11:47.888Z</time>
      </trkpt>
      <trkpt lat="39.44383" lon="31.50914">
        <ele>1055.874463</ele>
        <time>2021-11-16T16:12:07.666Z</time>
      </trkpt>
      <trkpt lat="39.44373" lon="31.50876">
        <ele>1055.226041</ele>
        <time>2021-11-16T16:12:13.106Z</time>
      </trkpt>
      <trkpt lat="39.44354" lon="31.50852">
        <ele>1054.6315</ele>
        <time>2021-11-16T16:12:17.780Z</time>
      </trkpt>
      <trkpt lat="39.44312" lon="31.50824">
        <ele>1053.5951</ele>
        <time>2021-11-16T16:12:25.813Z</time>
      </trkpt>
      <trkpt lat="39.44275" lon="31.50817">
        <ele>1052.772392</ele>
        <time>2021-11-16T16:12:32.167Z</time>
      </trkpt>
      <trkpt lat="39.4426" lon="31.50816">
        <ele>1052.425626</ele>
        <time>2021-11-16T16:12:34.858Z</time>
      </trkpt>
      <trkpt lat="39.44228" lon="31.50809">
        <ele>1051.692704</ele>
        <time>2021-11-16T16:12:40.667Z</time>
      </trkpt>
      <trkpt lat="39.44212" lon="31.50803">
        <ele>1051.309806</ele>
        <time>2021-11-16T16:12:43.424Z</time>
      </trkpt>
      <trkpt lat="39.442" lon="31.50798">
        <ele>1051.006535</ele>
        <time>2021-11-16T16:12:45.552Z</time>
      </trkpt>
      <trkpt lat="39.44191" lon="31.50783">
        <ele>1050.662447</ele>
        <time>2021-11-16T16:12:48.031Z</time>
      </trkpt>
      <trkpt lat="39.44214" lon="31.50744">
        <ele>1049.74953</ele>
        <time>2021-11-16T16:12:54.532Z</time>
      </trkpt>
      <trkpt lat="39.44224" lon="31.50698">
        <ele>1048.87636</ele>
        <time>2021-11-16T16:13:00.819Z</time>
      </trkpt>
      <trkpt lat="39.44218" lon="31.50674">
        <ele>1048.416297</ele>
        <time>2021-11-16T16:13:04.105Z</time>
      </trkpt>
      <trkpt lat="39.44202" lon="31.50646">
        <ele>1047.781852</ele>
        <time>2021-11-16T16:13:08.785Z</time>
      </trkpt>
      <trkpt lat="39.44169" lon="31.50613">
        <ele>1046.760641</ele>
        <time>2021-11-16T16:13:16.029Z</time>
      </trkpt>
      <trkpt lat="39.44117" lon="31.50577">
        <ele>1045.286005</ele>
        <time>2021-11-16T16:13:26.245Z</time>
      </trkpt>
      <trkpt lat="39.43933" lon="31.5042">
        <ele>1039.322992</ele>
        <time>2021-11-16T16:14:02.875Z</time>
      </trkpt>
      <trkpt lat="39.43864" lon="31.50341">
        <ele>1036.864875</ele>
        <time>2021-11-16T16:14:18.146Z</time>
      </trkpt>
      <trkpt lat="39.43795" lon="31.50198">
        <ele>1033.5726</ele>
        <time>2021-11-16T16:14:40.370Z</time>
      </trkpt>
      <trkpt lat="39.43722" lon="31.50075">
        <ele>1030.942076</ele>
        <time>2021-11-16T16:15:01.257Z</time>
      </trkpt>
      <trkpt lat="39.43316" lon="31.49503">
        <ele>1017.926721</ele>
        <time>2021-11-16T16:16:45.739Z</time>
      </trkpt>
      <trkpt lat="39.43305" lon="31.49487">
        <ele>1017.385068</ele>
        <time>2021-11-16T16:16:48.528Z</time>
      </trkpt>
      <trkpt lat="39.4329" lon="31.49464">
        <ele>1016.580039</ele>
        <time>2021-11-16T16:16:52.291Z</time>
      </trkpt>
      <trkpt lat="39.43266" lon="31.4941">
        <ele>1014.920904</ele>
        <time>2021-11-16T16:17:00.008Z</time>
      </trkpt>
      <trkpt lat="39.43249" lon="31.49346">
        <ele>1013.07956</ele>
        <time>2021-11-16T16:17:08.430Z</time>
      </trkpt>
      <trkpt lat="39.4321" lon="31.49143">
        <ele>1006.999984</ele>
        <time>2021-11-16T16:17:33.692Z</time>
      </trkpt>
      <trkpt lat="39.43208" lon="31.49118">
        <ele>1006.259408</ele>
        <time>2021-11-16T16:17:36.637Z</time>
      </trkpt>
      <trkpt lat="39.43182" lon="31.49003">
        <ele>1003.699237</ele>
        <time>2021-11-16T16:17:51.654Z</time>
      </trkpt>
      <trkpt lat="39.43178" lon="31.48963">
        <ele>1003.118601</ele>
        <time>2021-11-16T16:17:56.991Z</time>
      </trkpt>
      <trkpt lat="39.43176" lon="31.48934">
        <ele>1002.69975</ele>
        <time>2021-11-16T16:18:00.944Z</time>
      </trkpt>
      <trkpt lat="39.43169" lon="31.48909">
        <ele>1002.312595</ele>
        <time>2021-11-16T16:18:04.900Z</time>
      </trkpt>
      <trkpt lat="39.43145" lon="31.48825">
        <ele>1001.311682</ele>
        <time>2021-11-16T16:18:18.814Z</time>
      </trkpt>
      <trkpt lat="39.43139" lon="31.48771">
        <ele>1001.395322</ele>
        <time>2021-11-16T16:18:28.452Z</time>
      </trkpt>
      <trkpt lat="39.43144" lon="31.48634">
        <ele>1001.605895</ele>
        <time>2021-11-16T16:18:54.520Z</time>
      </trkpt>
      <trkpt lat="39.43141" lon="31.48589">
        <ele>1001.526866</ele>
        <time>2021-11-16T16:19:02.328Z</time>
      </trkpt>
      <trkpt lat="39.43135" lon="31.48547">
        <ele>1001.290725</ele>
        <time>2021-11-16T16:19:09.456Z</time>
      </trkpt>
      <trkpt lat="39.43116" lon="31.48459">
        <ele>1000.795728</ele>
        <time>2021-11-16T16:19:23.589Z</time>
      </trkpt>
      <trkpt lat="39.43047" lon="31.48207">
        <ele>998.400757</ele>
        <time>2021-11-16T16:20:02.036Z</time>
      </trkpt>
      <trkpt lat="39.43021" lon="31.48137">
        <ele>997.590585</ele>
        <time>2021-11-16T16:20:13.140Z</time>
      </trkpt>
      <trkpt lat="39.42909" lon="31.47904">
        <ele>994.673664</ele>
        <time>2021-11-16T16:20:52.511Z</time>
      </trkpt>
      <trkpt lat="39.42882" lon="31.47827">
        <ele>993.743295</ele>
        <time>2021-11-16T16:21:04.676Z</time>
      </trkpt>
      <trkpt lat="39.42812" lon="31.47522">
        <ele>990.136427</ele>
        <time>2021-11-16T16:21:49.732Z</time>
      </trkpt>
      <trkpt lat="39.4279" lon="31.47457">
        <ele>989.41853</ele>
        <time>2021-11-16T16:21:59.930Z</time>
      </trkpt>
      <trkpt lat="39.42736" lon="31.4736">
        <ele>988.220259</ele>
        <time>2021-11-16T16:22:17.253Z</time>
      </trkpt>
      <trkpt lat="39.42733" lon="31.47356">
        <ele>988.164595</ele>
        <time>2021-11-16T16:22:18.037Z</time>
      </trkpt>
      <trkpt lat="39.42644" lon="31.47209">
        <ele>986.433144</ele>
        <time>2021-11-16T16:22:45.344Z</time>
      </trkpt>
      <trkpt lat="39.42484" lon="31.46881">
        <ele>982.654211</ele>
        <time>2021-11-16T16:23:41.591Z</time>
      </trkpt>
      <trkpt lat="39.42402" lon="31.46728">
        <ele>980.940761</ele>
        <time>2021-11-16T16:24:08.639Z</time>
      </trkpt>
      <trkpt lat="39.42321" lon="31.46495">
        <ele>978.836132</ele>
        <time>2021-11-16T16:24:46.412Z</time>
      </trkpt>
      <trkpt lat="39.42199" lon="31.46217">
        <ele>976.436052</ele>
        <time>2021-11-16T16:25:34.281Z</time>
      </trkpt>
      <trkpt lat="39.41984" lon="31.45526">
        <ele>971.291979</ele>
        <time>2021-11-16T16:27:26.886Z</time>
      </trkpt>
      <trkpt lat="39.41919" lon="31.45346">
        <ele>969.767163</ele>
        <time>2021-11-16T16:27:56.866Z</time>
      </trkpt>
      <trkpt lat="39.41725" lon="31.44668">
        <ele>962.941155</ele>
        <time>2021-11-16T16:29:41.921Z</time>
      </trkpt>
      <trkpt lat="39.41492" lon="31.44035">
        <ele>955.428969</ele>
        <time>2021-11-16T16:31:22.203Z</time>
      </trkpt>
      <trkpt lat="39.41418" lon="31.43809">
        <ele>952.904812</ele>
        <time>2021-11-16T16:31:57.673Z</time>
      </trkpt>
      <trkpt lat="39.41296" lon="31.43434">
        <ele>948.875991</ele>
        <time>2021-11-16T16:32:56.185Z</time>
      </trkpt>
      <trkpt lat="39.40916" lon="31.41983">
        <ele>935.375738</ele>
        <time>2021-11-16T16:36:41.649Z</time>
      </trkpt>
      <trkpt lat="39.40892" lon="31.419">
        <ele>934.561399</ele>
        <time>2021-11-16T16:36:54.414Z</time>
      </trkpt>
      <trkpt lat="39.40832" lon="31.41695">
        <ele>932.649612</ele>
        <time>2021-11-16T16:37:26.292Z</time>
      </trkpt>
      <trkpt lat="39.40765" lon="31.41485">
        <ele>930.865038</ele>
        <time>2021-11-16T16:38:00.551Z</time>
      </trkpt>
      <trkpt lat="39.40747" lon="31.41432">
        <ele>930.444113</ele>
        <time>2021-11-16T16:38:09.260Z</time>
      </trkpt>
      <trkpt lat="39.40749" lon="31.41398">
        <ele>930.19434</ele>
        <time>2021-11-16T16:38:14.407Z</time>
      </trkpt>
      <trkpt lat="39.40821" lon="31.41116">
        <ele>927.989217</ele>
        <time>2021-11-16T16:38:58.538Z</time>
      </trkpt>
      <trkpt lat="39.40831" lon="31.41036">
        <ele>927.506693</ele>
        <time>2021-11-16T16:39:10.873Z</time>
      </trkpt>
      <trkpt lat="39.40833" lon="31.41023">
        <ele>927.427348</ele>
        <time>2021-11-16T16:39:12.878Z</time>
      </trkpt>
      <trkpt lat="39.40845" lon="31.40914">
        <ele>926.815903</ele>
        <time>2021-11-16T16:39:30.030Z</time>
      </trkpt>
      <trkpt lat="39.40864" lon="31.40844">
        <ele>926.720732</ele>
        <time>2021-11-16T16:39:41.998Z</time>
      </trkpt>
      <trkpt lat="39.40897" lon="31.4077">
        <ele>926.609873</ele>
        <time>2021-11-16T16:39:56.886Z</time>
      </trkpt>
      <trkpt lat="39.40993" lon="31.40596">
        <ele>926.17428</ele>
        <time>2021-11-16T16:40:32.836Z</time>
      </trkpt>
      <trkpt lat="39.41016" lon="31.40539">
        <ele>926.022402</ele>
        <time>2021-11-16T16:40:43.110Z</time>
      </trkpt>
      <trkpt lat="39.41103" lon="31.40252">
        <ele>923.941277</ele>
        <time>2021-11-16T16:41:29.566Z</time>
      </trkpt>
      <trkpt lat="39.4111" lon="31.40186">
        <ele>923.418933</ele>
        <time>2021-11-16T16:41:39.357Z</time>
      </trkpt>
      <trkpt lat="39.41131" lon="31.39838">
        <ele>920.696714</ele>
        <time>2021-11-16T16:42:31.539Z</time>
      </trkpt>
      <trkpt lat="39.41127" lon="31.39794">
        <ele>920.311305</ele>
        <time>2021-11-16T16:42:38.154Z</time>
      </trkpt>
      <trkpt lat="39.41049" lon="31.3954">
        <ele>918.007672</ele>
        <time>2021-11-16T16:43:18.107Z</time>
      </trkpt>
      <trkpt lat="39.41016" lon="31.394">
        <ele>916.838548</ele>
        <time>2021-11-16T16:43:39.971Z</time>
      </trkpt>
      <trkpt lat="39.40999" lon="31.39159">
        <ele>915.205271</ele>
        <time>2021-11-16T16:44:16.950Z</time>
      </trkpt>
      <trkpt lat="39.40933" lon="31.38767">
        <ele>911.746084</ele>
        <time>2021-11-16T16:45:15.808Z</time>
      </trkpt>
      <trkpt lat="39.40929" lon="31.38699">
        <ele>911.215704</ele>
        <time>2021-11-16T16:45:25.808Z</time>
      </trkpt>
      <trkpt lat="39.40933" lon="31.38638">
        <ele>910.879581</ele>
        <time>2021-11-16T16:45:35.090Z</time>
      </trkpt>
      <trkpt lat="39.4095" lon="31.38562">
        <ele>910.447882</ele>
        <time>2021-11-16T16:45:47.255Z</time>
      </trkpt>
      <trkpt lat="39.40982" lon="31.38464">
        <ele>909.933933</ele>
        <time>2021-11-16T16:46:04.422Z</time>
      </trkpt>
      <trkpt lat="39.41044" lon="31.38305">
        <ele>909.347859</ele>
        <time>2021-11-16T16:46:33.224Z</time>
      </trkpt>
      <trkpt lat="39.4106" lon="31.38253">
        <ele>909.105447</ele>
        <time>2021-11-16T16:46:41.968Z</time>
      </trkpt>
      <trkpt lat="39.41079" lon="31.38044">
        <ele>908.059822</ele>
        <time>2021-11-16T16:47:14.447Z</time>
      </trkpt>
      <trkpt lat="39.41073" lon="31.37738">
        <ele>906.992646</ele>
        <time>2021-11-16T16:48:02.974Z</time>
      </trkpt>
      <trkpt lat="39.411" lon="31.37557">
        <ele>906.743102</ele>
        <time>2021-11-16T16:48:34.357Z</time>
      </trkpt>
      <trkpt lat="39.41134" lon="31.37381">
        <ele>906.784423</ele>
        <time>2021-11-16T16:49:05.656Z</time>
      </trkpt>
      <trkpt lat="39.41134" lon="31.3735">
        <ele>906.792638</ele>
        <time>2021-11-16T16:49:11.170Z</time>
      </trkpt>
      <trkpt lat="39.41129" lon="31.37333">
        <ele>906.797878</ele>
        <time>2021-11-16T16:49:14.239Z</time>
      </trkpt>
      <trkpt lat="39.4112" lon="31.37329">
        <ele>906.80148</ele>
        <time>2021-11-16T16:49:16.462Z</time>
      </trkpt>
      <trkpt lat="39.41026" lon="31.37328">
        <ele>906.836872</ele>
        <time>2021-11-16T16:49:37.304Z</time>
      </trkpt>
      <trkpt lat="39.40998" lon="31.37314">
        <ele>906.848297</ele>
        <time>2021-11-16T16:49:43.951Z</time>
      </trkpt>
      <trkpt lat="39.40973" lon="31.37291">
        <ele>906.911328</ele>
        <time>2021-11-16T16:49:50.786Z</time>
      </trkpt>
      <trkpt lat="39.40951" lon="31.37257">
        <ele>907.089597</ele>
        <time>2021-11-16T16:49:58.756Z</time>
      </trkpt>
      <trkpt lat="39.40948" lon="31.37252">
        <ele>907.114286</ele>
        <time>2021-11-16T16:49:59.809Z</time>
      </trkpt>
      <trkpt lat="39.40895" lon="31.37168">
        <ele>907.549253</ele>
        <time>2021-11-16T16:50:19.973Z</time>
      </trkpt>
      <trkpt lat="39.40726" lon="31.36816">
        <ele>910.134341</ele>
        <time>2021-11-16T16:51:44.164Z</time>
      </trkpt>
      <trkpt lat="39.4067" lon="31.3671">
        <ele>910.594035</ele>
        <time>2021-11-16T16:52:07.431Z</time>
      </trkpt>
      <trkpt lat="39.40641" lon="31.36669">
        <ele>910.394329</ele>
        <time>2021-11-16T16:52:16.602Z</time>
      </trkpt>
      <trkpt lat="39.40548" lon="31.36577">
        <ele>909.847951</ele>
        <time>2021-11-16T16:52:39.939Z</time>
      </trkpt>
      <trkpt lat="39.40441" lon="31.36452">
        <ele>908.847609</ele>
        <time>2021-11-16T16:53:08.418Z</time>
      </trkpt>
      <trkpt lat="39.404" lon="31.36398">
        <ele>908.519108</ele>
        <time>2021-11-16T16:53:20.562Z</time>
      </trkpt>
      <trkpt lat="39.40378" lon="31.36354">
        <ele>908.437957</ele>
        <time>2021-11-16T16:53:29.106Z</time>
      </trkpt>
      <trkpt lat="39.40372" lon="31.36311">
        <ele>908.370225</ele>
        <time>2021-11-16T16:53:36.374Z</time>
      </trkpt>
      <trkpt lat="39.40454" lon="31.35473">
        <ele>907.056745</ele>
        <time>2021-11-16T16:55:58.423Z</time>
      </trkpt>
      <trkpt lat="39.40456" lon="31.35321">
        <ele>905.527597</ele>
        <time>2021-11-16T16:56:20.244Z</time>
      </trkpt>
      <trkpt lat="39.40452" lon="31.35251">
        <ele>904.753533</ele>
        <time>2021-11-16T16:56:29.758Z</time>
      </trkpt>
      <trkpt lat="39.4043" lon="31.35195">
        <ele>903.894042</ele>
        <time>2021-11-16T16:56:38.335Z</time>
      </trkpt>
      <trkpt lat="39.40396" lon="31.35165">
        <ele>903.172628</ele>
        <time>2021-11-16T16:56:45.580Z</time>
      </trkpt>
      <trkpt lat="39.40323" lon="31.3513">
        <ele>901.845638</ele>
        <time>2021-11-16T16:56:59.482Z</time>
      </trkpt>
      <trkpt lat="39.40131" lon="31.35021">
        <ele>900.646944</ele>
        <time>2021-11-16T16:57:41.609Z</time>
      </trkpt>
      <trkpt lat="39.40041" lon="31.34983">
        <ele>900.977742</ele>
        <time>2021-11-16T16:58:04.935Z</time>
      </trkpt>
      <trkpt lat="39.39403" lon="31.34825">
        <ele>905.719359</ele>
        <time>2021-11-16T17:00:51.900Z</time>
      </trkpt>
      <trkpt lat="39.39171" lon="31.34749">
        <ele>904.778342</ele>
        <time>2021-11-16T17:01:40.600Z</time>
      </trkpt>
      <trkpt lat="39.38852" lon="31.34656">
        <ele>901.823764</ele>
        <time>2021-11-16T17:02:43.168Z</time>
      </trkpt>
      <trkpt lat="39.38809" lon="31.3463">
        <ele>901.491895</ele>
        <time>2021-11-16T17:02:53.050Z</time>
      </trkpt>
      <trkpt lat="39.38771" lon="31.34593">
        <ele>901.169178</ele>
        <time>2021-11-16T17:03:03.074Z</time>
      </trkpt>
      <trkpt lat="39.38727" lon="31.34527">
        <ele>901.070024</ele>
        <time>2021-11-16T17:03:18.070Z</time>
      </trkpt>
      <trkpt lat="39.38679" lon="31.3444">
        <ele>900.948179</ele>
        <time>2021-11-16T17:03:36.404Z</time>
      </trkpt>
      <trkpt lat="39.38645" lon="31.34345">
        <ele>900.326707</ele>
        <time>2021-11-16T17:03:53.125Z</time>
      </trkpt>
      <trkpt lat="39.38581" lon="31.3402">
        <ele>896.534554</ele>
        <time>2021-11-16T17:04:40.793Z</time>
      </trkpt>
      <trkpt lat="39.38522" lon="31.33788">
        <ele>892.136109</ele>
        <time>2021-11-16T17:05:12.964Z</time>
      </trkpt>
      <trkpt lat="39.38488" lon="31.33589">
        <ele>887.672532</ele>
        <time>2021-11-16T17:05:39.149Z</time>
      </trkpt>
      <trkpt lat="39.38447" lon="31.33457">
        <ele>884.213083</ele>
        <time>2021-11-16T17:05:57.080Z</time>
      </trkpt>
      <trkpt lat="39.38398" lon="31.33328">
        <ele>880.378939</ele>
        <time>2021-11-16T17:06:14.891Z</time>
      </trkpt>
      <trkpt lat="39.38292" lon="31.33114">
        <ele>873.170207</ele>
        <time>2021-11-16T17:06:45.901Z</time>
      </trkpt>
      <trkpt lat="39.38275" lon="31.33049">
        <ele>871.768854</ele>
        <time>2021-11-16T17:06:54.626Z</time>
      </trkpt>
      <trkpt lat="39.38263" lon="31.33023">
        <ele>871.187708</ele>
        <time>2021-11-16T17:06:58.502Z</time>
      </trkpt>
      <trkpt lat="39.38243" lon="31.33001">
        <ele>870.526975</ele>
        <time>2021-11-16T17:07:02.973Z</time>
      </trkpt>
      <trkpt lat="39.38167" lon="31.32955">
        <ele>868.44088</ele>
        <time>2021-11-16T17:07:17.782Z</time>
      </trkpt>
      <trkpt lat="39.38081" lon="31.32875">
        <ele>866.843473</ele>
        <time>2021-11-16T17:07:37.401Z</time>
      </trkpt>
      <trkpt lat="39.38033" lon="31.32838">
        <ele>866.004978</ele>
        <time>2021-11-16T17:07:47.735Z</time>
      </trkpt>
      <trkpt lat="39.37967" lon="31.32808">
        <ele>864.933814</ele>
        <time>2021-11-16T17:08:00.509Z</time>
      </trkpt>
      <trkpt lat="39.3774" lon="31.32754">
        <ele>861.23146</ele>
        <time>2021-11-16T17:08:42.458Z</time>
      </trkpt>
      <trkpt lat="39.377" lon="31.32737">
        <ele>860.519205</ele>
        <time>2021-11-16T17:08:50.103Z</time>
      </trkpt>
      <trkpt lat="39.37676" lon="31.32719">
        <ele>860.067521</ele>
        <time>2021-11-16T17:08:54.973Z</time>
      </trkpt>
      <trkpt lat="39.37662" lon="31.32674">
        <ele>859.549192</ele>
        <time>2021-11-16T17:09:01.686Z</time>
      </trkpt>
      <trkpt lat="39.37651" lon="31.32567">
        <ele>858.424564</ele>
        <time>2021-11-16T17:09:17.132Z</time>
      </trkpt>
      <trkpt lat="39.37604" lon="31.32553">
        <ele>857.77503</ele>
        <time>2021-11-16T17:09:26.303Z</time>
      </trkpt>
      <trkpt lat="39.37549" lon="31.32518">
        <ele>857.447549</ele>
        <time>2021-11-16T17:09:38.388Z</time>
      </trkpt>
      <trkpt lat="39.37501" lon="31.32501">
        <ele>857.323962</ele>
        <time>2021-11-16T17:09:48.806Z</time>
      </trkpt>
      <trkpt lat="39.37445" lon="31.32501">
        <ele>857.184261</ele>
        <time>2021-11-16T17:10:01.441Z</time>
      </trkpt>
      <trkpt lat="39.37403" lon="31.32495">
        <ele>857.169335</ele>
        <time>2021-11-16T17:10:11.329Z</time>
      </trkpt>
      <trkpt lat="39.3728" lon="31.32441">
        <ele>857.739009</ele>
        <time>2021-11-16T17:10:42.499Z</time>
      </trkpt>
      <trkpt lat="39.37096" lon="31.32386">
        <ele>858.764551</ele>
        <time>2021-11-16T17:11:28.538Z</time>
      </trkpt>
      <trkpt lat="39.37032" lon="31.3234">
        <ele>859.318592</ele>
        <time>2021-11-16T17:11:47.053Z</time>
      </trkpt>
      <trkpt lat="39.36983" lon="31.32321">
        <ele>859.758757</ele>
        <time>2021-11-16T17:12:00.105Z</time>
      </trkpt>
      <trkpt lat="39.36865" lon="31.32262">
        <ele>860.868759</ele>
        <time>2021-11-16T17:12:33.099Z</time>
      </trkpt>
      <trkpt lat="39.36787" lon="31.32196">
        <ele>861.695137</ele>
        <time>2021-11-16T17:12:57.160Z</time>
      </trkpt>
      <trkpt lat="39.36672" lon="31.32128">
        <ele>862.731588</ele>
        <time>2021-11-16T17:13:29.716Z</time>
      </trkpt>
      <trkpt lat="39.36608" lon="31.32082">
        <ele>863.30631</ele>
        <time>2021-11-16T17:13:48.407Z</time>
      </trkpt>
      <trkpt lat="39.36456" lon="31.31928">
        <ele>863.789952</ele>
        <time>2021-11-16T17:14:34.134Z</time>
      </trkpt>
      <trkpt lat="39.36403" lon="31.31894">
        <ele>863.170645</ele>
        <time>2021-11-16T17:14:45.931Z</time>
      </trkpt>
      <trkpt lat="39.36242" lon="31.31742">
        <ele>860.007601</ele>
        <time>2021-11-16T17:15:21.870Z</time>
      </trkpt>
      <trkpt lat="39.36208" lon="31.31723">
        <ele>859.222511</ele>
        <time>2021-11-16T17:15:28.242Z</time>
      </trkpt>
      <trkpt lat="39.36122" lon="31.31721">
        <ele>857.310849</ele>
        <time>2021-11-16T17:15:42.933Z</time>
      </trkpt>
      <trkpt lat="39.36083" lon="31.31705">
        <ele>856.171943</ele>
        <time>2021-11-16T17:15:49.841Z</time>
      </trkpt>
      <trkpt lat="39.35936" lon="31.31575">
        <ele>851.276937</ele>
        <time>2021-11-16T17:16:19.366Z</time>
      </trkpt>
      <trkpt lat="39.35897" lon="31.31556">
        <ele>850.141084</ele>
        <time>2021-11-16T17:16:26.344Z</time>
      </trkpt>
      <trkpt lat="39.35866" lon="31.31558">
        <ele>849.309509</ele>
        <time>2021-11-16T17:16:31.474Z</time>
      </trkpt>
      <trkpt lat="39.35826" lon="31.31572">
        <ele>848.167993</ele>
        <time>2021-11-16T17:16:38.594Z</time>
      </trkpt>
      <trkpt lat="39.35772" lon="31.31551">
        <ele>846.951078</ele>
        <time>2021-11-16T17:16:48.114Z</time>
      </trkpt>
      <trkpt lat="39.35742" lon="31.31524">
        <ele>846.227017</ele>
        <time>2021-11-16T17:16:54.304Z</time>
      </trkpt>
      <trkpt lat="39.3567" lon="31.31438">
        <ele>844.26424</ele>
        <time>2021-11-16T17:17:11.836Z</time>
      </trkpt>
      <trkpt lat="39.35626" lon="31.31396">
        <ele>843.743961</ele>
        <time>2021-11-16T17:17:22.117Z</time>
      </trkpt>
      <trkpt lat="39.35627" lon="31.31382">
        <ele>843.650404</ele>
        <time>2021-11-16T17:17:24.300Z</time>
      </trkpt>
      <trkpt lat="39.35722" lon="31.31167">
        <ele>842.217968</ele>
        <time>2021-11-16T17:18:03.200Z</time>
      </trkpt>
      <trkpt lat="39.35724" lon="31.31146">
        <ele>842.125908</ele>
        <time>2021-11-16T17:18:06.538Z</time>
      </trkpt>
      <trkpt lat="39.35722" lon="31.31135">
        <ele>842.077455</ele>
        <time>2021-11-16T17:18:08.502Z</time>
      </trkpt>
      <trkpt lat="39.35715" lon="31.31123">
        <ele>842.01254</ele>
        <time>2021-11-16T17:18:10.938Z</time>
      </trkpt>
      <trkpt lat="39.35707" lon="31.31109">
        <ele>841.93956</ele>
        <time>2021-11-16T17:18:13.545Z</time>
      </trkpt>
      <trkpt lat="39.35613" lon="31.30971">
        <ele>841.487946</ele>
        <time>2021-11-16T17:18:42.626Z</time>
      </trkpt>
      <trkpt lat="39.35598" lon="31.30936">
        <ele>841.436223</ele>
        <time>2021-11-16T17:18:49.607Z</time>
      </trkpt>
      <trkpt lat="39.35594" lon="31.30896">
        <ele>841.384073</ele>
        <time>2021-11-16T17:18:56.761Z</time>
      </trkpt>
      <trkpt lat="39.35593" lon="31.3087">
        <ele>841.350944</ele>
        <time>2021-11-16T17:19:01.355Z</time>
      </trkpt>
      <trkpt lat="39.3559" lon="31.30799">
        <ele>841.510869</ele>
        <time>2021-11-16T17:19:14.246Z</time>
      </trkpt>
      <trkpt lat="39.35578" lon="31.30746">
        <ele>841.686337</ele>
        <time>2021-11-16T17:19:24.355Z</time>
      </trkpt>
      <trkpt lat="39.35556" lon="31.30711">
        <ele>841.830453</ele>
        <time>2021-11-16T17:19:32.789Z</time>
      </trkpt>
      <trkpt lat="39.34989" lon="31.30218">
        <ele>845.201753</ele>
        <time>2021-11-16T17:22:17.372Z</time>
      </trkpt>
      <trkpt lat="39.34963" lon="31.302">
        <ele>845.416595</ele>
        <time>2021-11-16T17:22:25.127Z</time>
      </trkpt>
      <trkpt lat="39.34986" lon="31.30111">
        <ele>845.976477</ele>
        <time>2021-11-16T17:22:44.067Z</time>
      </trkpt>
      <trkpt lat="39.34999" lon="31.30026">
        <ele>846.833133</ele>
        <time>2021-11-16T17:23:01.994Z</time>
      </trkpt>
      <trkpt lat="39.35079" lon="31.29337">
        <ele>853.497193</ele>
        <time>2021-11-16T17:25:30.871Z</time>
      </trkpt>
      <trkpt lat="39.35095" lon="31.29139">
        <ele>854.294643</ele>
        <time>2021-11-16T17:26:07.663Z</time>
      </trkpt>
      <trkpt lat="39.35136" lon="31.28836">
        <ele>854.392325</ele>
        <time>2021-11-16T17:26:57.991Z</time>
      </trkpt>
      <trkpt lat="39.35145" lon="31.28765">
        <ele>854.51663</ele>
        <time>2021-11-16T17:27:11.968Z</time>
      </trkpt>
      <trkpt lat="39.35151" lon="31.28706">
        <ele>854.808383</ele>
        <time>2021-11-16T17:27:24.301Z</time>
      </trkpt>
      <trkpt lat="39.35164" lon="31.28626">
        <ele>855.385635</ele>
        <time>2021-11-16T17:27:41.534Z</time>
      </trkpt>
      <trkpt lat="39.35187" lon="31.28544">
        <ele>856.007384</ele>
        <time>2021-11-16T17:27:59.949Z</time>
      </trkpt>
      <trkpt lat="39.35414" lon="31.27849">
        <ele>855.731855</ele>
        <time>2021-11-16T17:30:06.743Z</time>
      </trkpt>
      <trkpt lat="39.37898" lon="31.20139">
        <ele>854.006713</ele>
        <time>2021-11-16T17:53:56.017Z</time>
      </trkpt>
      <trkpt lat="39.38047" lon="31.19681">
        <ele>855.521162</ele>
        <time>2021-11-16T17:55:27.575Z</time>
      </trkpt>
      <trkpt lat="39.38127" lon="31.19434">
        <ele>856.310909</ele>
        <time>2021-11-16T17:56:17.784Z</time>
      </trkpt>
      <trkpt lat="39.38133" lon="31.19392">
        <ele>856.361287</ele>
        <time>2021-11-16T17:56:25.420Z</time>
      </trkpt>
      <trkpt lat="39.3813" lon="31.19373">
        <ele>856.384456</ele>
        <time>2021-11-16T17:56:28.898Z</time>
      </trkpt>
      <trkpt lat="39.38129" lon="31.19355">
        <ele>856.405253</ele>
        <time>2021-11-16T17:56:31.937Z</time>
      </trkpt>
      <trkpt lat="39.38009" lon="31.18962">
        <ele>856.211692</ele>
        <time>2021-11-16T17:57:42.468Z</time>
      </trkpt>
      <trkpt lat="39.37933" lon="31.18712">
        <ele>856.387306</ele>
        <time>2021-11-16T17:58:29.489Z</time>
      </trkpt>
      <trkpt lat="39.37925" lon="31.18686">
        <ele>856.424201</ele>
        <time>2021-11-16T17:58:34.445Z</time>
      </trkpt>
      <trkpt lat="39.37889" lon="31.1857">
        <ele>856.642224</ele>
        <time>2021-11-16T17:58:57.286Z</time>
      </trkpt>
      <trkpt lat="39.37775" lon="31.18205">
        <ele>857.43187</ele>
        <time>2021-11-16T18:00:07.750Z</time>
      </trkpt>
      <trkpt lat="39.36775" lon="31.14929">
        <ele>867.117049</ele>
        <time>2021-11-16T18:10:52.560Z</time>
      </trkpt>
      <trkpt lat="39.36765" lon="31.14872">
        <ele>867.139483</ele>
        <time>2021-11-16T18:11:02.820Z</time>
      </trkpt>
      <trkpt lat="39.36724" lon="31.14067">
        <ele>867.695034</ele>
        <time>2021-11-16T18:13:22.307Z</time>
      </trkpt>
      <trkpt lat="39.36658" lon="31.12576">
        <ele>877.757425</ele>
        <time>2021-11-16T18:18:19.980Z</time>
      </trkpt>
      <trkpt lat="39.36657" lon="31.12561">
        <ele>877.873469</ele>
        <time>2021-11-16T18:18:23.062Z</time>
      </trkpt>
      <trkpt lat="39.36675" lon="31.12558">
        <ele>878.056827</ele>
        <time>2021-11-16T18:18:28.132Z</time>
      </trkpt>
      <trkpt lat="39.36734" lon="31.12524">
        <ele>878.70721</ele>
        <time>2021-11-16T18:18:46.104Z</time>
      </trkpt>
      <trkpt lat="39.36727" lon="31.1231">
        <ele>879.775878</ele>
        <time>2021-11-16T18:19:30.272Z</time>
      </trkpt>
      <trkpt lat="39.36727" lon="31.12307">
        <ele>879.7848</ele>
        <time>2021-11-16T18:19:30.644Z</time>
      </trkpt>
      <trkpt lat="39.36721" lon="31.12154">
        <ele>879.614601</ele>
        <time>2021-11-16T18:19:57.582Z</time>
      </trkpt>
      <trkpt lat="39.36756" lon="31.12139">
        <ele>879.359333</ele>
        <time>2021-11-16T18:20:05.329Z</time>
      </trkpt>
      <trkpt lat="39.36765" lon="31.11933">
        <ele>878.015711</ele>
        <time>2021-11-16T18:20:36.994Z</time>
      </trkpt>
      <trkpt lat="39.36769" lon="31.11877">
        <ele>877.593724</ele>
        <time>2021-11-16T18:20:45.592Z</time>
      </trkpt>
      <trkpt lat="39.37143" lon="31.11545">
        <ele>874.4101</ele>
        <time>2021-11-16T18:22:16.775Z</time>
      </trkpt>
      <trkpt lat="39.37842" lon="31.10929">
        <ele>869.012009</ele>
        <time>2021-11-16T18:25:07.408Z</time>
      </trkpt>
      <trkpt lat="39.37873" lon="31.10905">
        <ele>868.783426</ele>
        <time>2021-11-16T18:25:14.653Z</time>
      </trkpt>
      <trkpt lat="39.37944" lon="31.10865">
        <ele>868.284591</ele>
        <time>2021-11-16T18:25:30.309Z</time>
      </trkpt>
      <trkpt lat="39.37997" lon="31.1083">
        <ele>867.902543</ele>
        <time>2021-11-16T18:25:42.300Z</time>
      </trkpt>
      <trkpt lat="39.38019" lon="31.10826">
        <ele>867.764298</ele>
        <time>2021-11-16T18:25:46.616Z</time>
      </trkpt>
      <trkpt lat="39.38177" lon="31.10789">
        <ele>866.665087</ele>
        <time>2021-11-16T18:26:18.777Z</time>
      </trkpt>
      <trkpt lat="39.38195" lon="31.10792">
        <ele>866.543203</ele>
        <time>2021-11-16T18:26:22.380Z</time>
      </trkpt>
      <trkpt lat="39.38199" lon="31.10791">
        <ele>866.529243</ele>
        <time>2021-11-16T18:26:23.131Z</time>
      </trkpt>
      <trkpt lat="39.38273" lon="31.10775">
        <ele>866.250906</ele>
        <time>2021-11-16T18:26:38.515Z</time>
      </trkpt>
      <trkpt lat="39.383" lon="31.10764">
        <ele>866.145382</ele>
        <time>2021-11-16T18:26:44.445Z</time>
      </trkpt>
      <trkpt lat="39.38323" lon="31.10744">
        <ele>866.041047</ele>
        <time>2021-11-16T18:26:50.427Z</time>
      </trkpt>
      <trkpt lat="39.38338" lon="31.10708">
        <ele>865.926558</ele>
        <time>2021-11-16T18:26:57.083Z</time>
      </trkpt>
      <trkpt lat="39.38347" lon="31.10645">
        <ele>865.972172</ele>
        <time>2021-11-16T18:27:08.143Z</time>
      </trkpt>
      <trkpt lat="39.38293" lon="31.09404">
        <ele>868.311368</ele>
        <time>2021-11-16T18:30:52.651Z</time>
      </trkpt>
      <trkpt lat="39.38158" lon="31.06659">
        <ele>865.552062</ele>
        <time>2021-11-16T18:38:33.861Z</time>
      </trkpt>
      <trkpt lat="39.3812" lon="31.0593">
        <ele>865.412294</ele>
        <time>2021-11-16T18:40:38.353Z</time>
      </trkpt>
      <trkpt lat="39.38107" lon="31.05684">
        <ele>866.224797</ele>
        <time>2021-11-16T18:41:23.880Z</time>
      </trkpt>
      <trkpt lat="39.38099" lon="31.05514">
        <ele>867.388421</ele>
        <time>2021-11-16T18:41:58.117Z</time>
      </trkpt>
      <trkpt lat="39.38096" lon="31.05428">
        <ele>868.21544</ele>
        <time>2021-11-16T18:42:16.231Z</time>
      </trkpt>
      <trkpt lat="39.38095" lon="31.05425">
        <ele>868.24336</ele>
        <time>2021-11-16T18:42:17.052Z</time>
      </trkpt>
      <trkpt lat="39.38088" lon="31.05332">
        <ele>869.090102</ele>
        <time>2021-11-16T18:42:35.599Z</time>
      </trkpt>
      <trkpt lat="39.38081" lon="31.0524">
        <ele>869.762677</ele>
        <time>2021-11-16T18:42:54.147Z</time>
      </trkpt>
      <trkpt lat="39.38074" lon="31.05148">
        <ele>870.434624</ele>
        <time>2021-11-16T18:43:12.693Z</time>
      </trkpt>
      <trkpt lat="39.38067" lon="31.05055">
        <ele>870.577811</ele>
        <time>2021-11-16T18:43:31.239Z</time>
      </trkpt>
      <trkpt lat="39.38067" lon="31.05055">
        <ele>870.577708</ele>
        <time>2021-11-16T18:43:31.250Z</time>
      </trkpt>
      <trkpt lat="39.3811" lon="31.05039">
        <ele>870.517492</ele>
        <time>2021-11-16T18:43:40.878Z</time>
      </trkpt>
      <trkpt lat="39.38222" lon="31.04981">
        <ele>870.442135</ele>
        <time>2021-11-16T18:44:06.130Z</time>
      </trkpt>
      <trkpt lat="39.38446" lon="31.04829">
        <ele>870.79252</ele>
        <time>2021-11-16T18:45:05.191Z</time>
      </trkpt>
      <trkpt lat="39.38494" lon="31.04788">
        <ele>870.895042</ele>
        <time>2021-11-16T18:45:18.115Z</time>
      </trkpt>
      <trkpt lat="39.38506" lon="31.04777">
        <ele>870.918953</ele>
        <time>2021-11-16T18:45:21.402Z</time>
      </trkpt>
      <trkpt lat="39.38509" lon="31.04773">
        <ele>870.908648</ele>
        <time>2021-11-16T18:45:22.281Z</time>
      </trkpt>
      <trkpt lat="39.38512" lon="31.04762">
        <ele>870.888055</ele>
        <time>2021-11-16T18:45:24.210Z</time>
      </trkpt>
      <trkpt lat="39.38508" lon="31.04751">
        <ele>870.867421</ele>
        <time>2021-11-16T18:45:26.305Z</time>
      </trkpt>
      <trkpt lat="39.385" lon="31.04745">
        <ele>870.847077</ele>
        <time>2021-11-16T18:45:28.263Z</time>
      </trkpt>
      <trkpt lat="39.38491" lon="31.04747">
        <ele>870.826405</ele>
        <time>2021-11-16T18:45:30.107Z</time>
      </trkpt>
      <trkpt lat="39.38488" lon="31.0475">
        <ele>870.816143</ele>
        <time>2021-11-16T18:45:30.987Z</time>
      </trkpt>
      <trkpt lat="39.38477" lon="31.04762">
        <ele>870.784071</ele>
        <time>2021-11-16T18:45:34.210Z</time>
      </trkpt>
      <trkpt lat="39.38465" lon="31.04774">
        <ele>870.748098</ele>
        <time>2021-11-16T18:45:37.524Z</time>
      </trkpt>
      <trkpt lat="39.3835" lon="31.04874">
        <ele>870.51732</ele>
        <time>2021-11-16T18:46:06.237Z</time>
      </trkpt>
      <trkpt lat="39.38247" lon="31.04946">
        <ele>870.559498</ele>
        <time>2021-11-16T18:46:33.436Z</time>
      </trkpt>
      <trkpt lat="39.38214" lon="31.04963">
        <ele>870.562495</ele>
        <time>2021-11-16T18:46:41.635Z</time>
      </trkpt>
      <trkpt lat="39.3819" lon="31.04893">
        <ele>870.482649</ele>
        <time>2021-11-16T18:46:55.445Z</time>
      </trkpt>
      <trkpt lat="39.38335" lon="31.04788">
        <ele>870.314102</ele>
        <time>2021-11-16T18:47:32.406Z</time>
      </trkpt>
      <trkpt lat="39.38394" lon="31.04745">
        <ele>870.295712</ele>
        <time>2021-11-16T18:47:47.481Z</time>
      </trkpt>
      <trkpt lat="39.38448" lon="31.04706">
        <ele>870.285854</ele>
        <time>2021-11-16T18:48:02.193Z</time>
      </trkpt>
      <trkpt lat="39.38454" lon="31.04704">
        <ele>870.338448</ele>
        <time>2021-11-16T18:48:04.021Z</time>
      </trkpt>
      <trkpt lat="39.38439" lon="31.04678">
        <ele>870.524902</ele>
        <time>2021-11-16T18:48:10.132Z</time>
      </trkpt>
      <trkpt lat="39.38409" lon="31.04625">
        <ele>870.898726</ele>
        <time>2021-11-16T18:48:22.813Z</time>
      </trkpt>
      <trkpt lat="39.38362" lon="31.04562">
        <ele>871.401857</ele>
        <time>2021-11-16T18:48:40.486Z</time>
      </trkpt>
      <trkpt lat="39.38322" lon="31.0451">
        <ele>871.923666</ele>
        <time>2021-11-16T18:48:55.251Z</time>
      </trkpt>
      <trkpt lat="39.383" lon="31.04481">
        <ele>872.268813</ele>
        <time>2021-11-16T18:49:03.468Z</time>
      </trkpt>
      <trkpt lat="39.38271" lon="31.04449">
        <ele>872.687052</ele>
        <time>2021-11-16T18:49:13.494Z</time>
      </trkpt>
      <trkpt lat="39.38263" lon="31.0444">
        <ele>872.811856</ele>
        <time>2021-11-16T18:49:16.711Z</time>
      </trkpt>
      <trkpt lat="39.38239" lon="31.04414">
        <ele>873.1522</ele>
        <time>2021-11-16T18:49:24.939Z</time>
      </trkpt>
      <trkpt lat="39.38234" lon="31.04407">
        <ele>873.238206</ele>
        <time>2021-11-16T18:49:27.200Z</time>
      </trkpt>
      <trkpt lat="39.38185" lon="31.04297">
        <ele>874.22428</ele>
        <time>2021-11-16T18:49:53.088Z</time>
      </trkpt>
      <trkpt lat="39.38178" lon="31.0428">
        <ele>874.368377</ele>
        <time>2021-11-16T18:49:57.342Z</time>
      </trkpt>
      <trkpt lat="39.38132" lon="31.04165">
        <ele>875.334374</ele>
        <time>2021-11-16T18:50:23.319Z</time>
      </trkpt>
      <trkpt lat="39.38081" lon="31.04081">
        <ele>875.8689</ele>
        <time>2021-11-16T18:50:43.428Z</time>
      </trkpt>
      <trkpt lat="39.38071" lon="31.04061">
        <ele>875.986244</ele>
        <time>2021-11-16T18:50:47.807Z</time>
      </trkpt>
      <trkpt lat="39.38055" lon="31.04025">
        <ele>876.191661</ele>
        <time>2021-11-16T18:50:55.678Z</time>
      </trkpt>
      <trkpt lat="39.3803" lon="31.03959">
        <ele>876.528282</ele>
        <time>2021-11-16T18:51:10.251Z</time>
      </trkpt>
      <trkpt lat="39.38013" lon="31.03915">
        <ele>876.649993</ele>
        <time>2021-11-16T18:51:19.481Z</time>
      </trkpt>
      <trkpt lat="39.38005" lon="31.03884">
        <ele>876.732058</ele>
        <time>2021-11-16T18:51:25.599Z</time>
      </trkpt>
      <trkpt lat="39.37986" lon="31.03809">
        <ele>876.929001</ele>
        <time>2021-11-16T18:51:40.334Z</time>
      </trkpt>
      <trkpt lat="39.37972" lon="31.03759">
        <ele>877.061557</ele>
        <time>2021-11-16T18:51:49.923Z</time>
      </trkpt>
      <trkpt lat="39.37956" lon="31.03749">
        <ele>876.950538</ele>
        <time>2021-11-16T18:51:53.756Z</time>
      </trkpt>
      <trkpt lat="39.37938" lon="31.03749">
        <ele>876.787174</ele>
        <time>2021-11-16T18:51:57.599Z</time>
      </trkpt>
      <trkpt lat="39.37904" lon="31.03749">
        <ele>876.474932</ele>
        <time>2021-11-16T18:52:04.765Z</time>
      </trkpt>
      <trkpt lat="39.37894" lon="31.03749">
        <ele>876.391005</ele>
        <time>2021-11-16T18:52:06.739Z</time>
      </trkpt>
      <trkpt lat="39.37876" lon="31.03748">
        <ele>876.222199</ele>
        <time>2021-11-16T18:52:10.432Z</time>
      </trkpt>
      <trkpt lat="39.37861" lon="31.03748">
        <ele>876.0913</ele>
        <time>2021-11-16T18:52:13.452Z</time>
      </trkpt>
      <trkpt lat="39.37843" lon="31.03755">
        <ele>875.921275</ele>
        <time>2021-11-16T18:52:17.084Z</time>
      </trkpt>
      <trkpt lat="39.37815" lon="31.03762">
        <ele>875.658204</ele>
        <time>2021-11-16T18:52:22.897Z</time>
      </trkpt>
      <trkpt lat="39.37808" lon="31.03762">
        <ele>875.597705</ele>
        <time>2021-11-16T18:52:24.101Z</time>
      </trkpt>
      <trkpt lat="39.37771" lon="31.03767">
        <ele>875.190496</ele>
        <time>2021-11-16T18:52:31.218Z</time>
      </trkpt>
      <trkpt lat="39.37768" lon="31.03744">
        <ele>874.961089</ele>
        <time>2021-11-16T18:52:34.645Z</time>
      </trkpt>
      <trkpt lat="39.37765" lon="31.03718">
        <ele>874.708164</ele>
        <time>2021-11-16T18:52:38.156Z</time>
      </trkpt>
      <trkpt lat="39.37764" lon="31.03664">
        <ele>874.168782</ele>
        <time>2021-11-16T18:52:45.919Z</time>
      </trkpt>
      <trkpt lat="39.3774" lon="31.03646">
        <ele>873.812633</ele>
        <time>2021-11-16T18:52:51.350Z</time>
      </trkpt>
      <trkpt lat="39.37727" lon="31.03633">
        <ele>873.599257</ele>
        <time>2021-11-16T18:52:54.783Z</time>
      </trkpt>
      <trkpt lat="39.37692" lon="31.03595">
        <ele>873.076762</ele>
        <time>2021-11-16T18:53:04.125Z</time>
      </trkpt>
      <trkpt lat="39.37642" lon="31.03566">
        <ele>872.681984</ele>
        <time>2021-11-16T18:53:15.483Z</time>
      </trkpt>
      <trkpt lat="39.37607" lon="31.03552">
        <ele>872.421745</ele>
        <time>2021-11-16T18:53:23.044Z</time>
      </trkpt>
      <trkpt lat="39.37551" lon="31.03522">
        <ele>871.982495</ele>
        <time>2021-11-16T18:53:35.854Z</time>
      </trkpt>
      <trkpt lat="39.37495" lon="31.03494">
        <ele>871.557327</ele>
        <time>2021-11-16T18:53:48.471Z</time>
      </trkpt>
      <trkpt lat="39.37443" lon="31.0347">
        <ele>871.170715</ele>
        <time>2021-11-16T18:54:00.099Z</time>
      </trkpt>
      <trkpt lat="39.37388" lon="31.03444">
        <ele>870.759812</ele>
        <time>2021-11-16T18:54:12.545Z</time>
      </trkpt>
      <trkpt lat="39.37266" lon="31.03411">
        <ele>870.092735</ele>
        <time>2021-11-16T18:54:37.940Z</time>
      </trkpt>
      <trkpt lat="39.37154" lon="31.03382">
        <ele>869.883761</ele>
        <time>2021-11-16T18:55:03.762Z</time>
      </trkpt>
      <trkpt lat="39.37146" lon="31.0338">
        <ele>869.923192</ele>
        <time>2021-11-16T18:55:05.602Z</time>
      </trkpt>
      <trkpt lat="39.37115" lon="31.0338">
        <ele>870.085489</ele>
        <time>2021-11-16T18:55:13.366Z</time>
      </trkpt>
      <trkpt lat="39.37107" lon="31.03381">
        <ele>870.124869</ele>
        <time>2021-11-16T18:55:15.207Z</time>
      </trkpt>
      <trkpt lat="39.37094" lon="31.03378">
        <ele>870.194863</ele>
        <time>2021-11-16T18:55:20.377Z</time>
      </trkpt>
      <trkpt lat="39.37081" lon="31.03365">
        <ele>870.277914</ele>
        <time>2021-11-16T18:55:26.944Z</time>
      </trkpt>
      <trkpt lat="39.36988" lon="31.03337">
        <ele>870.939125</ele>
        <time>2021-11-16T18:56:06.431Z</time>
      </trkpt>
      <trkpt lat="39.37018" lon="31.03087">
        <ele>872.883092</ele>
        <time>2021-11-16T18:56:59.195Z</time>
      </trkpt>
      <trkpt lat="39.37036" lon="31.0297">
        <ele>873.390619</ele>
        <time>2021-11-16T18:57:21.054Z</time>
      </trkpt>
      <trkpt lat="39.37035" lon="31.0288">
        <ele>873.666455</ele>
        <time>2021-11-16T18:57:37.090Z</time>
      </trkpt>
      <trkpt lat="39.37024" lon="31.0283">
        <ele>873.718564</ele>
        <time>2021-11-16T18:57:46.113Z</time>
      </trkpt>
      <trkpt lat="39.37006" lon="31.02775">
        <ele>873.778297</ele>
        <time>2021-11-16T18:57:56.490Z</time>
      </trkpt>
      <trkpt lat="39.36981" lon="31.02715">
        <ele>873.84749</ele>
        <time>2021-11-16T18:58:08.523Z</time>
      </trkpt>
      <trkpt lat="39.36636" lon="31.02128">
        <ele>875.1977</ele>
        <time>2021-11-16T19:00:20.298Z</time>
      </trkpt>
      <trkpt lat="39.36441" lon="31.01784">
        <ele>877.016418</ele>
        <time>2021-11-16T19:01:41.107Z</time>
      </trkpt>
      <trkpt lat="39.36366" lon="31.01653">
        <ele>877.697162</ele>
        <time>2021-11-16T19:02:12.688Z</time>
      </trkpt>
      <trkpt lat="39.36317" lon="31.01582">
        <ele>878.059997</ele>
        <time>2021-11-16T19:02:30.296Z</time>
      </trkpt>
      <trkpt lat="39.36237" lon="31.01508">
        <ele>878.020491</ele>
        <time>2021-11-16T19:02:52.350Z</time>
      </trkpt>
      <trkpt lat="39.35872" lon="31.01195">
        <ele>877.216951</ele>
        <time>2021-11-16T19:04:25.492Z</time>
      </trkpt>
      <trkpt lat="39.35743" lon="31.01088">
        <ele>878.040956</ele>
        <time>2021-11-16T19:05:03.290Z</time>
      </trkpt>
      <trkpt lat="39.3566" lon="31.01013">
        <ele>878.434175</ele>
        <time>2021-11-16T19:05:28.869Z</time>
      </trkpt>
      <trkpt lat="39.31995" lon="30.97837">
        <ele>893.590055</ele>
        <time>2021-11-16T19:22:49.017Z</time>
      </trkpt>
      <trkpt lat="39.31413" lon="30.97338">
        <ele>898.208172</ele>
        <time>2021-11-16T19:25:43.720Z</time>
      </trkpt>
      <trkpt lat="39.31372" lon="30.97312">
        <ele>898.411105</ele>
        <time>2021-11-16T19:25:54.679Z</time>
      </trkpt>
      <trkpt lat="39.31321" lon="30.97289">
        <ele>898.486981</ele>
        <time>2021-11-16T19:26:07.645Z</time>
      </trkpt>
      <trkpt lat="39.30502" lon="30.97044">
        <ele>899.784071</ele>
        <time>2021-11-16T19:29:18.114Z</time>
      </trkpt>
      <trkpt lat="39.30422" lon="30.97039">
        <ele>900.499436</ele>
        <time>2021-11-16T19:29:37.926Z</time>
      </trkpt>
      <trkpt lat="39.302" lon="30.97057">
        <ele>903.023241</ele>
        <time>2021-11-16T19:30:39.263Z</time>
      </trkpt>
      <trkpt lat="39.3007" lon="30.9707">
        <ele>904.586136</ele>
        <time>2021-11-16T19:31:14.367Z</time>
      </trkpt>
      <trkpt lat="39.3005" lon="30.97065">
        <ele>904.815031</ele>
        <time>2021-11-16T19:31:19.395Z</time>
      </trkpt>
      <trkpt lat="39.30017" lon="30.97017">
        <ele>905.391289</ele>
        <time>2021-11-16T19:31:32.966Z</time>
      </trkpt>
      <trkpt lat="39.29982" lon="30.96953">
        <ele>906.190051</ele>
        <time>2021-11-16T19:31:48.860Z</time>
      </trkpt>
      <trkpt lat="39.29875" lon="30.96764">
        <ele>908.818168</ele>
        <time>2021-11-16T19:32:40.761Z</time>
      </trkpt>
      <trkpt lat="39.29633" lon="30.96338">
        <ele>914.428286</ele>
        <time>2021-11-16T19:34:34.334Z</time>
      </trkpt>
      <trkpt lat="39.29481" lon="30.96071">
        <ele>917.634927</ele>
        <time>2021-11-16T19:35:43.778Z</time>
      </trkpt>
      <trkpt lat="39.2934" lon="30.9582">
        <ele>920.958333</ele>
        <time>2021-11-16T19:36:49.944Z</time>
      </trkpt>
      <trkpt lat="39.28235" lon="30.93805">
        <ele>952.799702</ele>
        <time>2021-11-16T19:46:01.716Z</time>
      </trkpt>
      <trkpt lat="39.25553" lon="30.90728">
        <ele>1047.421501</ele>
        <time>2021-11-16T20:05:36.307Z</time>
      </trkpt>
      <trkpt lat="39.25521" lon="30.90697">
        <ele>1048.794781</ele>
        <time>2021-11-16T20:05:52.201Z</time>
      </trkpt>
      <trkpt lat="39.25293" lon="30.90513">
        <ele>1062.133087</ele>
        <time>2021-11-16T20:07:48.735Z</time>
      </trkpt>
      <trkpt lat="39.25077" lon="30.90327">
        <ele>1073.37187</ele>
        <time>2021-11-16T20:09:30.838Z</time>
      </trkpt>
      <trkpt lat="39.24745" lon="30.90052">
        <ele>1086.806639</ele>
        <time>2021-11-16T20:11:50.339Z</time>
      </trkpt>
      <trkpt lat="39.2452" lon="30.89865">
        <ele>1096.535247</ele>
        <time>2021-11-16T20:13:32.199Z</time>
      </trkpt>
      <trkpt lat="39.24242" lon="30.89626">
        <ele>1105.160642</ele>
        <time>2021-11-16T20:15:20.846Z</time>
      </trkpt>
      <trkpt lat="39.23726" lon="30.8881">
        <ele>1117.043733</ele>
        <time>2021-11-16T20:19:07.003Z</time>
      </trkpt>
      <trkpt lat="39.23714" lon="30.88778">
        <ele>1117.480112</ele>
        <time>2021-11-16T20:19:15.402Z</time>
      </trkpt>
      <trkpt lat="39.23712" lon="30.88718">
        <ele>1118.210043</ele>
        <time>2021-11-16T20:19:29.333Z</time>
      </trkpt>
      <trkpt lat="39.23729" lon="30.88678">
        <ele>1118.76636</ele>
        <time>2021-11-16T20:19:39.857Z</time>
      </trkpt>
      <trkpt lat="39.23829" lon="30.88305">
        <ele>1122.99781</ele>
        <time>2021-11-16T20:21:02.580Z</time>
      </trkpt>
      <trkpt lat="39.23964" lon="30.87822">
        <ele>1129.022979</ele>
        <time>2021-11-16T20:22:58.883Z</time>
      </trkpt>
      <trkpt lat="39.24075" lon="30.86801">
        <ele>1131.373851</ele>
        <time>2021-11-16T20:26:04.175Z</time>
      </trkpt>
      <trkpt lat="39.24083" lon="30.86691">
        <ele>1130.246518</ele>
        <time>2021-11-16T20:26:21.116Z</time>
      </trkpt>
      <trkpt lat="39.23871" lon="30.84599">
        <ele>1109.018242</ele>
        <time>2021-11-16T20:31:24.537Z</time>
      </trkpt>
      <trkpt lat="39.23868" lon="30.8453">
        <ele>1108.501768</ele>
        <time>2021-11-16T20:31:35.434Z</time>
      </trkpt>
      <trkpt lat="39.23879" lon="30.8447">
        <ele>1108.259792</ele>
        <time>2021-11-16T20:31:45.270Z</time>
      </trkpt>
      <trkpt lat="39.24215" lon="30.83317">
        <ele>1108.154568</ele>
        <time>2021-11-16T20:35:17.406Z</time>
      </trkpt>
      <trkpt lat="39.24215" lon="30.83316">
        <ele>1108.155858</ele>
        <time>2021-11-16T20:35:17.653Z</time>
      </trkpt>
      <trkpt lat="39.24279" lon="30.83113">
        <ele>1108.634225</ele>
        <time>2021-11-16T20:35:56.909Z</time>
      </trkpt>
      <trkpt lat="39.24286" lon="30.83091">
        <ele>1108.713642</ele>
        <time>2021-11-16T20:36:01.347Z</time>
      </trkpt>
      <trkpt lat="39.24334" lon="30.82926">
        <ele>1109.40506</ele>
        <time>2021-11-16T20:36:35.151Z</time>
      </trkpt>
      <trkpt lat="39.24357" lon="30.82848">
        <ele>1109.824488</ele>
        <time>2021-11-16T20:36:51.296Z</time>
      </trkpt>
      <trkpt lat="39.24385" lon="30.82744">
        <ele>1110.350255</ele>
        <time>2021-11-16T20:37:12.552Z</time>
      </trkpt>
      <trkpt lat="39.24402" lon="30.82688">
        <ele>1110.538307</ele>
        <time>2021-11-16T20:37:23.825Z</time>
      </trkpt>
      <trkpt lat="39.24411" lon="30.82665">
        <ele>1110.620171</ele>
        <time>2021-11-16T20:37:28.696Z</time>
      </trkpt>
      <trkpt lat="39.2446" lon="30.82484">
        <ele>1111.207658</ele>
        <time>2021-11-16T20:38:03.470Z</time>
      </trkpt>
      <trkpt lat="39.24461" lon="30.82478">
        <ele>1111.226311</ele>
        <time>2021-11-16T20:38:04.623Z</time>
      </trkpt>
      <trkpt lat="39.24456" lon="30.82454">
        <ele>1111.298844</ele>
        <time>2021-11-16T20:38:08.975Z</time>
      </trkpt>
      <trkpt lat="39.24452" lon="30.82414">
        <ele>1111.416808</ele>
        <time>2021-11-16T20:38:16.177Z</time>
      </trkpt>
      <trkpt lat="39.24406" lon="30.82179">
        <ele>1112.678752</ele>
        <time>2021-11-16T20:39:02.121Z</time>
      </trkpt>
      <trkpt lat="39.24147" lon="30.80903">
        <ele>1126.818813</ele>
        <time>2021-11-16T20:43:46.860Z</time>
      </trkpt>
      <trkpt lat="39.24128" lon="30.80824">
        <ele>1127.863302</ele>
        <time>2021-11-16T20:44:05.027Z</time>
      </trkpt>
      <trkpt lat="39.24075" lon="30.8071">
        <ele>1130.004429</ele>
        <time>2021-11-16T20:44:35.244Z</time>
      </trkpt>
      <trkpt lat="39.22766" lon="30.78233">
        <ele>1195.05621</ele>
        <time>2021-11-16T20:57:34.496Z</time>
      </trkpt>
      <trkpt lat="39.22734" lon="30.78185">
        <ele>1196.212329</ele>
        <time>2021-11-16T20:57:50.774Z</time>
      </trkpt>
      <trkpt lat="39.21824" lon="30.77045">
        <ele>1225.382445</ele>
        <time>2021-11-16T21:04:30.960Z</time>
      </trkpt>
      <trkpt lat="39.21774" lon="30.76996">
        <ele>1226.38436</ele>
        <time>2021-11-16T21:04:48.428Z</time>
      </trkpt>
      <trkpt lat="39.2156" lon="30.7684">
        <ele>1226.937278</ele>
        <time>2021-11-16T21:05:46.105Z</time>
      </trkpt>
      <trkpt lat="39.21537" lon="30.76828">
        <ele>1226.574695</ele>
        <time>2021-11-16T21:05:50.607Z</time>
      </trkpt>
      <trkpt lat="39.21533" lon="30.76823">
        <ele>1226.478489</ele>
        <time>2021-11-16T21:05:51.926Z</time>
      </trkpt>
      <trkpt lat="39.21516" lon="30.768">
        <ele>1226.115329</ele>
        <time>2021-11-16T21:05:56.337Z</time>
      </trkpt>
      <trkpt lat="39.21486" lon="30.76755">
        <ele>1225.423854</ele>
        <time>2021-11-16T21:06:04.651Z</time>
      </trkpt>
      <trkpt lat="39.21483" lon="30.76749">
        <ele>1225.349802</ele>
        <time>2021-11-16T21:06:05.589Z</time>
      </trkpt>
      <trkpt lat="39.21478" lon="30.76722">
        <ele>1225.019215</ele>
        <time>2021-11-16T21:06:09.297Z</time>
      </trkpt>
      <trkpt lat="39.21371" lon="30.76205">
        <ele>1212.995037</ele>
        <time>2021-11-16T21:07:16.732Z</time>
      </trkpt>
      <trkpt lat="39.21344" lon="30.76084">
        <ele>1211.659742</ele>
        <time>2021-11-16T21:07:34.661Z</time>
      </trkpt>
      <trkpt lat="39.21296" lon="30.75879">
        <ele>1212.181366</ele>
        <time>2021-11-16T21:08:14.783Z</time>
      </trkpt>
      <trkpt lat="39.21039" lon="30.74684">
        <ele>1230.9577</ele>
        <time>2021-11-16T21:13:06.309Z</time>
      </trkpt>
      <trkpt lat="39.21" lon="30.74472">
        <ele>1234.535306</ele>
        <time>2021-11-16T21:13:56.589Z</time>
      </trkpt>
      <trkpt lat="39.20904" lon="30.74169">
        <ele>1243.291209</ele>
        <time>2021-11-16T21:15:28.598Z</time>
      </trkpt>
      <trkpt lat="39.20806" lon="30.73881">
        <ele>1253.10351</ele>
        <time>2021-11-16T21:17:03.495Z</time>
      </trkpt>
      <trkpt lat="39.20781" lon="30.73793">
        <ele>1256.104771</ele>
        <time>2021-11-16T21:17:31.115Z</time>
      </trkpt>
      <trkpt lat="39.20788" lon="30.73719">
        <ele>1258.508853</ele>
        <time>2021-11-16T21:17:53.098Z</time>
      </trkpt>
      <trkpt lat="39.20805" lon="30.7363">
        <ele>1261.4735</ele>
        <time>2021-11-16T21:18:20.786Z</time>
      </trkpt>
      <trkpt lat="39.20833" lon="30.73524">
        <ele>1265.249195</ele>
        <time>2021-11-16T21:18:56.054Z</time>
      </trkpt>
      <trkpt lat="39.2088" lon="30.73414">
        <ele>1269.575354</ele>
        <time>2021-11-16T21:19:35.279Z</time>
      </trkpt>
      <trkpt lat="39.20893" lon="30.73366">
        <ele>1271.23095</ele>
        <time>2021-11-16T21:19:50.728Z</time>
      </trkpt>
      <trkpt lat="39.20899" lon="30.73332">
        <ele>1272.225194</ele>
        <time>2021-11-16T21:20:01.109Z</time>
      </trkpt>
      <trkpt lat="39.20903" lon="30.73228">
        <ele>1275.191149</ele>
        <time>2021-11-16T21:20:31.017Z</time>
      </trkpt>
      <trkpt lat="39.20895" lon="30.73155">
        <ele>1277.312626</ele>
        <time>2021-11-16T21:20:51.381Z</time>
      </trkpt>
      <trkpt lat="39.20764" lon="30.72499">
        <ele>1292.68777</ele>
        <time>2021-11-16T21:23:51.436Z</time>
      </trkpt>
      <trkpt lat="39.20749" lon="30.72457">
        <ele>1293.293844</ele>
        <time>2021-11-16T21:24:01.940Z</time>
      </trkpt>
      <trkpt lat="39.20479" lon="30.71865">
        <ele>1297.309257</ele>
        <time>2021-11-16T21:26:14.353Z</time>
      </trkpt>
      <trkpt lat="39.20431" lon="30.71744">
        <ele>1298.216068</ele>
        <time>2021-11-16T21:26:40.292Z</time>
      </trkpt>
      <trkpt lat="39.20408" lon="30.71659">
        <ele>1298.901683</ele>
        <time>2021-11-16T21:26:59.038Z</time>
      </trkpt>
      <trkpt lat="39.20393" lon="30.71608">
        <ele>1299.809149</ele>
        <time>2021-11-16T21:27:10.951Z</time>
      </trkpt>
      <trkpt lat="39.20383" lon="30.71599">
        <ele>1300.061637</ele>
        <time>2021-11-16T21:27:14.880Z</time>
      </trkpt>
      <trkpt lat="39.2034" lon="30.71567">
        <ele>1301.142882</ele>
        <time>2021-11-16T21:27:30.263Z</time>
      </trkpt>
      <trkpt lat="39.20276" lon="30.71587">
        <ele>1302.548633</ele>
        <time>2021-11-16T21:27:52.721Z</time>
      </trkpt>
      <trkpt lat="39.20196" lon="30.71637">
        <ele>1305.448031</ele>
        <time>2021-11-16T21:28:25.042Z</time>
      </trkpt>
      <trkpt lat="39.2018" lon="30.71636">
        <ele>1305.971517</ele>
        <time>2021-11-16T21:28:30.592Z</time>
      </trkpt>
      <trkpt lat="39.20166" lon="30.71642">
        <ele>1306.445811</ele>
        <time>2021-11-16T21:28:36.138Z</time>
      </trkpt>
      <trkpt lat="39.20153" lon="30.71619">
        <ele>1307.154695</ele>
        <time>2021-11-16T21:28:43.742Z</time>
      </trkpt>
      <trkpt lat="39.20136" lon="30.71585">
        <ele>1308.19725</ele>
        <time>2021-11-16T21:28:55.498Z</time>
      </trkpt>
      <trkpt lat="39.20108" lon="30.71493">
        <ele>1311.513714</ele>
        <time>2021-11-16T21:29:24.346Z</time>
      </trkpt>
      <trkpt lat="39.20073" lon="30.7151">
        <ele>1313.164239</ele>
        <time>2021-11-16T21:29:39.196Z</time>
      </trkpt>
      <trkpt lat="39.2004" lon="30.71526">
        <ele>1314.7561</ele>
        <time>2021-11-16T21:29:53.034Z</time>
      </trkpt>
      <trkpt lat="39.20037" lon="30.71527">
        <ele>1314.909309</ele>
        <time>2021-11-16T21:29:54.358Z</time>
      </trkpt>
      <trkpt lat="39.2001" lon="30.7153">
        <ele>1316.142284</ele>
        <time>2021-11-16T21:30:06.734Z</time>
      </trkpt>
      <trkpt lat="39.19993" lon="30.7153">
        <ele>1316.890681</ele>
        <time>2021-11-16T21:30:13.998Z</time>
      </trkpt>
      <trkpt lat="39.19974" lon="30.71536">
        <ele>1317.848457</ele>
        <time>2021-11-16T21:30:24.154Z</time>
      </trkpt>
      <trkpt lat="39.19992" lon="30.71496">
        <ele>1319.55762</ele>
        <time>2021-11-16T21:30:49.143Z</time>
      </trkpt>
      <trkpt lat="39.20025" lon="30.71452">
        <ele>1321.851702</ele>
        <time>2021-11-16T21:31:19.837Z</time>
      </trkpt>
      <trkpt lat="39.20039" lon="30.71435">
        <ele>1322.801777</ele>
        <time>2021-11-16T21:31:33.493Z</time>
      </trkpt>
      <trkpt lat="39.2004" lon="30.71434">
        <ele>1322.855041</ele>
        <time>2021-11-16T21:31:34.274Z</time>
      </trkpt>
      <trkpt lat="39.20057" lon="30.7141">
        <ele>1324.054765</ele>
        <time>2021-11-16T21:31:51.518Z</time>
      </trkpt>
      <trkpt lat="39.20062" lon="30.71397">
        <ele>1324.591168</ele>
        <time>2021-11-16T21:31:59.261Z</time>
      </trkpt>
      <trkpt lat="39.20062" lon="30.71386">
        <ele>1325.021619</ele>
        <time>2021-11-16T21:32:05.447Z</time>
      </trkpt>
      <trkpt lat="39.20056" lon="30.71374">
        <ele>1325.159926</ele>
        <time>2021-11-16T21:32:12.910Z</time>
      </trkpt>
      <trkpt lat="39.20044" lon="30.71371">
        <ele>1324.842024</ele>
        <time>2021-11-16T21:32:21.448Z</time>
      </trkpt>
      <trkpt lat="39.20028" lon="30.7137">
        <ele>1324.432326</ele>
        <time>2021-11-16T21:32:32.449Z</time>
      </trkpt>
      <trkpt lat="39.20044" lon="30.71371">
        <ele>1324.022627</ele>
        <time>2021-11-16T21:32:43.451Z</time>
      </trkpt>
      <trkpt lat="39.20056" lon="30.71374">
        <ele>1323.704725</ele>
        <time>2021-11-16T21:32:51.989Z</time>
      </trkpt>
      <trkpt lat="39.20062" lon="30.71386">
        <ele>1323.42777</ele>
        <time>2021-11-16T21:32:59.451Z</time>
      </trkpt>
      <trkpt lat="39.20062" lon="30.71397">
        <ele>1323.197249</ele>
        <time>2021-11-16T21:33:05.638Z</time>
      </trkpt>
      <trkpt lat="39.20057" lon="30.7141">
        <ele>1322.909989</ele>
        <time>2021-11-16T21:33:13.381Z</time>
      </trkpt>
      <trkpt lat="39.2004" lon="30.71434">
        <ele>1322.267498</ele>
        <time>2021-11-16T21:33:30.624Z</time>
      </trkpt>
      <trkpt lat="39.20039" lon="30.71435">
        <ele>1322.238974</ele>
        <time>2021-11-16T21:33:31.405Z</time>
      </trkpt>
      <trkpt lat="39.20025" lon="30.71452">
        <ele>1321.730178</ele>
        <time>2021-11-16T21:33:45.062Z</time>
      </trkpt>
      <trkpt lat="39.19992" lon="30.71496">
        <ele>1320.323869</ele>
        <time>2021-11-16T21:33:57.450Z</time>
      </trkpt>
      <trkpt lat="39.19974" lon="30.71536">
        <ele>1318.238628</ele>
        <time>2021-11-16T21:34:06.374Z</time>
      </trkpt>
      <trkpt lat="39.19993" lon="30.7153">
        <ele>1317.070105</ele>
        <time>2021-11-16T21:34:09.334Z</time>
      </trkpt>
      <trkpt lat="39.2001" lon="30.7153">
        <ele>1316.115645</ele>
        <time>2021-11-16T21:34:11.830Z</time>
      </trkpt>
      <trkpt lat="39.20037" lon="30.71527">
        <ele>1314.501456</ele>
        <time>2021-11-16T21:34:16.092Z</time>
      </trkpt>
      <trkpt lat="39.2004" lon="30.71526">
        <ele>1314.300876</ele>
        <time>2021-11-16T21:34:16.649Z</time>
      </trkpt>
      <trkpt lat="39.20073" lon="30.7151">
        <ele>1312.216838</ele>
        <time>2021-11-16T21:34:22.231Z</time>
      </trkpt>
      <trkpt lat="39.20108" lon="30.71493">
        <ele>1310.055999</ele>
        <time>2021-11-16T21:34:28.012Z</time>
      </trkpt>
      <trkpt lat="39.20146" lon="30.71477">
        <ele>1308.294398</ele>
        <time>2021-11-16T21:34:34.449Z</time>
      </trkpt>
      <trkpt lat="39.20181" lon="30.7146">
        <ele>1306.629294</ele>
        <time>2021-11-16T21:34:40.580Z</time>
      </trkpt>
      <trkpt lat="39.20201" lon="30.71452">
        <ele>1305.730781</ele>
        <time>2021-11-16T21:34:43.898Z</time>
      </trkpt>
      <trkpt lat="39.20228" lon="30.71454">
        <ele>1304.535821</ele>
        <time>2021-11-16T21:34:48.309Z</time>
      </trkpt>
      <trkpt lat="39.20303" lon="30.71453">
        <ele>1301.5389</ele>
        <time>2021-11-16T21:35:00.579Z</time>
      </trkpt>
      <trkpt lat="39.20363" lon="30.71482">
        <ele>1299.619332</ele>
        <time>2021-11-16T21:35:11.390Z</time>
      </trkpt>
      <trkpt lat="39.20404" lon="30.71501">
        <ele>1298.300639</ele>
        <time>2021-11-16T21:35:19.224Z</time>
      </trkpt>
      <trkpt lat="39.20414" lon="30.71514">
        <ele>1297.862481</ele>
        <time>2021-11-16T21:35:21.925Z</time>
      </trkpt>
      <trkpt lat="39.20559" lon="30.71504">
        <ele>1293.737939</ele>
        <time>2021-11-16T21:35:46.533Z</time>
      </trkpt>
      <trkpt lat="39.20816" lon="30.71528">
        <ele>1285.640008</ele>
        <time>2021-11-16T21:36:28.342Z</time>
      </trkpt>
      <trkpt lat="39.20887" lon="30.7153">
        <ele>1283.557355</ele>
        <time>2021-11-16T21:36:39.955Z</time>
      </trkpt>
      <trkpt lat="39.20952" lon="30.71521">
        <ele>1281.668035</ele>
        <time>2021-11-16T21:36:50.690Z</time>
      </trkpt>
      <trkpt lat="39.21181" lon="30.71467">
        <ele>1275.988013</ele>
        <time>2021-11-16T21:37:30.712Z</time>
      </trkpt>
      <trkpt lat="39.21255" lon="30.71443">
        <ele>1274.195076</ele>
        <time>2021-11-16T21:37:43.760Z</time>
      </trkpt>
      <trkpt lat="39.21344" lon="30.71413">
        <ele>1272.046154</ele>
        <time>2021-11-16T21:37:59.448Z</time>
      </trkpt>
      <trkpt lat="39.21401" lon="30.71382">
        <ele>1270.791111</ele>
        <time>2021-11-16T21:38:10.152Z</time>
      </trkpt>
      <trkpt lat="39.21484" lon="30.71312">
        <ele>1268.787078</ele>
        <time>2021-11-16T21:38:27.676Z</time>
      </trkpt>
      <trkpt lat="39.21619" lon="30.71164">
        <ele>1266.093474</ele>
        <time>2021-11-16T21:39:00.346Z</time>
      </trkpt>
      <trkpt lat="39.21791" lon="30.71057">
        <ele>1263.203912</ele>
        <time>2021-11-16T21:39:35.524Z</time>
      </trkpt>
      <trkpt lat="39.21814" lon="30.71043">
        <ele>1262.760155</ele>
        <time>2021-11-16T21:39:40.020Z</time>
      </trkpt>
      <trkpt lat="39.21866" lon="30.7101">
        <ele>1261.679039</ele>
        <time>2021-11-16T21:39:50.194Z</time>
      </trkpt>
      <trkpt lat="39.21943" lon="30.70977">
        <ele>1260.169629</ele>
        <time>2021-11-16T21:40:04.456Z</time>
      </trkpt>
      <trkpt lat="39.21981" lon="30.70963">
        <ele>1259.522152</ele>
        <time>2021-11-16T21:40:11.440Z</time>
      </trkpt>
      <trkpt lat="39.22207" lon="30.70885">
        <ele>1256.196568</ele>
        <time>2021-11-16T21:40:55.386Z</time>
      </trkpt>
      <trkpt lat="39.22266" lon="30.70858">
        <ele>1255.23556</ele>
        <time>2021-11-16T21:41:07.084Z</time>
      </trkpt>
      <trkpt lat="39.22443" lon="30.70719">
        <ele>1251.278263</ele>
        <time>2021-11-16T21:41:43.345Z</time>
      </trkpt>
      <trkpt lat="39.22474" lon="30.70694">
        <ele>1250.544904</ele>
        <time>2021-11-16T21:41:49.663Z</time>
      </trkpt>
      <trkpt lat="39.2273" lon="30.70492">
        <ele>1244.666636</ele>
        <time>2021-11-16T21:42:42.668Z</time>
      </trkpt>
      <trkpt lat="39.22807" lon="30.70433">
        <ele>1243.176853</ele>
        <time>2021-11-16T21:42:58.685Z</time>
      </trkpt>
      <trkpt lat="39.22825" lon="30.70422">
        <ele>1242.885926</ele>
        <time>2021-11-16T21:43:02.239Z</time>
      </trkpt>
      <trkpt lat="39.22965" lon="30.70338">
        <ele>1241.177506</ele>
        <time>2021-11-16T21:43:31.168Z</time>
      </trkpt>
      <trkpt lat="39.22987" lon="30.70325">
        <ele>1241.119377</ele>
        <time>2021-11-16T21:43:36.347Z</time>
      </trkpt>
      <trkpt lat="39.23" lon="30.70324">
        <ele>1241.091011</ele>
        <time>2021-11-16T21:43:38.935Z</time>
      </trkpt>
      <trkpt lat="39.23015" lon="30.70326">
        <ele>1241.055838</ele>
        <time>2021-11-16T21:43:42.202Z</time>
      </trkpt>
      <trkpt lat="39.23028" lon="30.7033">
        <ele>1241.024659</ele>
        <time>2021-11-16T21:43:45.175Z</time>
      </trkpt>
      <trkpt lat="39.23038" lon="30.7033">
        <ele>1241.001834</ele>
        <time>2021-11-16T21:43:47.314Z</time>
      </trkpt>
      <trkpt lat="39.23049" lon="30.70326">
        <ele>1240.976697</ele>
        <time>2021-11-16T21:43:49.770Z</time>
      </trkpt>
      <trkpt lat="39.23072" lon="30.70312">
        <ele>1240.917609</ele>
        <time>2021-11-16T21:43:55.695Z</time>
      </trkpt>
      <trkpt lat="39.23093" lon="30.70307">
        <ele>1240.867666</ele>
        <time>2021-11-16T21:44:00.994Z</time>
      </trkpt>
      <trkpt lat="39.23125" lon="30.70312">
        <ele>1241.2963</ele>
        <time>2021-11-16T21:44:09.357Z</time>
      </trkpt>
      <trkpt lat="39.23153" lon="30.70313">
        <ele>1241.705536</ele>
        <time>2021-11-16T21:44:16.643Z</time>
      </trkpt>
      <trkpt lat="39.23158" lon="30.70304">
        <ele>1241.840483</ele>
        <time>2021-11-16T21:44:19.230Z</time>
      </trkpt>
      <trkpt lat="39.2318" lon="30.70289">
        <ele>1242.209029</ele>
        <time>2021-11-16T21:44:25.932Z</time>
      </trkpt>
      <trkpt lat="39.23209" lon="30.70279">
        <ele>1242.66768</ele>
        <time>2021-11-16T21:44:34.597Z</time>
      </trkpt>
      <trkpt lat="39.23229" lon="30.70207">
        <ele>1243.554759</ele>
        <time>2021-11-16T21:44:52.639Z</time>
      </trkpt>
      <trkpt lat="39.2324" lon="30.70186">
        <ele>1244.065148</ele>
        <time>2021-11-16T21:44:59.020Z</time>
      </trkpt>
      <trkpt lat="39.23388" lon="30.69997">
        <ele>1249.023197</ele>
        <time>2021-11-16T21:46:08.038Z</time>
      </trkpt>
      <trkpt lat="39.23543" lon="30.69786">
        <ele>1251.835234</ele>
        <time>2021-11-16T21:47:09.081Z</time>
      </trkpt>
      <trkpt lat="39.23603" lon="30.69675">
        <ele>1252.379012</ele>
        <time>2021-11-16T21:47:32.334Z</time>
      </trkpt>
      <trkpt lat="39.23773" lon="30.69396">
        <ele>1253.07394</ele>
        <time>2021-11-16T21:48:32.829Z</time>
      </trkpt>
      <trkpt lat="39.23868" lon="30.69249">
        <ele>1255.707339</ele>
        <time>2021-11-16T21:49:17.457Z</time>
      </trkpt>
      <trkpt lat="39.23922" lon="30.69178">
        <ele>1257.752366</ele>
        <time>2021-11-16T21:49:44.565Z</time>
      </trkpt>
      <trkpt lat="39.24207" lon="30.6903">
        <ele>1266.325604</ele>
        <time>2021-11-16T21:51:33.939Z</time>
      </trkpt>
      <trkpt lat="39.24504" lon="30.68886">
        <ele>1267.259283</ele>
        <time>2021-11-16T21:52:44.158Z</time>
      </trkpt>
      <trkpt lat="39.2455" lon="30.6886">
        <ele>1266.911963</ele>
        <time>2021-11-16T21:52:53.620Z</time>
      </trkpt>
      <trkpt lat="39.24646" lon="30.68782">
        <ele>1266.299975</ele>
        <time>2021-11-16T21:53:15.339Z</time>
      </trkpt>
      <trkpt lat="39.248" lon="30.68641">
        <ele>1266.447553</ele>
        <time>2021-11-16T21:53:56.761Z</time>
      </trkpt>
      <trkpt lat="39.24919" lon="30.68535">
        <ele>1268.150418</ele>
        <time>2021-11-16T21:54:37.265Z</time>
      </trkpt>
      <trkpt lat="39.25033" lon="30.68433">
        <ele>1271.11869</ele>
        <time>2021-11-16T21:55:20.990Z</time>
      </trkpt>
      <trkpt lat="39.251" lon="30.68391">
        <ele>1272.631681</ele>
        <time>2021-11-16T21:55:44.206Z</time>
      </trkpt>
      <trkpt lat="39.25531" lon="30.683">
        <ele>1281.677248</ele>
        <time>2021-11-16T21:57:55.393Z</time>
      </trkpt>
      <trkpt lat="39.25589" lon="30.68289">
        <ele>1283.070397</ele>
        <time>2021-11-16T21:58:15.000Z</time>
      </trkpt>
      <trkpt lat="39.26109" lon="30.68186">
        <ele>1300.206369</ele>
        <time>2021-11-16T22:01:20.518Z</time>
      </trkpt>
      <trkpt lat="39.26709" lon="30.6807">
        <ele>1323.568947</ele>
        <time>2021-11-16T22:05:15.132Z</time>
      </trkpt>
      <trkpt lat="39.2676" lon="30.68047">
        <ele>1324.677508</ele>
        <time>2021-11-16T22:05:30.653Z</time>
      </trkpt>
      <trkpt lat="39.26797" lon="30.67995">
        <ele>1325.814472</ele>
        <time>2021-11-16T22:05:44.671Z</time>
      </trkpt>
      <trkpt lat="39.26849" lon="30.67932">
        <ele>1325.385005</ele>
        <time>2021-11-16T22:05:59.625Z</time>
      </trkpt>
      <trkpt lat="39.2686" lon="30.67919">
        <ele>1325.242319</ele>
        <time>2021-11-16T22:06:02.496Z</time>
      </trkpt>
      <trkpt lat="39.26939" lon="30.67813">
        <ele>1324.028753</ele>
        <time>2021-11-16T22:06:23.448Z</time>
      </trkpt>
      <trkpt lat="39.27007" lon="30.67744">
        <ele>1322.260759</ele>
        <time>2021-11-16T22:06:38.744Z</time>
      </trkpt>
      <trkpt lat="39.27011" lon="30.67742">
        <ele>1322.176337</ele>
        <time>2021-11-16T22:06:39.409Z</time>
      </trkpt>
      <trkpt lat="39.27048" lon="30.67715">
        <ele>1321.315187</ele>
        <time>2021-11-16T22:06:46.640Z</time>
      </trkpt>
      <trkpt lat="39.27102" lon="30.67708">
        <ele>1320.234461</ele>
        <time>2021-11-16T22:06:56.016Z</time>
      </trkpt>
      <trkpt lat="39.27157" lon="30.677">
        <ele>1319.198078</ele>
        <time>2021-11-16T22:07:05.431Z</time>
      </trkpt>
      <trkpt lat="39.27166" lon="30.67699">
        <ele>1319.020871</ele>
        <time>2021-11-16T22:07:07.019Z</time>
      </trkpt>
      <trkpt lat="39.27312" lon="30.67667">
        <ele>1316.917732</ele>
        <time>2021-11-16T22:07:34.303Z</time>
      </trkpt>
      <trkpt lat="39.27379" lon="30.67657">
        <ele>1316.526288</ele>
        <time>2021-11-16T22:07:48.588Z</time>
      </trkpt>
      <trkpt lat="39.27429" lon="30.67667">
        <ele>1316.230628</ele>
        <time>2021-11-16T22:07:59.872Z</time>
      </trkpt>
      <trkpt lat="39.27471" lon="30.67684">
        <ele>1315.9697</ele>
        <time>2021-11-16T22:08:09.325Z</time>
      </trkpt>
      <trkpt lat="39.27499" lon="30.6768">
        <ele>1315.800891</ele>
        <time>2021-11-16T22:08:15.354Z</time>
      </trkpt>
      <trkpt lat="39.27522" lon="30.67681">
        <ele>1315.661348</ele>
        <time>2021-11-16T22:08:20.252Z</time>
      </trkpt>
      <trkpt lat="39.27556" lon="30.6768">
        <ele>1315.453509</ele>
        <time>2021-11-16T22:08:27.259Z</time>
      </trkpt>
      <trkpt lat="39.27558" lon="30.67679">
        <ele>1315.438648</ele>
        <time>2021-11-16T22:08:27.764Z</time>
      </trkpt>
      <trkpt lat="39.2758" lon="30.67673">
        <ele>1315.303125</ele>
        <time>2021-11-16T22:08:32.141Z</time>
      </trkpt>
      <trkpt lat="39.27639" lon="30.67662">
        <ele>1314.593206</ele>
        <time>2021-11-16T22:08:43.416Z</time>
      </trkpt>
      <trkpt lat="39.27651" lon="30.67659">
        <ele>1314.333871</ele>
        <time>2021-11-16T22:08:45.668Z</time>
      </trkpt>
      <trkpt lat="39.27735" lon="30.67579">
        <ele>1312.131387</ele>
        <time>2021-11-16T22:09:03.670Z</time>
      </trkpt>
      <trkpt lat="39.27797" lon="30.67529">
        <ele>1310.588138</ele>
        <time>2021-11-16T22:09:15.813Z</time>
      </trkpt>
      <trkpt lat="39.27868" lon="30.67483">
        <ele>1308.865717</ele>
        <time>2021-11-16T22:09:29.385Z</time>
      </trkpt>
      <trkpt lat="39.27905" lon="30.67462">
        <ele>1307.987703</ele>
        <time>2021-11-16T22:09:36.577Z</time>
      </trkpt>
      <trkpt lat="39.27922" lon="30.67448">
        <ele>1307.567673</ele>
        <time>2021-11-16T22:09:40.155Z</time>
      </trkpt>
      <trkpt lat="39.27942" lon="30.67436">
        <ele>1307.34964</ele>
        <time>2021-11-16T22:09:44.344Z</time>
      </trkpt>
      <trkpt lat="39.27967" lon="30.67427">
        <ele>1307.241254</ele>
        <time>2021-11-16T22:09:49.237Z</time>
      </trkpt>
      <trkpt lat="39.28041" lon="30.67413">
        <ele>1306.925224</ele>
        <time>2021-11-16T22:10:04.912Z</time>
      </trkpt>
      <trkpt lat="39.28104" lon="30.67409">
        <ele>1306.657826</ele>
        <time>2021-11-16T22:10:19.949Z</time>
      </trkpt>
      <trkpt lat="39.28251" lon="30.67361">
        <ele>1306.37945</ele>
        <time>2021-11-16T22:10:54.137Z</time>
      </trkpt>
      <trkpt lat="39.28282" lon="30.67356">
        <ele>1306.262822</ele>
        <time>2021-11-16T22:11:00.259Z</time>
      </trkpt>
      <trkpt lat="39.28312" lon="30.67351">
        <ele>1305.58026</ele>
        <time>2021-11-16T22:11:05.739Z</time>
      </trkpt>
      <trkpt lat="39.2836" lon="30.67366">
        <ele>1304.42811</ele>
        <time>2021-11-16T22:11:14.681Z</time>
      </trkpt>
      <trkpt lat="39.28434" lon="30.67413">
        <ele>1302.530087</ele>
        <time>2021-11-16T22:11:28.277Z</time>
      </trkpt>
      <trkpt lat="39.28491" lon="30.67443">
        <ele>1300.287115</ele>
        <time>2021-11-16T22:11:38.050Z</time>
      </trkpt>
      <trkpt lat="39.28539" lon="30.67461">
        <ele>1298.215544</ele>
        <time>2021-11-16T22:11:45.914Z</time>
      </trkpt>
      <trkpt lat="39.28606" lon="30.67463">
        <ele>1295.473287</ele>
        <time>2021-11-16T22:11:56.213Z</time>
      </trkpt>
      <trkpt lat="39.28706" lon="30.67453">
        <ele>1291.591876</ele>
        <time>2021-11-16T22:12:11.770Z</time>
      </trkpt>
      <trkpt lat="39.29049" lon="30.67436">
        <ele>1280.276145</ele>
        <time>2021-11-16T22:13:07.447Z</time>
      </trkpt>
      <trkpt lat="39.2952" lon="30.67459">
        <ele>1268.255042</ele>
        <time>2021-11-16T22:14:27.699Z</time>
      </trkpt>
      <trkpt lat="39.29582" lon="30.67434">
        <ele>1266.405608</ele>
        <time>2021-11-16T22:14:38.594Z</time>
      </trkpt>
      <trkpt lat="39.2964" lon="30.67421">
        <ele>1264.704758</ele>
        <time>2021-11-16T22:14:48.492Z</time>
      </trkpt>
      <trkpt lat="39.29692" lon="30.67433">
        <ele>1263.201449</ele>
        <time>2021-11-16T22:14:57.117Z</time>
      </trkpt>
      <trkpt lat="39.29886" lon="30.67481">
        <ele>1256.883999</ele>
        <time>2021-11-16T22:15:29.078Z</time>
      </trkpt>
      <trkpt lat="39.30016" lon="30.6751">
        <ele>1253.789676</ele>
        <time>2021-11-16T22:15:51.358Z</time>
      </trkpt>
      <trkpt lat="39.30022" lon="30.67511">
        <ele>1253.64648</ele>
        <time>2021-11-16T22:15:52.434Z</time>
      </trkpt>
      <trkpt lat="39.30152" lon="30.6754">
        <ele>1252.560786</ele>
        <time>2021-11-16T22:16:17.379Z</time>
      </trkpt>
      <trkpt lat="39.30477" lon="30.6761">
        <ele>1255.955341</ele>
        <time>2021-11-16T22:17:41.962Z</time>
      </trkpt>
      <trkpt lat="39.30492" lon="30.6761">
        <ele>1256.403837</ele>
        <time>2021-11-16T22:17:47.165Z</time>
      </trkpt>
      <trkpt lat="39.3053" lon="30.67608">
        <ele>1257.534085</ele>
        <time>2021-11-16T22:18:01.096Z</time>
      </trkpt>
      <trkpt lat="39.30564" lon="30.6759">
        <ele>1258.607893</ele>
        <time>2021-11-16T22:18:15.707Z</time>
      </trkpt>
      <trkpt lat="39.30606" lon="30.6756">
        <ele>1261.426285</ele>
        <time>2021-11-16T22:18:36.987Z</time>
      </trkpt>
      <trkpt lat="39.30659" lon="30.67521">
        <ele>1265.936379</ele>
        <time>2021-11-16T22:19:07.391Z</time>
      </trkpt>
      <trkpt lat="39.30798" lon="30.67456">
        <ele>1277.754026</ele>
        <time>2021-11-16T22:20:32.270Z</time>
      </trkpt>
      <trkpt lat="39.30903" lon="30.67429">
        <ele>1287.304665</ele>
        <time>2021-11-16T22:21:35.277Z</time>
      </trkpt>
      <trkpt lat="39.30967" lon="30.67387">
        <ele>1293.117491</ele>
        <time>2021-11-16T22:22:15.703Z</time>
      </trkpt>
      <trkpt lat="39.31041" lon="30.67351">
        <ele>1299.444729</ele>
        <time>2021-11-16T22:22:58.672Z</time>
      </trkpt>
      <trkpt lat="39.31233" lon="30.67269">
        <ele>1313.757619</ele>
        <time>2021-11-16T22:24:40.808Z</time>
      </trkpt>
      <trkpt lat="39.3129" lon="30.67254">
        <ele>1316.541995</ele>
        <time>2021-11-16T22:25:07.560Z</time>
      </trkpt>
      <trkpt lat="39.3137" lon="30.67247">
        <ele>1319.607182</ele>
        <time>2021-11-16T22:25:40.241Z</time>
      </trkpt>
      <trkpt lat="39.3138" lon="30.67247">
        <ele>1319.972881</ele>
        <time>2021-11-16T22:25:44.575Z</time>
      </trkpt>
      <trkpt lat="39.31523" lon="30.67245">
        <ele>1320.223018</ele>
        <time>2021-11-16T22:26:18.936Z</time>
      </trkpt>
      <trkpt lat="39.31589" lon="30.67244">
        <ele>1319.002561</ele>
        <time>2021-11-16T22:26:29.655Z</time>
      </trkpt>
      <trkpt lat="39.31825" lon="30.67274">
        <ele>1305.775473</ele>
        <time>2021-11-16T22:27:04.504Z</time>
      </trkpt>
      <trkpt lat="39.32113" lon="30.67299">
        <ele>1286.507934</ele>
        <time>2021-11-16T22:27:45.896Z</time>
      </trkpt>
      <trkpt lat="39.32383" lon="30.67246">
        <ele>1270.969934</ele>
        <time>2021-11-16T22:28:25.612Z</time>
      </trkpt>
      <trkpt lat="39.32439" lon="30.67235">
        <ele>1269.044249</ele>
        <time>2021-11-16T22:28:34.977Z</time>
      </trkpt>
      <trkpt lat="39.3257" lon="30.67212">
        <ele>1266.678774</ele>
        <time>2021-11-16T22:29:00.791Z</time>
      </trkpt>
      <trkpt lat="39.32843" lon="30.67237">
        <ele>1265.813693</ele>
        <time>2021-11-16T22:30:02.897Z</time>
      </trkpt>
      <trkpt lat="39.32921" lon="30.67233">
        <ele>1263.422075</ele>
        <time>2021-11-16T22:30:16.483Z</time>
      </trkpt>
      <trkpt lat="39.33273" lon="30.67136">
        <ele>1246.178764</ele>
        <time>2021-11-16T22:31:10.684Z</time>
      </trkpt>
      <trkpt lat="39.33412" lon="30.67116">
        <ele>1238.177867</ele>
        <time>2021-11-16T22:31:31.119Z</time>
      </trkpt>
      <trkpt lat="39.33495" lon="30.67138">
        <ele>1233.345052</ele>
        <time>2021-11-16T22:31:43.592Z</time>
      </trkpt>
      <trkpt lat="39.3355" lon="30.67162">
        <ele>1230.05693</ele>
        <time>2021-11-16T22:31:52.240Z</time>
      </trkpt>
      <trkpt lat="39.33606" lon="30.67197">
        <ele>1227.588039</ele>
        <time>2021-11-16T22:32:01.570Z</time>
      </trkpt>
      <trkpt lat="39.33791" lon="30.67228">
        <ele>1222.577811</ele>
        <time>2021-11-16T22:32:32.828Z</time>
      </trkpt>
      <trkpt lat="39.33906" lon="30.67252">
        <ele>1221.556178</ele>
        <time>2021-11-16T22:32:57.651Z</time>
      </trkpt>
      <trkpt lat="39.33913" lon="30.67253">
        <ele>1221.49287</ele>
        <time>2021-11-16T22:32:59.510Z</time>
      </trkpt>
      <trkpt lat="39.34064" lon="30.67284">
        <ele>1221.749301</ele>
        <time>2021-11-16T22:33:37.139Z</time>
      </trkpt>
      <trkpt lat="39.34252" lon="30.67325">
        <ele>1219.870136</ele>
        <time>2021-11-16T22:34:14.806Z</time>
      </trkpt>
      <trkpt lat="39.34736" lon="30.67436">
        <ele>1203.461542</ele>
        <time>2021-11-16T22:35:34.066Z</time>
      </trkpt>
      <trkpt lat="39.34795" lon="30.67452">
        <ele>1201.252776</ele>
        <time>2021-11-16T22:35:43.536Z</time>
      </trkpt>
      <trkpt lat="39.34966" lon="30.67497">
        <ele>1194.451202</ele>
        <time>2021-11-16T22:36:10.750Z</time>
      </trkpt>
      <trkpt lat="39.35089" lon="30.67529">
        <ele>1190.439323</ele>
        <time>2021-11-16T22:36:30.982Z</time>
      </trkpt>
      <trkpt lat="39.35224" lon="30.67561">
        <ele>1187.151844</ele>
        <time>2021-11-16T22:36:54.451Z</time>
      </trkpt>
      <trkpt lat="39.35369" lon="30.67589">
        <ele>1184.63381</ele>
        <time>2021-11-16T22:37:21.958Z</time>
      </trkpt>
      <trkpt lat="39.3547" lon="30.67621">
        <ele>1182.86686</ele>
        <time>2021-11-16T22:37:40.955Z</time>
      </trkpt>
      <trkpt lat="39.35715" lon="30.67699">
        <ele>1177.143223</ele>
        <time>2021-11-16T22:38:24.056Z</time>
      </trkpt>
      <trkpt lat="39.35874" lon="30.67749">
        <ele>1173.036492</ele>
        <time>2021-11-16T22:38:51.773Z</time>
      </trkpt>
      <trkpt lat="39.35904" lon="30.67756">
        <ele>1172.257355</ele>
        <time>2021-11-16T22:38:57.007Z</time>
      </trkpt>
      <trkpt lat="39.35978" lon="30.67766">
        <ele>1170.392516</ele>
        <time>2021-11-16T22:39:09.511Z</time>
      </trkpt>
      <trkpt lat="39.3635" lon="30.67817">
        <ele>1160.535336</ele>
        <time>2021-11-16T22:40:12.973Z</time>
      </trkpt>
      <trkpt lat="39.36459" lon="30.67834">
        <ele>1156.520475</ele>
        <time>2021-11-16T22:40:30.689Z</time>
      </trkpt>
      <trkpt lat="39.36755" lon="30.6788">
        <ele>1143.417626</ele>
        <time>2021-11-16T22:41:16.087Z</time>
      </trkpt>
      <trkpt lat="39.36839" lon="30.67894">
        <ele>1142.143743</ele>
        <time>2021-11-16T22:41:29.971Z</time>
      </trkpt>
      <trkpt lat="39.36957" lon="30.67908">
        <ele>1141.914975</ele>
        <time>2021-11-16T22:41:55.976Z</time>
      </trkpt>
      <trkpt lat="39.37648" lon="30.67995">
        <ele>1172.267299</ele>
        <time>2021-11-16T22:46:41.320Z</time>
      </trkpt>
      <trkpt lat="39.37752" lon="30.6805">
        <ele>1173.118934</ele>
        <time>2021-11-16T22:47:15.422Z</time>
      </trkpt>
      <trkpt lat="39.37785" lon="30.68082">
        <ele>1173.426053</ele>
        <time>2021-11-16T22:47:23.374Z</time>
      </trkpt>
      <trkpt lat="39.37828" lon="30.68092">
        <ele>1172.593834</ele>
        <time>2021-11-16T22:47:30.690Z</time>
      </trkpt>
      <trkpt lat="39.37882" lon="30.68083">
        <ele>1169.530324</ele>
        <time>2021-11-16T22:47:39.151Z</time>
      </trkpt>
      <trkpt lat="39.38056" lon="30.6803">
        <ele>1158.550924</ele>
        <time>2021-11-16T22:48:04.639Z</time>
      </trkpt>
      <trkpt lat="39.38088" lon="30.68033">
        <ele>1156.364004</ele>
        <time>2021-11-16T22:48:09.123Z</time>
      </trkpt>
      <trkpt lat="39.38229" lon="30.68096">
        <ele>1146.438939</ele>
        <time>2021-11-16T22:48:30.769Z</time>
      </trkpt>
      <trkpt lat="39.38253" lon="30.68096">
        <ele>1144.920814</ele>
        <time>2021-11-16T22:48:34.307Z</time>
      </trkpt>
      <trkpt lat="39.38299" lon="30.68079">
        <ele>1141.876431</ele>
        <time>2021-11-16T22:48:41.270Z</time>
      </trkpt>
      <trkpt lat="39.3834" lon="30.68056">
        <ele>1139.236127</ele>
        <time>2021-11-16T22:48:47.729Z</time>
      </trkpt>
      <trkpt lat="39.38388" lon="30.68058">
        <ele>1136.796375</ele>
        <time>2021-11-16T22:48:54.939Z</time>
      </trkpt>
      <trkpt lat="39.38398" lon="30.68062">
        <ele>1136.24275</ele>
        <time>2021-11-16T22:48:56.521Z</time>
      </trkpt>
      <trkpt lat="39.38423" lon="30.68075">
        <ele>1134.875063</ele>
        <time>2021-11-16T22:49:00.689Z</time>
      </trkpt>
      <trkpt lat="39.38497" lon="30.68122">
        <ele>1130.683687</ele>
        <time>2021-11-16T22:49:13.219Z</time>
      </trkpt>
      <trkpt lat="39.38544" lon="30.68142">
        <ele>1128.371397</ele>
        <time>2021-11-16T22:49:20.801Z</time>
      </trkpt>
      <trkpt lat="39.38596" lon="30.68136">
        <ele>1125.972134</ele>
        <time>2021-11-16T22:49:28.940Z</time>
      </trkpt>
      <trkpt lat="39.38694" lon="30.68075">
        <ele>1120.758083</ele>
        <time>2021-11-16T22:49:45.456Z</time>
      </trkpt>
      <trkpt lat="39.38787" lon="30.68062">
        <ele>1115.792238</ele>
        <time>2021-11-16T22:49:59.322Z</time>
      </trkpt>
      <trkpt lat="39.38925" lon="30.68048">
        <ele>1109.752442</ele>
        <time>2021-11-16T22:50:20.188Z</time>
      </trkpt>
      <trkpt lat="39.39179" lon="30.68022">
        <ele>1102.222656</ele>
        <time>2021-11-16T22:51:03.084Z</time>
      </trkpt>
      <trkpt lat="39.39188" lon="30.68021">
        <ele>1102.003241</ele>
        <time>2021-11-16T22:51:04.648Z</time>
      </trkpt>
      <trkpt lat="39.39575" lon="30.67981">
        <ele>1096.218805</ele>
        <time>2021-11-16T22:52:15.636Z</time>
      </trkpt>
      <trkpt lat="39.39691" lon="30.67969">
        <ele>1095.813338</ele>
        <time>2021-11-16T22:52:41.934Z</time>
      </trkpt>
      <trkpt lat="39.39693" lon="30.67969">
        <ele>1095.804952</ele>
        <time>2021-11-16T22:52:42.674Z</time>
      </trkpt>
      <trkpt lat="39.39763" lon="30.67952">
        <ele>1095.03777</ele>
        <time>2021-11-16T22:52:58.067Z</time>
      </trkpt>
      <trkpt lat="39.39808" lon="30.67935">
        <ele>1093.843115</ele>
        <time>2021-11-16T22:53:06.543Z</time>
      </trkpt>
      <trkpt lat="39.39853" lon="30.67908">
        <ele>1092.542944</ele>
        <time>2021-11-16T22:53:14.940Z</time>
      </trkpt>
      <trkpt lat="39.39871" lon="30.67897">
        <ele>1092.05128</ele>
        <time>2021-11-16T22:53:17.991Z</time>
      </trkpt>
      <trkpt lat="39.39887" lon="30.67887">
        <ele>1091.587128</ele>
        <time>2021-11-16T22:53:20.821Z</time>
      </trkpt>
      <trkpt lat="39.39947" lon="30.6785">
        <ele>1088.6272</ele>
        <time>2021-11-16T22:53:30.961Z</time>
      </trkpt>
      <trkpt lat="39.40125" lon="30.67737">
        <ele>1077.794123</ele>
        <time>2021-11-16T22:54:00.163Z</time>
      </trkpt>
      <trkpt lat="39.40182" lon="30.67701">
        <ele>1074.198082</ele>
        <time>2021-11-16T22:54:09.653Z</time>
      </trkpt>
      <trkpt lat="39.40288" lon="30.67633">
        <ele>1067.99947</ele>
        <time>2021-11-16T22:54:27.154Z</time>
      </trkpt>
      <trkpt lat="39.40352" lon="30.67592">
        <ele>1064.404311</ele>
        <time>2021-11-16T22:54:37.961Z</time>
      </trkpt>
      <trkpt lat="39.40445" lon="30.67533">
        <ele>1060.020565</ele>
        <time>2021-11-16T22:54:54.067Z</time>
      </trkpt>
      <trkpt lat="39.4049" lon="30.67505">
        <ele>1058.189095</ele>
        <time>2021-11-16T22:55:02.083Z</time>
      </trkpt>
      <trkpt lat="39.40651" lon="30.67459">
        <ele>1052.263896</ele>
        <time>2021-11-16T22:55:29.002Z</time>
      </trkpt>
      <trkpt lat="39.40753" lon="30.67344">
        <ele>1047.408455</ele>
        <time>2021-11-16T22:55:50.373Z</time>
      </trkpt>
      <trkpt lat="39.40774" lon="30.67312">
        <ele>1046.185586</ele>
        <time>2021-11-16T22:55:55.507Z</time>
      </trkpt>
      <trkpt lat="39.40798" lon="30.67237">
        <ele>1043.8426</ele>
        <time>2021-11-16T22:56:05.394Z</time>
      </trkpt>
      <trkpt lat="39.40848" lon="30.669">
        <ele>1034.515208</ele>
        <time>2021-11-16T22:56:48.116Z</time>
      </trkpt>
      <trkpt lat="39.4088" lon="30.66756">
        <ele>1030.390264</ele>
        <time>2021-11-16T22:57:06.443Z</time>
      </trkpt>
      <trkpt lat="39.40891" lon="30.66706">
        <ele>1028.970556</ele>
        <time>2021-11-16T22:57:12.898Z</time>
      </trkpt>
      <trkpt lat="39.40901" lon="30.66673">
        <ele>1027.989889</ele>
        <time>2021-11-16T22:57:17.337Z</time>
      </trkpt>
      <trkpt lat="39.40914" lon="30.66637">
        <ele>1026.911223</ele>
        <time>2021-11-16T22:57:22.244Z</time>
      </trkpt>
      <trkpt lat="39.4092" lon="30.66632">
        <ele>1026.671849</ele>
        <time>2021-11-16T22:57:23.265Z</time>
      </trkpt>
      <trkpt lat="39.40953" lon="30.66615">
        <ele>1025.399557</ele>
        <time>2021-11-16T22:57:28.997Z</time>
      </trkpt>
      <trkpt lat="39.40963" lon="30.66611">
        <ele>1025.017422</ele>
        <time>2021-11-16T22:57:30.715Z</time>
      </trkpt>
      <trkpt lat="39.40982" lon="30.66604">
        <ele>1024.347345</ele>
        <time>2021-11-16T22:57:33.805Z</time>
      </trkpt>
      <trkpt lat="39.41009" lon="30.66603">
        <ele>1023.379177</ele>
        <time>2021-11-16T22:57:38.228Z</time>
      </trkpt>
      <trkpt lat="39.41385" lon="30.66602">
        <ele>1010.207116</ele>
        <time>2021-11-16T22:58:38.846Z</time>
      </trkpt>
      <trkpt lat="39.42009" lon="30.66581">
        <ele>983.716529</ele>
        <time>2021-11-16T23:00:15.472Z</time>
      </trkpt>
      <trkpt lat="39.42023" lon="30.66581">
        <ele>983.164363</ele>
        <time>2021-11-16T23:00:17.504Z</time>
      </trkpt>
      <trkpt lat="39.42216" lon="30.66578">
        <ele>976.208582</ele>
        <time>2021-11-16T23:00:48.395Z</time>
      </trkpt>
      <trkpt lat="39.42344" lon="30.66576">
        <ele>972.490083</ele>
        <time>2021-11-16T23:01:09.829Z</time>
      </trkpt>
      <trkpt lat="39.4278" lon="30.66578">
        <ele>961.887832</ele>
        <time>2021-11-16T23:02:23.602Z</time>
      </trkpt>
      <trkpt lat="39.43012" lon="30.66963">
        <ele>960.124927</ele>
        <time>2021-11-16T23:03:43.073Z</time>
      </trkpt>
      <trkpt lat="39.43174" lon="30.67233">
        <ele>960.575276</ele>
        <time>2021-11-16T23:04:43.683Z</time>
      </trkpt>
      <trkpt lat="39.43371" lon="30.67584">
        <ele>962.145535</ele>
        <time>2021-11-16T23:06:03.251Z</time>
      </trkpt>
      <trkpt lat="39.43469" lon="30.67741">
        <ele>963.872968</ele>
        <time>2021-11-16T23:06:47.164Z</time>
      </trkpt>
      <trkpt lat="39.43556" lon="30.67877">
        <ele>965.384297</ele>
        <time>2021-11-16T23:07:24.449Z</time>
      </trkpt>
      <trkpt lat="39.43727" lon="30.68146">
        <ele>965.601594</ele>
        <time>2021-11-16T23:08:22.681Z</time>
      </trkpt>
      <trkpt lat="39.43899" lon="30.68403">
        <ele>966.692192</ele>
        <time>2021-11-16T23:09:25.977Z</time>
      </trkpt>
      <trkpt lat="39.43934" lon="30.68456">
        <ele>967.171401</ele>
        <time>2021-11-16T23:09:39.374Z</time>
      </trkpt>
      <trkpt lat="39.43935" lon="30.68457">
        <ele>967.187866</ele>
        <time>2021-11-16T23:09:39.931Z</time>
      </trkpt>
      <trkpt lat="39.44037" lon="30.68586">
        <ele>968.760249</ele>
        <time>2021-11-16T23:10:18.528Z</time>
      </trkpt>
      <trkpt lat="39.4404" lon="30.6859">
        <ele>968.813196</ele>
        <time>2021-11-16T23:10:19.933Z</time>
      </trkpt>
      <trkpt lat="39.44106" lon="30.68668">
        <ele>970.128343</ele>
        <time>2021-11-16T23:10:44.583Z</time>
      </trkpt>
      <trkpt lat="39.44221" lon="30.68803">
        <ele>973.114057</ele>
        <time>2021-11-16T23:11:28.949Z</time>
      </trkpt>
      <trkpt lat="39.44258" lon="30.68853">
        <ele>974.445956</ele>
        <time>2021-11-16T23:11:46.048Z</time>
      </trkpt>
      <trkpt lat="39.44324" lon="30.68933">
        <ele>976.636815</ele>
        <time>2021-11-16T23:12:18.860Z</time>
      </trkpt>
      <trkpt lat="39.44335" lon="30.68946">
        <ele>976.965804</ele>
        <time>2021-11-16T23:12:24.630Z</time>
      </trkpt>
      <trkpt lat="39.44355" lon="30.68983">
        <ele>977.741236</ele>
        <time>2021-11-16T23:12:36.989Z</time>
      </trkpt>
      <trkpt lat="39.44365" lon="30.69">
        <ele>978.11059</ele>
        <time>2021-11-16T23:12:42.591Z</time>
      </trkpt>
      <trkpt lat="39.4437" lon="30.69008">
        <ele>978.281722</ele>
        <time>2021-11-16T23:12:44.619Z</time>
      </trkpt>
      <trkpt lat="39.44381" lon="30.69037">
        <ele>978.831688</ele>
        <time>2021-11-16T23:12:52.187Z</time>
      </trkpt>
      <trkpt lat="39.44423" lon="30.69121">
        <ele>979.478204</ele>
        <time>2021-11-16T23:13:12.238Z</time>
      </trkpt>
      <trkpt lat="39.44426" lon="30.69126">
        <ele>979.389112</ele>
        <time>2021-11-16T23:13:13.025Z</time>
      </trkpt>
      <trkpt lat="39.44443" lon="30.6915">
        <ele>978.920105</ele>
        <time>2021-11-16T23:13:18.165Z</time>
      </trkpt>
      <trkpt lat="39.44459" lon="30.69172">
        <ele>978.479293</ele>
        <time>2021-11-16T23:13:22.237Z</time>
      </trkpt>
      <trkpt lat="39.44488" lon="30.69184">
        <ele>977.896022</ele>
        <time>2021-11-16T23:13:27.461Z</time>
      </trkpt>
      <trkpt lat="39.4451" lon="30.69203">
        <ele>977.402321</ele>
        <time>2021-11-16T23:13:31.947Z</time>
      </trkpt>
      <trkpt lat="39.44517" lon="30.69214">
        <ele>977.187675</ele>
        <time>2021-11-16T23:13:33.668Z</time>
      </trkpt>
      <trkpt lat="39.4452" lon="30.6922">
        <ele>977.088443</ele>
        <time>2021-11-16T23:13:34.608Z</time>
      </trkpt>
      <trkpt lat="39.44531" lon="30.69266">
        <ele>976.248336</ele>
        <time>2021-11-16T23:13:40.431Z</time>
      </trkpt>
      <trkpt lat="39.44553" lon="30.69259">
        <ele>975.485162</ele>
        <time>2021-11-16T23:13:44.138Z</time>
      </trkpt>
      <trkpt lat="39.44578" lon="30.69249">
        <ele>974.62467</ele>
        <time>2021-11-16T23:13:48.455Z</time>
      </trkpt>
      <trkpt lat="39.44651" lon="30.69185">
        <ele>971.675808</ele>
        <time>2021-11-16T23:14:03.525Z</time>
      </trkpt>
      <trkpt lat="39.44695" lon="30.69146">
        <ele>969.978206</ele>
        <time>2021-11-16T23:14:12.680Z</time>
      </trkpt>
      <trkpt lat="39.44684" lon="30.6913">
        <ele>969.49458</ele>
        <time>2021-11-16T23:14:15.638Z</time>
      </trkpt>
      <trkpt lat="39.44677" lon="30.69121">
        <ele>969.22748</ele>
        <time>2021-11-16T23:14:17.153Z</time>
      </trkpt>
      <trkpt lat="39.44703" lon="30.69108">
        <ele>968.421319</ele>
        <time>2021-11-16T23:14:21.989Z</time>
      </trkpt>
      <trkpt lat="39.44746" lon="30.69086">
        <ele>967.079014</ele>
        <time>2021-11-16T23:14:29.887Z</time>
      </trkpt>
      <trkpt lat="39.448" lon="30.69044">
        <ele>965.268401</ele>
        <time>2021-11-16T23:14:41.237Z</time>
      </trkpt>
      <trkpt lat="39.44807" lon="30.6904">
        <ele>965.085059</ele>
        <time>2021-11-16T23:14:42.510Z</time>
      </trkpt>
      <trkpt lat="39.44815" lon="30.69035">
        <ele>964.867106</ele>
        <time>2021-11-16T23:14:44.091Z</time>
      </trkpt>
      <trkpt lat="39.44831" lon="30.69021">
        <ele>964.411927</ele>
        <time>2021-11-16T23:14:47.618Z</time>
      </trkpt>
      <trkpt lat="39.4484" lon="30.6901">
        <ele>964.125971</ele>
        <time>2021-11-16T23:14:49.619Z</time>
      </trkpt>
      <trkpt lat="39.44882" lon="30.69055">
        <ele>962.8166</ele>
        <time>2021-11-16T23:14:59.547Z</time>
      </trkpt>
      <trkpt lat="39.44915" lon="30.69009">
        <ele>961.658822</ele>
        <time>2021-11-16T23:15:07.677Z</time>
      </trkpt>
      <trkpt lat="39.44925" lon="30.68994">
        <ele>961.288349</ele>
        <time>2021-11-16T23:15:10.267Z</time>
      </trkpt>
      <trkpt lat="39.44942" lon="30.68965">
        <ele>960.66819</ele>
        <time>2021-11-16T23:15:15.213Z</time>
      </trkpt>
      <trkpt lat="39.44987" lon="30.68884">
        <ele>959.099873</ele>
        <time>2021-11-16T23:15:28.617Z</time>
      </trkpt>
      <trkpt lat="39.45038" lon="30.68798">
        <ele>957.394544</ele>
        <time>2021-11-16T23:15:43.303Z</time>
      </trkpt>
      <trkpt lat="39.45049" lon="30.68787">
        <ele>957.193706</ele>
        <time>2021-11-16T23:15:45.881Z</time>
      </trkpt>
      <trkpt lat="39.45145" lon="30.68629">
        <ele>955.160383</ele>
        <time>2021-11-16T23:16:14.915Z</time>
      </trkpt>
      <trkpt lat="39.45246" lon="30.6849">
        <ele>954.03652</ele>
        <time>2021-11-16T23:16:44.204Z</time>
      </trkpt>
      <trkpt lat="39.45328" lon="30.684">
        <ele>953.617885</ele>
        <time>2021-11-16T23:17:06.286Z</time>
      </trkpt>
      <trkpt lat="39.45632" lon="30.68109">
        <ele>954.379475</ele>
        <time>2021-11-16T23:18:31.109Z</time>
      </trkpt>
      <trkpt lat="39.45758" lon="30.67993">
        <ele>956.221463</ele>
        <time>2021-11-16T23:19:17.633Z</time>
      </trkpt>
      <trkpt lat="39.46604" lon="30.67197">
        <ele>970.080924</ele>
        <time>2021-11-16T23:24:05.929Z</time>
      </trkpt>
      <trkpt lat="39.47095" lon="30.66743">
        <ele>970.658983</ele>
        <time>2021-11-16T23:26:21.276Z</time>
      </trkpt>
      <trkpt lat="39.47175" lon="30.66677">
        <ele>970.553771</ele>
        <time>2021-11-16T23:26:41.170Z</time>
      </trkpt>
      <trkpt lat="39.4726" lon="30.66613">
        <ele>970.99231</ele>
        <time>2021-11-16T23:27:02.819Z</time>
      </trkpt>
      <trkpt lat="39.47473" lon="30.66475">
        <ele>973.673864</ele>
        <time>2021-11-16T23:28:07.074Z</time>
      </trkpt>
      <trkpt lat="39.48409" lon="30.65891">
        <ele>1002.294971</ele>
        <time>2021-11-16T23:33:50.888Z</time>
      </trkpt>
      <trkpt lat="39.48526" lon="30.65837">
        <ele>1007.183179</ele>
        <time>2021-11-16T23:34:42.529Z</time>
      </trkpt>
      <trkpt lat="39.4863" lon="30.65802">
        <ele>1011.913624</ele>
        <time>2021-11-16T23:35:27.251Z</time>
      </trkpt>
      <trkpt lat="39.48764" lon="30.65772">
        <ele>1014.018209</ele>
        <time>2021-11-16T23:36:10.009Z</time>
      </trkpt>
      <trkpt lat="39.48905" lon="30.65753">
        <ele>1012.83085</ele>
        <time>2021-11-16T23:36:35.811Z</time>
      </trkpt>
      <trkpt lat="39.49022" lon="30.65753">
        <ele>1010.454635</ele>
        <time>2021-11-16T23:36:54.973Z</time>
      </trkpt>
      <trkpt lat="39.4916" lon="30.65774">
        <ele>1008.465119</ele>
        <time>2021-11-16T23:37:20.097Z</time>
      </trkpt>
      <trkpt lat="39.49479" lon="30.65864">
        <ele>1012.78445</ele>
        <time>2021-11-16T23:38:51.736Z</time>
      </trkpt>
      <trkpt lat="39.496" lon="30.65888">
        <ele>1015.758022</ele>
        <time>2021-11-16T23:39:32.068Z</time>
      </trkpt>
      <trkpt lat="39.49693" lon="30.65899">
        <ele>1018.39347</ele>
        <time>2021-11-16T23:40:04.253Z</time>
      </trkpt>
      <trkpt lat="39.49831" lon="30.65899">
        <ele>1022.208486</ele>
        <time>2021-11-16T23:40:50.826Z</time>
      </trkpt>
      <trkpt lat="39.49964" lon="30.65878">
        <ele>1025.611407</ele>
        <time>2021-11-16T23:41:33.613Z</time>
      </trkpt>
      <trkpt lat="39.50099" lon="30.65838">
        <ele>1028.973901</ele>
        <time>2021-11-16T23:42:16.937Z</time>
      </trkpt>
      <trkpt lat="39.50277" lon="30.65759">
        <ele>1033.9216</ele>
        <time>2021-11-16T23:43:18.999Z</time>
      </trkpt>
      <trkpt lat="39.50469" lon="30.65632">
        <ele>1038.538658</ele>
        <time>2021-11-16T23:44:31.024Z</time>
      </trkpt>
      <trkpt lat="39.50994" lon="30.65268">
        <ele>1043.88798</ele>
        <time>2021-11-16T23:47:02.310Z</time>
      </trkpt>
      <trkpt lat="39.51037" lon="30.65231">
        <ele>1043.881644</ele>
        <time>2021-11-16T23:47:12.722Z</time>
      </trkpt>
      <trkpt lat="39.51154" lon="30.65148">
        <ele>1041.785301</ele>
        <time>2021-11-16T23:47:36.787Z</time>
      </trkpt>
      <trkpt lat="39.51282" lon="30.65056">
        <ele>1039.494818</ele>
        <time>2021-11-16T23:48:02.473Z</time>
      </trkpt>
      <trkpt lat="39.52454" lon="30.64231">
        <ele>1027.315711</ele>
        <time>2021-11-16T23:52:22.908Z</time>
      </trkpt>
      <trkpt lat="39.53045" lon="30.63815">
        <ele>1028.518248</ele>
        <time>2021-11-16T23:54:53.322Z</time>
      </trkpt>
      <trkpt lat="39.5305" lon="30.63812">
        <ele>1028.565654</ele>
        <time>2021-11-16T23:54:55.929Z</time>
      </trkpt>
      <trkpt lat="39.53304" lon="30.63636">
        <ele>1034.192771</ele>
        <time>2021-11-16T23:56:33.255Z</time>
      </trkpt>
      <trkpt lat="39.53544" lon="30.63456">
        <ele>1032.533298</ele>
        <time>2021-11-16T23:57:25.111Z</time>
      </trkpt>
      <trkpt lat="39.5383" lon="30.63209">
        <ele>1030.261312</ele>
        <time>2021-11-16T23:58:32.972Z</time>
      </trkpt>
      <trkpt lat="39.5389" lon="30.63153">
        <ele>1030.78898</ele>
        <time>2021-11-16T23:58:52.500Z</time>
      </trkpt>
      <trkpt lat="39.5403" lon="30.63026">
        <ele>1033.146008</ele>
        <time>2021-11-16T23:59:42.349Z</time>
      </trkpt>
      <trkpt lat="39.54116" lon="30.62953">
        <ele>1034.363715</ele>
        <time>2021-11-17T00:00:10.131Z</time>
      </trkpt>
      <trkpt lat="39.54202" lon="30.62874">
        <ele>1035.542828</ele>
        <time>2021-11-17T00:00:36.709Z</time>
      </trkpt>
      <trkpt lat="39.54295" lon="30.62805">
        <ele>1036.699837</ele>
        <time>2021-11-17T00:01:04.941Z</time>
      </trkpt>
      <trkpt lat="39.54349" lon="30.62774">
        <ele>1037.865809</ele>
        <time>2021-11-17T00:01:22.319Z</time>
      </trkpt>
      <trkpt lat="39.5437" lon="30.62764">
        <ele>1038.355569</ele>
        <time>2021-11-17T00:01:29.568Z</time>
      </trkpt>
      <trkpt lat="39.544" lon="30.6275">
        <ele>1039.022961</ele>
        <time>2021-11-17T00:01:39.947Z</time>
      </trkpt>
      <trkpt lat="39.54494" lon="30.62709">
        <ele>1040.855074</ele>
        <time>2021-11-17T00:02:11.444Z</time>
      </trkpt>
      <trkpt lat="39.5453" lon="30.627">
        <ele>1041.179473</ele>
        <time>2021-11-17T00:02:22.499Z</time>
      </trkpt>
      <trkpt lat="39.54583" lon="30.62688">
        <ele>1041.665071</ele>
        <time>2021-11-17T00:02:36.755Z</time>
      </trkpt>
      <trkpt lat="39.54725" lon="30.62676">
        <ele>1041.958643</ele>
        <time>2021-11-17T00:03:06.244Z</time>
      </trkpt>
      <trkpt lat="39.54859" lon="30.62666">
        <ele>1041.693957</ele>
        <time>2021-11-17T00:03:33.966Z</time>
      </trkpt>
      <trkpt lat="39.5493" lon="30.62657">
        <ele>1041.984518</ele>
        <time>2021-11-17T00:03:51.364Z</time>
      </trkpt>
      <trkpt lat="39.54986" lon="30.62648">
        <ele>1042.21632</ele>
        <time>2021-11-17T00:04:05.718Z</time>
      </trkpt>
      <trkpt lat="39.55003" lon="30.62645">
        <ele>1042.285354</ele>
        <time>2021-11-17T00:04:10.735Z</time>
      </trkpt>
      <trkpt lat="39.55145" lon="30.62598">
        <ele>1041.738387</ele>
        <time>2021-11-17T00:04:45.284Z</time>
      </trkpt>
      <trkpt lat="39.55268" lon="30.62546">
        <ele>1038.687833</ele>
        <time>2021-11-17T00:05:06.602Z</time>
      </trkpt>
      <trkpt lat="39.55349" lon="30.62495">
        <ele>1035.855958</ele>
        <time>2021-11-17T00:05:20.731Z</time>
      </trkpt>
      <trkpt lat="39.5536" lon="30.62488">
        <ele>1035.613991</ele>
        <time>2021-11-17T00:05:22.738Z</time>
      </trkpt>
      <trkpt lat="39.55473" lon="30.62417">
        <ele>1033.201907</ele>
        <time>2021-11-17T00:05:43.773Z</time>
      </trkpt>
      <trkpt lat="39.55808" lon="30.62187">
        <ele>1035.996039</ele>
        <time>2021-11-17T00:07:22.623Z</time>
      </trkpt>
      <trkpt lat="39.55868" lon="30.62135">
        <ele>1037.679832</ele>
        <time>2021-11-17T00:07:47.097Z</time>
      </trkpt>
      <trkpt lat="39.55875" lon="30.62129">
        <ele>1037.908192</ele>
        <time>2021-11-17T00:07:50.054Z</time>
      </trkpt>
      <trkpt lat="39.55901" lon="30.62107">
        <ele>1038.750855</ele>
        <time>2021-11-17T00:08:00.615Z</time>
      </trkpt>
      <trkpt lat="39.55941" lon="30.62073">
        <ele>1040.046806</ele>
        <time>2021-11-17T00:08:17.114Z</time>
      </trkpt>
      <trkpt lat="39.55954" lon="30.62061">
        <ele>1040.478421</ele>
        <time>2021-11-17T00:08:22.716Z</time>
      </trkpt>
      <trkpt lat="39.56062" lon="30.61951">
        <ele>1043.413226</ele>
        <time>2021-11-17T00:09:05.727Z</time>
      </trkpt>
      <trkpt lat="39.56203" lon="30.61808">
        <ele>1046.698318</ele>
        <time>2021-11-17T00:09:56.154Z</time>
      </trkpt>
      <trkpt lat="39.56335" lon="30.61683">
        <ele>1049.925795</ele>
        <time>2021-11-17T00:10:46.049Z</time>
      </trkpt>
      <trkpt lat="39.56508" lon="30.61553">
        <ele>1053.75841</ele>
        <time>2021-11-17T00:11:48.266Z</time>
      </trkpt>
      <trkpt lat="39.56772" lon="30.61429">
        <ele>1056.428004</ele>
        <time>2021-11-17T00:13:00.954Z</time>
      </trkpt>
      <trkpt lat="39.56967" lon="30.61366">
        <ele>1055.754651</ele>
        <time>2021-11-17T00:13:43.028Z</time>
      </trkpt>
      <trkpt lat="39.5697" lon="30.61365">
        <ele>1055.725583</ele>
        <time>2021-11-17T00:13:43.601Z</time>
      </trkpt>
      <trkpt lat="39.57151" lon="30.61342">
        <ele>1053.552703</ele>
        <time>2021-11-17T00:14:17.953Z</time>
      </trkpt>
      <trkpt lat="39.57598" lon="30.61365">
        <ele>1046.212097</ele>
        <time>2021-11-17T00:15:37.938Z</time>
      </trkpt>
      <trkpt lat="39.58074" lon="30.61402">
        <ele>1043.210797</ele>
        <time>2021-11-17T00:17:14.947Z</time>
      </trkpt>
      <trkpt lat="39.58188" lon="30.61404">
        <ele>1042.773664</ele>
        <time>2021-11-17T00:17:38.729Z</time>
      </trkpt>
      <trkpt lat="39.58272" lon="30.61402">
        <ele>1042.647799</ele>
        <time>2021-11-17T00:17:57.196Z</time>
      </trkpt>
      <trkpt lat="39.58302" lon="30.61401">
        <ele>1042.602699</ele>
        <time>2021-11-17T00:18:03.919Z</time>
      </trkpt>
      <trkpt lat="39.58381" lon="30.61391">
        <ele>1042.300673</ele>
        <time>2021-11-17T00:18:21.469Z</time>
      </trkpt>
      <trkpt lat="39.58521" lon="30.61363">
        <ele>1041.344428</ele>
        <time>2021-11-17T00:18:49.599Z</time>
      </trkpt>
      <trkpt lat="39.58748" lon="30.61287">
        <ele>1039.185357</ele>
        <time>2021-11-17T00:19:32.871Z</time>
      </trkpt>
      <trkpt lat="39.58782" lon="30.61275">
        <ele>1039.335963</ele>
        <time>2021-11-17T00:19:40.341Z</time>
      </trkpt>
      <trkpt lat="39.59175" lon="30.61125">
        <ele>1041.361776</ele>
        <time>2021-11-17T00:21:25.944Z</time>
      </trkpt>
      <trkpt lat="39.59589" lon="30.60936">
        <ele>1041.369828</ele>
        <time>2021-11-17T00:23:03.273Z</time>
      </trkpt>
      <trkpt lat="39.59736" lon="30.60857">
        <ele>1040.471466</ele>
        <time>2021-11-17T00:23:35.036Z</time>
      </trkpt>
      <trkpt lat="39.6003" lon="30.60669">
        <ele>1036.706676</ele>
        <time>2021-11-17T00:24:37.893Z</time>
      </trkpt>
      <trkpt lat="39.6005" lon="30.60656">
        <ele>1036.366571</ele>
        <time>2021-11-17T00:24:41.855Z</time>
      </trkpt>
      <trkpt lat="39.60503" lon="30.60354">
        <ele>1024.707714</ele>
        <time>2021-11-17T00:26:09.477Z</time>
      </trkpt>
      <trkpt lat="39.60507" lon="30.60351">
        <ele>1024.60862</ele>
        <time>2021-11-17T00:26:10.180Z</time>
      </trkpt>
      <trkpt lat="39.60609" lon="30.60283">
        <ele>1021.630304</ele>
        <time>2021-11-17T00:26:29.400Z</time>
      </trkpt>
      <trkpt lat="39.60866" lon="30.60084">
        <ele>1013.528588</ele>
        <time>2021-11-17T00:27:19.469Z</time>
      </trkpt>
      <trkpt lat="39.61267" lon="30.59714">
        <ele>1000.697412</ele>
        <time>2021-11-17T00:28:42.154Z</time>
      </trkpt>
      <trkpt lat="39.61719" lon="30.59332">
        <ele>991.76151</ele>
        <time>2021-11-17T00:30:20.322Z</time>
      </trkpt>
      <trkpt lat="39.62061" lon="30.59025">
        <ele>984.205887</ele>
        <time>2021-11-17T00:31:35.001Z</time>
      </trkpt>
      <trkpt lat="39.62217" lon="30.58884">
        <ele>979.159954</ele>
        <time>2021-11-17T00:32:06.714Z</time>
      </trkpt>
      <trkpt lat="39.6245" lon="30.58667">
        <ele>970.606327</ele>
        <time>2021-11-17T00:32:53.574Z</time>
      </trkpt>
      <trkpt lat="39.6255" lon="30.58566">
        <ele>967.680867</ele>
        <time>2021-11-17T00:33:15.626Z</time>
      </trkpt>
      <trkpt lat="39.62575" lon="30.58535">
        <ele>966.922531</ele>
        <time>2021-11-17T00:33:21.786Z</time>
      </trkpt>
      <trkpt lat="39.62622" lon="30.58479">
        <ele>965.604936</ele>
        <time>2021-11-17T00:33:32.934Z</time>
      </trkpt>
      <trkpt lat="39.6265" lon="30.58445">
        <ele>964.883181</ele>
        <time>2021-11-17T00:33:39.653Z</time>
      </trkpt>
      <trkpt lat="39.627" lon="30.58371">
        <ele>963.456262</ele>
        <time>2021-11-17T00:33:53.167Z</time>
      </trkpt>
      <trkpt lat="39.62715" lon="30.58348">
        <ele>963.024223</ele>
        <time>2021-11-17T00:33:57.253Z</time>
      </trkpt>
      <trkpt lat="39.62787" lon="30.58227">
        <ele>961.025082</ele>
        <time>2021-11-17T00:34:18.428Z</time>
      </trkpt>
      <trkpt lat="39.62811" lon="30.58186">
        <ele>960.364817</ele>
        <time>2021-11-17T00:34:25.786Z</time>
      </trkpt>
      <trkpt lat="39.62875" lon="30.58075">
        <ele>958.796272</ele>
        <time>2021-11-17T00:34:45.039Z</time>
      </trkpt>
      <trkpt lat="39.62955" lon="30.57931">
        <ele>957.118871</ele>
        <time>2021-11-17T00:35:10.797Z</time>
      </trkpt>
      <trkpt lat="39.62982" lon="30.57902">
        <ele>956.918263</ele>
        <time>2021-11-17T00:35:17.779Z</time>
      </trkpt>
      <trkpt lat="39.63024" lon="30.57827">
        <ele>956.509203</ele>
        <time>2021-11-17T00:35:32.643Z</time>
      </trkpt>
      <trkpt lat="39.63089" lon="30.57709">
        <ele>956.013389</ele>
        <time>2021-11-17T00:35:56.379Z</time>
      </trkpt>
      <trkpt lat="39.63139" lon="30.57626">
        <ele>955.744517</ele>
        <time>2021-11-17T00:36:13.419Z</time>
      </trkpt>
      <trkpt lat="39.63156" lon="30.57592">
        <ele>955.640013</ele>
        <time>2021-11-17T00:36:19.936Z</time>
      </trkpt>
      <trkpt lat="39.63191" lon="30.57515">
        <ele>955.850065</ele>
        <time>2021-11-17T00:36:33.885Z</time>
      </trkpt>
      <trkpt lat="39.63212" lon="30.57467">
        <ele>956.008551</ele>
        <time>2021-11-17T00:36:43.420Z</time>
      </trkpt>
      <trkpt lat="39.63223" lon="30.5745">
        <ele>956.071499</ele>
        <time>2021-11-17T00:36:47.445Z</time>
      </trkpt>
      <trkpt lat="39.63241" lon="30.57429">
        <ele>956.161702</ele>
        <time>2021-11-17T00:36:54.150Z</time>
      </trkpt>
      <trkpt lat="39.63269" lon="30.57409">
        <ele>956.279452</ele>
        <time>2021-11-17T00:37:03.099Z</time>
      </trkpt>
      <trkpt lat="39.63277" lon="30.57401">
        <ele>956.471936</ele>
        <time>2021-11-17T00:37:05.697Z</time>
      </trkpt>
      <trkpt lat="39.63284" lon="30.57395">
        <ele>956.678516</ele>
        <time>2021-11-17T00:37:08.222Z</time>
      </trkpt>
      <trkpt lat="39.63311" lon="30.57366">
        <ele>957.494408</ele>
        <time>2021-11-17T00:37:18.733Z</time>
      </trkpt>
      <trkpt lat="39.63359" lon="30.5731">
        <ele>958.993229</ele>
        <time>2021-11-17T00:37:39.222Z</time>
      </trkpt>
      <trkpt lat="39.63446" lon="30.57202">
        <ele>961.63386</ele>
        <time>2021-11-17T00:38:20.380Z</time>
      </trkpt>
      <trkpt lat="39.63512" lon="30.571">
        <ele>963.696207</ele>
        <time>2021-11-17T00:38:51.102Z</time>
      </trkpt>
      <trkpt lat="39.63531" lon="30.5708">
        <ele>964.102396</ele>
        <time>2021-11-17T00:38:57.403Z</time>
      </trkpt>
      <trkpt lat="39.6357" lon="30.57053">
        <ele>964.007469</ele>
        <time>2021-11-17T00:39:08.064Z</time>
      </trkpt>
      <trkpt lat="39.63633" lon="30.57023">
        <ele>963.865587</ele>
        <time>2021-11-17T00:39:22.721Z</time>
      </trkpt>
      <trkpt lat="39.63646" lon="30.57008">
        <ele>963.82917</ele>
        <time>2021-11-17T00:39:26.295Z</time>
      </trkpt>
      <trkpt lat="39.63652" lon="30.56991">
        <ele>963.798605</ele>
        <time>2021-11-17T00:39:29.294Z</time>
      </trkpt>
      <trkpt lat="39.63657" lon="30.56947">
        <ele>963.700267</ele>
        <time>2021-11-17T00:39:35.972Z</time>
      </trkpt>
      <trkpt lat="39.63658" lon="30.56793">
        <ele>961.707645</ele>
        <time>2021-11-17T00:39:56.543Z</time>
      </trkpt>
      <trkpt lat="39.63765" lon="30.5669">
        <ele>962.044488</ele>
        <time>2021-11-17T00:40:21.194Z</time>
      </trkpt>
      <trkpt lat="39.64136" lon="30.56344">
        <ele>972.431736</ele>
        <time>2021-11-17T00:42:51.752Z</time>
      </trkpt>
      <trkpt lat="39.6422" lon="30.5626">
        <ele>976.530112</ele>
        <time>2021-11-17T00:43:35.303Z</time>
      </trkpt>
      <trkpt lat="39.64308" lon="30.56151">
        <ele>979.930466</ele>
        <time>2021-11-17T00:44:21.105Z</time>
      </trkpt>
      <trkpt lat="39.64365" lon="30.56062">
        <ele>980.108753</ele>
        <time>2021-11-17T00:44:44.279Z</time>
      </trkpt>
      <trkpt lat="39.64503" lon="30.55784">
        <ele>972.257183</ele>
        <time>2021-11-17T00:45:24.475Z</time>
      </trkpt>
      <trkpt lat="39.64519" lon="30.55757">
        <ele>970.963933</ele>
        <time>2021-11-17T00:45:28.503Z</time>
      </trkpt>
      <trkpt lat="39.64541" lon="30.55721">
        <ele>969.321897</ele>
        <time>2021-11-17T00:45:33.638Z</time>
      </trkpt>
      <trkpt lat="39.64583" lon="30.55659">
        <ele>966.27538</ele>
        <time>2021-11-17T00:45:43.216Z</time>
      </trkpt>
      <trkpt lat="39.64678" lon="30.55547">
        <ele>961.907548</ele>
        <time>2021-11-17T00:46:03.347Z</time>
      </trkpt>
      <trkpt lat="39.64812" lon="30.55442">
        <ele>959.239218</ele>
        <time>2021-11-17T00:46:31.662Z</time>
      </trkpt>
      <trkpt lat="39.64858" lon="30.55415">
        <ele>959.112273</ele>
        <time>2021-11-17T00:46:43.208Z</time>
      </trkpt>
      <trkpt lat="39.6494" lon="30.55378">
        <ele>959.748872</ele>
        <time>2021-11-17T00:47:05.920Z</time>
      </trkpt>
      <trkpt lat="39.64966" lon="30.5537">
        <ele>960.429936</ele>
        <time>2021-11-17T00:47:14.105Z</time>
      </trkpt>
      <trkpt lat="39.6499" lon="30.55362">
        <ele>961.039837</ele>
        <time>2021-11-17T00:47:21.287Z</time>
      </trkpt>
      <trkpt lat="39.65248" lon="30.55312">
        <ele>969.315093</ele>
        <time>2021-11-17T00:48:55.385Z</time>
      </trkpt>
      <trkpt lat="39.65304" lon="30.55284">
        <ele>971.417509</ele>
        <time>2021-11-17T00:49:18.737Z</time>
      </trkpt>
      <trkpt lat="39.6535" lon="30.55252">
        <ele>973.221529</ele>
        <time>2021-11-17T00:49:38.359Z</time>
      </trkpt>
      <trkpt lat="39.654" lon="30.552">
        <ele>975.48565</ele>
        <time>2021-11-17T00:50:01.783Z</time>
      </trkpt>
      <trkpt lat="39.65444" lon="30.55131">
        <ele>976.859796</ele>
        <time>2021-11-17T00:50:23.930Z</time>
      </trkpt>
      <trkpt lat="39.65571" lon="30.54833">
        <ele>979.312942</ele>
        <time>2021-11-17T00:51:30.699Z</time>
      </trkpt>
      <trkpt lat="39.65606" lon="30.54767">
        <ele>979.406564</ele>
        <time>2021-11-17T00:51:44.034Z</time>
      </trkpt>
      <trkpt lat="39.65651" lon="30.54703">
        <ele>978.552269</ele>
        <time>2021-11-17T00:51:57.825Z</time>
      </trkpt>
      <trkpt lat="39.65657" lon="30.54695">
        <ele>978.450934</ele>
        <time>2021-11-17T00:51:59.368Z</time>
      </trkpt>
      <trkpt lat="39.65668" lon="30.54685">
        <ele>978.27603</ele>
        <time>2021-11-17T00:52:02.034Z</time>
      </trkpt>
      <trkpt lat="39.65688" lon="30.54665">
        <ele>977.947686</ele>
        <time>2021-11-17T00:52:06.790Z</time>
      </trkpt>
      <trkpt lat="39.65719" lon="30.54639">
        <ele>977.488186</ele>
        <time>2021-11-17T00:52:12.933Z</time>
      </trkpt>
      <trkpt lat="39.65758" lon="30.54614">
        <ele>976.32622</ele>
        <time>2021-11-17T00:52:20.284Z</time>
      </trkpt>
      <trkpt lat="39.65808" lon="30.54594">
        <ele>974.496008</ele>
        <time>2021-11-17T00:52:28.800Z</time>
      </trkpt>
      <trkpt lat="39.65848" lon="30.54586">
        <ele>973.062522</ele>
        <time>2021-11-17T00:52:35.320Z</time>
      </trkpt>
      <trkpt lat="39.65852" lon="30.54585">
        <ele>972.920685</ele>
        <time>2021-11-17T00:52:35.873Z</time>
      </trkpt>
      <trkpt lat="39.66012" lon="30.54582">
        <ele>967.333862</ele>
        <time>2021-11-17T00:53:00.915Z</time>
      </trkpt>
      <trkpt lat="39.66139" lon="30.54577">
        <ele>963.759156</ele>
        <time>2021-11-17T00:53:22.287Z</time>
      </trkpt>
      <trkpt lat="39.66215" lon="30.54575">
        <ele>962.351453</ele>
        <time>2021-11-17T00:53:35.589Z</time>
      </trkpt>
      <trkpt lat="39.66245" lon="30.54575">
        <ele>961.812776</ele>
        <time>2021-11-17T00:53:40.882Z</time>
      </trkpt>
      <trkpt lat="39.66262" lon="30.54575">
        <ele>961.482549</ele>
        <time>2021-11-17T00:53:44.332Z</time>
      </trkpt>
      <trkpt lat="39.66353" lon="30.54573">
        <ele>962.025052</ele>
        <time>2021-11-17T00:54:04.571Z</time>
      </trkpt>
      <trkpt lat="39.66386" lon="30.54572">
        <ele>962.270334</ele>
        <time>2021-11-17T00:54:12.998Z</time>
      </trkpt>
      <trkpt lat="39.66421" lon="30.54571">
        <ele>962.534393</ele>
        <time>2021-11-17T00:54:22.775Z</time>
      </trkpt>
      <trkpt lat="39.66502" lon="30.5457">
        <ele>964.586241</ele>
        <time>2021-11-17T00:54:49.132Z</time>
      </trkpt>
      <trkpt lat="39.66637" lon="30.54578">
        <ele>969.119174</ele>
        <time>2021-11-17T00:55:40.681Z</time>
      </trkpt>
      <trkpt lat="39.66685" lon="30.54584">
        <ele>970.590611</ele>
        <time>2021-11-17T00:55:57.874Z</time>
      </trkpt>
      <trkpt lat="39.6669" lon="30.54585">
        <ele>970.764927</ele>
        <time>2021-11-17T00:55:59.873Z</time>
      </trkpt>
      <trkpt lat="39.66706" lon="30.54588">
        <ele>971.275021</ele>
        <time>2021-11-17T00:56:05.676Z</time>
      </trkpt>
      <trkpt lat="39.66784" lon="30.546">
        <ele>973.693334</ele>
        <time>2021-11-17T00:56:32.542Z</time>
      </trkpt>
      <trkpt lat="39.66875" lon="30.54612">
        <ele>975.225529</ele>
        <time>2021-11-17T00:57:00.248Z</time>
      </trkpt>
      <trkpt lat="39.66916" lon="30.54618">
        <ele>975.729444</ele>
        <time>2021-11-17T00:57:11.303Z</time>
      </trkpt>
      <trkpt lat="39.66979" lon="30.54621">
        <ele>976.491558</ele>
        <time>2021-11-17T00:57:26.621Z</time>
      </trkpt>
      <trkpt lat="39.66999" lon="30.54621">
        <ele>976.556367</ele>
        <time>2021-11-17T00:57:31.268Z</time>
      </trkpt>
      <trkpt lat="39.67046" lon="30.54621">
        <ele>976.519458</ele>
        <time>2021-11-17T00:57:41.756Z</time>
      </trkpt>
      <trkpt lat="39.67092" lon="30.54618">
        <ele>976.482961</ele>
        <time>2021-11-17T00:57:51.534Z</time>
      </trkpt>
      <trkpt lat="39.67147" lon="30.54613">
        <ele>976.440047</ele>
        <time>2021-11-17T00:58:02.952Z</time>
      </trkpt>
      <trkpt lat="39.67214" lon="30.54602">
        <ele>976.55721</ele>
        <time>2021-11-17T00:58:17.498Z</time>
      </trkpt>
      <trkpt lat="39.67608" lon="30.545">
        <ele>977.433058</ele>
        <time>2021-11-17T00:59:52.670Z</time>
      </trkpt>
      <trkpt lat="39.67888" lon="30.5443">
        <ele>976.867093</ele>
        <time>2021-11-17T01:00:53.608Z</time>
      </trkpt>
      <trkpt lat="39.68097" lon="30.54376">
        <ele>975.517381</ele>
        <time>2021-11-17T01:01:35.991Z</time>
      </trkpt>
      <trkpt lat="39.68238" lon="30.54342">
        <ele>974.578903</ele>
        <time>2021-11-17T01:02:04.899Z</time>
      </trkpt>
      <trkpt lat="39.68265" lon="30.54335">
        <ele>974.450869</ele>
        <time>2021-11-17T01:02:10.464Z</time>
      </trkpt>
      <trkpt lat="39.68441" lon="30.54291">
        <ele>973.710373</ele>
        <time>2021-11-17T01:02:47.838Z</time>
      </trkpt>
      <trkpt lat="39.68976" lon="30.54154">
        <ele>972.738365</ele>
        <time>2021-11-17T01:04:45.211Z</time>
      </trkpt>
      <trkpt lat="39.69375" lon="30.54051">
        <ele>973.076088</ele>
        <time>2021-11-17T01:06:17.482Z</time>
      </trkpt>
      <trkpt lat="39.69936" lon="30.53909">
        <ele>973.834865</ele>
        <time>2021-11-17T01:08:26.295Z</time>
      </trkpt>
      <trkpt lat="39.70339" lon="30.53797">
        <ele>976.928972</ele>
        <time>2021-11-17T01:10:12.702Z</time>
      </trkpt>
      <trkpt lat="39.70587" lon="30.53691">
        <ele>974.558367</ele>
        <time>2021-11-17T01:11:08.302Z</time>
      </trkpt>
      <trkpt lat="39.71091" lon="30.53398">
        <ele>958.079314</ele>
        <time>2021-11-17T01:12:38.588Z</time>
      </trkpt>
      <trkpt lat="39.71201" lon="30.53356">
        <ele>953.012612</ele>
        <time>2021-11-17T01:12:55.623Z</time>
      </trkpt>
      <trkpt lat="39.71334" lon="30.53325">
        <ele>946.280858</ele>
        <time>2021-11-17T01:13:15.764Z</time>
      </trkpt>
      <trkpt lat="39.71719" lon="30.53281">
        <ele>934.220284</ele>
        <time>2021-11-17T01:14:19.011Z</time>
      </trkpt>
      <trkpt lat="39.71848" lon="30.53244">
        <ele>933.378012</ele>
        <time>2021-11-17T01:14:45.203Z</time>
      </trkpt>
      <trkpt lat="39.71854" lon="30.53243">
        <ele>933.340261</ele>
        <time>2021-11-17T01:14:46.585Z</time>
      </trkpt>
      <trkpt lat="39.72036" lon="30.53191">
        <ele>935.532457</ele>
        <time>2021-11-17T01:15:38.060Z</time>
      </trkpt>
      <trkpt lat="39.72155" lon="30.53165">
        <ele>938.570328</ele>
        <time>2021-11-17T01:16:18.711Z</time>
      </trkpt>
      <trkpt lat="39.72345" lon="30.5314">
        <ele>942.458181</ele>
        <time>2021-11-17T01:17:23.422Z</time>
      </trkpt>
      <trkpt lat="39.7246" lon="30.53114">
        <ele>942.447634</ele>
        <time>2021-11-17T01:17:47.555Z</time>
      </trkpt>
      <trkpt lat="39.7251" lon="30.5309">
        <ele>941.076998</ele>
        <time>2021-11-17T01:17:56.521Z</time>
      </trkpt>
      <trkpt lat="39.72618" lon="30.53012">
        <ele>937.559889</ele>
        <time>2021-11-17T01:18:16.024Z</time>
      </trkpt>
      <trkpt lat="39.729" lon="30.5279">
        <ele>926.30692</ele>
        <time>2021-11-17T01:19:09.268Z</time>
      </trkpt>
      <trkpt lat="39.72931" lon="30.52763">
        <ele>925.105293</ele>
        <time>2021-11-17T01:19:15.319Z</time>
      </trkpt>
      <trkpt lat="39.73248" lon="30.52482">
        <ele>912.643327</ele>
        <time>2021-11-17T01:20:18.036Z</time>
      </trkpt>
      <trkpt lat="39.73288" lon="30.52447">
        <ele>910.961469</ele>
        <time>2021-11-17T01:20:25.688Z</time>
      </trkpt>
      <trkpt lat="39.73417" lon="30.52334">
        <ele>905.303526</ele>
        <time>2021-11-17T01:20:50.368Z</time>
      </trkpt>
      <trkpt lat="39.7344" lon="30.52314">
        <ele>904.279909</ele>
        <time>2021-11-17T01:20:54.743Z</time>
      </trkpt>
      <trkpt lat="39.73474" lon="30.52298">
        <ele>902.932049</ele>
        <time>2021-11-17T01:21:00.519Z</time>
      </trkpt>
      <trkpt lat="39.73511" lon="30.52296">
        <ele>901.551871</ele>
        <time>2021-11-17T01:21:06.386Z</time>
      </trkpt>
      <trkpt lat="39.73545" lon="30.52304">
        <ele>900.256761</ele>
        <time>2021-11-17T01:21:11.808Z</time>
      </trkpt>
      <trkpt lat="39.73577" lon="30.52312">
        <ele>899.032787</ele>
        <time>2021-11-17T01:21:17.019Z</time>
      </trkpt>
      <trkpt lat="39.73597" lon="30.52316">
        <ele>898.298479</ele>
        <time>2021-11-17T01:21:20.243Z</time>
      </trkpt>
      <trkpt lat="39.73668" lon="30.5233">
        <ele>895.620892</ele>
        <time>2021-11-17T01:21:31.717Z</time>
      </trkpt>
      <trkpt lat="39.73676" lon="30.52331">
        <ele>895.319913</ele>
        <time>2021-11-17T01:21:32.898Z</time>
      </trkpt>
      <trkpt lat="39.73704" lon="30.52332">
        <ele>894.210034</ele>
        <time>2021-11-17T01:21:37.472Z</time>
      </trkpt>
      <trkpt lat="39.73736" lon="30.52322">
        <ele>892.899387</ele>
        <time>2021-11-17T01:21:42.698Z</time>
      </trkpt>
      <trkpt lat="39.73746" lon="30.52315">
        <ele>892.447534</ele>
        <time>2021-11-17T01:21:44.405Z</time>
      </trkpt>
      <trkpt lat="39.73785" lon="30.52293">
        <ele>890.775463</ele>
        <time>2021-11-17T01:21:51.121Z</time>
      </trkpt>
      <trkpt lat="39.73828" lon="30.52256">
        <ele>888.725882</ele>
        <time>2021-11-17T01:21:59.449Z</time>
      </trkpt>
      <trkpt lat="39.73853" lon="30.52235">
        <ele>887.257263</ele>
        <time>2021-11-17T01:22:04.042Z</time>
      </trkpt>
      <trkpt lat="39.73916" lon="30.522">
        <ele>883.457475</ele>
        <time>2021-11-17T01:22:14.261Z</time>
      </trkpt>
      <trkpt lat="39.73921" lon="30.52198">
        <ele>883.199636</ele>
        <time>2021-11-17T01:22:14.916Z</time>
      </trkpt>
      <trkpt lat="39.73982" lon="30.52171">
        <ele>879.580667</ele>
        <time>2021-11-17T01:22:24.430Z</time>
      </trkpt>
      <trkpt lat="39.73991" lon="30.52168">
        <ele>879.086091</ele>
        <time>2021-11-17T01:22:25.678Z</time>
      </trkpt>
      <trkpt lat="39.7405" lon="30.52145">
        <ele>875.561237</ele>
        <time>2021-11-17T01:22:34.758Z</time>
      </trkpt>
      <trkpt lat="39.74109" lon="30.52116">
        <ele>871.935801</ele>
        <time>2021-11-17T01:22:43.870Z</time>
      </trkpt>
      <trkpt lat="39.74136" lon="30.5209">
        <ele>870.026832</ele>
        <time>2021-11-17T01:22:48.737Z</time>
      </trkpt>
      <trkpt lat="39.74155" lon="30.52053">
        <ele>868.042801</ele>
        <time>2021-11-17T01:22:54.015Z</time>
      </trkpt>
      <trkpt lat="39.74166" lon="30.52033">
        <ele>867.746291</ele>
        <time>2021-11-17T01:22:57.002Z</time>
      </trkpt>
      <trkpt lat="39.74179" lon="30.52005">
        <ele>867.433464</ele>
        <time>2021-11-17T01:23:01.166Z</time>
      </trkpt>
      <trkpt lat="39.74187" lon="30.51986">
        <ele>867.219776</ele>
        <time>2021-11-17T01:23:04.168Z</time>
      </trkpt>
      <trkpt lat="39.74202" lon="30.51944">
        <ele>866.770213</ele>
        <time>2021-11-17T01:23:10.931Z</time>
      </trkpt>
      <trkpt lat="39.74216" lon="30.51955">
        <ele>866.558541</ele>
        <time>2021-11-17T01:23:14.606Z</time>
      </trkpt>
      <trkpt lat="39.7425" lon="30.51976">
        <ele>866.08477</ele>
        <time>2021-11-17T01:23:22.740Z</time>
      </trkpt>
      <trkpt lat="39.74255" lon="30.51979">
        <ele>866.009176</ele>
        <time>2021-11-17T01:23:24.119Z</time>
      </trkpt>
      <trkpt lat="39.74265" lon="30.51985">
        <ele>865.872726</ele>
        <time>2021-11-17T01:23:26.756Z</time>
      </trkpt>
      <trkpt lat="39.74297" lon="30.51999">
        <ele>865.908964</ele>
        <time>2021-11-17T01:23:36.041Z</time>
      </trkpt>
      <trkpt lat="39.74306" lon="30.52001">
        <ele>866.012531</ele>
        <time>2021-11-17T01:23:39.001Z</time>
      </trkpt>
      <trkpt lat="39.7431" lon="30.51967">
        <ele>866.315765</ele>
        <time>2021-11-17T01:23:46.754Z</time>
      </trkpt>
      <trkpt lat="39.74317" lon="30.51923">
        <ele>866.70912</ele>
        <time>2021-11-17T01:23:57.711Z</time>
      </trkpt>
      <trkpt lat="39.74326" lon="30.51898">
        <ele>866.945131</ele>
        <time>2021-11-17T01:24:04.002Z</time>
      </trkpt>
      <trkpt lat="39.74343" lon="30.51875">
        <ele>867.227935</ele>
        <time>2021-11-17T01:24:11.204Z</time>
      </trkpt>
      <trkpt lat="39.74348" lon="30.51869">
        <ele>867.299816</ele>
        <time>2021-11-17T01:24:12.985Z</time>
      </trkpt>
      <trkpt lat="39.74389" lon="30.51832">
        <ele>867.597593</ele>
        <time>2021-11-17T01:24:25.651Z</time>
      </trkpt>
      <trkpt lat="39.74461" lon="30.51788">
        <ele>866.702716</ele>
        <time>2021-11-17T01:24:43.373Z</time>
      </trkpt>
      <trkpt lat="39.74457" lon="30.51783">
        <ele>866.649516</ele>
        <time>2021-11-17T01:24:44.148Z</time>
      </trkpt>
      <trkpt lat="39.74448" lon="30.51765">
        <ele>866.456521</ele>
        <time>2021-11-17T01:24:47.840Z</time>
      </trkpt>
      <trkpt lat="39.7445" lon="30.51754">
        <ele>866.35494</ele>
        <time>2021-11-17T01:24:49.456Z</time>
      </trkpt>
      <trkpt lat="39.74533" lon="30.51666">
        <ele>864.716474</ele>
        <time>2021-11-17T01:25:08.149Z</time>
      </trkpt>
      <trkpt lat="39.74544" lon="30.51666">
        <ele>864.502825</ele>
        <time>2021-11-17T01:25:09.943Z</time>
      </trkpt>
      <trkpt lat="39.74555" lon="30.5167">
        <ele>864.25358</ele>
        <time>2021-11-17T01:25:12.483Z</time>
      </trkpt>
      <trkpt lat="39.74547" lon="30.51651">
        <ele>863.910263</ele>
        <time>2021-11-17T01:25:15.192Z</time>
      </trkpt>
      <trkpt lat="39.74544" lon="30.51634">
        <ele>863.639482</ele>
        <time>2021-11-17T01:25:18.106Z</time>
      </trkpt>
      <trkpt lat="39.74543" lon="30.51605">
        <ele>863.190445</ele>
        <time>2021-11-17T01:25:21.834Z</time>
      </trkpt>
      <trkpt lat="39.7456" lon="30.51569">
        <ele>862.553092</ele>
        <time>2021-11-17T01:25:27.810Z</time>
      </trkpt>
      <trkpt lat="39.74594" lon="30.51497">
        <ele>861.555213</ele>
        <time>2021-11-17T01:25:40.743Z</time>
      </trkpt>
      <trkpt lat="39.74607" lon="30.5148">
        <ele>861.332459</ele>
        <time>2021-11-17T01:25:44.088Z</time>
      </trkpt>
      <trkpt lat="39.74628" lon="30.51465">
        <ele>861.030691</ele>
        <time>2021-11-17T01:25:48.658Z</time>
      </trkpt>
      <trkpt lat="39.74635" lon="30.51462">
        <ele>860.940579</ele>
        <time>2021-11-17T01:25:50.337Z</time>
      </trkpt>
      <trkpt lat="39.74644" lon="30.51459">
        <ele>860.823431</ele>
        <time>2021-11-17T01:25:52.521Z</time>
      </trkpt>
      <trkpt lat="39.74658" lon="30.51458">
        <ele>860.649277</ele>
        <time>2021-11-17T01:25:55.343Z</time>
      </trkpt>
      <trkpt lat="39.74694" lon="30.51462">
        <ele>860.194499</ele>
        <time>2021-11-17T01:26:02.482Z</time>
      </trkpt>
      <trkpt lat="39.74702" lon="30.51462">
        <ele>860.09566</ele>
        <time>2021-11-17T01:26:03.938Z</time>
      </trkpt>
      <trkpt lat="39.74706" lon="30.51463">
        <ele>860.03685</ele>
        <time>2021-11-17T01:26:04.917Z</time>
      </trkpt>
      <trkpt lat="39.7471" lon="30.51462">
        <ele>859.991788</ele>
        <time>2021-11-17T01:26:05.574Z</time>
      </trkpt>
      <trkpt lat="39.74717" lon="30.5146">
        <ele>859.899714</ele>
        <time>2021-11-17T01:26:06.815Z</time>
      </trkpt>
      <trkpt lat="39.7472" lon="30.51459">
        <ele>859.860462</ele>
        <time>2021-11-17T01:26:07.348Z</time>
      </trkpt>
      <trkpt lat="39.7475" lon="30.5145">
        <ele>858.472203</ele>
        <time>2021-11-17T01:26:12.636Z</time>
      </trkpt>
      <trkpt lat="39.74808" lon="30.51439">
        <ele>855.785326</ele>
        <time>2021-11-17T01:26:21.592Z</time>
      </trkpt>
      <trkpt lat="39.74816" lon="30.51439">
        <ele>855.42675</ele>
        <time>2021-11-17T01:26:22.811Z</time>
      </trkpt>
      <trkpt lat="39.74812" lon="30.51384">
        <ele>853.468117</ele>
        <time>2021-11-17T01:26:29.290Z</time>
      </trkpt>
      <trkpt lat="39.74812" lon="30.51341">
        <ele>851.974154</ele>
        <time>2021-11-17T01:26:34.364Z</time>
      </trkpt>
      <trkpt lat="39.74817" lon="30.51332">
        <ele>851.576912</ele>
        <time>2021-11-17T01:26:35.612Z</time>
      </trkpt>
      <trkpt lat="39.74823" lon="30.51316">
        <ele>850.980287</ele>
        <time>2021-11-17T01:26:37.875Z</time>
      </trkpt>
      <trkpt lat="39.74832" lon="30.51294">
        <ele>850.12875</ele>
        <time>2021-11-17T01:26:40.891Z</time>
      </trkpt>
      <trkpt lat="39.74872" lon="30.51212">
        <ele>846.840136</ele>
        <time>2021-11-17T01:26:52.778Z</time>
      </trkpt>
      <trkpt lat="39.74878" lon="30.51197">
        <ele>846.283436</ele>
        <time>2021-11-17T01:26:55.035Z</time>
      </trkpt>
      <trkpt lat="39.74898" lon="30.51172">
        <ele>845.038468</ele>
        <time>2021-11-17T01:26:59.665Z</time>
      </trkpt>
      <trkpt lat="39.74909" lon="30.51158">
        <ele>844.390837</ele>
        <time>2021-11-17T01:27:02.226Z</time>
      </trkpt>
      <trkpt lat="39.74919" lon="30.51146">
        <ele>843.780971</ele>
        <time>2021-11-17T01:27:04.579Z</time>
      </trkpt>
      <trkpt lat="39.74944" lon="30.51115">
        <ele>842.651281</ele>
        <time>2021-11-17T01:27:10.589Z</time>
      </trkpt>
      <trkpt lat="39.74966" lon="30.51088">
        <ele>841.67357</ele>
        <time>2021-11-17T01:27:15.965Z</time>
      </trkpt>
      <trkpt lat="39.74978" lon="30.51074">
        <ele>841.173862</ele>
        <time>2021-11-17T01:27:18.762Z</time>
      </trkpt>
      <trkpt lat="39.74989" lon="30.51053">
        <ele>840.549432</ele>
        <time>2021-11-17T01:27:22.271Z</time>
      </trkpt>
      <trkpt lat="39.75006" lon="30.51017">
        <ele>839.518304</ele>
        <time>2021-11-17T01:27:27.815Z</time>
      </trkpt>
      <trkpt lat="39.75022" lon="30.5099">
        <ele>838.660529</ele>
        <time>2021-11-17T01:27:32.349Z</time>
      </trkpt>
      <trkpt lat="39.75029" lon="30.50981">
        <ele>838.365867</ele>
        <time>2021-11-17T01:27:33.839Z</time>
      </trkpt>
      <trkpt lat="39.75044" lon="30.50957">
        <ele>837.569061</ele>
        <time>2021-11-17T01:27:37.725Z</time>
      </trkpt>
      <trkpt lat="39.75049" lon="30.50951">
        <ele>837.300806</ele>
        <time>2021-11-17T01:27:38.927Z</time>
      </trkpt>
      <trkpt lat="39.7507" lon="30.50929">
        <ele>836.324218</ele>
        <time>2021-11-17T01:27:43.318Z</time>
      </trkpt>
      <trkpt lat="39.75078" lon="30.5092">
        <ele>835.938403</ele>
        <time>2021-11-17T01:27:45.034Z</time>
      </trkpt>
      <trkpt lat="39.75097" lon="30.50897">
        <ele>834.971418</ele>
        <time>2021-11-17T01:27:49.385Z</time>
      </trkpt>
      <trkpt lat="39.75106" lon="30.50887">
        <ele>834.545906</ele>
        <time>2021-11-17T01:27:51.260Z</time>
      </trkpt>
      <trkpt lat="39.75163" lon="30.50815">
        <ele>831.634556</ele>
        <time>2021-11-17T01:28:04.661Z</time>
      </trkpt>
      <trkpt lat="39.75182" lon="30.50801">
        <ele>830.891883</ele>
        <time>2021-11-17T01:28:08.543Z</time>
      </trkpt>
      <trkpt lat="39.75189" lon="30.50796">
        <ele>830.65356</ele>
        <time>2021-11-17T01:28:09.794Z</time>
      </trkpt>
      <trkpt lat="39.75206" lon="30.50788">
        <ele>830.078312</ele>
        <time>2021-11-17T01:28:12.933Z</time>
      </trkpt>
      <trkpt lat="39.7523" lon="30.50777">
        <ele>829.269053</ele>
        <time>2021-11-17T01:28:17.292Z</time>
      </trkpt>
      <trkpt lat="39.75257" lon="30.50764">
        <ele>828.369665</ele>
        <time>2021-11-17T01:28:22.299Z</time>
      </trkpt>
      <trkpt lat="39.75263" lon="30.50759">
        <ele>828.135791</ele>
        <time>2021-11-17T01:28:23.535Z</time>
      </trkpt>
      <trkpt lat="39.75266" lon="30.50763">
        <ele>828.008869</ele>
        <time>2021-11-17T01:28:24.228Z</time>
      </trkpt>
      <trkpt lat="39.7527" lon="30.50765">
        <ele>827.878742</ele>
        <time>2021-11-17T01:28:24.929Z</time>
      </trkpt>
      <trkpt lat="39.75274" lon="30.50764">
        <ele>827.733035</ele>
        <time>2021-11-17T01:28:25.700Z</time>
      </trkpt>
      <trkpt lat="39.75276" lon="30.50763">
        <ele>827.681354</ele>
        <time>2021-11-17T01:28:25.953Z</time>
      </trkpt>
      <trkpt lat="39.7528" lon="30.50757">
        <ele>827.481498</ele>
        <time>2021-11-17T01:28:27.006Z</time>
      </trkpt>
      <trkpt lat="39.7528" lon="30.50752">
        <ele>827.372277</ele>
        <time>2021-11-17T01:28:27.549Z</time>
      </trkpt>
      <trkpt lat="39.75279" lon="30.50748">
        <ele>827.263707</ele>
        <time>2021-11-17T01:28:28.102Z</time>
      </trkpt>
      <trkpt lat="39.7529" lon="30.50739">
        <ele>826.827403</ele>
        <time>2021-11-17T01:28:30.342Z</time>
      </trkpt>
      <trkpt lat="39.7531" lon="30.50722">
        <ele>826.080957</ele>
        <time>2021-11-17T01:28:34.170Z</time>
      </trkpt>
      <trkpt lat="39.75351" lon="30.50683">
        <ele>824.534896</ele>
        <time>2021-11-17T01:28:42.478Z</time>
      </trkpt>
      <trkpt lat="39.7537" lon="30.50664">
        <ele>823.802868</ele>
        <time>2021-11-17T01:28:46.401Z</time>
      </trkpt>
      <trkpt lat="39.75394" lon="30.50644">
        <ele>822.916158</ele>
        <time>2021-11-17T01:28:51.201Z</time>
      </trkpt>
      <trkpt lat="39.75397" lon="30.50642">
        <ele>822.811032</ele>
        <time>2021-11-17T01:28:51.730Z</time>
      </trkpt>
      <trkpt lat="39.75403" lon="30.50638">
        <ele>822.620929</ele>
        <time>2021-11-17T01:28:52.700Z</time>
      </trkpt>
      <trkpt lat="39.75426" lon="30.50616">
        <ele>821.750259</ele>
        <time>2021-11-17T01:28:57.408Z</time>
      </trkpt>
      <trkpt lat="39.7543" lon="30.50612">
        <ele>821.596246</ele>
        <time>2021-11-17T01:28:58.176Z</time>
      </trkpt>
      <trkpt lat="39.75438" lon="30.50605">
        <ele>821.297947</ele>
        <time>2021-11-17T01:28:59.849Z</time>
      </trkpt>
      <trkpt lat="39.75479" lon="30.50567">
        <ele>819.797907</ele>
        <time>2021-11-17T01:29:08.319Z</time>
      </trkpt>
      <trkpt lat="39.75488" lon="30.50558">
        <ele>819.491933</ele>
        <time>2021-11-17T01:29:10.087Z</time>
      </trkpt>
      <trkpt lat="39.75513" lon="30.50539">
        <ele>818.698383</ele>
        <time>2021-11-17T01:29:14.994Z</time>
      </trkpt>
      <trkpt lat="39.75519" lon="30.50532">
        <ele>818.467447</ele>
        <time>2021-11-17T01:29:16.287Z</time>
      </trkpt>
      <trkpt lat="39.75556" lon="30.50509">
        <ele>817.338398</ele>
        <time>2021-11-17T01:29:23.062Z</time>
      </trkpt>
      <trkpt lat="39.75565" lon="30.50501">
        <ele>817.054564</ele>
        <time>2021-11-17T01:29:24.789Z</time>
      </trkpt>
      <trkpt lat="39.75609" lon="30.50482">
        <ele>815.759479</ele>
        <time>2021-11-17T01:29:32.754Z</time>
      </trkpt>
      <trkpt lat="39.75642" lon="30.50473">
        <ele>814.922482</ele>
        <time>2021-11-17T01:29:38.366Z</time>
      </trkpt>
      <trkpt lat="39.7571" lon="30.50455">
        <ele>813.403532</ele>
        <time>2021-11-17T01:29:50.501Z</time>
      </trkpt>
      <trkpt lat="39.75715" lon="30.50454">
        <ele>813.289131</ele>
        <time>2021-11-17T01:29:51.705Z</time>
      </trkpt>
      <trkpt lat="39.7578" lon="30.50436">
        <ele>811.856522</ele>
        <time>2021-11-17T01:30:03.119Z</time>
      </trkpt>
      <trkpt lat="39.75794" lon="30.50428">
        <ele>811.510973</ele>
        <time>2021-11-17T01:30:05.972Z</time>
      </trkpt>
      <trkpt lat="39.75798" lon="30.50425">
        <ele>811.420351</ele>
        <time>2021-11-17T01:30:06.663Z</time>
      </trkpt>
      <trkpt lat="39.75801" lon="30.50423">
        <ele>811.351654</ele>
        <time>2021-11-17T01:30:07.184Z</time>
      </trkpt>
      <trkpt lat="39.75839" lon="30.50398">
        <ele>810.396039</ele>
        <time>2021-11-17T01:30:14.519Z</time>
      </trkpt>
      <trkpt lat="39.75876" lon="30.5037">
        <ele>809.454942</ele>
        <time>2021-11-17T01:30:22.021Z</time>
      </trkpt>
      <trkpt lat="39.75915" lon="30.50342">
        <ele>808.45851</ele>
        <time>2021-11-17T01:30:29.718Z</time>
      </trkpt>
      <trkpt lat="39.75921" lon="30.50342">
        <ele>808.311906</ele>
        <time>2021-11-17T01:30:30.885Z</time>
      </trkpt>
      <trkpt lat="39.75931" lon="30.50339">
        <ele>808.102257</ele>
        <time>2021-11-17T01:30:32.444Z</time>
      </trkpt>
      <trkpt lat="39.75955" lon="30.50319">
        <ele>807.456805</ele>
        <time>2021-11-17T01:30:37.598Z</time>
      </trkpt>
      <trkpt lat="39.7597" lon="30.50308">
        <ele>807.177391</ele>
        <time>2021-11-17T01:30:40.730Z</time>
      </trkpt>
      <trkpt lat="39.75988" lon="30.50296">
        <ele>806.91941</ele>
        <time>2021-11-17T01:30:44.552Z</time>
      </trkpt>
      <trkpt lat="39.75998" lon="30.5029">
        <ele>806.780569</ele>
        <time>2021-11-17T01:30:46.556Z</time>
      </trkpt>
      <trkpt lat="39.76003" lon="30.50286">
        <ele>806.699911</ele>
        <time>2021-11-17T01:30:47.732Z</time>
      </trkpt>
      <trkpt lat="39.76017" lon="30.50278">
        <ele>806.505083</ele>
        <time>2021-11-17T01:30:51.487Z</time>
      </trkpt>
      <trkpt lat="39.76022" lon="30.50275">
        <ele>806.43632</ele>
        <time>2021-11-17T01:30:52.526Z</time>
      </trkpt>
      <trkpt lat="39.76023" lon="30.50274">
        <ele>806.416576</ele>
        <time>2021-11-17T01:30:52.788Z</time>
      </trkpt>
      <trkpt lat="39.76059" lon="30.5026">
        <ele>805.925765</ele>
        <time>2021-11-17T01:31:00.177Z</time>
      </trkpt>
      <trkpt lat="39.76079" lon="30.50252">
        <ele>805.667564</ele>
        <time>2021-11-17T01:31:04.190Z</time>
      </trkpt>
      <trkpt lat="39.76098" lon="30.50244">
        <ele>805.399503</ele>
        <time>2021-11-17T01:31:08.618Z</time>
      </trkpt>
      <trkpt lat="39.76129" lon="30.50224">
        <ele>804.972625</ele>
        <time>2021-11-17T01:31:16.348Z</time>
      </trkpt>
      <trkpt lat="39.76168" lon="30.50198">
        <ele>804.601059</ele>
        <time>2021-11-17T01:31:25.492Z</time>
      </trkpt>
      <trkpt lat="39.76183" lon="30.50185">
        <ele>804.447608</ele>
        <time>2021-11-17T01:31:29.349Z</time>
      </trkpt>
      <trkpt lat="39.76215" lon="30.50156">
        <ele>804.118885</ele>
        <time>2021-11-17T01:31:37.559Z</time>
      </trkpt>
      <trkpt lat="39.76227" lon="30.50145">
        <ele>803.994144</ele>
        <time>2021-11-17T01:31:40.617Z</time>
      </trkpt>
      <trkpt lat="39.76243" lon="30.50138">
        <ele>803.849449</ele>
        <time>2021-11-17T01:31:44.029Z</time>
      </trkpt>
      <trkpt lat="39.76242" lon="30.50134">
        <ele>803.825181</ele>
        <time>2021-11-17T01:31:44.648Z</time>
      </trkpt>
      <trkpt lat="39.76241" lon="30.5013">
        <ele>803.79363</ele>
        <time>2021-11-17T01:31:45.392Z</time>
      </trkpt>
      <trkpt lat="39.7624" lon="30.50127">
        <ele>803.775725</ele>
        <time>2021-11-17T01:31:45.932Z</time>
      </trkpt>
      <trkpt lat="39.76231" lon="30.50099">
        <ele>803.576551</ele>
        <time>2021-11-17T01:31:50.466Z</time>
      </trkpt>
      <trkpt lat="39.76228" lon="30.50088">
        <ele>803.503747</ele>
        <time>2021-11-17T01:31:52.125Z</time>
      </trkpt>
      <trkpt lat="39.76222" lon="30.50067">
        <ele>803.274122</ele>
        <time>2021-11-17T01:31:55.464Z</time>
      </trkpt>
      <trkpt lat="39.76194" lon="30.49952">
        <ele>801.939959</ele>
        <time>2021-11-17T01:32:13.427Z</time>
      </trkpt>
      <trkpt lat="39.76182" lon="30.49897">
        <ele>801.311079</ele>
        <time>2021-11-17T01:32:21.576Z</time>
      </trkpt>
      <trkpt lat="39.76174" lon="30.49861">
        <ele>800.901986</ele>
        <time>2021-11-17T01:32:27.131Z</time>
      </trkpt>
      <trkpt lat="39.76177" lon="30.4986">
        <ele>800.870902</ele>
        <time>2021-11-17T01:32:27.852Z</time>
      </trkpt>
      <trkpt lat="39.76172" lon="30.49838">
        <ele>800.73433</ele>
        <time>2021-11-17T01:32:40.280Z</time>
      </trkpt>
      <trkpt lat="39.76137" lon="30.49736">
        <ele>800.077077</ele>
        <time>2021-11-17T01:32:58.335Z</time>
      </trkpt>
      <trkpt lat="39.76113" lon="30.49657">
        <ele>799.578261</ele>
        <time>2021-11-17T01:33:12.708Z</time>
      </trkpt>
      <trkpt lat="39.76072" lon="30.49525">
        <ele>798.640217</ele>
        <time>2021-11-17T01:33:34.941Z</time>
      </trkpt>
      <trkpt lat="39.76082" lon="30.49521">
        <ele>798.552384</ele>
        <time>2021-11-17T01:33:36.964Z</time>
      </trkpt>
      <trkpt lat="39.76115" lon="30.49499">
        <ele>798.232882</ele>
        <time>2021-11-17T01:33:44.534Z</time>
      </trkpt>
      <trkpt lat="39.76138" lon="30.49488">
        <ele>798.018836</ele>
        <time>2021-11-17T01:33:49.699Z</time>
      </trkpt>
      <trkpt lat="39.76171" lon="30.49469">
        <ele>797.80522</ele>
        <time>2021-11-17T01:33:57.009Z</time>
      </trkpt>
      <trkpt lat="39.76204" lon="30.49452">
        <ele>797.608295</ele>
        <time>2021-11-17T01:34:04.256Z</time>
      </trkpt>
      <trkpt lat="39.76261" lon="30.49426">
        <ele>797.272211</ele>
        <time>2021-11-17T01:34:16.773Z</time>
      </trkpt>
      <trkpt lat="39.76331" lon="30.49397">
        <ele>797.076199</ele>
        <time>2021-11-17T01:34:33.314Z</time>
      </trkpt>
      <trkpt lat="39.76307" lon="30.493">
        <ele>797.473018</ele>
        <time>2021-11-17T01:34:53.792Z</time>
      </trkpt>
      <trkpt lat="39.76289" lon="30.49228">
        <ele>797.767008</ele>
        <time>2021-11-17T01:35:08.722Z</time>
      </trkpt>
      <trkpt lat="39.76275" lon="30.4917">
        <ele>797.984165</ele>
        <time>2021-11-17T01:35:20.634Z</time>
      </trkpt>
      <trkpt lat="39.7635" lon="30.49111">
        <ele>798.346881</ele>
        <time>2021-11-17T01:35:42.764Z</time>
      </trkpt>
      <trkpt lat="39.76406" lon="30.49066">
        <ele>798.622535</ele>
        <time>2021-11-17T01:35:59.237Z</time>
      </trkpt>
      <trkpt lat="39.7645" lon="30.49033">
        <ele>798.319896</ele>
        <time>2021-11-17T01:36:10.767Z</time>
      </trkpt>
      <trkpt lat="39.76463" lon="30.49028">
        <ele>798.233975</ele>
        <time>2021-11-17T01:36:13.514Z</time>
      </trkpt>
      <trkpt lat="39.76486" lon="30.49012">
        <ele>798.060986</ele>
        <time>2021-11-17T01:36:18.980Z</time>
      </trkpt>
      <trkpt lat="39.76519" lon="30.48991">
        <ele>797.814387</ele>
        <time>2021-11-17T01:36:26.556Z</time>
      </trkpt>
      <trkpt lat="39.76545" lon="30.48974">
        <ele>797.621673</ele>
        <time>2021-11-17T01:36:32.378Z</time>
      </trkpt>
      <trkpt lat="39.76594" lon="30.48941">
        <ele>797.11327</ele>
        <time>2021-11-17T01:36:43.195Z</time>
      </trkpt>
      <trkpt lat="39.76595" lon="30.4894">
        <ele>797.092343</ele>
        <time>2021-11-17T01:36:43.530Z</time>
      </trkpt>
      <trkpt lat="39.76605" lon="30.48932">
        <ele>796.948356</ele>
        <time>2021-11-17T01:36:45.875Z</time>
      </trkpt>
      <trkpt lat="39.76631" lon="30.48914">
        <ele>796.605821</ele>
        <time>2021-11-17T01:36:51.348Z</time>
      </trkpt>
      <trkpt lat="39.76701" lon="30.48854">
        <ele>795.603641</ele>
        <time>2021-11-17T01:37:07.615Z</time>
      </trkpt>
      <trkpt lat="39.76798" lon="30.48776">
        <ele>795.195312</ele>
        <time>2021-11-17T01:37:32.221Z</time>
      </trkpt>
      <trkpt lat="39.76857" lon="30.48724">
        <ele>795.108134</ele>
        <time>2021-11-17T01:37:49.389Z</time>
      </trkpt>
      <trkpt lat="39.76907" lon="30.48684">
        <ele>795.36217</ele>
        <time>2021-11-17T01:38:04.212Z</time>
      </trkpt>
      <trkpt lat="39.76884" lon="30.48622">
        <ele>795.743109</ele>
        <time>2021-11-17T01:38:18.479Z</time>
      </trkpt>
      <trkpt lat="39.76903" lon="30.48608">
        <ele>795.899107</ele>
        <time>2021-11-17T01:38:24.374Z</time>
      </trkpt>
      <trkpt lat="39.76908" lon="30.48604">
        <ele>795.944287</ele>
        <time>2021-11-17T01:38:26.115Z</time>
      </trkpt>
      <trkpt lat="39.7692" lon="30.48593">
        <ele>796.04614</ele>
        <time>2021-11-17T01:38:30.015Z</time>
      </trkpt>
      <trkpt lat="39.76926" lon="30.48589">
        <ele>796.096857</ele>
        <time>2021-11-17T01:38:31.851Z</time>
      </trkpt>
      <trkpt lat="39.77068" lon="30.4847">
        <ele>796.700466</ele>
        <time>2021-11-17T01:39:12.995Z</time>
      </trkpt>
      <trkpt lat="39.76974" lon="30.48353">
        <ele>796.450497</ele>
        <time>2021-11-17T01:39:39.961Z</time>
      </trkpt>
      <trkpt lat="39.76944" lon="30.4832">
        <ele>796.268058</ele>
        <time>2021-11-17T01:39:47.751Z</time>
      </trkpt>
      <trkpt lat="39.76933" lon="30.48309">
        <ele>796.203798</ele>
        <time>2021-11-17T01:39:50.517Z</time>
      </trkpt>
      <trkpt lat="39.76881" lon="30.48262">
        <ele>795.995122</ele>
        <time>2021-11-17T01:40:03.604Z</time>
      </trkpt>
      <trkpt lat="39.76866" lon="30.4824">
        <ele>796.005154</ele>
        <time>2021-11-17T01:40:08.431Z</time>
      </trkpt>
      <trkpt lat="39.76858" lon="30.48208">
        <ele>796.016633</ele>
        <time>2021-11-17T01:40:14.058Z</time>
      </trkpt>
      <trkpt lat="39.76857" lon="30.48191">
        <ele>796.022441</ele>
        <time>2021-11-17T01:40:16.952Z</time>
      </trkpt>
      <trkpt lat="39.76864" lon="30.48152">
        <ele>796.036122</ele>
        <time>2021-11-17T01:40:24.192Z</time>
      </trkpt>
      <trkpt lat="39.76885" lon="30.48096">
        <ele>796.057278</ele>
        <time>2021-11-17T01:40:35.358Z</time>
      </trkpt>
      <trkpt lat="39.76896" lon="30.48071">
        <ele>796.067314</ele>
        <time>2021-11-17T01:40:40.630Z</time>
      </trkpt>
      <trkpt lat="39.76901" lon="30.4806">
        <ele>796.09626</ele>
        <time>2021-11-17T01:40:42.706Z</time>
      </trkpt>
      <trkpt lat="39.76926" lon="30.48006">
        <ele>796.255435</ele>
        <time>2021-11-17T01:40:53.857Z</time>
      </trkpt>
      <trkpt lat="39.76931" lon="30.47999">
        <ele>796.278299</ele>
        <time>2021-11-17T01:40:55.539Z</time>
      </trkpt>
      <trkpt lat="39.77025" lon="30.47844">
        <ele>796.798871</ele>
        <time>2021-11-17T01:41:32.063Z</time>
      </trkpt>
      <trkpt lat="39.77057" lon="30.47794">
        <ele>796.992838</ele>
        <time>2021-11-17T01:41:43.975Z</time>
      </trkpt>
      <trkpt lat="39.77079" lon="30.47764">
        <ele>797.114989</ele>
        <time>2021-11-17T01:41:51.397Z</time>
      </trkpt>
      <trkpt lat="39.77092" lon="30.47752">
        <ele>797.177779</ele>
        <time>2021-11-17T01:41:55.274Z</time>
      </trkpt>
      <trkpt lat="39.7713" lon="30.47711">
        <ele>797.356666</ele>
        <time>2021-11-17T01:42:06.724Z</time>
      </trkpt>
      <trkpt lat="39.77162" lon="30.47669">
        <ele>797.391967</ele>
        <time>2021-11-17T01:42:17.312Z</time>
      </trkpt>
      <trkpt lat="39.77193" lon="30.47627">
        <ele>797.426365</ele>
        <time>2021-11-17T01:42:27.923Z</time>
      </trkpt>
      <trkpt lat="39.77219" lon="30.47591">
        <ele>797.455705</ele>
        <time>2021-11-17T01:42:36.301Z</time>
      </trkpt>
      <trkpt lat="39.77222" lon="30.47579">
        <ele>797.462787</ele>
        <time>2021-11-17T01:42:38.252Z</time>
      </trkpt>
      <trkpt lat="39.77229" lon="30.47571">
        <ele>797.470028</ele>
        <time>2021-11-17T01:42:40.252Z</time>
      </trkpt>
      <trkpt lat="39.77259" lon="30.4753">
        <ele>797.484505</ele>
        <time>2021-11-17T01:42:49.488Z</time>
      </trkpt>
      <trkpt lat="39.77271" lon="30.47514">
        <ele>797.475457</ele>
        <time>2021-11-17T01:42:53.275Z</time>
      </trkpt>
      <trkpt lat="39.7729" lon="30.47489">
        <ele>797.461911</ele>
        <time>2021-11-17T01:42:59.101Z</time>
      </trkpt>
      <trkpt lat="39.77292" lon="30.47486">
        <ele>797.46019</ele>
        <time>2021-11-17T01:42:59.846Z</time>
      </trkpt>
      <trkpt lat="39.77399" lon="30.47369">
        <ele>797.361538</ele>
        <time>2021-11-17T01:43:31.164Z</time>
      </trkpt>
      <trkpt lat="39.77449" lon="30.47319">
        <ele>797.252178</ele>
        <time>2021-11-17T01:43:44.903Z</time>
      </trkpt>
      <trkpt lat="39.7752" lon="30.47245">
        <ele>797.093802</ele>
        <time>2021-11-17T01:44:04.403Z</time>
      </trkpt>
      <trkpt lat="39.77524" lon="30.47241">
        <ele>797.084123</ele>
        <time>2021-11-17T01:44:05.319Z</time>
      </trkpt>
      <trkpt lat="39.77526" lon="30.47238">
        <ele>797.07144</ele>
        <time>2021-11-17T01:44:06.054Z</time>
      </trkpt>
      <trkpt lat="39.77539" lon="30.47222">
        <ele>797.008093</ele>
        <time>2021-11-17T01:44:09.699Z</time>
      </trkpt>
      <trkpt lat="39.77542" lon="30.47219">
        <ele>796.994219</ele>
        <time>2021-11-17T01:44:10.487Z</time>
      </trkpt>
      <trkpt lat="39.77516" lon="30.4719">
        <ele>796.869232</ele>
        <time>2021-11-17T01:44:17.592Z</time>
      </trkpt>
      <trkpt lat="39.775" lon="30.47173">
        <ele>796.793329</ele>
        <time>2021-11-17T01:44:21.965Z</time>
      </trkpt>
      <trkpt lat="39.77488" lon="30.47159">
        <ele>796.73586</ele>
        <time>2021-11-17T01:44:25.308Z</time>
      </trkpt>
      <trkpt lat="39.77477" lon="30.47148">
        <ele>796.686567</ele>
        <time>2021-11-17T01:44:28.196Z</time>
      </trkpt>
      <trkpt lat="39.77442" lon="30.4711">
        <ele>796.523709</ele>
        <time>2021-11-17T01:44:37.670Z</time>
      </trkpt>
      <trkpt lat="39.77432" lon="30.47095">
        <ele>796.465906</ele>
        <time>2021-11-17T01:44:41.112Z</time>
      </trkpt>
      <trkpt lat="39.77414" lon="30.4706">
        <ele>796.379371</ele>
        <time>2021-11-17T01:44:47.752Z</time>
      </trkpt>
      <trkpt lat="39.77413" lon="30.47057">
        <ele>796.372034</ele>
        <time>2021-11-17T01:44:48.479Z</time>
      </trkpt>
      <trkpt lat="39.77403" lon="30.47028">
        <ele>796.31391</ele>
        <time>2021-11-17T01:44:53.397Z</time>
      </trkpt>
      <trkpt lat="39.77394" lon="30.46976">
        <ele>796.216267</ele>
        <time>2021-11-17T01:45:01.780Z</time>
      </trkpt>
      <trkpt lat="39.77391" lon="30.46961">
        <ele>796.186916</ele>
        <time>2021-11-17T01:45:04.430Z</time>
      </trkpt>
      <trkpt lat="39.77382" lon="30.46905">
        <ele>796.080699</ele>
        <time>2021-11-17T01:45:14.260Z</time>
      </trkpt>
      <trkpt lat="39.77381" lon="30.46853">
        <ele>796.021251</ele>
        <time>2021-11-17T01:45:23.222Z</time>
      </trkpt>
      <trkpt lat="39.77382" lon="30.46808">
        <ele>796.0905</ele>
        <time>2021-11-17T01:45:30.704Z</time>
      </trkpt>
      <trkpt lat="39.77382" lon="30.46782">
        <ele>796.129516</ele>
        <time>2021-11-17T01:45:34.975Z</time>
      </trkpt>
      <trkpt lat="39.77385" lon="30.46757">
        <ele>796.168287</ele>
        <time>2021-11-17T01:45:39.238Z</time>
      </trkpt>
      <trkpt lat="39.77389" lon="30.4671">
        <ele>796.241381</ele>
        <time>2021-11-17T01:45:47.611Z</time>
      </trkpt>
      <trkpt lat="39.77394" lon="30.46665">
        <ele>796.311645</ele>
        <time>2021-11-17T01:45:55.972Z</time>
      </trkpt>
      <trkpt lat="39.77399" lon="30.46614">
        <ele>796.387092</ele>
        <time>2021-11-17T01:46:05.981Z</time>
      </trkpt>
      <trkpt lat="39.77402" lon="30.4658">
        <ele>796.433949</ele>
        <time>2021-11-17T01:46:12.954Z</time>
      </trkpt>
      <trkpt lat="39.77407" lon="30.46536">
        <ele>796.493981</ele>
        <time>2021-11-17T01:46:21.552Z</time>
      </trkpt>
      <trkpt lat="39.77409" lon="30.46516">
        <ele>796.520106</ele>
        <time>2021-11-17T01:46:25.015Z</time>
      </trkpt>
      <trkpt lat="39.77411" lon="30.46489">
        <ele>796.557233</ele>
        <time>2021-11-17T01:46:29.880Z</time>
      </trkpt>
      <trkpt lat="39.77414" lon="30.46446">
        <ele>796.614943</ele>
        <time>2021-11-17T01:46:37.426Z</time>
      </trkpt>
      <trkpt lat="39.77415" lon="30.46434">
        <ele>796.631272</ele>
        <time>2021-11-17T01:46:39.540Z</time>
      </trkpt>
      <trkpt lat="39.77419" lon="30.46399">
        <ele>796.677795</ele>
        <time>2021-11-17T01:46:45.810Z</time>
      </trkpt>
      <trkpt lat="39.77424" lon="30.46356">
        <ele>796.597033</ele>
        <time>2021-11-17T01:46:53.604Z</time>
      </trkpt>
      <trkpt lat="39.77428" lon="30.46312">
        <ele>796.514743</ele>
        <time>2021-11-17T01:47:01.075Z</time>
      </trkpt>
      <trkpt lat="39.77432" lon="30.46266">
        <ele>796.426077</ele>
        <time>2021-11-17T01:47:08.963Z</time>
      </trkpt>
      <trkpt lat="39.7744" lon="30.46192">
        <ele>796.28515</ele>
        <time>2021-11-17T01:47:21.303Z</time>
      </trkpt>
      <trkpt lat="39.77443" lon="30.46098">
        <ele>796.268289</ele>
        <time>2021-11-17T01:47:37.406Z</time>
      </trkpt>
      <trkpt lat="39.77445" lon="30.45948">
        <ele>796.339409</ele>
        <time>2021-11-17T01:48:05.317Z</time>
      </trkpt>
      <trkpt lat="39.77452" lon="30.4585">
        <ele>796.509302</ele>
        <time>2021-11-17T01:48:23.593Z</time>
      </trkpt>
      <trkpt lat="39.77482" lon="30.45685">
        <ele>796.845449</ele>
        <time>2021-11-17T01:48:54.953Z</time>
      </trkpt>
      <trkpt lat="39.77488" lon="30.45658">
        <ele>796.901605</ele>
        <time>2021-11-17T01:49:00.226Z</time>
      </trkpt>
      <trkpt lat="39.77492" lon="30.45608">
        <ele>797.004386</ele>
        <time>2021-11-17T01:49:09.455Z</time>
      </trkpt>
      <trkpt lat="39.77494" lon="30.4556">
        <ele>797.102848</ele>
        <time>2021-11-17T01:49:18.177Z</time>
      </trkpt>
      <trkpt lat="39.77495" lon="30.45532">
        <ele>797.158618</ele>
        <time>2021-11-17T01:49:22.942Z</time>
      </trkpt>
      <trkpt lat="39.77494" lon="30.45466">
        <ele>797.281493</ele>
        <time>2021-11-17T01:49:34.795Z</time>
      </trkpt>
      <trkpt lat="39.7749" lon="30.45423">
        <ele>797.259833</ele>
        <time>2021-11-17T01:49:42.319Z</time>
      </trkpt>
      <trkpt lat="39.77489" lon="30.45408">
        <ele>797.252148</ele>
        <time>2021-11-17T01:49:44.926Z</time>
      </trkpt>
      <trkpt lat="39.77483" lon="30.4536">
        <ele>797.227888</ele>
        <time>2021-11-17T01:49:53.251Z</time>
      </trkpt>
      <trkpt lat="39.77475" lon="30.4531">
        <ele>797.202339</ele>
        <time>2021-11-17T01:50:02.065Z</time>
      </trkpt>
      <trkpt lat="39.7747" lon="30.4527">
        <ele>797.181933</ele>
        <time>2021-11-17T01:50:08.779Z</time>
      </trkpt>
      <trkpt lat="39.77467" lon="30.45238">
        <ele>797.165311</ele>
        <time>2021-11-17T01:50:13.786Z</time>
      </trkpt>
      <trkpt lat="39.7746" lon="30.45161">
        <ele>797.090822</ele>
        <time>2021-11-17T01:50:26.069Z</time>
      </trkpt>
      <trkpt lat="39.77459" lon="30.45156">
        <ele>797.086117</ele>
        <time>2021-11-17T01:50:26.829Z</time>
      </trkpt>
      <trkpt lat="39.77454" lon="30.45125">
        <ele>797.056245</ele>
        <time>2021-11-17T01:50:31.941Z</time>
      </trkpt>
      <trkpt lat="39.7745" lon="30.4507">
        <ele>797.003528</ele>
        <time>2021-11-17T01:50:41.426Z</time>
      </trkpt>
      <trkpt lat="39.77449" lon="30.45024">
        <ele>796.958721</ele>
        <time>2021-11-17T01:50:49.807Z</time>
      </trkpt>
      <trkpt lat="39.77448" lon="30.44978">
        <ele>796.978079</ele>
        <time>2021-11-17T01:50:58.030Z</time>
      </trkpt>
      <trkpt lat="39.77447" lon="30.44934">
        <ele>797.032916</ele>
        <time>2021-11-17T01:51:05.869Z</time>
      </trkpt>
      <trkpt lat="39.77447" lon="30.44882">
        <ele>797.097357</ele>
        <time>2021-11-17T01:51:14.921Z</time>
      </trkpt>
      <trkpt lat="39.77444" lon="30.44839">
        <ele>797.150598</ele>
        <time>2021-11-17T01:51:22.520Z</time>
      </trkpt>
      <trkpt lat="39.77441" lon="30.44796">
        <ele>797.202827</ele>
        <time>2021-11-17T01:51:30.095Z</time>
      </trkpt>
      <trkpt lat="39.77435" lon="30.44723">
        <ele>797.18558</ele>
        <time>2021-11-17T01:51:43.044Z</time>
      </trkpt>
      <trkpt lat="39.77428" lon="30.4466">
        <ele>797.129093</ele>
        <time>2021-11-17T01:51:53.604Z</time>
      </trkpt>
      <trkpt lat="39.77421" lon="30.44561">
        <ele>797.039506</ele>
        <time>2021-11-17T01:52:09.491Z</time>
      </trkpt>
      <trkpt lat="39.77414" lon="30.44269">
        <ele>797.568142</ele>
        <time>2021-11-17T01:53:00.610Z</time>
      </trkpt>
      <trkpt lat="39.7742" lon="30.44245">
        <ele>797.773514</ele>
        <time>2021-11-17T01:53:05.626Z</time>
      </trkpt>
      <trkpt lat="39.77429" lon="30.44227">
        <ele>797.952224</ele>
        <time>2021-11-17T01:53:10.042Z</time>
      </trkpt>
      <trkpt lat="39.77482" lon="30.44175">
        <ele>798.653928</ele>
        <time>2021-11-17T01:53:27.751Z</time>
      </trkpt>
      <trkpt lat="39.7749" lon="30.44164">
        <ele>798.771945</ele>
        <time>2021-11-17T01:53:30.997Z</time>
      </trkpt>
      <trkpt lat="39.7751" lon="30.44126">
        <ele>799.155072</ele>
        <time>2021-11-17T01:53:41.266Z</time>
      </trkpt>
      <trkpt lat="39.77528" lon="30.44071">
        <ele>799.833782</ele>
        <time>2021-11-17T01:53:54.739Z</time>
      </trkpt>
      <trkpt lat="39.77539" lon="30.44">
        <ele>800.658305</ele>
        <time>2021-11-17T01:54:11.049Z</time>
      </trkpt>
      <trkpt lat="39.77554" lon="30.43898">
        <ele>801.854403</ele>
        <time>2021-11-17T01:54:33.407Z</time>
      </trkpt>
      <trkpt lat="39.77556" lon="30.43881">
        <ele>801.919402</ele>
        <time>2021-11-17T01:54:36.785Z</time>
      </trkpt>
      <trkpt lat="39.77563" lon="30.43839">
        <ele>802.086527</ele>
        <time>2021-11-17T01:54:45.095Z</time>
      </trkpt>
      <trkpt lat="39.77578" lon="30.43724">
        <ele>802.542518</ele>
        <time>2021-11-17T01:55:06.586Z</time>
      </trkpt>
      <trkpt lat="39.77593" lon="30.43616">
        <ele>802.977842</ele>
        <time>2021-11-17T01:55:25.353Z</time>
      </trkpt>
      <trkpt lat="39.77618" lon="30.43452">
        <ele>803.659396</ele>
        <time>2021-11-17T01:55:56.597Z</time>
      </trkpt>
      <trkpt lat="39.77641" lon="30.43289">
        <ele>805.158663</ele>
        <time>2021-11-17T01:56:31.836Z</time>
      </trkpt>
      <trkpt lat="39.77646" lon="30.43256">
        <ele>805.473888</ele>
        <time>2021-11-17T01:56:38.899Z</time>
      </trkpt>
      <trkpt lat="39.7765" lon="30.43231">
        <ele>805.72384</ele>
        <time>2021-11-17T01:56:44.613Z</time>
      </trkpt>
      <trkpt lat="39.77671" lon="30.43097">
        <ele>806.425391</ele>
        <time>2021-11-17T01:57:12.330Z</time>
      </trkpt>
      <trkpt lat="39.77702" lon="30.42834">
        <ele>806.52322</ele>
        <time>2021-11-17T01:57:58.121Z</time>
      </trkpt>
      <trkpt lat="39.77711" lon="30.42785">
        <ele>806.377203</ele>
        <time>2021-11-17T01:58:05.750Z</time>
      </trkpt>
      <trkpt lat="39.7776" lon="30.42612">
        <ele>804.971926</ele>
        <time>2021-11-17T01:58:32.290Z</time>
      </trkpt>
      <trkpt lat="39.77808" lon="30.42471">
        <ele>803.885835</ele>
        <time>2021-11-17T01:58:54.865Z</time>
      </trkpt>
      <trkpt lat="39.77901" lon="30.42076">
        <ele>802.351486</ele>
        <time>2021-11-17T02:00:01.339Z</time>
      </trkpt>
      <trkpt lat="39.77908" lon="30.42032">
        <ele>802.144907</ele>
        <time>2021-11-17T02:00:08.581Z</time>
      </trkpt>
      <trkpt lat="39.77913" lon="30.42006">
        <ele>802.025651</ele>
        <time>2021-11-17T02:00:12.714Z</time>
      </trkpt>
      <trkpt lat="39.77919" lon="30.41977">
        <ele>801.888607</ele>
        <time>2021-11-17T02:00:17.400Z</time>
      </trkpt>
      <trkpt lat="39.77936" lon="30.41932">
        <ele>801.659611</ele>
        <time>2021-11-17T02:00:25.173Z</time>
      </trkpt>
      <trkpt lat="39.77944" lon="30.41917">
        <ele>801.577278</ele>
        <time>2021-11-17T02:00:27.957Z</time>
      </trkpt>
      <trkpt lat="39.78003" lon="30.41803">
        <ele>800.919599</ele>
        <time>2021-11-17T02:00:49.164Z</time>
      </trkpt>
      <trkpt lat="39.78014" lon="30.41737">
        <ele>800.590938</ele>
        <time>2021-11-17T02:00:59.505Z</time>
      </trkpt>
      <trkpt lat="39.78027" lon="30.41627">
        <ele>800.169958</ele>
        <time>2021-11-17T02:01:16.889Z</time>
      </trkpt>
      <trkpt lat="39.78037" lon="30.4153">
        <ele>800.087112</ele>
        <time>2021-11-17T02:01:33.634Z</time>
      </trkpt>
      <trkpt lat="39.78074" lon="30.41202">
        <ele>800.249143</ele>
        <time>2021-11-17T02:02:31.568Z</time>
      </trkpt>
      <trkpt lat="39.78085" lon="30.41127">
        <ele>800.358966</ele>
        <time>2021-11-17T02:02:45.346Z</time>
      </trkpt>
      <trkpt lat="39.78125" lon="30.40902">
        <ele>800.636778</ele>
        <time>2021-11-17T02:03:26.026Z</time>
      </trkpt>
      <trkpt lat="39.78156" lon="30.40745">
        <ele>800.716514</ele>
        <time>2021-11-17T02:03:53.660Z</time>
      </trkpt>
      <trkpt lat="39.78198" lon="30.4053">
        <ele>801.588877</ele>
        <time>2021-11-17T02:04:34.328Z</time>
      </trkpt>
      <trkpt lat="39.78221" lon="30.40404">
        <ele>802.847568</ele>
        <time>2021-11-17T02:05:01.821Z</time>
      </trkpt>
      <trkpt lat="39.78238" lon="30.40328">
        <ele>803.699249</ele>
        <time>2021-11-17T02:05:18.980Z</time>
      </trkpt>
      <trkpt lat="39.7824" lon="30.40323">
        <ele>803.764768</ele>
        <time>2021-11-17T02:05:20.577Z</time>
      </trkpt>
      <trkpt lat="39.78242" lon="30.40319">
        <ele>803.816599</ele>
        <time>2021-11-17T02:05:21.817Z</time>
      </trkpt>
      <trkpt lat="39.7867" lon="30.39369">
        <ele>816.221341</ele>
        <time>2021-11-17T02:09:21.739Z</time>
      </trkpt>
      <trkpt lat="39.7872" lon="30.39252">
        <ele>816.86696</ele>
        <time>2021-11-17T02:09:46.452Z</time>
      </trkpt>
      <trkpt lat="39.78934" lon="30.38711">
        <ele>814.051236</ele>
        <time>2021-11-17T02:11:21.096Z</time>
      </trkpt>
      <trkpt lat="39.78979" lon="30.3863">
        <ele>813.173417</ele>
        <time>2021-11-17T02:11:35.292Z</time>
      </trkpt>
      <trkpt lat="39.7902" lon="30.38578">
        <ele>812.240056</ele>
        <time>2021-11-17T02:11:45.606Z</time>
      </trkpt>
      <trkpt lat="39.79147" lon="30.38441">
        <ele>809.770138</ele>
        <time>2021-11-17T02:12:15.369Z</time>
      </trkpt>
      <trkpt lat="39.79279" lon="30.38335">
        <ele>807.98934</ele>
        <time>2021-11-17T02:12:44.998Z</time>
      </trkpt>
      <trkpt lat="39.79348" lon="30.38264">
        <ele>807.349189</ele>
        <time>2021-11-17T02:13:02.523Z</time>
      </trkpt>
      <trkpt lat="39.79382" lon="30.38219">
        <ele>807.008086</ele>
        <time>2021-11-17T02:13:12.501Z</time>
      </trkpt>
      <trkpt lat="39.79409" lon="30.38173">
        <ele>806.97402</ele>
        <time>2021-11-17T02:13:21.743Z</time>
      </trkpt>
      <trkpt lat="39.79988" lon="30.37015">
        <ele>806.172618</ele>
        <time>2021-11-17T02:17:15.716Z</time>
      </trkpt>
      <trkpt lat="39.80058" lon="30.36838">
        <ele>805.983741</ele>
        <time>2021-11-17T02:17:48.579Z</time>
      </trkpt>
      <trkpt lat="39.80093" lon="30.3672">
        <ele>805.833606</ele>
        <time>2021-11-17T02:18:09.556Z</time>
      </trkpt>
      <trkpt lat="39.8012" lon="30.36602">
        <ele>805.720942</ele>
        <time>2021-11-17T02:18:30.224Z</time>
      </trkpt>
      <trkpt lat="39.80128" lon="30.36569">
        <ele>805.741854</ele>
        <time>2021-11-17T02:18:35.997Z</time>
      </trkpt>
      <trkpt lat="39.80146" lon="30.36283">
        <ele>806.135438</ele>
        <time>2021-11-17T02:19:26.663Z</time>
      </trkpt>
      <trkpt lat="39.80182" lon="30.35883">
        <ele>807.430777</ele>
        <time>2021-11-17T02:20:41.529Z</time>
      </trkpt>
      <trkpt lat="39.80192" lon="30.3582">
        <ele>807.570924</ele>
        <time>2021-11-17T02:20:53.107Z</time>
      </trkpt>
      <trkpt lat="39.80223" lon="30.35702">
        <ele>807.84696</ele>
        <time>2021-11-17T02:21:15.339Z</time>
      </trkpt>
      <trkpt lat="39.80274" lon="30.35539">
        <ele>807.883175</ele>
        <time>2021-11-17T02:21:45.431Z</time>
      </trkpt>
      <trkpt lat="39.80305" lon="30.35463">
        <ele>807.88581</ele>
        <time>2021-11-17T02:21:59.861Z</time>
      </trkpt>
      <trkpt lat="39.80519" lon="30.35012">
        <ele>808.148052</ele>
        <time>2021-11-17T02:23:29.676Z</time>
      </trkpt>
      <trkpt lat="39.8064" lon="30.34775">
        <ele>809.909178</ele>
        <time>2021-11-17T02:24:27.048Z</time>
      </trkpt>
      <trkpt lat="39.80649" lon="30.34763">
        <ele>810.037958</ele>
        <time>2021-11-17T02:24:30.389Z</time>
      </trkpt>
      <trkpt lat="39.80659" lon="30.34758">
        <ele>810.145597</ele>
        <time>2021-11-17T02:24:33.098Z</time>
      </trkpt>
      <trkpt lat="39.80662" lon="30.34758">
        <ele>810.175214</ele>
        <time>2021-11-17T02:24:34.226Z</time>
      </trkpt>
      <trkpt lat="39.80673" lon="30.34756">
        <ele>810.289668</ele>
        <time>2021-11-17T02:24:37.120Z</time>
      </trkpt>
      <trkpt lat="39.80698" lon="30.34754">
        <ele>810.546042</ele>
        <time>2021-11-17T02:24:43.961Z</time>
      </trkpt>
      <trkpt lat="39.80719" lon="30.34752">
        <ele>810.703767</ele>
        <time>2021-11-17T02:24:49.120Z</time>
      </trkpt>
      <trkpt lat="39.80738" lon="30.34729">
        <ele>810.80045</ele>
        <time>2021-11-17T02:24:56.310Z</time>
      </trkpt>
      <trkpt lat="39.80742" lon="30.34707">
        <ele>810.862914</ele>
        <time>2021-11-17T02:25:00.586Z</time>
      </trkpt>
      <trkpt lat="39.80739" lon="30.34679">
        <ele>810.942188</ele>
        <time>2021-11-17T02:25:06.242Z</time>
      </trkpt>
      <trkpt lat="39.80752" lon="30.34635">
        <ele>811.071088</ele>
        <time>2021-11-17T02:25:15.021Z</time>
      </trkpt>
      <trkpt lat="39.8077" lon="30.34585">
        <ele>811.226966</ele>
        <time>2021-11-17T02:25:24.413Z</time>
      </trkpt>
      <trkpt lat="39.80779" lon="30.34574">
        <ele>811.267868</ele>
        <time>2021-11-17T02:25:26.780Z</time>
      </trkpt>
      <trkpt lat="39.80786" lon="30.34575">
        <ele>811.294331</ele>
        <time>2021-11-17T02:25:28.304Z</time>
      </trkpt>
      <trkpt lat="39.80804" lon="30.34546">
        <ele>811.247669</ele>
        <time>2021-11-17T02:25:34.447Z</time>
      </trkpt>
      <trkpt lat="39.80804" lon="30.34544">
        <ele>811.241515</ele>
        <time>2021-11-17T02:25:34.757Z</time>
      </trkpt>
      <trkpt lat="39.8081" lon="30.34524">
        <ele>811.17501</ele>
        <time>2021-11-17T02:25:38.241Z</time>
      </trkpt>
      <trkpt lat="39.80828" lon="30.34501">
        <ele>811.075606</ele>
        <time>2021-11-17T02:25:43.713Z</time>
      </trkpt>
      <trkpt lat="39.80831" lon="30.34498">
        <ele>811.060333</ele>
        <time>2021-11-17T02:25:44.436Z</time>
      </trkpt>
      <trkpt lat="39.80848" lon="30.3447">
        <ele>810.949264</ele>
        <time>2021-11-17T02:25:50.676Z</time>
      </trkpt>
      <trkpt lat="39.80854" lon="30.3446">
        <ele>810.913297</ele>
        <time>2021-11-17T02:25:52.543Z</time>
      </trkpt>
      <trkpt lat="39.80858" lon="30.34448">
        <ele>810.873655</ele>
        <time>2021-11-17T02:25:54.782Z</time>
      </trkpt>
      <trkpt lat="39.80877" lon="30.34398">
        <ele>810.701906</ele>
        <time>2021-11-17T02:26:04.184Z</time>
      </trkpt>
      <trkpt lat="39.80946" lon="30.34303">
        <ele>810.361563</ele>
        <time>2021-11-17T02:26:26.051Z</time>
      </trkpt>
      <trkpt lat="39.81064" lon="30.34107">
        <ele>809.954795</ele>
        <time>2021-11-17T02:27:08.459Z</time>
      </trkpt>
      <trkpt lat="39.81112" lon="30.34056">
        <ele>809.901</ele>
        <time>2021-11-17T02:27:22.670Z</time>
      </trkpt>
      <trkpt lat="39.81367" lon="30.33858">
        <ele>810.84836</ele>
        <time>2021-11-17T02:28:36.114Z</time>
      </trkpt>
      <trkpt lat="39.81498" lon="30.33712">
        <ele>811.223283</ele>
        <time>2021-11-17T02:29:18.037Z</time>
      </trkpt>
      <trkpt lat="39.81699" lon="30.33453">
        <ele>811.140825</ele>
        <time>2021-11-17T02:30:22.368Z</time>
      </trkpt>
      <trkpt lat="39.81736" lon="30.33409">
        <ele>811.223095</ele>
        <time>2021-11-17T02:30:34.124Z</time>
      </trkpt>
      <trkpt lat="39.81769" lon="30.33379">
        <ele>811.288669</ele>
        <time>2021-11-17T02:30:43.637Z</time>
      </trkpt>
      <trkpt lat="39.8178" lon="30.33352">
        <ele>811.326895</ele>
        <time>2021-11-17T02:30:49.247Z</time>
      </trkpt>
      <trkpt lat="39.81804" lon="30.33325">
        <ele>811.378805</ele>
        <time>2021-11-17T02:30:56.938Z</time>
      </trkpt>
      <trkpt lat="39.81962" lon="30.33008">
        <ele>812.588998</ele>
        <time>2021-11-17T02:32:08.793Z</time>
      </trkpt>
      <trkpt lat="39.8202" lon="30.32862">
        <ele>813.436896</ele>
        <time>2021-11-17T02:32:41.899Z</time>
      </trkpt>
      <trkpt lat="39.82037" lon="30.32807">
        <ele>813.842754</ele>
        <time>2021-11-17T02:32:54.114Z</time>
      </trkpt>
      <trkpt lat="39.82053" lon="30.32758">
        <ele>814.20497</ele>
        <time>2021-11-17T02:33:05.185Z</time>
      </trkpt>
      <trkpt lat="39.82094" lon="30.32744">
        <ele>814.586582</ele>
        <time>2021-11-17T02:33:16.762Z</time>
      </trkpt>
      <trkpt lat="39.82088" lon="30.32709">
        <ele>814.822227</ele>
        <time>2021-11-17T02:33:24.002Z</time>
      </trkpt>
      <trkpt lat="39.82084" lon="30.32672">
        <ele>814.996214</ele>
        <time>2021-11-17T02:33:31.511Z</time>
      </trkpt>
      <trkpt lat="39.82087" lon="30.32619">
        <ele>815.247145</ele>
        <time>2021-11-17T02:33:42.304Z</time>
      </trkpt>
      <trkpt lat="39.82102" lon="30.32531">
        <ele>815.674968</ele>
        <time>2021-11-17T02:33:59.527Z</time>
      </trkpt>
      <trkpt lat="39.82126" lon="30.32463">
        <ele>816.056386</ele>
        <time>2021-11-17T02:34:13.928Z</time>
      </trkpt>
      <trkpt lat="39.82147" lon="30.3242">
        <ele>816.353063</ele>
        <time>2021-11-17T02:34:23.758Z</time>
      </trkpt>
      <trkpt lat="39.82167" lon="30.32387">
        <ele>816.603782</ele>
        <time>2021-11-17T02:34:32.050Z</time>
      </trkpt>
      <trkpt lat="39.82198" lon="30.32357">
        <ele>816.898386</ele>
        <time>2021-11-17T02:34:42.126Z</time>
      </trkpt>
      <trkpt lat="39.82235" lon="30.3233">
        <ele>817.225945</ele>
        <time>2021-11-17T02:34:53.691Z</time>
      </trkpt>
      <trkpt lat="39.8232" lon="30.32289">
        <ele>818.461083</ele>
        <time>2021-11-17T02:35:19.603Z</time>
      </trkpt>
      <trkpt lat="39.82358" lon="30.32281">
        <ele>819.008866</ele>
        <time>2021-11-17T02:35:30.888Z</time>
      </trkpt>
      <trkpt lat="39.82524" lon="30.32255">
        <ele>821.258206</ele>
        <time>2021-11-17T02:36:20.261Z</time>
      </trkpt>
      <trkpt lat="39.82533" lon="30.32262">
        <ele>821.39627</ele>
        <time>2021-11-17T02:36:23.037Z</time>
      </trkpt>
      <trkpt lat="39.82534" lon="30.32278">
        <ele>821.551978</ele>
        <time>2021-11-17T02:36:26.645Z</time>
      </trkpt>
      <trkpt lat="39.82631" lon="30.32233">
        <ele>822.491076</ele>
        <time>2021-11-17T02:36:53.310Z</time>
      </trkpt>
      <trkpt lat="39.82687" lon="30.32183">
        <ele>822.877796</ele>
        <time>2021-11-17T02:37:10.344Z</time>
      </trkpt>
      <trkpt lat="39.82724" lon="30.3215">
        <ele>823.136247</ele>
        <time>2021-11-17T02:37:21.343Z</time>
      </trkpt>
      <trkpt lat="39.82738" lon="30.32125">
        <ele>823.313569</ele>
        <time>2021-11-17T02:37:27.473Z</time>
      </trkpt>
      <trkpt lat="39.8275" lon="30.32122">
        <ele>823.431916</ele>
        <time>2021-11-17T02:37:30.634Z</time>
      </trkpt>
      <trkpt lat="39.82762" lon="30.3214">
        <ele>823.603462</ele>
        <time>2021-11-17T02:37:35.218Z</time>
      </trkpt>
      <trkpt lat="39.82793" lon="30.32127">
        <ele>823.921858</ele>
        <time>2021-11-17T02:37:43.961Z</time>
      </trkpt>
      <trkpt lat="39.82859" lon="30.32084">
        <ele>824.626644</ele>
        <time>2021-11-17T02:38:04.096Z</time>
      </trkpt>
      <trkpt lat="39.82868" lon="30.32077">
        <ele>824.731886</ele>
        <time>2021-11-17T02:38:07.328Z</time>
      </trkpt>
      <trkpt lat="39.82886" lon="30.32063">
        <ele>824.927773</ele>
        <time>2021-11-17T02:38:12.863Z</time>
      </trkpt>
      <trkpt lat="39.82885" lon="30.32035">
        <ele>825.359423</ele>
        <time>2021-11-17T02:38:19.027Z</time>
      </trkpt>
      <trkpt lat="39.82892" lon="30.32002">
        <ele>825.909143</ele>
        <time>2021-11-17T02:38:27.175Z</time>
      </trkpt>
      <trkpt lat="39.82891" lon="30.31965">
        <ele>826.489629</ele>
        <time>2021-11-17T02:38:35.527Z</time>
      </trkpt>
      <trkpt lat="39.82898" lon="30.3194">
        <ele>826.909973</ele>
        <time>2021-11-17T02:38:41.774Z</time>
      </trkpt>
      <trkpt lat="39.8291" lon="30.31917">
        <ele>827.353074</ele>
        <time>2021-11-17T02:38:48.498Z</time>
      </trkpt>
      <trkpt lat="39.82927" lon="30.31893">
        <ele>827.883005</ele>
        <time>2021-11-17T02:38:56.216Z</time>
      </trkpt>
      <trkpt lat="39.82946" lon="30.31877">
        <ele>828.347022</ele>
        <time>2021-11-17T02:39:04.077Z</time>
      </trkpt>
      <trkpt lat="39.82973" lon="30.31864">
        <ele>829.071794</ele>
        <time>2021-11-17T02:39:13.982Z</time>
      </trkpt>
      <trkpt lat="39.83005" lon="30.31861">
        <ele>830.048094</ele>
        <time>2021-11-17T02:39:25.083Z</time>
      </trkpt>
      <trkpt lat="39.83064" lon="30.31868">
        <ele>831.881424</ele>
        <time>2021-11-17T02:39:45.772Z</time>
      </trkpt>
      <trkpt lat="39.83074" lon="30.31875">
        <ele>832.214245</ele>
        <time>2021-11-17T02:39:49.929Z</time>
      </trkpt>
      <trkpt lat="39.83088" lon="30.31884">
        <ele>832.702958</ele>
        <time>2021-11-17T02:39:55.550Z</time>
      </trkpt>
      <trkpt lat="39.83214" lon="30.3201">
        <ele>836.403615</ele>
        <time>2021-11-17T02:40:49.268Z</time>
      </trkpt>
      <trkpt lat="39.8323" lon="30.32023">
        <ele>836.781287</ele>
        <time>2021-11-17T02:40:54.035Z</time>
      </trkpt>
      <trkpt lat="39.83251" lon="30.32034">
        <ele>837.249929</ele>
        <time>2021-11-17T02:40:59.929Z</time>
      </trkpt>
      <trkpt lat="39.8327" lon="30.32043">
        <ele>837.660216</ele>
        <time>2021-11-17T02:41:04.482Z</time>
      </trkpt>
      <trkpt lat="39.83293" lon="30.3205">
        <ele>837.947573</ele>
        <time>2021-11-17T02:41:10.360Z</time>
      </trkpt>
      <trkpt lat="39.83323" lon="30.32058">
        <ele>838.203477</ele>
        <time>2021-11-17T02:41:18.071Z</time>
      </trkpt>
      <trkpt lat="39.83326" lon="30.32058">
        <ele>838.225267</ele>
        <time>2021-11-17T02:41:18.518Z</time>
      </trkpt>
      <trkpt lat="39.83333" lon="30.32037">
        <ele>838.374013</ele>
        <time>2021-11-17T02:41:22.913Z</time>
      </trkpt>
      <trkpt lat="39.83356" lon="30.3196">
        <ele>838.900399</ele>
        <time>2021-11-17T02:41:37.887Z</time>
      </trkpt>
      <trkpt lat="39.8352" lon="30.31435">
        <ele>845.424699</ele>
        <time>2021-11-17T02:43:44.566Z</time>
      </trkpt>
      <trkpt lat="39.83527" lon="30.31376">
        <ele>845.424175</ele>
        <time>2021-11-17T02:43:58.166Z</time>
      </trkpt>
      <trkpt lat="39.83748" lon="30.30673">
        <ele>845.421449</ele>
        <time>2021-11-17T02:46:01.847Z</time>
      </trkpt>
      <trkpt lat="39.83937" lon="30.30047">
        <ele>847.460612</ele>
        <time>2021-11-17T02:48:06.953Z</time>
      </trkpt>
      <trkpt lat="39.83956" lon="30.29982">
        <ele>847.640221</ele>
        <time>2021-11-17T02:48:19.322Z</time>
      </trkpt>
      <trkpt lat="39.8425" lon="30.29006">
        <ele>849.648994</ele>
        <time>2021-11-17T02:51:23.507Z</time>
      </trkpt>
      <trkpt lat="39.8429" lon="30.28907">
        <ele>850.742307</ele>
        <time>2021-11-17T02:51:48.727Z</time>
      </trkpt>
      <trkpt lat="39.84283" lon="30.28914">
        <ele>850.853915</ele>
        <time>2021-11-17T02:51:51.193Z</time>
      </trkpt>
      <trkpt lat="39.8428" lon="30.28914">
        <ele>850.894773</ele>
        <time>2021-11-17T02:51:52.090Z</time>
      </trkpt>
      <trkpt lat="39.84278" lon="30.28908">
        <ele>850.963772</ele>
        <time>2021-11-17T02:51:53.508Z</time>
      </trkpt>
      <trkpt lat="39.84315" lon="30.2879">
        <ele>851.45954</ele>
        <time>2021-11-17T02:52:22.178Z</time>
      </trkpt>
      <trkpt lat="39.84594" lon="30.27882">
        <ele>852.20549</ele>
        <time>2021-11-17T02:55:11.968Z</time>
      </trkpt>
      <trkpt lat="39.84635" lon="30.27704">
        <ele>850.158231</ele>
        <time>2021-11-17T02:55:36.746Z</time>
      </trkpt>
      <trkpt lat="39.84645" lon="30.27661">
        <ele>849.450707</ele>
        <time>2021-11-17T02:55:42.587Z</time>
      </trkpt>
      <trkpt lat="39.84661" lon="30.27586">
        <ele>848.23349</ele>
        <time>2021-11-17T02:55:52.895Z</time>
      </trkpt>
      <trkpt lat="39.84694" lon="30.27413">
        <ele>847.000774</ele>
        <time>2021-11-17T02:56:19.133Z</time>
      </trkpt>
      <trkpt lat="39.84711" lon="30.27288">
        <ele>846.886694</ele>
        <time>2021-11-17T02:56:41.347Z</time>
      </trkpt>
      <trkpt lat="39.84733" lon="30.27106">
        <ele>848.145072</ele>
        <time>2021-11-17T02:57:18.216Z</time>
      </trkpt>
      <trkpt lat="39.84741" lon="30.27014">
        <ele>849.988201</ele>
        <time>2021-11-17T02:57:39.444Z</time>
      </trkpt>
      <trkpt lat="39.84761" lon="30.2687">
        <ele>852.997253</ele>
        <time>2021-11-17T02:58:18.223Z</time>
      </trkpt>
      <trkpt lat="39.84847" lon="30.25994">
        <ele>879.71843</ele>
        <time>2021-11-17T03:02:45.665Z</time>
      </trkpt>
      <trkpt lat="39.8504" lon="30.23977">
        <ele>860.339532</ele>
        <time>2021-11-17T03:07:33.381Z</time>
      </trkpt>
      <trkpt lat="39.85065" lon="30.23726">
        <ele>862.350189</ele>
        <time>2021-11-17T03:08:22.132Z</time>
      </trkpt>
      <trkpt lat="39.85099" lon="30.23384">
        <ele>872.184423</ele>
        <time>2021-11-17T03:10:06.888Z</time>
      </trkpt>
      <trkpt lat="39.85124" lon="30.23132">
        <ele>879.347186</ele>
        <time>2021-11-17T03:11:24.237Z</time>
      </trkpt>
      <trkpt lat="39.8514" lon="30.2301">
        <ele>879.401572</ele>
        <time>2021-11-17T03:11:47.651Z</time>
      </trkpt>
      <trkpt lat="39.8518" lon="30.22825">
        <ele>877.160511</ele>
        <time>2021-11-17T03:12:12.624Z</time>
      </trkpt>
      <trkpt lat="39.85204" lon="30.22741">
        <ele>875.183749</ele>
        <time>2021-11-17T03:12:23.651Z</time>
      </trkpt>
      <trkpt lat="39.85239" lon="30.22645">
        <ele>873.326216</ele>
        <time>2021-11-17T03:12:37.134Z</time>
      </trkpt>
      <trkpt lat="39.85288" lon="30.22519">
        <ele>871.281708</ele>
        <time>2021-11-17T03:12:56.493Z</time>
      </trkpt>
      <trkpt lat="39.85346" lon="30.22397">
        <ele>871.381684</ele>
        <time>2021-11-17T03:13:20.382Z</time>
      </trkpt>
      <trkpt lat="39.85469" lon="30.22199">
        <ele>873.343357</ele>
        <time>2021-11-17T03:14:15.659Z</time>
      </trkpt>
      <trkpt lat="39.86163" lon="30.21218">
        <ele>885.553759</ele>
        <time>2021-11-17T03:18:51.851Z</time>
      </trkpt>
      <trkpt lat="39.86429" lon="30.20838">
        <ele>889.963008</ele>
        <time>2021-11-17T03:20:36.777Z</time>
      </trkpt>
      <trkpt lat="39.86515" lon="30.20714">
        <ele>891.74432</ele>
        <time>2021-11-17T03:21:12.420Z</time>
      </trkpt>
      <trkpt lat="39.86573" lon="30.20631">
        <ele>893.29294</ele>
        <time>2021-11-17T03:21:37.268Z</time>
      </trkpt>
      <trkpt lat="39.8662" lon="30.20543">
        <ele>895.023262</ele>
        <time>2021-11-17T03:22:02.643Z</time>
      </trkpt>
      <trkpt lat="39.86632" lon="30.2052">
        <ele>895.656694</ele>
        <time>2021-11-17T03:22:09.332Z</time>
      </trkpt>
      <trkpt lat="39.86656" lon="30.20498">
        <ele>896.542347</ele>
        <time>2021-11-17T03:22:18.800Z</time>
      </trkpt>
      <trkpt lat="39.86676" lon="30.20485">
        <ele>897.211645</ele>
        <time>2021-11-17T03:22:26.656Z</time>
      </trkpt>
      <trkpt lat="39.86688" lon="30.20486">
        <ele>897.576306</ele>
        <time>2021-11-17T03:22:30.759Z</time>
      </trkpt>
      <trkpt lat="39.86701" lon="30.2049">
        <ele>897.981671</ele>
        <time>2021-11-17T03:22:35.287Z</time>
      </trkpt>
      <trkpt lat="39.86716" lon="30.20497">
        <ele>898.467395</ele>
        <time>2021-11-17T03:22:41.525Z</time>
      </trkpt>
      <trkpt lat="39.86736" lon="30.20519">
        <ele>899.249097</ele>
        <time>2021-11-17T03:22:50.635Z</time>
      </trkpt>
      <trkpt lat="39.86741" lon="30.20535">
        <ele>899.640907</ele>
        <time>2021-11-17T03:22:55.765Z</time>
      </trkpt>
      <trkpt lat="39.86741" lon="30.20548">
        <ele>900.007735</ele>
        <time>2021-11-17T03:22:59.474Z</time>
      </trkpt>
      <trkpt lat="39.86737" lon="30.20558">
        <ele>900.327166</ele>
        <time>2021-11-17T03:23:02.339Z</time>
      </trkpt>
      <trkpt lat="39.86734" lon="30.20565">
        <ele>900.590241</ele>
        <time>2021-11-17T03:23:05.213Z</time>
      </trkpt>
      <trkpt lat="39.86749" lon="30.2056">
        <ele>901.199567</ele>
        <time>2021-11-17T03:23:10.959Z</time>
      </trkpt>
      <trkpt lat="39.86762" lon="30.20552">
        <ele>901.766018</ele>
        <time>2021-11-17T03:23:15.941Z</time>
      </trkpt>
      <trkpt lat="39.86769" lon="30.20548">
        <ele>902.075208</ele>
        <time>2021-11-17T03:23:19.351Z</time>
      </trkpt>
      <trkpt lat="39.86975" lon="30.20377">
        <ele>912.078577</ele>
        <time>2021-11-17T03:24:53.262Z</time>
      </trkpt>
      <trkpt lat="39.87021" lon="30.20336">
        <ele>914.441367</ele>
        <time>2021-11-17T03:25:15.198Z</time>
      </trkpt>
      <trkpt lat="39.87028" lon="30.2033">
        <ele>914.821081</ele>
        <time>2021-11-17T03:25:19.179Z</time>
      </trkpt>
      <trkpt lat="39.87173" lon="30.2023">
        <ele>922.658299</ele>
        <time>2021-11-17T03:26:28.018Z</time>
      </trkpt>
      <trkpt lat="39.87213" lon="30.20204">
        <ele>924.591467</ele>
        <time>2021-11-17T03:26:45.749Z</time>
      </trkpt>
      <trkpt lat="39.87347" lon="30.1992">
        <ele>934.441373</ele>
        <time>2021-11-17T03:28:23.958Z</time>
      </trkpt>
      <trkpt lat="39.87367" lon="30.19883">
        <ele>935.653247</ele>
        <time>2021-11-17T03:28:36.434Z</time>
      </trkpt>
      <trkpt lat="39.87442" lon="30.19803">
        <ele>937.089558</ele>
        <time>2021-11-17T03:29:05.640Z</time>
      </trkpt>
      <trkpt lat="39.87457" lon="30.19769">
        <ele>937.226434</ele>
        <time>2021-11-17T03:29:13.634Z</time>
      </trkpt>
      <trkpt lat="39.87472" lon="30.19728">
        <ele>937.382699</ele>
        <time>2021-11-17T03:29:21.781Z</time>
      </trkpt>
      <trkpt lat="39.87501" lon="30.1961">
        <ele>935.941022</ele>
        <time>2021-11-17T03:29:39.194Z</time>
      </trkpt>
      <trkpt lat="39.87501" lon="30.19569">
        <ele>934.711725</ele>
        <time>2021-11-17T03:29:44.194Z</time>
      </trkpt>
      <trkpt lat="39.87487" lon="30.19524">
        <ele>933.254227</ele>
        <time>2021-11-17T03:29:49.964Z</time>
      </trkpt>
      <trkpt lat="39.87482" lon="30.19506">
        <ele>932.685642</ele>
        <time>2021-11-17T03:29:52.204Z</time>
      </trkpt>
      <trkpt lat="39.8745" lon="30.1941">
        <ele>928.933234</ele>
        <time>2021-11-17T03:30:04.131Z</time>
      </trkpt>
      <trkpt lat="39.87425" lon="30.1933">
        <ele>924.801358</ele>
        <time>2021-11-17T03:30:13.762Z</time>
      </trkpt>
      <trkpt lat="39.87421" lon="30.19265">
        <ele>921.731684</ele>
        <time>2021-11-17T03:30:20.867Z</time>
      </trkpt>
      <trkpt lat="39.87456" lon="30.19194">
        <ele>918.016428</ele>
        <time>2021-11-17T03:30:30.446Z</time>
      </trkpt>
      <trkpt lat="39.87482" lon="30.19156">
        <ele>916.052331</ele>
        <time>2021-11-17T03:30:36.256Z</time>
      </trkpt>
      <trkpt lat="39.87652" lon="30.19022">
        <ele>906.759587</ele>
        <time>2021-11-17T03:31:06.775Z</time>
      </trkpt>
      <trkpt lat="39.87696" lon="30.18979">
        <ele>904.420701</ele>
        <time>2021-11-17T03:31:15.466Z</time>
      </trkpt>
      <trkpt lat="39.87729" lon="30.18938">
        <ele>902.513827</ele>
        <time>2021-11-17T03:31:22.635Z</time>
      </trkpt>
      <trkpt lat="39.87834" lon="30.1876">
        <ele>895.761672</ele>
        <time>2021-11-17T03:31:49.738Z</time>
      </trkpt>
      <trkpt lat="39.8787" lon="30.18684">
        <ele>893.072713</ele>
        <time>2021-11-17T03:32:00.430Z</time>
      </trkpt>
      <trkpt lat="39.87886" lon="30.18641">
        <ele>891.623464</ele>
        <time>2021-11-17T03:32:06.284Z</time>
      </trkpt>
      <trkpt lat="39.87891" lon="30.18612">
        <ele>890.723478</ele>
        <time>2021-11-17T03:32:09.911Z</time>
      </trkpt>
      <trkpt lat="39.87912" lon="30.18553">
        <ele>888.777326</ele>
        <time>2021-11-17T03:32:17.830Z</time>
      </trkpt>
      <trkpt lat="39.87952" lon="30.18431">
        <ele>884.593848</ele>
        <time>2021-11-17T03:32:33.670Z</time>
      </trkpt>
      <trkpt lat="39.87974" lon="30.18364">
        <ele>882.299647</ele>
        <time>2021-11-17T03:32:42.436Z</time>
      </trkpt>
      <trkpt lat="39.87989" lon="30.18309">
        <ele>880.437334</ele>
        <time>2021-11-17T03:32:49.385Z</time>
      </trkpt>
      <trkpt lat="39.8803" lon="30.18157">
        <ele>875.165528</ele>
        <time>2021-11-17T03:33:08.381Z</time>
      </trkpt>
      <trkpt lat="39.8807" lon="30.17975">
        <ele>869.731275</ele>
        <time>2021-11-17T03:33:31.284Z</time>
      </trkpt>
      <trkpt lat="39.88082" lon="30.17934">
        <ele>868.535494</ele>
        <time>2021-11-17T03:33:36.699Z</time>
      </trkpt>
      <trkpt lat="39.88164" lon="30.17732">
        <ele>863.583367</ele>
        <time>2021-11-17T03:34:06.020Z</time>
      </trkpt>
      <trkpt lat="39.8825" lon="30.17539">
        <ele>859.866154</ele>
        <time>2021-11-17T03:34:35.984Z</time>
      </trkpt>
      <trkpt lat="39.88256" lon="30.175">
        <ele>859.244184</ele>
        <time>2021-11-17T03:34:41.404Z</time>
      </trkpt>
      <trkpt lat="39.88251" lon="30.17478">
        <ele>858.8831</ele>
        <time>2021-11-17T03:34:44.566Z</time>
      </trkpt>
      <trkpt lat="39.88242" lon="30.17456">
        <ele>858.508153</ele>
        <time>2021-11-17T03:34:47.970Z</time>
      </trkpt>
      <trkpt lat="39.88235" lon="30.17446">
        <ele>858.308708</ele>
        <time>2021-11-17T03:34:49.814Z</time>
      </trkpt>
      <trkpt lat="39.88245" lon="30.17406">
        <ele>857.686622</ele>
        <time>2021-11-17T03:34:55.480Z</time>
      </trkpt>
      <trkpt lat="39.88295" lon="30.17147">
        <ele>854.065879</ele>
        <time>2021-11-17T03:35:31.746Z</time>
      </trkpt>
      <trkpt lat="39.88312" lon="30.17048">
        <ele>852.883204</ele>
        <time>2021-11-17T03:35:46.419Z</time>
      </trkpt>
      <trkpt lat="39.88361" lon="30.1688">
        <ele>851.211244</ele>
        <time>2021-11-17T03:36:12.828Z</time>
      </trkpt>
      <trkpt lat="39.88378" lon="30.16819">
        <ele>850.631817</ele>
        <time>2021-11-17T03:36:22.275Z</time>
      </trkpt>
      <trkpt lat="39.88405" lon="30.16723">
        <ele>849.132516</ele>
        <time>2021-11-17T03:36:36.537Z</time>
      </trkpt>
      <trkpt lat="39.88436" lon="30.16521">
        <ele>845.834116</ele>
        <time>2021-11-17T03:37:03.639Z</time>
      </trkpt>
      <trkpt lat="39.88469" lon="30.16015">
        <ele>837.344136</ele>
        <time>2021-11-17T03:38:10.901Z</time>
      </trkpt>
      <trkpt lat="39.88493" lon="30.15735">
        <ele>833.906644</ele>
        <time>2021-11-17T03:38:50.630Z</time>
      </trkpt>
      <trkpt lat="39.88565" lon="30.14766">
        <ele>824.857213</ele>
        <time>2021-11-17T03:41:11.470Z</time>
      </trkpt>
      <trkpt lat="39.8859" lon="30.1444">
        <ele>823.507424</ele>
        <time>2021-11-17T03:42:02.729Z</time>
      </trkpt>
      <trkpt lat="39.88602" lon="30.14293">
        <ele>823.45108</ele>
        <time>2021-11-17T03:42:28.371Z</time>
      </trkpt>
      <trkpt lat="39.88606" lon="30.1425">
        <ele>823.434445</ele>
        <time>2021-11-17T03:42:36.188Z</time>
      </trkpt>
      <trkpt lat="39.88621" lon="30.14084">
        <ele>823.012521</ele>
        <time>2021-11-17T03:43:04.621Z</time>
      </trkpt>
      <trkpt lat="39.88651" lon="30.13709">
        <ele>820.449541</ele>
        <time>2021-11-17T03:44:00.290Z</time>
      </trkpt>
      <trkpt lat="39.8874" lon="30.12369">
        <ele>809.305108</ele>
        <time>2021-11-17T03:47:17.327Z</time>
      </trkpt>
      <trkpt lat="39.88754" lon="30.12244">
        <ele>808.436387</ele>
        <time>2021-11-17T03:47:36.908Z</time>
      </trkpt>
      <trkpt lat="39.88803" lon="30.12006">
        <ele>806.324163</ele>
        <time>2021-11-17T03:48:12.924Z</time>
      </trkpt>
      <trkpt lat="39.88826" lon="30.11902">
        <ele>805.317646</ele>
        <time>2021-11-17T03:48:28.221Z</time>
      </trkpt>
      <trkpt lat="39.88837" lon="30.11904">
        <ele>805.211833</ele>
        <time>2021-11-17T03:48:30.127Z</time>
      </trkpt>
      <trkpt lat="39.88842" lon="30.11903">
        <ele>805.160936</ele>
        <time>2021-11-17T03:48:31.077Z</time>
      </trkpt>
      <trkpt lat="39.88852" lon="30.11873">
        <ele>804.902948</ele>
        <time>2021-11-17T03:48:35.758Z</time>
      </trkpt>
      <trkpt lat="39.88872" lon="30.11786">
        <ele>804.199695</ele>
        <time>2021-11-17T03:48:48.873Z</time>
      </trkpt>
      <trkpt lat="39.88895" lon="30.11714">
        <ele>803.678561</ele>
        <time>2021-11-17T03:49:01.158Z</time>
      </trkpt>
      <trkpt lat="39.8892" lon="30.11647">
        <ele>803.592286</ele>
        <time>2021-11-17T03:49:14.201Z</time>
      </trkpt>
      <trkpt lat="39.88984" lon="30.115">
        <ele>803.395413</ele>
        <time>2021-11-17T03:49:42.163Z</time>
      </trkpt>
      <trkpt lat="39.88987" lon="30.1149">
        <ele>803.383777</ele>
        <time>2021-11-17T03:49:44.619Z</time>
      </trkpt>
      <trkpt lat="39.88957" lon="30.11481">
        <ele>803.337204</ele>
        <time>2021-11-17T03:49:51.079Z</time>
      </trkpt>
      <trkpt lat="39.88961" lon="30.11466">
        <ele>803.317917</ele>
        <time>2021-11-17T03:49:54.583Z</time>
      </trkpt>
      <trkpt lat="39.89" lon="30.11221">
        <ele>802.346534</ele>
        <time>2021-11-17T03:50:34.955Z</time>
      </trkpt>
      <trkpt lat="39.8901" lon="30.11161">
        <ele>801.875301</ele>
        <time>2021-11-17T03:50:44.121Z</time>
      </trkpt>
      <trkpt lat="39.89104" lon="30.10877">
        <ele>797.340341</ele>
        <time>2021-11-17T03:51:25.675Z</time>
      </trkpt>
      <trkpt lat="39.89218" lon="30.10517">
        <ele>789.665951</ele>
        <time>2021-11-17T03:52:15.593Z</time>
      </trkpt>
      <trkpt lat="39.89395" lon="30.10003">
        <ele>781.445941</ele>
        <time>2021-11-17T03:53:32.603Z</time>
      </trkpt>
      <trkpt lat="39.89566" lon="30.09477">
        <ele>775.5758</ele>
        <time>2021-11-17T03:54:53.798Z</time>
      </trkpt>
      <trkpt lat="39.89593" lon="30.09361">
        <ele>774.640277</ele>
        <time>2021-11-17T03:55:12.235Z</time>
      </trkpt>
      <trkpt lat="39.89614" lon="30.09303">
        <ele>774.504157</ele>
        <time>2021-11-17T03:55:22.399Z</time>
      </trkpt>
      <trkpt lat="39.89666" lon="30.09203">
        <ele>774.248738</ele>
        <time>2021-11-17T03:55:42.249Z</time>
      </trkpt>
      <trkpt lat="39.89704" lon="30.09097">
        <ele>774.251049</ele>
        <time>2021-11-17T03:56:02.334Z</time>
      </trkpt>
      <trkpt lat="39.89751" lon="30.08979">
        <ele>774.390859</ele>
        <time>2021-11-17T03:56:25.925Z</time>
      </trkpt>
      <trkpt lat="39.89777" lon="30.08916">
        <ele>774.400884</ele>
        <time>2021-11-17T03:56:38.406Z</time>
      </trkpt>
      <trkpt lat="39.8979" lon="30.08879">
        <ele>774.389469</ele>
        <time>2021-11-17T03:56:45.471Z</time>
      </trkpt>
      <trkpt lat="39.89843" lon="30.08751">
        <ele>774.347328</ele>
        <time>2021-11-17T03:57:10.142Z</time>
      </trkpt>
      <trkpt lat="39.89888" lon="30.08645">
        <ele>773.989367</ele>
        <time>2021-11-17T03:57:29.701Z</time>
      </trkpt>
      <trkpt lat="39.89931" lon="30.08524">
        <ele>773.553122</ele>
        <time>2021-11-17T03:57:50.796Z</time>
      </trkpt>
      <trkpt lat="39.89981" lon="30.08368">
        <ele>772.701865</ele>
        <time>2021-11-17T03:58:16.811Z</time>
      </trkpt>
      <trkpt lat="39.90012" lon="30.0815">
        <ele>771.329089</ele>
        <time>2021-11-17T03:58:50.394Z</time>
      </trkpt>
      <trkpt lat="39.90053" lon="30.07822">
        <ele>769.299203</ele>
        <time>2021-11-17T03:59:40.575Z</time>
      </trkpt>
      <trkpt lat="39.90082" lon="30.07588">
        <ele>767.740484</ele>
        <time>2021-11-17T04:00:16.626Z</time>
      </trkpt>
      <trkpt lat="39.90155" lon="30.07004">
        <ele>762.406576</ele>
        <time>2021-11-17T04:01:42.520Z</time>
      </trkpt>
      <trkpt lat="39.90168" lon="30.06898">
        <ele>761.344901</ele>
        <time>2021-11-17T04:01:57.854Z</time>
      </trkpt>
      <trkpt lat="39.90181" lon="30.06797">
        <ele>760.305377</ele>
        <time>2021-11-17T04:02:12.411Z</time>
      </trkpt>
      <trkpt lat="39.9016" lon="30.06787">
        <ele>760.020119</ele>
        <time>2021-11-17T04:02:16.402Z</time>
      </trkpt>
      <trkpt lat="39.90144" lon="30.06773">
        <ele>759.754701</ele>
        <time>2021-11-17T04:02:20.191Z</time>
      </trkpt>
      <trkpt lat="39.90136" lon="30.06767">
        <ele>759.637295</ele>
        <time>2021-11-17T04:02:21.804Z</time>
      </trkpt>
      <trkpt lat="39.90101" lon="30.06741">
        <ele>759.060778</ele>
        <time>2021-11-17T04:02:29.406Z</time>
      </trkpt>
      <trkpt lat="39.90042" lon="30.06716">
        <ele>758.091358</ele>
        <time>2021-11-17T04:02:41.020Z</time>
      </trkpt>
      <trkpt lat="39.89931" lon="30.06697">
        <ele>756.344676</ele>
        <time>2021-11-17T04:03:01.112Z</time>
      </trkpt>
      <trkpt lat="39.89925" lon="30.06696">
        <ele>756.242346</ele>
        <time>2021-11-17T04:03:02.098Z</time>
      </trkpt>
      <trkpt lat="39.8993" lon="30.06646">
        <ele>755.585561</ele>
        <time>2021-11-17T04:03:09.317Z</time>
      </trkpt>
      <trkpt lat="39.89943" lon="30.06529">
        <ele>754.027786</ele>
        <time>2021-11-17T04:03:26.463Z</time>
      </trkpt>
      <trkpt lat="39.89971" lon="30.06395">
        <ele>752.588625</ele>
        <time>2021-11-17T04:03:47.033Z</time>
      </trkpt>
      <trkpt lat="39.89993" lon="30.0632">
        <ele>751.84907</ele>
        <time>2021-11-17T04:03:59.273Z</time>
      </trkpt>
      <trkpt lat="39.90042" lon="30.06112">
        <ele>750.2707</ele>
        <time>2021-11-17T04:04:33.447Z</time>
      </trkpt>
      <trkpt lat="39.90103" lon="30.0582">
        <ele>748.525359</ele>
        <time>2021-11-17T04:05:21.720Z</time>
      </trkpt>
      <trkpt lat="39.9018" lon="30.05503">
        <ele>747.061718</ele>
        <time>2021-11-17T04:06:15.624Z</time>
      </trkpt>
      <trkpt lat="39.90201" lon="30.05373">
        <ele>746.648584</ele>
        <time>2021-11-17T04:06:38.048Z</time>
      </trkpt>
      <trkpt lat="39.90222" lon="30.05182">
        <ele>746.320972</ele>
        <time>2021-11-17T04:07:11.513Z</time>
      </trkpt>
      <trkpt lat="39.90234" lon="30.05042">
        <ele>745.938272</ele>
        <time>2021-11-17T04:07:35.000Z</time>
      </trkpt>
      <trkpt lat="39.90237" lon="30.04981">
        <ele>745.731974</ele>
        <time>2021-11-17T04:07:45.265Z</time>
      </trkpt>
      <trkpt lat="39.90255" lon="30.04835">
        <ele>745.12557</ele>
        <time>2021-11-17T04:08:09.422Z</time>
      </trkpt>
      <trkpt lat="39.90263" lon="30.04754">
        <ele>744.704115</ele>
        <time>2021-11-17T04:08:22.741Z</time>
      </trkpt>
      <trkpt lat="39.90269" lon="30.04699">
        <ele>744.420012</ele>
        <time>2021-11-17T04:08:31.607Z</time>
      </trkpt>
      <trkpt lat="39.90276" lon="30.04629">
        <ele>744.009531</ele>
        <time>2021-11-17T04:08:42.792Z</time>
      </trkpt>
      <trkpt lat="39.90295" lon="30.04523">
        <ele>743.320447</ele>
        <time>2021-11-17T04:08:59.820Z</time>
      </trkpt>
      <trkpt lat="39.90312" lon="30.04452">
        <ele>742.847736</ele>
        <time>2021-11-17T04:09:11.594Z</time>
      </trkpt>
      <trkpt lat="39.90324" lon="30.04361">
        <ele>742.470596</ele>
        <time>2021-11-17T04:09:26.463Z</time>
      </trkpt>
      <trkpt lat="39.90368" lon="30.04238">
        <ele>741.963808</ele>
        <time>2021-11-17T04:09:49.069Z</time>
      </trkpt>
      <trkpt lat="39.90422" lon="30.0402">
        <ele>741.569487</ele>
        <time>2021-11-17T04:10:28.305Z</time>
      </trkpt>
      <trkpt lat="39.90463" lon="30.03822">
        <ele>741.611571</ele>
        <time>2021-11-17T04:11:04.617Z</time>
      </trkpt>
      <trkpt lat="39.90479" lon="30.03743">
        <ele>741.744585</ele>
        <time>2021-11-17T04:11:19.540Z</time>
      </trkpt>
      <trkpt lat="39.90549" lon="30.0339">
        <ele>743.406921</ele>
        <time>2021-11-17T04:12:31.119Z</time>
      </trkpt>
      <trkpt lat="39.90567" lon="30.03401">
        <ele>743.54717</ele>
        <time>2021-11-17T04:12:36.328Z</time>
      </trkpt>
      <trkpt lat="39.90583" lon="30.03346">
        <ele>743.901258</ele>
        <time>2021-11-17T04:12:48.300Z</time>
      </trkpt>
      <trkpt lat="39.90621" lon="30.03366">
        <ele>744.404224</ele>
        <time>2021-11-17T04:12:59.105Z</time>
      </trkpt>
      <trkpt lat="39.9063" lon="30.03367">
        <ele>744.519744</ele>
        <time>2021-11-17T04:13:01.762Z</time>
      </trkpt>
      <trkpt lat="39.90669" lon="30.03319">
        <ele>745.180703</ele>
        <time>2021-11-17T04:13:17.022Z</time>
      </trkpt>
      <trkpt lat="39.90681" lon="30.03306">
        <ele>745.372288</ele>
        <time>2021-11-17T04:13:21.681Z</time>
      </trkpt>
      <trkpt lat="39.90688" lon="30.03303">
        <ele>745.459947</ele>
        <time>2021-11-17T04:13:23.653Z</time>
      </trkpt>
      <trkpt lat="39.90695" lon="30.03251">
        <ele>745.961734</ele>
        <time>2021-11-17T04:13:34.888Z</time>
      </trkpt>
      <trkpt lat="39.9074" lon="30.03258">
        <ele>746.525409</ele>
        <time>2021-11-17T04:13:48.043Z</time>
      </trkpt>
      <trkpt lat="39.90751" lon="30.03253">
        <ele>746.662443</ele>
        <time>2021-11-17T04:13:51.478Z</time>
      </trkpt>
      <trkpt lat="39.90764" lon="30.03205">
        <ele>747.143828</ele>
        <time>2021-11-17T04:14:02.893Z</time>
      </trkpt>
      <trkpt lat="39.90783" lon="30.03159">
        <ele>747.638998</ele>
        <time>2021-11-17T04:14:14.200Z</time>
      </trkpt>
      <trkpt lat="39.90797" lon="30.0311">
        <ele>748.123483</ele>
        <time>2021-11-17T04:14:25.399Z</time>
      </trkpt>
      <trkpt lat="39.90805" lon="30.03084">
        <ele>748.192031</ele>
        <time>2021-11-17T04:14:31.046Z</time>
      </trkpt>
      <trkpt lat="39.90808" lon="30.03076">
        <ele>748.16112</ele>
        <time>2021-11-17T04:14:32.796Z</time>
      </trkpt>
      <trkpt lat="39.9082" lon="30.03055">
        <ele>748.058178</ele>
        <time>2021-11-17T04:14:37.506Z</time>
      </trkpt>
      <trkpt lat="39.90845" lon="30.03013">
        <ele>747.857157</ele>
        <time>2021-11-17T04:14:46.678Z</time>
      </trkpt>
      <trkpt lat="39.90862" lon="30.02989">
        <ele>747.730338</ele>
        <time>2021-11-17T04:14:52.097Z</time>
      </trkpt>
      <trkpt lat="39.90883" lon="30.02959">
        <ele>747.573335</ele>
        <time>2021-11-17T04:14:58.761Z</time>
      </trkpt>
      <trkpt lat="39.9088" lon="30.02954">
        <ele>747.547022</ele>
        <time>2021-11-17T04:14:59.705Z</time>
      </trkpt>
      <trkpt lat="39.90901" lon="30.02924">
        <ele>747.391142</ele>
        <time>2021-11-17T04:15:05.993Z</time>
      </trkpt>
      <trkpt lat="39.90911" lon="30.02913">
        <ele>747.211939</ele>
        <time>2021-11-17T04:15:08.355Z</time>
      </trkpt>
      <trkpt lat="39.90963" lon="30.02854">
        <ele>745.321386</ele>
        <time>2021-11-17T04:15:20.793Z</time>
      </trkpt>
      <trkpt lat="39.9106" lon="30.02748">
        <ele>742.013759</ele>
        <time>2021-11-17T04:15:42.211Z</time>
      </trkpt>
      <trkpt lat="39.91018" lon="30.02691">
        <ele>740.771306</ele>
        <time>2021-11-17T04:15:52.741Z</time>
      </trkpt>
      <trkpt lat="39.91051" lon="30.02663">
        <ele>739.985244</ele>
        <time>2021-11-17T04:15:59.361Z</time>
      </trkpt>
      <trkpt lat="39.91324" lon="30.02427">
        <ele>736.844334</ele>
        <time>2021-11-17T04:17:05.596Z</time>
      </trkpt>
      <trkpt lat="39.91446" lon="30.0231">
        <ele>735.576934</ele>
        <time>2021-11-17T04:17:34.957Z</time>
      </trkpt>
      <trkpt lat="39.91498" lon="30.02251">
        <ele>734.994893</ele>
        <time>2021-11-17T04:17:48.018Z</time>
      </trkpt>
      <trkpt lat="39.91829" lon="30.01831">
        <ele>732.372445</ele>
        <time>2021-11-17T04:19:22.636Z</time>
      </trkpt>
      <trkpt lat="39.9195" lon="30.01674">
        <ele>731.358974</ele>
        <time>2021-11-17T04:19:57.354Z</time>
      </trkpt>
      <trkpt lat="39.92033" lon="30.01565">
        <ele>730.571764</ele>
        <time>2021-11-17T04:20:21.089Z</time>
      </trkpt>
      <trkpt lat="39.92035" lon="30.01561">
        <ele>730.547332</ele>
        <time>2021-11-17T04:20:21.709Z</time>
      </trkpt>
      <trkpt lat="39.92094" lon="30.0146">
        <ele>729.905251</ele>
        <time>2021-11-17T04:20:41.362Z</time>
      </trkpt>
      <trkpt lat="39.92143" lon="30.01346">
        <ele>729.246445</ele>
        <time>2021-11-17T04:21:01.329Z</time>
      </trkpt>
      <trkpt lat="39.92171" lon="30.0122">
        <ele>728.721988</ele>
        <time>2021-11-17T04:21:21.981Z</time>
      </trkpt>
      <trkpt lat="39.92178" lon="30.01171">
        <ele>728.523216</ele>
        <time>2021-11-17T04:21:29.908Z</time>
      </trkpt>
      <trkpt lat="39.92184" lon="30.0112">
        <ele>728.319433</ele>
        <time>2021-11-17T04:21:38.007Z</time>
      </trkpt>
      <trkpt lat="39.92188" lon="30.01053">
        <ele>728.102804</ele>
        <time>2021-11-17T04:21:48.568Z</time>
      </trkpt>
      <trkpt lat="39.92191" lon="30.00989">
        <ele>727.896115</ele>
        <time>2021-11-17T04:21:58.765Z</time>
      </trkpt>
      <trkpt lat="39.92197" lon="30.00887">
        <ele>727.565463</ele>
        <time>2021-11-17T04:22:15.190Z</time>
      </trkpt>
      <trkpt lat="39.92212" lon="30.00623">
        <ele>727.446945</ele>
        <time>2021-11-17T04:22:59.458Z</time>
      </trkpt>
      <trkpt lat="39.92226" lon="30.00533">
        <ele>727.635936</ele>
        <time>2021-11-17T04:23:16.157Z</time>
      </trkpt>
      <trkpt lat="39.92244" lon="30.00443">
        <ele>727.82663</ele>
        <time>2021-11-17T04:23:33.343Z</time>
      </trkpt>
      <trkpt lat="39.92269" lon="30.00352">
        <ele>727.757631</ele>
        <time>2021-11-17T04:23:50.425Z</time>
      </trkpt>
      <trkpt lat="39.92287" lon="30.00281">
        <ele>727.646461</ele>
        <time>2021-11-17T04:24:02.678Z</time>
      </trkpt>
      <trkpt lat="39.92306" lon="30.00213">
        <ele>727.537954</ele>
        <time>2021-11-17T04:24:14.153Z</time>
      </trkpt>
      <trkpt lat="39.92317" lon="30.00166">
        <ele>727.313297</ele>
        <time>2021-11-17T04:24:21.696Z</time>
      </trkpt>
      <trkpt lat="39.92369" lon="29.99944">
        <ele>726.000116</ele>
        <time>2021-11-17T04:24:56.841Z</time>
      </trkpt>
      <trkpt lat="39.92405" lon="29.99815">
        <ele>725.11751</ele>
        <time>2021-11-17T04:25:17.938Z</time>
      </trkpt>
      <trkpt lat="39.92458" lon="29.9958">
        <ele>723.012781</ele>
        <time>2021-11-17T04:25:53.726Z</time>
      </trkpt>
      <trkpt lat="39.92508" lon="29.99345">
        <ele>720.735224</ele>
        <time>2021-11-17T04:26:28.256Z</time>
      </trkpt>
      <trkpt lat="39.92531" lon="29.99249">
        <ele>720.156536</ele>
        <time>2021-11-17T04:26:43.673Z</time>
      </trkpt>
      <trkpt lat="39.92608" lon="29.98952">
        <ele>719.496613</ele>
        <time>2021-11-17T04:27:35.231Z</time>
      </trkpt>
      <trkpt lat="39.92622" lon="29.98857">
        <ele>719.410474</ele>
        <time>2021-11-17T04:27:51.246Z</time>
      </trkpt>
      <trkpt lat="39.92628" lon="29.98791">
        <ele>720.069504</ele>
        <time>2021-11-17T04:28:02.523Z</time>
      </trkpt>
      <trkpt lat="39.92627" lon="29.98579">
        <ele>722.810735</ele>
        <time>2021-11-17T04:28:50.350Z</time>
      </trkpt>
      <trkpt lat="39.92635" lon="29.9852">
        <ele>724.226663</ele>
        <time>2021-11-17T04:29:07.526Z</time>
      </trkpt>
      <trkpt lat="39.92648" lon="29.98459">
        <ele>725.739043</ele>
        <time>2021-11-17T04:29:26.096Z</time>
      </trkpt>
      <trkpt lat="39.92701" lon="29.98346">
        <ele>727.514391</ele>
        <time>2021-11-17T04:30:01.906Z</time>
      </trkpt>
      <trkpt lat="39.92742" lon="29.98284">
        <ele>727.70922</ele>
        <time>2021-11-17T04:30:17.760Z</time>
      </trkpt>
      <trkpt lat="39.92778" lon="29.98244">
        <ele>727.853687</ele>
        <time>2021-11-17T04:30:26.437Z</time>
      </trkpt>
      <trkpt lat="39.92833" lon="29.98205">
        <ele>726.296295</ele>
        <time>2021-11-17T04:30:36.509Z</time>
      </trkpt>
      <trkpt lat="39.93002" lon="29.98107">
        <ele>720.114204</ele>
        <time>2021-11-17T04:31:05.039Z</time>
      </trkpt>
      <trkpt lat="39.9313" lon="29.98033">
        <ele>718.059435</ele>
        <time>2021-11-17T04:31:32.302Z</time>
      </trkpt>
      <trkpt lat="39.93213" lon="29.97995">
        <ele>719.597115</ele>
        <time>2021-11-17T04:31:59.000Z</time>
      </trkpt>
      <trkpt lat="39.93288" lon="29.97972">
        <ele>720.962985</ele>
        <time>2021-11-17T04:32:23.890Z</time>
      </trkpt>
      <trkpt lat="39.93342" lon="29.97964">
        <ele>721.852186</ele>
        <time>2021-11-17T04:32:40.523Z</time>
      </trkpt>
      <trkpt lat="39.93411" lon="29.97962">
        <ele>722.986083</ele>
        <time>2021-11-17T04:33:00.372Z</time>
      </trkpt>
      <trkpt lat="39.9349" lon="29.97969">
        <ele>724.346728</ele>
        <time>2021-11-17T04:33:21.694Z</time>
      </trkpt>
      <trkpt lat="39.93566" lon="29.9799">
        <ele>725.945127</ele>
        <time>2021-11-17T04:33:42.856Z</time>
      </trkpt>
      <trkpt lat="39.93737" lon="29.9806">
        <ele>729.599174</ele>
        <time>2021-11-17T04:34:43.647Z</time>
      </trkpt>
      <trkpt lat="39.93785" lon="29.98095">
        <ele>730.706283</ele>
        <time>2021-11-17T04:35:01.098Z</time>
      </trkpt>
      <trkpt lat="39.93884" lon="29.98167">
        <ele>729.474515</ele>
        <time>2021-11-17T04:35:25.182Z</time>
      </trkpt>
      <trkpt lat="39.93895" lon="29.9817">
        <ele>729.209094</ele>
        <time>2021-11-17T04:35:27.466Z</time>
      </trkpt>
      <trkpt lat="39.93904" lon="29.98168">
        <ele>728.985809</ele>
        <time>2021-11-17T04:35:29.045Z</time>
      </trkpt>
      <trkpt lat="39.93913" lon="29.98177">
        <ele>728.716437</ele>
        <time>2021-11-17T04:35:30.690Z</time>
      </trkpt>
      <trkpt lat="39.9404" lon="29.98197">
        <ele>724.338755</ele>
        <time>2021-11-17T04:35:50.173Z</time>
      </trkpt>
      <trkpt lat="39.94076" lon="29.98202">
        <ele>722.669443</ele>
        <time>2021-11-17T04:35:55.550Z</time>
      </trkpt>
      <trkpt lat="39.94144" lon="29.9823">
        <ele>719.412042</ele>
        <time>2021-11-17T04:36:06.709Z</time>
      </trkpt>
      <trkpt lat="39.94496" lon="29.98372">
        <ele>705.670271</ele>
        <time>2021-11-17T04:37:05.664Z</time>
      </trkpt>
      <trkpt lat="39.94659" lon="29.98441">
        <ele>697.692353</ele>
        <time>2021-11-17T04:37:31.254Z</time>
      </trkpt>
      <trkpt lat="39.94683" lon="29.9845">
        <ele>696.910324</ele>
        <time>2021-11-17T04:37:35.139Z</time>
      </trkpt>
      <trkpt lat="39.94859" lon="29.98521">
        <ele>693.786052</ele>
        <time>2021-11-17T04:38:09.462Z</time>
      </trkpt>
      <trkpt lat="39.9496" lon="29.98552">
        <ele>693.071707</ele>
        <time>2021-11-17T04:38:31.898Z</time>
      </trkpt>
      <trkpt lat="39.95229" lon="29.98569">
        <ele>690.045299</ele>
        <time>2021-11-17T04:39:23.515Z</time>
      </trkpt>
      <trkpt lat="39.95313" lon="29.98594">
        <ele>688.171317</ele>
        <time>2021-11-17T04:39:38.514Z</time>
      </trkpt>
      <trkpt lat="39.95521" lon="29.98698">
        <ele>682.41396</ele>
        <time>2021-11-17T04:40:15.644Z</time>
      </trkpt>
      <trkpt lat="39.95579" lon="29.98713">
        <ele>681.171332</ele>
        <time>2021-11-17T04:40:25.718Z</time>
      </trkpt>
      <trkpt lat="39.95643" lon="29.9872">
        <ele>680.028658</ele>
        <time>2021-11-17T04:40:36.883Z</time>
      </trkpt>
      <trkpt lat="39.95904" lon="29.98711">
        <ele>676.77624</ele>
        <time>2021-11-17T04:41:26.700Z</time>
      </trkpt>
      <trkpt lat="39.95975" lon="29.98725">
        <ele>676.492721</ele>
        <time>2021-11-17T04:41:41.741Z</time>
      </trkpt>
      <trkpt lat="39.96035" lon="29.98747">
        <ele>676.244366</ele>
        <time>2021-11-17T04:41:55.344Z</time>
      </trkpt>
      <trkpt lat="39.96172" lon="29.98834">
        <ele>675.084588</ele>
        <time>2021-11-17T04:42:26.728Z</time>
      </trkpt>
      <trkpt lat="39.96208" lon="29.98852">
        <ele>674.741537</ele>
        <time>2021-11-17T04:42:33.828Z</time>
      </trkpt>
      <trkpt lat="39.96245" lon="29.98862">
        <ele>674.347863</ele>
        <time>2021-11-17T04:42:40.757Z</time>
      </trkpt>
      <trkpt lat="39.9629" lon="29.9887">
        <ele>673.611603</ele>
        <time>2021-11-17T04:42:48.971Z</time>
      </trkpt>
      <trkpt lat="39.96345" lon="29.98869">
        <ele>672.733939</ele>
        <time>2021-11-17T04:42:58.644Z</time>
      </trkpt>
      <trkpt lat="39.96471" lon="29.98843">
        <ele>671.3152</ele>
        <time>2021-11-17T04:43:22.220Z</time>
      </trkpt>
      <trkpt lat="39.96539" lon="29.98848">
        <ele>671.002661</ele>
        <time>2021-11-17T04:43:36.459Z</time>
      </trkpt>
      <trkpt lat="39.96628" lon="29.98872">
        <ele>670.914566</ele>
        <time>2021-11-17T04:43:58.148Z</time>
      </trkpt>
      <trkpt lat="39.96743" lon="29.98913">
        <ele>671.483707</ele>
        <time>2021-11-17T04:44:28.416Z</time>
      </trkpt>
      <trkpt lat="39.9707" lon="29.99051">
        <ele>669.904409</ele>
        <time>2021-11-17T04:45:41.379Z</time>
      </trkpt>
      <trkpt lat="39.97146" lon="29.99092">
        <ele>668.078078</ele>
        <time>2021-11-17T04:45:55.202Z</time>
      </trkpt>
      <trkpt lat="39.97225" lon="29.99149">
        <ele>664.8978</ele>
        <time>2021-11-17T04:46:09.496Z</time>
      </trkpt>
      <trkpt lat="39.97264" lon="29.99184">
        <ele>663.232447</ele>
        <time>2021-11-17T04:46:16.882Z</time>
      </trkpt>
      <trkpt lat="39.97309" lon="29.99231">
        <ele>661.764222</ele>
        <time>2021-11-17T04:46:26.040Z</time>
      </trkpt>
      <trkpt lat="39.97348" lon="29.99286">
        <ele>660.326082</ele>
        <time>2021-11-17T04:46:35.611Z</time>
      </trkpt>
      <trkpt lat="39.97364" lon="29.99314">
        <ele>659.645355</ele>
        <time>2021-11-17T04:46:40.344Z</time>
      </trkpt>
      <trkpt lat="39.97383" lon="29.99355">
        <ele>658.716823</ele>
        <time>2021-11-17T04:46:47.189Z</time>
      </trkpt>
      <trkpt lat="39.97395" lon="29.99385">
        <ele>658.571491</ele>
        <time>2021-11-17T04:46:52.323Z</time>
      </trkpt>
      <trkpt lat="39.97445" lon="29.99568">
        <ele>658.077645</ele>
        <time>2021-11-17T04:47:25.474Z</time>
      </trkpt>
      <trkpt lat="39.97472" lon="29.99646">
        <ele>657.410308</ele>
        <time>2021-11-17T04:47:39.108Z</time>
      </trkpt>
      <trkpt lat="39.97509" lon="29.99716">
        <ele>656.684512</ele>
        <time>2021-11-17T04:47:51.215Z</time>
      </trkpt>
      <trkpt lat="39.9754" lon="29.99761">
        <ele>656.168942</ele>
        <time>2021-11-17T04:47:59.584Z</time>
      </trkpt>
      <trkpt lat="39.97567" lon="29.99793">
        <ele>655.709187</ele>
        <time>2021-11-17T04:48:06.045Z</time>
      </trkpt>
      <trkpt lat="39.9761" lon="29.9985">
        <ele>654.883391</ele>
        <time>2021-11-17T04:48:17.103Z</time>
      </trkpt>
      <trkpt lat="39.97664" lon="29.99891">
        <ele>654.047493</ele>
        <time>2021-11-17T04:48:28.470Z</time>
      </trkpt>
      <trkpt lat="39.97753" lon="29.99935">
        <ele>653.74227</ele>
        <time>2021-11-17T04:48:48.429Z</time>
      </trkpt>
      <trkpt lat="39.97756" lon="29.99917">
        <ele>653.765197</ele>
        <time>2021-11-17T04:48:51.367Z</time>
      </trkpt>
      <trkpt lat="39.97762" lon="29.99883">
        <ele>653.810857</ele>
        <time>2021-11-17T04:48:57.876Z</time>
      </trkpt>
      <trkpt lat="39.97768" lon="29.99859">
        <ele>653.842523</ele>
        <time>2021-11-17T04:49:03.339Z</time>
      </trkpt>
      <trkpt lat="39.97771" lon="29.99846">
        <ele>653.86124</ele>
        <time>2021-11-17T04:49:05.706Z</time>
      </trkpt>
      <trkpt lat="39.97781" lon="29.99833">
        <ele>653.884119</ele>
        <time>2021-11-17T04:49:08.641Z</time>
      </trkpt>
      <trkpt lat="39.97803" lon="29.99835">
        <ele>653.921016</ele>
        <time>2021-11-17T04:49:14.540Z</time>
      </trkpt>
      <trkpt lat="39.97825" lon="29.99853">
        <ele>654.281283</ele>
        <time>2021-11-17T04:49:21.391Z</time>
      </trkpt>
      <trkpt lat="39.97847" lon="29.99857">
        <ele>654.728014</ele>
        <time>2021-11-17T04:49:25.916Z</time>
      </trkpt>
      <trkpt lat="39.97864" lon="29.9984">
        <ele>655.183514</ele>
        <time>2021-11-17T04:49:32.180Z</time>
      </trkpt>
      <trkpt lat="39.97927" lon="29.99735">
        <ele>657.295466</ele>
        <time>2021-11-17T04:50:04.315Z</time>
      </trkpt>
      <trkpt lat="39.97956" lon="29.99717">
        <ele>658.282297</ele>
        <time>2021-11-17T04:50:16.161Z</time>
      </trkpt>
      <trkpt lat="39.97969" lon="29.99695">
        <ele>659.189694</ele>
        <time>2021-11-17T04:50:24.596Z</time>
      </trkpt>
      <trkpt lat="39.97992" lon="29.99643">
        <ele>661.134575</ele>
        <time>2021-11-17T04:50:42.680Z</time>
      </trkpt>
      <trkpt lat="39.98006" lon="29.99624">
        <ele>661.994982</ele>
        <time>2021-11-17T04:50:51.333Z</time>
      </trkpt>
      <trkpt lat="39.98034" lon="29.9961">
        <ele>663.276513</ele>
        <time>2021-11-17T04:51:03.607Z</time>
      </trkpt>
      <trkpt lat="39.9805" lon="29.99592">
        <ele>664.142397</ele>
        <time>2021-11-17T04:51:11.663Z</time>
      </trkpt>
      <trkpt lat="39.98056" lon="29.99578">
        <ele>664.686022</ele>
        <time>2021-11-17T04:51:17.187Z</time>
      </trkpt>
      <trkpt lat="39.98068" lon="29.99497">
        <ele>666.099898</ele>
        <time>2021-11-17T04:51:42.392Z</time>
      </trkpt>
      <trkpt lat="39.98078" lon="29.99466">
        <ele>666.536414</ele>
        <time>2021-11-17T04:51:51.702Z</time>
      </trkpt>
      <trkpt lat="39.98146" lon="29.99367">
        <ele>668.205468</ele>
        <time>2021-11-17T04:52:15.909Z</time>
      </trkpt>
      <trkpt lat="39.98158" lon="29.99359">
        <ele>668.085439</ele>
        <time>2021-11-17T04:52:18.532Z</time>
      </trkpt>
      <trkpt lat="39.98298" lon="29.99332">
        <ele>665.51037</ele>
        <time>2021-11-17T04:52:42.958Z</time>
      </trkpt>
      <trkpt lat="39.98323" lon="29.99316">
        <ele>664.991613</ele>
        <time>2021-11-17T04:52:47.629Z</time>
      </trkpt>
      <trkpt lat="39.98439" lon="29.99205">
        <ele>664.07225</ele>
        <time>2021-11-17T04:53:14.501Z</time>
      </trkpt>
      <trkpt lat="39.98455" lon="29.99185">
        <ele>663.927703</ele>
        <time>2021-11-17T04:53:20.201Z</time>
      </trkpt>
      <trkpt lat="39.98442" lon="29.9904">
        <ele>666.933896</ele>
        <time>2021-11-17T04:53:55.710Z</time>
      </trkpt>
      <trkpt lat="39.98419" lon="29.98779">
        <ele>675.639473</ele>
        <time>2021-11-17T04:55:18.065Z</time>
      </trkpt>
      <trkpt lat="39.98405" lon="29.98636">
        <ele>682.13683</ele>
        <time>2021-11-17T04:56:08.698Z</time>
      </trkpt>
      <trkpt lat="39.98397" lon="29.98571">
        <ele>685.569444</ele>
        <time>2021-11-17T04:56:34.305Z</time>
      </trkpt>
      <trkpt lat="39.9839" lon="29.98495">
        <ele>689.524588</ele>
        <time>2021-11-17T04:57:03.974Z</time>
      </trkpt>
      <trkpt lat="39.9839" lon="29.98441">
        <ele>692.383415</ele>
        <time>2021-11-17T04:57:25.413Z</time>
      </trkpt>
      <trkpt lat="39.9839" lon="29.98417">
        <ele>693.684705</ele>
        <time>2021-11-17T04:57:35.151Z</time>
      </trkpt>
      <trkpt lat="39.98392" lon="29.98367">
        <ele>696.338312</ele>
        <time>2021-11-17T04:57:54.641Z</time>
      </trkpt>
      <trkpt lat="39.98397" lon="29.98312">
        <ele>699.339397</ele>
        <time>2021-11-17T04:58:16.238Z</time>
      </trkpt>
      <trkpt lat="39.98407" lon="29.98238">
        <ele>703.333927</ele>
        <time>2021-11-17T04:58:44.662Z</time>
      </trkpt>
      <trkpt lat="39.98422" lon="29.9817">
        <ele>706.889044</ele>
        <time>2021-11-17T04:59:10.071Z</time>
      </trkpt>
      <trkpt lat="39.98662" lon="29.97297">
        <ele>752.895227</ele>
        <time>2021-11-17T05:04:54.504Z</time>
      </trkpt>
      <trkpt lat="39.98673" lon="29.97252">
        <ele>754.865542</ele>
        <time>2021-11-17T05:05:11.316Z</time>
      </trkpt>
      <trkpt lat="39.98676" lon="29.97212">
        <ele>756.575501</ele>
        <time>2021-11-17T05:05:25.307Z</time>
      </trkpt>
      <trkpt lat="39.98675" lon="29.97168">
        <ele>758.410754</ele>
        <time>2021-11-17T05:05:39.749Z</time>
      </trkpt>
      <trkpt lat="39.98663" lon="29.97117">
        <ele>760.577049</ele>
        <time>2021-11-17T05:05:56.657Z</time>
      </trkpt>
      <trkpt lat="39.9854" lon="29.9679">
        <ele>770.86495</ele>
        <time>2021-11-17T05:07:34.456Z</time>
      </trkpt>
      <trkpt lat="39.98523" lon="29.96727">
        <ele>772.96474</ele>
        <time>2021-11-17T05:07:55.361Z</time>
      </trkpt>
      <trkpt lat="39.98517" lon="29.96668">
        <ele>775.349607</ele>
        <time>2021-11-17T05:08:15.869Z</time>
      </trkpt>
      <trkpt lat="39.98516" lon="29.96597">
        <ele>779.017776</ele>
        <time>2021-11-17T05:08:42.477Z</time>
      </trkpt>
      <trkpt lat="39.98525" lon="29.96511">
        <ele>783.525344</ele>
        <time>2021-11-17T05:09:17.410Z</time>
      </trkpt>
      <trkpt lat="39.98555" lon="29.96364">
        <ele>790.101949</ele>
        <time>2021-11-17T05:10:15.806Z</time>
      </trkpt>
      <trkpt lat="39.986" lon="29.9613">
        <ele>794.620531</ele>
        <time>2021-11-17T05:11:23.751Z</time>
      </trkpt>
      <trkpt lat="39.98867" lon="29.94545">
        <ele>783.106232</ele>
        <time>2021-11-17T05:15:18.986Z</time>
      </trkpt>
      <trkpt lat="39.98926" lon="29.94287">
        <ele>778.634268</ele>
        <time>2021-11-17T05:15:54.334Z</time>
      </trkpt>
      <trkpt lat="39.98985" lon="29.94116">
        <ele>774.945448</ele>
        <time>2021-11-17T05:16:18.544Z</time>
      </trkpt>
      <trkpt lat="39.99084" lon="29.93918">
        <ele>770.401717</ele>
        <time>2021-11-17T05:16:48.965Z</time>
      </trkpt>
      <trkpt lat="39.99163" lon="29.93695">
        <ele>766.542591</ele>
        <time>2021-11-17T05:17:21.745Z</time>
      </trkpt>
      <trkpt lat="39.99261" lon="29.93386">
        <ele>762.943789</ele>
        <time>2021-11-17T05:18:09.552Z</time>
      </trkpt>
      <trkpt lat="39.99342" lon="29.93107">
        <ele>760.819422</ele>
        <time>2021-11-17T05:18:54.008Z</time>
      </trkpt>
      <trkpt lat="39.99348" lon="29.93085">
        <ele>760.748795</ele>
        <time>2021-11-17T05:18:57.566Z</time>
      </trkpt>
      <trkpt lat="39.99414" lon="29.92818">
        <ele>760.590964</ele>
        <time>2021-11-17T05:19:43.356Z</time>
      </trkpt>
      <trkpt lat="39.99539" lon="29.92304">
        <ele>764.940948</ele>
        <time>2021-11-17T05:21:29.522Z</time>
      </trkpt>
      <trkpt lat="39.99556" lon="29.92234">
        <ele>766.101965</ele>
        <time>2021-11-17T05:21:49.634Z</time>
      </trkpt>
      <trkpt lat="39.99729" lon="29.91535">
        <ele>797.154701</ele>
        <time>2021-11-17T05:26:02.036Z</time>
      </trkpt>
      <trkpt lat="39.99742" lon="29.9148">
        <ele>799.442641</ele>
        <time>2021-11-17T05:26:22.903Z</time>
      </trkpt>
      <trkpt lat="39.99752" lon="29.9144">
        <ele>801.077676</ele>
        <time>2021-11-17T05:26:37.144Z</time>
      </trkpt>
      <trkpt lat="39.99756" lon="29.91424">
        <ele>801.732749</ele>
        <time>2021-11-17T05:26:42.640Z</time>
      </trkpt>
      <trkpt lat="39.99765" lon="29.91388">
        <ele>803.200516</ele>
        <time>2021-11-17T05:26:54.718Z</time>
      </trkpt>
      <trkpt lat="39.99771" lon="29.91361">
        <ele>804.308811</ele>
        <time>2021-11-17T05:27:03.493Z</time>
      </trkpt>
      <trkpt lat="39.99774" lon="29.91351">
        <ele>804.759901</ele>
        <time>2021-11-17T05:27:07.056Z</time>
      </trkpt>
      <trkpt lat="39.99775" lon="29.91341">
        <ele>805.124499</ele>
        <time>2021-11-17T05:27:09.847Z</time>
      </trkpt>
      <trkpt lat="39.99779" lon="29.91305">
        <ele>805.728199</ele>
        <time>2021-11-17T05:27:20.588Z</time>
      </trkpt>
      <trkpt lat="39.99786" lon="29.91235">
        <ele>806.415247</ele>
        <time>2021-11-17T05:27:38.306Z</time>
      </trkpt>
      <trkpt lat="39.99786" lon="29.91169">
        <ele>807.063646</ele>
        <time>2021-11-17T05:27:51.643Z</time>
      </trkpt>
      <trkpt lat="39.99775" lon="29.91122">
        <ele>807.530814</ele>
        <time>2021-11-17T05:27:58.983Z</time>
      </trkpt>
      <trkpt lat="39.99846" lon="29.9108">
        <ele>806.173954</ele>
        <time>2021-11-17T05:28:13.592Z</time>
      </trkpt>
      <trkpt lat="39.99852" lon="29.9107">
        <ele>805.944256</ele>
        <time>2021-11-17T05:28:15.155Z</time>
      </trkpt>
      <trkpt lat="39.99861" lon="29.91057">
        <ele>805.593902</ele>
        <time>2021-11-17T05:28:17.634Z</time>
      </trkpt>
      <trkpt lat="39.99872" lon="29.91037">
        <ele>805.123843</ele>
        <time>2021-11-17T05:28:20.908Z</time>
      </trkpt>
      <trkpt lat="39.99863" lon="29.91007">
        <ele>804.499271</ele>
        <time>2021-11-17T05:28:25.074Z</time>
      </trkpt>
      <trkpt lat="39.99859" lon="29.90963">
        <ele>803.631403</ele>
        <time>2021-11-17T05:28:30.824Z</time>
      </trkpt>
      <trkpt lat="39.99859" lon="29.90856">
        <ele>801.777008</ele>
        <time>2021-11-17T05:28:44.854Z</time>
      </trkpt>
      <trkpt lat="39.9986" lon="29.90833">
        <ele>801.397835</ele>
        <time>2021-11-17T05:28:47.824Z</time>
      </trkpt>
      <trkpt lat="39.99861" lon="29.90804">
        <ele>800.901304</ele>
        <time>2021-11-17T05:28:52.028Z</time>
      </trkpt>
      <trkpt lat="39.99867" lon="29.90777">
        <ele>800.43188</ele>
        <time>2021-11-17T05:28:56.047Z</time>
      </trkpt>
      <trkpt lat="39.99878" lon="29.90727">
        <ele>799.55866</ele>
        <time>2021-11-17T05:29:03.796Z</time>
      </trkpt>
      <trkpt lat="39.9988" lon="29.90715">
        <ele>799.350294</ele>
        <time>2021-11-17T05:29:05.661Z</time>
      </trkpt>
      <trkpt lat="39.99908" lon="29.90564">
        <ele>799.256525</ele>
        <time>2021-11-17T05:29:31.935Z</time>
      </trkpt>
      <trkpt lat="39.99929" lon="29.90445">
        <ele>799.577766</ele>
        <time>2021-11-17T05:29:56.515Z</time>
      </trkpt>
      <trkpt lat="39.99891" lon="29.90425">
        <ele>800.048377</ele>
        <time>2021-11-17T05:30:08.081Z</time>
      </trkpt>
      <trkpt lat="39.99886" lon="29.90422">
        <ele>800.106664</ele>
        <time>2021-11-17T05:30:09.535Z</time>
      </trkpt>
      <trkpt lat="39.99786" lon="29.90368">
        <ele>801.362013</ele>
        <time>2021-11-17T05:30:39.339Z</time>
      </trkpt>
      <trkpt lat="39.99777" lon="29.90364">
        <ele>801.577734</ele>
        <time>2021-11-17T05:30:42.232Z</time>
      </trkpt>
      <trkpt lat="39.99766" lon="29.9036">
        <ele>801.822598</ele>
        <time>2021-11-17T05:30:45.338Z</time>
      </trkpt>
      <trkpt lat="39.99784" lon="29.90235">
        <ele>803.91746</ele>
        <time>2021-11-17T05:31:16.108Z</time>
      </trkpt>
      <trkpt lat="39.99791" lon="29.90158">
        <ele>805.197399</ele>
        <time>2021-11-17T05:31:36.592Z</time>
      </trkpt>
      <trkpt lat="39.99807" lon="29.90047">
        <ele>806.977329</ele>
        <time>2021-11-17T05:32:06.319Z</time>
      </trkpt>
      <trkpt lat="39.99817" lon="29.89944">
        <ele>808.603481</ele>
        <time>2021-11-17T05:32:30.388Z</time>
      </trkpt>
      <trkpt lat="39.99824" lon="29.89867">
        <ele>808.653098</ele>
        <time>2021-11-17T05:32:46.031Z</time>
      </trkpt>
      <trkpt lat="39.99838" lon="29.89755">
        <ele>808.224675</ele>
        <time>2021-11-17T05:33:04.281Z</time>
      </trkpt>
      <trkpt lat="39.9977" lon="29.89729">
        <ele>807.487926</ele>
        <time>2021-11-17T05:33:17.544Z</time>
      </trkpt>
      <trkpt lat="39.99781" lon="29.89665">
        <ele>806.410428</ele>
        <time>2021-11-17T05:33:26.368Z</time>
      </trkpt>
      <trkpt lat="39.99794" lon="29.89603">
        <ele>805.364159</ele>
        <time>2021-11-17T05:33:34.949Z</time>
      </trkpt>
      <trkpt lat="39.99818" lon="29.89484">
        <ele>803.457848</ele>
        <time>2021-11-17T05:33:50.851Z</time>
      </trkpt>
      <trkpt lat="39.99821" lon="29.89469">
        <ele>803.236617</ele>
        <time>2021-11-17T05:33:52.829Z</time>
      </trkpt>
      <trkpt lat="39.99847" lon="29.8934">
        <ele>801.31185</ele>
        <time>2021-11-17T05:34:10.677Z</time>
      </trkpt>
      <trkpt lat="39.99855" lon="29.893">
        <ele>800.789205</ele>
        <time>2021-11-17T05:34:16.660Z</time>
      </trkpt>
      <trkpt lat="39.99942" lon="29.88865">
        <ele>801.677515</ele>
        <time>2021-11-17T05:35:38.758Z</time>
      </trkpt>
      <trkpt lat="39.99946" lon="29.88855">
        <ele>801.711156</ele>
        <time>2021-11-17T05:35:41.374Z</time>
      </trkpt>
      <trkpt lat="39.9996" lon="29.88805">
        <ele>801.419497</ele>
        <time>2021-11-17T05:35:51.099Z</time>
      </trkpt>
      <trkpt lat="40.00023" lon="29.88667">
        <ele>800.424995</ele>
        <time>2021-11-17T05:36:15.627Z</time>
      </trkpt>
      <trkpt lat="40.00259" lon="29.88231">
        <ele>790.841911</ele>
        <time>2021-11-17T05:37:23.758Z</time>
      </trkpt>
      <trkpt lat="40.00743" lon="29.8734">
        <ele>793.338396</ele>
        <time>2021-11-17T05:40:43.833Z</time>
      </trkpt>
      <trkpt lat="40.00804" lon="29.8717">
        <ele>794.293543</ele>
        <time>2021-11-17T05:41:22.217Z</time>
      </trkpt>
      <trkpt lat="40.00855" lon="29.87003">
        <ele>793.961719</ele>
        <time>2021-11-17T05:41:53.588Z</time>
      </trkpt>
      <trkpt lat="40.00853" lon="29.86983">
        <ele>793.782221</ele>
        <time>2021-11-17T05:41:56.504Z</time>
      </trkpt>
      <trkpt lat="40.0084" lon="29.8694">
        <ele>793.362091</ele>
        <time>2021-11-17T05:42:03.016Z</time>
      </trkpt>
      <trkpt lat="40.00811" lon="29.86863">
        <ele>792.466699</ele>
        <time>2021-11-17T05:42:14.415Z</time>
      </trkpt>
      <trkpt lat="40.0079" lon="29.86824">
        <ele>791.297953</ele>
        <time>2021-11-17T05:42:20.402Z</time>
      </trkpt>
      <trkpt lat="40.00787" lon="29.86786">
        <ele>790.348315</ele>
        <time>2021-11-17T05:42:25.161Z</time>
      </trkpt>
      <trkpt lat="40.00791" lon="29.86764">
        <ele>789.805325</ele>
        <time>2021-11-17T05:42:27.861Z</time>
      </trkpt>
      <trkpt lat="40.0104" lon="29.85976">
        <ele>769.417876</ele>
        <time>2021-11-17T05:44:13.778Z</time>
      </trkpt>
      <trkpt lat="40.01071" lon="29.85879">
        <ele>768.74953</ele>
        <time>2021-11-17T05:44:29.312Z</time>
      </trkpt>
      <trkpt lat="40.01091" lon="29.8585">
        <ele>768.502727</ele>
        <time>2021-11-17T05:44:35.921Z</time>
      </trkpt>
      <trkpt lat="40.01157" lon="29.85811">
        <ele>768.330608</ele>
        <time>2021-11-17T05:44:53.813Z</time>
      </trkpt>
      <trkpt lat="40.01171" lon="29.85781">
        <ele>768.567897</ele>
        <time>2021-11-17T05:45:00.801Z</time>
      </trkpt>
      <trkpt lat="40.01175" lon="29.85739">
        <ele>768.85375</ele>
        <time>2021-11-17T05:45:09.267Z</time>
      </trkpt>
      <trkpt lat="40.01175" lon="29.85609">
        <ele>769.729424</ele>
        <time>2021-11-17T05:45:35.415Z</time>
      </trkpt>
      <trkpt lat="40.01181" lon="29.85582">
        <ele>769.87156</ele>
        <time>2021-11-17T05:45:41.071Z</time>
      </trkpt>
      <trkpt lat="40.01285" lon="29.85291">
        <ele>771.542605</ele>
        <time>2021-11-17T05:46:41.617Z</time>
      </trkpt>
      <trkpt lat="40.0138" lon="29.84991">
        <ele>773.175301</ele>
        <time>2021-11-17T05:47:45.380Z</time>
      </trkpt>
      <trkpt lat="40.01392" lon="29.84927">
        <ele>773.114351</ele>
        <time>2021-11-17T05:47:56.126Z</time>
      </trkpt>
      <trkpt lat="40.01437" lon="29.84696">
        <ele>772.325297</ele>
        <time>2021-11-17T05:48:31.862Z</time>
      </trkpt>
      <trkpt lat="40.01644" lon="29.83661">
        <ele>775.390828</ele>
        <time>2021-11-17T05:51:47.941Z</time>
      </trkpt>
      <trkpt lat="40.01664" lon="29.83579">
        <ele>775.766536</ele>
        <time>2021-11-17T05:52:04.129Z</time>
      </trkpt>
      <trkpt lat="40.01781" lon="29.8324">
        <ele>778.193264</ele>
        <time>2021-11-17T05:53:16.833Z</time>
      </trkpt>
      <trkpt lat="40.01814" lon="29.83146">
        <ele>779.04857</ele>
        <time>2021-11-17T05:53:38.098Z</time>
      </trkpt>
      <trkpt lat="40.01817" lon="29.83135">
        <ele>779.178683</ele>
        <time>2021-11-17T05:53:40.670Z</time>
      </trkpt>
      <trkpt lat="40.01834" lon="29.83094">
        <ele>779.683561</ele>
        <time>2021-11-17T05:53:50.589Z</time>
      </trkpt>
      <trkpt lat="40.01965" lon="29.82694">
        <ele>785.181287</ele>
        <time>2021-11-17T05:55:24.309Z</time>
      </trkpt>
      <trkpt lat="40.01974" lon="29.82666">
        <ele>785.848695</ele>
        <time>2021-11-17T05:55:31.673Z</time>
      </trkpt>
      <trkpt lat="40.02056" lon="29.82412">
        <ele>792.994585</ele>
        <time>2021-11-17T05:56:48.751Z</time>
      </trkpt>
      <trkpt lat="40.02064" lon="29.82376">
        <ele>794.117</ele>
        <time>2021-11-17T05:57:00.214Z</time>
      </trkpt>
      <trkpt lat="40.02077" lon="29.8218">
        <ele>800.013383</ele>
        <time>2021-11-17T05:58:00.805Z</time>
      </trkpt>
      <trkpt lat="40.0206" lon="29.82073">
        <ele>803.267219</ele>
        <time>2021-11-17T05:58:31.006Z</time>
      </trkpt>
      <trkpt lat="40.02059" lon="29.8204">
        <ele>803.900436</ele>
        <time>2021-11-17T05:58:39.268Z</time>
      </trkpt>
      <trkpt lat="40.02066" lon="29.82011">
        <ele>804.496242</ele>
        <time>2021-11-17T05:58:46.773Z</time>
      </trkpt>
      <trkpt lat="40.02107" lon="29.81824">
        <ele>808.325062</ele>
        <time>2021-11-17T05:59:33.102Z</time>
      </trkpt>
      <trkpt lat="40.02156" lon="29.81594">
        <ele>814.131407</ele>
        <time>2021-11-17T06:00:38.110Z</time>
      </trkpt>
      <trkpt lat="40.02167" lon="29.81519">
        <ele>816.071873</ele>
        <time>2021-11-17T06:00:59.503Z</time>
      </trkpt>
      <trkpt lat="40.02189" lon="29.81436">
        <ele>818.306403</ele>
        <time>2021-11-17T06:01:23.337Z</time>
      </trkpt>
      <trkpt lat="40.02207" lon="29.81381">
        <ele>819.789219</ele>
        <time>2021-11-17T06:01:39.286Z</time>
      </trkpt>
      <trkpt lat="40.02211" lon="29.81302">
        <ele>821.623499</ele>
        <time>2021-11-17T06:01:59.853Z</time>
      </trkpt>
      <trkpt lat="40.02256" lon="29.81193">
        <ele>824.46929</ele>
        <time>2021-11-17T06:02:31.905Z</time>
      </trkpt>
      <trkpt lat="40.02295" lon="29.81002">
        <ele>829.155804</ele>
        <time>2021-11-17T06:03:25.368Z</time>
      </trkpt>
      <trkpt lat="40.02335" lon="29.80878">
        <ele>831.954616</ele>
        <time>2021-11-17T06:03:59.816Z</time>
      </trkpt>
      <trkpt lat="40.02341" lon="29.80826">
        <ele>832.950912</ele>
        <time>2021-11-17T06:04:12.688Z</time>
      </trkpt>
      <trkpt lat="40.0235" lon="29.80795">
        <ele>833.596634</ele>
        <time>2021-11-17T06:04:20.863Z</time>
      </trkpt>
      <trkpt lat="40.02454" lon="29.80641">
        <ele>837.421663</ele>
        <time>2021-11-17T06:05:08.870Z</time>
      </trkpt>
      <trkpt lat="40.02627" lon="29.80406">
        <ele>844.606218</ele>
        <time>2021-11-17T06:06:32.686Z</time>
      </trkpt>
      <trkpt lat="40.02696" lon="29.80303">
        <ele>849.697155</ele>
        <time>2021-11-17T06:07:14.907Z</time>
      </trkpt>
      <trkpt lat="40.02711" lon="29.80265">
        <ele>851.337315</ele>
        <time>2021-11-17T06:07:29.435Z</time>
      </trkpt>
      <trkpt lat="40.02728" lon="29.80189">
        <ele>854.575103</ele>
        <time>2021-11-17T06:07:57.432Z</time>
      </trkpt>
      <trkpt lat="40.0286" lon="29.79933">
        <ele>870.490726</ele>
        <time>2021-11-17T06:09:54.989Z</time>
      </trkpt>
      <trkpt lat="40.02879" lon="29.79869">
        <ele>874.026511</ele>
        <time>2021-11-17T06:10:21.346Z</time>
      </trkpt>
      <trkpt lat="40.02886" lon="29.79779">
        <ele>878.65759</ele>
        <time>2021-11-17T06:10:55.337Z</time>
      </trkpt>
      <trkpt lat="40.029" lon="29.79741">
        <ele>880.580404</ele>
        <time>2021-11-17T06:11:10.931Z</time>
      </trkpt>
      <trkpt lat="40.02958" lon="29.79651">
        <ele>885.880327</ele>
        <time>2021-11-17T06:11:51.620Z</time>
      </trkpt>
      <trkpt lat="40.02972" lon="29.79624">
        <ele>887.363967</ele>
        <time>2021-11-17T06:12:02.725Z</time>
      </trkpt>
      <trkpt lat="40.02977" lon="29.79595">
        <ele>888.680877</ele>
        <time>2021-11-17T06:12:12.504Z</time>
      </trkpt>
      <trkpt lat="40.02986" lon="29.79576">
        <ele>889.725351</ele>
        <time>2021-11-17T06:12:20.033Z</time>
      </trkpt>
      <trkpt lat="40.03021" lon="29.79545">
        <ele>892.260043</ele>
        <time>2021-11-17T06:12:38.663Z</time>
      </trkpt>
      <trkpt lat="40.03036" lon="29.79516">
        <ele>893.893229</ele>
        <time>2021-11-17T06:12:51.050Z</time>
      </trkpt>
      <trkpt lat="40.03045" lon="29.79489">
        <ele>895.275608</ele>
        <time>2021-11-17T06:13:01.821Z</time>
      </trkpt>
      <trkpt lat="40.03048" lon="29.79441">
        <ele>897.475551</ele>
        <time>2021-11-17T06:13:19.102Z</time>
      </trkpt>
      <trkpt lat="40.03055" lon="29.79421">
        <ele>898.509284</ele>
        <time>2021-11-17T06:13:27.228Z</time>
      </trkpt>
      <trkpt lat="40.03108" lon="29.79381">
        <ele>902.91072</ele>
        <time>2021-11-17T06:13:57.180Z</time>
      </trkpt>
      <trkpt lat="40.03121" lon="29.79352">
        <ele>904.865249</ele>
        <time>2021-11-17T06:14:10.517Z</time>
      </trkpt>
      <trkpt lat="40.03127" lon="29.79321">
        <ele>906.73396</ele>
        <time>2021-11-17T06:14:23.480Z</time>
      </trkpt>
      <trkpt lat="40.03152" lon="29.79289">
        <ele>909.362832</ele>
        <time>2021-11-17T06:14:42.142Z</time>
      </trkpt>
      <trkpt lat="40.03187" lon="29.79229">
        <ele>913.934615</ele>
        <time>2021-11-17T06:15:14.451Z</time>
      </trkpt>
      <trkpt lat="40.03251" lon="29.79164">
        <ele>921.581779</ele>
        <time>2021-11-17T06:16:01.570Z</time>
      </trkpt>
      <trkpt lat="40.03275" lon="29.79119">
        <ele>925.53324</ele>
        <time>2021-11-17T06:16:27.454Z</time>
      </trkpt>
      <trkpt lat="40.03295" lon="29.7907">
        <ele>929.529474</ele>
        <time>2021-11-17T06:16:54.275Z</time>
      </trkpt>
      <trkpt lat="40.03317" lon="29.78982">
        <ele>936.254044</ele>
        <time>2021-11-17T06:17:38.868Z</time>
      </trkpt>
      <trkpt lat="40.0334" lon="29.78938">
        <ele>940.172009</ele>
        <time>2021-11-17T06:18:04.294Z</time>
      </trkpt>
      <trkpt lat="40.03376" lon="29.78852">
        <ele>947.275395</ele>
        <time>2021-11-17T06:18:48.439Z</time>
      </trkpt>
      <trkpt lat="40.03382" lon="29.78817">
        <ele>949.147957</ele>
        <time>2021-11-17T06:19:03.780Z</time>
      </trkpt>
      <trkpt lat="40.03379" lon="29.78763">
        <ele>951.957818</ele>
        <time>2021-11-17T06:19:25.561Z</time>
      </trkpt>
      <trkpt lat="40.03398" lon="29.78685">
        <ele>956.177825</ele>
        <time>2021-11-17T06:19:54.256Z</time>
      </trkpt>
      <trkpt lat="40.03382" lon="29.78607">
        <ele>960.108736</ele>
        <time>2021-11-17T06:20:22.802Z</time>
      </trkpt>
      <trkpt lat="40.03408" lon="29.7853">
        <ele>963.231825</ele>
        <time>2021-11-17T06:20:50.204Z</time>
      </trkpt>
      <trkpt lat="40.0341" lon="29.78501">
        <ele>964.328109</ele>
        <time>2021-11-17T06:20:59.486Z</time>
      </trkpt>
      <trkpt lat="40.03404" lon="29.78454">
        <ele>966.078479</ele>
        <time>2021-11-17T06:21:14.090Z</time>
      </trkpt>
      <trkpt lat="40.03393" lon="29.78442">
        <ele>966.764986</ele>
        <time>2021-11-17T06:21:19.750Z</time>
      </trkpt>
      <trkpt lat="40.03368" lon="29.78432">
        <ele>968.031885</ele>
        <time>2021-11-17T06:21:30.061Z</time>
      </trkpt>
      <trkpt lat="40.03338" lon="29.78433">
        <ele>969.01</ele>
        <time>2021-11-17T06:21:41.667Z</time>
      </trkpt>
      <trkpt lat="40.03313" lon="29.78413">
        <ele>969.93938</ele>
        <time>2021-11-17T06:21:53.139Z</time>
      </trkpt>
      <trkpt lat="40.03309" lon="29.78402">
        <ele>970.208488</ele>
        <time>2021-11-17T06:21:56.472Z</time>
      </trkpt>
      <trkpt lat="40.03308" lon="29.78379">
        <ele>970.774553</ele>
        <time>2021-11-17T06:22:03.251Z</time>
      </trkpt>
      <trkpt lat="40.03315" lon="29.78354">
        <ele>971.398462</ele>
        <time>2021-11-17T06:22:10.464Z</time>
      </trkpt>
      <trkpt lat="40.03349" lon="29.78318">
        <ele>972.750879</ele>
        <time>2021-11-17T06:22:23.781Z</time>
      </trkpt>
      <trkpt lat="40.03362" lon="29.78282">
        <ele>973.698981</ele>
        <time>2021-11-17T06:22:32.912Z</time>
      </trkpt>
      <trkpt lat="40.03366" lon="29.78246">
        <ele>974.199889</ele>
        <time>2021-11-17T06:22:40.989Z</time>
      </trkpt>
      <trkpt lat="40.03345" lon="29.78193">
        <ele>975.004097</ele>
        <time>2021-11-17T06:22:54.077Z</time>
      </trkpt>
      <trkpt lat="40.03314" lon="29.78133">
        <ele>975.962804</ele>
        <time>2021-11-17T06:23:09.215Z</time>
      </trkpt>
      <trkpt lat="40.03294" lon="29.78067">
        <ele>976.94677</ele>
        <time>2021-11-17T06:23:25.043Z</time>
      </trkpt>
      <trkpt lat="40.03304" lon="29.78037">
        <ele>977.881921</ele>
        <time>2021-11-17T06:23:33.081Z</time>
      </trkpt>
      <trkpt lat="40.03314" lon="29.78027">
        <ele>978.372751</ele>
        <time>2021-11-17T06:23:37.410Z</time>
      </trkpt>
      <trkpt lat="40.03381" lon="29.78004">
        <ele>980.994623</ele>
        <time>2021-11-17T06:24:03.147Z</time>
      </trkpt>
      <trkpt lat="40.03405" lon="29.77966">
        <ele>982.42092</ele>
        <time>2021-11-17T06:24:18.445Z</time>
      </trkpt>
      <trkpt lat="40.03414" lon="29.77924">
        <ele>983.670459</ele>
        <time>2021-11-17T06:24:32.229Z</time>
      </trkpt>
      <trkpt lat="40.03402" lon="29.77775">
        <ele>989.217256</ele>
        <time>2021-11-17T06:25:21.578Z</time>
      </trkpt>
      <trkpt lat="40.03394" lon="29.77737">
        <ele>990.681857</ele>
        <time>2021-11-17T06:25:34.422Z</time>
      </trkpt>
      <trkpt lat="40.0338" lon="29.77701">
        <ele>992.163139</ele>
        <time>2021-11-17T06:25:46.760Z</time>
      </trkpt>
      <trkpt lat="40.03378" lon="29.77674">
        <ele>992.967349</ele>
        <time>2021-11-17T06:25:54.689Z</time>
      </trkpt>
      <trkpt lat="40.03383" lon="29.7765">
        <ele>993.64517</ele>
        <time>2021-11-17T06:26:01.771Z</time>
      </trkpt>
      <trkpt lat="40.03397" lon="29.77613">
        <ele>994.797113</ele>
        <time>2021-11-17T06:26:13.278Z</time>
      </trkpt>
      <trkpt lat="40.03428" lon="29.77563">
        <ele>996.579456</ele>
        <time>2021-11-17T06:26:30.534Z</time>
      </trkpt>
      <trkpt lat="40.03453" lon="29.77498">
        <ele>998.601654</ele>
        <time>2021-11-17T06:26:50.374Z</time>
      </trkpt>
      <trkpt lat="40.0346" lon="29.77438">
        <ele>1000.579235</ele>
        <time>2021-11-17T06:27:07.492Z</time>
      </trkpt>
      <trkpt lat="40.03468" lon="29.77414">
        <ele>1001.470388</ele>
        <time>2021-11-17T06:27:15.128Z</time>
      </trkpt>
      <trkpt lat="40.0348" lon="29.77396">
        <ele>1002.284557</ele>
        <time>2021-11-17T06:27:22.339Z</time>
      </trkpt>
      <trkpt lat="40.03531" lon="29.77369">
        <ele>1004.73377</ele>
        <time>2021-11-17T06:27:44.736Z</time>
      </trkpt>
      <trkpt lat="40.03548" lon="29.77331">
        <ele>1006.209679</ele>
        <time>2021-11-17T06:27:58.951Z</time>
      </trkpt>
      <trkpt lat="40.03553" lon="29.77305">
        <ele>1007.111936</ele>
        <time>2021-11-17T06:28:07.926Z</time>
      </trkpt>
      <trkpt lat="40.03551" lon="29.77275">
        <ele>1008.085946</ele>
        <time>2021-11-17T06:28:18.001Z</time>
      </trkpt>
      <trkpt lat="40.0354" lon="29.77246">
        <ele>1009.161955</ele>
        <time>2021-11-17T06:28:28.971Z</time>
      </trkpt>
      <trkpt lat="40.03533" lon="29.77203">
        <ele>1010.592045</ele>
        <time>2021-11-17T06:28:43.153Z</time>
      </trkpt>
      <trkpt lat="40.03544" lon="29.77098">
        <ele>1014.047362</ele>
        <time>2021-11-17T06:29:14.256Z</time>
      </trkpt>
      <trkpt lat="40.03527" lon="29.77002">
        <ele>1015.077265</ele>
        <time>2021-11-17T06:29:37.531Z</time>
      </trkpt>
      <trkpt lat="40.03525" lon="29.76952">
        <ele>1015.395954</ele>
        <time>2021-11-17T06:29:47.363Z</time>
      </trkpt>
      <trkpt lat="40.03533" lon="29.76624">
        <ele>1014.872543</ele>
        <time>2021-11-17T06:30:37.394Z</time>
      </trkpt>
      <trkpt lat="40.03541" lon="29.76537">
        <ele>1014.801386</ele>
        <time>2021-11-17T06:30:51.449Z</time>
      </trkpt>
      <trkpt lat="40.03538" lon="29.76478">
        <ele>1014.780761</ele>
        <time>2021-11-17T06:31:01.040Z</time>
      </trkpt>
      <trkpt lat="40.03518" lon="29.76365">
        <ele>1014.917375</ele>
        <time>2021-11-17T06:31:22.034Z</time>
      </trkpt>
      <trkpt lat="40.03523" lon="29.76316">
        <ele>1015.340549</ele>
        <time>2021-11-17T06:31:31.878Z</time>
      </trkpt>
      <trkpt lat="40.03539" lon="29.76286">
        <ele>1015.654258</ele>
        <time>2021-11-17T06:31:39.481Z</time>
      </trkpt>
      <trkpt lat="40.03571" lon="29.76252">
        <ele>1016.110749</ele>
        <time>2021-11-17T06:31:50.561Z</time>
      </trkpt>
      <trkpt lat="40.03634" lon="29.76194">
        <ele>1016.877952</ele>
        <time>2021-11-17T06:32:12.055Z</time>
      </trkpt>
      <trkpt lat="40.03714" lon="29.7612">
        <ele>1017.459607</ele>
        <time>2021-11-17T06:32:40.497Z</time>
      </trkpt>
      <trkpt lat="40.03752" lon="29.76074">
        <ele>1017.769203</ele>
        <time>2021-11-17T06:32:52.694Z</time>
      </trkpt>
      <trkpt lat="40.03796" lon="29.76019">
        <ele>1015.908683</ele>
        <time>2021-11-17T06:33:02.781Z</time>
      </trkpt>
      <trkpt lat="40.03826" lon="29.75986">
        <ele>1014.369641</ele>
        <time>2021-11-17T06:33:09.155Z</time>
      </trkpt>
      <trkpt lat="40.03851" lon="29.75943">
        <ele>1012.78907</ele>
        <time>2021-11-17T06:33:15.487Z</time>
      </trkpt>
      <trkpt lat="40.03858" lon="29.75923">
        <ele>1012.154313</ele>
        <time>2021-11-17T06:33:17.828Z</time>
      </trkpt>
      <trkpt lat="40.03868" lon="29.75904">
        <ele>1011.463869</ele>
        <time>2021-11-17T06:33:20.731Z</time>
      </trkpt>
      <trkpt lat="40.03874" lon="29.75879">
        <ele>1010.639191</ele>
        <time>2021-11-17T06:33:23.637Z</time>
      </trkpt>
      <trkpt lat="40.03872" lon="29.75781">
        <ele>1007.135224</ele>
        <time>2021-11-17T06:33:34.748Z</time>
      </trkpt>
      <trkpt lat="40.03875" lon="29.75754">
        <ele>1006.16091</ele>
        <time>2021-11-17T06:33:37.921Z</time>
      </trkpt>
      <trkpt lat="40.03886" lon="29.75727">
        <ele>1005.073997</ele>
        <time>2021-11-17T06:33:41.403Z</time>
      </trkpt>
      <trkpt lat="40.03901" lon="29.75712">
        <ele>1004.203532</ele>
        <time>2021-11-17T06:33:44.414Z</time>
      </trkpt>
      <trkpt lat="40.03931" lon="29.75698">
        <ele>1002.708321</ele>
        <time>2021-11-17T06:33:49.668Z</time>
      </trkpt>
      <trkpt lat="40.03976" lon="29.75699">
        <ele>1001.010331</ele>
        <time>2021-11-17T06:33:57.036Z</time>
      </trkpt>
      <trkpt lat="40.0399" lon="29.75704">
        <ele>1000.481843</ele>
        <time>2021-11-17T06:33:59.409Z</time>
      </trkpt>
      <trkpt lat="40.04056" lon="29.75751">
        <ele>997.740123</ele>
        <time>2021-11-17T06:34:11.418Z</time>
      </trkpt>
      <trkpt lat="40.04068" lon="29.75747">
        <ele>997.269722</ele>
        <time>2021-11-17T06:34:13.439Z</time>
      </trkpt>
      <trkpt lat="40.04074" lon="29.75732">
        <ele>996.803562</ele>
        <time>2021-11-17T06:34:15.423Z</time>
      </trkpt>
      <trkpt lat="40.04073" lon="29.75711">
        <ele>996.21023</ele>
        <time>2021-11-17T06:34:17.950Z</time>
      </trkpt>
      <trkpt lat="40.04048" lon="29.75664">
        <ele>994.605154</ele>
        <time>2021-11-17T06:34:24.706Z</time>
      </trkpt>
      <trkpt lat="40.04045" lon="29.75602">
        <ele>992.824468</ele>
        <time>2021-11-17T06:34:32.162Z</time>
      </trkpt>
      <trkpt lat="40.04046" lon="29.7557">
        <ele>991.92319</ele>
        <time>2021-11-17T06:34:35.940Z</time>
      </trkpt>
      <trkpt lat="40.04063" lon="29.75544">
        <ele>990.958539</ele>
        <time>2021-11-17T06:34:40.038Z</time>
      </trkpt>
      <trkpt lat="40.04085" lon="29.75526">
        <ele>990.000308</ele>
        <time>2021-11-17T06:34:44.205Z</time>
      </trkpt>
      <trkpt lat="40.04155" lon="29.75499">
        <ele>988.660944</ele>
        <time>2021-11-17T06:34:56.704Z</time>
      </trkpt>
      <trkpt lat="40.04188" lon="29.75496">
        <ele>988.298346</ele>
        <time>2021-11-17T06:35:02.889Z</time>
      </trkpt>
      <trkpt lat="40.04229" lon="29.75503">
        <ele>987.836212</ele>
        <time>2021-11-17T06:35:11.496Z</time>
      </trkpt>
      <trkpt lat="40.04244" lon="29.75499">
        <ele>987.669238</ele>
        <time>2021-11-17T06:35:14.820Z</time>
      </trkpt>
      <trkpt lat="40.04279" lon="29.75454">
        <ele>987.186552</ele>
        <time>2021-11-17T06:35:25.884Z</time>
      </trkpt>
      <trkpt lat="40.04314" lon="29.7542">
        <ele>986.947166</ele>
        <time>2021-11-17T06:35:35.937Z</time>
      </trkpt>
      <trkpt lat="40.04327" lon="29.75397">
        <ele>986.828416</ele>
        <time>2021-11-17T06:35:40.794Z</time>
      </trkpt>
      <trkpt lat="40.04328" lon="29.75344">
        <ele>986.60356</ele>
        <time>2021-11-17T06:35:49.518Z</time>
      </trkpt>
      <trkpt lat="40.04298" lon="29.75295">
        <ele>986.340695</ele>
        <time>2021-11-17T06:35:58.887Z</time>
      </trkpt>
      <trkpt lat="40.0423" lon="29.75231">
        <ele>983.905407</ele>
        <time>2021-11-17T06:36:13.637Z</time>
      </trkpt>
      <trkpt lat="40.04198" lon="29.75183">
        <ele>982.271277</ele>
        <time>2021-11-17T06:36:21.468Z</time>
      </trkpt>
      <trkpt lat="40.04166" lon="29.75114">
        <ele>980.18755</ele>
        <time>2021-11-17T06:36:30.791Z</time>
      </trkpt>
      <trkpt lat="40.04111" lon="29.75016">
        <ele>974.492874</ele>
        <time>2021-11-17T06:36:44.602Z</time>
      </trkpt>
      <trkpt lat="40.04098" lon="29.74987">
        <ele>972.94634</ele>
        <time>2021-11-17T06:36:48.263Z</time>
      </trkpt>
      <trkpt lat="40.04087" lon="29.74917">
        <ele>969.612368</ele>
        <time>2021-11-17T06:36:56.206Z</time>
      </trkpt>
      <trkpt lat="40.04082" lon="29.74858">
        <ele>966.385367</ele>
        <time>2021-11-17T06:37:02.749Z</time>
      </trkpt>
      <trkpt lat="40.04082" lon="29.74797">
        <ele>963.016329</ele>
        <time>2021-11-17T06:37:09.385Z</time>
      </trkpt>
      <trkpt lat="40.04085" lon="29.74773">
        <ele>961.709685</ele>
        <time>2021-11-17T06:37:11.998Z</time>
      </trkpt>
      <trkpt lat="40.041" lon="29.74723">
        <ele>958.697571</ele>
        <time>2021-11-17T06:37:17.961Z</time>
      </trkpt>
      <trkpt lat="40.04102" lon="29.74686">
        <ele>956.685983</ele>
        <time>2021-11-17T06:37:21.904Z</time>
      </trkpt>
      <trkpt lat="40.04109" lon="29.74669">
        <ele>955.514738</ele>
        <time>2021-11-17T06:37:24.007Z</time>
      </trkpt>
      <trkpt lat="40.04137" lon="29.74647">
        <ele>952.798322</ele>
        <time>2021-11-17T06:37:28.608Z</time>
      </trkpt>
      <trkpt lat="40.04145" lon="29.74633">
        <ele>951.667255</ele>
        <time>2021-11-17T06:37:30.506Z</time>
      </trkpt>
      <trkpt lat="40.04157" lon="29.74592">
        <ele>948.897725</ele>
        <time>2021-11-17T06:37:35.169Z</time>
      </trkpt>
      <trkpt lat="40.04164" lon="29.74545">
        <ele>945.862132</ele>
        <time>2021-11-17T06:37:40.264Z</time>
      </trkpt>
      <trkpt lat="40.04163" lon="29.74511">
        <ele>943.715056</ele>
        <time>2021-11-17T06:37:43.865Z</time>
      </trkpt>
      <trkpt lat="40.041" lon="29.74349">
        <ele>932.681262</ele>
        <time>2021-11-17T06:38:03.339Z</time>
      </trkpt>
      <trkpt lat="40.041" lon="29.74315">
        <ele>930.628129</ele>
        <time>2021-11-17T06:38:07.047Z</time>
      </trkpt>
      <trkpt lat="40.04109" lon="29.74293">
        <ele>929.166515</ele>
        <time>2021-11-17T06:38:09.696Z</time>
      </trkpt>
      <trkpt lat="40.04149" lon="29.74228">
        <ele>924.29266</ele>
        <time>2021-11-17T06:38:18.839Z</time>
      </trkpt>
      <trkpt lat="40.04163" lon="29.74217">
        <ele>923.10325</ele>
        <time>2021-11-17T06:38:21.116Z</time>
      </trkpt>
      <trkpt lat="40.04184" lon="29.74213">
        <ele>921.532293</ele>
        <time>2021-11-17T06:38:24.133Z</time>
      </trkpt>
      <trkpt lat="40.04245" lon="29.74232">
        <ele>916.853975</ele>
        <time>2021-11-17T06:38:33.083Z</time>
      </trkpt>
      <trkpt lat="40.04259" lon="29.74232">
        <ele>915.782892</ele>
        <time>2021-11-17T06:38:35.124Z</time>
      </trkpt>
      <trkpt lat="40.04273" lon="29.74223">
        <ele>914.624932</ele>
        <time>2021-11-17T06:38:37.309Z</time>
      </trkpt>
      <trkpt lat="40.04283" lon="29.74211">
        <ele>913.603751</ele>
        <time>2021-11-17T06:38:39.181Z</time>
      </trkpt>
      <trkpt lat="40.04298" lon="29.74133">
        <ele>908.311843</ele>
        <time>2021-11-17T06:38:47.790Z</time>
      </trkpt>
      <trkpt lat="40.04339" lon="29.74042">
        <ele>901.358575</ele>
        <time>2021-11-17T06:38:59.006Z</time>
      </trkpt>
      <trkpt lat="40.0437" lon="29.74013">
        <ele>898.055298</ele>
        <time>2021-11-17T06:39:04.238Z</time>
      </trkpt>
      <trkpt lat="40.04396" lon="29.74002">
        <ele>895.43322</ele>
        <time>2021-11-17T06:39:08.015Z</time>
      </trkpt>
      <trkpt lat="40.04445" lon="29.74005">
        <ele>890.688449</ele>
        <time>2021-11-17T06:39:14.820Z</time>
      </trkpt>
      <trkpt lat="40.0446" lon="29.73998">
        <ele>889.183531</ele>
        <time>2021-11-17T06:39:16.977Z</time>
      </trkpt>
      <trkpt lat="40.04475" lon="29.73977">
        <ele>887.110494</ele>
        <time>2021-11-17T06:39:19.944Z</time>
      </trkpt>
      <trkpt lat="40.04496" lon="29.73886">
        <ele>880.25008</ele>
        <time>2021-11-17T06:39:29.906Z</time>
      </trkpt>
      <trkpt lat="40.04539" lon="29.738">
        <ele>873.474649</ele>
        <time>2021-11-17T06:39:40.654Z</time>
      </trkpt>
      <trkpt lat="40.04546" lon="29.73772">
        <ele>871.501076</ele>
        <time>2021-11-17T06:39:43.808Z</time>
      </trkpt>
      <trkpt lat="40.04546" lon="29.73753">
        <ele>870.287076</ele>
        <time>2021-11-17T06:39:45.755Z</time>
      </trkpt>
      <trkpt lat="40.04536" lon="29.73723">
        <ele>868.078199</ele>
        <time>2021-11-17T06:39:49.316Z</time>
      </trkpt>
      <trkpt lat="40.04461" lon="29.73595">
        <ele>859.275159</ele>
        <time>2021-11-17T06:40:06.898Z</time>
      </trkpt>
      <trkpt lat="40.04418" lon="29.73589">
        <ele>856.335943</ele>
        <time>2021-11-17T06:40:13.298Z</time>
      </trkpt>
      <trkpt lat="40.04384" lon="29.73575">
        <ele>853.979554</ele>
        <time>2021-11-17T06:40:18.425Z</time>
      </trkpt>
      <trkpt lat="40.04327" lon="29.73541">
        <ele>849.795256</ele>
        <time>2021-11-17T06:40:27.560Z</time>
      </trkpt>
      <trkpt lat="40.04318" lon="29.73528">
        <ele>848.881666</ele>
        <time>2021-11-17T06:40:29.544Z</time>
      </trkpt>
      <trkpt lat="40.04297" lon="29.73361">
        <ele>840.09268</ele>
        <time>2021-11-17T06:40:48.054Z</time>
      </trkpt>
      <trkpt lat="40.04298" lon="29.73336">
        <ele>838.608904</ele>
        <time>2021-11-17T06:40:50.857Z</time>
      </trkpt>
      <trkpt lat="40.04305" lon="29.7331">
        <ele>837.041604</ele>
        <time>2021-11-17T06:40:53.805Z</time>
      </trkpt>
      <trkpt lat="40.04352" lon="29.73268">
        <ele>832.775663</ele>
        <time>2021-11-17T06:41:01.820Z</time>
      </trkpt>
      <trkpt lat="40.04359" lon="29.73249">
        <ele>831.575231</ele>
        <time>2021-11-17T06:41:04.062Z</time>
      </trkpt>
      <trkpt lat="40.04362" lon="29.73224">
        <ele>830.104343</ele>
        <time>2021-11-17T06:41:06.815Z</time>
      </trkpt>
      <trkpt lat="40.04356" lon="29.73157">
        <ele>825.945761</ele>
        <time>2021-11-17T06:41:14.039Z</time>
      </trkpt>
      <trkpt lat="40.04335" lon="29.73098">
        <ele>821.55173</ele>
        <time>2021-11-17T06:41:21.073Z</time>
      </trkpt>
      <trkpt lat="40.04317" lon="29.73072">
        <ele>819.171829</ele>
        <time>2021-11-17T06:41:24.862Z</time>
      </trkpt>
      <trkpt lat="40.04267" lon="29.73063">
        <ele>814.737958</ele>
        <time>2021-11-17T06:41:31.867Z</time>
      </trkpt>
      <trkpt lat="40.04254" lon="29.73039">
        <ele>812.826506</ele>
        <time>2021-11-17T06:41:34.843Z</time>
      </trkpt>
      <trkpt lat="40.04237" lon="29.73022">
        <ele>810.487137</ele>
        <time>2021-11-17T06:41:37.749Z</time>
      </trkpt>
      <trkpt lat="40.04176" lon="29.72978">
        <ele>802.339447</ele>
        <time>2021-11-17T06:41:47.099Z</time>
      </trkpt>
      <trkpt lat="40.04152" lon="29.72954">
        <ele>798.796301</ele>
        <time>2021-11-17T06:41:51.133Z</time>
      </trkpt>
      <trkpt lat="40.04136" lon="29.72921">
        <ele>795.329221</ele>
        <time>2021-11-17T06:41:55.066Z</time>
      </trkpt>
      <trkpt lat="40.04122" lon="29.72845">
        <ele>788.579294</ele>
        <time>2021-11-17T06:42:02.955Z</time>
      </trkpt>
      <trkpt lat="40.04114" lon="29.72834">
        <ele>787.29623</ele>
        <time>2021-11-17T06:42:04.523Z</time>
      </trkpt>
      <trkpt lat="40.04008" lon="29.72786">
        <ele>775.176566</ele>
        <time>2021-11-17T06:42:19.526Z</time>
      </trkpt>
      <trkpt lat="40.03999" lon="29.72779">
        <ele>774.02077</ele>
        <time>2021-11-17T06:42:21.005Z</time>
      </trkpt>
      <trkpt lat="40.03993" lon="29.72764">
        <ele>772.659712</ele>
        <time>2021-11-17T06:42:22.762Z</time>
      </trkpt>
      <trkpt lat="40.03994" lon="29.72738">
        <ele>771.031869</ele>
        <time>2021-11-17T06:42:25.551Z</time>
      </trkpt>
      <trkpt lat="40.04007" lon="29.72704">
        <ele>769.054684</ele>
        <time>2021-11-17T06:42:29.733Z</time>
      </trkpt>
      <trkpt lat="40.04056" lon="29.72662">
        <ele>765.075386</ele>
        <time>2021-11-17T06:42:38.319Z</time>
      </trkpt>
      <trkpt lat="40.04069" lon="29.72639">
        <ele>763.61008</ele>
        <time>2021-11-17T06:42:41.525Z</time>
      </trkpt>
      <trkpt lat="40.04073" lon="29.72618">
        <ele>762.511395</ele>
        <time>2021-11-17T06:42:43.987Z</time>
      </trkpt>
      <trkpt lat="40.04045" lon="29.72429">
        <ele>752.515544</ele>
        <time>2021-11-17T06:43:05.603Z</time>
      </trkpt>
      <trkpt lat="40.04033" lon="29.72414">
        <ele>751.388081</ele>
        <time>2021-11-17T06:43:07.949Z</time>
      </trkpt>
      <trkpt lat="40.03971" lon="29.72379">
        <ele>746.620338</ele>
        <time>2021-11-17T06:43:17.507Z</time>
      </trkpt>
      <trkpt lat="40.03959" lon="29.72338">
        <ele>743.921986</ele>
        <time>2021-11-17T06:43:22.177Z</time>
      </trkpt>
      <trkpt lat="40.03959" lon="29.72316">
        <ele>742.557258</ele>
        <time>2021-11-17T06:43:24.537Z</time>
      </trkpt>
      <trkpt lat="40.03964" lon="29.72297">
        <ele>741.306645</ele>
        <time>2021-11-17T06:43:26.694Z</time>
      </trkpt>
      <trkpt lat="40.04003" lon="29.72228">
        <ele>735.974872</ele>
        <time>2021-11-17T06:43:35.909Z</time>
      </trkpt>
      <trkpt lat="40.04056" lon="29.72151">
        <ele>729.221989</ele>
        <time>2021-11-17T06:43:47.008Z</time>
      </trkpt>
      <trkpt lat="40.04092" lon="29.72116">
        <ele>725.253563</ele>
        <time>2021-11-17T06:43:53.286Z</time>
      </trkpt>
      <trkpt lat="40.04232" lon="29.72009">
        <ele>709.271608</ele>
        <time>2021-11-17T06:44:15.510Z</time>
      </trkpt>
      <trkpt lat="40.04249" lon="29.71972">
        <ele>705.647492</ele>
        <time>2021-11-17T06:44:19.870Z</time>
      </trkpt>
      <trkpt lat="40.0429" lon="29.71841">
        <ele>692.907215</ele>
        <time>2021-11-17T06:44:34.299Z</time>
      </trkpt>
      <trkpt lat="40.04294" lon="29.71806">
        <ele>689.314665</ele>
        <time>2021-11-17T06:44:37.895Z</time>
      </trkpt>
      <trkpt lat="40.04286" lon="29.71763">
        <ele>684.92777</ele>
        <time>2021-11-17T06:44:42.292Z</time>
      </trkpt>
      <trkpt lat="40.04257" lon="29.71718">
        <ele>678.975407</ele>
        <time>2021-11-17T06:44:48.242Z</time>
      </trkpt>
      <trkpt lat="40.04008" lon="29.71422">
        <ele>632.948736</ele>
        <time>2021-11-17T06:45:32.338Z</time>
      </trkpt>
      <trkpt lat="40.0395" lon="29.71318">
        <ele>619.416065</ele>
        <time>2021-11-17T06:45:45.161Z</time>
      </trkpt>
      <trkpt lat="40.03922" lon="29.71242">
        <ele>610.872043</ele>
        <time>2021-11-17T06:45:53.678Z</time>
      </trkpt>
      <trkpt lat="40.03906" lon="29.7116">
        <ele>602.395424</ele>
        <time>2021-11-17T06:46:02.207Z</time>
      </trkpt>
      <trkpt lat="40.03891" lon="29.71009">
        <ele>589.274753</ele>
        <time>2021-11-17T06:46:17.928Z</time>
      </trkpt>
      <trkpt lat="40.03892" lon="29.70891">
        <ele>579.407665</ele>
        <time>2021-11-17T06:46:30.095Z</time>
      </trkpt>
      <trkpt lat="40.03882" lon="29.70844">
        <ele>574.917473</ele>
        <time>2021-11-17T06:46:35.150Z</time>
      </trkpt>
      <trkpt lat="40.03864" lon="29.70781">
        <ele>568.858613</ele>
        <time>2021-11-17T06:46:41.927Z</time>
      </trkpt>
      <trkpt lat="40.03808" lon="29.70662">
        <ele>556.32259</ele>
        <time>2021-11-17T06:46:56.088Z</time>
      </trkpt>
      <trkpt lat="40.03776" lon="29.70573">
        <ele>547.828628</ele>
        <time>2021-11-17T06:47:06.135Z</time>
      </trkpt>
      <trkpt lat="40.03711" lon="29.70278">
        <ele>522.960235</ele>
        <time>2021-11-17T06:47:37.940Z</time>
      </trkpt>
      <trkpt lat="40.03701" lon="29.70244">
        <ele>520.172646</ele>
        <time>2021-11-17T06:47:41.754Z</time>
      </trkpt>
      <trkpt lat="40.03679" lon="29.70204">
        <ele>517.201041</ele>
        <time>2021-11-17T06:47:46.801Z</time>
      </trkpt>
      <trkpt lat="40.0363" lon="29.70139">
        <ele>511.593566</ele>
        <time>2021-11-17T06:47:56.548Z</time>
      </trkpt>
      <trkpt lat="40.03618" lon="29.7013">
        <ele>510.476267</ele>
        <time>2021-11-17T06:47:58.492Z</time>
      </trkpt>
      <trkpt lat="40.036" lon="29.70106">
        <ele>508.366355</ele>
        <time>2021-11-17T06:48:02.314Z</time>
      </trkpt>
      <trkpt lat="40.03582" lon="29.7006">
        <ele>505.715866</ele>
        <time>2021-11-17T06:48:08.067Z</time>
      </trkpt>
      <trkpt lat="40.03544" lon="29.7">
        <ele>503.598451</ele>
        <time>2021-11-17T06:48:17.278Z</time>
      </trkpt>
      <trkpt lat="40.03524" lon="29.69948">
        <ele>502.004018</ele>
        <time>2021-11-17T06:48:25.016Z</time>
      </trkpt>
      <trkpt lat="40.03522" lon="29.69891">
        <ele>500.454215</ele>
        <time>2021-11-17T06:48:32.778Z</time>
      </trkpt>
      <trkpt lat="40.03543" lon="29.69781">
        <ele>496.319611</ele>
        <time>2021-11-17T06:48:47.104Z</time>
      </trkpt>
      <trkpt lat="40.03598" lon="29.6965">
        <ele>490.358979</ele>
        <time>2021-11-17T06:49:03.898Z</time>
      </trkpt>
      <trkpt lat="40.03601" lon="29.69634">
        <ele>489.165964</ele>
        <time>2021-11-17T06:49:05.579Z</time>
      </trkpt>
      <trkpt lat="40.03597" lon="29.6962">
        <ele>488.056143</ele>
        <time>2021-11-17T06:49:07.139Z</time>
      </trkpt>
      <trkpt lat="40.03568" lon="29.69575">
        <ele>483.545157</ele>
        <time>2021-11-17T06:49:13.387Z</time>
      </trkpt>
      <trkpt lat="40.03522" lon="29.69532">
        <ele>477.965978</ele>
        <time>2021-11-17T06:49:21.011Z</time>
      </trkpt>
      <trkpt lat="40.03482" lon="29.69513">
        <ele>473.789909</ele>
        <time>2021-11-17T06:49:26.672Z</time>
      </trkpt>
      <trkpt lat="40.03382" lon="29.6949">
        <ele>464.385335</ele>
        <time>2021-11-17T06:49:40.358Z</time>
      </trkpt>
      <trkpt lat="40.03351" lon="29.69466">
        <ele>461.133995</ele>
        <time>2021-11-17T06:49:45.207Z</time>
      </trkpt>
      <trkpt lat="40.0315" lon="29.69179">
        <ele>441.818911</ele>
        <time>2021-11-17T06:50:28.523Z</time>
      </trkpt>
      <trkpt lat="40.03135" lon="29.69135">
        <ele>440.19967</ele>
        <time>2021-11-17T06:50:34.389Z</time>
      </trkpt>
      <trkpt lat="40.03132" lon="29.69113">
        <ele>439.43154</ele>
        <time>2021-11-17T06:50:37.231Z</time>
      </trkpt>
      <trkpt lat="40.03135" lon="29.6909">
        <ele>438.643519</ele>
        <time>2021-11-17T06:50:40.136Z</time>
      </trkpt>
      <trkpt lat="40.0315" lon="29.69051">
        <ele>437.160256</ele>
        <time>2021-11-17T06:50:45.739Z</time>
      </trkpt>
      <trkpt lat="40.03171" lon="29.6902">
        <ele>435.807678</ele>
        <time>2021-11-17T06:50:51.033Z</time>
      </trkpt>
      <trkpt lat="40.03294" lon="29.68994">
        <ele>430.570652</ele>
        <time>2021-11-17T06:51:10.704Z</time>
      </trkpt>
      <trkpt lat="40.03328" lon="29.6898">
        <ele>428.945005</ele>
        <time>2021-11-17T06:51:16.046Z</time>
      </trkpt>
      <trkpt lat="40.03354" lon="29.68947">
        <ele>425.872941</ele>
        <time>2021-11-17T06:51:21.218Z</time>
      </trkpt>
      <trkpt lat="40.03369" lon="29.68911">
        <ele>423.23499</ele>
        <time>2021-11-17T06:51:25.590Z</time>
      </trkpt>
      <trkpt lat="40.03382" lon="29.68856">
        <ele>419.455825</ele>
        <time>2021-11-17T06:51:31.752Z</time>
      </trkpt>
      <trkpt lat="40.03388" lon="29.6871">
        <ele>409.47354</ele>
        <time>2021-11-17T06:51:46.903Z</time>
      </trkpt>
      <trkpt lat="40.03397" lon="29.6865">
        <ele>404.928061</ele>
        <time>2021-11-17T06:51:53.302Z</time>
      </trkpt>
      <trkpt lat="40.03394" lon="29.68587">
        <ele>400.278659</ele>
        <time>2021-11-17T06:51:59.889Z</time>
      </trkpt>
      <trkpt lat="40.03385" lon="29.68544">
        <ele>397.007674</ele>
        <time>2021-11-17T06:52:04.551Z</time>
      </trkpt>
      <trkpt lat="40.03366" lon="29.68496">
        <ele>393.672567</ele>
        <time>2021-11-17T06:52:10.356Z</time>
      </trkpt>
      <trkpt lat="40.03343" lon="29.68457">
        <ele>390.78764</ele>
        <time>2021-11-17T06:52:15.567Z</time>
      </trkpt>
      <trkpt lat="40.03305" lon="29.68415">
        <ele>386.885224</ele>
        <time>2021-11-17T06:52:22.694Z</time>
      </trkpt>
      <trkpt lat="40.03262" lon="29.68392">
        <ele>383.31512</ele>
        <time>2021-11-17T06:52:29.272Z</time>
      </trkpt>
      <trkpt lat="40.03139" lon="29.6835">
        <ele>375.597967</ele>
        <time>2021-11-17T06:52:47.797Z</time>
      </trkpt>
      <trkpt lat="40.03104" lon="29.68318">
        <ele>373.023417</ele>
        <time>2021-11-17T06:52:54.197Z</time>
      </trkpt>
      <trkpt lat="40.03061" lon="29.68246">
        <ele>369.830364</ele>
        <time>2021-11-17T06:53:04.690Z</time>
      </trkpt>
      <trkpt lat="40.03044" lon="29.68196">
        <ele>368.113083</ele>
        <time>2021-11-17T06:53:11.214Z</time>
      </trkpt>
      <trkpt lat="40.03046" lon="29.68144">
        <ele>366.500097</ele>
        <time>2021-11-17T06:53:17.486Z</time>
      </trkpt>
      <trkpt lat="40.03064" lon="29.68061">
        <ele>364.186014</ele>
        <time>2021-11-17T06:53:28.213Z</time>
      </trkpt>
      <trkpt lat="40.0318" lon="29.67695">
        <ele>358.54468</ele>
        <time>2021-11-17T06:54:22.722Z</time>
      </trkpt>
      <trkpt lat="40.03206" lon="29.67715">
        <ele>358.052113</ele>
        <time>2021-11-17T06:54:28.606Z</time>
      </trkpt>
      <trkpt lat="40.03228" lon="29.6773">
        <ele>357.644909</ele>
        <time>2021-11-17T06:54:33.603Z</time>
      </trkpt>
      <trkpt lat="40.03244" lon="29.67711">
        <ele>357.305139</ele>
        <time>2021-11-17T06:54:37.803Z</time>
      </trkpt>
      <trkpt lat="40.03307" lon="29.67522">
        <ele>354.75611</ele>
        <time>2021-11-17T06:55:07.849Z</time>
      </trkpt>
      <trkpt lat="40.03366" lon="29.67319">
        <ele>351.474377</ele>
        <time>2021-11-17T06:55:38.401Z</time>
      </trkpt>
      <trkpt lat="40.03374" lon="29.67301">
        <ele>351.207487</ele>
        <time>2021-11-17T06:55:41.216Z</time>
      </trkpt>
      <trkpt lat="40.03418" lon="29.67165">
        <ele>349.261321</ele>
        <time>2021-11-17T06:56:02.569Z</time>
      </trkpt>
      <trkpt lat="40.03449" lon="29.67116">
        <ele>348.433946</ele>
        <time>2021-11-17T06:56:11.948Z</time>
      </trkpt>
      <trkpt lat="40.03459" lon="29.67092">
        <ele>348.136424</ele>
        <time>2021-11-17T06:56:16.072Z</time>
      </trkpt>
      <trkpt lat="40.03501" lon="29.66954">
        <ele>346.520076</ele>
        <time>2021-11-17T06:56:38.392Z</time>
      </trkpt>
      <trkpt lat="40.03545" lon="29.66736">
        <ele>343.795287</ele>
        <time>2021-11-17T06:57:11.191Z</time>
      </trkpt>
      <trkpt lat="40.03557" lon="29.66729">
        <ele>343.585398</ele>
        <time>2021-11-17T06:57:13.518Z</time>
      </trkpt>
      <trkpt lat="40.03568" lon="29.66716">
        <ele>343.334717</ele>
        <time>2021-11-17T06:57:16.478Z</time>
      </trkpt>
      <trkpt lat="40.03579" lon="29.66684">
        <ele>342.873052</ele>
        <time>2021-11-17T06:57:21.573Z</time>
      </trkpt>
      <trkpt lat="40.03588" lon="29.66611">
        <ele>341.717943</ele>
        <time>2021-11-17T06:57:32.150Z</time>
      </trkpt>
      <trkpt lat="40.03623" lon="29.6647">
        <ele>339.413031</ele>
        <time>2021-11-17T06:57:52.637Z</time>
      </trkpt>
      <trkpt lat="40.03644" lon="29.66395">
        <ele>338.063422</ele>
        <time>2021-11-17T06:58:03.874Z</time>
      </trkpt>
      <trkpt lat="40.03657" lon="29.66351">
        <ele>337.263994</ele>
        <time>2021-11-17T06:58:10.505Z</time>
      </trkpt>
      <trkpt lat="40.03701" lon="29.66197">
        <ele>334.640742</ele>
        <time>2021-11-17T06:58:33.249Z</time>
      </trkpt>
      <trkpt lat="40.03714" lon="29.66099">
        <ele>333.295042</ele>
        <time>2021-11-17T06:58:47.409Z</time>
      </trkpt>
      <trkpt lat="40.03738" lon="29.66037">
        <ele>332.334205</ele>
        <time>2021-11-17T06:58:57.203Z</time>
      </trkpt>
      <trkpt lat="40.03744" lon="29.66024">
        <ele>332.134633</ele>
        <time>2021-11-17T06:58:59.298Z</time>
      </trkpt>
      <trkpt lat="40.03767" lon="29.65968">
        <ele>331.560937</ele>
        <time>2021-11-17T06:59:08.328Z</time>
      </trkpt>
      <trkpt lat="40.03834" lon="29.65804">
        <ele>329.93294</ele>
        <time>2021-11-17T06:59:35.710Z</time>
      </trkpt>
      <trkpt lat="40.03911" lon="29.65618">
        <ele>328.390107</ele>
        <time>2021-11-17T07:00:07.104Z</time>
      </trkpt>
      <trkpt lat="40.04124" lon="29.65082">
        <ele>323.862569</ele>
        <time>2021-11-17T07:01:36.689Z</time>
      </trkpt>
      <trkpt lat="40.04249" lon="29.64749">
        <ele>320.940913</ele>
        <time>2021-11-17T07:02:31.039Z</time>
      </trkpt>
      <trkpt lat="40.04399" lon="29.6426">
        <ele>317.377943</ele>
        <time>2021-11-17T07:03:49.667Z</time>
      </trkpt>
      <trkpt lat="40.04403" lon="29.64247">
        <ele>317.310608</ele>
        <time>2021-11-17T07:03:51.797Z</time>
      </trkpt>
      <trkpt lat="40.0445" lon="29.64095">
        <ele>316.498123</ele>
        <time>2021-11-17T07:04:17.698Z</time>
      </trkpt>
      <trkpt lat="40.04749" lon="29.63098">
        <ele>310.788045</ele>
        <time>2021-11-17T07:07:01.414Z</time>
      </trkpt>
      <trkpt lat="40.04922" lon="29.62551">
        <ele>308.28651</ele>
        <time>2021-11-17T07:08:34.277Z</time>
      </trkpt>
      <trkpt lat="40.04975" lon="29.62385">
        <ele>307.243484</ele>
        <time>2021-11-17T07:09:01.348Z</time>
      </trkpt>
      <trkpt lat="40.05294" lon="29.61296">
        <ele>301.252937</ele>
        <time>2021-11-17T07:12:00.628Z</time>
      </trkpt>
      <trkpt lat="40.05476" lon="29.60756">
        <ele>299.024566</ele>
        <time>2021-11-17T07:13:33.350Z</time>
      </trkpt>
      <trkpt lat="40.05476" lon="29.60737">
        <ele>298.957961</ele>
        <time>2021-11-17T07:13:36.309Z</time>
      </trkpt>
      <trkpt lat="40.05468" lon="29.60717">
        <ele>298.87835</ele>
        <time>2021-11-17T07:13:39.884Z</time>
      </trkpt>
      <trkpt lat="40.05447" lon="29.60685">
        <ele>298.733377</ele>
        <time>2021-11-17T07:13:46.470Z</time>
      </trkpt>
      <trkpt lat="40.05391" lon="29.60599">
        <ele>298.558917</ele>
        <time>2021-11-17T07:14:04.943Z</time>
      </trkpt>
      <trkpt lat="40.05336" lon="29.60474">
        <ele>298.579439</ele>
        <time>2021-11-17T07:14:29.628Z</time>
      </trkpt>
      <trkpt lat="40.05332" lon="29.6043">
        <ele>298.594018</ele>
        <time>2021-11-17T07:14:37.648Z</time>
      </trkpt>
      <trkpt lat="40.05336" lon="29.604">
        <ele>298.6161</ele>
        <time>2021-11-17T07:14:43.117Z</time>
      </trkpt>
      <trkpt lat="40.05425" lon="29.60088">
        <ele>298.740962</ele>
        <time>2021-11-17T07:15:40.511Z</time>
      </trkpt>
      <trkpt lat="40.05457" lon="29.60003">
        <ele>298.730755</ele>
        <time>2021-11-17T07:15:56.341Z</time>
      </trkpt>
      <trkpt lat="40.05494" lon="29.59867">
        <ele>298.770125</ele>
        <time>2021-11-17T07:16:20.783Z</time>
      </trkpt>
      <trkpt lat="40.05606" lon="29.59511">
        <ele>299.091007</ele>
        <time>2021-11-17T07:17:27.782Z</time>
      </trkpt>
      <trkpt lat="40.05659" lon="29.59343">
        <ele>299.242186</ele>
        <time>2021-11-17T07:17:59.616Z</time>
      </trkpt>
      <trkpt lat="40.05782" lon="29.58949">
        <ele>298.93827</ele>
        <time>2021-11-17T07:19:10.944Z</time>
      </trkpt>
      <trkpt lat="40.05861" lon="29.58689">
        <ele>298.52973</ele>
        <time>2021-11-17T07:19:56.248Z</time>
      </trkpt>
      <trkpt lat="40.05888" lon="29.58599">
        <ele>298.601224</ele>
        <time>2021-11-17T07:20:13.339Z</time>
      </trkpt>
      <trkpt lat="40.05941" lon="29.58421">
        <ele>298.52674</ele>
        <time>2021-11-17T07:20:46.745Z</time>
      </trkpt>
      <trkpt lat="40.05947" lon="29.58402">
        <ele>298.467184</ele>
        <time>2021-11-17T07:20:50.067Z</time>
      </trkpt>
      <trkpt lat="40.05987" lon="29.58269">
        <ele>298.062627</ele>
        <time>2021-11-17T07:21:12.377Z</time>
      </trkpt>
      <trkpt lat="40.06002" lon="29.58219">
        <ele>297.872051</ele>
        <time>2021-11-17T07:21:20.569Z</time>
      </trkpt>
      <trkpt lat="40.06045" lon="29.58117">
        <ele>297.441093</ele>
        <time>2021-11-17T07:21:38.938Z</time>
      </trkpt>
      <trkpt lat="40.06066" lon="29.58064">
        <ele>297.221912</ele>
        <time>2021-11-17T07:21:48.422Z</time>
      </trkpt>
      <trkpt lat="40.06089" lon="29.57996">
        <ele>296.923482</ele>
        <time>2021-11-17T07:22:00.446Z</time>
      </trkpt>
      <trkpt lat="40.06132" lon="29.57861">
        <ele>296.331842</ele>
        <time>2021-11-17T07:22:23.204Z</time>
      </trkpt>
      <trkpt lat="40.06151" lon="29.57801">
        <ele>296.108733</ele>
        <time>2021-11-17T07:22:33.199Z</time>
      </trkpt>
      <trkpt lat="40.06192" lon="29.5767">
        <ele>295.70565</ele>
        <time>2021-11-17T07:22:55.270Z</time>
      </trkpt>
      <trkpt lat="40.06263" lon="29.57439">
        <ele>295.616466</ele>
        <time>2021-11-17T07:23:39.029Z</time>
      </trkpt>
      <trkpt lat="40.06286" lon="29.57365">
        <ele>295.448936</ele>
        <time>2021-11-17T07:23:52.394Z</time>
      </trkpt>
      <trkpt lat="40.06352" lon="29.57149">
        <ele>294.098849</ele>
        <time>2021-11-17T07:24:27.115Z</time>
      </trkpt>
      <trkpt lat="40.06439" lon="29.56845">
        <ele>291.469986</ele>
        <time>2021-11-17T07:25:14.366Z</time>
      </trkpt>
      <trkpt lat="40.06453" lon="29.56797">
        <ele>291.086446</ele>
        <time>2021-11-17T07:25:21.971Z</time>
      </trkpt>
      <trkpt lat="40.0646" lon="29.56773">
        <ele>290.892309</ele>
        <time>2021-11-17T07:25:25.871Z</time>
      </trkpt>
      <trkpt lat="40.06479" lon="29.56714">
        <ele>290.491193</ele>
        <time>2021-11-17T07:25:35.552Z</time>
      </trkpt>
      <trkpt lat="40.06586" lon="29.5638">
        <ele>289.094564</ele>
        <time>2021-11-17T07:26:32.318Z</time>
      </trkpt>
      <trkpt lat="40.07024" lon="29.54953">
        <ele>287.995426</ele>
        <time>2021-11-17T07:30:50.487Z</time>
      </trkpt>
      <trkpt lat="40.07149" lon="29.54546">
        <ele>287.751624</ele>
        <time>2021-11-17T07:32:03.797Z</time>
      </trkpt>
      <trkpt lat="40.0721" lon="29.54344">
        <ele>287.827314</ele>
        <time>2021-11-17T07:32:41.614Z</time>
      </trkpt>
      <trkpt lat="40.07471" lon="29.53476">
        <ele>286.758918</ele>
        <time>2021-11-17T07:35:15.142Z</time>
      </trkpt>
      <trkpt lat="40.07476" lon="29.5346">
        <ele>286.793788</ele>
        <time>2021-11-17T07:35:18.277Z</time>
      </trkpt>
      <trkpt lat="40.07551" lon="29.532">
        <ele>288.18331</ele>
        <time>2021-11-17T07:36:13.037Z</time>
      </trkpt>
      <trkpt lat="40.076" lon="29.53045">
        <ele>288.674358</ele>
        <time>2021-11-17T07:36:42.932Z</time>
      </trkpt>
      <trkpt lat="40.07617" lon="29.53005">
        <ele>288.648134</ele>
        <time>2021-11-17T07:36:50.824Z</time>
      </trkpt>
      <trkpt lat="40.07638" lon="29.52941">
        <ele>288.459759</ele>
        <time>2021-11-17T07:37:02.310Z</time>
      </trkpt>
      <trkpt lat="40.07648" lon="29.52909">
        <ele>288.365707</ele>
        <time>2021-11-17T07:37:07.983Z</time>
      </trkpt>
      <trkpt lat="40.07677" lon="29.52842">
        <ele>288.156765</ele>
        <time>2021-11-17T07:37:19.786Z</time>
      </trkpt>
      <trkpt lat="40.07707" lon="29.5278">
        <ele>287.913769</ele>
        <time>2021-11-17T07:37:30.705Z</time>
      </trkpt>
      <trkpt lat="40.07734" lon="29.52727">
        <ele>287.681069</ele>
        <time>2021-11-17T07:37:40.817Z</time>
      </trkpt>
      <trkpt lat="40.0774" lon="29.52715">
        <ele>287.630249</ele>
        <time>2021-11-17T07:37:42.841Z</time>
      </trkpt>
      <trkpt lat="40.0777" lon="29.52665">
        <ele>287.401837</ele>
        <time>2021-11-17T07:37:53.396Z</time>
      </trkpt>
      <trkpt lat="40.07784" lon="29.52632">
        <ele>287.264374</ele>
        <time>2021-11-17T07:37:59.484Z</time>
      </trkpt>
      <trkpt lat="40.07791" lon="29.52627">
        <ele>287.233689</ele>
        <time>2021-11-17T07:38:01.462Z</time>
      </trkpt>
      <trkpt lat="40.07797" lon="29.52619">
        <ele>287.228375</ele>
        <time>2021-11-17T07:38:03.201Z</time>
      </trkpt>
      <trkpt lat="40.078" lon="29.5261">
        <ele>287.223152</ele>
        <time>2021-11-17T07:38:04.782Z</time>
      </trkpt>
      <trkpt lat="40.07823" lon="29.52576">
        <ele>287.199504</ele>
        <time>2021-11-17T07:38:12.193Z</time>
      </trkpt>
      <trkpt lat="40.07869" lon="29.52504">
        <ele>287.151324</ele>
        <time>2021-11-17T07:38:27.852Z</time>
      </trkpt>
      <trkpt lat="40.07934" lon="29.52429">
        <ele>287.006131</ele>
        <time>2021-11-17T07:38:47.733Z</time>
      </trkpt>
      <trkpt lat="40.07987" lon="29.52377">
        <ele>286.772663</ele>
        <time>2021-11-17T07:39:01.617Z</time>
      </trkpt>
      <trkpt lat="40.0804" lon="29.52331">
        <ele>286.553693</ele>
        <time>2021-11-17T07:39:14.286Z</time>
      </trkpt>
      <trkpt lat="40.08065" lon="29.5231">
        <ele>286.457128</ele>
        <time>2021-11-17T07:39:20.360Z</time>
      </trkpt>
      <trkpt lat="40.0816" lon="29.52243">
        <ele>286.13973</ele>
        <time>2021-11-17T07:39:43.434Z</time>
      </trkpt>
      <trkpt lat="40.08194" lon="29.52213">
        <ele>286.019795</ele>
        <time>2021-11-17T07:39:52.274Z</time>
      </trkpt>
      <trkpt lat="40.08243" lon="29.52179">
        <ele>285.847054</ele>
        <time>2021-11-17T07:40:04.955Z</time>
      </trkpt>
      <trkpt lat="40.0832" lon="29.5212">
        <ele>285.563995</ele>
        <time>2021-11-17T07:40:24.531Z</time>
      </trkpt>
      <trkpt lat="40.08351" lon="29.52095">
        <ele>285.449162</ele>
        <time>2021-11-17T07:40:32.377Z</time>
      </trkpt>
      <trkpt lat="40.08365" lon="29.52077">
        <ele>285.386884</ele>
        <time>2021-11-17T07:40:36.577Z</time>
      </trkpt>
      <trkpt lat="40.0842" lon="29.52022">
        <ele>285.088989</ele>
        <time>2021-11-17T07:40:51.458Z</time>
      </trkpt>
      <trkpt lat="40.08452" lon="29.51985">
        <ele>284.902456</ele>
        <time>2021-11-17T07:41:00.776Z</time>
      </trkpt>
      <trkpt lat="40.08497" lon="29.51941">
        <ele>284.66225</ele>
        <time>2021-11-17T07:41:12.795Z</time>
      </trkpt>
      <trkpt lat="40.08564" lon="29.51827">
        <ele>284.210567</ele>
        <time>2021-11-17T07:41:37.213Z</time>
      </trkpt>
      <trkpt lat="40.08597" lon="29.51753">
        <ele>283.945699</ele>
        <time>2021-11-17T07:41:51.299Z</time>
      </trkpt>
      <trkpt lat="40.08626" lon="29.51677">
        <ele>283.556811</ele>
        <time>2021-11-17T07:42:05.213Z</time>
      </trkpt>
      <trkpt lat="40.08645" lon="29.51678">
        <ele>283.433362</ele>
        <time>2021-11-17T07:42:09.005Z</time>
      </trkpt>
      <trkpt lat="40.08697" lon="29.51686">
        <ele>283.096026</ele>
        <time>2021-11-17T07:42:19.352Z</time>
      </trkpt>
      <trkpt lat="40.08755" lon="29.51715">
        <ele>282.693134</ele>
        <time>2021-11-17T07:42:31.918Z</time>
      </trkpt>
      <trkpt lat="40.08792" lon="29.51731">
        <ele>282.487749</ele>
        <time>2021-11-17T07:42:39.531Z</time>
      </trkpt>
      <trkpt lat="40.08876" lon="29.5177">
        <ele>282.011808</ele>
        <time>2021-11-17T07:42:57.778Z</time>
      </trkpt>
      <trkpt lat="40.08905" lon="29.51784">
        <ele>281.849429</ele>
        <time>2021-11-17T07:43:04.271Z</time>
      </trkpt>
      <trkpt lat="40.08918" lon="29.51793">
        <ele>281.771002</ele>
        <time>2021-11-17T07:43:07.354Z</time>
      </trkpt>
      <trkpt lat="40.08938" lon="29.51804">
        <ele>281.683912</ele>
        <time>2021-11-17T07:43:12.016Z</time>
      </trkpt>
      <trkpt lat="40.08948" lon="29.51807">
        <ele>281.642652</ele>
        <time>2021-11-17T07:43:14.264Z</time>
      </trkpt>
      <trkpt lat="40.08951" lon="29.51812">
        <ele>281.625503</ele>
        <time>2021-11-17T07:43:15.252Z</time>
      </trkpt>
      <trkpt lat="40.08955" lon="29.51814">
        <ele>281.608216</ele>
        <time>2021-11-17T07:43:16.168Z</time>
      </trkpt>
      <trkpt lat="40.0896" lon="29.51815">
        <ele>281.590825</ele>
        <time>2021-11-17T07:43:17.066Z</time>
      </trkpt>
      <trkpt lat="40.08976" lon="29.5182">
        <ele>281.528958</ele>
        <time>2021-11-17T07:43:20.422Z</time>
      </trkpt>
      <trkpt lat="40.08989" lon="29.51825">
        <ele>281.474552</ele>
        <time>2021-11-17T07:43:23.390Z</time>
      </trkpt>
      <trkpt lat="40.09012" lon="29.51829">
        <ele>281.387165</ele>
        <time>2021-11-17T07:43:28.046Z</time>
      </trkpt>
      <trkpt lat="40.09022" lon="29.51832">
        <ele>281.35073</ele>
        <time>2021-11-17T07:43:30.093Z</time>
      </trkpt>
      <trkpt lat="40.09092" lon="29.51853">
        <ele>281.07549</ele>
        <time>2021-11-17T07:43:45.377Z</time>
      </trkpt>
      <trkpt lat="40.09109" lon="29.51859">
        <ele>281.015553</ele>
        <time>2021-11-17T07:43:49.113Z</time>
      </trkpt>
      <trkpt lat="40.09132" lon="29.51867">
        <ele>280.938692</ele>
        <time>2021-11-17T07:43:54.222Z</time>
      </trkpt>
      <trkpt lat="40.09139" lon="29.51871">
        <ele>280.913597</ele>
        <time>2021-11-17T07:43:55.720Z</time>
      </trkpt>
      <trkpt lat="40.09193" lon="29.51894">
        <ele>280.724042</ele>
        <time>2021-11-17T07:44:07.629Z</time>
      </trkpt>
      <trkpt lat="40.09215" lon="29.51903">
        <ele>280.647104</ele>
        <time>2021-11-17T07:44:12.386Z</time>
      </trkpt>
      <trkpt lat="40.0922" lon="29.51905">
        <ele>280.631042</ele>
        <time>2021-11-17T07:44:13.405Z</time>
      </trkpt>
      <trkpt lat="40.09239" lon="29.51913">
        <ele>280.565498</ele>
        <time>2021-11-17T07:44:17.512Z</time>
      </trkpt>
      <trkpt lat="40.09291" lon="29.51931">
        <ele>280.398626</ele>
        <time>2021-11-17T07:44:29.189Z</time>
      </trkpt>
      <trkpt lat="40.09345" lon="29.5195">
        <ele>280.235691</ele>
        <time>2021-11-17T07:44:41.398Z</time>
      </trkpt>
      <trkpt lat="40.09421" lon="29.51975">
        <ele>280.008501</ele>
        <time>2021-11-17T07:44:57.620Z</time>
      </trkpt>
      <trkpt lat="40.09453" lon="29.51985">
        <ele>279.9121</ele>
        <time>2021-11-17T07:45:04.689Z</time>
      </trkpt>
      <trkpt lat="40.09489" lon="29.51997">
        <ele>279.808796</ele>
        <time>2021-11-17T07:45:12.510Z</time>
      </trkpt>
      <trkpt lat="40.09504" lon="29.52001">
        <ele>279.767083</ele>
        <time>2021-11-17T07:45:15.679Z</time>
      </trkpt>
      <trkpt lat="40.09518" lon="29.52005">
        <ele>279.726782</ele>
        <time>2021-11-17T07:45:18.730Z</time>
      </trkpt>
      <trkpt lat="40.09554" lon="29.52021">
        <ele>279.620628</ele>
        <time>2021-11-17T07:45:26.839Z</time>
      </trkpt>
      <trkpt lat="40.0959" lon="29.5191">
        <ele>279.322332</ele>
        <time>2021-11-17T07:45:47.429Z</time>
      </trkpt>
      <trkpt lat="40.09622" lon="29.51791">
        <ele>278.928159</ele>
        <time>2021-11-17T07:46:08.535Z</time>
      </trkpt>
      <trkpt lat="40.09632" lon="29.51752">
        <ele>278.799387</ele>
        <time>2021-11-17T07:46:15.430Z</time>
      </trkpt>
      <trkpt lat="40.09635" lon="29.51752">
        <ele>278.785909</ele>
        <time>2021-11-17T07:46:16.035Z</time>
      </trkpt>
      <trkpt lat="40.09645" lon="29.5175">
        <ele>278.747078</ele>
        <time>2021-11-17T07:46:18.067Z</time>
      </trkpt>
      <trkpt lat="40.09675" lon="29.51681">
        <ele>278.488544</ele>
        <time>2021-11-17T07:46:30.891Z</time>
      </trkpt>
      <trkpt lat="40.09689" lon="29.51663">
        <ele>278.405212</ele>
        <time>2021-11-17T07:46:34.905Z</time>
      </trkpt>
      <trkpt lat="40.09706" lon="29.51656">
        <ele>278.329463</ele>
        <time>2021-11-17T07:46:38.607Z</time>
      </trkpt>
      <trkpt lat="40.0984" lon="29.51651">
        <ele>278.091031</ele>
        <time>2021-11-17T07:47:08.459Z</time>
      </trkpt>
      <trkpt lat="40.09839" lon="29.51668">
        <ele>278.133322</ele>
        <time>2021-11-17T07:47:11.632Z</time>
      </trkpt>
      <trkpt lat="40.09884" lon="29.51676">
        <ele>278.280345</ele>
        <time>2021-11-17T07:47:22.975Z</time>
      </trkpt>
      <trkpt lat="40.09892" lon="29.51677">
        <ele>278.307825</ele>
        <time>2021-11-17T07:47:25.257Z</time>
      </trkpt>
      <trkpt lat="40.09915" lon="29.51678">
        <ele>278.381261</ele>
        <time>2021-11-17T07:47:30.842Z</time>
      </trkpt>
      <trkpt lat="40.09937" lon="29.51686">
        <ele>278.455719</ele>
        <time>2021-11-17T07:47:36.714Z</time>
      </trkpt>
      <trkpt lat="40.09941" lon="29.51687">
        <ele>278.470869</ele>
        <time>2021-11-17T07:47:37.874Z</time>
      </trkpt>
      <trkpt lat="40.09963" lon="29.51695">
        <ele>278.565179</ele>
        <time>2021-11-17T07:47:43.677Z</time>
      </trkpt>
      <trkpt lat="40.09991" lon="29.51701">
        <ele>278.805096</ele>
        <time>2021-11-17T07:47:50.666Z</time>
      </trkpt>
      <trkpt lat="40.10023" lon="29.51711">
        <ele>279.096192</ele>
        <time>2021-11-17T07:47:59.481Z</time>
      </trkpt>
      <trkpt lat="40.10036" lon="29.51714">
        <ele>279.20326</ele>
        <time>2021-11-17T07:48:02.963Z</time>
      </trkpt>
      <trkpt lat="40.10048" lon="29.51718">
        <ele>279.311254</ele>
        <time>2021-11-17T07:48:06.275Z</time>
      </trkpt>
      <trkpt lat="40.1008" lon="29.51727">
        <ele>279.600409</ele>
        <time>2021-11-17T07:48:15.285Z</time>
      </trkpt>
      <trkpt lat="40.10107" lon="29.51735">
        <ele>279.834805</ele>
        <time>2021-11-17T07:48:22.636Z</time>
      </trkpt>
      <trkpt lat="40.1013" lon="29.51741">
        <ele>280.037404</ele>
        <time>2021-11-17T07:48:28.889Z</time>
      </trkpt>
      <trkpt lat="40.10134" lon="29.51742">
        <ele>280.076237</ele>
        <time>2021-11-17T07:48:30.075Z</time>
      </trkpt>
      <trkpt lat="40.10164" lon="29.51751">
        <ele>280.783795</ele>
        <time>2021-11-17T07:48:38.434Z</time>
      </trkpt>
      <trkpt lat="40.10175" lon="29.51754">
        <ele>281.027343</ele>
        <time>2021-11-17T07:48:41.192Z</time>
      </trkpt>
      <trkpt lat="40.10187" lon="29.51757">
        <ele>281.319721</ele>
        <time>2021-11-17T07:48:45.016Z</time>
      </trkpt>
      <trkpt lat="40.1021" lon="29.51763">
        <ele>281.884646</ele>
        <time>2021-11-17T07:48:52.066Z</time>
      </trkpt>
      <trkpt lat="40.10257" lon="29.51779">
        <ele>283.006281</ele>
        <time>2021-11-17T07:49:08.014Z</time>
      </trkpt>
      <trkpt lat="40.10258" lon="29.51771">
        <ele>283.161802</ele>
        <time>2021-11-17T07:49:10.288Z</time>
      </trkpt>
      <trkpt lat="40.10271" lon="29.51722">
        <ele>284.092215</ele>
        <time>2021-11-17T07:49:24.917Z</time>
      </trkpt>
      <trkpt lat="40.10276" lon="29.51704">
        <ele>284.497245</ele>
        <time>2021-11-17T07:49:30.129Z</time>
      </trkpt>
      <trkpt lat="40.10363" lon="29.51705">
        <ele>287.649988</ele>
        <time>2021-11-17T07:50:03.894Z</time>
      </trkpt>
      <trkpt lat="40.10399" lon="29.51708">
        <ele>288.973903</ele>
        <time>2021-11-17T07:50:17.564Z</time>
      </trkpt>
      <trkpt lat="40.10441" lon="29.51702">
        <ele>290.520116</ele>
        <time>2021-11-17T07:50:33.814Z</time>
      </trkpt>
      <trkpt lat="40.1058" lon="29.51669">
        <ele>295.401868</ele>
        <time>2021-11-17T07:51:23.679Z</time>
      </trkpt>
      <trkpt lat="40.10606" lon="29.5166">
        <ele>296.319582</ele>
        <time>2021-11-17T07:51:33.641Z</time>
      </trkpt>
      <trkpt lat="40.10627" lon="29.51641">
        <ele>297.266176</ele>
        <time>2021-11-17T07:51:44.513Z</time>
      </trkpt>
      <trkpt lat="40.10665" lon="29.51613">
        <ele>299.073587</ele>
        <time>2021-11-17T07:52:01.412Z</time>
      </trkpt>
      <trkpt lat="40.10668" lon="29.51618">
        <ele>299.269211</ele>
        <time>2021-11-17T07:52:02.937Z</time>
      </trkpt>
      <trkpt lat="40.10701" lon="29.51643">
        <ele>300.892449</ele>
        <time>2021-11-17T07:52:17.696Z</time>
      </trkpt>
      <trkpt lat="40.10708" lon="29.51652">
        <ele>301.323527</ele>
        <time>2021-11-17T07:52:21.424Z</time>
      </trkpt>
      <trkpt lat="40.10716" lon="29.5167">
        <ele>301.98659</ele>
        <time>2021-11-17T07:52:28.313Z</time>
      </trkpt>
      <trkpt lat="40.10727" lon="29.51689">
        <ele>302.76531</ele>
        <time>2021-11-17T07:52:34.601Z</time>
      </trkpt>
      <trkpt lat="40.1073" lon="29.51698">
        <ele>303.069928</ele>
        <time>2021-11-17T07:52:38.142Z</time>
      </trkpt>
      <trkpt lat="40.10729" lon="29.51703">
        <ele>303.242534</ele>
        <time>2021-11-17T07:52:39.827Z</time>
      </trkpt>
      <trkpt lat="40.10729" lon="29.51708">
        <ele>303.417418</ele>
        <time>2021-11-17T07:52:41.266Z</time>
      </trkpt>
      <trkpt lat="40.10731" lon="29.51713">
        <ele>303.588148</ele>
        <time>2021-11-17T07:52:42.838Z</time>
      </trkpt>
      <trkpt lat="40.10734" lon="29.51717">
        <ele>303.760433</ele>
        <time>2021-11-17T07:52:44.176Z</time>
      </trkpt>
      <trkpt lat="40.10737" lon="29.5172">
        <ele>303.933973</ele>
        <time>2021-11-17T07:52:45.650Z</time>
      </trkpt>
      <trkpt lat="40.10741" lon="29.51721">
        <ele>304.10685</ele>
        <time>2021-11-17T07:52:47.191Z</time>
      </trkpt>
      <trkpt lat="40.10745" lon="29.5172">
        <ele>304.281338</ele>
        <time>2021-11-17T07:52:48.584Z</time>
      </trkpt>
      <trkpt lat="40.10749" lon="29.51718">
        <ele>304.454612</ele>
        <time>2021-11-17T07:52:50.630Z</time>
      </trkpt>
      <trkpt lat="40.10752" lon="29.51714">
        <ele>304.625985</ele>
        <time>2021-11-17T07:52:52.698Z</time>
      </trkpt>
      <trkpt lat="40.10754" lon="29.51709">
        <ele>304.805973</ele>
        <time>2021-11-17T07:52:54.365Z</time>
      </trkpt>
      <trkpt lat="40.1076" lon="29.51697">
        <ele>305.288236</ele>
        <time>2021-11-17T07:52:58.454Z</time>
      </trkpt>
      <trkpt lat="40.10769" lon="29.51689">
        <ele>305.758062</ele>
        <time>2021-11-17T07:53:02.654Z</time>
      </trkpt>
      <trkpt lat="40.10776" lon="29.51682">
        <ele>306.136303</ele>
        <time>2021-11-17T07:53:07.102Z</time>
      </trkpt>
      <trkpt lat="40.10822" lon="29.51645">
        <ele>308.465261</ele>
        <time>2021-11-17T07:53:29.933Z</time>
      </trkpt>
      <trkpt lat="40.10871" lon="29.51609">
        <ele>310.894516</ele>
        <time>2021-11-17T07:53:51.136Z</time>
      </trkpt>
      <trkpt lat="40.10873" lon="29.5162">
        <ele>311.266053</ele>
        <time>2021-11-17T07:53:54.087Z</time>
      </trkpt>
      <trkpt lat="40.10876" lon="29.5163">
        <ele>311.610916</ele>
        <time>2021-11-17T07:53:56.793Z</time>
      </trkpt>
      <trkpt lat="40.10933" lon="29.51585">
        <ele>315.05213</ele>
        <time>2021-11-17T07:54:24.337Z</time>
      </trkpt>
      <trkpt lat="40.10969" lon="29.51557">
        <ele>317.349833</ele>
        <time>2021-11-17T07:54:43.293Z</time>
      </trkpt>
      <trkpt lat="40.11" lon="29.51529">
        <ele>319.450762</ele>
        <time>2021-11-17T07:55:01.335Z</time>
      </trkpt>
      <trkpt lat="40.1101" lon="29.51522">
        <ele>320.053402</ele>
        <time>2021-11-17T07:55:06.865Z</time>
      </trkpt>
      <trkpt lat="40.11031" lon="29.51519">
        <ele>321.212366</ele>
        <time>2021-11-17T07:55:17.030Z</time>
      </trkpt>
      <trkpt lat="40.1107" lon="29.51515">
        <ele>323.312407</ele>
        <time>2021-11-17T07:55:36.351Z</time>
      </trkpt>
      <trkpt lat="40.11084" lon="29.51515">
        <ele>323.978183</ele>
        <time>2021-11-17T07:55:42.816Z</time>
      </trkpt>
      <trkpt lat="40.11115" lon="29.51514">
        <ele>325.570118</ele>
        <time>2021-11-17T07:55:58.180Z</time>
      </trkpt>
      <trkpt lat="40.11191" lon="29.5151">
        <ele>329.425699</ele>
        <time>2021-11-17T07:56:32.492Z</time>
      </trkpt>
      <trkpt lat="40.11207" lon="29.51507">
        <ele>330.253439</ele>
        <time>2021-11-17T07:56:38.668Z</time>
      </trkpt>
      <trkpt lat="40.11217" lon="29.51506">
        <ele>330.759105</ele>
        <time>2021-11-17T07:56:42.075Z</time>
      </trkpt>
      <trkpt lat="40.11241" lon="29.51503">
        <ele>331.585918</ele>
        <time>2021-11-17T07:56:51.024Z</time>
      </trkpt>
      <trkpt lat="40.11254" lon="29.51501">
        <ele>331.737962</ele>
        <time>2021-11-17T07:56:54.690Z</time>
      </trkpt>
      <trkpt lat="40.11299" lon="29.51493">
        <ele>332.297926</ele>
        <time>2021-11-17T07:57:07.491Z</time>
      </trkpt>
      <trkpt lat="40.11303" lon="29.51491">
        <ele>332.357666</ele>
        <time>2021-11-17T07:57:09.255Z</time>
      </trkpt>
      <trkpt lat="40.11334" lon="29.51482">
        <ele>332.743026</ele>
        <time>2021-11-17T07:57:17.618Z</time>
      </trkpt>
      <trkpt lat="40.11378" lon="29.5146">
        <ele>333.320984</ele>
        <time>2021-11-17T07:57:29.890Z</time>
      </trkpt>
      <trkpt lat="40.11391" lon="29.51444">
        <ele>333.545736</ele>
        <time>2021-11-17T07:57:33.855Z</time>
      </trkpt>
      <trkpt lat="40.11416" lon="29.51427">
        <ele>333.718849</ele>
        <time>2021-11-17T07:57:40.200Z</time>
      </trkpt>
      <trkpt lat="40.11435" lon="29.51419">
        <ele>333.778815</ele>
        <time>2021-11-17T07:57:44.569Z</time>
      </trkpt>
      <trkpt lat="40.11443" lon="29.51414">
        <ele>333.806451</ele>
        <time>2021-11-17T07:57:46.476Z</time>
      </trkpt>
      <trkpt lat="40.11534" lon="29.51399">
        <ele>334.086745</ele>
        <time>2021-11-17T07:58:07.860Z</time>
      </trkpt>
      <trkpt lat="40.11582" lon="29.51394">
        <ele>334.172584</ele>
        <time>2021-11-17T07:58:22.082Z</time>
      </trkpt>
      <trkpt lat="40.11581" lon="29.51385">
        <ele>334.131676</ele>
        <time>2021-11-17T07:58:23.899Z</time>
      </trkpt>
      <trkpt lat="40.11609" lon="29.51389">
        <ele>333.962577</ele>
        <time>2021-11-17T07:58:31.080Z</time>
      </trkpt>
      <trkpt lat="40.11636" lon="29.51382">
        <ele>333.801945</ele>
        <time>2021-11-17T07:58:37.108Z</time>
      </trkpt>
      <trkpt lat="40.11675" lon="29.51352">
        <ele>333.529946</ele>
        <time>2021-11-17T07:58:46.692Z</time>
      </trkpt>
      <trkpt lat="40.11683" lon="29.51345">
        <ele>333.470866</ele>
        <time>2021-11-17T07:58:48.616Z</time>
      </trkpt>
      <trkpt lat="40.1171" lon="29.51319">
        <ele>333.271334</ele>
        <time>2021-11-17T07:58:54.928Z</time>
      </trkpt>
      <trkpt lat="40.11715" lon="29.51306">
        <ele>333.202191</ele>
        <time>2021-11-17T07:58:57.098Z</time>
      </trkpt>
      <trkpt lat="40.11729" lon="29.51245">
        <ele>332.091275</ele>
        <time>2021-11-17T07:59:06.004Z</time>
      </trkpt>
      <trkpt lat="40.1174" lon="29.51179">
        <ele>330.630302</ele>
        <time>2021-11-17T07:59:15.174Z</time>
      </trkpt>
      <trkpt lat="40.11752" lon="29.51161">
        <ele>330.113511</ele>
        <time>2021-11-17T07:59:18.342Z</time>
      </trkpt>
      <trkpt lat="40.11762" lon="29.51164">
        <ele>329.813738</ele>
        <time>2021-11-17T07:59:20.006Z</time>
      </trkpt>
      <trkpt lat="40.11889" lon="29.51247">
        <ele>324.948978</ele>
        <time>2021-11-17T07:59:42.657Z</time>
      </trkpt>
      <trkpt lat="40.12283" lon="29.51503">
        <ele>307.129122</ele>
        <time>2021-11-17T08:00:51.702Z</time>
      </trkpt>
      <trkpt lat="40.1254" lon="29.51671">
        <ele>291.878703</ele>
        <time>2021-11-17T08:01:34.341Z</time>
      </trkpt>
      <trkpt lat="40.1267" lon="29.51776">
        <ele>284.275705</ele>
        <time>2021-11-17T08:01:57.503Z</time>
      </trkpt>
      <trkpt lat="40.12788" lon="29.51896">
        <ele>277.739167</ele>
        <time>2021-11-17T08:02:20.645Z</time>
      </trkpt>
      <trkpt lat="40.12884" lon="29.51986">
        <ele>273.33226</ele>
        <time>2021-11-17T08:02:39.336Z</time>
      </trkpt>
      <trkpt lat="40.12926" lon="29.52023">
        <ele>271.750043</ele>
        <time>2021-11-17T08:02:47.560Z</time>
      </trkpt>
      <trkpt lat="40.12992" lon="29.52083">
        <ele>270.033416</ele>
        <time>2021-11-17T08:03:01.206Z</time>
      </trkpt>
      <trkpt lat="40.1303" lon="29.52107">
        <ele>269.133951</ele>
        <time>2021-11-17T08:03:08.731Z</time>
      </trkpt>
      <trkpt lat="40.13069" lon="29.52122">
        <ele>268.289706</ele>
        <time>2021-11-17T08:03:16.456Z</time>
      </trkpt>
      <trkpt lat="40.13116" lon="29.52127">
        <ele>268.013313</ele>
        <time>2021-11-17T08:03:25.668Z</time>
      </trkpt>
      <trkpt lat="40.13348" lon="29.5211">
        <ele>266.920764</ele>
        <time>2021-11-17T08:04:14.487Z</time>
      </trkpt>
      <trkpt lat="40.13394" lon="29.52098">
        <ele>266.767055</ele>
        <time>2021-11-17T08:04:24.505Z</time>
      </trkpt>
      <trkpt lat="40.13438" lon="29.52065">
        <ele>266.602082</ele>
        <time>2021-11-17T08:04:35.078Z</time>
      </trkpt>
      <trkpt lat="40.13629" lon="29.519">
        <ele>267.217532</ele>
        <time>2021-11-17T08:05:23.013Z</time>
      </trkpt>
      <trkpt lat="40.1369" lon="29.5185">
        <ele>268.407036</ele>
        <time>2021-11-17T08:05:45.579Z</time>
      </trkpt>
      <trkpt lat="40.13708" lon="29.51833">
        <ele>268.785494</ele>
        <time>2021-11-17T08:05:53.861Z</time>
      </trkpt>
      <trkpt lat="40.13826" lon="29.51723">
        <ele>273.571065</ele>
        <time>2021-11-17T08:06:49.382Z</time>
      </trkpt>
      <trkpt lat="40.13873" lon="29.5167">
        <ele>275.624033</ele>
        <time>2021-11-17T08:07:10.994Z</time>
      </trkpt>
      <trkpt lat="40.13899" lon="29.51615">
        <ele>276.520345</ele>
        <time>2021-11-17T08:07:26.141Z</time>
      </trkpt>
      <trkpt lat="40.13902" lon="29.51602">
        <ele>276.714605</ele>
        <time>2021-11-17T08:07:28.124Z</time>
      </trkpt>
      <trkpt lat="40.13908" lon="29.51573">
        <ele>277.136979</ele>
        <time>2021-11-17T08:07:35.487Z</time>
      </trkpt>
      <trkpt lat="40.13912" lon="29.51554">
        <ele>277.400633</ele>
        <time>2021-11-17T08:07:38.354Z</time>
      </trkpt>
      <trkpt lat="40.13916" lon="29.51512">
        <ele>277.997934</ele>
        <time>2021-11-17T08:07:47.152Z</time>
      </trkpt>
      <trkpt lat="40.13902" lon="29.51423">
        <ele>279.921314</ele>
        <time>2021-11-17T08:08:07.402Z</time>
      </trkpt>
      <trkpt lat="40.13841" lon="29.51257">
        <ele>285.520163</ele>
        <time>2021-11-17T08:09:04.076Z</time>
      </trkpt>
      <trkpt lat="40.13837" lon="29.51203">
        <ele>287.100341</ele>
        <time>2021-11-17T08:09:22.284Z</time>
      </trkpt>
      <trkpt lat="40.13839" lon="29.51148">
        <ele>288.703876</ele>
        <time>2021-11-17T08:09:39.850Z</time>
      </trkpt>
      <trkpt lat="40.13855" lon="29.51098">
        <ele>290.272979</ele>
        <time>2021-11-17T08:09:55.646Z</time>
      </trkpt>
      <trkpt lat="40.13887" lon="29.51041">
        <ele>292.305556</ele>
        <time>2021-11-17T08:10:14.003Z</time>
      </trkpt>
      <trkpt lat="40.13926" lon="29.51001">
        <ele>293.098646</ele>
        <time>2021-11-17T08:10:28.645Z</time>
      </trkpt>
      <trkpt lat="40.14051" lon="29.50913">
        <ele>294.595737</ele>
        <time>2021-11-17T08:11:04.085Z</time>
      </trkpt>
      <trkpt lat="40.14083" lon="29.509">
        <ele>294.63296</ele>
        <time>2021-11-17T08:11:11.973Z</time>
      </trkpt>
      <trkpt lat="40.14177" lon="29.50901">
        <ele>294.736884</ele>
        <time>2021-11-17T08:11:33.725Z</time>
      </trkpt>
      <trkpt lat="40.14226" lon="29.50891">
        <ele>294.791017</ele>
        <time>2021-11-17T08:11:44.491Z</time>
      </trkpt>
      <trkpt lat="40.14271" lon="29.5087">
        <ele>294.385831</ele>
        <time>2021-11-17T08:11:54.198Z</time>
      </trkpt>
      <trkpt lat="40.14513" lon="29.50717">
        <ele>292.347541</ele>
        <time>2021-11-17T08:12:45.439Z</time>
      </trkpt>
      <trkpt lat="40.14551" lon="29.50711">
        <ele>292.101152</ele>
        <time>2021-11-17T08:12:54.338Z</time>
      </trkpt>
      <trkpt lat="40.14611" lon="29.50719">
        <ele>292.97535</ele>
        <time>2021-11-17T08:13:09.845Z</time>
      </trkpt>
      <trkpt lat="40.14823" lon="29.50796">
        <ele>296.494566</ele>
        <time>2021-11-17T08:14:18.573Z</time>
      </trkpt>
      <trkpt lat="40.14858" lon="29.50827">
        <ele>297.122562</ele>
        <time>2021-11-17T08:14:30.861Z</time>
      </trkpt>
      <trkpt lat="40.15125" lon="29.51169">
        <ele>297.682382</ele>
        <time>2021-11-17T08:15:52.794Z</time>
      </trkpt>
      <trkpt lat="40.15161" lon="29.51192">
        <ele>297.786813</ele>
        <time>2021-11-17T08:16:01.609Z</time>
      </trkpt>
      <trkpt lat="40.15205" lon="29.51211">
        <ele>298.252871</ele>
        <time>2021-11-17T08:16:12.256Z</time>
      </trkpt>
      <trkpt lat="40.15585" lon="29.51349">
        <ele>301.276125</ele>
        <time>2021-11-17T08:17:58.812Z</time>
      </trkpt>
      <trkpt lat="40.15795" lon="29.5144">
        <ele>299.558372</ele>
        <time>2021-11-17T08:18:40.187Z</time>
      </trkpt>
      <trkpt lat="40.15929" lon="29.5149">
        <ele>298.776168</ele>
        <time>2021-11-17T08:19:06.560Z</time>
      </trkpt>
      <trkpt lat="40.16048" lon="29.51526">
        <ele>299.448969</ele>
        <time>2021-11-17T08:19:36.679Z</time>
      </trkpt>
      <trkpt lat="40.16178" lon="29.51555">
        <ele>302.701093</ele>
        <time>2021-11-17T08:20:20.684Z</time>
      </trkpt>
      <trkpt lat="40.16238" lon="29.5155">
        <ele>304.705831</ele>
        <time>2021-11-17T08:20:43.657Z</time>
      </trkpt>
      <trkpt lat="40.16323" lon="29.51523">
        <ele>307.891298</ele>
        <time>2021-11-17T08:21:17.025Z</time>
      </trkpt>
      <trkpt lat="40.16379" lon="29.51523">
        <ele>309.692098</ele>
        <time>2021-11-17T08:21:37.206Z</time>
      </trkpt>
      <trkpt lat="40.16434" lon="29.51547">
        <ele>310.600451</ele>
        <time>2021-11-17T08:21:55.707Z</time>
      </trkpt>
      <trkpt lat="40.16482" lon="29.51594">
        <ele>311.55166</ele>
        <time>2021-11-17T08:22:12.757Z</time>
      </trkpt>
      <trkpt lat="40.16538" lon="29.51667">
        <ele>312.085409</ele>
        <time>2021-11-17T08:22:31.493Z</time>
      </trkpt>
      <trkpt lat="40.16723" lon="29.51944">
        <ele>307.515788</ele>
        <time>2021-11-17T08:23:23.666Z</time>
      </trkpt>
      <trkpt lat="40.16748" lon="29.52016">
        <ele>305.789229</ele>
        <time>2021-11-17T08:23:33.061Z</time>
      </trkpt>
      <trkpt lat="40.16814" lon="29.52289">
        <ele>294.037782</ele>
        <time>2021-11-17T08:24:05.169Z</time>
      </trkpt>
      <trkpt lat="40.16824" lon="29.52367">
        <ele>291.177126</ele>
        <time>2021-11-17T08:24:14.277Z</time>
      </trkpt>
      <trkpt lat="40.16832" lon="29.52549">
        <ele>286.86177</ele>
        <time>2021-11-17T08:24:36.936Z</time>
      </trkpt>
      <trkpt lat="40.1687" lon="29.52755">
        <ele>284.704263</ele>
        <time>2021-11-17T08:25:10.681Z</time>
      </trkpt>
      <trkpt lat="40.16872" lon="29.52795">
        <ele>284.39339</ele>
        <time>2021-11-17T08:25:18.008Z</time>
      </trkpt>
      <trkpt lat="40.16881" lon="29.52989">
        <ele>281.298263</ele>
        <time>2021-11-17T08:25:45.094Z</time>
      </trkpt>
      <trkpt lat="40.16978" lon="29.53329">
        <ele>267.934073</ele>
        <time>2021-11-17T08:26:26.490Z</time>
      </trkpt>
      <trkpt lat="40.17019" lon="29.53396">
        <ele>265.012118</ele>
        <time>2021-11-17T08:26:36.225Z</time>
      </trkpt>
      <trkpt lat="40.17147" lon="29.53523">
        <ele>259.911923</ele>
        <time>2021-11-17T08:27:01.944Z</time>
      </trkpt>
      <trkpt lat="40.17515" lon="29.5391">
        <ele>263.858943</ele>
        <time>2021-11-17T08:29:08.688Z</time>
      </trkpt>
      <trkpt lat="40.17629" lon="29.54013">
        <ele>264.142832</ele>
        <time>2021-11-17T08:29:43.873Z</time>
      </trkpt>
      <trkpt lat="40.17768" lon="29.54221">
        <ele>261.580257</ele>
        <time>2021-11-17T08:30:23.279Z</time>
      </trkpt>
      <trkpt lat="40.17963" lon="29.5448">
        <ele>254.647455</ele>
        <time>2021-11-17T08:31:08.972Z</time>
      </trkpt>
      <trkpt lat="40.18361" lon="29.55001">
        <ele>248.475202</ele>
        <time>2021-11-17T08:32:56.528Z</time>
      </trkpt>
      <trkpt lat="40.18524" lon="29.55214">
        <ele>250.031055</ele>
        <time>2021-11-17T08:33:54.548Z</time>
      </trkpt>
      <trkpt lat="40.18673" lon="29.55408">
        <ele>253.759223</ele>
        <time>2021-11-17T08:34:58.121Z</time>
      </trkpt>
      <trkpt lat="40.18703" lon="29.55446">
        <ele>254.614238</ele>
        <time>2021-11-17T08:35:11.562Z</time>
      </trkpt>
      <trkpt lat="40.18744" lon="29.55485">
        <ele>255.158293</ele>
        <time>2021-11-17T08:35:26.675Z</time>
      </trkpt>
      <trkpt lat="40.18776" lon="29.55515">
        <ele>255.588942</ele>
        <time>2021-11-17T08:35:37.997Z</time>
      </trkpt>
      <trkpt lat="40.18818" lon="29.55555">
        <ele>256.146624</ele>
        <time>2021-11-17T08:35:51.692Z</time>
      </trkpt>
      <trkpt lat="40.18925" lon="29.55713">
        <ele>255.654474</ele>
        <time>2021-11-17T08:36:25.410Z</time>
      </trkpt>
      <trkpt lat="40.1896" lon="29.5575">
        <ele>255.325344</ele>
        <time>2021-11-17T08:36:33.564Z</time>
      </trkpt>
      <trkpt lat="40.19014" lon="29.55776">
        <ele>254.496048</ele>
        <time>2021-11-17T08:36:43.983Z</time>
      </trkpt>
      <trkpt lat="40.19142" lon="29.55794">
        <ele>252.444945</ele>
        <time>2021-11-17T08:37:07.159Z</time>
      </trkpt>
      <trkpt lat="40.19185" lon="29.55819">
        <ele>251.852163</ele>
        <time>2021-11-17T08:37:15.899Z</time>
      </trkpt>
      <trkpt lat="40.19194" lon="29.5583">
        <ele>251.700057</ele>
        <time>2021-11-17T08:37:18.242Z</time>
      </trkpt>
      <trkpt lat="40.19605" lon="29.56517">
        <ele>243.978864</ele>
        <time>2021-11-17T08:39:24.378Z</time>
      </trkpt>
      <trkpt lat="40.19628" lon="29.56603">
        <ele>244.172634</ele>
        <time>2021-11-17T08:39:39.857Z</time>
      </trkpt>
      <trkpt lat="40.1964" lon="29.56757">
        <ele>244.528191</ele>
        <time>2021-11-17T08:40:09.391Z</time>
      </trkpt>
      <trkpt lat="40.19662" lon="29.56823">
        <ele>244.839843</ele>
        <time>2021-11-17T08:40:23.557Z</time>
      </trkpt>
      <trkpt lat="40.19691" lon="29.5686">
        <ele>245.068716</ele>
        <time>2021-11-17T08:40:33.797Z</time>
      </trkpt>
      <trkpt lat="40.19922" lon="29.57042">
        <ele>245.909887</ele>
        <time>2021-11-17T08:41:36.405Z</time>
      </trkpt>
      <trkpt lat="40.20023" lon="29.57101">
        <ele>245.935027</ele>
        <time>2021-11-17T08:42:00.816Z</time>
      </trkpt>
      <trkpt lat="40.20137" lon="29.57155">
        <ele>245.902139</ele>
        <time>2021-11-17T08:42:28.040Z</time>
      </trkpt>
      <trkpt lat="40.20389" lon="29.57232">
        <ele>245.094336</ele>
        <time>2021-11-17T08:43:24.232Z</time>
      </trkpt>
      <trkpt lat="40.20439" lon="29.57259">
        <ele>244.580222</ele>
        <time>2021-11-17T08:43:34.073Z</time>
      </trkpt>
      <trkpt lat="40.20451" lon="29.57232">
        <ele>244.16124</ele>
        <time>2021-11-17T08:43:38.396Z</time>
      </trkpt>
      <trkpt lat="40.20469" lon="29.57182">
        <ele>243.43155</ele>
        <time>2021-11-17T08:43:45.970Z</time>
      </trkpt>
      <trkpt lat="40.20479" lon="29.57158">
        <ele>243.069872</ele>
        <time>2021-11-17T08:43:49.705Z</time>
      </trkpt>
      <trkpt lat="40.20484" lon="29.57151">
        <ele>242.94697</ele>
        <time>2021-11-17T08:43:50.902Z</time>
      </trkpt>
      <trkpt lat="40.20494" lon="29.57146">
        <ele>242.759044</ele>
        <time>2021-11-17T08:43:52.834Z</time>
      </trkpt>
      <trkpt lat="40.20522" lon="29.57149">
        <ele>242.27016</ele>
        <time>2021-11-17T08:43:57.772Z</time>
      </trkpt>
      <trkpt lat="40.20542" lon="29.5715">
        <ele>241.930401</ele>
        <time>2021-11-17T08:44:01.275Z</time>
      </trkpt>
      <trkpt lat="40.2061" lon="29.5719">
        <ele>241.10442</ele>
        <time>2021-11-17T08:44:14.734Z</time>
      </trkpt>
      <trkpt lat="40.20624" lon="29.572">
        <ele>240.940126</ele>
        <time>2021-11-17T08:44:17.658Z</time>
      </trkpt>
      <trkpt lat="40.20765" lon="29.57308">
        <ele>239.708977</ele>
        <time>2021-11-17T08:44:51.327Z</time>
      </trkpt>
      <trkpt lat="40.20804" lon="29.57309">
        <ele>239.579538</ele>
        <time>2021-11-17T08:44:59.586Z</time>
      </trkpt>
      <trkpt lat="40.20925" lon="29.57255">
        <ele>239.273218</ele>
        <time>2021-11-17T08:45:26.791Z</time>
      </trkpt>
      <trkpt lat="40.20971" lon="29.5725">
        <ele>239.219596</ele>
        <time>2021-11-17T08:45:36.851Z</time>
      </trkpt>
      <trkpt lat="40.21077" lon="29.57261">
        <ele>239.099117</ele>
        <time>2021-11-17T08:46:00.563Z</time>
      </trkpt>
      <trkpt lat="40.21212" lon="29.57264">
        <ele>238.959882</ele>
        <time>2021-11-17T08:46:30.141Z</time>
      </trkpt>
      <trkpt lat="40.21306" lon="29.57255">
        <ele>238.708221</ele>
        <time>2021-11-17T08:46:50.259Z</time>
      </trkpt>
      <trkpt lat="40.21476" lon="29.57188">
        <ele>238.239041</ele>
        <time>2021-11-17T08:47:27.307Z</time>
      </trkpt>
      <trkpt lat="40.21565" lon="29.57172">
        <ele>238.050789</ele>
        <time>2021-11-17T08:47:46.875Z</time>
      </trkpt>
      <trkpt lat="40.21663" lon="29.57154">
        <ele>237.921345</ele>
        <time>2021-11-17T08:48:09.032Z</time>
      </trkpt>
      <trkpt lat="40.21727" lon="29.57143">
        <ele>237.847987</ele>
        <time>2021-11-17T08:48:22.927Z</time>
      </trkpt>
      <trkpt lat="40.21792" lon="29.57148">
        <ele>237.67674</ele>
        <time>2021-11-17T08:48:36.758Z</time>
      </trkpt>
      <trkpt lat="40.2182" lon="29.57155">
        <ele>237.558331</ele>
        <time>2021-11-17T08:48:42.751Z</time>
      </trkpt>
      <trkpt lat="40.2186" lon="29.57165">
        <ele>237.390044</ele>
        <time>2021-11-17T08:48:51.194Z</time>
      </trkpt>
      <trkpt lat="40.21926" lon="29.57169">
        <ele>237.119386</ele>
        <time>2021-11-17T08:49:04.671Z</time>
      </trkpt>
      <trkpt lat="40.22013" lon="29.57168">
        <ele>236.805774</ele>
        <time>2021-11-17T08:49:22.555Z</time>
      </trkpt>
      <trkpt lat="40.22125" lon="29.57164">
        <ele>236.440386</ele>
        <time>2021-11-17T08:49:46.446Z</time>
      </trkpt>
      <trkpt lat="40.22239" lon="29.57171">
        <ele>236.48477</ele>
        <time>2021-11-17T08:50:11.144Z</time>
      </trkpt>
      <trkpt lat="40.22313" lon="29.57176">
        <ele>236.571883</ele>
        <time>2021-11-17T08:50:29.040Z</time>
      </trkpt>
      <trkpt lat="40.22372" lon="29.57165">
        <ele>236.818085</ele>
        <time>2021-11-17T08:50:43.410Z</time>
      </trkpt>
      <trkpt lat="40.22381" lon="29.57163">
        <ele>236.852629</ele>
        <time>2021-11-17T08:50:45.430Z</time>
      </trkpt>
      <trkpt lat="40.22402" lon="29.57159">
        <ele>236.940938</ele>
        <time>2021-11-17T08:50:50.389Z</time>
      </trkpt>
      <trkpt lat="40.22426" lon="29.57155">
        <ele>237.043027</ele>
        <time>2021-11-17T08:50:56.192Z</time>
      </trkpt>
      <trkpt lat="40.22462" lon="29.5714">
        <ele>237.195461</ele>
        <time>2021-11-17T08:51:04.960Z</time>
      </trkpt>
      <trkpt lat="40.22502" lon="29.57124">
        <ele>237.374218</ele>
        <time>2021-11-17T08:51:15.366Z</time>
      </trkpt>
      <trkpt lat="40.22513" lon="29.57119">
        <ele>237.422689</ele>
        <time>2021-11-17T08:51:18.091Z</time>
      </trkpt>
      <trkpt lat="40.22544" lon="29.57108">
        <ele>237.560066</ele>
        <time>2021-11-17T08:51:26.352Z</time>
      </trkpt>
      <trkpt lat="40.22569" lon="29.57099">
        <ele>237.66921</ele>
        <time>2021-11-17T08:51:32.908Z</time>
      </trkpt>
      <trkpt lat="40.22598" lon="29.57057">
        <ele>237.85068</ele>
        <time>2021-11-17T08:51:42.767Z</time>
      </trkpt>
      <trkpt lat="40.22614" lon="29.57026">
        <ele>237.970776</ele>
        <time>2021-11-17T08:51:49.172Z</time>
      </trkpt>
      <trkpt lat="40.22645" lon="29.56986">
        <ele>238.0409</ele>
        <time>2021-11-17T08:51:59.081Z</time>
      </trkpt>
      <trkpt lat="40.22661" lon="29.56966">
        <ele>238.059482</ele>
        <time>2021-11-17T08:52:04.306Z</time>
      </trkpt>
      <trkpt lat="40.22665" lon="29.56966">
        <ele>238.063048</ele>
        <time>2021-11-17T08:52:05.272Z</time>
      </trkpt>
      <trkpt lat="40.22674" lon="29.56965">
        <ele>238.07103</ele>
        <time>2021-11-17T08:52:07.401Z</time>
      </trkpt>
      <trkpt lat="40.22693" lon="29.5697">
        <ele>238.087499</ele>
        <time>2021-11-17T08:52:12.075Z</time>
      </trkpt>
      <trkpt lat="40.22726" lon="29.56973">
        <ele>238.115006</ele>
        <time>2021-11-17T08:52:19.553Z</time>
      </trkpt>
      <trkpt lat="40.22788" lon="29.5692">
        <ele>238.119274</ele>
        <time>2021-11-17T08:52:35.647Z</time>
      </trkpt>
      <trkpt lat="40.2285" lon="29.56879">
        <ele>237.925959</ele>
        <time>2021-11-17T08:52:50.029Z</time>
      </trkpt>
      <trkpt lat="40.22892" lon="29.56851">
        <ele>237.79557</ele>
        <time>2021-11-17T08:52:59.835Z</time>
      </trkpt>
      <trkpt lat="40.22909" lon="29.56768">
        <ele>237.66182</ele>
        <time>2021-11-17T08:53:13.936Z</time>
      </trkpt>
      <trkpt lat="40.22917" lon="29.56717">
        <ele>237.658781</ele>
        <time>2021-11-17T08:53:22.736Z</time>
      </trkpt>
      <trkpt lat="40.22906" lon="29.56645">
        <ele>237.654489</ele>
        <time>2021-11-17T08:53:35.190Z</time>
      </trkpt>
      <trkpt lat="40.22887" lon="29.56585">
        <ele>237.650682</ele>
        <time>2021-11-17T08:53:46.353Z</time>
      </trkpt>
      <trkpt lat="40.22874" lon="29.56541">
        <ele>237.652718</ele>
        <time>2021-11-17T08:53:54.527Z</time>
      </trkpt>
      <trkpt lat="40.22888" lon="29.56518">
        <ele>237.656723</ele>
        <time>2021-11-17T08:53:59.709Z</time>
      </trkpt>
      <trkpt lat="40.22953" lon="29.56483">
        <ele>237.668891</ele>
        <time>2021-11-17T08:54:15.395Z</time>
      </trkpt>
      <trkpt lat="40.22984" lon="29.56455">
        <ele>237.675336</ele>
        <time>2021-11-17T08:54:23.647Z</time>
      </trkpt>
      <trkpt lat="40.23114" lon="29.56245">
        <ele>237.619812</ele>
        <time>2021-11-17T08:55:09.184Z</time>
      </trkpt>
      <trkpt lat="40.23164" lon="29.56201">
        <ele>237.742096</ele>
        <time>2021-11-17T08:55:22.752Z</time>
      </trkpt>
      <trkpt lat="40.23189" lon="29.56167">
        <ele>237.819428</ele>
        <time>2021-11-17T08:55:30.934Z</time>
      </trkpt>
      <trkpt lat="40.23216" lon="29.56081">
        <ele>237.974159</ele>
        <time>2021-11-17T08:55:47.699Z</time>
      </trkpt>
      <trkpt lat="40.23241" lon="29.56065">
        <ele>238.060741</ele>
        <time>2021-11-17T08:55:54.453Z</time>
      </trkpt>
      <trkpt lat="40.2326" lon="29.56036">
        <ele>238.183541</ele>
        <time>2021-11-17T08:56:01.349Z</time>
      </trkpt>
      <trkpt lat="40.23277" lon="29.55862">
        <ele>238.757729</ele>
        <time>2021-11-17T08:56:33.632Z</time>
      </trkpt>
      <trkpt lat="40.23294" lon="29.55823">
        <ele>238.773072</ele>
        <time>2021-11-17T08:56:41.757Z</time>
      </trkpt>
      <trkpt lat="40.23317" lon="29.55795">
        <ele>238.768437</ele>
        <time>2021-11-17T08:56:49.061Z</time>
      </trkpt>
      <trkpt lat="40.23327" lon="29.55752">
        <ele>238.763343</ele>
        <time>2021-11-17T08:56:56.789Z</time>
      </trkpt>
      <trkpt lat="40.2333" lon="29.5574">
        <ele>238.761898</ele>
        <time>2021-11-17T08:56:58.878Z</time>
      </trkpt>
      <trkpt lat="40.23367" lon="29.55687">
        <ele>238.753779</ele>
        <time>2021-11-17T08:57:10.694Z</time>
      </trkpt>
      <trkpt lat="40.23366" lon="29.55674">
        <ele>238.752314</ele>
        <time>2021-11-17T08:57:12.776Z</time>
      </trkpt>
      <trkpt lat="40.23364" lon="29.55628">
        <ele>238.543548</ele>
        <time>2021-11-17T08:57:20.020Z</time>
      </trkpt>
      <trkpt lat="40.23363" lon="29.55607">
        <ele>238.408655</ele>
        <time>2021-11-17T08:57:23.226Z</time>
      </trkpt>
      <trkpt lat="40.23381" lon="29.55558">
        <ele>238.055379</ele>
        <time>2021-11-17T08:57:31.667Z</time>
      </trkpt>
      <trkpt lat="40.23416" lon="29.55543">
        <ele>237.744807</ele>
        <time>2021-11-17T08:57:38.775Z</time>
      </trkpt>
      <trkpt lat="40.23528" lon="29.55536">
        <ele>236.705396</ele>
        <time>2021-11-17T08:57:59.912Z</time>
      </trkpt>
      <trkpt lat="40.23541" lon="29.55533">
        <ele>236.565018</ele>
        <time>2021-11-17T08:58:02.401Z</time>
      </trkpt>
      <trkpt lat="40.23563" lon="29.55528">
        <ele>236.343655</ele>
        <time>2021-11-17T08:58:06.659Z</time>
      </trkpt>
      <trkpt lat="40.23585" lon="29.5551">
        <ele>236.077528</ele>
        <time>2021-11-17T08:58:11.605Z</time>
      </trkpt>
      <trkpt lat="40.23638" lon="29.55464">
        <ele>235.426786</ele>
        <time>2021-11-17T08:58:24.017Z</time>
      </trkpt>
      <trkpt lat="40.23763" lon="29.55297">
        <ele>234.502579</ele>
        <time>2021-11-17T08:59:00.877Z</time>
      </trkpt>
      <trkpt lat="40.23879" lon="29.55119">
        <ele>233.843115</ele>
        <time>2021-11-17T08:59:37.933Z</time>
      </trkpt>
      <trkpt lat="40.23949" lon="29.54938">
        <ele>233.947598</ele>
        <time>2021-11-17T09:00:12.924Z</time>
      </trkpt>
      <trkpt lat="40.23994" lon="29.54834">
        <ele>234.053686</ele>
        <time>2021-11-17T09:00:34.212Z</time>
      </trkpt>
      <trkpt lat="40.24042" lon="29.54747">
        <ele>234.161398</ele>
        <time>2021-11-17T09:00:52.727Z</time>
      </trkpt>
      <trkpt lat="40.24088" lon="29.54699">
        <ele>234.24032</ele>
        <time>2021-11-17T09:01:05.808Z</time>
      </trkpt>
      <trkpt lat="40.24145" lon="29.54655">
        <ele>234.334332</ele>
        <time>2021-11-17T09:01:20.719Z</time>
      </trkpt>
      <trkpt lat="40.24228" lon="29.54595">
        <ele>234.47354</ele>
        <time>2021-11-17T09:01:42.653Z</time>
      </trkpt>
      <trkpt lat="40.24263" lon="29.54563">
        <ele>234.598692</ele>
        <time>2021-11-17T09:01:52.605Z</time>
      </trkpt>
      <trkpt lat="40.24317" lon="29.54518">
        <ele>234.786614</ele>
        <time>2021-11-17T09:02:07.664Z</time>
      </trkpt>
      <trkpt lat="40.2438" lon="29.54448">
        <ele>235.018982</ele>
        <time>2021-11-17T09:02:27.064Z</time>
      </trkpt>
      <trkpt lat="40.2442" lon="29.54359">
        <ele>235.183464</ele>
        <time>2021-11-17T09:02:45.426Z</time>
      </trkpt>
      <trkpt lat="40.24427" lon="29.54322">
        <ele>235.24551</ele>
        <time>2021-11-17T09:02:52.268Z</time>
      </trkpt>
      <trkpt lat="40.24421" lon="29.5409">
        <ele>235.492944</ele>
        <time>2021-11-17T09:03:32.380Z</time>
      </trkpt>
      <trkpt lat="40.24427" lon="29.53969">
        <ele>235.605114</ele>
        <time>2021-11-17T09:03:53.342Z</time>
      </trkpt>
      <trkpt lat="40.2443" lon="29.53913">
        <ele>235.671395</ele>
        <time>2021-11-17T09:04:03.063Z</time>
      </trkpt>
      <trkpt lat="40.24449" lon="29.53856">
        <ele>235.745448</ele>
        <time>2021-11-17T09:04:13.997Z</time>
      </trkpt>
      <trkpt lat="40.2449" lon="29.53818">
        <ele>235.822907</ele>
        <time>2021-11-17T09:04:25.533Z</time>
      </trkpt>
      <trkpt lat="40.24565" lon="29.53815">
        <ele>236.029187</ele>
        <time>2021-11-17T09:04:42.931Z</time>
      </trkpt>
      <trkpt lat="40.24622" lon="29.53771">
        <ele>236.221613</ele>
        <time>2021-11-17T09:04:58.371Z</time>
      </trkpt>
      <trkpt lat="40.24669" lon="29.53714">
        <ele>236.407785</ele>
        <time>2021-11-17T09:05:13.625Z</time>
      </trkpt>
      <trkpt lat="40.24708" lon="29.5359">
        <ele>236.696711</ele>
        <time>2021-11-17T09:05:37.763Z</time>
      </trkpt>
      <trkpt lat="40.24745" lon="29.53503">
        <ele>236.881989</ele>
        <time>2021-11-17T09:05:55.190Z</time>
      </trkpt>
      <trkpt lat="40.24805" lon="29.53399">
        <ele>236.962586</ele>
        <time>2021-11-17T09:06:17.787Z</time>
      </trkpt>
      <trkpt lat="40.24845" lon="29.53338">
        <ele>237.011871</ele>
        <time>2021-11-17T09:06:31.442Z</time>
      </trkpt>
      <trkpt lat="40.24871" lon="29.53307">
        <ele>237.001906</ele>
        <time>2021-11-17T09:06:39.237Z</time>
      </trkpt>
      <trkpt lat="40.24919" lon="29.53268">
        <ele>236.975681</ele>
        <time>2021-11-17T09:06:51.929Z</time>
      </trkpt>
      <trkpt lat="40.25032" lon="29.53226">
        <ele>236.874554</ele>
        <time>2021-11-17T09:07:17.518Z</time>
      </trkpt>
      <trkpt lat="40.25309" lon="29.5317">
        <ele>236.591799</ele>
        <time>2021-11-17T09:08:17.177Z</time>
      </trkpt>
      <trkpt lat="40.25473" lon="29.53069">
        <ele>237.657457</ele>
        <time>2021-11-17T09:09:02.811Z</time>
      </trkpt>
      <trkpt lat="40.25491" lon="29.52939">
        <ele>238.485939</ele>
        <time>2021-11-17T09:09:29.451Z</time>
      </trkpt>
      <trkpt lat="40.25509" lon="29.52891">
        <ele>238.82685</ele>
        <time>2021-11-17T09:09:40.093Z</time>
      </trkpt>
      <trkpt lat="40.25501" lon="29.52857">
        <ele>239.052816</ele>
        <time>2021-11-17T09:09:47.070Z</time>
      </trkpt>
      <trkpt lat="40.25484" lon="29.52826">
        <ele>239.295548</ele>
        <time>2021-11-17T09:09:54.413Z</time>
      </trkpt>
      <trkpt lat="40.25471" lon="29.52777">
        <ele>239.605341</ele>
        <time>2021-11-17T09:10:04.360Z</time>
      </trkpt>
      <trkpt lat="40.25468" lon="29.52745">
        <ele>239.678469</ele>
        <time>2021-11-17T09:10:10.233Z</time>
      </trkpt>
      <trkpt lat="40.25477" lon="29.52705">
        <ele>239.776317</ele>
        <time>2021-11-17T09:10:17.959Z</time>
      </trkpt>
      <trkpt lat="40.25498" lon="29.52677">
        <ele>239.866988</ele>
        <time>2021-11-17T09:10:25.010Z</time>
      </trkpt>
      <trkpt lat="40.25665" lon="29.52541">
        <ele>240.275062</ele>
        <time>2021-11-17T09:11:09.662Z</time>
      </trkpt>
      <trkpt lat="40.25762" lon="29.52469">
        <ele>240.419345</ele>
        <time>2021-11-17T09:11:34.865Z</time>
      </trkpt>
      <trkpt lat="40.25942" lon="29.52331">
        <ele>240.714363</ele>
        <time>2021-11-17T09:12:22.299Z</time>
      </trkpt>
      <trkpt lat="40.26055" lon="29.52245">
        <ele>240.960671</ele>
        <time>2021-11-17T09:12:52.303Z</time>
      </trkpt>
      <trkpt lat="40.26272" lon="29.52079">
        <ele>241.850106</ele>
        <time>2021-11-17T09:13:51.808Z</time>
      </trkpt>
      <trkpt lat="40.26473" lon="29.51871">
        <ele>242.983816</ele>
        <time>2021-11-17T09:14:53.809Z</time>
      </trkpt>
      <trkpt lat="40.2664" lon="29.51684">
        <ele>243.839921</ele>
        <time>2021-11-17T09:15:46.202Z</time>
      </trkpt>
      <trkpt lat="40.26819" lon="29.51507">
        <ele>244.43789</ele>
        <time>2021-11-17T09:16:38.015Z</time>
      </trkpt>
      <trkpt lat="40.26928" lon="29.5141">
        <ele>244.811297</ele>
        <time>2021-11-17T09:17:08.923Z</time>
      </trkpt>
      <trkpt lat="40.2705" lon="29.51314">
        <ele>245.276293</ele>
        <time>2021-11-17T09:17:42.619Z</time>
      </trkpt>
      <trkpt lat="40.27097" lon="29.51299">
        <ele>245.411047</ele>
        <time>2021-11-17T09:17:53.853Z</time>
      </trkpt>
      <trkpt lat="40.27145" lon="29.5128">
        <ele>245.542774</ele>
        <time>2021-11-17T09:18:05.550Z</time>
      </trkpt>
      <trkpt lat="40.27165" lon="29.51268">
        <ele>245.599965</ele>
        <time>2021-11-17T09:18:10.642Z</time>
      </trkpt>
      <trkpt lat="40.27181" lon="29.51255">
        <ele>245.647551</ele>
        <time>2021-11-17T09:18:14.879Z</time>
      </trkpt>
      <trkpt lat="40.27213" lon="29.51234">
        <ele>245.740267</ele>
        <time>2021-11-17T09:18:23.136Z</time>
      </trkpt>
      <trkpt lat="40.27247" lon="29.51213">
        <ele>245.868828</ele>
        <time>2021-11-17T09:18:31.936Z</time>
      </trkpt>
      <trkpt lat="40.27363" lon="29.5116">
        <ele>246.402134</ele>
        <time>2021-11-17T09:19:01.451Z</time>
      </trkpt>
      <trkpt lat="40.27468" lon="29.51107">
        <ele>246.869572</ele>
        <time>2021-11-17T09:19:28.630Z</time>
      </trkpt>
      <trkpt lat="40.2753" lon="29.51059">
        <ele>247.166124</ele>
        <time>2021-11-17T09:19:45.911Z</time>
      </trkpt>
      <trkpt lat="40.27557" lon="29.51026">
        <ele>247.314134</ele>
        <time>2021-11-17T09:19:54.568Z</time>
      </trkpt>
      <trkpt lat="40.27567" lon="29.50999">
        <ele>247.389792</ele>
        <time>2021-11-17T09:19:59.791Z</time>
      </trkpt>
      <trkpt lat="40.27584" lon="29.50974">
        <ele>247.477534</ele>
        <time>2021-11-17T09:20:05.853Z</time>
      </trkpt>
      <trkpt lat="40.27655" lon="29.5094">
        <ele>247.734044</ele>
        <time>2021-11-17T09:20:23.653Z</time>
      </trkpt>
      <trkpt lat="40.277" lon="29.50895">
        <ele>247.930011</ele>
        <time>2021-11-17T09:20:37.048Z</time>
      </trkpt>
      <trkpt lat="40.27754" lon="29.50806">
        <ele>248.344517</ele>
        <time>2021-11-17T09:20:57.774Z</time>
      </trkpt>
      <trkpt lat="40.27809" lon="29.50752">
        <ele>248.672918</ele>
        <time>2021-11-17T09:21:14.291Z</time>
      </trkpt>
      <trkpt lat="40.27839" lon="29.50735">
        <ele>248.85836</ele>
        <time>2021-11-17T09:21:22.322Z</time>
      </trkpt>
      <trkpt lat="40.2792" lon="29.50724">
        <ele>249.460419</ele>
        <time>2021-11-17T09:21:42.932Z</time>
      </trkpt>
      <trkpt lat="40.27941" lon="29.50718">
        <ele>249.616433</ele>
        <time>2021-11-17T09:21:48.247Z</time>
      </trkpt>
      <trkpt lat="40.27951" lon="29.50601">
        <ele>250.29389</ele>
        <time>2021-11-17T09:22:11.130Z</time>
      </trkpt>
      <trkpt lat="40.27962" lon="29.50563">
        <ele>250.540892</ele>
        <time>2021-11-17T09:22:19.060Z</time>
      </trkpt>
      <trkpt lat="40.2801" lon="29.50482">
        <ele>251.164207</ele>
        <time>2021-11-17T09:22:39.143Z</time>
      </trkpt>
      <trkpt lat="40.28259" lon="29.5013">
        <ele>253.983684</ele>
        <time>2021-11-17T09:24:11.183Z</time>
      </trkpt>
      <trkpt lat="40.28276" lon="29.5011">
        <ele>254.164349</ele>
        <time>2021-11-17T09:24:17.150Z</time>
      </trkpt>
      <trkpt lat="40.28299" lon="29.50089">
        <ele>254.408717</ele>
        <time>2021-11-17T09:24:24.534Z</time>
      </trkpt>
      <trkpt lat="40.28323" lon="29.50075">
        <ele>254.665209</ele>
        <time>2021-11-17T09:24:31.389Z</time>
      </trkpt>
      <trkpt lat="40.28363" lon="29.50062">
        <ele>255.067595</ele>
        <time>2021-11-17T09:24:42.308Z</time>
      </trkpt>
      <trkpt lat="40.28749" lon="29.49959">
        <ele>258.891585</ele>
        <time>2021-11-17T09:26:25.393Z</time>
      </trkpt>
      <trkpt lat="40.29205" lon="29.49837">
        <ele>263.236107</ele>
        <time>2021-11-17T09:28:26.283Z</time>
      </trkpt>
      <trkpt lat="40.29258" lon="29.49812">
        <ele>263.681022</ele>
        <time>2021-11-17T09:28:40.680Z</time>
      </trkpt>
      <trkpt lat="40.29559" lon="29.49532">
        <ele>266.098505</ele>
        <time>2021-11-17T09:30:12.419Z</time>
      </trkpt>
      <trkpt lat="40.29662" lon="29.49446">
        <ele>266.822507</ele>
        <time>2021-11-17T09:30:41.715Z</time>
      </trkpt>
      <trkpt lat="40.29685" lon="29.49411">
        <ele>267.054579</ele>
        <time>2021-11-17T09:30:50.299Z</time>
      </trkpt>
      <trkpt lat="40.29702" lon="29.49373">
        <ele>267.275876</ele>
        <time>2021-11-17T09:30:58.565Z</time>
      </trkpt>
      <trkpt lat="40.29714" lon="29.4916">
        <ele>269.036849</ele>
        <time>2021-11-17T09:31:40.875Z</time>
      </trkpt>
      <trkpt lat="40.29718" lon="29.49081">
        <ele>269.861126</ele>
        <time>2021-11-17T09:31:59.028Z</time>
      </trkpt>
      <trkpt lat="40.29752" lon="29.49071">
        <ele>270.45651</ele>
        <time>2021-11-17T09:32:09.699Z</time>
      </trkpt>
      <trkpt lat="40.29768" lon="29.49055">
        <ele>270.912571</ele>
        <time>2021-11-17T09:32:15.556Z</time>
      </trkpt>
      <trkpt lat="40.29791" lon="29.49013">
        <ele>271.776082</ele>
        <time>2021-11-17T09:32:27.788Z</time>
      </trkpt>
      <trkpt lat="40.29801" lon="29.49003">
        <ele>272.060372</ele>
        <time>2021-11-17T09:32:32.129Z</time>
      </trkpt>
      <trkpt lat="40.29798" lon="29.48963">
        <ele>272.731424</ele>
        <time>2021-11-17T09:32:41.676Z</time>
      </trkpt>
      <trkpt lat="40.29795" lon="29.48877">
        <ele>274.194329</ele>
        <time>2021-11-17T09:33:04.374Z</time>
      </trkpt>
      <trkpt lat="40.29791" lon="29.48861">
        <ele>274.39346</ele>
        <time>2021-11-17T09:33:08.550Z</time>
      </trkpt>
      <trkpt lat="40.29791" lon="29.48835">
        <ele>274.722433</ele>
        <time>2021-11-17T09:33:15.017Z</time>
      </trkpt>
      <trkpt lat="40.29789" lon="29.48799">
        <ele>275.169171</ele>
        <time>2021-11-17T09:33:23.848Z</time>
      </trkpt>
      <trkpt lat="40.29794" lon="29.48771">
        <ele>275.525907</ele>
        <time>2021-11-17T09:33:29.736Z</time>
      </trkpt>
      <trkpt lat="40.29795" lon="29.48743">
        <ele>275.878581</ele>
        <time>2021-11-17T09:33:35.826Z</time>
      </trkpt>
      <trkpt lat="40.29795" lon="29.48732">
        <ele>276.010627</ele>
        <time>2021-11-17T09:33:38.029Z</time>
      </trkpt>
      <trkpt lat="40.29794" lon="29.48707">
        <ele>276.323297</ele>
        <time>2021-11-17T09:33:43.349Z</time>
      </trkpt>
      <trkpt lat="40.29794" lon="29.48615">
        <ele>277.390284</ele>
        <time>2021-11-17T09:34:03.108Z</time>
      </trkpt>
      <trkpt lat="40.2979" lon="29.48597">
        <ele>277.575115</ele>
        <time>2021-11-17T09:34:07.197Z</time>
      </trkpt>
      <trkpt lat="40.29783" lon="29.48581">
        <ele>277.749043</ele>
        <time>2021-11-17T09:34:10.800Z</time>
      </trkpt>
      <trkpt lat="40.29786" lon="29.48559">
        <ele>277.963833</ele>
        <time>2021-11-17T09:34:15.556Z</time>
      </trkpt>
      <trkpt lat="40.29795" lon="29.48502">
        <ele>278.534655</ele>
        <time>2021-11-17T09:34:27.559Z</time>
      </trkpt>
      <trkpt lat="40.298" lon="29.48446">
        <ele>279.086836</ele>
        <time>2021-11-17T09:34:39.163Z</time>
      </trkpt>
      <trkpt lat="40.29791" lon="29.48331">
        <ele>280.591588</ele>
        <time>2021-11-17T09:35:04.622Z</time>
      </trkpt>
      <trkpt lat="40.2979" lon="29.48306">
        <ele>280.951688</ele>
        <time>2021-11-17T09:35:10.696Z</time>
      </trkpt>
      <trkpt lat="40.29786" lon="29.48217">
        <ele>282.241086</ele>
        <time>2021-11-17T09:35:31.673Z</time>
      </trkpt>
      <trkpt lat="40.29788" lon="29.48159">
        <ele>282.980556</ele>
        <time>2021-11-17T09:35:44.672Z</time>
      </trkpt>
      <trkpt lat="40.29802" lon="29.48102">
        <ele>283.605112</ele>
        <time>2021-11-17T09:35:57.844Z</time>
      </trkpt>
      <trkpt lat="40.29997" lon="29.47581">
        <ele>289.703911</ele>
        <time>2021-11-17T09:37:58.640Z</time>
      </trkpt>
      <trkpt lat="40.30023" lon="29.47532">
        <ele>290.465031</ele>
        <time>2021-11-17T09:38:11.858Z</time>
      </trkpt>
      <trkpt lat="40.30043" lon="29.47511">
        <ele>291.136097</ele>
        <time>2021-11-17T09:38:19.513Z</time>
      </trkpt>
      <trkpt lat="40.30104" lon="29.47481">
        <ele>292.842401</ele>
        <time>2021-11-17T09:38:40.102Z</time>
      </trkpt>
      <trkpt lat="40.3011" lon="29.47468">
        <ele>293.145915</ele>
        <time>2021-11-17T09:38:43.934Z</time>
      </trkpt>
      <trkpt lat="40.30113" lon="29.474">
        <ele>294.506441</ele>
        <time>2021-11-17T09:39:01.938Z</time>
      </trkpt>
      <trkpt lat="40.30135" lon="29.47362">
        <ele>295.994851</ele>
        <time>2021-11-17T09:39:15.281Z</time>
      </trkpt>
      <trkpt lat="40.30175" lon="29.47322">
        <ele>298.607233</ele>
        <time>2021-11-17T09:39:34.588Z</time>
      </trkpt>
      <trkpt lat="40.30281" lon="29.47251">
        <ele>304.868092</ele>
        <time>2021-11-17T09:40:30.208Z</time>
      </trkpt>
      <trkpt lat="40.30328" lon="29.47228">
        <ele>307.861971</ele>
        <time>2021-11-17T09:40:54.703Z</time>
      </trkpt>
      <trkpt lat="40.30344" lon="29.4723">
        <ele>308.821163</ele>
        <time>2021-11-17T09:41:02.533Z</time>
      </trkpt>
      <trkpt lat="40.30361" lon="29.47241">
        <ele>309.952506</ele>
        <time>2021-11-17T09:41:11.798Z</time>
      </trkpt>
      <trkpt lat="40.30377" lon="29.4726">
        <ele>311.240738</ele>
        <time>2021-11-17T09:41:22.150Z</time>
      </trkpt>
      <trkpt lat="40.30511" lon="29.47513">
        <ele>323.545094</ele>
        <time>2021-11-17T09:43:02.386Z</time>
      </trkpt>
      <trkpt lat="40.30535" lon="29.47529">
        <ele>324.799545</ele>
        <time>2021-11-17T09:43:12.622Z</time>
      </trkpt>
      <trkpt lat="40.3055" lon="29.47525">
        <ele>325.49338</ele>
        <time>2021-11-17T09:43:18.504Z</time>
      </trkpt>
      <trkpt lat="40.30567" lon="29.47505">
        <ele>326.52863</ele>
        <time>2021-11-17T09:43:27.392Z</time>
      </trkpt>
      <trkpt lat="40.3057" lon="29.47488">
        <ele>327.131802</ele>
        <time>2021-11-17T09:43:32.588Z</time>
      </trkpt>
      <trkpt lat="40.30568" lon="29.47465">
        <ele>327.932</ele>
        <time>2021-11-17T09:43:39.576Z</time>
      </trkpt>
      <trkpt lat="40.3054" lon="29.47372">
        <ele>331.388226</ele>
        <time>2021-11-17T09:44:10.500Z</time>
      </trkpt>
      <trkpt lat="40.30541" lon="29.47354">
        <ele>332.012088</ele>
        <time>2021-11-17T09:44:16.189Z</time>
      </trkpt>
      <trkpt lat="40.30558" lon="29.47334">
        <ele>333.002903</ele>
        <time>2021-11-17T09:44:25.778Z</time>
      </trkpt>
      <trkpt lat="40.3058" lon="29.47328">
        <ele>333.974476</ele>
        <time>2021-11-17T09:44:35.327Z</time>
      </trkpt>
      <trkpt lat="40.3065" lon="29.47327">
        <ele>337.001259</ele>
        <time>2021-11-17T09:45:04.237Z</time>
      </trkpt>
      <trkpt lat="40.30732" lon="29.4734">
        <ele>340.193364</ele>
        <time>2021-11-17T09:45:35.452Z</time>
      </trkpt>
      <trkpt lat="40.30772" lon="29.47363">
        <ele>341.075832</ele>
        <time>2021-11-17T09:45:49.963Z</time>
      </trkpt>
      <trkpt lat="40.30797" lon="29.47357">
        <ele>341.589339</ele>
        <time>2021-11-17T09:45:57.666Z</time>
      </trkpt>
      <trkpt lat="40.30806" lon="29.47342">
        <ele>341.883414</ele>
        <time>2021-11-17T09:46:01.792Z</time>
      </trkpt>
      <trkpt lat="40.30811" lon="29.4732">
        <ele>342.237116</ele>
        <time>2021-11-17T09:46:06.651Z</time>
      </trkpt>
      <trkpt lat="40.30817" lon="29.47247">
        <ele>343.368385</ele>
        <time>2021-11-17T09:46:21.413Z</time>
      </trkpt>
      <trkpt lat="40.30824" lon="29.47224">
        <ele>343.64288</ele>
        <time>2021-11-17T09:46:26.177Z</time>
      </trkpt>
      <trkpt lat="40.30846" lon="29.47202">
        <ele>343.967266</ele>
        <time>2021-11-17T09:46:33.278Z</time>
      </trkpt>
      <trkpt lat="40.30861" lon="29.47198">
        <ele>344.146736</ele>
        <time>2021-11-17T09:46:37.247Z</time>
      </trkpt>
      <trkpt lat="40.30893" lon="29.47207">
        <ele>344.530459</ele>
        <time>2021-11-17T09:46:45.907Z</time>
      </trkpt>
      <trkpt lat="40.30904" lon="29.47205">
        <ele>344.660665</ele>
        <time>2021-11-17T09:46:48.902Z</time>
      </trkpt>
      <trkpt lat="40.3092" lon="29.47186">
        <ele>344.913746</ele>
        <time>2021-11-17T09:46:54.630Z</time>
      </trkpt>
      <trkpt lat="40.30931" lon="29.47133">
        <ele>345.404848</ele>
        <time>2021-11-17T09:47:06.073Z</time>
      </trkpt>
      <trkpt lat="40.30939" lon="29.47115">
        <ele>345.591123</ele>
        <time>2021-11-17T09:47:10.504Z</time>
      </trkpt>
      <trkpt lat="40.30948" lon="29.47105">
        <ele>345.758951</ele>
        <time>2021-11-17T09:47:13.870Z</time>
      </trkpt>
      <trkpt lat="40.30996" lon="29.471">
        <ele>346.456082</ele>
        <time>2021-11-17T09:47:28.168Z</time>
      </trkpt>
      <trkpt lat="40.31007" lon="29.4709">
        <ele>346.649864</ele>
        <time>2021-11-17T09:47:32.080Z</time>
      </trkpt>
      <trkpt lat="40.31037" lon="29.47">
        <ele>347.734266</ele>
        <time>2021-11-17T09:47:53.132Z</time>
      </trkpt>
      <trkpt lat="40.31064" lon="29.46958">
        <ele>348.306516</ele>
        <time>2021-11-17T09:48:04.333Z</time>
      </trkpt>
      <trkpt lat="40.31082" lon="29.46903">
        <ele>348.797201</ele>
        <time>2021-11-17T09:48:16.086Z</time>
      </trkpt>
      <trkpt lat="40.31097" lon="29.4688">
        <ele>349.04532</ele>
        <time>2021-11-17T09:48:22.105Z</time>
      </trkpt>
      <trkpt lat="40.31126" lon="29.46861">
        <ele>349.393853</ele>
        <time>2021-11-17T09:48:30.647Z</time>
      </trkpt>
      <trkpt lat="40.31134" lon="29.46847">
        <ele>349.53728</ele>
        <time>2021-11-17T09:48:34.162Z</time>
      </trkpt>
      <trkpt lat="40.31138" lon="29.46832">
        <ele>349.667557</ele>
        <time>2021-11-17T09:48:37.358Z</time>
      </trkpt>
      <trkpt lat="40.31107" lon="29.46765">
        <ele>350.437468</ele>
        <time>2021-11-17T09:48:53.223Z</time>
      </trkpt>
      <trkpt lat="40.31129" lon="29.46686">
        <ele>351.648373</ele>
        <time>2021-11-17T09:49:11.728Z</time>
      </trkpt>
      <trkpt lat="40.3114" lon="29.46666">
        <ele>352.003416</ele>
        <time>2021-11-17T09:49:17.550Z</time>
      </trkpt>
      <trkpt lat="40.31217" lon="29.46609">
        <ele>353.661666</ele>
        <time>2021-11-17T09:49:45.620Z</time>
      </trkpt>
      <trkpt lat="40.31243" lon="29.46576">
        <ele>354.285571</ele>
        <time>2021-11-17T09:49:56.534Z</time>
      </trkpt>
      <trkpt lat="40.31255" lon="29.46519">
        <ele>355.067088</ele>
        <time>2021-11-17T09:50:09.632Z</time>
      </trkpt>
      <trkpt lat="40.31272" lon="29.46483">
        <ele>355.626059</ele>
        <time>2021-11-17T09:50:18.795Z</time>
      </trkpt>
      <trkpt lat="40.31335" lon="29.46384">
        <ele>357.445416</ele>
        <time>2021-11-17T09:50:46.333Z</time>
      </trkpt>
      <trkpt lat="40.31385" lon="29.46333">
        <ele>358.729673</ele>
        <time>2021-11-17T09:51:04.390Z</time>
      </trkpt>
      <trkpt lat="40.31386" lon="29.46312">
        <ele>359.064788</ele>
        <time>2021-11-17T09:51:09.345Z</time>
      </trkpt>
      <trkpt lat="40.31377" lon="29.4625">
        <ele>360.040681</ele>
        <time>2021-11-17T09:51:24.635Z</time>
      </trkpt>
      <trkpt lat="40.31359" lon="29.46195">
        <ele>361.563328</ele>
        <time>2021-11-17T09:51:40.511Z</time>
      </trkpt>
      <trkpt lat="40.31358" lon="29.46082">
        <ele>364.919697</ele>
        <time>2021-11-17T09:52:13.542Z</time>
      </trkpt>
      <trkpt lat="40.31375" lon="29.4601">
        <ele>367.156212</ele>
        <time>2021-11-17T09:52:36.240Z</time>
      </trkpt>
      <trkpt lat="40.31412" lon="29.45944">
        <ele>369.946017</ele>
        <time>2021-11-17T09:53:01.867Z</time>
      </trkpt>
      <trkpt lat="40.31461" lon="29.45907">
        <ele>372.492319</ele>
        <time>2021-11-17T09:53:24.760Z</time>
      </trkpt>
      <trkpt lat="40.31496" lon="29.45869">
        <ele>374.541679</ele>
        <time>2021-11-17T09:53:43.036Z</time>
      </trkpt>
      <trkpt lat="40.31533" lon="29.45886">
        <ele>376.035354</ele>
        <time>2021-11-17T09:53:59.442Z</time>
      </trkpt>
      <trkpt lat="40.31592" lon="29.45893">
        <ele>377.861098</ele>
        <time>2021-11-17T09:54:22.805Z</time>
      </trkpt>
      <trkpt lat="40.31613" lon="29.45886">
        <ele>378.540064</ele>
        <time>2021-11-17T09:54:30.899Z</time>
      </trkpt>
      <trkpt lat="40.3167" lon="29.4583">
        <ele>380.755984</ele>
        <time>2021-11-17T09:54:54.117Z</time>
      </trkpt>
      <trkpt lat="40.3169" lon="29.45818">
        <ele>380.981926</ele>
        <time>2021-11-17T09:55:00.295Z</time>
      </trkpt>
      <trkpt lat="40.31703" lon="29.45801">
        <ele>380.966211</ele>
        <time>2021-11-17T09:55:04.496Z</time>
      </trkpt>
      <trkpt lat="40.31712" lon="29.4579">
        <ele>380.955056</ele>
        <time>2021-11-17T09:55:07.793Z</time>
      </trkpt>
      <trkpt lat="40.31721" lon="29.45748">
        <ele>380.925842</ele>
        <time>2021-11-17T09:55:15.532Z</time>
      </trkpt>
      <trkpt lat="40.3173" lon="29.45696">
        <ele>380.890172</ele>
        <time>2021-11-17T09:55:24.340Z</time>
      </trkpt>
      <trkpt lat="40.31758" lon="29.45595">
        <ele>380.977059</ele>
        <time>2021-11-17T09:55:39.822Z</time>
      </trkpt>
      <trkpt lat="40.31771" lon="29.45564">
        <ele>381.161035</ele>
        <time>2021-11-17T09:55:45.279Z</time>
      </trkpt>
      <trkpt lat="40.31799" lon="29.45518">
        <ele>381.467116</ele>
        <time>2021-11-17T09:55:55.223Z</time>
      </trkpt>
      <trkpt lat="40.31819" lon="29.45433">
        <ele>381.92969</ele>
        <time>2021-11-17T09:56:14.044Z</time>
      </trkpt>
      <trkpt lat="40.31914" lon="29.45272">
        <ele>385.738843</ele>
        <time>2021-11-17T09:57:06.720Z</time>
      </trkpt>
      <trkpt lat="40.31931" lon="29.45224">
        <ele>386.832067</ele>
        <time>2021-11-17T09:57:20.879Z</time>
      </trkpt>
      <trkpt lat="40.31941" lon="29.45177">
        <ele>387.202772</ele>
        <time>2021-11-17T09:57:32.849Z</time>
      </trkpt>
      <trkpt lat="40.31958" lon="29.45045">
        <ele>388.017003</ele>
        <time>2021-11-17T09:58:00.264Z</time>
      </trkpt>
      <trkpt lat="40.32022" lon="29.44529">
        <ele>383.542725</ele>
        <time>2021-11-17T09:59:13.308Z</time>
      </trkpt>
      <trkpt lat="40.32026" lon="29.44454">
        <ele>383.635698</ele>
        <time>2021-11-17T09:59:25.670Z</time>
      </trkpt>
      <trkpt lat="40.32039" lon="29.44401">
        <ele>383.771477</ele>
        <time>2021-11-17T09:59:35.736Z</time>
      </trkpt>
      <trkpt lat="40.32068" lon="29.44296">
        <ele>384.043832</ele>
        <time>2021-11-17T09:59:57.957Z</time>
      </trkpt>
      <trkpt lat="40.32094" lon="29.44239">
        <ele>384.509179</ele>
        <time>2021-11-17T10:00:11.430Z</time>
      </trkpt>
      <trkpt lat="40.32112" lon="29.44218">
        <ele>384.731983</ele>
        <time>2021-11-17T10:00:17.795Z</time>
      </trkpt>
      <trkpt lat="40.32291" lon="29.44076">
        <ele>386.850294</ele>
        <time>2021-11-17T10:01:11.237Z</time>
      </trkpt>
      <trkpt lat="40.32487" lon="29.43867">
        <ele>390.299754</ele>
        <time>2021-11-17T10:02:22.044Z</time>
      </trkpt>
      <trkpt lat="40.32567" lon="29.43808">
        <ele>391.757434</ele>
        <time>2021-11-17T10:02:49.299Z</time>
      </trkpt>
      <trkpt lat="40.32684" lon="29.43717">
        <ele>393.613799</ele>
        <time>2021-11-17T10:03:27.375Z</time>
      </trkpt>
      <trkpt lat="40.32839" lon="29.43601">
        <ele>395.106897</ele>
        <time>2021-11-17T10:04:12.366Z</time>
      </trkpt>
      <trkpt lat="40.3314" lon="29.43484">
        <ele>396.498325</ele>
        <time>2021-11-17T10:05:28.105Z</time>
      </trkpt>
      <trkpt lat="40.3371" lon="29.43206">
        <ele>394.266961</ele>
        <time>2021-11-17T10:07:35.299Z</time>
      </trkpt>
      <trkpt lat="40.33872" lon="29.43167">
        <ele>393.052861</ele>
        <time>2021-11-17T10:08:08.294Z</time>
      </trkpt>
      <trkpt lat="40.34019" lon="29.43121">
        <ele>391.263769</ele>
        <time>2021-11-17T10:08:36.738Z</time>
      </trkpt>
      <trkpt lat="40.34151" lon="29.43113">
        <ele>389.094611</ele>
        <time>2021-11-17T10:09:00.553Z</time>
      </trkpt>
      <trkpt lat="40.34196" lon="29.43098">
        <ele>388.282314</ele>
        <time>2021-11-17T10:09:08.799Z</time>
      </trkpt>
      <trkpt lat="40.3433" lon="29.43006">
        <ele>385.428951</ele>
        <time>2021-11-17T10:09:35.514Z</time>
      </trkpt>
      <trkpt lat="40.34358" lon="29.42977">
        <ele>384.92092</ele>
        <time>2021-11-17T10:09:41.911Z</time>
      </trkpt>
      <trkpt lat="40.34404" lon="29.42907">
        <ele>384.014546</ele>
        <time>2021-11-17T10:09:54.748Z</time>
      </trkpt>
      <trkpt lat="40.34597" lon="29.42776">
        <ele>382.403808</ele>
        <time>2021-11-17T10:10:37.715Z</time>
      </trkpt>
      <trkpt lat="40.34622" lon="29.42744">
        <ele>382.260183</ele>
        <time>2021-11-17T10:10:45.663Z</time>
      </trkpt>
      <trkpt lat="40.34688" lon="29.42613">
        <ele>383.531666</ele>
        <time>2021-11-17T10:11:16.767Z</time>
      </trkpt>
      <trkpt lat="40.34699" lon="29.42581">
        <ele>383.850136</ele>
        <time>2021-11-17T10:11:24.490Z</time>
      </trkpt>
      <trkpt lat="40.3471" lon="29.42508">
        <ele>384.529713</ele>
        <time>2021-11-17T10:11:41.350Z</time>
      </trkpt>
      <trkpt lat="40.34734" lon="29.42425">
        <ele>385.357228</ele>
        <time>2021-11-17T10:12:01.708Z</time>
      </trkpt>
      <trkpt lat="40.34756" lon="29.42284">
        <ele>386.339772</ele>
        <time>2021-11-17T10:12:30.560Z</time>
      </trkpt>
      <trkpt lat="40.34752" lon="29.4222">
        <ele>385.370064</ele>
        <time>2021-11-17T10:12:40.423Z</time>
      </trkpt>
      <trkpt lat="40.34767" lon="29.42087">
        <ele>383.339761</ele>
        <time>2021-11-17T10:12:57.787Z</time>
      </trkpt>
      <trkpt lat="40.34765" lon="29.41959">
        <ele>379.038951</ele>
        <time>2021-11-17T10:13:12.754Z</time>
      </trkpt>
      <trkpt lat="40.34798" lon="29.41896">
        <ele>376.167307</ele>
        <time>2021-11-17T10:13:21.428Z</time>
      </trkpt>
      <trkpt lat="40.34805" lon="29.41819">
        <ele>373.130227</ele>
        <time>2021-11-17T10:13:30.182Z</time>
      </trkpt>
      <trkpt lat="40.3484" lon="29.41755">
        <ele>369.753062</ele>
        <time>2021-11-17T10:13:39.086Z</time>
      </trkpt>
      <trkpt lat="40.3492" lon="29.41661">
        <ele>363.73148</ele>
        <time>2021-11-17T10:13:54.951Z</time>
      </trkpt>
      <trkpt lat="40.35092" lon="29.41479">
        <ele>353.115264</ele>
        <time>2021-11-17T10:14:28.088Z</time>
      </trkpt>
      <trkpt lat="40.35124" lon="29.41429">
        <ele>351.582783</ele>
        <time>2021-11-17T10:14:36.160Z</time>
      </trkpt>
      <trkpt lat="40.35142" lon="29.41379">
        <ele>350.284892</ele>
        <time>2021-11-17T10:14:43.393Z</time>
      </trkpt>
      <trkpt lat="40.35142" lon="29.41352">
        <ele>349.65118</ele>
        <time>2021-11-17T10:14:47.049Z</time>
      </trkpt>
      <trkpt lat="40.35123" lon="29.4127">
        <ele>348.990068</ele>
        <time>2021-11-17T10:14:59.643Z</time>
      </trkpt>
      <trkpt lat="40.35128" lon="29.41247">
        <ele>348.983136</ele>
        <time>2021-11-17T10:15:03.384Z</time>
      </trkpt>
      <trkpt lat="40.35136" lon="29.41238">
        <ele>348.979129</ele>
        <time>2021-11-17T10:15:05.726Z</time>
      </trkpt>
      <trkpt lat="40.35227" lon="29.41232">
        <ele>348.944477</ele>
        <time>2021-11-17T10:15:26.919Z</time>
      </trkpt>
      <trkpt lat="40.35301" lon="29.41213">
        <ele>350.118548</ele>
        <time>2021-11-17T10:15:48.003Z</time>
      </trkpt>
      <trkpt lat="40.35361" lon="29.4123">
        <ele>351.329437</ele>
        <time>2021-11-17T10:16:07.325Z</time>
      </trkpt>
      <trkpt lat="40.35414" lon="29.41291">
        <ele>352.537965</ele>
        <time>2021-11-17T10:16:30.332Z</time>
      </trkpt>
      <trkpt lat="40.35424" lon="29.41319">
        <ele>352.640034</ele>
        <time>2021-11-17T10:16:37.898Z</time>
      </trkpt>
      <trkpt lat="40.35423" lon="29.41354">
        <ele>352.755644</ele>
        <time>2021-11-17T10:16:46.091Z</time>
      </trkpt>
      <trkpt lat="40.35413" lon="29.414">
        <ele>352.913539</ele>
        <time>2021-11-17T10:16:56.025Z</time>
      </trkpt>
      <trkpt lat="40.35387" lon="29.41468">
        <ele>353.164663</ele>
        <time>2021-11-17T10:17:08.459Z</time>
      </trkpt>
      <trkpt lat="40.35386" lon="29.41516">
        <ele>352.627045</ele>
        <time>2021-11-17T10:17:14.897Z</time>
      </trkpt>
      <trkpt lat="40.35394" lon="29.41539">
        <ele>351.697983</ele>
        <time>2021-11-17T10:17:18.020Z</time>
      </trkpt>
      <trkpt lat="40.3546" lon="29.41633">
        <ele>347.001124</ele>
        <time>2021-11-17T10:17:32.640Z</time>
      </trkpt>
      <trkpt lat="40.35485" lon="29.41643">
        <ele>345.740838</ele>
        <time>2021-11-17T10:17:36.442Z</time>
      </trkpt>
      <trkpt lat="40.35535" lon="29.41623">
        <ele>342.907907</ele>
        <time>2021-11-17T10:17:43.983Z</time>
      </trkpt>
      <trkpt lat="40.3556" lon="29.41623">
        <ele>341.427982</ele>
        <time>2021-11-17T10:17:47.612Z</time>
      </trkpt>
      <trkpt lat="40.35598" lon="29.41631">
        <ele>339.149732</ele>
        <time>2021-11-17T10:17:53.151Z</time>
      </trkpt>
      <trkpt lat="40.35659" lon="29.41656">
        <ele>335.366709</ele>
        <time>2021-11-17T10:18:02.528Z</time>
      </trkpt>
      <trkpt lat="40.35704" lon="29.41662">
        <ele>333.199733</ele>
        <time>2021-11-17T10:18:09.522Z</time>
      </trkpt>
      <trkpt lat="40.35715" lon="29.4167">
        <ele>332.778462</ele>
        <time>2021-11-17T10:18:11.274Z</time>
      </trkpt>
      <trkpt lat="40.35737" lon="29.41686">
        <ele>331.874257</ele>
        <time>2021-11-17T10:18:15.594Z</time>
      </trkpt>
      <trkpt lat="40.35756" lon="29.41718">
        <ele>330.788238</ele>
        <time>2021-11-17T10:18:20.658Z</time>
      </trkpt>
      <trkpt lat="40.35761" lon="29.4175">
        <ele>329.913746</ele>
        <time>2021-11-17T10:18:24.690Z</time>
      </trkpt>
      <trkpt lat="40.35775" lon="29.41774">
        <ele>329.104602</ele>
        <time>2021-11-17T10:18:28.461Z</time>
      </trkpt>
      <trkpt lat="40.35861" lon="29.41835">
        <ele>325.931781</ele>
        <time>2021-11-17T10:18:44.649Z</time>
      </trkpt>
      <trkpt lat="40.35887" lon="29.41845">
        <ele>325.107226</ele>
        <time>2021-11-17T10:18:49.103Z</time>
      </trkpt>
      <trkpt lat="40.35912" lon="29.41893">
        <ele>323.752004</ele>
        <time>2021-11-17T10:18:56.478Z</time>
      </trkpt>
      <trkpt lat="40.35922" lon="29.41911">
        <ele>323.242492</ele>
        <time>2021-11-17T10:18:59.104Z</time>
      </trkpt>
      <trkpt lat="40.3596" lon="29.41933">
        <ele>322.040236</ele>
        <time>2021-11-17T10:19:05.903Z</time>
      </trkpt>
      <trkpt lat="40.36041" lon="29.41921">
        <ele>320.440757</ele>
        <time>2021-11-17T10:19:19.340Z</time>
      </trkpt>
      <trkpt lat="40.36116" lon="29.41945">
        <ele>318.925989</ele>
        <time>2021-11-17T10:19:33.574Z</time>
      </trkpt>
      <trkpt lat="40.36149" lon="29.41945">
        <ele>318.798985</ele>
        <time>2021-11-17T10:19:40.524Z</time>
      </trkpt>
      <trkpt lat="40.36201" lon="29.4191">
        <ele>319.384645</ele>
        <time>2021-11-17T10:19:54.300Z</time>
      </trkpt>
      <trkpt lat="40.36213" lon="29.4191">
        <ele>319.504904</ele>
        <time>2021-11-17T10:19:57.411Z</time>
      </trkpt>
      <trkpt lat="40.36325" lon="29.41953">
        <ele>320.819261</ele>
        <time>2021-11-17T10:20:32.812Z</time>
      </trkpt>
      <trkpt lat="40.36406" lon="29.41957">
        <ele>322.104628</ele>
        <time>2021-11-17T10:20:57.431Z</time>
      </trkpt>
      <trkpt lat="40.36475" lon="29.41982">
        <ele>323.239724</ele>
        <time>2021-11-17T10:21:17.110Z</time>
      </trkpt>
      <trkpt lat="40.36548" lon="29.41972">
        <ele>322.851133</ele>
        <time>2021-11-17T10:21:34.183Z</time>
      </trkpt>
      <trkpt lat="40.36583" lon="29.41929">
        <ele>322.563077</ele>
        <time>2021-11-17T10:21:43.425Z</time>
      </trkpt>
      <trkpt lat="40.36602" lon="29.41915">
        <ele>322.432155</ele>
        <time>2021-11-17T10:21:47.502Z</time>
      </trkpt>
      <trkpt lat="40.36618" lon="29.41892">
        <ele>322.289576</ele>
        <time>2021-11-17T10:21:51.737Z</time>
      </trkpt>
      <trkpt lat="40.36646" lon="29.41815">
        <ele>321.913321</ele>
        <time>2021-11-17T10:22:03.355Z</time>
      </trkpt>
      <trkpt lat="40.36657" lon="29.418">
        <ele>321.822597</ele>
        <time>2021-11-17T10:22:06.259Z</time>
      </trkpt>
      <trkpt lat="40.36731" lon="29.41738">
        <ele>321.320474</ele>
        <time>2021-11-17T10:22:23.944Z</time>
      </trkpt>
      <trkpt lat="40.36755" lon="29.41672">
        <ele>322.003823</ele>
        <time>2021-11-17T10:22:38.603Z</time>
      </trkpt>
      <trkpt lat="40.368" lon="29.4158">
        <ele>324.394366</ele>
        <time>2021-11-17T10:23:06.628Z</time>
      </trkpt>
      <trkpt lat="40.36838" lon="29.41543">
        <ele>325.752261</ele>
        <time>2021-11-17T10:23:25.326Z</time>
      </trkpt>
      <trkpt lat="40.36867" lon="29.41531">
        <ele>326.51724</ele>
        <time>2021-11-17T10:23:37.447Z</time>
      </trkpt>
      <trkpt lat="40.36894" lon="29.41546">
        <ele>327.051186</ele>
        <time>2021-11-17T10:23:48.837Z</time>
      </trkpt>
      <trkpt lat="40.3693" lon="29.41584">
        <ele>327.892513</ele>
        <time>2021-11-17T10:24:05.425Z</time>
      </trkpt>
      <trkpt lat="40.36953" lon="29.41619">
        <ele>328.533827</ele>
        <time>2021-11-17T10:24:15.950Z</time>
      </trkpt>
      <trkpt lat="40.36965" lon="29.41621">
        <ele>328.754121</ele>
        <time>2021-11-17T10:24:18.970Z</time>
      </trkpt>
      <trkpt lat="40.37024" lon="29.41603">
        <ele>329.099416</ele>
        <time>2021-11-17T10:24:31.257Z</time>
      </trkpt>
      <trkpt lat="40.37057" lon="29.41585">
        <ele>327.788229</ele>
        <time>2021-11-17T10:24:37.277Z</time>
      </trkpt>
      <trkpt lat="40.37113" lon="29.41528">
        <ele>325.188129</ele>
        <time>2021-11-17T10:24:48.301Z</time>
      </trkpt>
      <trkpt lat="40.37193" lon="29.4149">
        <ele>322.003696</ele>
        <time>2021-11-17T10:25:01.062Z</time>
      </trkpt>
      <trkpt lat="40.37245" lon="29.41484">
        <ele>319.960294</ele>
        <time>2021-11-17T10:25:08.939Z</time>
      </trkpt>
      <trkpt lat="40.37324" lon="29.41464">
        <ele>316.810826</ele>
        <time>2021-11-17T10:25:21.666Z</time>
      </trkpt>
      <trkpt lat="40.37356" lon="29.41469">
        <ele>315.937494</ele>
        <time>2021-11-17T10:25:27.292Z</time>
      </trkpt>
      <trkpt lat="40.37392" lon="29.4149">
        <ele>315.833158</ele>
        <time>2021-11-17T10:25:34.869Z</time>
      </trkpt>
      <trkpt lat="40.37402" lon="29.41491">
        <ele>315.806596</ele>
        <time>2021-11-17T10:25:36.934Z</time>
      </trkpt>
      <trkpt lat="40.37451" lon="29.41468">
        <ele>315.668774</ele>
        <time>2021-11-17T10:25:48.583Z</time>
      </trkpt>
      <trkpt lat="40.37476" lon="29.41465">
        <ele>315.602286</ele>
        <time>2021-11-17T10:25:54.870Z</time>
      </trkpt>
      <trkpt lat="40.37536" lon="29.41477">
        <ele>315.247828</ele>
        <time>2021-11-17T10:26:11.193Z</time>
      </trkpt>
      <trkpt lat="40.37587" lon="29.41513">
        <ele>314.472322</ele>
        <time>2021-11-17T10:26:26.055Z</time>
      </trkpt>
      <trkpt lat="40.37635" lon="29.41565">
        <ele>313.638837</ele>
        <time>2021-11-17T10:26:37.914Z</time>
      </trkpt>
      <trkpt lat="40.37666" lon="29.41585">
        <ele>313.176239</ele>
        <time>2021-11-17T10:26:43.376Z</time>
      </trkpt>
      <trkpt lat="40.37687" lon="29.41606">
        <ele>311.573416</ele>
        <time>2021-11-17T10:26:47.306Z</time>
      </trkpt>
      <trkpt lat="40.37706" lon="29.41638">
        <ele>309.153609</ele>
        <time>2021-11-17T10:26:51.747Z</time>
      </trkpt>
      <trkpt lat="40.37715" lon="29.41643">
        <ele>308.388472</ele>
        <time>2021-11-17T10:26:53.133Z</time>
      </trkpt>
      <trkpt lat="40.37762" lon="29.41629">
        <ele>304.615189</ele>
        <time>2021-11-17T10:26:59.819Z</time>
      </trkpt>
      <trkpt lat="40.37834" lon="29.41629">
        <ele>298.981825</ele>
        <time>2021-11-17T10:27:09.676Z</time>
      </trkpt>
      <trkpt lat="40.37867" lon="29.41602">
        <ele>296.487155</ele>
        <time>2021-11-17T10:27:14.992Z</time>
      </trkpt>
      <trkpt lat="40.37884" lon="29.41577">
        <ele>294.84939</ele>
        <time>2021-11-17T10:27:18.520Z</time>
      </trkpt>
      <trkpt lat="40.37909" lon="29.41566">
        <ele>293.157818</ele>
        <time>2021-11-17T10:27:22.268Z</time>
      </trkpt>
      <trkpt lat="40.37944" lon="29.41564">
        <ele>290.910267</ele>
        <time>2021-11-17T10:27:27.458Z</time>
      </trkpt>
      <trkpt lat="40.37978" lon="29.41555">
        <ele>288.685094</ele>
        <time>2021-11-17T10:27:32.934Z</time>
      </trkpt>
      <trkpt lat="40.38016" lon="29.41574">
        <ele>286.839307</ele>
        <time>2021-11-17T10:27:39.785Z</time>
      </trkpt>
      <trkpt lat="40.38036" lon="29.41578">
        <ele>286.257433</ele>
        <time>2021-11-17T10:27:43.317Z</time>
      </trkpt>
      <trkpt lat="40.38096" lon="29.41551">
        <ele>284.43315</ele>
        <time>2021-11-17T10:27:54.089Z</time>
      </trkpt>
      <trkpt lat="40.38135" lon="29.41545">
        <ele>283.303762</ele>
        <time>2021-11-17T10:28:00.711Z</time>
      </trkpt>
      <trkpt lat="40.38143" lon="29.41548">
        <ele>283.064464</ele>
        <time>2021-11-17T10:28:02.125Z</time>
      </trkpt>
      <trkpt lat="40.38215" lon="29.41639">
        <ele>278.68137</ele>
        <time>2021-11-17T10:28:18.079Z</time>
      </trkpt>
      <trkpt lat="40.38228" lon="29.41649">
        <ele>277.936151</ele>
        <time>2021-11-17T10:28:20.323Z</time>
      </trkpt>
      <trkpt lat="40.3826" lon="29.41652">
        <ele>276.349423</ele>
        <time>2021-11-17T10:28:25.027Z</time>
      </trkpt>
      <trkpt lat="40.38289" lon="29.41642">
        <ele>274.86645</ele>
        <time>2021-11-17T10:28:29.348Z</time>
      </trkpt>
      <trkpt lat="40.38326" lon="29.41582">
        <ele>272.055455</ele>
        <time>2021-11-17T10:28:37.961Z</time>
      </trkpt>
      <trkpt lat="40.38398" lon="29.41519">
        <ele>268.066897</ele>
        <time>2021-11-17T10:28:51.127Z</time>
      </trkpt>
      <trkpt lat="40.38418" lon="29.41495">
        <ele>266.817867</ele>
        <time>2021-11-17T10:28:55.372Z</time>
      </trkpt>
      <trkpt lat="40.38438" lon="29.41493">
        <ele>265.893273</ele>
        <time>2021-11-17T10:28:58.598Z</time>
      </trkpt>
      <trkpt lat="40.38503" lon="29.41551">
        <ele>262.96871</ele>
        <time>2021-11-17T10:29:11.546Z</time>
      </trkpt>
      <trkpt lat="40.38561" lon="29.41551">
        <ele>260.955117</ele>
        <time>2021-11-17T10:29:21.064Z</time>
      </trkpt>
      <trkpt lat="40.38598" lon="29.41567">
        <ele>259.602696</ele>
        <time>2021-11-17T10:29:27.306Z</time>
      </trkpt>
      <trkpt lat="40.38614" lon="29.41582">
        <ele>258.920135</ele>
        <time>2021-11-17T10:29:30.388Z</time>
      </trkpt>
      <trkpt lat="40.38632" lon="29.41626">
        <ele>256.68815</ele>
        <time>2021-11-17T10:29:36.255Z</time>
      </trkpt>
      <trkpt lat="40.38656" lon="29.4173">
        <ele>251.728498</ele>
        <time>2021-11-17T10:29:48.498Z</time>
      </trkpt>
      <trkpt lat="40.38686" lon="29.41773">
        <ele>249.06714</ele>
        <time>2021-11-17T10:29:54.832Z</time>
      </trkpt>
      <trkpt lat="40.38691" lon="29.41804">
        <ele>247.352878</ele>
        <time>2021-11-17T10:29:58.240Z</time>
      </trkpt>
      <trkpt lat="40.38713" lon="29.41852">
        <ele>243.294425</ele>
        <time>2021-11-17T10:30:04.188Z</time>
      </trkpt>
      <trkpt lat="40.38758" lon="29.41906">
        <ele>237.49583</ele>
        <time>2021-11-17T10:30:12.573Z</time>
      </trkpt>
      <trkpt lat="40.38805" lon="29.41933">
        <ele>232.616292</ele>
        <time>2021-11-17T10:30:19.562Z</time>
      </trkpt>
      <trkpt lat="40.38816" lon="29.41962">
        <ele>230.085026</ele>
        <time>2021-11-17T10:30:22.830Z</time>
      </trkpt>
      <trkpt lat="40.38819" lon="29.42024">
        <ele>224.400586</ele>
        <time>2021-11-17T10:30:29.074Z</time>
      </trkpt>
      <trkpt lat="40.38827" lon="29.4205">
        <ele>221.834803</ele>
        <time>2021-11-17T10:30:31.920Z</time>
      </trkpt>
      <trkpt lat="40.38834" lon="29.42057">
        <ele>220.777743</ele>
        <time>2021-11-17T10:30:33.068Z</time>
      </trkpt>
      <trkpt lat="40.38888" lon="29.42076">
        <ele>214.061782</ele>
        <time>2021-11-17T10:30:40.535Z</time>
      </trkpt>
      <trkpt lat="40.38899" lon="29.42084">
        <ele>212.551151</ele>
        <time>2021-11-17T10:30:42.167Z</time>
      </trkpt>
      <trkpt lat="40.38908" lon="29.42094">
        <ele>211.134767</ele>
        <time>2021-11-17T10:30:43.741Z</time>
      </trkpt>
      <trkpt lat="40.38945" lon="29.42166">
        <ele>203.95841</ele>
        <time>2021-11-17T10:30:52.576Z</time>
      </trkpt>
      <trkpt lat="40.3895" lon="29.42184">
        <ele>202.424153</ele>
        <time>2021-11-17T10:30:54.587Z</time>
      </trkpt>
      <trkpt lat="40.38951" lon="29.42227">
        <ele>198.979228</ele>
        <time>2021-11-17T10:30:58.969Z</time>
      </trkpt>
      <trkpt lat="40.38961" lon="29.42294">
        <ele>193.512018</ele>
        <time>2021-11-17T10:31:06.020Z</time>
      </trkpt>
      <trkpt lat="40.38975" lon="29.42336">
        <ele>189.932924</ele>
        <time>2021-11-17T10:31:10.885Z</time>
      </trkpt>
      <trkpt lat="40.39002" lon="29.42457">
        <ele>181.356992</ele>
        <time>2021-11-17T10:31:24.142Z</time>
      </trkpt>
      <trkpt lat="40.39014" lon="29.42472">
        <ele>179.877376</ele>
        <time>2021-11-17T10:31:26.425Z</time>
      </trkpt>
      <trkpt lat="40.39028" lon="29.42461">
        <ele>178.420387</ele>
        <time>2021-11-17T10:31:28.675Z</time>
      </trkpt>
      <trkpt lat="40.39049" lon="29.424">
        <ele>173.934823</ele>
        <time>2021-11-17T10:31:35.724Z</time>
      </trkpt>
      <trkpt lat="40.39061" lon="29.42378">
        <ele>172.332027</ele>
        <time>2021-11-17T10:31:38.583Z</time>
      </trkpt>
      <trkpt lat="40.3908" lon="29.42353">
        <ele>170.240134</ele>
        <time>2021-11-17T10:31:42.325Z</time>
      </trkpt>
      <trkpt lat="40.39094" lon="29.42345">
        <ele>169.052735</ele>
        <time>2021-11-17T10:31:44.459Z</time>
      </trkpt>
      <trkpt lat="40.39114" lon="29.42346">
        <ele>167.496246</ele>
        <time>2021-11-17T10:31:47.259Z</time>
      </trkpt>
      <trkpt lat="40.39157" lon="29.4239">
        <ele>163.256601</ele>
        <time>2021-11-17T10:31:54.969Z</time>
      </trkpt>
      <trkpt lat="40.39177" lon="29.42399">
        <ele>161.612424</ele>
        <time>2021-11-17T10:31:57.995Z</time>
      </trkpt>
      <trkpt lat="40.39226" lon="29.42412">
        <ele>158.478588</ele>
        <time>2021-11-17T10:32:05.239Z</time>
      </trkpt>
      <trkpt lat="40.3925" lon="29.42413">
        <ele>157.136876</ele>
        <time>2021-11-17T10:32:08.772Z</time>
      </trkpt>
      <trkpt lat="40.39266" lon="29.42407">
        <ele>156.207102</ele>
        <time>2021-11-17T10:32:11.242Z</time>
      </trkpt>
      <trkpt lat="40.39277" lon="29.42396">
        <ele>155.434492</ele>
        <time>2021-11-17T10:32:13.300Z</time>
      </trkpt>
      <trkpt lat="40.39287" lon="29.42362">
        <ele>153.883422</ele>
        <time>2021-11-17T10:32:17.460Z</time>
      </trkpt>
      <trkpt lat="40.3926" lon="29.42278">
        <ele>150.045917</ele>
        <time>2021-11-17T10:32:27.963Z</time>
      </trkpt>
      <trkpt lat="40.39255" lon="29.4224">
        <ele>148.604941</ele>
        <time>2021-11-17T10:32:32.419Z</time>
      </trkpt>
      <trkpt lat="40.39259" lon="29.42225">
        <ele>148.011075</ele>
        <time>2021-11-17T10:32:34.251Z</time>
      </trkpt>
      <trkpt lat="40.3927" lon="29.42206">
        <ele>147.11927</ele>
        <time>2021-11-17T10:32:37.001Z</time>
      </trkpt>
      <trkpt lat="40.39304" lon="29.42169">
        <ele>144.952683</ele>
        <time>2021-11-17T10:32:43.693Z</time>
      </trkpt>
      <trkpt lat="40.39394" lon="29.42123">
        <ele>140.158816</ele>
        <time>2021-11-17T10:32:58.395Z</time>
      </trkpt>
      <trkpt lat="40.39403" lon="29.42094">
        <ele>138.939235</ele>
        <time>2021-11-17T10:33:01.993Z</time>
      </trkpt>
      <trkpt lat="40.39402" lon="29.42073">
        <ele>138.119787</ele>
        <time>2021-11-17T10:33:04.387Z</time>
      </trkpt>
      <trkpt lat="40.39391" lon="29.42028">
        <ele>136.279191</ele>
        <time>2021-11-17T10:33:09.783Z</time>
      </trkpt>
      <trkpt lat="40.39359" lon="29.41933">
        <ele>132.240042</ele>
        <time>2021-11-17T10:33:21.718Z</time>
      </trkpt>
      <trkpt lat="40.39332" lon="29.41912">
        <ele>130.741057</ele>
        <time>2021-11-17T10:33:26.390Z</time>
      </trkpt>
      <trkpt lat="40.39323" lon="29.41898">
        <ele>130.074564</ele>
        <time>2021-11-17T10:33:28.477Z</time>
      </trkpt>
      <trkpt lat="40.39318" lon="29.41876">
        <ele>129.239338</ele>
        <time>2021-11-17T10:33:31.076Z</time>
      </trkpt>
      <trkpt lat="40.39326" lon="29.41799">
        <ele>126.414683</ele>
        <time>2021-11-17T10:33:39.994Z</time>
      </trkpt>
      <trkpt lat="40.39337" lon="29.41703">
        <ele>123.448339</ele>
        <time>2021-11-17T10:33:51.444Z</time>
      </trkpt>
      <trkpt lat="40.39359" lon="29.41709">
        <ele>123.073989</ele>
        <time>2021-11-17T10:33:55.381Z</time>
      </trkpt>
      <trkpt lat="40.39374" lon="29.41709">
        <ele>122.838864</ele>
        <time>2021-11-17T10:33:57.883Z</time>
      </trkpt>
      <trkpt lat="40.39398" lon="29.41698">
        <ele>122.418106</ele>
        <time>2021-11-17T10:34:02.427Z</time>
      </trkpt>
      <trkpt lat="40.39414" lon="29.41695">
        <ele>122.162946</ele>
        <time>2021-11-17T10:34:05.178Z</time>
      </trkpt>
      <trkpt lat="40.39436" lon="29.41693">
        <ele>121.796557</ele>
        <time>2021-11-17T10:34:09.276Z</time>
      </trkpt>
      <trkpt lat="40.39455" lon="29.41679">
        <ele>121.447152</ele>
        <time>2021-11-17T10:34:14.174Z</time>
      </trkpt>
      <trkpt lat="40.39472" lon="29.41652">
        <ele>121.004521</ele>
        <time>2021-11-17T10:34:21.564Z</time>
      </trkpt>
      <trkpt lat="40.39471" lon="29.41648">
        <ele>120.958325</ele>
        <time>2021-11-17T10:34:22.461Z</time>
      </trkpt>
      <trkpt lat="40.39482" lon="29.41637">
        <ele>120.934782</ele>
        <time>2021-11-17T10:34:26.391Z</time>
      </trkpt>
      <trkpt lat="40.39497" lon="29.41625">
        <ele>121.415804</ele>
        <time>2021-11-17T10:34:31.946Z</time>
      </trkpt>
      <trkpt lat="40.39534" lon="29.41603">
        <ele>122.572618</ele>
        <time>2021-11-17T10:34:44.874Z</time>
      </trkpt>
      <trkpt lat="40.39553" lon="29.41592">
        <ele>123.140317</ele>
        <time>2021-11-17T10:34:51.400Z</time>
      </trkpt>
      <trkpt lat="40.39538" lon="29.41537">
        <ele>124.398402</ele>
        <time>2021-11-17T10:35:09.415Z</time>
      </trkpt>
      <trkpt lat="40.39613" lon="29.41464">
        <ele>126.645792</ele>
        <time>2021-11-17T10:35:43.851Z</time>
      </trkpt>
      <trkpt lat="40.3958" lon="29.41436">
        <ele>127.409246</ele>
        <time>2021-11-17T10:35:58.430Z</time>
      </trkpt>
      <trkpt lat="40.39613" lon="29.41393">
        <ele>128.304195</ele>
        <time>2021-11-17T10:36:11.353Z</time>
      </trkpt>
      <trkpt lat="40.39647" lon="29.41354">
        <ele>129.175218</ele>
        <time>2021-11-17T10:36:22.617Z</time>
      </trkpt>
      <trkpt lat="40.39775" lon="29.41188">
        <ele>128.406304</ele>
        <time>2021-11-17T10:36:58.768Z</time>
      </trkpt>
      <trkpt lat="40.39788" lon="29.41166">
        <ele>128.233319</ele>
        <time>2021-11-17T10:37:02.979Z</time>
      </trkpt>
      <trkpt lat="40.3981" lon="29.41101">
        <ele>127.710703</ele>
        <time>2021-11-17T10:37:13.747Z</time>
      </trkpt>
      <trkpt lat="40.3983" lon="29.41003">
        <ele>126.967593</ele>
        <time>2021-11-17T10:37:28.814Z</time>
      </trkpt>
      <trkpt lat="40.39841" lon="29.40969">
        <ele>126.689365</ele>
        <time>2021-11-17T10:37:34.320Z</time>
      </trkpt>
      <trkpt lat="40.39914" lon="29.4084">
        <ele>124.342093</ele>
        <time>2021-11-17T10:37:56.120Z</time>
      </trkpt>
      <trkpt lat="40.3995" lon="29.40796">
        <ele>123.378367</ele>
        <time>2021-11-17T10:38:04.393Z</time>
      </trkpt>
      <trkpt lat="40.4005" lon="29.40711">
        <ele>121.029984</ele>
        <time>2021-11-17T10:38:24.832Z</time>
      </trkpt>
      <trkpt lat="40.40091" lon="29.40686">
        <ele>120.142007</ele>
        <time>2021-11-17T10:38:32.937Z</time>
      </trkpt>
      <trkpt lat="40.40131" lon="29.4067">
        <ele>119.518199</ele>
        <time>2021-11-17T10:38:40.835Z</time>
      </trkpt>
      <trkpt lat="40.40174" lon="29.40641">
        <ele>119.379145</ele>
        <time>2021-11-17T10:38:50.353Z</time>
      </trkpt>
      <trkpt lat="40.40206" lon="29.4061">
        <ele>119.260894</ele>
        <time>2021-11-17T10:38:59.029Z</time>
      </trkpt>
      <trkpt lat="40.40244" lon="29.40562">
        <ele>119.107228</ele>
        <time>2021-11-17T10:39:11.038Z</time>
      </trkpt>
      <trkpt lat="40.40264" lon="29.4051">
        <ele>119.07877</ele>
        <time>2021-11-17T10:39:21.673Z</time>
      </trkpt>
      <trkpt lat="40.40341" lon="29.40257">
        <ele>119.590313</ele>
        <time>2021-11-17T10:40:10.563Z</time>
      </trkpt>
      <trkpt lat="40.40369" lon="29.40165">
        <ele>119.651681</ele>
        <time>2021-11-17T10:40:27.267Z</time>
      </trkpt>
      <trkpt lat="40.4038" lon="29.40119">
        <ele>119.68123</ele>
        <time>2021-11-17T10:40:35.264Z</time>
      </trkpt>
      <trkpt lat="40.40389" lon="29.40001">
        <ele>119.776547</ele>
        <time>2021-11-17T10:40:55.188Z</time>
      </trkpt>
      <trkpt lat="40.40397" lon="29.39964">
        <ele>119.80984</ele>
        <time>2021-11-17T10:41:01.842Z</time>
      </trkpt>
      <trkpt lat="40.40518" lon="29.39509">
        <ele>120.749519</ele>
        <time>2021-11-17T10:42:27.157Z</time>
      </trkpt>
      <trkpt lat="40.40576" lon="29.3932">
        <ele>121.767292</ele>
        <time>2021-11-17T10:43:05.294Z</time>
      </trkpt>
      <trkpt lat="40.40585" lon="29.39276">
        <ele>122.083458</ele>
        <time>2021-11-17T10:43:14.316Z</time>
      </trkpt>
      <trkpt lat="40.40591" lon="29.39202">
        <ele>122.602199</ele>
        <time>2021-11-17T10:43:29.564Z</time>
      </trkpt>
      <trkpt lat="40.40604" lon="29.38909">
        <ele>126.221607</ele>
        <time>2021-11-17T10:44:33.695Z</time>
      </trkpt>
      <trkpt lat="40.40601" lon="29.3881">
        <ele>128.410647</ele>
        <time>2021-11-17T10:44:58.589Z</time>
      </trkpt>
      <trkpt lat="40.40604" lon="29.38759">
        <ele>129.555175</ele>
        <time>2021-11-17T10:45:12.944Z</time>
      </trkpt>
      <trkpt lat="40.40642" lon="29.38598">
        <ele>133.958034</ele>
        <time>2021-11-17T10:46:07.330Z</time>
      </trkpt>
      <trkpt lat="40.40642" lon="29.38487">
        <ele>136.926978</ele>
        <time>2021-11-17T10:46:37.053Z</time>
      </trkpt>
      <trkpt lat="40.40623" lon="29.38431">
        <ele>136.549863</ele>
        <time>2021-11-17T10:46:49.907Z</time>
      </trkpt>
      <trkpt lat="40.40625" lon="29.38412">
        <ele>136.432034</ele>
        <time>2021-11-17T10:46:52.966Z</time>
      </trkpt>
      <trkpt lat="40.40635" lon="29.38402">
        <ele>136.330245</ele>
        <time>2021-11-17T10:46:55.585Z</time>
      </trkpt>
      <trkpt lat="40.40705" lon="29.38427">
        <ele>135.741606</ele>
        <time>2021-11-17T10:47:09.608Z</time>
      </trkpt>
      <trkpt lat="40.40726" lon="29.38428">
        <ele>135.572029</ele>
        <time>2021-11-17T10:47:13.371Z</time>
      </trkpt>
      <trkpt lat="40.40744" lon="29.3842">
        <ele>135.221405</ele>
        <time>2021-11-17T10:47:16.575Z</time>
      </trkpt>
      <trkpt lat="40.40757" lon="29.38397">
        <ele>134.509927</ele>
        <time>2021-11-17T10:47:20.100Z</time>
      </trkpt>
      <trkpt lat="40.40785" lon="29.3831">
        <ele>132.165158</ele>
        <time>2021-11-17T10:47:32.009Z</time>
      </trkpt>
      <trkpt lat="40.40824" lon="29.38225">
        <ele>129.706849</ele>
        <time>2021-11-17T10:47:45.242Z</time>
      </trkpt>
      <trkpt lat="40.4084" lon="29.38176">
        <ele>128.51389</ele>
        <time>2021-11-17T10:47:52.292Z</time>
      </trkpt>
      <trkpt lat="40.40852" lon="29.38154">
        <ele>127.894883</ele>
        <time>2021-11-17T10:47:55.944Z</time>
      </trkpt>
      <trkpt lat="40.40884" lon="29.38117">
        <ele>126.65802</ele>
        <time>2021-11-17T10:48:03.170Z</time>
      </trkpt>
      <trkpt lat="40.4091" lon="29.38066">
        <ele>125.291963</ele>
        <time>2021-11-17T10:48:11.101Z</time>
      </trkpt>
      <trkpt lat="40.40936" lon="29.37997">
        <ele>123.83954</ele>
        <time>2021-11-17T10:48:21.407Z</time>
      </trkpt>
      <trkpt lat="40.40964" lon="29.37914">
        <ele>122.511917</ele>
        <time>2021-11-17T10:48:34.041Z</time>
      </trkpt>
      <trkpt lat="40.40982" lon="29.37803">
        <ele>120.849</ele>
        <time>2021-11-17T10:48:50.103Z</time>
      </trkpt>
      <trkpt lat="40.40986" lon="29.37771">
        <ele>120.296386</ele>
        <time>2021-11-17T10:48:54.728Z</time>
      </trkpt>
      <trkpt lat="40.40999" lon="29.37737">
        <ele>119.656802</ele>
        <time>2021-11-17T10:49:00.037Z</time>
      </trkpt>
      <trkpt lat="40.4104" lon="29.37663">
        <ele>118.140555</ele>
        <time>2021-11-17T10:49:12.362Z</time>
      </trkpt>
      <trkpt lat="40.4105" lon="29.37629">
        <ele>117.525113</ele>
        <time>2021-11-17T10:49:17.107Z</time>
      </trkpt>
      <trkpt lat="40.41053" lon="29.3759">
        <ele>116.783814</ele>
        <time>2021-11-17T10:49:21.942Z</time>
      </trkpt>
      <trkpt lat="40.41055" lon="29.37551">
        <ele>115.507108</ele>
        <time>2021-11-17T10:49:26.626Z</time>
      </trkpt>
      <trkpt lat="40.41059" lon="29.37517">
        <ele>114.341638</ele>
        <time>2021-11-17T10:49:30.780Z</time>
      </trkpt>
      <trkpt lat="40.41117" lon="29.37376">
        <ele>109.026031</ele>
        <time>2021-11-17T10:49:49.189Z</time>
      </trkpt>
      <trkpt lat="40.41137" lon="29.37328">
        <ele>107.385291</ele>
        <time>2021-11-17T10:49:55.616Z</time>
      </trkpt>
      <trkpt lat="40.41206" lon="29.37209">
        <ele>102.919399</ele>
        <time>2021-11-17T10:50:13.383Z</time>
      </trkpt>
      <trkpt lat="40.41398" lon="29.36819">
        <ele>94.927761</ele>
        <time>2021-11-17T10:51:14.500Z</time>
      </trkpt>
      <trkpt lat="40.41411" lon="29.36754">
        <ele>94.338703</ele>
        <time>2021-11-17T10:51:24.486Z</time>
      </trkpt>
      <trkpt lat="40.41405" lon="29.36432">
        <ele>94.445362</ele>
        <time>2021-11-17T10:52:19.530Z</time>
      </trkpt>
      <trkpt lat="40.41404" lon="29.36377">
        <ele>94.645653</ele>
        <time>2021-11-17T10:52:30.070Z</time>
      </trkpt>
      <trkpt lat="40.41408" lon="29.36341">
        <ele>94.776074</ele>
        <time>2021-11-17T10:52:36.868Z</time>
      </trkpt>
      <trkpt lat="40.41386" lon="29.36338">
        <ele>94.879942</ele>
        <time>2021-11-17T10:52:42.857Z</time>
      </trkpt>
      <trkpt lat="40.41399" lon="29.36266">
        <ele>95.384462</ele>
        <time>2021-11-17T10:52:58.431Z</time>
      </trkpt>
      <trkpt lat="40.41419" lon="29.36172">
        <ele>96.048296</ele>
        <time>2021-11-17T10:53:20.167Z</time>
      </trkpt>
      <trkpt lat="40.41436" lon="29.36117">
        <ele>96.456783</ele>
        <time>2021-11-17T10:53:31.576Z</time>
      </trkpt>
      <trkpt lat="40.41467" lon="29.36019">
        <ele>95.799516</ele>
        <time>2021-11-17T10:53:48.650Z</time>
      </trkpt>
      <trkpt lat="40.41529" lon="29.35961">
        <ele>95.094292</ele>
        <time>2021-11-17T10:54:03.762Z</time>
      </trkpt>
      <trkpt lat="40.41542" lon="29.35974">
        <ele>94.942642</ele>
        <time>2021-11-17T10:54:06.744Z</time>
      </trkpt>
      <trkpt lat="40.41631" lon="29.35758">
        <ele>91.878281</ele>
        <time>2021-11-17T10:54:40.190Z</time>
      </trkpt>
      <trkpt lat="40.41664" lon="29.35668">
        <ele>90.700516</ele>
        <time>2021-11-17T10:54:54.207Z</time>
      </trkpt>
      <trkpt lat="40.41673" lon="29.35621">
        <ele>90.131129</ele>
        <time>2021-11-17T10:55:01.000Z</time>
      </trkpt>
      <trkpt lat="40.41681" lon="29.3562">
        <ele>89.999886</ele>
        <time>2021-11-17T10:55:02.521Z</time>
      </trkpt>
      <trkpt lat="40.41703" lon="29.35624">
        <ele>89.667535</ele>
        <time>2021-11-17T10:55:06.826Z</time>
      </trkpt>
      <trkpt lat="40.41718" lon="29.35633">
        <ele>89.403424</ele>
        <time>2021-11-17T10:55:09.986Z</time>
      </trkpt>
      <trkpt lat="40.41733" lon="29.35638">
        <ele>89.171211</ele>
        <time>2021-11-17T10:55:13.046Z</time>
      </trkpt>
      <trkpt lat="40.41755" lon="29.35621">
        <ele>88.819115</ele>
        <time>2021-11-17T10:55:17.819Z</time>
      </trkpt>
      <trkpt lat="40.41817" lon="29.35527">
        <ele>87.587805</ele>
        <time>2021-11-17T10:55:35.834Z</time>
      </trkpt>
      <trkpt lat="40.4194" lon="29.35368">
        <ele>86.098973</ele>
        <time>2021-11-17T10:56:11.696Z</time>
      </trkpt>
      <trkpt lat="40.42081" lon="29.35197">
        <ele>85.399506</ele>
        <time>2021-11-17T10:56:53.756Z</time>
      </trkpt>
      <trkpt lat="40.42274" lon="29.34999">
        <ele>85.159005</ele>
        <time>2021-11-17T10:57:49.737Z</time>
      </trkpt>
      <trkpt lat="40.42409" lon="29.34871">
        <ele>85.355078</ele>
        <time>2021-11-17T10:58:29.523Z</time>
      </trkpt>
      <trkpt lat="40.42542" lon="29.34754">
        <ele>85.321466</ele>
        <time>2021-11-17T10:59:06.722Z</time>
      </trkpt>
      <trkpt lat="40.42784" lon="29.34567">
        <ele>84.832757</ele>
        <time>2021-11-17T11:00:09.602Z</time>
      </trkpt>
      <trkpt lat="40.42976" lon="29.34433">
        <ele>84.707361</ele>
        <time>2021-11-17T11:00:58.568Z</time>
      </trkpt>
      <trkpt lat="40.43088" lon="29.34353">
        <ele>85.03397</ele>
        <time>2021-11-17T11:01:30.129Z</time>
      </trkpt>
      <trkpt lat="40.43212" lon="29.34272">
        <ele>85.726226</ele>
        <time>2021-11-17T11:02:05.956Z</time>
      </trkpt>
      <trkpt lat="40.43448" lon="29.3415">
        <ele>85.826689</ele>
        <time>2021-11-17T11:03:05.347Z</time>
      </trkpt>
      <trkpt lat="40.43715" lon="29.34027">
        <ele>84.722477</ele>
        <time>2021-11-17T11:04:06.019Z</time>
      </trkpt>
      <trkpt lat="40.44071" lon="29.33888">
        <ele>84.561953</ele>
        <time>2021-11-17T11:05:31.014Z</time>
      </trkpt>
      <trkpt lat="40.44218" lon="29.3384">
        <ele>85.17376</ele>
        <time>2021-11-17T11:06:09.049Z</time>
      </trkpt>
      <trkpt lat="40.44313" lon="29.33811">
        <ele>85.627108</ele>
        <time>2021-11-17T11:06:34.483Z</time>
      </trkpt>
      <trkpt lat="40.44331" lon="29.33806">
        <ele>85.718101</ele>
        <time>2021-11-17T11:06:39.307Z</time>
      </trkpt>
      <trkpt lat="40.44381" lon="29.33793">
        <ele>85.956566</ele>
        <time>2021-11-17T11:06:52.116Z</time>
      </trkpt>
      <trkpt lat="40.44392" lon="29.33782">
        <ele>86.024149</ele>
        <time>2021-11-17T11:06:55.132Z</time>
      </trkpt>
      <trkpt lat="40.44408" lon="29.33763">
        <ele>85.995236</ele>
        <time>2021-11-17T11:07:00.574Z</time>
      </trkpt>
      <trkpt lat="40.44451" lon="29.33625">
        <ele>85.522074</ele>
        <time>2021-11-17T11:07:25.246Z</time>
      </trkpt>
      <trkpt lat="40.44454" lon="29.33617">
        <ele>85.49251</ele>
        <time>2021-11-17T11:07:26.520Z</time>
      </trkpt>
      <trkpt lat="40.44488" lon="29.33537">
        <ele>85.160737</ele>
        <time>2021-11-17T11:07:40.942Z</time>
      </trkpt>
      <trkpt lat="40.44547" lon="29.33446">
        <ele>84.631114</ele>
        <time>2021-11-17T11:08:00.066Z</time>
      </trkpt>
      <trkpt lat="40.44584" lon="29.33399">
        <ele>84.333209</ele>
        <time>2021-11-17T11:08:11.280Z</time>
      </trkpt>
      <trkpt lat="40.44652" lon="29.33346">
        <ele>84.062379</ele>
        <time>2021-11-17T11:08:28.653Z</time>
      </trkpt>
      <trkpt lat="40.44709" lon="29.33313">
        <ele>83.877178</ele>
        <time>2021-11-17T11:08:42.383Z</time>
      </trkpt>
      <trkpt lat="40.44829" lon="29.33285">
        <ele>83.7636</ele>
        <time>2021-11-17T11:09:09.603Z</time>
      </trkpt>
      <trkpt lat="40.45584" lon="29.33257">
        <ele>84.271226</ele>
        <time>2021-11-17T11:12:07.247Z</time>
      </trkpt>
      <trkpt lat="40.45832" lon="29.33243">
        <ele>84.875809</ele>
        <time>2021-11-17T11:13:07.236Z</time>
      </trkpt>
      <trkpt lat="40.45903" lon="29.33231">
        <ele>85.223535</ele>
        <time>2021-11-17T11:13:25.195Z</time>
      </trkpt>
      <trkpt lat="40.45965" lon="29.33209">
        <ele>85.54496</ele>
        <time>2021-11-17T11:13:41.423Z</time>
      </trkpt>
      <trkpt lat="40.45978" lon="29.33203">
        <ele>85.613908</ele>
        <time>2021-11-17T11:13:45.044Z</time>
      </trkpt>
      <trkpt lat="40.46465" lon="29.32998">
        <ele>88.279747</ele>
        <time>2021-11-17T11:15:54.400Z</time>
      </trkpt>
      <trkpt lat="40.46507" lon="29.3298">
        <ele>88.477199</ele>
        <time>2021-11-17T11:16:05.317Z</time>
      </trkpt>
      <trkpt lat="40.46904" lon="29.32998">
        <ele>89.737527</ele>
        <time>2021-11-17T11:17:42.219Z</time>
      </trkpt>
      <trkpt lat="40.47022" lon="29.33009">
        <ele>90.302739</ele>
        <time>2021-11-17T11:18:11.145Z</time>
      </trkpt>
      <trkpt lat="40.4704" lon="29.33015">
        <ele>90.392352</ele>
        <time>2021-11-17T11:18:16.276Z</time>
      </trkpt>
      <trkpt lat="40.47066" lon="29.33025">
        <ele>90.526907</ele>
        <time>2021-11-17T11:18:23.369Z</time>
      </trkpt>
      <trkpt lat="40.47076" lon="29.33027">
        <ele>90.594319</ele>
        <time>2021-11-17T11:18:26.212Z</time>
      </trkpt>
      <trkpt lat="40.47084" lon="29.33025">
        <ele>90.641493</ele>
        <time>2021-11-17T11:18:28.025Z</time>
      </trkpt>
      <trkpt lat="40.47086" lon="29.33014">
        <ele>90.696965</ele>
        <time>2021-11-17T11:18:30.089Z</time>
      </trkpt>
      <trkpt lat="40.4709" lon="29.32998">
        <ele>90.78079</ele>
        <time>2021-11-17T11:18:33.715Z</time>
      </trkpt>
      <trkpt lat="40.47105" lon="29.32922">
        <ele>91.172399</ele>
        <time>2021-11-17T11:18:48.880Z</time>
      </trkpt>
      <trkpt lat="40.47123" lon="29.32843">
        <ele>91.580354</ele>
        <time>2021-11-17T11:19:04.736Z</time>
      </trkpt>
      <trkpt lat="40.47144" lon="29.3277">
        <ele>91.997879</ele>
        <time>2021-11-17T11:19:23.793Z</time>
      </trkpt>
      <trkpt lat="40.47182" lon="29.32661">
        <ele>92.657294</ele>
        <time>2021-11-17T11:19:53.700Z</time>
      </trkpt>
      <trkpt lat="40.47206" lon="29.32615">
        <ele>92.963364</ele>
        <time>2021-11-17T11:20:07.015Z</time>
      </trkpt>
      <trkpt lat="40.47218" lon="29.32595">
        <ele>93.084927</ele>
        <time>2021-11-17T11:20:13.190Z</time>
      </trkpt>
      <trkpt lat="40.47239" lon="29.3256">
        <ele>93.294089</ele>
        <time>2021-11-17T11:20:24.019Z</time>
      </trkpt>
      <trkpt lat="40.47438" lon="29.32221">
        <ele>95.373357</ele>
        <time>2021-11-17T11:22:07.202Z</time>
      </trkpt>
      <trkpt lat="40.47557" lon="29.3202">
        <ele>96.860252</ele>
        <time>2021-11-17T11:23:10.873Z</time>
      </trkpt>
      <trkpt lat="40.47563" lon="29.3201">
        <ele>96.910045</ele>
        <time>2021-11-17T11:23:13.242Z</time>
      </trkpt>
      <trkpt lat="40.47577" lon="29.31987">
        <ele>97.024989</ele>
        <time>2021-11-17T11:23:18.853Z</time>
      </trkpt>
      <trkpt lat="40.47726" lon="29.32096">
        <ele>97.889623</ele>
        <time>2021-11-17T11:24:00.615Z</time>
      </trkpt>
      <trkpt lat="40.47734" lon="29.32097">
        <ele>97.927533</ele>
        <time>2021-11-17T11:24:02.577Z</time>
      </trkpt>
      <trkpt lat="40.47742" lon="29.32076">
        <ele>98.017872</ele>
        <time>2021-11-17T11:24:07.048Z</time>
      </trkpt>
      <trkpt lat="40.47763" lon="29.32024">
        <ele>98.247171</ele>
        <time>2021-11-17T11:24:18.535Z</time>
      </trkpt>
      <trkpt lat="40.47772" lon="29.3201">
        <ele>98.316776</ele>
        <time>2021-11-17T11:24:22.181Z</time>
      </trkpt>
      <trkpt lat="40.47787" lon="29.32001">
        <ele>98.400582</ele>
        <time>2021-11-17T11:24:26.313Z</time>
      </trkpt>
      <trkpt lat="40.47804" lon="29.31999">
        <ele>98.48848</ele>
        <time>2021-11-17T11:24:30.809Z</time>
      </trkpt>
      <trkpt lat="40.47895" lon="29.32008">
        <ele>98.863046</ele>
        <time>2021-11-17T11:24:54.059Z</time>
      </trkpt>
      <trkpt lat="40.48035" lon="29.32053">
        <ele>99.241545</ele>
        <time>2021-11-17T11:25:28.750Z</time>
      </trkpt>
      <trkpt lat="40.48115" lon="29.32075">
        <ele>99.229353</ele>
        <time>2021-11-17T11:25:47.402Z</time>
      </trkpt>
      <trkpt lat="40.48183" lon="29.32078">
        <ele>99.210279</ele>
        <time>2021-11-17T11:26:02.972Z</time>
      </trkpt>
      <trkpt lat="40.48241" lon="29.32092">
        <ele>99.172163</ele>
        <time>2021-11-17T11:26:16.136Z</time>
      </trkpt>
      <trkpt lat="40.48304" lon="29.32092">
        <ele>99.130497</ele>
        <time>2021-11-17T11:26:30.624Z</time>
      </trkpt>
      <trkpt lat="40.48401" lon="29.32118">
        <ele>99.18793</ele>
        <time>2021-11-17T11:26:53.416Z</time>
      </trkpt>
      <trkpt lat="40.48472" lon="29.32144">
        <ele>99.296282</ele>
        <time>2021-11-17T11:27:11.187Z</time>
      </trkpt>
      <trkpt lat="40.48504" lon="29.32063">
        <ele>99.485601</ele>
        <time>2021-11-17T11:27:28.141Z</time>
      </trkpt>
      <trkpt lat="40.48526" lon="29.32007">
        <ele>99.751675</ele>
        <time>2021-11-17T11:27:40.111Z</time>
      </trkpt>
      <trkpt lat="40.48559" lon="29.31973">
        <ele>99.98385</ele>
        <time>2021-11-17T11:27:50.719Z</time>
      </trkpt>
      <trkpt lat="40.48602" lon="29.31946">
        <ele>100.249467</ele>
        <time>2021-11-17T11:28:03.011Z</time>
      </trkpt>
      <trkpt lat="40.48645" lon="29.31899">
        <ele>100.648157</ele>
        <time>2021-11-17T11:28:17.487Z</time>
      </trkpt>
      <trkpt lat="40.48737" lon="29.31756">
        <ele>101.804865</ele>
        <time>2021-11-17T11:28:55.047Z</time>
      </trkpt>
      <trkpt lat="40.48823" lon="29.31674">
        <ele>103.146253</ele>
        <time>2021-11-17T11:29:25.044Z</time>
      </trkpt>
      <trkpt lat="40.48866" lon="29.31648">
        <ele>103.740793</ele>
        <time>2021-11-17T11:29:38.445Z</time>
      </trkpt>
      <trkpt lat="40.48866" lon="29.31644">
        <ele>103.778892</ele>
        <time>2021-11-17T11:29:39.610Z</time>
      </trkpt>
      <trkpt lat="40.4898" lon="29.31375">
        <ele>106.592601</ele>
        <time>2021-11-17T11:30:43.940Z</time>
      </trkpt>
      <trkpt lat="40.48991" lon="29.31384">
        <ele>106.667318</ele>
        <time>2021-11-17T11:30:47.307Z</time>
      </trkpt>
      <trkpt lat="40.4901" lon="29.31392">
        <ele>106.776617</ele>
        <time>2021-11-17T11:30:52.539Z</time>
      </trkpt>
      <trkpt lat="40.49022" lon="29.31392">
        <ele>106.840074</ele>
        <time>2021-11-17T11:30:55.331Z</time>
      </trkpt>
      <trkpt lat="40.49046" lon="29.31393">
        <ele>106.976399</ele>
        <time>2021-11-17T11:31:01.614Z</time>
      </trkpt>
      <trkpt lat="40.49062" lon="29.31393">
        <ele>107.067106</ele>
        <time>2021-11-17T11:31:05.498Z</time>
      </trkpt>
      <trkpt lat="40.49084" lon="29.31403">
        <ele>107.193598</ele>
        <time>2021-11-17T11:31:11.176Z</time>
      </trkpt>
      <trkpt lat="40.49089" lon="29.31405">
        <ele>107.221353</ele>
        <time>2021-11-17T11:31:12.304Z</time>
      </trkpt>
      <trkpt lat="40.49113" lon="29.31423">
        <ele>107.377076</ele>
        <time>2021-11-17T11:31:18.981Z</time>
      </trkpt>
      <trkpt lat="40.49176" lon="29.31461">
        <ele>107.277754</ele>
        <time>2021-11-17T11:31:35.068Z</time>
      </trkpt>
      <trkpt lat="40.49217" lon="29.31485">
        <ele>107.155944</ele>
        <time>2021-11-17T11:31:45.079Z</time>
      </trkpt>
      <trkpt lat="40.49237" lon="29.3149">
        <ele>107.099349</ele>
        <time>2021-11-17T11:31:49.550Z</time>
      </trkpt>
      <trkpt lat="40.49275" lon="29.31478">
        <ele>106.994047</ele>
        <time>2021-11-17T11:31:57.701Z</time>
      </trkpt>
      <trkpt lat="40.49281" lon="29.31446">
        <ele>106.91547</ele>
        <time>2021-11-17T11:32:03.070Z</time>
      </trkpt>
      <trkpt lat="40.49336" lon="29.31484">
        <ele>106.672349</ele>
        <time>2021-11-17T11:32:15.336Z</time>
      </trkpt>
      <trkpt lat="40.49418" lon="29.31541">
        <ele>106.305967</ele>
        <time>2021-11-17T11:32:34.297Z</time>
      </trkpt>
      <trkpt lat="40.49454" lon="29.31546">
        <ele>106.545078</ele>
        <time>2021-11-17T11:32:42.615Z</time>
      </trkpt>
      <trkpt lat="40.49463" lon="29.31548">
        <ele>106.689494</ele>
        <time>2021-11-17T11:32:44.852Z</time>
      </trkpt>
      <trkpt lat="40.4949" lon="29.31555">
        <ele>107.140855</ele>
        <time>2021-11-17T11:32:52.455Z</time>
      </trkpt>
      <trkpt lat="40.49511" lon="29.31558">
        <ele>107.490738</ele>
        <time>2021-11-17T11:32:59.279Z</time>
      </trkpt>
      <trkpt lat="40.49527" lon="29.3156">
        <ele>107.743786</ele>
        <time>2021-11-17T11:33:03.779Z</time>
      </trkpt>
      <trkpt lat="40.49566" lon="29.3155">
        <ele>108.396862</ele>
        <time>2021-11-17T11:33:16.257Z</time>
      </trkpt>
      <trkpt lat="40.49576" lon="29.31499">
        <ele>109.052375</ele>
        <time>2021-11-17T11:33:29.438Z</time>
      </trkpt>
      <trkpt lat="40.49586" lon="29.31452">
        <ele>109.530532</ele>
        <time>2021-11-17T11:33:41.286Z</time>
      </trkpt>
      <trkpt lat="40.49593" lon="29.31443">
        <ele>109.643192</ele>
        <time>2021-11-17T11:33:44.585Z</time>
      </trkpt>
      <trkpt lat="40.49603" lon="29.31424">
        <ele>109.859033</ele>
        <time>2021-11-17T11:33:49.775Z</time>
      </trkpt>
      <trkpt lat="40.49631" lon="29.31344">
        <ele>110.658481</ele>
        <time>2021-11-17T11:34:09.436Z</time>
      </trkpt>
      <trkpt lat="40.49642" lon="29.31371">
        <ele>110.932066</ele>
        <time>2021-11-17T11:34:15.407Z</time>
      </trkpt>
      <trkpt lat="40.49669" lon="29.3134">
        <ele>111.296153</ele>
        <time>2021-11-17T11:34:23.649Z</time>
      </trkpt>
      <trkpt lat="40.49706" lon="29.31278">
        <ele>110.710254</ele>
        <time>2021-11-17T11:34:35.595Z</time>
      </trkpt>
      <trkpt lat="40.49736" lon="29.31303">
        <ele>110.361847</ele>
        <time>2021-11-17T11:34:42.161Z</time>
      </trkpt>
      <trkpt lat="40.49749" lon="29.31313">
        <ele>110.21667</ele>
        <time>2021-11-17T11:34:44.807Z</time>
      </trkpt>
      <trkpt lat="40.49788" lon="29.3135">
        <ele>109.742477</ele>
        <time>2021-11-17T11:34:53.724Z</time>
      </trkpt>
      <trkpt lat="40.49813" lon="29.31375">
        <ele>109.672355</ele>
        <time>2021-11-17T11:34:59.744Z</time>
      </trkpt>
      <trkpt lat="40.49843" lon="29.31412">
        <ele>110.040259</ele>
        <time>2021-11-17T11:35:08.617Z</time>
      </trkpt>
      <trkpt lat="40.49861" lon="29.31432">
        <ele>110.248632</ele>
        <time>2021-11-17T11:35:13.998Z</time>
      </trkpt>
      <trkpt lat="40.49882" lon="29.3146">
        <ele>110.515767</ele>
        <time>2021-11-17T11:35:21.834Z</time>
      </trkpt>
      <trkpt lat="40.49915" lon="29.31498">
        <ele>110.901973</ele>
        <time>2021-11-17T11:35:34.255Z</time>
      </trkpt>
      <trkpt lat="40.4993" lon="29.31519">
        <ele>111.101786</ele>
        <time>2021-11-17T11:35:41.758Z</time>
      </trkpt>
      <trkpt lat="40.49943" lon="29.31541">
        <ele>111.649349</ele>
        <time>2021-11-17T11:35:48.402Z</time>
      </trkpt>
      <trkpt lat="40.49948" lon="29.31562">
        <ele>112.19589</ele>
        <time>2021-11-17T11:35:54.073Z</time>
      </trkpt>
      <trkpt lat="40.49951" lon="29.31573">
        <ele>112.513915</ele>
        <time>2021-11-17T11:35:56.966Z</time>
      </trkpt>
      <trkpt lat="40.49957" lon="29.31581">
        <ele>112.805391</ele>
        <time>2021-11-17T11:35:59.859Z</time>
      </trkpt>
      <trkpt lat="40.49963" lon="29.31584">
        <ele>113.020094</ele>
        <time>2021-11-17T11:36:02.485Z</time>
      </trkpt>
      <trkpt lat="40.49968" lon="29.31586">
        <ele>113.214658</ele>
        <time>2021-11-17T11:36:05.213Z</time>
      </trkpt>
      <trkpt lat="40.49984" lon="29.31591">
        <ele>113.748972</ele>
        <time>2021-11-17T11:36:10.474Z</time>
      </trkpt>
      <trkpt lat="40.50002" lon="29.31597">
        <ele>114.381212</ele>
        <time>2021-11-17T11:36:18.178Z</time>
      </trkpt>
      <trkpt lat="40.50059" lon="29.31621">
        <ele>116.414451</ele>
        <time>2021-11-17T11:36:40.705Z</time>
      </trkpt>
      <trkpt lat="40.50097" lon="29.31629">
        <ele>117.60146</ele>
        <time>2021-11-17T11:36:54.939Z</time>
      </trkpt>
      <trkpt lat="40.50109" lon="29.3163">
        <ele>117.920519</ele>
        <time>2021-11-17T11:37:00.318Z</time>
      </trkpt>
      <trkpt lat="40.50142" lon="29.31633">
        <ele>118.785651</ele>
        <time>2021-11-17T11:37:11.740Z</time>
      </trkpt>
      <trkpt lat="40.50159" lon="29.31634">
        <ele>119.249928</ele>
        <time>2021-11-17T11:37:17.682Z</time>
      </trkpt>
      <trkpt lat="40.50184" lon="29.31634">
        <ele>119.907992</ele>
        <time>2021-11-17T11:37:26.228Z</time>
      </trkpt>
      <trkpt lat="40.50222" lon="29.31633">
        <ele>120.913446</ele>
        <time>2021-11-17T11:37:38.504Z</time>
      </trkpt>
      <trkpt lat="40.50377" lon="29.3163">
        <ele>123.671373</ele>
        <time>2021-11-17T11:38:24.902Z</time>
      </trkpt>
      <trkpt lat="40.50422" lon="29.31633">
        <ele>124.333707</ele>
        <time>2021-11-17T11:38:37.243Z</time>
      </trkpt>
      <trkpt lat="40.50443" lon="29.3163">
        <ele>124.641432</ele>
        <time>2021-11-17T11:38:43.149Z</time>
      </trkpt>
      <trkpt lat="40.50454" lon="29.3161">
        <ele>124.796081</ele>
        <time>2021-11-17T11:38:47.990Z</time>
      </trkpt>
      <trkpt lat="40.50526" lon="29.3161">
        <ele>125.393569</ele>
        <time>2021-11-17T11:39:06.210Z</time>
      </trkpt>
      <trkpt lat="40.50744" lon="29.31611">
        <ele>127.867956</ele>
        <time>2021-11-17T11:40:01.993Z</time>
      </trkpt>
      <trkpt lat="40.5097" lon="29.31613">
        <ele>133.166793</ele>
        <time>2021-11-17T11:41:14.903Z</time>
      </trkpt>
      <trkpt lat="40.51236" lon="29.31614">
        <ele>142.961788</ele>
        <time>2021-11-17T11:42:52.321Z</time>
      </trkpt>
      <trkpt lat="40.51444" lon="29.31613">
        <ele>152.033897</ele>
        <time>2021-11-17T11:44:17.700Z</time>
      </trkpt>
      <trkpt lat="40.51756" lon="29.31616">
        <ele>165.34014</ele>
        <time>2021-11-17T11:46:20.204Z</time>
      </trkpt>
      <trkpt lat="40.51856" lon="29.31605">
        <ele>169.387501</ele>
        <time>2021-11-17T11:46:58.699Z</time>
      </trkpt>
      <trkpt lat="40.51897" lon="29.31598">
        <ele>170.923525</ele>
        <time>2021-11-17T11:47:14.237Z</time>
      </trkpt>
      <trkpt lat="40.52089" lon="29.31554">
        <ele>177.493359</ele>
        <time>2021-11-17T11:48:23.719Z</time>
      </trkpt>
      <trkpt lat="40.52173" lon="29.3153">
        <ele>180.148279</ele>
        <time>2021-11-17T11:48:52.885Z</time>
      </trkpt>
      <trkpt lat="40.52225" lon="29.31512">
        <ele>181.840519</ele>
        <time>2021-11-17T11:49:11.298Z</time>
      </trkpt>
      <trkpt lat="40.52425" lon="29.3143">
        <ele>188.632399</ele>
        <time>2021-11-17T11:50:24.485Z</time>
      </trkpt>
      <trkpt lat="40.52434" lon="29.31427">
        <ele>188.97863</ele>
        <time>2021-11-17T11:50:28.279Z</time>
      </trkpt>
      <trkpt lat="40.52505" lon="29.31397">
        <ele>191.712251</ele>
        <time>2021-11-17T11:50:55.626Z</time>
      </trkpt>
      <trkpt lat="40.52617" lon="29.31334">
        <ele>196.238974</ele>
        <time>2021-11-17T11:51:41.936Z</time>
      </trkpt>
      <trkpt lat="40.5298" lon="29.31037">
        <ele>212.610746</ele>
        <time>2021-11-17T11:54:20.709Z</time>
      </trkpt>
      <trkpt lat="40.53175" lon="29.30915">
        <ele>222.676043</ele>
        <time>2021-11-17T11:55:48.942Z</time>
      </trkpt>
      <trkpt lat="40.53199" lon="29.30899">
        <ele>224.056691</ele>
        <time>2021-11-17T11:56:01.349Z</time>
      </trkpt>
      <trkpt lat="40.53321" lon="29.30823">
        <ele>231.789839</ele>
        <time>2021-11-17T11:57:03.608Z</time>
      </trkpt>
      <trkpt lat="40.53399" lon="29.30773">
        <ele>236.361567</ele>
        <time>2021-11-17T11:57:42.475Z</time>
      </trkpt>
      <trkpt lat="40.53621" lon="29.30631">
        <ele>247.556341</ele>
        <time>2021-11-17T11:59:22.083Z</time>
      </trkpt>
      <trkpt lat="40.53626" lon="29.30631">
        <ele>247.784963</ele>
        <time>2021-11-17T11:59:24.131Z</time>
      </trkpt>
      <trkpt lat="40.53636" lon="29.30626">
        <ele>248.235618</ele>
        <time>2021-11-17T11:59:27.989Z</time>
      </trkpt>
      <trkpt lat="40.5364" lon="29.30621">
        <ele>248.464088</ele>
        <time>2021-11-17T11:59:30.025Z</time>
      </trkpt>
      <trkpt lat="40.53778" lon="29.30534">
        <ele>254.437296</ele>
        <time>2021-11-17T12:00:25.542Z</time>
      </trkpt>
      <trkpt lat="40.53894" lon="29.30472">
        <ele>259.481739</ele>
        <time>2021-11-17T12:01:14.301Z</time>
      </trkpt>
      <trkpt lat="40.54061" lon="29.30412">
        <ele>266.315877</ele>
        <time>2021-11-17T12:02:24.127Z</time>
      </trkpt>
      <trkpt lat="40.54154" lon="29.30396">
        <ele>268.935254</ele>
        <time>2021-11-17T12:02:55.379Z</time>
      </trkpt>
      <trkpt lat="40.54292" lon="29.30398">
        <ele>270.838586</ele>
        <time>2021-11-17T12:03:31.353Z</time>
      </trkpt>
      <trkpt lat="40.54425" lon="29.30418">
        <ele>272.304194</ele>
        <time>2021-11-17T12:04:03.267Z</time>
      </trkpt>
      <trkpt lat="40.54505" lon="29.30441">
        <ele>273.560022</ele>
        <time>2021-11-17T12:04:25.923Z</time>
      </trkpt>
      <trkpt lat="40.54816" lon="29.30567">
        <ele>282.922023</ele>
        <time>2021-11-17T12:06:17.691Z</time>
      </trkpt>
      <trkpt lat="40.54934" lon="29.30626">
        <ele>287.063094</ele>
        <time>2021-11-17T12:07:04.740Z</time>
      </trkpt>
      <trkpt lat="40.54976" lon="29.30652">
        <ele>288.546073</ele>
        <time>2021-11-17T12:07:21.721Z</time>
      </trkpt>
      <trkpt lat="40.55051" lon="29.30705">
        <ele>291.285619</ele>
        <time>2021-11-17T12:07:51.795Z</time>
      </trkpt>
      <trkpt lat="40.55155" lon="29.3078">
        <ele>291.989687</ele>
        <time>2021-11-17T12:08:23.249Z</time>
      </trkpt>
      <trkpt lat="40.55213" lon="29.3082">
        <ele>292.331329</ele>
        <time>2021-11-17T12:08:36.543Z</time>
      </trkpt>
      <trkpt lat="40.55224" lon="29.30828">
        <ele>292.307302</ele>
        <time>2021-11-17T12:08:38.473Z</time>
      </trkpt>
      <trkpt lat="40.55264" lon="29.30849">
        <ele>292.222141</ele>
        <time>2021-11-17T12:08:46.363Z</time>
      </trkpt>
      <trkpt lat="40.55336" lon="29.30867">
        <ele>292.077937</ele>
        <time>2021-11-17T12:08:59.706Z</time>
      </trkpt>
      <trkpt lat="40.55399" lon="29.30867">
        <ele>292.903563</ele>
        <time>2021-11-17T12:09:18.890Z</time>
      </trkpt>
      <trkpt lat="40.55462" lon="29.30853">
        <ele>296.823228</ele>
        <time>2021-11-17T12:09:45.294Z</time>
      </trkpt>
      <trkpt lat="40.55478" lon="29.30846">
        <ele>297.856024</ele>
        <time>2021-11-17T12:09:53.074Z</time>
      </trkpt>
      <trkpt lat="40.55498" lon="29.30839">
        <ele>299.119641</ele>
        <time>2021-11-17T12:10:03.683Z</time>
      </trkpt>
      <trkpt lat="40.55553" lon="29.30805">
        <ele>302.850041</ele>
        <time>2021-11-17T12:10:37.398Z</time>
      </trkpt>
      <trkpt lat="40.55604" lon="29.30765">
        <ele>307.932337</ele>
        <time>2021-11-17T12:11:15.722Z</time>
      </trkpt>
      <trkpt lat="40.55662" lon="29.30705">
        <ele>314.340086</ele>
        <time>2021-11-17T12:11:59.691Z</time>
      </trkpt>
      <trkpt lat="40.5571" lon="29.30656">
        <ele>319.20952</ele>
        <time>2021-11-17T12:12:31.500Z</time>
      </trkpt>
      <trkpt lat="40.55726" lon="29.30638">
        <ele>320.209467</ele>
        <time>2021-11-17T12:12:41.751Z</time>
      </trkpt>
      <trkpt lat="40.55936" lon="29.30415">
        <ele>331.590365</ele>
        <time>2021-11-17T12:14:24.610Z</time>
      </trkpt>
      <trkpt lat="40.55978" lon="29.30382">
        <ele>333.326855</ele>
        <time>2021-11-17T12:14:41.334Z</time>
      </trkpt>
      <trkpt lat="40.56019" lon="29.30361">
        <ele>334.188043</ele>
        <time>2021-11-17T12:14:55.901Z</time>
      </trkpt>
      <trkpt lat="40.56068" lon="29.30349">
        <ele>334.967826</ele>
        <time>2021-11-17T12:15:11.476Z</time>
      </trkpt>
      <trkpt lat="40.56117" lon="29.30347">
        <ele>335.719323</ele>
        <time>2021-11-17T12:15:24.798Z</time>
      </trkpt>
      <trkpt lat="40.56175" lon="29.30356">
        <ele>336.272005</ele>
        <time>2021-11-17T12:15:39.061Z</time>
      </trkpt>
      <trkpt lat="40.5621" lon="29.3036">
        <ele>335.811878</ele>
        <time>2021-11-17T12:15:46.109Z</time>
      </trkpt>
      <trkpt lat="40.56267" lon="29.30366">
        <ele>335.067516</ele>
        <time>2021-11-17T12:15:56.599Z</time>
      </trkpt>
      <trkpt lat="40.56338" lon="29.30347">
        <ele>334.108755</ele>
        <time>2021-11-17T12:16:09.455Z</time>
      </trkpt>
      <trkpt lat="40.56348" lon="29.30341">
        <ele>333.876929</ele>
        <time>2021-11-17T12:16:11.373Z</time>
      </trkpt>
      <trkpt lat="40.56361" lon="29.30333">
        <ele>333.570495</ele>
        <time>2021-11-17T12:16:13.620Z</time>
      </trkpt>
      <trkpt lat="40.56409" lon="29.30291">
        <ele>332.290502</ele>
        <time>2021-11-17T12:16:23.296Z</time>
      </trkpt>
      <trkpt lat="40.56439" lon="29.30254">
        <ele>331.390323</ele>
        <time>2021-11-17T12:16:30.241Z</time>
      </trkpt>
      <trkpt lat="40.5645" lon="29.30231">
        <ele>330.921543</ele>
        <time>2021-11-17T12:16:33.916Z</time>
      </trkpt>
      <trkpt lat="40.56459" lon="29.30212">
        <ele>330.543421</ele>
        <time>2021-11-17T12:16:36.832Z</time>
      </trkpt>
      <trkpt lat="40.56468" lon="29.30187">
        <ele>330.082535</ele>
        <time>2021-11-17T12:16:40.520Z</time>
      </trkpt>
      <trkpt lat="40.56573" lon="29.29872">
        <ele>328.367185</ele>
        <time>2021-11-17T12:17:34.023Z</time>
      </trkpt>
      <trkpt lat="40.56602" lon="29.29808">
        <ele>328.110191</ele>
        <time>2021-11-17T12:17:46.697Z</time>
      </trkpt>
      <trkpt lat="40.56641" lon="29.29743">
        <ele>327.361934</ele>
        <time>2021-11-17T12:17:59.273Z</time>
      </trkpt>
      <trkpt lat="40.56676" lon="29.297">
        <ele>326.089835</ele>
        <time>2021-11-17T12:18:08.199Z</time>
      </trkpt>
      <trkpt lat="40.56776" lon="29.29609">
        <ele>322.62484</ele>
        <time>2021-11-17T12:18:27.795Z</time>
      </trkpt>
      <trkpt lat="40.56858" lon="29.29545">
        <ele>317.911122</ele>
        <time>2021-11-17T12:18:42.063Z</time>
      </trkpt>
      <trkpt lat="40.56915" lon="29.29514">
        <ele>314.877872</ele>
        <time>2021-11-17T12:18:51.200Z</time>
      </trkpt>
      <trkpt lat="40.57012" lon="29.29479">
        <ele>311.40169</ele>
        <time>2021-11-17T12:19:06.583Z</time>
      </trkpt>
      <trkpt lat="40.57141" lon="29.29457">
        <ele>308.316775</ele>
        <time>2021-11-17T12:19:29.570Z</time>
      </trkpt>
      <trkpt lat="40.57214" lon="29.29458">
        <ele>308.095106</ele>
        <time>2021-11-17T12:19:47.532Z</time>
      </trkpt>
      <trkpt lat="40.57312" lon="29.29478">
        <ele>307.051565</ele>
        <time>2021-11-17T12:20:10.807Z</time>
      </trkpt>
      <trkpt lat="40.57434" lon="29.29509">
        <ele>303.766359</ele>
        <time>2021-11-17T12:20:31.962Z</time>
      </trkpt>
      <trkpt lat="40.57651" lon="29.2956">
        <ele>290.510897</ele>
        <time>2021-11-17T12:21:03.704Z</time>
      </trkpt>
      <trkpt lat="40.57717" lon="29.29559">
        <ele>286.471811</ele>
        <time>2021-11-17T12:21:13.177Z</time>
      </trkpt>
      <trkpt lat="40.57786" lon="29.29541">
        <ele>282.143735</ele>
        <time>2021-11-17T12:21:23.547Z</time>
      </trkpt>
      <trkpt lat="40.57823" lon="29.29526">
        <ele>279.825142</ele>
        <time>2021-11-17T12:21:29.359Z</time>
      </trkpt>
      <trkpt lat="40.57874" lon="29.2949">
        <ele>276.647163</ele>
        <time>2021-11-17T12:21:38.052Z</time>
      </trkpt>
      <trkpt lat="40.58055" lon="29.29305">
        <ele>262.330204</ele>
        <time>2021-11-17T12:22:11.889Z</time>
      </trkpt>
      <trkpt lat="40.58081" lon="29.29286">
        <ele>260.276758</ele>
        <time>2021-11-17T12:22:16.041Z</time>
      </trkpt>
      <trkpt lat="40.58103" lon="29.29278">
        <ele>258.683691</ele>
        <time>2021-11-17T12:22:19.222Z</time>
      </trkpt>
      <trkpt lat="40.58137" lon="29.29274">
        <ele>255.734346</ele>
        <time>2021-11-17T12:22:23.904Z</time>
      </trkpt>
      <trkpt lat="40.58278" lon="29.29314">
        <ele>242.321096</ele>
        <time>2021-11-17T12:22:43.577Z</time>
      </trkpt>
      <trkpt lat="40.58328" lon="29.29308">
        <ele>238.926472</ele>
        <time>2021-11-17T12:22:50.601Z</time>
      </trkpt>
      <trkpt lat="40.58425" lon="29.29271">
        <ele>232.66157</ele>
        <time>2021-11-17T12:23:05.350Z</time>
      </trkpt>
      <trkpt lat="40.58565" lon="29.29185">
        <ele>224.813655</ele>
        <time>2021-11-17T12:23:29.540Z</time>
      </trkpt>
      <trkpt lat="40.58598" lon="29.29157">
        <ele>223.004007</ele>
        <time>2021-11-17T12:23:35.408Z</time>
      </trkpt>
      <trkpt lat="40.58657" lon="29.29106">
        <ele>219.032675</ele>
        <time>2021-11-17T12:23:46.011Z</time>
      </trkpt>
      <trkpt lat="40.58677" lon="29.29091">
        <ele>217.650194</ele>
        <time>2021-11-17T12:23:49.271Z</time>
      </trkpt>
      <trkpt lat="40.58738" lon="29.29078">
        <ele>213.914461</ele>
        <time>2021-11-17T12:23:58.250Z</time>
      </trkpt>
      <trkpt lat="40.58809" lon="29.29094">
        <ele>210.225138</ele>
        <time>2021-11-17T12:24:08.654Z</time>
      </trkpt>
      <trkpt lat="40.58859" lon="29.29083">
        <ele>208.659599</ele>
        <time>2021-11-17T12:24:16.371Z</time>
      </trkpt>
      <trkpt lat="40.58895" lon="29.29056">
        <ele>207.357188</ele>
        <time>2021-11-17T12:24:23.441Z</time>
      </trkpt>
      <trkpt lat="40.58949" lon="29.28985">
        <ele>205.232472</ele>
        <time>2021-11-17T12:24:38.154Z</time>
      </trkpt>
      <trkpt lat="40.58971" lon="29.28951">
        <ele>204.887218</ele>
        <time>2021-11-17T12:24:45.400Z</time>
      </trkpt>
      <trkpt lat="40.58989" lon="29.28908">
        <ele>204.511173</ele>
        <time>2021-11-17T12:24:53.507Z</time>
      </trkpt>
      <trkpt lat="40.58997" lon="29.28874">
        <ele>204.235917</ele>
        <time>2021-11-17T12:24:59.460Z</time>
      </trkpt>
      <trkpt lat="40.58999" lon="29.28815">
        <ele>203.781894</ele>
        <time>2021-11-17T12:25:08.264Z</time>
      </trkpt>
      <trkpt lat="40.58988" lon="29.28688">
        <ele>199.978257</ele>
        <time>2021-11-17T12:25:24.331Z</time>
      </trkpt>
      <trkpt lat="40.58997" lon="29.28634">
        <ele>197.878547</ele>
        <time>2021-11-17T12:25:30.531Z</time>
      </trkpt>
      <trkpt lat="40.59006" lon="29.28606">
        <ele>196.727489</ele>
        <time>2021-11-17T12:25:33.844Z</time>
      </trkpt>
      <trkpt lat="40.59036" lon="29.2855">
        <ele>193.930755</ele>
        <time>2021-11-17T12:25:41.283Z</time>
      </trkpt>
      <trkpt lat="40.591" lon="29.28473">
        <ele>187.525571</ele>
        <time>2021-11-17T12:25:53.486Z</time>
      </trkpt>
      <trkpt lat="40.59191" lon="29.28421">
        <ele>180.363934</ele>
        <time>2021-11-17T12:26:12.821Z</time>
      </trkpt>
      <trkpt lat="40.59208" lon="29.28345">
        <ele>176.732943</ele>
        <time>2021-11-17T12:26:24.862Z</time>
      </trkpt>
      <trkpt lat="40.59308" lon="29.28221">
        <ele>168.670226</ele>
        <time>2021-11-17T12:26:45.312Z</time>
      </trkpt>
      <trkpt lat="40.5937" lon="29.28149">
        <ele>164.215795</ele>
        <time>2021-11-17T12:26:57.818Z</time>
      </trkpt>
      <trkpt lat="40.59495" lon="29.28">
        <ele>154.421</ele>
        <time>2021-11-17T12:27:22.751Z</time>
      </trkpt>
      <trkpt lat="40.59582" lon="29.27899">
        <ele>147.425789</ele>
        <time>2021-11-17T12:27:39.502Z</time>
      </trkpt>
      <trkpt lat="40.59755" lon="29.27708">
        <ele>134.208267</ele>
        <time>2021-11-17T12:28:12.740Z</time>
      </trkpt>
      <trkpt lat="40.59777" lon="29.27674">
        <ele>132.325162</ele>
        <time>2021-11-17T12:28:17.811Z</time>
      </trkpt>
      <trkpt lat="40.59795" lon="29.27636">
        <ele>130.40851</ele>
        <time>2021-11-17T12:28:22.964Z</time>
      </trkpt>
      <trkpt lat="40.59814" lon="29.27577">
        <ele>127.476485</ele>
        <time>2021-11-17T12:28:30.221Z</time>
      </trkpt>
      <trkpt lat="40.59867" lon="29.2736">
        <ele>115.653017</ele>
        <time>2021-11-17T12:28:55.179Z</time>
      </trkpt>
      <trkpt lat="40.59893" lon="29.27305">
        <ele>111.540593</ele>
        <time>2021-11-17T12:29:01.972Z</time>
      </trkpt>
      <trkpt lat="40.5993" lon="29.27257">
        <ele>107.171344</ele>
        <time>2021-11-17T12:29:09.169Z</time>
      </trkpt>
      <trkpt lat="40.60039" lon="29.27195">
        <ele>98.102646</ele>
        <time>2021-11-17T12:29:25.549Z</time>
      </trkpt>
      <trkpt lat="40.60265" lon="29.27093">
        <ele>83.310282</ele>
        <time>2021-11-17T12:30:00.591Z</time>
      </trkpt>
      <trkpt lat="40.60312" lon="29.27081">
        <ele>80.706425</ele>
        <time>2021-11-17T12:30:07.915Z</time>
      </trkpt>
      <trkpt lat="40.6036" lon="29.27077">
        <ele>79.804961</ele>
        <time>2021-11-17T12:30:15.164Z</time>
      </trkpt>
      <trkpt lat="40.60443" lon="29.27081">
        <ele>79.935284</ele>
        <time>2021-11-17T12:30:31.376Z</time>
      </trkpt>
      <trkpt lat="40.60496" lon="29.27093">
        <ele>80.019081</ele>
        <time>2021-11-17T12:30:48.378Z</time>
      </trkpt>
      <trkpt lat="40.60498" lon="29.27078">
        <ele>80.038028</ele>
        <time>2021-11-17T12:30:52.624Z</time>
      </trkpt>
      <trkpt lat="40.60503" lon="29.27045">
        <ele>82.194622</ele>
        <time>2021-11-17T12:31:03.357Z</time>
      </trkpt>
      <trkpt lat="40.60549" lon="29.26855">
        <ele>95.675642</ele>
        <time>2021-11-17T12:32:36.356Z</time>
      </trkpt>
      <trkpt lat="40.60572" lon="29.26786">
        <ele>102.456188</ele>
        <time>2021-11-17T12:33:18.247Z</time>
      </trkpt>
      <trkpt lat="40.60595" lon="29.2673">
        <ele>108.303799</ele>
        <time>2021-11-17T12:33:54.225Z</time>
      </trkpt>
      <trkpt lat="40.60681" lon="29.26592">
        <ele>122.364249</ele>
        <time>2021-11-17T12:35:29.753Z</time>
      </trkpt>
      <trkpt lat="40.60712" lon="29.26516">
        <ele>127.589842</ele>
        <time>2021-11-17T12:36:02.575Z</time>
      </trkpt>
      <trkpt lat="40.60713" lon="29.26509">
        <ele>128.034134</ele>
        <time>2021-11-17T12:36:06.888Z</time>
      </trkpt>
      <trkpt lat="40.60769" lon="29.26547">
        <ele>132.566281</ele>
        <time>2021-11-17T12:36:33.082Z</time>
      </trkpt>
      <trkpt lat="40.60808" lon="29.2658">
        <ele>134.045577</ele>
        <time>2021-11-17T12:36:51.344Z</time>
      </trkpt>
      <trkpt lat="40.60839" lon="29.266">
        <ele>135.160313</ele>
        <time>2021-11-17T12:37:04.501Z</time>
      </trkpt>
      <trkpt lat="40.60958" lon="29.26641">
        <ele>138.679031</ele>
        <time>2021-11-17T12:37:42.760Z</time>
      </trkpt>
      <trkpt lat="40.60967" lon="29.26643">
        <ele>138.886485</ele>
        <time>2021-11-17T12:37:46.864Z</time>
      </trkpt>
      <trkpt lat="40.60985" lon="29.26642">
        <ele>139.259547</ele>
        <time>2021-11-17T12:37:52.313Z</time>
      </trkpt>
      <trkpt lat="40.6103" lon="29.26642">
        <ele>140.193643</ele>
        <time>2021-11-17T12:38:06.403Z</time>
      </trkpt>
      <trkpt lat="40.61097" lon="29.2666">
        <ele>141.627139</ele>
        <time>2021-11-17T12:38:28.117Z</time>
      </trkpt>
      <trkpt lat="40.61218" lon="29.26598">
        <ele>144.559095</ele>
        <time>2021-11-17T12:39:05.852Z</time>
      </trkpt>
      <trkpt lat="40.61254" lon="29.26595">
        <ele>145.384649</ele>
        <time>2021-11-17T12:39:17.189Z</time>
      </trkpt>
      <trkpt lat="40.61337" lon="29.26572">
        <ele>148.79399</ele>
        <time>2021-11-17T12:39:53.899Z</time>
      </trkpt>
      <trkpt lat="40.61364" lon="29.26576">
        <ele>149.997191</ele>
        <time>2021-11-17T12:40:06.399Z</time>
      </trkpt>
      <trkpt lat="40.61394" lon="29.26594">
        <ele>151.50687</ele>
        <time>2021-11-17T12:40:20.486Z</time>
      </trkpt>
      <trkpt lat="40.61411" lon="29.26595">
        <ele>152.262746</ele>
        <time>2021-11-17T12:40:27.816Z</time>
      </trkpt>
      <trkpt lat="40.6143" lon="29.26594">
        <ele>153.103566</ele>
        <time>2021-11-17T12:40:35.526Z</time>
      </trkpt>
      <trkpt lat="40.61434" lon="29.26594">
        <ele>153.296871</ele>
        <time>2021-11-17T12:40:39.193Z</time>
      </trkpt>
      <trkpt lat="40.61528" lon="29.26613">
        <ele>153.317221</ele>
        <time>2021-11-17T12:41:09.659Z</time>
      </trkpt>
      <trkpt lat="40.61583" lon="29.26616">
        <ele>152.956387</ele>
        <time>2021-11-17T12:41:22.019Z</time>
      </trkpt>
      <trkpt lat="40.61651" lon="29.26653">
        <ele>149.755825</ele>
        <time>2021-11-17T12:41:33.108Z</time>
      </trkpt>
      <trkpt lat="40.61657" lon="29.26654">
        <ele>149.139263</ele>
        <time>2021-11-17T12:41:34.048Z</time>
      </trkpt>
      <trkpt lat="40.61669" lon="29.26657">
        <ele>148.001317</ele>
        <time>2021-11-17T12:41:35.780Z</time>
      </trkpt>
      <trkpt lat="40.61694" lon="29.26648">
        <ele>145.553998</ele>
        <time>2021-11-17T12:41:39.468Z</time>
      </trkpt>
      <trkpt lat="40.61705" lon="29.26637">
        <ele>144.252092</ele>
        <time>2021-11-17T12:41:41.415Z</time>
      </trkpt>
      <trkpt lat="40.61779" lon="29.26481">
        <ele>130.36235</ele>
        <time>2021-11-17T12:42:01.022Z</time>
      </trkpt>
      <trkpt lat="40.61819" lon="29.26415">
        <ele>123.350591</ele>
        <time>2021-11-17T12:42:10.167Z</time>
      </trkpt>
      <trkpt lat="40.61913" lon="29.26224">
        <ele>105.16878</ele>
        <time>2021-11-17T12:42:34.654Z</time>
      </trkpt>
      <trkpt lat="40.61945" lon="29.26166">
        <ele>99.508531</ele>
        <time>2021-11-17T12:42:42.362Z</time>
      </trkpt>
      <trkpt lat="40.61989" lon="29.25965">
        <ele>82.876041</ele>
        <time>2021-11-17T12:43:04.803Z</time>
      </trkpt>
      <trkpt lat="40.61984" lon="29.25939">
        <ele>80.696159</ele>
        <time>2021-11-17T12:43:07.748Z</time>
      </trkpt>
      <trkpt lat="40.61955" lon="29.25916">
        <ele>77.349283</ele>
        <time>2021-11-17T12:43:12.514Z</time>
      </trkpt>
      <trkpt lat="40.61974" lon="29.25819">
        <ele>70.27073</ele>
        <time>2021-11-17T12:43:23.458Z</time>
      </trkpt>
      <trkpt lat="40.62017" lon="29.25739">
        <ele>63.430773</ele>
        <time>2021-11-17T12:43:34.122Z</time>
      </trkpt>
      <trkpt lat="40.62032" lon="29.25727">
        <ele>61.791011</ele>
        <time>2021-11-17T12:43:36.686Z</time>
      </trkpt>
      <trkpt lat="40.62049" lon="29.25731">
        <ele>60.168443</ele>
        <time>2021-11-17T12:43:39.269Z</time>
      </trkpt>
      <trkpt lat="40.62078" lon="29.25761">
        <ele>56.830773</ele>
        <time>2021-11-17T12:43:44.537Z</time>
      </trkpt>
      <trkpt lat="40.62092" lon="29.25759">
        <ele>55.461169</ele>
        <time>2021-11-17T12:43:46.679Z</time>
      </trkpt>
      <trkpt lat="40.62098" lon="29.25741">
        <ele>54.075794</ele>
        <time>2021-11-17T12:43:48.832Z</time>
      </trkpt>
      <trkpt lat="40.62098" lon="29.25685">
        <ele>50.186883</ele>
        <time>2021-11-17T12:43:54.893Z</time>
      </trkpt>
      <trkpt lat="40.62108" lon="29.25618">
        <ele>45.402859</ele>
        <time>2021-11-17T12:44:02.440Z</time>
      </trkpt>
      <trkpt lat="40.62128" lon="29.25538">
        <ele>40.782034</ele>
        <time>2021-11-17T12:44:11.693Z</time>
      </trkpt>
      <trkpt lat="40.62028" lon="29.2548">
        <ele>32.83024</ele>
        <time>2021-11-17T12:44:27.225Z</time>
      </trkpt>
      <trkpt lat="40.62001" lon="29.25467">
        <ele>31.631616</ele>
        <time>2021-11-17T12:44:31.671Z</time>
      </trkpt>
      <trkpt lat="40.61993" lon="29.25465">
        <ele>31.361637</ele>
        <time>2021-11-17T12:44:32.953Z</time>
      </trkpt>
      <trkpt lat="40.62004" lon="29.25413">
        <ele>30.083554</ele>
        <time>2021-11-17T12:44:40.043Z</time>
      </trkpt>
      <trkpt lat="40.62101" lon="29.25197">
        <ele>25.588158</ele>
        <time>2021-11-17T12:45:15.062Z</time>
      </trkpt>
      <trkpt lat="40.6214" lon="29.25092">
        <ele>24.338753</ele>
        <time>2021-11-17T12:45:33.366Z</time>
      </trkpt>
      <trkpt lat="40.62155" lon="29.25056">
        <ele>23.953002</ele>
        <time>2021-11-17T12:45:39.809Z</time>
      </trkpt>
      <trkpt lat="40.62383" lon="29.25229">
        <ele>20.835732</ele>
        <time>2021-11-17T12:46:29.235Z</time>
      </trkpt>
      <trkpt lat="40.62453" lon="29.25277">
        <ele>19.893914</ele>
        <time>2021-11-17T12:46:44.120Z</time>
      </trkpt>
      <trkpt lat="40.62536" lon="29.25312">
        <ele>19.203057</ele>
        <time>2021-11-17T12:47:01.138Z</time>
      </trkpt>
      <trkpt lat="40.62694" lon="29.25424">
        <ele>18.060653</ele>
        <time>2021-11-17T12:47:37.683Z</time>
      </trkpt>
      <trkpt lat="40.62711" lon="29.25433">
        <ele>17.97029</ele>
        <time>2021-11-17T12:47:41.385Z</time>
      </trkpt>
      <trkpt lat="40.62729" lon="29.25444">
        <ele>17.872255</ele>
        <time>2021-11-17T12:47:45.673Z</time>
      </trkpt>
      <trkpt lat="40.62785" lon="29.25475">
        <ele>17.583343</ele>
        <time>2021-11-17T12:47:58.192Z</time>
      </trkpt>
      <trkpt lat="40.62919" lon="29.25535">
        <ele>17.002304</ele>
        <time>2021-11-17T12:48:27.625Z</time>
      </trkpt>
      <trkpt lat="40.62983" lon="29.25554">
        <ele>16.740612</ele>
        <time>2021-11-17T12:48:41.420Z</time>
      </trkpt>
      <trkpt lat="40.6303" lon="29.25567">
        <ele>16.557227</ele>
        <time>2021-11-17T12:48:51.420Z</time>
      </trkpt>
      <trkpt lat="40.6305" lon="29.25575">
        <ele>16.47278</ele>
        <time>2021-11-17T12:48:56.036Z</time>
      </trkpt>
      <trkpt lat="40.63129" lon="29.256">
        <ele>16.151729</ele>
        <time>2021-11-17T12:49:12.700Z</time>
      </trkpt>
      <trkpt lat="40.63176" lon="29.2562">
        <ele>15.894899</ele>
        <time>2021-11-17T12:49:23.013Z</time>
      </trkpt>
      <trkpt lat="40.63194" lon="29.25627">
        <ele>15.79935</ele>
        <time>2021-11-17T12:49:26.775Z</time>
      </trkpt>
      <trkpt lat="40.63204" lon="29.25632">
        <ele>15.747602</ele>
        <time>2021-11-17T12:49:28.880Z</time>
      </trkpt>
      <trkpt lat="40.63224" lon="29.25641">
        <ele>15.638401</ele>
        <time>2021-11-17T12:49:33.179Z</time>
      </trkpt>
      <trkpt lat="40.63245" lon="29.25646">
        <ele>15.527376</ele>
        <time>2021-11-17T12:49:37.681Z</time>
      </trkpt>
      <trkpt lat="40.63263" lon="29.25649">
        <ele>15.432918</ele>
        <time>2021-11-17T12:49:41.395Z</time>
      </trkpt>
      <trkpt lat="40.63326" lon="29.25653">
        <ele>15.1598</ele>
        <time>2021-11-17T12:49:54.477Z</time>
      </trkpt>
      <trkpt lat="40.63387" lon="29.25657">
        <ele>14.949107</ele>
        <time>2021-11-17T12:50:07.163Z</time>
      </trkpt>
      <trkpt lat="40.63423" lon="29.2567">
        <ele>14.817431</ele>
        <time>2021-11-17T12:50:15.134Z</time>
      </trkpt>
      <trkpt lat="40.63454" lon="29.2567">
        <ele>14.710315</ele>
        <time>2021-11-17T12:50:21.717Z</time>
      </trkpt>
      <trkpt lat="40.63518" lon="29.2567">
        <ele>14.300175</ele>
        <time>2021-11-17T12:50:35.147Z</time>
      </trkpt>
      <trkpt lat="40.63586" lon="29.25673">
        <ele>13.786709</ele>
        <time>2021-11-17T12:50:48.550Z</time>
      </trkpt>
      <trkpt lat="40.63598" lon="29.25674">
        <ele>13.691743</ele>
        <time>2021-11-17T12:50:51.006Z</time>
      </trkpt>
      <trkpt lat="40.63631" lon="29.25678">
        <ele>13.442414</ele>
        <time>2021-11-17T12:50:57.372Z</time>
      </trkpt>
      <trkpt lat="40.63672" lon="29.25683">
        <ele>13.053411</ele>
        <time>2021-11-17T12:51:05.145Z</time>
      </trkpt>
      <trkpt lat="40.63696" lon="29.25687">
        <ele>12.758266</ele>
        <time>2021-11-17T12:51:09.780Z</time>
      </trkpt>
      <trkpt lat="40.63746" lon="29.25696">
        <ele>12.153175</ele>
        <time>2021-11-17T12:51:19.193Z</time>
      </trkpt>
      <trkpt lat="40.63779" lon="29.25703">
        <ele>11.754545</ele>
        <time>2021-11-17T12:51:25.372Z</time>
      </trkpt>
      <trkpt lat="40.63805" lon="29.2571">
        <ele>11.438658</ele>
        <time>2021-11-17T12:51:30.303Z</time>
      </trkpt>
      <trkpt lat="40.63826" lon="29.25715">
        <ele>11.184668</ele>
        <time>2021-11-17T12:51:34.279Z</time>
      </trkpt>
      <trkpt lat="40.639" lon="29.25737">
        <ele>10.805959</ele>
        <time>2021-11-17T12:51:49.605Z</time>
      </trkpt>
      <trkpt lat="40.63915" lon="29.25743">
        <ele>10.739585</ele>
        <time>2021-11-17T12:51:52.760Z</time>
      </trkpt>
      <trkpt lat="40.63973" lon="29.25759">
        <ele>10.473131</ele>
        <time>2021-11-17T12:52:05.292Z</time>
      </trkpt>
      <trkpt lat="40.64011" lon="29.2577">
        <ele>10.328862</ele>
        <time>2021-11-17T12:52:13.741Z</time>
      </trkpt>
      <trkpt lat="40.64046" lon="29.25785">
        <ele>10.379615</ele>
        <time>2021-11-17T12:52:22.066Z</time>
      </trkpt>
      <trkpt lat="40.6409" lon="29.25808">
        <ele>10.445874</ele>
        <time>2021-11-17T12:52:33.276Z</time>
      </trkpt>
      <trkpt lat="40.6411" lon="29.25819">
        <ele>10.476033</ele>
        <time>2021-11-17T12:52:38.382Z</time>
      </trkpt>
      <trkpt lat="40.64146" lon="29.25839">
        <ele>10.530375</ele>
        <time>2021-11-17T12:52:47.658Z</time>
      </trkpt>
      <trkpt lat="40.64208" lon="29.25873">
        <ele>10.512333</ele>
        <time>2021-11-17T12:53:02.692Z</time>
      </trkpt>
      <trkpt lat="40.64248" lon="29.25893">
        <ele>10.444145</ele>
        <time>2021-11-17T12:53:12.085Z</time>
      </trkpt>
      <trkpt lat="40.64269" lon="29.25904">
        <ele>10.408736</ele>
        <time>2021-11-17T12:53:16.837Z</time>
      </trkpt>
      <trkpt lat="40.64326" lon="29.25939">
        <ele>10.307787</ele>
        <time>2021-11-17T12:53:30.005Z</time>
      </trkpt>
      <trkpt lat="40.64345" lon="29.25946">
        <ele>10.262578</ele>
        <time>2021-11-17T12:53:34.105Z</time>
      </trkpt>
      <trkpt lat="40.64372" lon="29.25956">
        <ele>10.144869</ele>
        <time>2021-11-17T12:53:40.118Z</time>
      </trkpt>
      <trkpt lat="40.6439" lon="29.25961">
        <ele>10.067595</ele>
        <time>2021-11-17T12:53:44.102Z</time>
      </trkpt>
      <trkpt lat="40.64431" lon="29.25972">
        <ele>9.896499</ele>
        <time>2021-11-17T12:53:52.904Z</time>
      </trkpt>
      <trkpt lat="40.64453" lon="29.25977">
        <ele>9.799949</ele>
        <time>2021-11-17T12:53:57.772Z</time>
      </trkpt>
      <trkpt lat="40.64519" lon="29.25988">
        <ele>9.512818</ele>
        <time>2021-11-17T12:54:11.338Z</time>
      </trkpt>
      <trkpt lat="40.64541" lon="29.25992">
        <ele>9.347435</ele>
        <time>2021-11-17T12:54:15.542Z</time>
      </trkpt>
      <trkpt lat="40.64592" lon="29.26007">
        <ele>8.943571</ele>
        <time>2021-11-17T12:54:25.649Z</time>
      </trkpt>
      <trkpt lat="40.64621" lon="29.26011">
        <ele>8.71429</ele>
        <time>2021-11-17T12:54:31.592Z</time>
      </trkpt>
      <trkpt lat="40.64653" lon="29.26013">
        <ele>8.468667</ele>
        <time>2021-11-17T12:54:37.964Z</time>
      </trkpt>
      <trkpt lat="40.64661" lon="29.26016">
        <ele>8.402261</ele>
        <time>2021-11-17T12:54:39.701Z</time>
      </trkpt>
      <trkpt lat="40.64715" lon="29.26032">
        <ele>8.040269</ele>
        <time>2021-11-17T12:54:50.438Z</time>
      </trkpt>
      <trkpt lat="40.6476" lon="29.26049">
        <ele>7.809543</ele>
        <time>2021-11-17T12:54:59.931Z</time>
      </trkpt>
      <trkpt lat="40.64794" lon="29.26064">
        <ele>7.629607</ele>
        <time>2021-11-17T12:55:07.342Z</time>
      </trkpt>
      <trkpt lat="40.64852" lon="29.26096">
        <ele>7.320987</ele>
        <time>2021-11-17T12:55:20.394Z</time>
      </trkpt>
      <trkpt lat="40.64892" lon="29.26121">
        <ele>7.18155</ele>
        <time>2021-11-17T12:55:30.208Z</time>
      </trkpt>
      <trkpt lat="40.64926" lon="29.26142">
        <ele>7.090709</ele>
        <time>2021-11-17T12:55:38.389Z</time>
      </trkpt>
      <trkpt lat="40.64955" lon="29.26154">
        <ele>7.017012</ele>
        <time>2021-11-17T12:55:44.927Z</time>
      </trkpt>
      <trkpt lat="40.64967" lon="29.26157">
        <ele>6.989899</ele>
        <time>2021-11-17T12:55:47.213Z</time>
      </trkpt>
      <trkpt lat="40.64975" lon="29.26159">
        <ele>6.970121</ele>
        <time>2021-11-17T12:55:48.963Z</time>
      </trkpt>
      <trkpt lat="40.64985" lon="29.26161">
        <ele>6.945206</ele>
        <time>2021-11-17T12:55:51.215Z</time>
      </trkpt>
      <trkpt lat="40.65008" lon="29.26166">
        <ele>6.888783</ele>
        <time>2021-11-17T12:55:56.173Z</time>
      </trkpt>
      <trkpt lat="40.65033" lon="29.26172">
        <ele>6.82777</ele>
        <time>2021-11-17T12:56:01.619Z</time>
      </trkpt>
      <trkpt lat="40.65087" lon="29.26186">
        <ele>6.705366</ele>
        <time>2021-11-17T12:56:13.057Z</time>
      </trkpt>
      <trkpt lat="40.65187" lon="29.26207">
        <ele>6.483117</ele>
        <time>2021-11-17T12:56:34.760Z</time>
      </trkpt>
      <trkpt lat="40.65187" lon="29.26207">
        <ele>6.483117</ele>
        <time>2021-11-17T12:56:34.765Z</time>
      </trkpt>
      <trkpt lat="40.65219" lon="29.26317">
        <ele>6.598595</ele>
        <time>2021-11-17T12:56:54.913Z</time>
      </trkpt>
      <trkpt lat="40.65243" lon="29.26397">
        <ele>6.770345</ele>
        <time>2021-11-17T12:57:10.170Z</time>
      </trkpt>
      <trkpt lat="40.65252" lon="29.26427">
        <ele>6.835157</ele>
        <time>2021-11-17T12:57:16.208Z</time>
      </trkpt>
      <trkpt lat="40.65255" lon="29.26441">
        <ele>6.863988</ele>
        <time>2021-11-17T12:57:18.823Z</time>
      </trkpt>
      <trkpt lat="40.65257" lon="29.2646">
        <ele>6.903611</ele>
        <time>2021-11-17T12:57:22.420Z</time>
      </trkpt>
      <trkpt lat="40.65259" lon="29.2649">
        <ele>7.070516</ele>
        <time>2021-11-17T12:57:28.041Z</time>
      </trkpt>
      <trkpt lat="40.65258" lon="29.26642">
        <ele>7.902959</ele>
        <time>2021-11-17T12:57:56.688Z</time>
      </trkpt>
      <trkpt lat="40.65266" lon="29.26651">
        <ele>7.978473</ele>
        <time>2021-11-17T12:57:59.409Z</time>
      </trkpt>
      <trkpt lat="40.65304" lon="29.26798">
        <ele>9.059568</ele>
        <time>2021-11-17T12:58:31.272Z</time>
      </trkpt>
      <trkpt lat="40.65319" lon="29.2685">
        <ele>9.475609</ele>
        <time>2021-11-17T12:58:42.872Z</time>
      </trkpt>
      <trkpt lat="40.65336" lon="29.2691">
        <ele>9.953681</ele>
        <time>2021-11-17T12:58:56.222Z</time>
      </trkpt>
      <trkpt lat="40.65359" lon="29.26988">
        <ele>10.28565</ele>
        <time>2021-11-17T12:59:13.557Z</time>
      </trkpt>
      <trkpt lat="40.65386" lon="29.26976">
        <ele>10.428237</ele>
        <time>2021-11-17T12:59:20.748Z</time>
      </trkpt>
      <trkpt lat="40.65402" lon="29.27054">
        <ele>10.74246</ele>
        <time>2021-11-17T12:59:36.036Z</time>
      </trkpt>
      <trkpt lat="40.6541" lon="29.27115">
        <ele>10.746216</ele>
        <time>2021-11-17T12:59:46.456Z</time>
      </trkpt>
      <trkpt lat="40.65424" lon="29.27192">
        <ele>10.251197</ele>
        <time>2021-11-17T12:59:58.854Z</time>
      </trkpt>
      <trkpt lat="40.65426" lon="29.27206">
        <ele>10.162699</ele>
        <time>2021-11-17T13:00:01.013Z</time>
      </trkpt>
      <trkpt lat="40.65433" lon="29.2726">
        <ele>9.821763</ele>
        <time>2021-11-17T13:00:09.349Z</time>
      </trkpt>
      <trkpt lat="40.65434" lon="29.27264">
        <ele>9.796404</ele>
        <time>2021-11-17T13:00:09.912Z</time>
      </trkpt>
      <trkpt lat="40.65501" lon="29.27258">
        <ele>9.409378</ele>
        <time>2021-11-17T13:00:23.330Z</time>
      </trkpt>
      <trkpt lat="40.65533" lon="29.27258">
        <ele>9.409378</ele>
        <time>2021-11-17T13:00:29.659Z</time>
      </trkpt>
      <trkpt lat="40.65578" lon="29.27257">
        <ele>9.409378</ele>
        <time>2021-11-17T13:00:38.764Z</time>
      </trkpt>
      <trkpt lat="40.65578" lon="29.27264">
        <ele>9.409378</ele>
        <time>2021-11-17T13:00:39.833Z</time>
      </trkpt>
      <trkpt lat="40.65578" lon="29.2729">
        <ele>9.409378</ele>
        <time>2021-11-17T13:00:43.833Z</time>
      </trkpt>
    </trkseg>
  </trk>
</gpx>